<?xml version='1.0' encoding='UTF-8'?><gpx version="1.1" creator="JPX - https://github.com/jenetics/jpx" xmlns="http://www.topografix.com/GPX/1/1"><trk><trkseg><trkpt lat="45.682681833303484" lon="11.340171615020074"><ele>399.0</ele><time>2026-04-04T11:40:03.999Z</time></trkpt><trkpt lat="45.682703904683095" lon="11.34001660997805"><ele>399.0</ele><time>2026-04-04T11:40:05.999Z</time></trkpt><trkpt lat="45.68272625996446" lon="11.339897343722331"><ele>399.0</ele><time>2026-04-04T11:40:06.999Z</time></trkpt><trkpt lat="45.682749391967036" lon="11.339765138199919"><ele>399.0</ele><time>2026-04-04T11:40:07.999Z</time></trkpt><trkpt lat="45.68276791750415" lon="11.339625298592683"><ele>399.0</ele><time>2026-04-04T11:40:08.999Z</time></trkpt><trkpt lat="45.68278222821034" lon="11.339442722631832"><ele>400.75</ele><time>2026-04-04T11:40:09.999Z</time></trkpt><trkpt lat="45.682801441074155" lon="11.339245334426977"><ele>402.5</ele><time>2026-04-04T11:40:10.999Z</time></trkpt><trkpt lat="45.68280446437781" lon="11.339128732181305"><ele>404.25</ele><time>2026-04-04T11:40:11.999Z</time></trkpt><trkpt lat="45.68279291765597" lon="11.338914398906265"><ele>406.0</ele><time>2026-04-04T11:40:12.999Z</time></trkpt><trkpt lat="45.68274384227246" lon="11.338697814513498"><ele>406.0</ele><time>2026-04-04T11:40:13.999Z</time></trkpt><trkpt lat="45.682708302830676" lon="11.338586782345395"><ele>406.0</ele><time>2026-04-04T11:40:14.999Z</time></trkpt><trkpt lat="45.68262860778067" lon="11.338248870222115"><ele>406.0</ele><time>2026-04-04T11:40:15.999Z</time></trkpt><trkpt lat="45.68257980435765" lon="11.338008611277495"><ele>407.0</ele><time>2026-04-04T11:40:16.999Z</time></trkpt><trkpt lat="45.68253095531646" lon="11.337787773582697"><ele>408.0</ele><time>2026-04-04T11:40:17.999Z</time></trkpt><trkpt lat="45.68250215931219" lon="11.337628395207245"><ele>409.0</ele><time>2026-04-04T11:40:18.999Z</time></trkpt><trkpt lat="45.682481348850146" lon="11.33749341633434"><ele>410.0</ele><time>2026-04-04T11:40:19.999Z</time></trkpt><trkpt lat="45.68247780366863" lon="11.337384114005262"><ele>410.0</ele><time>2026-04-04T11:40:20.999Z</time></trkpt><trkpt lat="45.682497198201936" lon="11.337269366152377"><ele>410.0</ele><time>2026-04-04T11:40:21.999Z</time></trkpt><trkpt lat="45.68251104088787" lon="11.33713341820846"><ele>410.0</ele><time>2026-04-04T11:40:22.999Z</time></trkpt><trkpt lat="45.68248413902965" lon="11.33699764896619"><ele>410.0</ele><time>2026-04-04T11:40:23.999Z</time></trkpt><trkpt lat="45.682450549765335" lon="11.336831429547656"><ele>410.0</ele><time>2026-04-04T11:40:24.999Z</time></trkpt><trkpt lat="45.68242116963715" lon="11.336658466668565"><ele>411.3333333333333</ele><time>2026-04-04T11:40:25.999Z</time></trkpt><trkpt lat="45.68239139363677" lon="11.336466336396729"><ele>412.66666666666663</ele><time>2026-04-04T11:40:26.999Z</time></trkpt><trkpt lat="45.68236072720953" lon="11.336261186971074"><ele>414.0</ele><time>2026-04-04T11:40:27.999Z</time></trkpt><trkpt lat="45.68232318424698" lon="11.336028210571648"><ele>417.33333333333337</ele><time>2026-04-04T11:40:28.999Z</time></trkpt><trkpt lat="45.68232194378622" lon="11.335804170135612"><ele>420.6666666666667</ele><time>2026-04-04T11:40:29.999Z</time></trkpt><trkpt lat="45.68233460922482" lon="11.335590245825177"><ele>424.0</ele><time>2026-04-04T11:40:30.999Z</time></trkpt><trkpt lat="45.68234744016847" lon="11.335365790350789"><ele>426.0</ele><time>2026-04-04T11:40:31.999Z</time></trkpt><trkpt lat="45.68234699808165" lon="11.335173980140022"><ele>428.0</ele><time>2026-04-04T11:40:32.999Z</time></trkpt><trkpt lat="45.68237166444141" lon="11.335025633264511"><ele>430.0</ele><time>2026-04-04T11:40:33.999Z</time></trkpt><trkpt lat="45.682425023258446" lon="11.334919116902386"><ele>432.0</ele><time>2026-04-04T11:40:34.999Z</time></trkpt><trkpt lat="45.6825234260794" lon="11.334907252879939"><ele>434.0</ele><time>2026-04-04T11:40:35.998Z</time></trkpt><trkpt lat="45.682620424530306" lon="11.334886508000588"><ele>434.0</ele><time>2026-04-04T11:40:36.998Z</time></trkpt><trkpt lat="45.682740583823815" lon="11.334879861799624"><ele>434.0</ele><time>2026-04-04T11:40:38Z</time></trkpt><trkpt lat="45.682874861584274" lon="11.334879827139813"><ele>434.0</ele><time>2026-04-04T11:40:39Z</time></trkpt><trkpt lat="45.68301560959357" lon="11.334859820342206"><ele>434.0</ele><time>2026-04-04T11:40:40Z</time></trkpt><trkpt lat="45.68311392430553" lon="11.334832182395369"><ele>435.0</ele><time>2026-04-04T11:40:41Z</time></trkpt><trkpt lat="45.683185614411585" lon="11.33479487019035"><ele>436.0</ele><time>2026-04-04T11:40:42Z</time></trkpt><trkpt lat="45.683287393746745" lon="11.334873613133954"><ele>437.0</ele><time>2026-04-04T11:40:44Z</time></trkpt><trkpt lat="45.68337005016854" lon="11.334937672162392"><ele>438.0</ele><time>2026-04-04T11:40:45Z</time></trkpt><trkpt lat="45.68345876059173" lon="11.335032214175433"><ele>439.0</ele><time>2026-04-04T11:40:46Z</time></trkpt><trkpt lat="45.68353886268908" lon="11.335096372676484"><ele>438.6</ele><time>2026-04-04T11:40:47Z</time></trkpt><trkpt lat="45.68361053085782" lon="11.335163285512433"><ele>438.2</ele><time>2026-04-04T11:40:49Z</time></trkpt><trkpt lat="45.683665074169596" lon="11.335009008043412"><ele>437.80000000000007</ele><time>2026-04-04T11:40:50Z</time></trkpt><trkpt lat="45.68365171073097" lon="11.334916761246197"><ele>437.40000000000003</ele><time>2026-04-04T11:40:51Z</time></trkpt><trkpt lat="45.68365258449036" lon="11.33479661139984"><ele>437.0</ele><time>2026-04-04T11:40:52Z</time></trkpt><trkpt lat="45.683640033165624" lon="11.334645341144416"><ele>436.5</ele><time>2026-04-04T11:40:53Z</time></trkpt><trkpt lat="45.6836134776072" lon="11.334464488942556"><ele>436.0</ele><time>2026-04-04T11:40:54Z</time></trkpt><trkpt lat="45.683614606381425" lon="11.334267731289033"><ele>435.5</ele><time>2026-04-04T11:40:55Z</time></trkpt><trkpt lat="45.68359873152242" lon="11.334101574580622"><ele>435.0</ele><time>2026-04-04T11:40:56Z</time></trkpt><trkpt lat="45.68358469132177" lon="11.333954620738627"><ele>435.6</ele><time>2026-04-04T11:40:57Z</time></trkpt><trkpt lat="45.68356360343679" lon="11.333823428649438"><ele>436.2</ele><time>2026-04-04T11:40:58Z</time></trkpt><trkpt lat="45.68357021239457" lon="11.333715167252734"><ele>436.79999999999995</ele><time>2026-04-04T11:40:59Z</time></trkpt><trkpt lat="45.6836516181534" lon="11.333594169738149"><ele>437.4</ele><time>2026-04-04T11:41:00Z</time></trkpt><trkpt lat="45.683719438546724" lon="11.333480584445498"><ele>438.0</ele><time>2026-04-04T11:41:01Z</time></trkpt><trkpt lat="45.68379882481003" lon="11.33335549452323"><ele>438.0</ele><time>2026-04-04T11:41:02Z</time></trkpt><trkpt lat="45.68386606611311" lon="11.333224011204157"><ele>437.99999999999994</ele><time>2026-04-04T11:41:03Z</time></trkpt><trkpt lat="45.683901561178224" lon="11.333099179597044"><ele>437.99999999999994</ele><time>2026-04-04T11:41:04Z</time></trkpt><trkpt lat="45.68391784541099" lon="11.33294141299344"><ele>438.0</ele><time>2026-04-04T11:41:05Z</time></trkpt><trkpt lat="45.68393418785674" lon="11.33279006473363"><ele>438.0</ele><time>2026-04-04T11:41:06Z</time></trkpt><trkpt lat="45.683941113057244" lon="11.332654069817002"><ele>439.2</ele><time>2026-04-04T11:41:07Z</time></trkpt><trkpt lat="45.68391102730517" lon="11.332494189912344"><ele>440.4</ele><time>2026-04-04T11:41:08Z</time></trkpt><trkpt lat="45.68387923064195" lon="11.332321349688021"><ele>441.59999999999997</ele><time>2026-04-04T11:41:09Z</time></trkpt><trkpt lat="45.68388202879235" lon="11.332173207492938"><ele>442.79999999999995</ele><time>2026-04-04T11:41:10Z</time></trkpt><trkpt lat="45.68387912825041" lon="11.33203542363736"><ele>444.0</ele><time>2026-04-04T11:41:11Z</time></trkpt><trkpt lat="45.68386068973903" lon="11.331898246785947"><ele>445.5</ele><time>2026-04-04T11:41:12Z</time></trkpt><trkpt lat="45.68386092468385" lon="11.331760460239915"><ele>447.0</ele><time>2026-04-04T11:41:13Z</time></trkpt><trkpt lat="45.68391935968008" lon="11.331637636794264"><ele>448.5</ele><time>2026-04-04T11:41:14Z</time></trkpt><trkpt lat="45.68400021155636" lon="11.331500697308375"><ele>450.0</ele><time>2026-04-04T11:41:15Z</time></trkpt><trkpt lat="45.684090174210446" lon="11.33135441688086"><ele>452.0</ele><time>2026-04-04T11:41:16Z</time></trkpt><trkpt lat="45.68414852210262" lon="11.331189833412768"><ele>454.0</ele><time>2026-04-04T11:41:17Z</time></trkpt><trkpt lat="45.68419258048862" lon="11.330991918425656"><ele>456.0</ele><time>2026-04-04T11:41:18Z</time></trkpt><trkpt lat="45.68424830099487" lon="11.330821536348475"><ele>458.0</ele><time>2026-04-04T11:41:19Z</time></trkpt><trkpt lat="45.68429634217558" lon="11.330705100482502"><ele>458.0</ele><time>2026-04-04T11:41:20Z</time></trkpt><trkpt lat="45.68430791828615" lon="11.33058813657885"><ele>457.99999999999994</ele><time>2026-04-04T11:41:21Z</time></trkpt><trkpt lat="45.68429015150205" lon="11.33045075458801"><ele>457.99999999999994</ele><time>2026-04-04T11:41:22Z</time></trkpt><trkpt lat="45.684254257036706" lon="11.330295528312334"><ele>458.0</ele><time>2026-04-04T11:41:23Z</time></trkpt><trkpt lat="45.68421455321138" lon="11.330125925977704"><ele>458.0</ele><time>2026-04-04T11:41:24Z</time></trkpt><trkpt lat="45.68416604475495" lon="11.329947148680503"><ele>458.79999999999995</ele><time>2026-04-04T11:41:25Z</time></trkpt><trkpt lat="45.68412664178659" lon="11.329770765248556"><ele>459.59999999999997</ele><time>2026-04-04T11:41:26Z</time></trkpt><trkpt lat="45.684090576018306" lon="11.329605733107723"><ele>460.40000000000003</ele><time>2026-04-04T11:41:27Z</time></trkpt><trkpt lat="45.68405799363133" lon="11.329482648848073"><ele>461.20000000000005</ele><time>2026-04-04T11:41:28Z</time></trkpt><trkpt lat="45.6840198536316" lon="11.329352016087322"><ele>462.0</ele><time>2026-04-04T11:41:29Z</time></trkpt><trkpt lat="45.68396423294443" lon="11.329246572432359"><ele>462.0</ele><time>2026-04-04T11:41:30Z</time></trkpt><trkpt lat="45.683900663281165" lon="11.329173238074437"><ele>462.00000000000006</ele><time>2026-04-04T11:41:31Z</time></trkpt><trkpt lat="45.683828505886034" lon="11.329117234648"><ele>462.00000000000006</ele><time>2026-04-04T11:41:32Z</time></trkpt><trkpt lat="45.68372239216512" lon="11.32901685873217"><ele>462.0</ele><time>2026-04-04T11:41:33Z</time></trkpt><trkpt lat="45.68363460551668" lon="11.328868723220369"><ele>462.0</ele><time>2026-04-04T11:41:34Z</time></trkpt><trkpt lat="45.683600447559236" lon="11.328705794908574"><ele>467.5</ele><time>2026-04-04T11:41:34.999Z</time></trkpt><trkpt lat="45.68356492805628" lon="11.328535687781656"><ele>473.0</ele><time>2026-04-04T11:41:35.999Z</time></trkpt><trkpt lat="45.68351259515772" lon="11.32836644470581"><ele>478.5</ele><time>2026-04-04T11:41:36.999Z</time></trkpt><trkpt lat="45.68349415874747" lon="11.328216272954641"><ele>484.0</ele><time>2026-04-04T11:41:37.999Z</time></trkpt><trkpt lat="45.68352908934781" lon="11.328083651573044"><ele>479.4</ele><time>2026-04-04T11:41:38.999Z</time></trkpt><trkpt lat="45.68360155616557" lon="11.327946921861287"><ele>474.79999999999995</ele><time>2026-04-04T11:41:39.999Z</time></trkpt><trkpt lat="45.68368976822261" lon="11.327823544830103"><ele>470.20000000000005</ele><time>2026-04-04T11:41:40.999Z</time></trkpt><trkpt lat="45.68376089246186" lon="11.327734938477548"><ele>465.6</ele><time>2026-04-04T11:41:41.999Z</time></trkpt><trkpt lat="45.6837822319174" lon="11.32764363067283"><ele>461.0</ele><time>2026-04-04T11:41:42.999Z</time></trkpt><trkpt lat="45.68376561723185" lon="11.327535670644805"><ele>460.99999999999994</ele><time>2026-04-04T11:41:43.999Z</time></trkpt><trkpt lat="45.68372568531129" lon="11.327452628309763"><ele>461.0</ele><time>2026-04-04T11:41:44.999Z</time></trkpt><trkpt lat="45.68366506904822" lon="11.327393941657997"><ele>461.0</ele><time>2026-04-04T11:41:45.999Z</time></trkpt><trkpt lat="45.68364681834039" lon="11.327267084954368"><ele>461.0</ele><time>2026-04-04T11:41:47.999Z</time></trkpt><trkpt lat="45.68370202066353" lon="11.32720844801845"><ele>460.99999999999994</ele><time>2026-04-04T11:41:48.999Z</time></trkpt><trkpt lat="45.68377119916845" lon="11.32715003020894"><ele>461.0</ele><time>2026-04-04T11:41:49.999Z</time></trkpt><trkpt lat="45.68383121493611" lon="11.327027100553705"><ele>463.5</ele><time>2026-04-04T11:41:50.999Z</time></trkpt><trkpt lat="45.68389737636206" lon="11.326887404166952"><ele>466.0</ele><time>2026-04-04T11:41:51.999Z</time></trkpt><trkpt lat="45.68399616408424" lon="11.32672570632854"><ele>468.5</ele><time>2026-04-04T11:41:52.999Z</time></trkpt><trkpt lat="45.6840708386255" lon="11.326618525602601"><ele>471.0</ele><time>2026-04-04T11:41:53.999Z</time></trkpt><trkpt lat="45.68417211585426" lon="11.326558328455114"><ele>471.0</ele><time>2026-04-04T11:41:54.999Z</time></trkpt><trkpt lat="45.68426102606629" lon="11.326529228225072"><ele>471.0</ele><time>2026-04-04T11:41:55.999Z</time></trkpt><trkpt lat="45.684343943327356" lon="11.326538632895693"><ele>471.0</ele><time>2026-04-04T11:41:56.999Z</time></trkpt><trkpt lat="45.68446146910379" lon="11.326564028935792"><ele>471.0</ele><time>2026-04-04T11:41:57.999Z</time></trkpt><trkpt lat="45.684586109164" lon="11.326570128519185"><ele>471.0</ele><time>2026-04-04T11:41:58.999Z</time></trkpt><trkpt lat="45.68467063641166" lon="11.326518451751005"><ele>471.8</ele><time>2026-04-04T11:41:59.999Z</time></trkpt><trkpt lat="45.6847483450272" lon="11.326421191864403"><ele>472.6</ele><time>2026-04-04T11:42:00.999Z</time></trkpt><trkpt lat="45.68482475955902" lon="11.32630087090618"><ele>473.4</ele><time>2026-04-04T11:42:01.999Z</time></trkpt><trkpt lat="45.68488315222879" lon="11.326182724250891"><ele>474.2</ele><time>2026-04-04T11:42:02.999Z</time></trkpt><trkpt lat="45.68491882959064" lon="11.326057831961895"><ele>475.0</ele><time>2026-04-04T11:42:03.999Z</time></trkpt><trkpt lat="45.68494293342917" lon="11.325934452178373"><ele>476.33333333333337</ele><time>2026-04-04T11:42:04.999Z</time></trkpt><trkpt lat="45.68495893112426" lon="11.325818864643903"><ele>477.6666666666667</ele><time>2026-04-04T11:42:05.999Z</time></trkpt><trkpt lat="45.68497550143343" lon="11.325709302715383"><ele>479.0</ele><time>2026-04-04T11:42:06.999Z</time></trkpt><trkpt lat="45.685053114021166" lon="11.325696010658486"><ele>480.33333333333337</ele><time>2026-04-04T11:42:08.999Z</time></trkpt><trkpt lat="45.68513407663766" lon="11.325716104698287"><ele>481.6666666666667</ele><time>2026-04-04T11:42:09.999Z</time></trkpt><trkpt lat="45.68523226723741" lon="11.32571451363695"><ele>483.0</ele><time>2026-04-04T11:42:10.999Z</time></trkpt><trkpt lat="45.68533532568118" lon="11.325717734689247"><ele>483.0</ele><time>2026-04-04T11:42:11.999Z</time></trkpt><trkpt lat="45.6854329317567" lon="11.32573176860497"><ele>483.0</ele><time>2026-04-04T11:42:12.999Z</time></trkpt><trkpt lat="45.685499245758336" lon="11.325710121698561"><ele>483.0</ele><time>2026-04-04T11:42:13.999Z</time></trkpt><trkpt lat="45.68554207645954" lon="11.325642905869882"><ele>483.0</ele><time>2026-04-04T11:42:14.999Z</time></trkpt><trkpt lat="45.685579371289236" lon="11.32554468590641"><ele>483.0</ele><time>2026-04-04T11:42:15.999Z</time></trkpt><trkpt lat="45.68559347790888" lon="11.325432449064804"><ele>483.0</ele><time>2026-04-04T11:42:16.999Z</time></trkpt><trkpt lat="45.685590667504655" lon="11.325304700327374"><ele>485.59999999999997</ele><time>2026-04-04T11:42:17.999Z</time></trkpt><trkpt lat="45.68556732535306" lon="11.325159713008182"><ele>488.19999999999993</ele><time>2026-04-04T11:42:18.999Z</time></trkpt><trkpt lat="45.685544314290105" lon="11.325011743892162"><ele>490.8</ele><time>2026-04-04T11:42:19.999Z</time></trkpt><trkpt lat="45.685531797851105" lon="11.324897414451664"><ele>493.4</ele><time>2026-04-04T11:42:20.999Z</time></trkpt><trkpt lat="45.685572696190015" lon="11.32477426695528"><ele>496.0</ele><time>2026-04-04T11:42:21.999Z</time></trkpt><trkpt lat="45.68561076577703" lon="11.324671878519224"><ele>497.6666666666667</ele><time>2026-04-04T11:42:22.999Z</time></trkpt><trkpt lat="45.685607427621164" lon="11.324576990448612"><ele>499.33333333333337</ele><time>2026-04-04T11:42:23.999Z</time></trkpt><trkpt lat="45.685551724052516" lon="11.324482133785898"><ele>501.0</ele><time>2026-04-04T11:42:24.999Z</time></trkpt><trkpt lat="45.68550162205987" lon="11.324375037371498"><ele>502.66666666666663</ele><time>2026-04-04T11:42:25.999Z</time></trkpt><trkpt lat="45.685510177718534" lon="11.324235890981528"><ele>504.3333333333333</ele><time>2026-04-04T11:42:27.999Z</time></trkpt><trkpt lat="45.68556467622531" lon="11.324147062387592"><ele>506.0</ele><time>2026-04-04T11:42:28.999Z</time></trkpt><trkpt lat="45.68563524513155" lon="11.324063904490341"><ele>506.0</ele><time>2026-04-04T11:42:29.999Z</time></trkpt><trkpt lat="45.685720228624945" lon="11.324005718464058"><ele>506.0</ele><time>2026-04-04T11:42:30.999Z</time></trkpt><trkpt lat="45.685785340649254" lon="11.32387158941723"><ele>506.0</ele><time>2026-04-04T11:42:32.999Z</time></trkpt><trkpt lat="45.68578860558826" lon="11.32375425464929"><ele>506.0</ele><time>2026-04-04T11:42:33.999Z</time></trkpt><trkpt lat="45.685816459564684" lon="11.323604800199375"><ele>506.0</ele><time>2026-04-04T11:42:34.999Z</time></trkpt><trkpt lat="45.685883232981304" lon="11.323460717641115"><ele>507.6</ele><time>2026-04-04T11:42:35.998Z</time></trkpt><trkpt lat="45.6859334901335" lon="11.323358495671846"><ele>509.20000000000005</ele><time>2026-04-04T11:42:36.998Z</time></trkpt><trkpt lat="45.685917228370236" lon="11.323265400644026"><ele>510.79999999999995</ele><time>2026-04-04T11:42:37.998Z</time></trkpt><trkpt lat="45.68586235817982" lon="11.323172333271547"><ele>512.4</ele><time>2026-04-04T11:42:38.998Z</time></trkpt><trkpt lat="45.68580505192672" lon="11.323052135203005"><ele>514.0</ele><time>2026-04-04T11:42:39.998Z</time></trkpt><trkpt lat="45.685725502304514" lon="11.322943971731398"><ele>516.4</ele><time>2026-04-04T11:42:40.998Z</time></trkpt><trkpt lat="45.68563365404288" lon="11.322842158254177"><ele>518.8</ele><time>2026-04-04T11:42:41.998Z</time></trkpt><trkpt lat="45.68553749480015" lon="11.322761811758633"><ele>521.2</ele><time>2026-04-04T11:42:42.998Z</time></trkpt><trkpt lat="45.685471669520865" lon="11.322717568973932"><ele>523.6</ele><time>2026-04-04T11:42:45Z</time></trkpt><trkpt lat="45.685356221681" lon="11.32270712582945"><ele>526.0</ele><time>2026-04-04T11:42:47Z</time></trkpt><trkpt lat="45.68527061052645" lon="11.322693805738274"><ele>530.8</ele><time>2026-04-04T11:42:49Z</time></trkpt><trkpt lat="45.68517818017787" lon="11.322730225474048"><ele>535.6</ele><time>2026-04-04T11:42:51Z</time></trkpt><trkpt lat="45.68507444526362" lon="11.322702730155434"><ele>540.4</ele><time>2026-04-04T11:42:53Z</time></trkpt><trkpt lat="45.684929306315965" lon="11.322704196030653"><ele>545.2</ele><time>2026-04-04T11:42:55Z</time></trkpt><trkpt lat="45.684831106590494" lon="11.322684233846855"><ele>550.0</ele><time>2026-04-04T11:42:57Z</time></trkpt><trkpt lat="45.68484096574166" lon="11.32254116059406"><ele>550.0</ele><time>2026-04-04T11:43:01Z</time></trkpt><trkpt lat="45.68486203905211" lon="11.322400406275403"><ele>550.0</ele><time>2026-04-04T11:43:03Z</time></trkpt><trkpt lat="45.68486505559381" lon="11.322253112365374"><ele>550.0</ele><time>2026-04-04T11:43:05Z</time></trkpt><trkpt lat="45.684779651376864" lon="11.322129123940712"><ele>550.0</ele><time>2026-04-04T11:43:07Z</time></trkpt><trkpt lat="45.684761958071164" lon="11.321948708011753"><ele>550.8</ele><time>2026-04-04T11:43:09Z</time></trkpt><trkpt lat="45.68476614511745" lon="11.32181247674169"><ele>551.6</ele><time>2026-04-04T11:43:10Z</time></trkpt><trkpt lat="45.68476783038359" lon="11.321652287758642"><ele>552.4</ele><time>2026-04-04T11:43:11Z</time></trkpt><trkpt lat="45.684734010452125" lon="11.321504222060238"><ele>553.2</ele><time>2026-04-04T11:43:12Z</time></trkpt><trkpt lat="45.68468470765153" lon="11.321337392127743"><ele>554.0</ele><time>2026-04-04T11:43:13Z</time></trkpt><trkpt lat="45.68463020561101" lon="11.32114754684872"><ele>554.4</ele><time>2026-04-04T11:43:14Z</time></trkpt><trkpt lat="45.68460955838456" lon="11.320979842375198"><ele>554.8</ele><time>2026-04-04T11:43:15Z</time></trkpt><trkpt lat="45.68460331677722" lon="11.320833545308355"><ele>555.2</ele><time>2026-04-04T11:43:16Z</time></trkpt><trkpt lat="45.68457986844931" lon="11.320708068719938"><ele>555.6</ele><time>2026-04-04T11:43:17Z</time></trkpt><trkpt lat="45.684534386992866" lon="11.320570938296115"><ele>556.0</ele><time>2026-04-04T11:43:18Z</time></trkpt><trkpt lat="45.684459839210696" lon="11.320439684062102"><ele>557.0</ele><time>2026-04-04T11:43:19Z</time></trkpt><trkpt lat="45.68439806494308" lon="11.320368067807255"><ele>558.0</ele><time>2026-04-04T11:43:20Z</time></trkpt><trkpt lat="45.68435765748006" lon="11.320296931416738"><ele>559.0</ele><time>2026-04-04T11:43:22Z</time></trkpt><trkpt lat="45.68440895464134" lon="11.320182856996945"><ele>560.0</ele><time>2026-04-04T11:43:26Z</time></trkpt><trkpt lat="45.68446686122511" lon="11.320095679045627"><ele>561.0</ele><time>2026-04-04T11:43:27Z</time></trkpt><trkpt lat="45.6845322973264" lon="11.319978946220166"><ele>562.0</ele><time>2026-04-04T11:43:28Z</time></trkpt><trkpt lat="45.68459782357234" lon="11.319836021863026"><ele>562.75</ele><time>2026-04-04T11:43:29Z</time></trkpt><trkpt lat="45.684652841085466" lon="11.319684120670845"><ele>563.5</ele><time>2026-04-04T11:43:30Z</time></trkpt><trkpt lat="45.68469155210853" lon="11.319510969216799"><ele>564.25</ele><time>2026-04-04T11:43:31Z</time></trkpt><trkpt lat="45.684732491473774" lon="11.319319623175604"><ele>565.0</ele><time>2026-04-04T11:43:32Z</time></trkpt><trkpt lat="45.684773526051906" lon="11.319105861854998"><ele>565.0</ele><time>2026-04-04T11:43:33Z</time></trkpt><trkpt lat="45.68483019512019" lon="11.31894908593964"><ele>565.0</ele><time>2026-04-04T11:43:34Z</time></trkpt><trkpt lat="45.68485697754359" lon="11.318793874557194"><ele>565.0</ele><time>2026-04-04T11:43:35Z</time></trkpt><trkpt lat="45.6848685455663" lon="11.318630572908253"><ele>565.0</ele><time>2026-04-04T11:43:36Z</time></trkpt><trkpt lat="45.68484246053574" lon="11.318507213878528"><ele>565.0</ele><time>2026-04-04T11:43:37Z</time></trkpt><trkpt lat="45.684797730940126" lon="11.318396239775458"><ele>566.2</ele><time>2026-04-04T11:43:38Z</time></trkpt><trkpt lat="45.68473521404046" lon="11.318242982307629"><ele>567.4</ele><time>2026-04-04T11:43:39Z</time></trkpt><trkpt lat="45.684684018246486" lon="11.318123974439501"><ele>568.6</ele><time>2026-04-04T11:43:40Z</time></trkpt><trkpt lat="45.68468935289363" lon="11.318012105579678"><ele>569.8</ele><time>2026-04-04T11:43:41Z</time></trkpt><trkpt lat="45.68470249371346" lon="11.317848155717336"><ele>571.0</ele><time>2026-04-04T11:43:41.999Z</time></trkpt><trkpt lat="45.68472070810519" lon="11.317666932522842"><ele>572.0</ele><time>2026-04-04T11:43:42.999Z</time></trkpt><trkpt lat="45.6847751813542" lon="11.31746043313579"><ele>573.0</ele><time>2026-04-04T11:43:43.999Z</time></trkpt><trkpt lat="45.68484541729778" lon="11.317240502682209"><ele>574.0</ele><time>2026-04-04T11:43:44.999Z</time></trkpt><trkpt lat="45.68492001268224" lon="11.317086771946729"><ele>576.5</ele><time>2026-04-04T11:43:45.999Z</time></trkpt><trkpt lat="45.684973493827975" lon="11.316968017535405"><ele>579.0</ele><time>2026-04-04T11:43:46.999Z</time></trkpt><trkpt lat="45.685007340516464" lon="11.316828175034459"><ele>581.5</ele><time>2026-04-04T11:43:47.999Z</time></trkpt><trkpt lat="45.68505092882228" lon="11.316634808920297"><ele>584.0</ele><time>2026-04-04T11:43:48.999Z</time></trkpt><trkpt lat="45.68510731264808" lon="11.316403090084956"><ele>585.25</ele><time>2026-04-04T11:43:49.999Z</time></trkpt><trkpt lat="45.685150556627825" lon="11.316196761035446"><ele>586.5</ele><time>2026-04-04T11:43:50.999Z</time></trkpt><trkpt lat="45.68520350304755" lon="11.316019171742711"><ele>587.75</ele><time>2026-04-04T11:43:51.999Z</time></trkpt><trkpt lat="45.685266953264154" lon="11.31586994680171"><ele>589.0</ele><time>2026-04-04T11:43:52.999Z</time></trkpt><trkpt lat="45.685293972452364" lon="11.315737059940313"><ele>589.75</ele><time>2026-04-04T11:43:53.999Z</time></trkpt><trkpt lat="45.68530513273452" lon="11.315580832618942"><ele>590.5</ele><time>2026-04-04T11:43:54.999Z</time></trkpt><trkpt lat="45.685271994726506" lon="11.315416405058798"><ele>591.25</ele><time>2026-04-04T11:43:55.999Z</time></trkpt><trkpt lat="45.685292628562664" lon="11.315246334777228"><ele>592.0</ele><time>2026-04-04T11:43:56.999Z</time></trkpt><trkpt lat="45.68522720725963" lon="11.315104988277586"><ele>592.0</ele><time>2026-04-04T11:43:57.999Z</time></trkpt><trkpt lat="45.68522572890747" lon="11.314998496540252"><ele>592.0</ele><time>2026-04-04T11:43:58.999Z</time></trkpt><trkpt lat="45.68524253524545" lon="11.31484855225792"><ele>592.0</ele><time>2026-04-04T11:44:00.999Z</time></trkpt><trkpt lat="45.685306863080136" lon="11.314793610134078"><ele>592.0</ele><time>2026-04-04T11:44:01.999Z</time></trkpt><trkpt lat="45.68542810426145" lon="11.314786605758023"><ele>592.0</ele><time>2026-04-04T11:44:02.999Z</time></trkpt><trkpt lat="45.685536720188935" lon="11.314711057206937"><ele>589.4</ele><time>2026-04-04T11:44:03.999Z</time></trkpt><trkpt lat="45.68560815513652" lon="11.314636195704026"><ele>586.8000000000001</ele><time>2026-04-04T11:44:04.999Z</time></trkpt><trkpt lat="45.6856175340401" lon="11.314486067954974"><ele>584.2</ele><time>2026-04-04T11:44:05.999Z</time></trkpt><trkpt lat="45.6856966719842" lon="11.314363149400485"><ele>581.6</ele><time>2026-04-04T11:44:06.999Z</time></trkpt><trkpt lat="45.68574862759515" lon="11.314276833400502"><ele>579.0</ele><time>2026-04-04T11:44:07.999Z</time></trkpt><trkpt lat="45.685855375585334" lon="11.314266277445956"><ele>579.0</ele><time>2026-04-04T11:44:09.999Z</time></trkpt><trkpt lat="45.685922439311405" lon="11.314325364061233"><ele>579.0</ele><time>2026-04-04T11:44:10.999Z</time></trkpt><trkpt lat="45.68601744248574" lon="11.31435369650413"><ele>579.0</ele><time>2026-04-04T11:44:11.999Z</time></trkpt><trkpt lat="45.686117171777035" lon="11.314374745745326"><ele>579.0</ele><time>2026-04-04T11:44:12.999Z</time></trkpt><trkpt lat="45.6862144096773" lon="11.314373256123524"><ele>579.0</ele><time>2026-04-04T11:44:13.999Z</time></trkpt><trkpt lat="45.6862729065199" lon="11.314290154074866"><ele>577.0</ele><time>2026-04-04T11:44:14.999Z</time></trkpt><trkpt lat="45.686346128465736" lon="11.31420828548955"><ele>575.0</ele><time>2026-04-04T11:44:15.999Z</time></trkpt><trkpt lat="45.686392802790095" lon="11.314145219389628"><ele>573.0</ele><time>2026-04-04T11:44:16.999Z</time></trkpt><trkpt lat="45.68643582158065" lon="11.314056283303557"><ele>571.0</ele><time>2026-04-04T11:44:17.999Z</time></trkpt><trkpt lat="45.68642891890634" lon="11.313939843880984"><ele>569.0</ele><time>2026-04-04T11:44:18.999Z</time></trkpt><trkpt lat="45.686377524836495" lon="11.3138576248832"><ele>567.0</ele><time>2026-04-04T11:44:19.999Z</time></trkpt><trkpt lat="45.68632150727251" lon="11.313704672044846"><ele>566.0</ele><time>2026-04-04T11:44:20.999Z</time></trkpt><trkpt lat="45.68631496819047" lon="11.313472677154875"><ele>565.0</ele><time>2026-04-04T11:44:21.999Z</time></trkpt><trkpt lat="45.6862834761388" lon="11.313264617575287"><ele>564.0</ele><time>2026-04-04T11:44:22.999Z</time></trkpt><trkpt lat="45.686270872462764" lon="11.313096986864386"><ele>563.0</ele><time>2026-04-04T11:44:23.999Z</time></trkpt><trkpt lat="45.68626208910885" lon="11.312937597395553"><ele>563.0</ele><time>2026-04-04T11:44:24.999Z</time></trkpt><trkpt lat="45.68621686319349" lon="11.312788241494012"><ele>563.0</ele><time>2026-04-04T11:44:25.999Z</time></trkpt><trkpt lat="45.686171480036016" lon="11.312636579415585"><ele>563.0</ele><time>2026-04-04T11:44:26.999Z</time></trkpt><trkpt lat="45.686059189247615" lon="11.312487638488188"><ele>563.0</ele><time>2026-04-04T11:44:27.999Z</time></trkpt><trkpt lat="45.68596015571488" lon="11.312306446636251"><ele>566.5</ele><time>2026-04-04T11:44:28.999Z</time></trkpt><trkpt lat="45.68589615643894" lon="11.312145708481575"><ele>570.0</ele><time>2026-04-04T11:44:29.999Z</time></trkpt><trkpt lat="45.68596282001339" lon="11.312009070966075"><ele>573.5</ele><time>2026-04-04T11:44:31.999Z</time></trkpt><trkpt lat="45.685988894190174" lon="11.311826117086595"><ele>577.0</ele><time>2026-04-04T11:44:32.999Z</time></trkpt><trkpt lat="45.68600451972228" lon="11.311574888317942"><ele>577.0</ele><time>2026-04-04T11:44:33.999Z</time></trkpt><trkpt lat="45.686055504489076" lon="11.311407712768462"><ele>577.0</ele><time>2026-04-04T11:44:34.999Z</time></trkpt><trkpt lat="45.68609172767084" lon="11.311230815652427"><ele>577.0</ele><time>2026-04-04T11:44:35.999Z</time></trkpt><trkpt lat="45.68607497894966" lon="11.311099959802156"><ele>577.0</ele><time>2026-04-04T11:44:36.999Z</time></trkpt><trkpt lat="45.686007634974544" lon="11.310992479416212"><ele>576.8333333333334</ele><time>2026-04-04T11:44:38.999Z</time></trkpt><trkpt lat="45.68595792131702" lon="11.310896888822322"><ele>576.6666666666667</ele><time>2026-04-04T11:44:40.999Z</time></trkpt><trkpt lat="45.685953954903006" lon="11.310804931147684"><ele>576.5</ele><time>2026-04-04T11:44:42.998Z</time></trkpt><trkpt lat="45.686027674259684" lon="11.310753418985314"><ele>576.3333333333334</ele><time>2026-04-04T11:47:42Z</time></trkpt><trkpt lat="45.68614321461383" lon="11.310797665314333"><ele>576.1666666666666</ele><time>2026-04-04T11:47:44Z</time></trkpt><trkpt lat="45.68612487364467" lon="11.310884772593898"><ele>576.0</ele><time>2026-04-04T11:47:45Z</time></trkpt><trkpt lat="45.68623647886296" lon="11.310820148595415"><ele>578.3333333333334</ele><time>2026-04-04T11:47:46Z</time></trkpt><trkpt lat="45.68629521975783" lon="11.310671447621775"><ele>580.6666666666667</ele><time>2026-04-04T11:47:47Z</time></trkpt><trkpt lat="45.68618374892915" lon="11.310896650239687"><ele>583.0</ele><time>2026-04-04T11:47:48.999Z</time></trkpt><trkpt lat="45.686296567134164" lon="11.310645984744722"><ele>583.0</ele><time>2026-04-04T11:48:29.999Z</time></trkpt><trkpt lat="45.686316767077635" lon="11.310764070896093"><ele>583.0</ele><time>2026-04-04T11:50:47.999Z</time></trkpt><trkpt lat="45.68638980321319" lon="11.310922439488069"><ele>583.0</ele><time>2026-04-04T11:50:49.999Z</time></trkpt><trkpt lat="45.68644744287176" lon="11.311028291282357"><ele>583.0</ele><time>2026-04-04T11:50:50.999Z</time></trkpt><trkpt lat="45.6865184948335" lon="11.311102589284054"><ele>583.0</ele><time>2026-04-04T11:50:51.999Z</time></trkpt><trkpt lat="45.68659340582788" lon="11.311156951474398"><ele>583.0</ele><time>2026-04-04T11:50:52.999Z</time></trkpt><trkpt lat="45.6866578437532" lon="11.311237604597277"><ele>583.0</ele><time>2026-04-04T11:50:53.999Z</time></trkpt><trkpt lat="45.68671904083888" lon="11.311327053349046"><ele>583.0</ele><time>2026-04-04T11:50:54.999Z</time></trkpt><trkpt lat="45.686775014575865" lon="11.311400382141178"><ele>583.0</ele><time>2026-04-04T11:50:55.998Z</time></trkpt><trkpt lat="45.686883366646896" lon="11.31145050798526"><ele>583.0</ele><time>2026-04-04T11:50:56.998Z</time></trkpt><trkpt lat="45.68700305851544" lon="11.31147182349088"><ele>581.8333333333334</ele><time>2026-04-04T11:50:57.998Z</time></trkpt><trkpt lat="45.68709154549374" lon="11.311497374203478"><ele>580.6666666666667</ele><time>2026-04-04T11:50:58.998Z</time></trkpt><trkpt lat="45.687158791720506" lon="11.311507307138516"><ele>579.5</ele><time>2026-04-04T11:50:59.998Z</time></trkpt><trkpt lat="45.687235949998296" lon="11.311494648814326"><ele>578.3333333333334</ele><time>2026-04-04T11:51:00.998Z</time></trkpt><trkpt lat="45.687303558499" lon="11.31154484906468"><ele>577.1666666666666</ele><time>2026-04-04T11:51:01.998Z</time></trkpt><trkpt lat="45.687370290257206" lon="11.311585378442867"><ele>576.0</ele><time>2026-04-04T11:51:02.998Z</time></trkpt><trkpt lat="45.68744809060847" lon="11.311601344920913"><ele>576.0</ele><time>2026-04-04T11:51:03.998Z</time></trkpt><trkpt lat="45.68752004546157" lon="11.311577329930147"><ele>576.0</ele><time>2026-04-04T11:51:04.998Z</time></trkpt><trkpt lat="45.68766058653939" lon="11.311555169943171"><ele>576.0</ele><time>2026-04-04T11:51:07Z</time></trkpt><trkpt lat="45.68773432070167" lon="11.311543287385392"><ele>576.0</ele><time>2026-04-04T11:51:08Z</time></trkpt><trkpt lat="45.68770644876718" lon="11.311176662855805"><ele>578.6666666666666</ele><time>2026-04-04T11:51:10Z</time></trkpt><trkpt lat="45.68762795280277" lon="11.311108160853244"><ele>581.3333333333334</ele><time>2026-04-04T11:51:12Z</time></trkpt><trkpt lat="45.68758470068761" lon="11.310991679279594"><ele>584.0</ele><time>2026-04-04T11:51:14Z</time></trkpt><trkpt lat="45.687514261052506" lon="11.310860111082722"><ele>586.6666666666667</ele><time>2026-04-04T11:51:16Z</time></trkpt><trkpt lat="45.68747150571515" lon="11.310776616202363"><ele>589.3333333333334</ele><time>2026-04-04T11:51:17Z</time></trkpt><trkpt lat="45.687479750833674" lon="11.310670391726168"><ele>592.0</ele><time>2026-04-04T11:51:19Z</time></trkpt><trkpt lat="45.68749503474892" lon="11.310582017309226"><ele>597.4</ele><time>2026-04-04T11:51:21Z</time></trkpt><trkpt lat="45.68754311582055" lon="11.310455644436091"><ele>602.8000000000001</ele><time>2026-04-04T11:51:23Z</time></trkpt><trkpt lat="45.68762215943336" lon="11.310318747771232"><ele>608.2</ele><time>2026-04-04T11:51:24Z</time></trkpt><trkpt lat="45.68773533949305" lon="11.310273236766346"><ele>613.6</ele><time>2026-04-04T11:51:26Z</time></trkpt><trkpt lat="45.68775216076889" lon="11.31016619162854"><ele>619.0</ele><time>2026-04-04T11:51:31Z</time></trkpt><trkpt lat="45.68773220105046" lon="11.310076270060318"><ele>619.0</ele><time>2026-04-04T11:51:41Z</time></trkpt><trkpt lat="45.6877416048824" lon="11.309909896338043"><ele>619.0</ele><time>2026-04-04T11:51:48Z</time></trkpt><trkpt lat="45.6877591270966" lon="11.309820929963601"><ele>619.0</ele><time>2026-04-04T11:51:50Z</time></trkpt><trkpt lat="45.687751135503994" lon="11.30996231815279"><ele>619.0</ele><time>2026-04-04T11:54:05Z</time></trkpt><trkpt lat="45.68771453586292" lon="11.310091853151608"><ele>619.0</ele><time>2026-04-04T11:54:10Z</time></trkpt><trkpt lat="45.68775276621333" lon="11.310184993117238"><ele>619.0</ele><time>2026-04-04T11:54:14Z</time></trkpt><trkpt lat="45.687747939349045" lon="11.31028330501942"><ele>619.0</ele><time>2026-04-04T11:54:15.999Z</time></trkpt><trkpt lat="45.68764444074876" lon="11.310343110723807"><ele>619.0</ele><time>2026-04-04T11:54:19.999Z</time></trkpt><trkpt lat="45.68758519042556" lon="11.310379742674726"><ele>619.0</ele><time>2026-04-04T11:54:20.999Z</time></trkpt><trkpt lat="45.68753260159311" lon="11.310444623069419"><ele>619.0</ele><time>2026-04-04T11:54:21.999Z</time></trkpt><trkpt lat="45.68750185648171" lon="11.310527629305343"><ele>619.0</ele><time>2026-04-04T11:54:22.999Z</time></trkpt><trkpt lat="45.6874902959729" lon="11.310631831831541"><ele>614.5</ele><time>2026-04-04T11:54:24.999Z</time></trkpt><trkpt lat="45.687474590836004" lon="11.310742989822096"><ele>610.0</ele><time>2026-04-04T11:54:26.999Z</time></trkpt><trkpt lat="45.6875171546962" lon="11.310833634405656"><ele>605.5</ele><time>2026-04-04T11:54:28.999Z</time></trkpt><trkpt lat="45.68756498941356" lon="11.310900503080097"><ele>601.0</ele><time>2026-04-04T11:54:29.999Z</time></trkpt><trkpt lat="45.6876032943201" lon="11.310979087940721"><ele>596.5</ele><time>2026-04-04T11:54:30.999Z</time></trkpt><trkpt lat="45.68765590920913" lon="11.311054591308022"><ele>592.0</ele><time>2026-04-04T11:54:32.999Z</time></trkpt><trkpt lat="45.68770356857703" lon="11.31116719585905"><ele>592.0</ele><time>2026-04-04T11:54:34.999Z</time></trkpt><trkpt lat="45.68771414307186" lon="11.311262301660449"><ele>592.0</ele><time>2026-04-04T11:54:35.999Z</time></trkpt><trkpt lat="45.687699192104034" lon="11.311369930574987"><ele>592.0</ele><time>2026-04-04T11:54:36.999Z</time></trkpt><trkpt lat="45.687624491044126" lon="11.311406206561115"><ele>592.0</ele><time>2026-04-04T11:54:38.999Z</time></trkpt><trkpt lat="45.68755035305788" lon="11.311510473004095"><ele>592.0</ele><time>2026-04-04T11:54:39.999Z</time></trkpt><trkpt lat="45.68748779687462" lon="11.311524808901943"><ele>592.0</ele><time>2026-04-04T11:54:40.999Z</time></trkpt><trkpt lat="45.68740727768877" lon="11.311538488319218"><ele>590.8333333333334</ele><time>2026-04-04T11:54:42.999Z</time></trkpt><trkpt lat="45.68752587273825" lon="11.31152313438705"><ele>589.6666666666667</ele><time>2026-04-04T11:54:46.999Z</time></trkpt><trkpt lat="45.68760592618725" lon="11.311535559459767"><ele>588.5</ele><time>2026-04-04T11:54:47.999Z</time></trkpt><trkpt lat="45.68767248924065" lon="11.311504294198558"><ele>587.3333333333334</ele><time>2026-04-04T11:54:48.999Z</time></trkpt><trkpt lat="45.68774964368207" lon="11.311491754846625"><ele>586.1666666666666</ele><time>2026-04-04T11:54:49.999Z</time></trkpt><trkpt lat="45.6878371965982" lon="11.311472183316472"><ele>585.0</ele><time>2026-04-04T11:54:50.999Z</time></trkpt><trkpt lat="45.68792516058343" lon="11.31145549765203"><ele>585.0</ele><time>2026-04-04T11:54:51.999Z</time></trkpt><trkpt lat="45.68798202291169" lon="11.311409253657402"><ele>585.0</ele><time>2026-04-04T11:54:52.999Z</time></trkpt><trkpt lat="45.688106552413856" lon="11.311380756422269"><ele>585.0</ele><time>2026-04-04T11:54:54.999Z</time></trkpt><trkpt lat="45.688184728165005" lon="11.311419450883282"><ele>585.0</ele><time>2026-04-04T11:54:55.999Z</time></trkpt><trkpt lat="45.688278160613336" lon="11.311432424052311"><ele>585.0</ele><time>2026-04-04T11:54:56.999Z</time></trkpt><trkpt lat="45.68836662385272" lon="11.311482832370107"><ele>585.0</ele><time>2026-04-04T11:54:57.999Z</time></trkpt><trkpt lat="45.68846810734147" lon="11.311564179459847"><ele>585.0</ele><time>2026-04-04T11:54:58.999Z</time></trkpt><trkpt lat="45.68857997228482" lon="11.311658723732801"><ele>585.0</ele><time>2026-04-04T11:54:59.999Z</time></trkpt><trkpt lat="45.688691279340254" lon="11.311799244591626"><ele>585.0</ele><time>2026-04-04T11:55:00.999Z</time></trkpt><trkpt lat="45.688804599444374" lon="11.311935983440529"><ele>591.0</ele><time>2026-04-04T11:55:01.999Z</time></trkpt><trkpt lat="45.688928828491285" lon="11.31208588562329"><ele>597.0</ele><time>2026-04-04T11:55:02.999Z</time></trkpt><trkpt lat="45.689046134731925" lon="11.311695531358575"><ele>588.0</ele><time>2026-04-04T11:55:03.999Z</time></trkpt><trkpt lat="45.6891415942158" lon="11.312334794656072"><ele>588.0</ele><time>2026-04-04T11:55:04.999Z</time></trkpt><trkpt lat="45.68921255251376" lon="11.312417762048387"><ele>588.0</ele><time>2026-04-04T11:55:05.999Z</time></trkpt><trkpt lat="45.68919566749872" lon="11.311730184424409"><ele>588.0</ele><time>2026-04-04T11:55:06.999Z</time></trkpt><trkpt lat="45.689399553646375" lon="11.312501947706025"><ele>586.8</ele><time>2026-04-04T11:55:07.999Z</time></trkpt><trkpt lat="45.68948196744056" lon="11.312566279172863"><ele>585.5999999999999</ele><time>2026-04-04T11:55:08.999Z</time></trkpt><trkpt lat="45.689522264775405" lon="11.312647475873767"><ele>584.4000000000001</ele><time>2026-04-04T11:55:09.999Z</time></trkpt><trkpt lat="45.6895673097255" lon="11.312774226923361"><ele>583.2</ele><time>2026-04-04T11:55:10.999Z</time></trkpt><trkpt lat="45.689610905497446" lon="11.312895369755868"><ele>582.0</ele><time>2026-04-04T11:55:11.999Z</time></trkpt><trkpt lat="45.68969707675422" lon="11.312995073521916"><ele>580.0</ele><time>2026-04-04T11:55:12.999Z</time></trkpt><trkpt lat="45.68978848035415" lon="11.313120278707158"><ele>578.0</ele><time>2026-04-04T11:55:13.999Z</time></trkpt><trkpt lat="45.68985921415439" lon="11.313217500831596"><ele>576.0</ele><time>2026-04-04T11:55:14.999Z</time></trkpt><trkpt lat="45.68987210530958" lon="11.313366290000516"><ele>574.0</ele><time>2026-04-04T11:55:15.999Z</time></trkpt><trkpt lat="45.689851499102176" lon="11.31348936028247"><ele>572.0</ele><time>2026-04-04T11:55:17Z</time></trkpt><trkpt lat="45.68990725096581" lon="11.31362989989584"><ele>572.0</ele><time>2026-04-04T11:55:19Z</time></trkpt><trkpt lat="45.68999487834909" lon="11.313710568868736"><ele>572.0</ele><time>2026-04-04T11:55:21Z</time></trkpt><trkpt lat="45.69006024870287" lon="11.313691484105075"><ele>572.0</ele><time>2026-04-04T11:55:22Z</time></trkpt><trkpt lat="45.69014295231291" lon="11.31371016070917"><ele>572.0</ele><time>2026-04-04T11:55:23Z</time></trkpt><trkpt lat="45.690220126726054" lon="11.313740726319741"><ele>572.0</ele><time>2026-04-04T11:55:24Z</time></trkpt><trkpt lat="45.69028779455036" lon="11.313621502309934"><ele>572.0</ele><time>2026-04-04T11:55:27Z</time></trkpt><trkpt lat="45.690313722190375" lon="11.313535502936942"><ele>571.0</ele><time>2026-04-04T11:55:28Z</time></trkpt><trkpt lat="45.69037462718829" lon="11.313498386474194"><ele>570.0</ele><time>2026-04-04T11:55:29Z</time></trkpt><trkpt lat="45.69044372107312" lon="11.313439030650965"><ele>569.0</ele><time>2026-04-04T11:55:30Z</time></trkpt><trkpt lat="45.69048459945257" lon="11.313320718909026"><ele>568.0</ele><time>2026-04-04T11:55:32Z</time></trkpt><trkpt lat="45.69055297048174" lon="11.313231096851329"><ele>567.0</ele><time>2026-04-04T11:55:34Z</time></trkpt><trkpt lat="45.69065151522713" lon="11.313301562613882"><ele>566.0</ele><time>2026-04-04T11:55:36Z</time></trkpt><trkpt lat="45.69072355926208" lon="11.313301498764613"><ele>566.0</ele><time>2026-04-04T11:55:40Z</time></trkpt><trkpt lat="45.69076272064419" lon="11.313193887607802"><ele>566.0</ele><time>2026-04-04T11:55:42Z</time></trkpt><trkpt lat="45.69093215004237" lon="11.313125828493618"><ele>566.0</ele><time>2026-04-04T11:55:43Z</time></trkpt><trkpt lat="45.69099977213336" lon="11.313262861831664"><ele>566.0</ele><time>2026-04-04T11:55:45Z</time></trkpt><trkpt lat="45.69105657227407" lon="11.313389436361728"><ele>567.0</ele><time>2026-04-04T11:55:46Z</time></trkpt><trkpt lat="45.691146278362666" lon="11.313481860534688"><ele>568.0</ele><time>2026-04-04T11:55:47Z</time></trkpt><trkpt lat="45.69120917412302" lon="11.313508145773781"><ele>569.0</ele><time>2026-04-04T11:55:48Z</time></trkpt><trkpt lat="45.691315532158455" lon="11.313405486780837"><ele>570.0</ele><time>2026-04-04T11:55:51Z</time></trkpt><trkpt lat="45.69138617291186" lon="11.313429203959204"><ele>571.0</ele><time>2026-04-04T11:55:53Z</time></trkpt><trkpt lat="45.691481258251514" lon="11.313610525715022"><ele>571.0</ele><time>2026-04-04T11:55:55Z</time></trkpt><trkpt lat="45.69153023614967" lon="11.31377088683871"><ele>571.0</ele><time>2026-04-04T11:55:56Z</time></trkpt><trkpt lat="45.69156602522094" lon="11.313890272288504"><ele>571.0</ele><time>2026-04-04T11:55:57Z</time></trkpt><trkpt lat="45.691455464479816" lon="11.313965318772242"><ele>571.0</ele><time>2026-04-04T11:55:58Z</time></trkpt><trkpt lat="45.69141161310135" lon="11.314061000514412"><ele>571.0</ele><time>2026-04-04T11:55:59Z</time></trkpt><trkpt lat="45.69142770162786" lon="11.314193327758705"><ele>569.0</ele><time>2026-04-04T11:56:00Z</time></trkpt><trkpt lat="45.691447231177925" lon="11.3143050054545"><ele>567.0</ele><time>2026-04-04T11:56:01Z</time></trkpt><trkpt lat="45.69149921130413" lon="11.314393113157356"><ele>565.0</ele><time>2026-04-04T11:56:02Z</time></trkpt><trkpt lat="45.69155260814724" lon="11.314579834894749"><ele>563.0</ele><time>2026-04-04T11:56:03Z</time></trkpt><trkpt lat="45.691624670435026" lon="11.314736142558838"><ele>561.0</ele><time>2026-04-04T11:56:04Z</time></trkpt><trkpt lat="45.691655124838974" lon="11.31487965571792"><ele>561.3333333333334</ele><time>2026-04-04T11:56:05Z</time></trkpt><trkpt lat="45.69170472526521" lon="11.315041750650824"><ele>561.6666666666666</ele><time>2026-04-04T11:56:06Z</time></trkpt><trkpt lat="45.691767118071176" lon="11.315125495305328"><ele>562.0</ele><time>2026-04-04T11:56:07Z</time></trkpt><trkpt lat="45.69183967806562" lon="11.315140216765421"><ele>562.3333333333333</ele><time>2026-04-04T11:56:08Z</time></trkpt><trkpt lat="45.69189285066048" lon="11.3152099948952"><ele>562.6666666666666</ele><time>2026-04-04T11:56:09Z</time></trkpt><trkpt lat="45.69190436670139" lon="11.315319867641302"><ele>563.0</ele><time>2026-04-04T11:56:10Z</time></trkpt><trkpt lat="45.691982920854365" lon="11.31533061000199"><ele>563.0</ele><time>2026-04-04T11:56:12Z</time></trkpt><trkpt lat="45.692041507403495" lon="11.315401949027157"><ele>563.0</ele><time>2026-04-04T11:56:13Z</time></trkpt><trkpt lat="45.692125872350616" lon="11.315549954280588"><ele>563.0</ele><time>2026-04-04T11:56:14Z</time></trkpt><trkpt lat="45.69225181980015" lon="11.315709357926906"><ele>563.0</ele><time>2026-04-04T11:56:15Z</time></trkpt><trkpt lat="45.69236966287925" lon="11.315879259904955"><ele>558.3333333333333</ele><time>2026-04-04T11:56:16Z</time></trkpt><trkpt lat="45.692514266048796" lon="11.316053798560112"><ele>553.6666666666666</ele><time>2026-04-04T11:56:17Z</time></trkpt><trkpt lat="45.69263260649167" lon="11.316223511767916"><ele>549.0</ele><time>2026-04-04T11:56:18Z</time></trkpt><trkpt lat="45.69272806037833" lon="11.316371134483017"><ele>549.5</ele><time>2026-04-04T11:56:19Z</time></trkpt><trkpt lat="45.69277594895579" lon="11.316473975025565"><ele>550.0</ele><time>2026-04-04T11:56:20Z</time></trkpt><trkpt lat="45.69283053772073" lon="11.316670006624715"><ele>550.5</ele><time>2026-04-04T11:56:21Z</time></trkpt><trkpt lat="45.692906411438805" lon="11.316852097457526"><ele>551.0</ele><time>2026-04-04T11:56:22Z</time></trkpt><trkpt lat="45.69298784334216" lon="11.317016128750344"><ele>551.0</ele><time>2026-04-04T11:56:23Z</time></trkpt><trkpt lat="45.69305415359534" lon="11.317118677858197"><ele>551.0</ele><time>2026-04-04T11:56:24Z</time></trkpt><trkpt lat="45.69313039884918" lon="11.317236133535282"><ele>551.0</ele><time>2026-04-04T11:56:25Z</time></trkpt><trkpt lat="45.69324445963921" lon="11.317363618417026"><ele>551.0</ele><time>2026-04-04T11:56:26Z</time></trkpt><trkpt lat="45.69336150208288" lon="11.317521627959202"><ele>550.6666666666666</ele><time>2026-04-04T11:56:27Z</time></trkpt><trkpt lat="45.69347115877607" lon="11.317677722692473"><ele>550.3333333333334</ele><time>2026-04-04T11:56:27.999Z</time></trkpt><trkpt lat="45.69358701878522" lon="11.317859739334239"><ele>550.0</ele><time>2026-04-04T11:56:28.999Z</time></trkpt><trkpt lat="45.69369772144043" lon="11.318034786774504"><ele>549.0</ele><time>2026-04-04T11:56:29.999Z</time></trkpt><trkpt lat="45.69379467660851" lon="11.318223411133273"><ele>548.0</ele><time>2026-04-04T11:56:30.999Z</time></trkpt><trkpt lat="45.693872175899415" lon="11.318393278950486"><ele>547.0</ele><time>2026-04-04T11:56:31.999Z</time></trkpt><trkpt lat="45.693955587746906" lon="11.318521703970521"><ele>546.0</ele><time>2026-04-04T11:56:32.999Z</time></trkpt><trkpt lat="45.69403645262412" lon="11.31863174746912"><ele>546.0</ele><time>2026-04-04T11:56:33.999Z</time></trkpt><trkpt lat="45.694090592569886" lon="11.31872972268738"><ele>546.0</ele><time>2026-04-04T11:56:34.999Z</time></trkpt><trkpt lat="45.694156000408114" lon="11.318773311333345"><ele>546.0</ele><time>2026-04-04T11:56:35.999Z</time></trkpt><trkpt lat="45.694226298675964" lon="11.318775394227183"><ele>546.0</ele><time>2026-04-04T11:56:36.999Z</time></trkpt><trkpt lat="45.694297780259426" lon="11.318741741863251"><ele>546.0</ele><time>2026-04-04T11:56:37.999Z</time></trkpt><trkpt lat="45.694375735402346" lon="11.318709915911683"><ele>546.0</ele><time>2026-04-04T11:56:38.999Z</time></trkpt><trkpt lat="45.6944662712709" lon="11.318696777068649"><ele>547.0</ele><time>2026-04-04T11:56:39.999Z</time></trkpt><trkpt lat="45.6944993707836" lon="11.318825614339282"><ele>548.0</ele><time>2026-04-04T11:56:42.999Z</time></trkpt><trkpt lat="45.69451063712988" lon="11.318989484337173"><ele>549.0</ele><time>2026-04-04T11:56:44.999Z</time></trkpt><trkpt lat="45.69453479242549" lon="11.319146940559333"><ele>550.0</ele><time>2026-04-04T11:56:45.999Z</time></trkpt><trkpt lat="45.694561398420255" lon="11.319326120335036"><ele>550.75</ele><time>2026-04-04T11:56:46.999Z</time></trkpt><trkpt lat="45.69459996797768" lon="11.319491570284304"><ele>551.5</ele><time>2026-04-04T11:56:47.999Z</time></trkpt><trkpt lat="45.69466331190887" lon="11.319638362388291"><ele>552.25</ele><time>2026-04-04T11:56:48.999Z</time></trkpt><trkpt lat="45.69471938072673" lon="11.31979039050056"><ele>553.0</ele><time>2026-04-04T11:56:49.999Z</time></trkpt><trkpt lat="45.6947460539871" lon="11.319953948813248"><ele>548.5</ele><time>2026-04-04T11:56:50.999Z</time></trkpt><trkpt lat="45.694729798586124" lon="11.32013462683282"><ele>544.0</ele><time>2026-04-04T11:56:51.999Z</time></trkpt><trkpt lat="45.69473879879932" lon="11.320320068233071"><ele>539.5</ele><time>2026-04-04T11:56:52.999Z</time></trkpt><trkpt lat="45.69479175731441" lon="11.320527653194787"><ele>535.0</ele><time>2026-04-04T11:56:53.999Z</time></trkpt><trkpt lat="45.694842835030386" lon="11.320740989715285"><ele>532.75</ele><time>2026-04-04T11:56:54.999Z</time></trkpt><trkpt lat="45.69483714933124" lon="11.32093481928796"><ele>530.5</ele><time>2026-04-04T11:56:55.999Z</time></trkpt><trkpt lat="45.694819291513646" lon="11.321108473275716"><ele>528.25</ele><time>2026-04-04T11:56:56.999Z</time></trkpt><trkpt lat="45.69483864519696" lon="11.32125991502205"><ele>526.0</ele><time>2026-04-04T11:56:57.999Z</time></trkpt><trkpt lat="45.69490416732216" lon="11.321408255870931"><ele>525.5</ele><time>2026-04-04T11:56:58.999Z</time></trkpt><trkpt lat="45.6949908572808" lon="11.321577234560062"><ele>525.0</ele><time>2026-04-04T11:56:59.999Z</time></trkpt><trkpt lat="45.695033949659354" lon="11.321758890170226"><ele>524.5</ele><time>2026-04-04T11:57:00.999Z</time></trkpt><trkpt lat="45.69502624445993" lon="11.32195957512186"><ele>524.0</ele><time>2026-04-04T11:57:01.999Z</time></trkpt><trkpt lat="45.6949856346618" lon="11.322159270952028"><ele>522.75</ele><time>2026-04-04T11:57:02.999Z</time></trkpt><trkpt lat="45.694953991505564" lon="11.322335077949704"><ele>521.5</ele><time>2026-04-04T11:57:03.999Z</time></trkpt><trkpt lat="45.69496029733797" lon="11.322502880737565"><ele>520.25</ele><time>2026-04-04T11:57:04.999Z</time></trkpt><trkpt lat="45.695004894095455" lon="11.322651332543284"><ele>519.0</ele><time>2026-04-04T11:57:05.999Z</time></trkpt><trkpt lat="45.69507472392956" lon="11.322804671213273"><ele>519.0</ele><time>2026-04-04T11:57:06.999Z</time></trkpt><trkpt lat="45.69511868136519" lon="11.322971459159039"><ele>519.0</ele><time>2026-04-04T11:57:07.999Z</time></trkpt><trkpt lat="45.69512260658242" lon="11.32312864484088"><ele>519.0</ele><time>2026-04-04T11:57:08.999Z</time></trkpt><trkpt lat="45.69515443709159" lon="11.323233742251352"><ele>519.0</ele><time>2026-04-04T11:57:09.999Z</time></trkpt><trkpt lat="45.69522746040281" lon="11.323325294385034"><ele>519.0</ele><time>2026-04-04T11:57:10.999Z</time></trkpt><trkpt lat="45.69531077113493" lon="11.32341902309845"><ele>518.75</ele><time>2026-04-04T11:57:11.999Z</time></trkpt><trkpt lat="45.69543151503327" lon="11.32353253874455"><ele>518.5</ele><time>2026-04-04T11:57:12.999Z</time></trkpt><trkpt lat="45.695574891326245" lon="11.323616397131765"><ele>518.25</ele><time>2026-04-04T11:57:13.999Z</time></trkpt><trkpt lat="45.695721255303" lon="11.323633141909811"><ele>518.0</ele><time>2026-04-04T11:57:14.999Z</time></trkpt><trkpt lat="45.69590482958507" lon="11.32363197570288"><ele>518.3333333333333</ele><time>2026-04-04T11:57:15.999Z</time></trkpt><trkpt lat="45.69609094804657" lon="11.323680820826825"><ele>518.6666666666666</ele><time>2026-04-04T11:57:16.999Z</time></trkpt><trkpt lat="45.69626536888056" lon="11.32378322063906"><ele>519.0</ele><time>2026-04-04T11:57:17.999Z</time></trkpt><trkpt lat="45.69641516884734" lon="11.323901723104465"><ele>515.5</ele><time>2026-04-04T11:57:18.999Z</time></trkpt><trkpt lat="45.6965245392653" lon="11.32391682447166"><ele>512.0</ele><time>2026-04-04T11:57:19.999Z</time></trkpt><trkpt lat="45.696707447505325" lon="11.323937104317803"><ele>508.5</ele><time>2026-04-04T11:57:20.999Z</time></trkpt><trkpt lat="45.69685205245286" lon="11.323990526356322"><ele>505.0</ele><time>2026-04-04T11:57:21.999Z</time></trkpt><trkpt lat="45.69694349304524" lon="11.324077760540249"><ele>502.33333333333337</ele><time>2026-04-04T11:57:23Z</time></trkpt><trkpt lat="45.696986444624805" lon="11.324241119579712"><ele>499.66666666666663</ele><time>2026-04-04T11:57:24.001Z</time></trkpt><trkpt lat="45.69703742463364" lon="11.324477586013039"><ele>497.0</ele><time>2026-04-04T11:57:25Z</time></trkpt><trkpt lat="45.69712043991818" lon="11.324691419764177"><ele>496.3333333333333</ele><time>2026-04-04T11:57:26Z</time></trkpt><trkpt lat="45.697225982887595" lon="11.324875904329238"><ele>495.66666666666663</ele><time>2026-04-04T11:57:27.001Z</time></trkpt><trkpt lat="45.69733558001296" lon="11.325058707108212"><ele>495.0</ele><time>2026-04-04T11:57:28Z</time></trkpt><trkpt lat="45.697460615693565" lon="11.325217940669017"><ele>495.0</ele><time>2026-04-04T11:57:29Z</time></trkpt><trkpt lat="45.69759232276053" lon="11.325368363562461"><ele>495.0</ele><time>2026-04-04T11:57:30Z</time></trkpt><trkpt lat="45.69771932138329" lon="11.325507612885112"><ele>495.0</ele><time>2026-04-04T11:57:31Z</time></trkpt><trkpt lat="45.69785118337294" lon="11.325645222997407"><ele>493.5</ele><time>2026-04-04T11:57:32Z</time></trkpt><trkpt lat="45.697969744840265" lon="11.325748907131128"><ele>492.0</ele><time>2026-04-04T11:57:33Z</time></trkpt><trkpt lat="45.69808259722516" lon="11.325859794800923"><ele>490.5</ele><time>2026-04-04T11:57:34Z</time></trkpt><trkpt lat="45.69819276610552" lon="11.326021482881501"><ele>489.0</ele><time>2026-04-04T11:57:35Z</time></trkpt><trkpt lat="45.69826769841289" lon="11.32620713176242"><ele>487.0</ele><time>2026-04-04T11:57:36Z</time></trkpt><trkpt lat="45.698319323357474" lon="11.326413675158072"><ele>485.0</ele><time>2026-04-04T11:57:37Z</time></trkpt><trkpt lat="45.69834690564571" lon="11.326671586421732"><ele>483.0</ele><time>2026-04-04T11:57:38Z</time></trkpt><trkpt lat="45.69835301813612" lon="11.326949192263111"><ele>483.0</ele><time>2026-04-04T11:57:39Z</time></trkpt><trkpt lat="45.69835925697282" lon="11.32721198922125"><ele>483.0</ele><time>2026-04-04T11:57:40Z</time></trkpt><trkpt lat="45.69837538493957" lon="11.32743607898192"><ele>483.0</ele><time>2026-04-04T11:57:41Z</time></trkpt><trkpt lat="45.69839141931275" lon="11.327605688934051"><ele>482.2</ele><time>2026-04-04T11:57:42Z</time></trkpt><trkpt lat="45.69842612788785" lon="11.327729387359588"><ele>481.4</ele><time>2026-04-04T11:57:44Z</time></trkpt><trkpt lat="45.698492859629" lon="11.32765635609608"><ele>480.59999999999997</ele><time>2026-04-04T11:57:48Z</time></trkpt><trkpt lat="45.69858043417263" lon="11.327604249597652"><ele>479.79999999999995</ele><time>2026-04-04T11:57:49Z</time></trkpt><trkpt lat="45.69865577727734" lon="11.327549750246032"><ele>479.0</ele><time>2026-04-04T11:57:50Z</time></trkpt><trkpt lat="45.698745901995316" lon="11.327496593854766"><ele>480.3333333333333</ele><time>2026-04-04T11:57:51Z</time></trkpt><trkpt lat="45.6988435298732" lon="11.32746615947693"><ele>481.66666666666663</ele><time>2026-04-04T11:57:52Z</time></trkpt><trkpt lat="45.698928556902715" lon="11.32745231176123"><ele>483.0</ele><time>2026-04-04T11:57:53Z</time></trkpt><trkpt lat="45.6989725680356" lon="11.327540710821985"><ele>484.33333333333337</ele><time>2026-04-04T11:57:55Z</time></trkpt><trkpt lat="45.69900772082493" lon="11.327635895961299"><ele>485.6666666666667</ele><time>2026-04-04T11:57:56Z</time></trkpt><trkpt lat="45.69906875526958" lon="11.327716978508363"><ele>487.0</ele><time>2026-04-04T11:57:57Z</time></trkpt><trkpt lat="45.6991501723599" lon="11.327734543080538"><ele>487.0</ele><time>2026-04-04T11:57:58Z</time></trkpt><trkpt lat="45.69924486405466" lon="11.327773574738037"><ele>487.00000000000006</ele><time>2026-04-04T11:57:59Z</time></trkpt><trkpt lat="45.69930930725636" lon="11.327813354392076"><ele>487.00000000000006</ele><time>2026-04-04T11:58:00Z</time></trkpt><trkpt lat="45.699442547211916" lon="11.327791334142097"><ele>487.0</ele><time>2026-04-04T11:58:02Z</time></trkpt><trkpt lat="45.69953919554675" lon="11.327743908180901"><ele>487.0</ele><time>2026-04-04T11:58:03Z</time></trkpt><trkpt lat="45.69964791777253" lon="11.327748609618618"><ele>487.8</ele><time>2026-04-04T11:58:04Z</time></trkpt><trkpt lat="45.699757976009614" lon="11.327775880007662"><ele>488.6</ele><time>2026-04-04T11:58:05Z</time></trkpt><trkpt lat="45.69985040497106" lon="11.327814046498293"><ele>489.40000000000003</ele><time>2026-04-04T11:58:06Z</time></trkpt><trkpt lat="45.69994317305582" lon="11.327885241078853"><ele>490.20000000000005</ele><time>2026-04-04T11:58:07Z</time></trkpt><trkpt lat="45.700064954429386" lon="11.327955337029024"><ele>491.0</ele><time>2026-04-04T11:58:08Z</time></trkpt><trkpt lat="45.70013895611227" lon="11.327991020926671"><ele>491.0</ele><time>2026-04-04T11:58:09Z</time></trkpt><trkpt lat="45.70021760457198" lon="11.327987741943192"><ele>491.0</ele><time>2026-04-04T11:58:10Z</time></trkpt><trkpt lat="45.70032016908727" lon="11.327930269021543"><ele>491.0</ele><time>2026-04-04T11:58:11Z</time></trkpt><trkpt lat="45.700406835673384" lon="11.327915485905518"><ele>491.0</ele><time>2026-04-04T11:58:12Z</time></trkpt><trkpt lat="45.70047709590518" lon="11.328048578978475"><ele>491.0</ele><time>2026-04-04T11:58:14Z</time></trkpt><trkpt lat="45.70056191941847" lon="11.328110050538298"><ele>487.4</ele><time>2026-04-04T11:58:16Z</time></trkpt><trkpt lat="45.70064551299105" lon="11.328149801748935"><ele>483.8</ele><time>2026-04-04T11:58:17Z</time></trkpt><trkpt lat="45.70071669687263" lon="11.328183109674834"><ele>480.19999999999993</ele><time>2026-04-04T11:58:18Z</time></trkpt><trkpt lat="45.70084864515242" lon="11.328259314892417"><ele>476.59999999999997</ele><time>2026-04-04T11:58:20Z</time></trkpt><trkpt lat="45.70094907575464" lon="11.328248129462477"><ele>473.0</ele><time>2026-04-04T11:58:21Z</time></trkpt><trkpt lat="45.70106803073191" lon="11.328254030310102"><ele>472.75</ele><time>2026-04-04T11:58:22Z</time></trkpt><trkpt lat="45.701177840272926" lon="11.328237611737244"><ele>472.5</ele><time>2026-04-04T11:58:23Z</time></trkpt><trkpt lat="45.70129838086006" lon="11.328317812794772"><ele>472.25</ele><time>2026-04-04T11:58:25Z</time></trkpt><trkpt lat="45.70140461046836" lon="11.328335835983165"><ele>472.0</ele><time>2026-04-04T11:58:26Z</time></trkpt><trkpt lat="45.70150919120589" lon="11.328371593667544"><ele>472.00000000000006</ele><time>2026-04-04T11:58:27Z</time></trkpt><trkpt lat="45.701580541234115" lon="11.328379984921344"><ele>472.0</ele><time>2026-04-04T11:58:28Z</time></trkpt><trkpt lat="45.70164221568275" lon="11.328349763891524"><ele>472.0</ele><time>2026-04-04T11:58:29Z</time></trkpt><trkpt lat="45.701729004902084" lon="11.328348016018145"><ele>472.0</ele><time>2026-04-04T11:58:30Z</time></trkpt><trkpt lat="45.701816147982306" lon="11.328323667893867"><ele>472.00000000000006</ele><time>2026-04-04T11:58:31Z</time></trkpt><trkpt lat="45.70189482076844" lon="11.328311862373868"><ele>472.0</ele><time>2026-04-04T11:58:32Z</time></trkpt><trkpt lat="45.70197222904419" lon="11.32839943801442"><ele>473.6</ele><time>2026-04-04T11:58:33Z</time></trkpt><trkpt lat="45.70201877662855" lon="11.328514518308804"><ele>475.20000000000005</ele><time>2026-04-04T11:58:33.999Z</time></trkpt><trkpt lat="45.70207946923615" lon="11.328595696303944"><ele>476.8</ele><time>2026-04-04T11:58:34.999Z</time></trkpt><trkpt lat="45.70209465207452" lon="11.328477321441254"><ele>478.4</ele><time>2026-04-04T11:58:35.999Z</time></trkpt><trkpt lat="45.702176098965225" lon="11.328484010245326"><ele>480.0</ele><time>2026-04-04T11:58:36.999Z</time></trkpt><trkpt lat="45.70231547961432" lon="11.328512268150435"><ele>480.0</ele><time>2026-04-04T11:58:37.999Z</time></trkpt><trkpt lat="45.70240690565877" lon="11.328557087322661"><ele>480.0</ele><time>2026-04-04T11:58:38.999Z</time></trkpt><trkpt lat="45.7024808224587" lon="11.328599449124262"><ele>480.0</ele><time>2026-04-04T11:58:39.999Z</time></trkpt><trkpt lat="45.702543882242416" lon="11.32870299621434"><ele>480.0</ele><time>2026-04-04T11:58:40.999Z</time></trkpt><trkpt lat="45.70260807439375" lon="11.328812330618307"><ele>480.0</ele><time>2026-04-04T11:58:41.999Z</time></trkpt><trkpt lat="45.70265775092107" lon="11.328928924056052"><ele>474.0</ele><time>2026-04-04T11:58:42.999Z</time></trkpt><trkpt lat="45.70272213007761" lon="11.328997942383188"><ele>468.0</ele><time>2026-04-04T11:58:43.999Z</time></trkpt><trkpt lat="45.70280515344067" lon="11.3290188573002"><ele>462.0</ele><time>2026-04-04T11:58:44.999Z</time></trkpt><trkpt lat="45.702935543514045" lon="11.32903887477012"><ele>456.0</ele><time>2026-04-04T11:58:45.999Z</time></trkpt><trkpt lat="45.703049623044684" lon="11.32905957856956"><ele>450.0</ele><time>2026-04-04T11:58:46.999Z</time></trkpt><trkpt lat="45.703198685332936" lon="11.32908102456335"><ele>450.0</ele><time>2026-04-04T11:58:47.999Z</time></trkpt><trkpt lat="45.70335957615184" lon="11.3290729109854"><ele>450.0</ele><time>2026-04-04T11:58:48.999Z</time></trkpt><trkpt lat="45.703517902293314" lon="11.329079510544265"><ele>450.0</ele><time>2026-04-04T11:58:49.999Z</time></trkpt><trkpt lat="45.70367338434135" lon="11.329140843020378"><ele>448.25</ele><time>2026-04-04T11:58:50.999Z</time></trkpt><trkpt lat="45.70381427933506" lon="11.329191972282338"><ele>446.5</ele><time>2026-04-04T11:58:51.999Z</time></trkpt><trkpt lat="45.703944613554405" lon="11.329240132643672"><ele>444.75</ele><time>2026-04-04T11:58:52.999Z</time></trkpt><trkpt lat="45.70404327229506" lon="11.329288090953739"><ele>443.0</ele><time>2026-04-04T11:58:53.999Z</time></trkpt><trkpt lat="45.70412917266852" lon="11.329371828171647"><ele>443.0</ele><time>2026-04-04T11:58:54.999Z</time></trkpt><trkpt lat="45.70424057831519" lon="11.329511499616324"><ele>443.0</ele><time>2026-04-04T11:58:55.999Z</time></trkpt><trkpt lat="45.70433544315005" lon="11.329602037490478"><ele>443.0</ele><time>2026-04-04T11:58:56.999Z</time></trkpt><trkpt lat="45.704428490115134" lon="11.32968981840858"><ele>443.0</ele><time>2026-04-04T11:58:57.999Z</time></trkpt><trkpt lat="45.704528152351685" lon="11.32975634268289"><ele>434.5</ele><time>2026-04-04T11:58:58.999Z</time></trkpt><trkpt lat="45.70464044171822" lon="11.329841735528756"><ele>426.0</ele><time>2026-04-04T11:58:59.999Z</time></trkpt><trkpt lat="45.7047824596608" lon="11.329986286535853"><ele>417.5</ele><time>2026-04-04T11:59:00.999Z</time></trkpt><trkpt lat="45.70486828193999" lon="11.330139185454941"><ele>409.0</ele><time>2026-04-04T11:59:01.999Z</time></trkpt><trkpt lat="45.70497618499423" lon="11.33026837204508"><ele>409.0</ele><time>2026-04-04T11:59:02.999Z</time></trkpt><trkpt lat="45.70507431688213" lon="11.330409794589016"><ele>409.0</ele><time>2026-04-04T11:59:03.999Z</time></trkpt><trkpt lat="45.70517424346738" lon="11.33056237679094"><ele>409.0</ele><time>2026-04-04T11:59:04.999Z</time></trkpt><trkpt lat="45.705262346790306" lon="11.330707717721673"><ele>409.0</ele><time>2026-04-04T11:59:05.999Z</time></trkpt><trkpt lat="45.70533519278208" lon="11.33087377292111"><ele>402.75</ele><time>2026-04-04T11:59:06.999Z</time></trkpt><trkpt lat="45.705397821314655" lon="11.331052092429296"><ele>396.5</ele><time>2026-04-04T11:59:07.999Z</time></trkpt><trkpt lat="45.705459376938045" lon="11.331245619043377"><ele>390.25</ele><time>2026-04-04T11:59:08.999Z</time></trkpt><trkpt lat="45.70552187754156" lon="11.331444750378003"><ele>384.0</ele><time>2026-04-04T11:59:09.999Z</time></trkpt><trkpt lat="45.70557950431663" lon="11.331647614532224"><ele>382.25</ele><time>2026-04-04T11:59:10.999Z</time></trkpt><trkpt lat="45.70562643647163" lon="11.331855791250083"><ele>380.5</ele><time>2026-04-04T11:59:11.999Z</time></trkpt><trkpt lat="45.705652140687306" lon="11.332064719608946"><ele>378.75</ele><time>2026-04-04T11:59:12.999Z</time></trkpt><trkpt lat="45.705656688398214" lon="11.332242556560017"><ele>377.0</ele><time>2026-04-04T11:59:13.999Z</time></trkpt><trkpt lat="45.705651162729175" lon="11.332389544657042"><ele>376.40000000000003</ele><time>2026-04-04T11:59:14.999Z</time></trkpt><trkpt lat="45.70566108183833" lon="11.33249267974258"><ele>375.8</ele><time>2026-04-04T11:59:15.999Z</time></trkpt><trkpt lat="45.70570313425974" lon="11.332567734695429"><ele>375.2</ele><time>2026-04-04T11:59:16.999Z</time></trkpt><trkpt lat="45.70580185664074" lon="11.332569217023895"><ele>374.6</ele><time>2026-04-04T11:59:18.999Z</time></trkpt><trkpt lat="45.7058807140347" lon="11.332438113902205"><ele>374.0</ele><time>2026-04-04T11:59:20.999Z</time></trkpt><trkpt lat="45.70593904425642" lon="11.332339362081706"><ele>374.75</ele><time>2026-04-04T11:59:21.999Z</time></trkpt><trkpt lat="45.70599526448157" lon="11.332200045409634"><ele>375.5</ele><time>2026-04-04T11:59:22.999Z</time></trkpt><trkpt lat="45.7060231319873" lon="11.332015459936837"><ele>376.25</ele><time>2026-04-04T11:59:23.999Z</time></trkpt><trkpt lat="45.706041891042396" lon="11.33175735367872"><ele>377.0</ele><time>2026-04-04T11:59:24.999Z</time></trkpt><trkpt lat="45.70602916728845" lon="11.3314179942299"><ele>379.33333333333337</ele><time>2026-04-04T11:59:25.999Z</time></trkpt><trkpt lat="45.70605278726578" lon="11.331119214214628"><ele>381.6666666666667</ele><time>2026-04-04T11:59:26.999Z</time></trkpt><trkpt lat="45.70606982762591" lon="11.330919852056601"><ele>384.0</ele><time>2026-04-04T11:59:28Z</time></trkpt><trkpt lat="45.70608471265289" lon="11.330722616637726"><ele>377.0</ele><time>2026-04-04T11:59:29Z</time></trkpt><trkpt lat="45.70608196125639" lon="11.330499886488223"><ele>370.0</ele><time>2026-04-04T11:59:30Z</time></trkpt><trkpt lat="45.70608689757728" lon="11.330272571465178"><ele>363.0</ele><time>2026-04-04T11:59:31Z</time></trkpt><trkpt lat="45.70608994612845" lon="11.330122567734715"><ele>356.0</ele><time>2026-04-04T11:59:32Z</time></trkpt><trkpt lat="45.70611590253344" lon="11.329955924772035"><ele>356.0</ele><time>2026-04-04T11:59:33Z</time></trkpt><trkpt lat="45.70616698407739" lon="11.329819508494213"><ele>356.0</ele><time>2026-04-04T11:59:34Z</time></trkpt><trkpt lat="45.706182356589295" lon="11.329699803856949"><ele>356.0</ele><time>2026-04-04T11:59:35Z</time></trkpt><trkpt lat="45.70618030428247" lon="11.32958912642151"><ele>356.0</ele><time>2026-04-04T11:59:36Z</time></trkpt><trkpt lat="45.7061485202084" lon="11.329497676754322"><ele>356.0</ele><time>2026-04-04T11:59:37Z</time></trkpt><trkpt lat="45.7060864431882" lon="11.329348820329004"><ele>363.33333333333337</ele><time>2026-04-04T11:59:38Z</time></trkpt><trkpt lat="45.70602349744586" lon="11.329175342865549"><ele>370.6666666666667</ele><time>2026-04-04T11:59:39Z</time></trkpt><trkpt lat="45.70597075470366" lon="11.328914998584485"><ele>378.0</ele><time>2026-04-04T11:59:40Z</time></trkpt><trkpt lat="45.70598018573041" lon="11.328666008569748"><ele>378.0</ele><time>2026-04-04T11:59:41Z</time></trkpt><trkpt lat="45.70597657957994" lon="11.328439689191415"><ele>378.0</ele><time>2026-04-04T11:59:42Z</time></trkpt><trkpt lat="45.70589837659505" lon="11.328339740836944"><ele>378.0</ele><time>2026-04-04T11:59:43Z</time></trkpt><trkpt lat="45.70587690165177" lon="11.328184508861193"><ele>378.0</ele><time>2026-04-04T11:59:44Z</time></trkpt><trkpt lat="45.70587729155469" lon="11.32796085759131"><ele>378.3333333333333</ele><time>2026-04-04T11:59:45Z</time></trkpt><trkpt lat="45.705881595630956" lon="11.327791707881449"><ele>378.6666666666667</ele><time>2026-04-04T11:59:46Z</time></trkpt><trkpt lat="45.705893866847674" lon="11.327670919218864"><ele>379.0</ele><time>2026-04-04T11:59:47Z</time></trkpt><trkpt lat="45.70593310437961" lon="11.327598768062249"><ele>379.33333333333337</ele><time>2026-04-04T11:59:48Z</time></trkpt><trkpt lat="45.70601775934626" lon="11.32750690894781"><ele>379.6666666666667</ele><time>2026-04-04T11:59:50Z</time></trkpt><trkpt lat="45.706070005178766" lon="11.327578547029756"><ele>380.0</ele><time>2026-04-04T11:59:51Z</time></trkpt><trkpt lat="45.70619062150825" lon="11.327559268416039"><ele>376.6</ele><time>2026-04-04T11:59:52Z</time></trkpt><trkpt lat="45.70627676855758" lon="11.327505799939699"><ele>373.2</ele><time>2026-04-04T11:59:53Z</time></trkpt><trkpt lat="45.706340026592855" lon="11.327420596575527"><ele>369.79999999999995</ele><time>2026-04-04T11:59:54Z</time></trkpt><trkpt lat="45.706371932124" lon="11.327326905343932"><ele>366.4</ele><time>2026-04-04T11:59:55Z</time></trkpt><trkpt lat="45.70643146793907" lon="11.327185491447263"><ele>363.0</ele><time>2026-04-04T11:59:56Z</time></trkpt><trkpt lat="45.70652113696093" lon="11.326941957827442"><ele>363.0</ele><time>2026-04-04T11:59:57Z</time></trkpt><trkpt lat="45.706598456156655" lon="11.326772190972765"><ele>363.0</ele><time>2026-04-04T11:59:58Z</time></trkpt><trkpt lat="45.706655561452294" lon="11.32668346281493"><ele>363.0</ele><time>2026-04-04T11:59:59Z</time></trkpt><trkpt lat="45.7067004319683" lon="11.326759074061943"><ele>363.0</ele><time>2026-04-04T12:00:01Z</time></trkpt><trkpt lat="45.70674561389829" lon="11.326871933248936"><ele>363.0</ele><time>2026-04-04T12:00:03Z</time></trkpt><trkpt lat="45.70679731111649" lon="11.326930140767224"><ele>362.99999999999994</ele><time>2026-04-04T12:00:04Z</time></trkpt><trkpt lat="45.70685687588921" lon="11.326961831096089"><ele>363.0</ele><time>2026-04-04T12:00:05Z</time></trkpt><trkpt lat="45.70693821828857" lon="11.32695601004919"><ele>363.0</ele><time>2026-04-04T12:00:06Z</time></trkpt><trkpt lat="45.70701022102186" lon="11.326918436963997"><ele>363.0</ele><time>2026-04-04T12:00:07Z</time></trkpt><trkpt lat="45.70708549990011" lon="11.326897733235786"><ele>363.0</ele><time>2026-04-04T12:00:08Z</time></trkpt><trkpt lat="45.70715863930005" lon="11.326893990356977"><ele>362.99999999999994</ele><time>2026-04-04T12:00:09Z</time></trkpt><trkpt lat="45.70722148316782" lon="11.326905625304446"><ele>363.0</ele><time>2026-04-04T12:00:10Z</time></trkpt><trkpt lat="45.707285154209615" lon="11.32689649088558"><ele>358.5</ele><time>2026-04-04T12:00:11Z</time></trkpt><trkpt lat="45.707373653436335" lon="11.326850300164914"><ele>354.0</ele><time>2026-04-04T12:00:12Z</time></trkpt><trkpt lat="45.707482708149534" lon="11.326748155164463"><ele>349.5</ele><time>2026-04-04T12:00:13Z</time></trkpt><trkpt lat="45.70758325212077" lon="11.326630946595701"><ele>345.0</ele><time>2026-04-04T12:00:14Z</time></trkpt><trkpt lat="45.70768452479359" lon="11.326513081527313"><ele>339.0</ele><time>2026-04-04T12:00:15Z</time></trkpt><trkpt lat="45.70780032219306" lon="11.326432420648727"><ele>333.0</ele><time>2026-04-04T12:00:16Z</time></trkpt><trkpt lat="45.707850752450156" lon="11.326368865833427"><ele>327.0</ele><time>2026-04-04T12:00:17Z</time></trkpt><trkpt lat="45.70791868030646" lon="11.326459384194374"><ele>321.0</ele><time>2026-04-04T12:00:20Z</time></trkpt><trkpt lat="45.707960553989196" lon="11.326383906926042"><ele>315.0</ele><time>2026-04-04T12:00:24Z</time></trkpt><trkpt lat="45.70792749790057" lon="11.326059815411837"><ele>314.3333333333333</ele><time>2026-04-04T12:00:26Z</time></trkpt><trkpt lat="45.70792675770412" lon="11.325927536290779"><ele>313.6666666666667</ele><time>2026-04-04T12:00:27Z</time></trkpt><trkpt lat="45.707928302753565" lon="11.325827348787596"><ele>313.0</ele><time>2026-04-04T12:00:28Z</time></trkpt><trkpt lat="45.70790692123729" lon="11.325716413559189"><ele>312.33333333333337</ele><time>2026-04-04T12:00:29Z</time></trkpt><trkpt lat="45.70789573429659" lon="11.32561898368734"><ele>311.6666666666667</ele><time>2026-04-04T12:00:30Z</time></trkpt><trkpt lat="45.707885802099156" lon="11.325466827367276"><ele>311.0</ele><time>2026-04-04T12:00:32Z</time></trkpt><trkpt lat="45.7078705279008" lon="11.325373865475665"><ele>307.83333333333337</ele><time>2026-04-04T12:00:33Z</time></trkpt><trkpt lat="45.70785350941252" lon="11.32527520282904"><ele>304.6666666666667</ele><time>2026-04-04T12:00:34Z</time></trkpt><trkpt lat="45.70783503551879" lon="11.325175728843458"><ele>301.5</ele><time>2026-04-04T12:00:34.999Z</time></trkpt><trkpt lat="45.707804236706465" lon="11.325062780987986"><ele>298.3333333333333</ele><time>2026-04-04T12:00:35.999Z</time></trkpt><trkpt lat="45.70776233668786" lon="11.32494486084015"><ele>295.16666666666663</ele><time>2026-04-04T12:00:36.999Z</time></trkpt><trkpt lat="45.707680342597165" lon="11.324833486543431"><ele>292.0</ele><time>2026-04-04T12:00:37.999Z</time></trkpt><trkpt lat="45.70761672904256" lon="11.324736875302028"><ele>294.2</ele><time>2026-04-04T12:00:38.999Z</time></trkpt><trkpt lat="45.707562119386964" lon="11.324638900796389"><ele>296.4</ele><time>2026-04-04T12:00:39.999Z</time></trkpt><trkpt lat="45.70750866016322" lon="11.32457327986015"><ele>298.6</ele><time>2026-04-04T12:00:40.999Z</time></trkpt><trkpt lat="45.707587101581716" lon="11.324618335617059"><ele>300.8</ele><time>2026-04-04T12:00:46.999Z</time></trkpt><trkpt lat="45.707747670718035" lon="11.324673862174468"><ele>303.0</ele><time>2026-04-04T12:00:48.999Z</time></trkpt><trkpt lat="45.707828152260525" lon="11.324707799531474"><ele>301.1666666666667</ele><time>2026-04-04T12:00:49.999Z</time></trkpt><trkpt lat="45.707904207761494" lon="11.324752903721807"><ele>299.3333333333333</ele><time>2026-04-04T12:00:50.999Z</time></trkpt><trkpt lat="45.70796980852167" lon="11.324800896432496"><ele>297.5</ele><time>2026-04-04T12:00:51.999Z</time></trkpt><trkpt lat="45.708071622745415" lon="11.324886270537903"><ele>295.66666666666663</ele><time>2026-04-04T12:00:53.999Z</time></trkpt><trkpt lat="45.708123468287916" lon="11.324959350338634"><ele>293.8333333333333</ele><time>2026-04-04T12:00:54.999Z</time></trkpt><trkpt lat="45.708183626130236" lon="11.325005958322128"><ele>292.0</ele><time>2026-04-04T12:00:55.999Z</time></trkpt><trkpt lat="45.708238323126274" lon="11.325074563150416"><ele>292.0</ele><time>2026-04-04T12:00:58.999Z</time></trkpt><trkpt lat="45.70830698042418" lon="11.3250762414896"><ele>292.0</ele><time>2026-04-04T12:01:14.999Z</time></trkpt><trkpt lat="45.70836562776738" lon="11.325121830212689"><ele>292.0</ele><time>2026-04-04T12:01:16.999Z</time></trkpt><trkpt lat="45.70843809828969" lon="11.325164727389522"><ele>292.0</ele><time>2026-04-04T12:01:18.999Z</time></trkpt><trkpt lat="45.70849693439845" lon="11.32522608098219"><ele>292.0</ele><time>2026-04-04T12:01:19.999Z</time></trkpt><trkpt lat="45.708552854301324" lon="11.325315349536366"><ele>292.0</ele><time>2026-04-04T12:01:20.999Z</time></trkpt><trkpt lat="45.70859806740232" lon="11.325392618259588"><ele>292.0</ele><time>2026-04-04T12:01:21.999Z</time></trkpt><trkpt lat="45.70863341403333" lon="11.325486285473083"><ele>292.0</ele><time>2026-04-04T12:01:22.999Z</time></trkpt><trkpt lat="45.70867792773856" lon="11.325416659158241"><ele>292.0</ele><time>2026-04-04T12:01:26.999Z</time></trkpt><trkpt lat="45.708658841649736" lon="11.325329307115076"><ele>292.0</ele><time>2026-04-04T12:01:27.999Z</time></trkpt><trkpt lat="45.708638052875735" lon="11.325204143204326"><ele>292.0</ele><time>2026-04-04T12:01:28.999Z</time></trkpt><trkpt lat="45.70861465956083" lon="11.325113174146258"><ele>292.0</ele><time>2026-04-04T12:01:29.999Z</time></trkpt><trkpt lat="45.70857019621718" lon="11.325043442603125"><ele>292.0</ele><time>2026-04-04T12:01:31.999Z</time></trkpt><trkpt lat="45.70848218042345" lon="11.324834558487249"><ele>292.0</ele><time>2026-04-04T12:01:35Z</time></trkpt><trkpt lat="45.708428246067434" lon="11.32475137662791"><ele>292.0</ele><time>2026-04-04T12:01:36Z</time></trkpt><trkpt lat="45.70837697086903" lon="11.324653880621549"><ele>292.0</ele><time>2026-04-04T12:01:37Z</time></trkpt><trkpt lat="45.708346585564165" lon="11.324551918695994"><ele>292.0</ele><time>2026-04-04T12:01:38Z</time></trkpt><trkpt lat="45.708326567070294" lon="11.324448632105131"><ele>292.0</ele><time>2026-04-04T12:01:39Z</time></trkpt><trkpt lat="45.70827692924687" lon="11.324344512438548"><ele>292.0</ele><time>2026-04-04T12:01:40Z</time></trkpt><trkpt lat="45.70824443711746" lon="11.324258235458416"><ele>288.2857142857143</ele><time>2026-04-04T12:01:41Z</time></trkpt><trkpt lat="45.70819311020256" lon="11.324180303068168"><ele>284.57142857142856</ele><time>2026-04-04T12:01:42Z</time></trkpt><trkpt lat="45.708135829107206" lon="11.324101401051765"><ele>280.8571428571429</ele><time>2026-04-04T12:01:43Z</time></trkpt><trkpt lat="45.7080636362764" lon="11.324068048473913"><ele>277.1428571428571</ele><time>2026-04-04T12:01:44Z</time></trkpt><trkpt lat="45.707995296595165" lon="11.32405950034657"><ele>273.42857142857144</ele><time>2026-04-04T12:01:45Z</time></trkpt><trkpt lat="45.70805139530226" lon="11.323993428615449"><ele>269.7142857142857</ele><time>2026-04-04T12:01:49Z</time></trkpt><trkpt lat="45.70811609662663" lon="11.324016663356486"><ele>266.0</ele><time>2026-04-04T12:01:50Z</time></trkpt><trkpt lat="45.708245137471515" lon="11.324062618296118"><ele>266.0</ele><time>2026-04-04T12:01:52Z</time></trkpt><trkpt lat="45.708311471443324" lon="11.324114489023192"><ele>266.0</ele><time>2026-04-04T12:01:53Z</time></trkpt><trkpt lat="45.7084203855211" lon="11.32418699694935"><ele>266.0</ele><time>2026-04-04T12:01:54Z</time></trkpt><trkpt lat="45.708492410241355" lon="11.324238194776303"><ele>266.0</ele><time>2026-04-04T12:01:55Z</time></trkpt><trkpt lat="45.70856265926802" lon="11.32429222341055"><ele>266.0</ele><time>2026-04-04T12:01:56Z</time></trkpt><trkpt lat="45.708642955304725" lon="11.324363875128274"><ele>260.0</ele><time>2026-04-04T12:01:57Z</time></trkpt><trkpt lat="45.708711723787815" lon="11.324418484770826"><ele>254.0</ele><time>2026-04-04T12:01:58Z</time></trkpt><trkpt lat="45.708808500962206" lon="11.324546218219439"><ele>248.0</ele><time>2026-04-04T12:02:00Z</time></trkpt><trkpt lat="45.70889401204215" lon="11.324679356144314"><ele>242.0</ele><time>2026-04-04T12:02:01Z</time></trkpt><trkpt lat="45.70897527209432" lon="11.324802762576073"><ele>242.00000000000003</ele><time>2026-04-04T12:02:02Z</time></trkpt><trkpt lat="45.70905266895711" lon="11.324912721554181"><ele>242.0</ele><time>2026-04-04T12:02:03Z</time></trkpt><trkpt lat="45.70912241945944" lon="11.325003857875087"><ele>242.0</ele><time>2026-04-04T12:02:04Z</time></trkpt><trkpt lat="45.709165028896564" lon="11.325083779642629"><ele>242.0</ele><time>2026-04-04T12:02:05Z</time></trkpt><trkpt lat="45.709204798502455" lon="11.325171483902073"><ele>242.00000000000003</ele><time>2026-04-04T12:02:06Z</time></trkpt><trkpt lat="45.7092447885062" lon="11.325264384848722"><ele>242.0</ele><time>2026-04-04T12:02:07Z</time></trkpt><trkpt lat="45.709307297158254" lon="11.32536335131911"><ele>242.0</ele><time>2026-04-04T12:02:09Z</time></trkpt><trkpt lat="45.7093670929931" lon="11.32544238636841"><ele>242.0</ele><time>2026-04-04T12:02:10Z</time></trkpt><trkpt lat="45.709423019915285" lon="11.32550111894873"><ele>242.0</ele><time>2026-04-04T12:02:11Z</time></trkpt><trkpt lat="45.70951618867541" lon="11.325389302441371"><ele>242.0</ele><time>2026-04-04T12:02:13Z</time></trkpt><trkpt lat="45.70956624562248" lon="11.325330596382074"><ele>242.0</ele><time>2026-04-04T12:02:14Z</time></trkpt><trkpt lat="45.70970304524135" lon="11.325459911728279"><ele>238.33333333333334</ele><time>2026-04-04T12:02:16Z</time></trkpt><trkpt lat="45.70980751806753" lon="11.325594364555394"><ele>234.66666666666669</ele><time>2026-04-04T12:02:17Z</time></trkpt><trkpt lat="45.70994708743361" lon="11.325737070566552"><ele>231.0</ele><time>2026-04-04T12:02:18Z</time></trkpt><trkpt lat="45.71010332118253" lon="11.325863955846474"><ele>230.60000000000002</ele><time>2026-04-04T12:02:19Z</time></trkpt><trkpt lat="45.71025221704563" lon="11.325959808437906"><ele>230.20000000000002</ele><time>2026-04-04T12:02:20Z</time></trkpt><trkpt lat="45.71036869424072" lon="11.32600301075316"><ele>229.79999999999998</ele><time>2026-04-04T12:02:21Z</time></trkpt><trkpt lat="45.71044632650277" lon="11.326021457817419"><ele>229.39999999999998</ele><time>2026-04-04T12:02:22Z</time></trkpt><trkpt lat="45.71051536635096" lon="11.326029715742589"><ele>229.0</ele><time>2026-04-04T12:02:25Z</time></trkpt><trkpt lat="45.71059284696648" lon="11.32605565988022"><ele>229.0</ele><time>2026-04-04T12:02:31Z</time></trkpt><trkpt lat="45.71062897715114" lon="11.325875028770657"><ele>228.99999999999997</ele><time>2026-04-04T12:02:33Z</time></trkpt><trkpt lat="45.71062985112311" lon="11.32568691414112"><ele>228.99999999999997</ele><time>2026-04-04T12:02:34Z</time></trkpt><trkpt lat="45.71062801242538" lon="11.325551385297237"><ele>229.0</ele><time>2026-04-04T12:02:35.999Z</time></trkpt><trkpt lat="45.7106073286506" lon="11.325437759703961"><ele>229.0</ele><time>2026-04-04T12:02:58.999Z</time></trkpt><trkpt lat="45.71060808434988" lon="11.32521841792841"><ele>229.33333333333331</ele><time>2026-04-04T12:02:59.999Z</time></trkpt><trkpt lat="45.710611865001226" lon="11.324982051818575"><ele>229.66666666666669</ele><time>2026-04-04T12:03:00.999Z</time></trkpt><trkpt lat="45.710610569967464" lon="11.324715449773938"><ele>230.0</ele><time>2026-04-04T12:03:01.999Z</time></trkpt><trkpt lat="45.7106174982062" lon="11.324509900506921"><ele>230.25</ele><time>2026-04-04T12:03:02.999Z</time></trkpt><trkpt lat="45.710631143110014" lon="11.324408413855874"><ele>230.5</ele><time>2026-04-04T12:03:03.999Z</time></trkpt><trkpt lat="45.710815978644575" lon="11.324404809414498"><ele>230.75</ele><time>2026-04-04T12:03:06.999Z</time></trkpt><trkpt lat="45.710966001241694" lon="11.324440905571278"><ele>231.0</ele><time>2026-04-04T12:03:07.999Z</time></trkpt><trkpt lat="45.711146034509554" lon="11.32444193575461"><ele>230.5</ele><time>2026-04-04T12:03:08.999Z</time></trkpt><trkpt lat="45.71129594364618" lon="11.324454235032373"><ele>230.0</ele><time>2026-04-04T12:03:09.999Z</time></trkpt><trkpt lat="45.71139844540903" lon="11.32446249537458"><ele>229.5</ele><time>2026-04-04T12:03:10.999Z</time></trkpt><trkpt lat="45.71147667740066" lon="11.32445684317396"><ele>229.0</ele><time>2026-04-04T12:03:12.999Z</time></trkpt><trkpt lat="45.71150246293817" lon="11.324721230109091"><ele>228.66666666666666</ele><time>2026-04-04T12:03:13.999Z</time></trkpt><trkpt lat="45.71162062714419" lon="11.324893346026236"><ele>228.33333333333331</ele><time>2026-04-04T12:03:14.999Z</time></trkpt><trkpt lat="45.71174425455959" lon="11.325110838232241"><ele>228.0</ele><time>2026-04-04T12:03:15.999Z</time></trkpt><trkpt lat="45.71185134405729" lon="11.325309745589896"><ele>227.0</ele><time>2026-04-04T12:03:16.999Z</time></trkpt><trkpt lat="45.711928122571244" lon="11.32556020195347"><ele>226.0</ele><time>2026-04-04T12:03:17.999Z</time></trkpt><trkpt lat="45.71202246775785" lon="11.325783449453242"><ele>225.0</ele><time>2026-04-04T12:03:18.999Z</time></trkpt><trkpt lat="45.712084012642656" lon="11.325971631155117"><ele>224.83333333333334</ele><time>2026-04-04T12:03:19.999Z</time></trkpt><trkpt lat="45.71211502293522" lon="11.326086568081244"><ele>224.66666666666669</ele><time>2026-04-04T12:03:20.999Z</time></trkpt><trkpt lat="45.71214210960559" lon="11.326201867280298"><ele>224.5</ele><time>2026-04-04T12:03:21.999Z</time></trkpt><trkpt lat="45.71218542557006" lon="11.326353333372408"><ele>224.33333333333334</ele><time>2026-04-04T12:03:22.999Z</time></trkpt><trkpt lat="45.7122204328498" lon="11.326462742662454"><ele>224.16666666666669</ele><time>2026-04-04T12:03:23.999Z</time></trkpt><trkpt lat="45.712247124031855" lon="11.326558296776094"><ele>224.0</ele><time>2026-04-04T12:03:24.999Z</time></trkpt><trkpt lat="45.712272495219786" lon="11.326652348752505"><ele>224.00000000000003</ele><time>2026-04-04T12:03:25.999Z</time></trkpt><trkpt lat="45.71232745464528" lon="11.32679575875811"><ele>224.0</ele><time>2026-04-04T12:03:27.999Z</time></trkpt><trkpt lat="45.71241387549169" lon="11.32688918658203"><ele>224.0</ele><time>2026-04-04T12:03:29.999Z</time></trkpt><trkpt lat="45.712479708668866" lon="11.326913462948582"><ele>224.0</ele><time>2026-04-04T12:03:30.999Z</time></trkpt><trkpt lat="45.71254897061705" lon="11.326917424637472"><ele>224.00000000000003</ele><time>2026-04-04T12:03:31.999Z</time></trkpt><trkpt lat="45.712616851845105" lon="11.326910997538066"><ele>224.0</ele><time>2026-04-04T12:03:32.999Z</time></trkpt><trkpt lat="45.7126956005058" lon="11.326905719779509"><ele>223.2</ele><time>2026-04-04T12:03:33.999Z</time></trkpt><trkpt lat="45.71278361007928" lon="11.326910650569921"><ele>222.39999999999998</ele><time>2026-04-04T12:03:34.999Z</time></trkpt><trkpt lat="45.712890923656055" lon="11.326927430041515"><ele>221.6</ele><time>2026-04-04T12:03:35.999Z</time></trkpt><trkpt lat="45.713005996741614" lon="11.326956741462912"><ele>220.8</ele><time>2026-04-04T12:03:36.999Z</time></trkpt><trkpt lat="45.71313146616774" lon="11.326986144388668"><ele>220.0</ele><time>2026-04-04T12:03:37.999Z</time></trkpt><trkpt lat="45.71325867181182" lon="11.327011117255209"><ele>220.0</ele><time>2026-04-04T12:03:39Z</time></trkpt><trkpt lat="45.71339161280711" lon="11.327031394156881"><ele>220.0</ele><time>2026-04-04T12:03:40Z</time></trkpt><trkpt lat="45.713521002968605" lon="11.327052083943098"><ele>220.0</ele><time>2026-04-04T12:03:41Z</time></trkpt><trkpt lat="45.71365091779335" lon="11.32707066072985"><ele>220.0</ele><time>2026-04-04T12:03:42Z</time></trkpt><trkpt lat="45.71376563802575" lon="11.327088616802115"><ele>220.2</ele><time>2026-04-04T12:03:43Z</time></trkpt><trkpt lat="45.71387072761448" lon="11.327108893137245"><ele>220.4</ele><time>2026-04-04T12:03:44Z</time></trkpt><trkpt lat="45.71397155932731" lon="11.327141755157419"><ele>220.60000000000002</ele><time>2026-04-04T12:03:45Z</time></trkpt><trkpt lat="45.71406070934799" lon="11.327207136270577"><ele>220.8</ele><time>2026-04-04T12:03:46Z</time></trkpt><trkpt lat="45.714134081907645" lon="11.327306692799208"><ele>221.0</ele><time>2026-04-04T12:03:47Z</time></trkpt><trkpt lat="45.714180939137776" lon="11.327410668488668"><ele>221.0</ele><time>2026-04-04T12:03:48Z</time></trkpt><trkpt lat="45.714235007782136" lon="11.327595121549635"><ele>221.0</ele><time>2026-04-04T12:03:50Z</time></trkpt><trkpt lat="45.71428446387124" lon="11.327737214203452"><ele>221.0</ele><time>2026-04-04T12:03:51Z</time></trkpt><trkpt lat="45.71434538715797" lon="11.327914424175273"><ele>221.0</ele><time>2026-04-04T12:03:52Z</time></trkpt><trkpt lat="45.71441356416685" lon="11.328122514371238"><ele>221.33333333333334</ele><time>2026-04-04T12:03:53Z</time></trkpt><trkpt lat="45.71448479981031" lon="11.328345269869123"><ele>221.66666666666669</ele><time>2026-04-04T12:03:54Z</time></trkpt><trkpt lat="45.71454929415938" lon="11.32857471326589"><ele>222.0</ele><time>2026-04-04T12:03:55Z</time></trkpt><trkpt lat="45.71460606224254" lon="11.328797039402868"><ele>222.33333333333331</ele><time>2026-04-04T12:03:56Z</time></trkpt><trkpt lat="45.71467948548299" lon="11.329017199670309"><ele>222.66666666666666</ele><time>2026-04-04T12:03:57Z</time></trkpt><trkpt lat="45.71474416117296" lon="11.32923106831509"><ele>223.0</ele><time>2026-04-04T12:03:58Z</time></trkpt><trkpt lat="45.71480132073726" lon="11.329425213760203"><ele>223.0</ele><time>2026-04-04T12:03:59Z</time></trkpt><trkpt lat="45.71486329886385" lon="11.32962197239315"><ele>223.0</ele><time>2026-04-04T12:04:00Z</time></trkpt><trkpt lat="45.71492713814556" lon="11.329820841794973"><ele>223.0</ele><time>2026-04-04T12:04:01Z</time></trkpt><trkpt lat="45.71499154978317" lon="11.330026395471787"><ele>223.0</ele><time>2026-04-04T12:04:02Z</time></trkpt><trkpt lat="45.71505588005056" lon="11.330234221327917"><ele>223.0</ele><time>2026-04-04T12:04:03Z</time></trkpt><trkpt lat="45.71512221034651" lon="11.330439263089326"><ele>223.0</ele><time>2026-04-04T12:04:04Z</time></trkpt><trkpt lat="45.71518767019289" lon="11.330648331468085"><ele>224.5</ele><time>2026-04-04T12:04:05Z</time></trkpt><trkpt lat="45.715249525848165" lon="11.330848254447455"><ele>226.0</ele><time>2026-04-04T12:04:06Z</time></trkpt><trkpt lat="45.71530438716321" lon="11.331019360971878"><ele>227.5</ele><time>2026-04-04T12:04:07Z</time></trkpt><trkpt lat="45.715352363799916" lon="11.331173670387969"><ele>229.0</ele><time>2026-04-04T12:04:08Z</time></trkpt><trkpt lat="45.71538683337172" lon="11.331306282234987"><ele>229.2</ele><time>2026-04-04T12:04:09Z</time></trkpt><trkpt lat="45.71541837754135" lon="11.331430821027286"><ele>229.39999999999998</ele><time>2026-04-04T12:04:10Z</time></trkpt><trkpt lat="45.715428439873826" lon="11.331535953271166"><ele>229.6</ele><time>2026-04-04T12:04:11Z</time></trkpt><trkpt lat="45.71538408875281" lon="11.331652868440633"><ele>229.8</ele><time>2026-04-04T12:04:13Z</time></trkpt><trkpt lat="45.71530201772872" lon="11.331805076106193"><ele>230.0</ele><time>2026-04-04T12:04:15Z</time></trkpt><trkpt lat="45.71526683968331" lon="11.33193482981835"><ele>228.0</ele><time>2026-04-04T12:04:16Z</time></trkpt><trkpt lat="45.715231409815395" lon="11.332083413585625"><ele>226.0</ele><time>2026-04-04T12:04:17Z</time></trkpt><trkpt lat="45.715199908509206" lon="11.332254039825418"><ele>224.0</ele><time>2026-04-04T12:04:18Z</time></trkpt><trkpt lat="45.71517413339434" lon="11.33243850766247"><ele>222.0</ele><time>2026-04-04T12:04:19Z</time></trkpt><trkpt lat="45.715156561731106" lon="11.332599629753304"><ele>221.66666666666666</ele><time>2026-04-04T12:04:20Z</time></trkpt><trkpt lat="45.71513212379585" lon="11.332738709286101"><ele>221.33333333333331</ele><time>2026-04-04T12:04:21Z</time></trkpt><trkpt lat="45.71509261532226" lon="11.332853789403277"><ele>221.0</ele><time>2026-04-04T12:04:22Z</time></trkpt><trkpt lat="45.71504281472795" lon="11.332915580824036"><ele>220.66666666666666</ele><time>2026-04-04T12:04:23Z</time></trkpt><trkpt lat="45.71492874040224" lon="11.33296974942283"><ele>220.33333333333331</ele><time>2026-04-04T12:04:25Z</time></trkpt><trkpt lat="45.71487956901253" lon="11.33302657851095"><ele>220.0</ele><time>2026-04-04T12:04:26Z</time></trkpt><trkpt lat="45.714859463653816" lon="11.333201801269075"><ele>219.6</ele><time>2026-04-04T12:04:28Z</time></trkpt><trkpt lat="45.71489852122655" lon="11.333296454219468"><ele>219.2</ele><time>2026-04-04T12:04:29Z</time></trkpt><trkpt lat="45.714959292220335" lon="11.333378380066009"><ele>218.8</ele><time>2026-04-04T12:04:30Z</time></trkpt><trkpt lat="45.71503176599348" lon="11.333478831388009"><ele>218.4</ele><time>2026-04-04T12:04:31Z</time></trkpt><trkpt lat="45.71509206238266" lon="11.333624406518497"><ele>218.0</ele><time>2026-04-04T12:04:32Z</time></trkpt><trkpt lat="45.715096766973225" lon="11.333823230997684"><ele>218.33333333333334</ele><time>2026-04-04T12:04:33Z</time></trkpt><trkpt lat="45.71511280639699" lon="11.334054410550838"><ele>218.66666666666669</ele><time>2026-04-04T12:04:34Z</time></trkpt><trkpt lat="45.71514047571031" lon="11.334312799964446"><ele>219.0</ele><time>2026-04-04T12:04:35Z</time></trkpt><trkpt lat="45.71515149905501" lon="11.334565188105358"><ele>219.75</ele><time>2026-04-04T12:04:36Z</time></trkpt><trkpt lat="45.71516466142311" lon="11.33478390235702"><ele>220.5</ele><time>2026-04-04T12:04:37Z</time></trkpt><trkpt lat="45.715180253615806" lon="11.334970548267592"><ele>221.25</ele><time>2026-04-04T12:04:37.999Z</time></trkpt><trkpt lat="45.71519211584364" lon="11.335119698485578"><ele>222.0</ele><time>2026-04-04T12:04:38.999Z</time></trkpt><trkpt lat="45.71519820678658" lon="11.335211185214664"><ele>222.0</ele><time>2026-04-04T12:04:39.999Z</time></trkpt><trkpt lat="45.71519021904251" lon="11.335321417192088"><ele>222.0</ele><time>2026-04-04T12:05:30.999Z</time></trkpt><trkpt lat="45.71519485300496" lon="11.335413416596301"><ele>222.0</ele><time>2026-04-04T12:05:31.999Z</time></trkpt><trkpt lat="45.715418658931576" lon="11.335468377758772"><ele>222.0</ele><time>2026-04-04T12:05:33.999Z</time></trkpt><trkpt lat="45.7155506681765" lon="11.335418032337712"><ele>222.33333333333331</ele><time>2026-04-04T12:05:34.999Z</time></trkpt><trkpt lat="45.715730534841676" lon="11.335344549147592"><ele>222.66666666666666</ele><time>2026-04-04T12:05:35.999Z</time></trkpt><trkpt lat="45.71594009075928" lon="11.335269919336465"><ele>223.0</ele><time>2026-04-04T12:05:36.999Z</time></trkpt><trkpt lat="45.716165511413124" lon="11.335199006053925"><ele>224.5</ele><time>2026-04-04T12:05:37.999Z</time></trkpt><trkpt lat="45.716409059136666" lon="11.335122281557569"><ele>226.0</ele><time>2026-04-04T12:05:38.999Z</time></trkpt><trkpt lat="45.71667104225635" lon="11.335024291446716"><ele>228.5</ele><time>2026-04-04T12:05:39.999Z</time></trkpt><trkpt lat="45.716943015810266" lon="11.33490978525588"><ele>231.0</ele><time>2026-04-04T12:05:40.999Z</time></trkpt><trkpt lat="45.71720840521933" lon="11.33477346772645"><ele>231.0</ele><time>2026-04-04T12:05:41.999Z</time></trkpt><trkpt lat="45.71743911884127" lon="11.334601704871087"><ele>231.0</ele><time>2026-04-04T12:05:42.999Z</time></trkpt><trkpt lat="45.717661987597225" lon="11.334369548193544"><ele>231.5</ele><time>2026-04-04T12:05:43.999Z</time></trkpt><trkpt lat="45.717889973155025" lon="11.334100744122656"><ele>232.0</ele><time>2026-04-04T12:05:45Z</time></trkpt><trkpt lat="45.718127036820825" lon="11.33383736879224"><ele>233.0</ele><time>2026-04-04T12:05:46Z</time></trkpt><trkpt lat="45.718363744073585" lon="11.333605964621782"><ele>234.0</ele><time>2026-04-04T12:05:47Z</time></trkpt><trkpt lat="45.718600587271155" lon="11.333399663039433"><ele>236.0</ele><time>2026-04-04T12:05:48Z</time></trkpt><trkpt lat="45.71884829314352" lon="11.333224299646488"><ele>238.0</ele><time>2026-04-04T12:05:49Z</time></trkpt><trkpt lat="45.71910416025933" lon="11.33307881050432"><ele>238.0</ele><time>2026-04-04T12:05:50Z</time></trkpt><trkpt lat="45.71935402326263" lon="11.332900863412316"><ele>238.0</ele><time>2026-04-04T12:05:51Z</time></trkpt><trkpt lat="45.71959042030709" lon="11.332664125127707"><ele>239.0</ele><time>2026-04-04T12:05:52Z</time></trkpt><trkpt lat="45.719824407990735" lon="11.332399538558773"><ele>240.0</ele><time>2026-04-04T12:05:53Z</time></trkpt><trkpt lat="45.72007094601077" lon="11.332161552505783"><ele>243.5</ele><time>2026-04-04T12:05:54Z</time></trkpt><trkpt lat="45.720340071881076" lon="11.331948711478553"><ele>247.0</ele><time>2026-04-04T12:05:55Z</time></trkpt><trkpt lat="45.72061350836294" lon="11.3317331123889"><ele>247.0</ele><time>2026-04-04T12:05:56Z</time></trkpt><trkpt lat="45.720887057688536" lon="11.331496642841785"><ele>247.0</ele><time>2026-04-04T12:05:57Z</time></trkpt><trkpt lat="45.72115697332145" lon="11.331255666045282"><ele>250.0</ele><time>2026-04-04T12:05:58Z</time></trkpt><trkpt lat="45.72140674974155" lon="11.331036393784347"><ele>253.0</ele><time>2026-04-04T12:05:59Z</time></trkpt><trkpt lat="45.72164137130777" lon="11.330845107403388"><ele>253.0</ele><time>2026-04-04T12:06:00Z</time></trkpt><trkpt lat="45.721883806982255" lon="11.33066835469049"><ele>253.0</ele><time>2026-04-04T12:06:01Z</time></trkpt><trkpt lat="45.72213372222671" lon="11.33051042325371"><ele>255.0</ele><time>2026-04-04T12:06:02Z</time></trkpt><trkpt lat="45.7223765287059" lon="11.330344551300357"><ele>257.0</ele><time>2026-04-04T12:06:03Z</time></trkpt><trkpt lat="45.72262296044386" lon="11.330167304946158"><ele>259.0</ele><time>2026-04-04T12:06:04Z</time></trkpt><trkpt lat="45.722860833154016" lon="11.33000742235026"><ele>261.0</ele><time>2026-04-04T12:06:05Z</time></trkpt><trkpt lat="45.72307713926466" lon="11.329849284578929"><ele>261.0</ele><time>2026-04-04T12:06:06Z</time></trkpt><trkpt lat="45.72328486948117" lon="11.329646167964338"><ele>261.0</ele><time>2026-04-04T12:06:07Z</time></trkpt><trkpt lat="45.723495803773865" lon="11.329387841531924"><ele>264.0</ele><time>2026-04-04T12:06:08Z</time></trkpt><trkpt lat="45.72370325518571" lon="11.329130524614797"><ele>267.0</ele><time>2026-04-04T12:06:09Z</time></trkpt><trkpt lat="45.72388803759906" lon="11.328917052211725"><ele>267.3333333333333</ele><time>2026-04-04T12:06:10Z</time></trkpt><trkpt lat="45.72405176068997" lon="11.328753834455979"><ele>267.66666666666663</ele><time>2026-04-04T12:06:11Z</time></trkpt><trkpt lat="45.72421941137339" lon="11.328646548937819"><ele>268.0</ele><time>2026-04-04T12:06:12Z</time></trkpt><trkpt lat="45.72439879814989" lon="11.328563254385074"><ele>270.66666666666663</ele><time>2026-04-04T12:06:13Z</time></trkpt><trkpt lat="45.72459808986172" lon="11.328487812501473"><ele>273.3333333333333</ele><time>2026-04-04T12:06:14Z</time></trkpt><trkpt lat="45.724788494801935" lon="11.328416814600677"><ele>276.0</ele><time>2026-04-04T12:06:15Z</time></trkpt><trkpt lat="45.72495288356451" lon="11.328361191904538"><ele>276.0</ele><time>2026-04-04T12:06:16Z</time></trkpt><trkpt lat="45.72509631196935" lon="11.328299698416208"><ele>276.0</ele><time>2026-04-04T12:06:17Z</time></trkpt><trkpt lat="45.72521308840057" lon="11.328208118182273"><ele>276.0</ele><time>2026-04-04T12:06:18Z</time></trkpt><trkpt lat="45.725297011421766" lon="11.328132119713379"><ele>276.0</ele><time>2026-04-04T12:06:19Z</time></trkpt><trkpt lat="45.72539372781375" lon="11.328069360505118"><ele>277.1666666666667</ele><time>2026-04-04T12:06:21Z</time></trkpt><trkpt lat="45.72541821558952" lon="11.327974003237461"><ele>278.3333333333333</ele><time>2026-04-04T12:07:26.999Z</time></trkpt><trkpt lat="45.72551465421557" lon="11.327884235378475"><ele>279.5</ele><time>2026-04-04T12:07:28.999Z</time></trkpt><trkpt lat="45.7255751863835" lon="11.327823556775888"><ele>280.66666666666663</ele><time>2026-04-04T12:07:29.999Z</time></trkpt><trkpt lat="45.72564712078807" lon="11.32782223831505"><ele>281.8333333333333</ele><time>2026-04-04T12:07:30.999Z</time></trkpt><trkpt lat="45.72573289329967" lon="11.327812761879082"><ele>283.0</ele><time>2026-04-04T12:07:31.999Z</time></trkpt><trkpt lat="45.72581274024716" lon="11.327758054473492"><ele>283.0</ele><time>2026-04-04T12:07:32.999Z</time></trkpt><trkpt lat="45.725909453971596" lon="11.327748116964973"><ele>283.0</ele><time>2026-04-04T12:07:33.999Z</time></trkpt><trkpt lat="45.726015889173105" lon="11.32771712403105"><ele>283.0</ele><time>2026-04-04T12:07:34.999Z</time></trkpt><trkpt lat="45.72611455658979" lon="11.327700503362594"><ele>283.0</ele><time>2026-04-04T12:07:35.999Z</time></trkpt><trkpt lat="45.726206181362336" lon="11.327675013714387"><ele>283.0</ele><time>2026-04-04T12:07:36.999Z</time></trkpt><trkpt lat="45.726296573636596" lon="11.327601238168409"><ele>284.0</ele><time>2026-04-04T12:07:37.999Z</time></trkpt><trkpt lat="45.72638997103087" lon="11.327519043376586"><ele>285.0</ele><time>2026-04-04T12:07:38.999Z</time></trkpt><trkpt lat="45.72648253652816" lon="11.327412381626282"><ele>286.0</ele><time>2026-04-04T12:07:39.999Z</time></trkpt><trkpt lat="45.72657661898776" lon="11.327299559243327"><ele>287.0</ele><time>2026-04-04T12:07:40.999Z</time></trkpt><trkpt lat="45.72666534317212" lon="11.327190473860279"><ele>287.6</ele><time>2026-04-04T12:07:41.999Z</time></trkpt><trkpt lat="45.72675226084474" lon="11.327084162279174"><ele>288.2</ele><time>2026-04-04T12:07:42.999Z</time></trkpt><trkpt lat="45.72683880791099" lon="11.326982493718612"><ele>288.8</ele><time>2026-04-04T12:07:43.999Z</time></trkpt><trkpt lat="45.726912715334656" lon="11.32689544239146"><ele>289.4</ele><time>2026-04-04T12:07:44.998Z</time></trkpt><trkpt lat="45.72698133269387" lon="11.326808624214193"><ele>290.0</ele><time>2026-04-04T12:07:45.998Z</time></trkpt><trkpt lat="45.727046601937765" lon="11.326732953640947"><ele>290.83333333333337</ele><time>2026-04-04T12:07:46.998Z</time></trkpt><trkpt lat="45.72711973373632" lon="11.326658909563017"><ele>291.6666666666667</ele><time>2026-04-04T12:07:47.998Z</time></trkpt><trkpt lat="45.72719446859582" lon="11.32658350447988"><ele>292.5</ele><time>2026-04-04T12:07:48.998Z</time></trkpt><trkpt lat="45.72726473506694" lon="11.326511776682517"><ele>293.3333333333333</ele><time>2026-04-04T12:07:49.998Z</time></trkpt><trkpt lat="45.72732332978885" lon="11.326457130863883"><ele>294.16666666666663</ele><time>2026-04-04T12:07:51Z</time></trkpt><trkpt lat="45.72739143320277" lon="11.326438061018038"><ele>295.0</ele><time>2026-04-04T12:07:57Z</time></trkpt><trkpt lat="45.72741258635849" lon="11.326328994461749"><ele>295.75</ele><time>2026-04-04T12:07:59Z</time></trkpt><trkpt lat="45.72742695440081" lon="11.326124341429484"><ele>296.5</ele><time>2026-04-04T12:08:01Z</time></trkpt><trkpt lat="45.7274412966129" lon="11.326009789123278"><ele>297.25</ele><time>2026-04-04T12:08:02Z</time></trkpt><trkpt lat="45.727428769308425" lon="11.325842170915632"><ele>298.0</ele><time>2026-04-04T12:08:03Z</time></trkpt><trkpt lat="45.72738319020691" lon="11.325671870426866"><ele>298.5</ele><time>2026-04-04T12:08:04Z</time></trkpt><trkpt lat="45.72733306196472" lon="11.325460096388692"><ele>299.0</ele><time>2026-04-04T12:08:05Z</time></trkpt><trkpt lat="45.72729223242895" lon="11.32525909112029"><ele>299.5</ele><time>2026-04-04T12:08:06Z</time></trkpt><trkpt lat="45.727251670121035" lon="11.32505779570458"><ele>300.0</ele><time>2026-04-04T12:08:07Z</time></trkpt><trkpt lat="45.727228377580936" lon="11.324878726940515"><ele>300.75</ele><time>2026-04-04T12:08:08Z</time></trkpt><trkpt lat="45.72722326196206" lon="11.324702398513256"><ele>301.5</ele><time>2026-04-04T12:08:09Z</time></trkpt><trkpt lat="45.72724288905631" lon="11.324530209514348"><ele>302.25</ele><time>2026-04-04T12:08:10Z</time></trkpt><trkpt lat="45.72730093769446" lon="11.324354885964341"><ele>303.0</ele><time>2026-04-04T12:08:11Z</time></trkpt><trkpt lat="45.727371563771854" lon="11.324180442606048"><ele>303.0</ele><time>2026-04-04T12:08:12Z</time></trkpt><trkpt lat="45.72744063302004" lon="11.324023765569306"><ele>303.0</ele><time>2026-04-04T12:08:13Z</time></trkpt><trkpt lat="45.727504046633356" lon="11.32387746090605"><ele>303.0</ele><time>2026-04-04T12:08:14Z</time></trkpt><trkpt lat="45.727550360084194" lon="11.32375480412382"><ele>303.0</ele><time>2026-04-04T12:08:15Z</time></trkpt><trkpt lat="45.72759054793037" lon="11.323648672197574"><ele>303.0</ele><time>2026-04-04T12:08:16Z</time></trkpt><trkpt lat="45.727619377761044" lon="11.323561689682771"><ele>306.25</ele><time>2026-04-04T12:08:17Z</time></trkpt><trkpt lat="45.72764446626927" lon="11.323450752437983"><ele>309.5</ele><time>2026-04-04T12:08:19Z</time></trkpt><trkpt lat="45.727483537941566" lon="11.32339438496273"><ele>312.75</ele><time>2026-04-04T12:08:21Z</time></trkpt><trkpt lat="45.727370328919335" lon="11.323421854221586"><ele>316.0</ele><time>2026-04-04T12:08:22Z</time></trkpt><trkpt lat="45.72724032919443" lon="11.323434159285211"><ele>316.0</ele><time>2026-04-04T12:08:23Z</time></trkpt><trkpt lat="45.72708619209162" lon="11.323471816473393"><ele>316.0</ele><time>2026-04-04T12:08:24Z</time></trkpt><trkpt lat="45.726920700322644" lon="11.323516031016947"><ele>316.0</ele><time>2026-04-04T12:08:25Z</time></trkpt><trkpt lat="45.726774419438435" lon="11.323516342183735"><ele>321.3333333333333</ele><time>2026-04-04T12:08:26Z</time></trkpt><trkpt lat="45.726621948140604" lon="11.323490189609869"><ele>326.6666666666667</ele><time>2026-04-04T12:08:27Z</time></trkpt><trkpt lat="45.72642106247449" lon="11.323453994677886"><ele>332.0</ele><time>2026-04-04T12:08:28Z</time></trkpt><trkpt lat="45.72623995357674" lon="11.323425906435956"><ele>332.0</ele><time>2026-04-04T12:08:29Z</time></trkpt><trkpt lat="45.72608241977023" lon="11.323408940305574"><ele>332.0</ele><time>2026-04-04T12:08:30Z</time></trkpt><trkpt lat="45.72592890021856" lon="11.323409912358523"><ele>332.0</ele><time>2026-04-04T12:08:31Z</time></trkpt><trkpt lat="45.72577622036328" lon="11.323438697240535"><ele>333.25</ele><time>2026-04-04T12:08:32Z</time></trkpt><trkpt lat="45.72564568829304" lon="11.323461059294317"><ele>334.5</ele><time>2026-04-04T12:08:33Z</time></trkpt><trkpt lat="45.72553727432506" lon="11.323469351496973"><ele>335.75</ele><time>2026-04-04T12:08:34Z</time></trkpt><trkpt lat="45.72543138282694" lon="11.323468713867868"><ele>337.0</ele><time>2026-04-04T12:08:35Z</time></trkpt><trkpt lat="45.72531428954178" lon="11.323417247838487"><ele>335.5</ele><time>2026-04-04T12:08:36Z</time></trkpt><trkpt lat="45.72518055706825" lon="11.323389475100592"><ele>334.0</ele><time>2026-04-04T12:08:37Z</time></trkpt><trkpt lat="45.72506836561355" lon="11.323321840571323"><ele>332.5</ele><time>2026-04-04T12:08:38Z</time></trkpt><trkpt lat="45.72496324348044" lon="11.323256893063748"><ele>331.0</ele><time>2026-04-04T12:08:39Z</time></trkpt><trkpt lat="45.72485681019732" lon="11.323212049793328"><ele>331.0</ele><time>2026-04-04T12:08:40Z</time></trkpt><trkpt lat="45.72477029125765" lon="11.323177060991018"><ele>331.0</ele><time>2026-04-04T12:08:41Z</time></trkpt><trkpt lat="45.724698724872084" lon="11.323139894460652"><ele>331.0</ele><time>2026-04-04T12:08:42Z</time></trkpt><trkpt lat="45.72465741921418" lon="11.323385137435562"><ele>331.0</ele><time>2026-04-04T12:08:42.999Z</time></trkpt><trkpt lat="45.7245715148629" lon="11.323444724524906"><ele>331.0</ele><time>2026-04-04T12:08:43.999Z</time></trkpt><trkpt lat="45.72447608926467" lon="11.323508265280115"><ele>331.0</ele><time>2026-04-04T12:08:44.999Z</time></trkpt><trkpt lat="45.72441354540572" lon="11.323546335457188"><ele>331.0</ele><time>2026-04-04T12:08:45.999Z</time></trkpt><trkpt lat="45.72429808921722" lon="11.323592892481965"><ele>331.0</ele><time>2026-04-04T12:08:47.999Z</time></trkpt><trkpt lat="45.724219921212224" lon="11.323620525182614"><ele>331.0</ele><time>2026-04-04T12:08:48.999Z</time></trkpt><trkpt lat="45.72399581042215" lon="11.323145897631719"><ele>332.3333333333333</ele><time>2026-04-04T12:08:49.999Z</time></trkpt><trkpt lat="45.723916356410186" lon="11.32311977073721"><ele>333.66666666666663</ele><time>2026-04-04T12:08:50.999Z</time></trkpt><trkpt lat="45.723868223637005" lon="11.323057519617244"><ele>335.0</ele><time>2026-04-04T12:08:51.999Z</time></trkpt><trkpt lat="45.72384540900566" lon="11.322943911620571"><ele>336.3333333333333</ele><time>2026-04-04T12:08:52.999Z</time></trkpt><trkpt lat="45.723824872737566" lon="11.322848081147315"><ele>337.6666666666667</ele><time>2026-04-04T12:08:53.999Z</time></trkpt><trkpt lat="45.723741094053295" lon="11.322793604216168"><ele>339.0</ele><time>2026-04-04T12:08:55.999Z</time></trkpt><trkpt lat="45.7236693759422" lon="11.322828526726358"><ele>341.6</ele><time>2026-04-04T12:08:56.999Z</time></trkpt><trkpt lat="45.723589928693194" lon="11.322885785987769"><ele>344.2</ele><time>2026-04-04T12:08:57.999Z</time></trkpt><trkpt lat="45.723515137644156" lon="11.32292655033312"><ele>346.8</ele><time>2026-04-04T12:08:58.999Z</time></trkpt><trkpt lat="45.72343672227824" lon="11.322922903162478"><ele>349.40000000000003</ele><time>2026-04-04T12:09:00.999Z</time></trkpt><trkpt lat="45.723392617262185" lon="11.32274436879264"><ele>352.0</ele><time>2026-04-04T12:09:03.999Z</time></trkpt><trkpt lat="45.7234612629909" lon="11.322626591262322"><ele>352.0</ele><time>2026-04-04T12:09:04.999Z</time></trkpt><trkpt lat="45.72353223100525" lon="11.32257758709523"><ele>352.0</ele><time>2026-04-04T12:09:05.999Z</time></trkpt><trkpt lat="45.7236389137397" lon="11.322534001519127"><ele>352.0</ele><time>2026-04-04T12:09:06.999Z</time></trkpt><trkpt lat="45.72371798929707" lon="11.322482252528108"><ele>352.0</ele><time>2026-04-04T12:09:07.999Z</time></trkpt><trkpt lat="45.72378020519445" lon="11.322416864369508"><ele>352.0</ele><time>2026-04-04T12:09:08.999Z</time></trkpt><trkpt lat="45.723850550864555" lon="11.322338792626395"><ele>352.0</ele><time>2026-04-04T12:09:09.999Z</time></trkpt><trkpt lat="45.72389632743574" lon="11.322244323049555"><ele>356.8333333333333</ele><time>2026-04-04T12:09:10.999Z</time></trkpt><trkpt lat="45.72395066360115" lon="11.3221744709876"><ele>361.66666666666663</ele><time>2026-04-04T12:09:11.999Z</time></trkpt><trkpt lat="45.72401583166139" lon="11.322164381247633"><ele>366.5</ele><time>2026-04-04T12:09:12.999Z</time></trkpt><trkpt lat="45.724074188157516" lon="11.322122747301528"><ele>371.3333333333333</ele><time>2026-04-04T12:09:13.999Z</time></trkpt><trkpt lat="45.72412663049805" lon="11.322035268165866"><ele>376.1666666666667</ele><time>2026-04-04T12:09:15.999Z</time></trkpt><trkpt lat="45.72415017441087" lon="11.321928918510146"><ele>381.0</ele><time>2026-04-04T12:09:16.999Z</time></trkpt><trkpt lat="45.724128816402356" lon="11.321772809879727"><ele>381.0</ele><time>2026-04-04T12:09:18.999Z</time></trkpt><trkpt lat="45.72411406909285" lon="11.321673036860803"><ele>381.0</ele><time>2026-04-04T12:09:19.999Z</time></trkpt><trkpt lat="45.724085609868304" lon="11.321555952729938"><ele>381.0</ele><time>2026-04-04T12:09:20.999Z</time></trkpt><trkpt lat="45.724065829865644" lon="11.32144529027685"><ele>381.0</ele><time>2026-04-04T12:09:21.999Z</time></trkpt><trkpt lat="45.72405795975647" lon="11.321348478230314"><ele>381.0</ele><time>2026-04-04T12:09:22.999Z</time></trkpt><trkpt lat="45.72404184029315" lon="11.321230824950039"><ele>381.0</ele><time>2026-04-04T12:09:24.999Z</time></trkpt><trkpt lat="45.7240222916118" lon="11.321137768244123"><ele>382.8</ele><time>2026-04-04T12:09:26.999Z</time></trkpt><trkpt lat="45.72400089520093" lon="11.321025992168728"><ele>384.6</ele><time>2026-04-04T12:09:28.999Z</time></trkpt><trkpt lat="45.724069013272654" lon="11.320906283878983"><ele>386.4</ele><time>2026-04-04T12:09:31.999Z</time></trkpt><trkpt lat="45.72412370097783" lon="11.320781936390032"><ele>388.2</ele><time>2026-04-04T12:09:33.999Z</time></trkpt><trkpt lat="45.724229453797065" lon="11.320766332516584"><ele>390.0</ele><time>2026-04-04T12:09:35.999Z</time></trkpt><trkpt lat="45.72430011011767" lon="11.320793107146736"><ele>390.0</ele><time>2026-04-04T12:09:37.999Z</time></trkpt><trkpt lat="45.724359396557084" lon="11.320880471016416"><ele>390.0</ele><time>2026-04-04T12:09:39.999Z</time></trkpt><trkpt lat="45.72444323920156" lon="11.320945105464544"><ele>390.0</ele><time>2026-04-04T12:09:42.999Z</time></trkpt><trkpt lat="45.72446935224295" lon="11.321049043401386"><ele>390.0</ele><time>2026-04-04T12:09:44.999Z</time></trkpt><trkpt lat="45.72451506687071" lon="11.321149232819478"><ele>390.0</ele><time>2026-04-04T12:09:48.999Z</time></trkpt><trkpt lat="45.72460083341162" lon="11.321158113620799"><ele>390.0</ele><time>2026-04-04T12:09:51.999Z</time></trkpt><trkpt lat="45.72464076648451" lon="11.321087173172499"><ele>394.8333333333333</ele><time>2026-04-04T12:09:52.998Z</time></trkpt><trkpt lat="45.724723624806245" lon="11.32100701850856"><ele>399.66666666666663</ele><time>2026-04-04T12:09:54.998Z</time></trkpt><trkpt lat="45.72475910783729" lon="11.320881048037537"><ele>404.5</ele><time>2026-04-04T12:09:58Z</time></trkpt><trkpt lat="45.724775311500835" lon="11.320786299788272"><ele>409.3333333333333</ele><time>2026-04-04T12:09:59Z</time></trkpt><trkpt lat="45.72480259473824" lon="11.320683165741638"><ele>414.16666666666663</ele><time>2026-04-04T12:10:00Z</time></trkpt><trkpt lat="45.72483704931918" lon="11.320581767907354"><ele>419.0</ele><time>2026-04-04T12:10:01Z</time></trkpt><trkpt lat="45.724947878044475" lon="11.320593935453816"><ele>419.0</ele><time>2026-04-04T12:10:04Z</time></trkpt><trkpt lat="45.72502094415759" lon="11.320585328535453"><ele>419.0</ele><time>2026-04-04T12:10:07Z</time></trkpt><trkpt lat="45.725125927919166" lon="11.320353068087963"><ele>419.0</ele><time>2026-04-04T12:10:10Z</time></trkpt><trkpt lat="45.72516202540517" lon="11.320249262380921"><ele>419.0</ele><time>2026-04-04T12:10:11Z</time></trkpt><trkpt lat="45.72527751915122" lon="11.320170474219351"><ele>423.0</ele><time>2026-04-04T12:10:13Z</time></trkpt><trkpt lat="45.72533984870253" lon="11.32013799410602"><ele>427.0</ele><time>2026-04-04T12:10:16Z</time></trkpt><trkpt lat="45.725466490684475" lon="11.320138890377255"><ele>431.0</ele><time>2026-04-04T12:10:31Z</time></trkpt><trkpt lat="45.72555025435949" lon="11.320103089251036"><ele>435.0</ele><time>2026-04-04T12:10:32Z</time></trkpt><trkpt lat="45.72561671990142" lon="11.320076861322187"><ele>439.0</ele><time>2026-04-04T12:10:33Z</time></trkpt><trkpt lat="45.72576505492897" lon="11.320057433541503"><ele>439.0</ele><time>2026-04-04T12:10:35Z</time></trkpt><trkpt lat="45.725849915240765" lon="11.320065381703415"><ele>439.0</ele><time>2026-04-04T12:10:36Z</time></trkpt><trkpt lat="45.72594191697593" lon="11.32008654716603"><ele>439.0</ele><time>2026-04-04T12:10:37Z</time></trkpt><trkpt lat="45.726054559874214" lon="11.320092936516007"><ele>439.0</ele><time>2026-04-04T12:10:38Z</time></trkpt><trkpt lat="45.726134015119015" lon="11.320113424752318"><ele>439.0</ele><time>2026-04-04T12:10:39Z</time></trkpt><trkpt lat="45.726271914447864" lon="11.320024593845542"><ele>440.6</ele><time>2026-04-04T12:10:41Z</time></trkpt><trkpt lat="45.72634426585837" lon="11.319980501493156"><ele>442.2</ele><time>2026-04-04T12:10:42Z</time></trkpt><trkpt lat="45.72645702617446" lon="11.3198561905443"><ele>443.80000000000007</ele><time>2026-04-04T12:10:44Z</time></trkpt><trkpt lat="45.72654518663346" lon="11.3197679651316"><ele>445.40000000000003</ele><time>2026-04-04T12:10:45Z</time></trkpt><trkpt lat="45.72662254224362" lon="11.319691446142334"><ele>447.0</ele><time>2026-04-04T12:10:46Z</time></trkpt><trkpt lat="45.726693190436976" lon="11.319599146225794"><ele>447.0</ele><time>2026-04-04T12:10:47Z</time></trkpt><trkpt lat="45.7267502418204" lon="11.319498362010751"><ele>447.0</ele><time>2026-04-04T12:10:47.999Z</time></trkpt><trkpt lat="45.726822867843865" lon="11.319387937300615"><ele>447.0</ele><time>2026-04-04T12:10:48.999Z</time></trkpt><trkpt lat="45.726890721530815" lon="11.319332015753636"><ele>447.0</ele><time>2026-04-04T12:10:49.999Z</time></trkpt><trkpt lat="45.72696022551607" lon="11.319295939308095"><ele>447.0</ele><time>2026-04-04T12:10:50.999Z</time></trkpt><trkpt lat="45.727053683817616" lon="11.319248920063348"><ele>447.0</ele><time>2026-04-04T12:10:51.999Z</time></trkpt><trkpt lat="45.727153396694376" lon="11.319199706251514"><ele>445.0</ele><time>2026-04-04T12:10:52.999Z</time></trkpt><trkpt lat="45.72728059815208" lon="11.319144049219476"><ele>443.00000000000006</ele><time>2026-04-04T12:10:54.999Z</time></trkpt><trkpt lat="45.727372846759806" lon="11.319123977269065"><ele>441.00000000000006</ele><time>2026-04-04T12:10:55.999Z</time></trkpt><trkpt lat="45.727441569590646" lon="11.3191108324136"><ele>439.0</ele><time>2026-04-04T12:10:56.999Z</time></trkpt><trkpt lat="45.727563561527035" lon="11.31909387580234"><ele>437.0</ele><time>2026-04-04T12:10:58.999Z</time></trkpt><trkpt lat="45.72765016673745" lon="11.319093011489334"><ele>436.99999999999994</ele><time>2026-04-04T12:11:00.999Z</time></trkpt><trkpt lat="45.727564191953746" lon="11.318980027394327"><ele>437.0</ele><time>2026-04-04T12:11:08.999Z</time></trkpt><trkpt lat="45.72750660601187" lon="11.318941503468482"><ele>437.0</ele><time>2026-04-04T12:11:10.999Z</time></trkpt><trkpt lat="45.72745366812382" lon="11.318841845584643"><ele>437.0</ele><time>2026-04-04T12:11:14.999Z</time></trkpt><trkpt lat="45.727432566601" lon="11.318735044566845"><ele>436.99999999999994</ele><time>2026-04-04T12:11:16.999Z</time></trkpt><trkpt lat="45.727438143664365" lon="11.318627918625575"><ele>437.0</ele><time>2026-04-04T12:11:18.999Z</time></trkpt><trkpt lat="45.72751240188402" lon="11.318533277908392"><ele>440.20000000000005</ele><time>2026-04-04T12:11:21.999Z</time></trkpt><trkpt lat="45.72749305762271" lon="11.318433590869844"><ele>443.40000000000003</ele><time>2026-04-04T12:11:24.999Z</time></trkpt><trkpt lat="45.72741809070394" lon="11.318361042341849"><ele>446.59999999999997</ele><time>2026-04-04T12:11:27.999Z</time></trkpt><trkpt lat="45.727350181642" lon="11.318297939933862"><ele>449.79999999999995</ele><time>2026-04-04T12:11:30.999Z</time></trkpt><trkpt lat="45.727213621295085" lon="11.318303488489306"><ele>453.0</ele><time>2026-04-04T12:11:33.999Z</time></trkpt><trkpt lat="45.72707696065856" lon="11.318267094328823"><ele>453.0</ele><time>2026-04-04T12:11:34.999Z</time></trkpt><trkpt lat="45.72695156681791" lon="11.318247253820486"><ele>453.0</ele><time>2026-04-04T12:11:36.999Z</time></trkpt><trkpt lat="45.72697257307663" lon="11.318155999048974"><ele>453.0</ele><time>2026-04-04T12:11:39.999Z</time></trkpt><trkpt lat="45.72700291587066" lon="11.318068397535923"><ele>453.0</ele><time>2026-04-04T12:11:42.999Z</time></trkpt><trkpt lat="45.72700693566842" lon="11.317946771841225"><ele>453.0</ele><time>2026-04-04T12:11:45.999Z</time></trkpt><trkpt lat="45.72703205965671" lon="11.317834156043292"><ele>453.0</ele><time>2026-04-04T12:11:50.999Z</time></trkpt><trkpt lat="45.72704327125638" lon="11.3177401333009"><ele>454.0</ele><time>2026-04-04T12:11:51.999Z</time></trkpt><trkpt lat="45.7270198200924" lon="11.317656386821398"><ele>455.0</ele><time>2026-04-04T12:11:54.999Z</time></trkpt><trkpt lat="45.72693604630821" lon="11.317618391019247"><ele>456.0</ele><time>2026-04-04T12:11:59.999Z</time></trkpt><trkpt lat="45.72687382847019" lon="11.317598317433735"><ele>457.0</ele><time>2026-04-04T12:12:02Z</time></trkpt><trkpt lat="45.7268990138408" lon="11.317490606672429"><ele>458.0</ele><time>2026-04-04T12:12:05Z</time></trkpt><trkpt lat="45.7269751796997" lon="11.31746499408765"><ele>459.0</ele><time>2026-04-04T12:12:08Z</time></trkpt><trkpt lat="45.727061583834995" lon="11.317475262901738"><ele>459.0</ele><time>2026-04-04T12:12:10Z</time></trkpt><trkpt lat="45.7271139517975" lon="11.317391012532683"><ele>459.0</ele><time>2026-04-04T12:12:19Z</time></trkpt><trkpt lat="45.72717877743089" lon="11.317370640049676"><ele>459.0</ele><time>2026-04-04T12:12:21Z</time></trkpt><trkpt lat="45.72727048023102" lon="11.317352948058303"><ele>459.0</ele><time>2026-04-04T12:12:23Z</time></trkpt><trkpt lat="45.727370308559564" lon="11.317214077501228"><ele>459.0</ele><time>2026-04-04T12:12:25Z</time></trkpt><trkpt lat="45.727424506629134" lon="11.317139894043004"><ele>460.5</ele><time>2026-04-04T12:12:26Z</time></trkpt><trkpt lat="45.727479374903005" lon="11.317087407606275"><ele>462.0</ele><time>2026-04-04T12:12:27Z</time></trkpt><trkpt lat="45.72754943217574" lon="11.317048529746566"><ele>463.5</ele><time>2026-04-04T12:12:28Z</time></trkpt><trkpt lat="45.72760117828349" lon="11.316946679771906"><ele>465.0</ele><time>2026-04-04T12:12:30Z</time></trkpt><trkpt lat="45.7276230747551" lon="11.31680484247718"><ele>466.5</ele><time>2026-04-04T12:12:31Z</time></trkpt><trkpt lat="45.72764608191144" lon="11.316693471262285"><ele>468.0</ele><time>2026-04-04T12:12:32Z</time></trkpt><trkpt lat="45.727638037137005" lon="11.316587607385062"><ele>468.0</ele><time>2026-04-04T12:12:35Z</time></trkpt><trkpt lat="45.7276683861193" lon="11.316468571641915"><ele>468.0</ele><time>2026-04-04T12:12:37Z</time></trkpt><trkpt lat="45.727750209201886" lon="11.31642786847571"><ele>468.0</ele><time>2026-04-04T12:12:40Z</time></trkpt><trkpt lat="45.72773718953175" lon="11.31631338939316"><ele>468.0</ele><time>2026-04-04T12:12:45Z</time></trkpt><trkpt lat="45.72775748721799" lon="11.316189445692068"><ele>468.0</ele><time>2026-04-04T12:12:48Z</time></trkpt><trkpt lat="45.727684791477444" lon="11.316084008242894"><ele>468.0</ele><time>2026-04-04T12:12:51Z</time></trkpt><trkpt lat="45.72763627505019" lon="11.316009810389405"><ele>470.0</ele><time>2026-04-04T12:12:55.999Z</time></trkpt><trkpt lat="45.72762879502211" lon="11.315918350744901"><ele>472.0</ele><time>2026-04-04T12:13:03.999Z</time></trkpt><trkpt lat="45.7276462394416" lon="11.315820506791852"><ele>474.0</ele><time>2026-04-04T12:13:08.999Z</time></trkpt><trkpt lat="45.72761727021254" lon="11.31569086382211"><ele>476.0</ele><time>2026-04-04T12:13:11.999Z</time></trkpt><trkpt lat="45.72759618973937" lon="11.315602415807383"><ele>478.0</ele><time>2026-04-04T12:13:12.999Z</time></trkpt><trkpt lat="45.72755965817118" lon="11.315468341716743"><ele>480.0</ele><time>2026-04-04T12:13:14.999Z</time></trkpt><trkpt lat="45.72755874243512" lon="11.315347174383284"><ele>483.1666666666667</ele><time>2026-04-04T12:13:17.999Z</time></trkpt><trkpt lat="45.7275509264953" lon="11.315232310085856"><ele>486.33333333333337</ele><time>2026-04-04T12:13:18.999Z</time></trkpt><trkpt lat="45.72753596264604" lon="11.315109588512353"><ele>489.5</ele><time>2026-04-04T12:13:19.999Z</time></trkpt><trkpt lat="45.727482092767545" lon="11.314966859961842"><ele>492.6666666666667</ele><time>2026-04-04T12:13:21.999Z</time></trkpt><trkpt lat="45.72754011712801" lon="11.314923069730149"><ele>495.83333333333337</ele><time>2026-04-04T12:13:24.999Z</time></trkpt><trkpt lat="45.727612290417774" lon="11.314866921662333"><ele>499.0</ele><time>2026-04-04T12:13:26.999Z</time></trkpt><trkpt lat="45.72769277387269" lon="11.314770105849533"><ele>500.5</ele><time>2026-04-04T12:13:27.999Z</time></trkpt><trkpt lat="45.727731005891954" lon="11.314694868732538"><ele>502.0</ele><time>2026-04-04T12:13:28.999Z</time></trkpt><trkpt lat="45.727818923529284" lon="11.314573711553361"><ele>503.5</ele><time>2026-04-04T12:13:30.999Z</time></trkpt><trkpt lat="45.72796098976945" lon="11.3144761479244"><ele>505.0</ele><time>2026-04-04T12:13:32.999Z</time></trkpt><trkpt lat="45.72808779210034" lon="11.314391287828888"><ele>505.0</ele><time>2026-04-04T12:13:33.999Z</time></trkpt><trkpt lat="45.728189310866206" lon="11.314350298841067"><ele>505.0</ele><time>2026-04-04T12:13:34.999Z</time></trkpt><trkpt lat="45.72829524800538" lon="11.314339379943519"><ele>505.0</ele><time>2026-04-04T12:13:35.999Z</time></trkpt><trkpt lat="45.72839579197043" lon="11.314349425094202"><ele>505.0</ele><time>2026-04-04T12:13:36.999Z</time></trkpt><trkpt lat="45.72848079361316" lon="11.314333202025695"><ele>505.0</ele><time>2026-04-04T12:13:37.999Z</time></trkpt><trkpt lat="45.728561656935625" lon="11.314298532525362"><ele>504.6666666666667</ele><time>2026-04-04T12:13:38.999Z</time></trkpt><trkpt lat="45.72862486797423" lon="11.314240927818588"><ele>504.33333333333337</ele><time>2026-04-04T12:13:39.999Z</time></trkpt><trkpt lat="45.7286730138477" lon="11.314165233763044"><ele>504.0</ele><time>2026-04-04T12:13:40.999Z</time></trkpt><trkpt lat="45.728700765471345" lon="11.314077540328041"><ele>503.66666666666663</ele><time>2026-04-04T12:13:41.999Z</time></trkpt><trkpt lat="45.728693167484266" lon="11.313977601085988"><ele>503.3333333333333</ele><time>2026-04-04T12:13:43.999Z</time></trkpt><trkpt lat="45.72857493431438" lon="11.313933824164689"><ele>503.0</ele><time>2026-04-04T12:13:45.999Z</time></trkpt><trkpt lat="45.72851306491793" lon="11.313857709342944"><ele>506.3333333333333</ele><time>2026-04-04T12:13:46.999Z</time></trkpt><trkpt lat="45.72848134168223" lon="11.313603715032908"><ele>509.66666666666663</ele><time>2026-04-04T12:13:48.999Z</time></trkpt><trkpt lat="45.72843204023394" lon="11.313442493876828"><ele>513.0</ele><time>2026-04-04T12:13:49.999Z</time></trkpt><trkpt lat="45.728353015311306" lon="11.313235970208783"><ele>514.0</ele><time>2026-04-04T12:13:50.999Z</time></trkpt><trkpt lat="45.72827209479142" lon="11.313034353718137"><ele>515.0</ele><time>2026-04-04T12:13:51.999Z</time></trkpt><trkpt lat="45.72830646438943" lon="11.31291536575252"><ele>516.0</ele><time>2026-04-04T12:13:54.999Z</time></trkpt><trkpt lat="45.72836700561779" lon="11.312814888412284"><ele>517.0</ele><time>2026-04-04T12:13:56.999Z</time></trkpt><trkpt lat="45.72848288430377" lon="11.312859440157617"><ele>521.0</ele><time>2026-04-04T12:13:59.999Z</time></trkpt><trkpt lat="45.72856345531048" lon="11.312815623754275"><ele>525.0</ele><time>2026-04-04T12:14:01.999Z</time></trkpt><trkpt lat="45.728670081870405" lon="11.312782164373678"><ele>529.0</ele><time>2026-04-04T12:14:03.999Z</time></trkpt><trkpt lat="45.72874320436437" lon="11.31279380784408"><ele>533.0</ele><time>2026-04-04T12:14:04.999Z</time></trkpt><trkpt lat="45.728817063099385" lon="11.312713317076325"><ele>537.0</ele><time>2026-04-04T12:14:06.999Z</time></trkpt><trkpt lat="45.72880918338649" lon="11.312595072212918"><ele>541.0</ele><time>2026-04-04T12:14:09Z</time></trkpt><trkpt lat="45.72882370960815" lon="11.312478022510703"><ele>541.0</ele><time>2026-04-04T12:14:11Z</time></trkpt><trkpt lat="45.72886134195358" lon="11.312368460610848"><ele>541.0</ele><time>2026-04-04T12:14:13Z</time></trkpt><trkpt lat="45.72902571584096" lon="11.312336503620793"><ele>541.0</ele><time>2026-04-04T12:14:15Z</time></trkpt><trkpt lat="45.7291870491752" lon="11.31237740048801"><ele>541.0</ele><time>2026-04-04T12:14:16Z</time></trkpt><trkpt lat="45.72929647513818" lon="11.31242584298196"><ele>544.5</ele><time>2026-04-04T12:14:17Z</time></trkpt><trkpt lat="45.72940510056347" lon="11.312448673365537"><ele>548.0</ele><time>2026-04-04T12:14:18Z</time></trkpt><trkpt lat="45.72952207161573" lon="11.312451471838887"><ele>551.5</ele><time>2026-04-04T12:14:19Z</time></trkpt><trkpt lat="45.72964850015948" lon="11.312436576763599"><ele>555.0</ele><time>2026-04-04T12:14:20Z</time></trkpt><trkpt lat="45.72974191078622" lon="11.312467858830418"><ele>555.0</ele><time>2026-04-04T12:14:21Z</time></trkpt><trkpt lat="45.72983363442918" lon="11.312529842189699"><ele>555.0</ele><time>2026-04-04T12:14:22Z</time></trkpt><trkpt lat="45.72991880946496" lon="11.312606229340526"><ele>555.0</ele><time>2026-04-04T12:14:23Z</time></trkpt><trkpt lat="45.73001896686421" lon="11.31264229661043"><ele>555.0</ele><time>2026-04-04T12:14:24Z</time></trkpt><trkpt lat="45.73011180186141" lon="11.312677525066343"><ele>555.0</ele><time>2026-04-04T12:14:25Z</time></trkpt><trkpt lat="45.73018905521675" lon="11.312746053088022"><ele>555.8333333333334</ele><time>2026-04-04T12:14:26Z</time></trkpt><trkpt lat="45.73026015477715" lon="11.312807327494392"><ele>556.6666666666666</ele><time>2026-04-04T12:14:27Z</time></trkpt><trkpt lat="45.73033148871269" lon="11.312831182945548"><ele>557.5</ele><time>2026-04-04T12:14:28Z</time></trkpt><trkpt lat="45.73041785869855" lon="11.312806167984782"><ele>558.3333333333333</ele><time>2026-04-04T12:14:29Z</time></trkpt><trkpt lat="45.73050597943" lon="11.312776179092902"><ele>559.1666666666666</ele><time>2026-04-04T12:14:30Z</time></trkpt><trkpt lat="45.73060415148505" lon="11.312767074141272"><ele>560.0</ele><time>2026-04-04T12:14:31Z</time></trkpt><trkpt lat="45.73069523040965" lon="11.312783251330707"><ele>560.0</ele><time>2026-04-04T12:14:32Z</time></trkpt><trkpt lat="45.730788652906455" lon="11.312771589828293"><ele>560.0</ele><time>2026-04-04T12:14:33Z</time></trkpt><trkpt lat="45.73087157319966" lon="11.312723553627935"><ele>560.0</ele><time>2026-04-04T12:14:34Z</time></trkpt><trkpt lat="45.73094203321362" lon="11.312666495681025"><ele>560.0</ele><time>2026-04-04T12:14:35Z</time></trkpt><trkpt lat="45.73100371836235" lon="11.3125663881167"><ele>560.0</ele><time>2026-04-04T12:14:36Z</time></trkpt><trkpt lat="45.73108955442989" lon="11.312459898509225"><ele>559.2</ele><time>2026-04-04T12:14:37Z</time></trkpt><trkpt lat="45.73118029592251" lon="11.31234733110194"><ele>558.4</ele><time>2026-04-04T12:14:38Z</time></trkpt><trkpt lat="45.73128843227141" lon="11.312273650594568"><ele>557.6</ele><time>2026-04-04T12:14:39Z</time></trkpt><trkpt lat="45.73136068510761" lon="11.312242923771366"><ele>556.8</ele><time>2026-04-04T12:14:40Z</time></trkpt><trkpt lat="45.73145101845842" lon="11.312201194548717"><ele>556.0</ele><time>2026-04-04T12:14:42Z</time></trkpt><trkpt lat="45.73152584952569" lon="11.312191906975862"><ele>556.0</ele><time>2026-04-04T12:14:44Z</time></trkpt><trkpt lat="45.73157196095242" lon="11.312120925614703"><ele>556.0</ele><time>2026-04-04T12:14:48Z</time></trkpt><trkpt lat="45.731511234634276" lon="11.312053073837282"><ele>556.0</ele><time>2026-04-04T12:14:54Z</time></trkpt><trkpt lat="45.731435200456446" lon="11.312098970475258"><ele>556.0</ele><time>2026-04-04T12:14:55Z</time></trkpt><trkpt lat="45.73135109666988" lon="11.312129155710968"><ele>556.0</ele><time>2026-04-04T12:14:56Z</time></trkpt><trkpt lat="45.731207963284234" lon="11.312170042988901"><ele>556.0</ele><time>2026-04-04T12:14:57Z</time></trkpt><trkpt lat="45.73107860445631" lon="11.312221896551383"><ele>556.0</ele><time>2026-04-04T12:14:58Z</time></trkpt><trkpt lat="45.73099041196031" lon="11.312245976499073"><ele>556.0</ele><time>2026-04-04T12:14:59Z</time></trkpt><trkpt lat="45.730894513223355" lon="11.312279691063214"><ele>556.0</ele><time>2026-04-04T12:15:00Z</time></trkpt><trkpt lat="45.7308045480078" lon="11.312344911519528"><ele>556.0</ele><time>2026-04-04T12:15:01Z</time></trkpt><trkpt lat="45.73073922584008" lon="11.312363300091112"><ele>556.8</ele><time>2026-04-04T12:15:02Z</time></trkpt><trkpt lat="45.73072028068305" lon="11.312265931520287"><ele>557.6</ele><time>2026-04-04T12:15:07.999Z</time></trkpt><trkpt lat="45.73061941173586" lon="11.312228264506384"><ele>558.4</ele><time>2026-04-04T12:15:09.999Z</time></trkpt><trkpt lat="45.73052937046621" lon="11.312206072080144"><ele>559.2</ele><time>2026-04-04T12:15:10.999Z</time></trkpt><trkpt lat="45.730461971699306" lon="11.312194253161243"><ele>560.0</ele><time>2026-04-04T12:15:11.999Z</time></trkpt><trkpt lat="45.73036075582688" lon="11.312109702662713"><ele>561.8333333333333</ele><time>2026-04-04T12:15:13.999Z</time></trkpt><trkpt lat="45.730288816026594" lon="11.312027421510825"><ele>563.6666666666666</ele><time>2026-04-04T12:15:15.999Z</time></trkpt><trkpt lat="45.73021267965723" lon="11.311952765325795"><ele>565.5</ele><time>2026-04-04T12:15:17.999Z</time></trkpt><trkpt lat="45.73015869782204" lon="11.311903915825912"><ele>567.3333333333334</ele><time>2026-04-04T12:15:18.999Z</time></trkpt><trkpt lat="45.73008917442257" lon="11.311825062462617"><ele>569.1666666666667</ele><time>2026-04-04T12:15:21.999Z</time></trkpt><trkpt lat="45.73002869566603" lon="11.311761187726976"><ele>571.0</ele><time>2026-04-04T12:15:24.999Z</time></trkpt><trkpt lat="45.73008426616611" lon="11.311702561436446"><ele>571.0</ele><time>2026-04-04T12:15:27.999Z</time></trkpt><trkpt lat="45.73014879116397" lon="11.311694020036638"><ele>571.0</ele><time>2026-04-04T12:15:28.999Z</time></trkpt><trkpt lat="45.730220640791586" lon="11.3117133412516"><ele>571.0</ele><time>2026-04-04T12:15:30.999Z</time></trkpt><trkpt lat="45.73026895179026" lon="11.311651886583823"><ele>571.0</ele><time>2026-04-04T12:15:32.999Z</time></trkpt><trkpt lat="45.730321311246485" lon="11.311586166171974"><ele>571.0</ele><time>2026-04-04T12:15:33.999Z</time></trkpt><trkpt lat="45.730377054907876" lon="11.311499598443417"><ele>571.0</ele><time>2026-04-04T12:15:34.999Z</time></trkpt><trkpt lat="45.73042831394161" lon="11.311399347667034"><ele>571.0</ele><time>2026-04-04T12:15:35.999Z</time></trkpt><trkpt lat="45.73048547134182" lon="11.31129886150957"><ele>573.0</ele><time>2026-04-04T12:15:36.999Z</time></trkpt><trkpt lat="45.73057188293552" lon="11.31121573905729"><ele>575.0</ele><time>2026-04-04T12:15:37.999Z</time></trkpt><trkpt lat="45.73063255158944" lon="11.311084374982299"><ele>577.0</ele><time>2026-04-04T12:15:38.999Z</time></trkpt><trkpt lat="45.730683623809156" lon="11.3110106969248"><ele>579.0</ele><time>2026-04-04T12:15:39.999Z</time></trkpt><trkpt lat="45.730629817025886" lon="11.310854211354338"><ele>581.0</ele><time>2026-04-04T12:15:41.999Z</time></trkpt><trkpt lat="45.73055738257344" lon="11.31073772237522"><ele>585.0</ele><time>2026-04-04T12:15:42.999Z</time></trkpt><trkpt lat="45.73046016878743" lon="11.310526485599937"><ele>589.0</ele><time>2026-04-04T12:15:43.999Z</time></trkpt><trkpt lat="45.73036529161101" lon="11.310347842827746"><ele>593.0</ele><time>2026-04-04T12:15:44.999Z</time></trkpt><trkpt lat="45.730320627983204" lon="11.310241773568285"><ele>597.0</ele><time>2026-04-04T12:15:45.999Z</time></trkpt><trkpt lat="45.730301138732784" lon="11.310139885873985"><ele>597.0</ele><time>2026-04-04T12:15:46.999Z</time></trkpt><trkpt lat="45.73027028948816" lon="11.309886091686051"><ele>597.0</ele><time>2026-04-04T12:15:48.999Z</time></trkpt><trkpt lat="45.7302453545288" lon="11.309701995088016"><ele>597.0</ele><time>2026-04-04T12:15:49.999Z</time></trkpt><trkpt lat="45.730324300287165" lon="11.309601495142557"><ele>597.0</ele><time>2026-04-04T12:15:50.999Z</time></trkpt><trkpt lat="45.73037709088851" lon="11.30949009668319"><ele>597.0</ele><time>2026-04-04T12:15:52.999Z</time></trkpt><trkpt lat="45.73029359378454" lon="11.309650917811373"><ele>597.0</ele><time>2026-04-04T12:15:57.999Z</time></trkpt><trkpt lat="45.730225158798405" lon="11.309758134895747"><ele>597.0</ele><time>2026-04-04T12:15:58.999Z</time></trkpt><trkpt lat="45.730175562113764" lon="11.309822487449795"><ele>597.0</ele><time>2026-04-04T12:15:59.999Z</time></trkpt><trkpt lat="45.73009910117071" lon="11.309831627839497"><ele>597.0</ele><time>2026-04-04T12:16:01.999Z</time></trkpt><trkpt lat="45.73006481971055" lon="11.309743113439763"><ele>603.8333333333334</ele><time>2026-04-04T12:16:05.999Z</time></trkpt><trkpt lat="45.73010683596993" lon="11.309637117950496"><ele>610.6666666666666</ele><time>2026-04-04T12:16:08.999Z</time></trkpt><trkpt lat="45.730124627423976" lon="11.309500124504607"><ele>617.5</ele><time>2026-04-04T12:16:10.999Z</time></trkpt><trkpt lat="45.73013299501741" lon="11.309406672889644"><ele>624.3333333333333</ele><time>2026-04-04T12:16:11.999Z</time></trkpt><trkpt lat="45.73015153447285" lon="11.309277215968777"><ele>631.1666666666666</ele><time>2026-04-04T12:16:12.999Z</time></trkpt><trkpt lat="45.730173001384145" lon="11.309162968884394"><ele>638.0</ele><time>2026-04-04T12:16:14Z</time></trkpt><trkpt lat="45.730200099511336" lon="11.309046956074575"><ele>638.5</ele><time>2026-04-04T12:16:15Z</time></trkpt><trkpt lat="45.730235062683455" lon="11.30892978185736"><ele>639.0</ele><time>2026-04-04T12:16:16Z</time></trkpt><trkpt lat="45.73024051804941" lon="11.308811101895314"><ele>639.5</ele><time>2026-04-04T12:16:17Z</time></trkpt><trkpt lat="45.73023776417537" lon="11.308701952895294"><ele>640.0</ele><time>2026-04-04T12:16:18Z</time></trkpt><trkpt lat="45.73025177352733" lon="11.308581062859142"><ele>640.5</ele><time>2026-04-04T12:16:19Z</time></trkpt><trkpt lat="45.730276437674" lon="11.308442804491138"><ele>641.0</ele><time>2026-04-04T12:16:20Z</time></trkpt><trkpt lat="45.73029784285741" lon="11.308320836769767"><ele>641.0</ele><time>2026-04-04T12:16:21Z</time></trkpt><trkpt lat="45.73028420606258" lon="11.308165908533041"><ele>641.0</ele><time>2026-04-04T12:16:22Z</time></trkpt><trkpt lat="45.73032850912932" lon="11.308015122178457"><ele>641.0</ele><time>2026-04-04T12:16:23Z</time></trkpt><trkpt lat="45.73042981811937" lon="11.307961179085964"><ele>641.0</ele><time>2026-04-04T12:16:25Z</time></trkpt><trkpt lat="45.730539070113906" lon="11.3079948036121"><ele>641.0</ele><time>2026-04-04T12:16:27Z</time></trkpt><trkpt lat="45.73060050216798" lon="11.3080450543927"><ele>641.0</ele><time>2026-04-04T12:16:28Z</time></trkpt><trkpt lat="45.73067568093322" lon="11.308068050252526"><ele>641.0</ele><time>2026-04-04T12:16:29Z</time></trkpt><trkpt lat="45.730800780126415" lon="11.308119850496196"><ele>641.0</ele><time>2026-04-04T12:16:31Z</time></trkpt><trkpt lat="45.730895547846416" lon="11.30812713176624"><ele>641.0</ele><time>2026-04-04T12:16:32Z</time></trkpt><trkpt lat="45.730996510739445" lon="11.308147394891405"><ele>641.0</ele><time>2026-04-04T12:16:33Z</time></trkpt><trkpt lat="45.7310679780384" lon="11.308137657182154"><ele>644.1666666666666</ele><time>2026-04-04T12:16:34Z</time></trkpt><trkpt lat="45.73116499958675" lon="11.308021200274759"><ele>647.3333333333333</ele><time>2026-04-04T12:16:36Z</time></trkpt><trkpt lat="45.73121314828728" lon="11.307961559083926"><ele>650.5</ele><time>2026-04-04T12:16:37Z</time></trkpt><trkpt lat="45.731267205568436" lon="11.307898523519153"><ele>653.6666666666666</ele><time>2026-04-04T12:16:38Z</time></trkpt><trkpt lat="45.73132597748976" lon="11.307796361342135"><ele>656.8333333333334</ele><time>2026-04-04T12:16:40Z</time></trkpt><trkpt lat="45.73129758199297" lon="11.307707225362698"><ele>660.0</ele><time>2026-04-04T12:16:42Z</time></trkpt><trkpt lat="45.73116262534999" lon="11.307753893290345"><ele>660.0</ele><time>2026-04-04T12:16:44Z</time></trkpt><trkpt lat="45.73107688136505" lon="11.307756712231601"><ele>660.0</ele><time>2026-04-04T12:16:45Z</time></trkpt><trkpt lat="45.73097724307525" lon="11.307703039875811"><ele>660.0</ele><time>2026-04-04T12:16:46Z</time></trkpt><trkpt lat="45.7308493148481" lon="11.30762267770772"><ele>660.0</ele><time>2026-04-04T12:16:47Z</time></trkpt><trkpt lat="45.730725820210566" lon="11.30755729617582"><ele>660.1666666666666</ele><time>2026-04-04T12:16:48Z</time></trkpt><trkpt lat="45.73063184241462" lon="11.307525814677046"><ele>660.3333333333334</ele><time>2026-04-04T12:16:49Z</time></trkpt><trkpt lat="45.730563803067454" lon="11.307497117573106"><ele>660.5</ele><time>2026-04-04T12:16:50Z</time></trkpt><trkpt lat="45.730548059273815" lon="11.30738854283151"><ele>660.6666666666667</ele><time>2026-04-04T12:16:53Z</time></trkpt><trkpt lat="45.730503439157744" lon="11.307243181696938"><ele>660.8333333333334</ele><time>2026-04-04T12:16:55Z</time></trkpt><trkpt lat="45.730485907985084" lon="11.30712263374451"><ele>661.0</ele><time>2026-04-04T12:16:57Z</time></trkpt><trkpt lat="45.73055796796049" lon="11.30712685018954"><ele>665.0</ele><time>2026-04-04T12:17:02Z</time></trkpt><trkpt lat="45.73064974949643" lon="11.307156187855094"><ele>669.0</ele><time>2026-04-04T12:17:04Z</time></trkpt><trkpt lat="45.73072834419354" lon="11.30719843552134"><ele>673.0</ele><time>2026-04-04T12:17:06Z</time></trkpt><trkpt lat="45.730861329000476" lon="11.307194823423398"><ele>677.0</ele><time>2026-04-04T12:17:08Z</time></trkpt><trkpt lat="45.73092191145586" lon="11.307082150983803"><ele>681.0</ele><time>2026-04-04T12:17:10Z</time></trkpt><trkpt lat="45.730958583939206" lon="11.306870937131263"><ele>681.0</ele><time>2026-04-04T12:17:12Z</time></trkpt><trkpt lat="45.73100437278102" lon="11.306752124158695"><ele>681.0</ele><time>2026-04-04T12:17:13Z</time></trkpt><trkpt lat="45.731124599006435" lon="11.306740187004207"><ele>681.0</ele><time>2026-04-04T12:17:15Z</time></trkpt><trkpt lat="45.73119586330734" lon="11.306696582579319"><ele>681.0</ele><time>2026-04-04T12:17:16Z</time></trkpt><trkpt lat="45.73124808979379" lon="11.306642942427333"><ele>681.0</ele><time>2026-04-04T12:17:17Z</time></trkpt><trkpt lat="45.731348066847" lon="11.306568937557792"><ele>680.1999999999999</ele><time>2026-04-04T12:17:18.999Z</time></trkpt><trkpt lat="45.731473848645535" lon="11.306557319449148"><ele>679.4</ele><time>2026-04-04T12:17:20.999Z</time></trkpt><trkpt lat="45.73149619389001" lon="11.306438203825106"><ele>678.6</ele><time>2026-04-04T12:17:23.999Z</time></trkpt><trkpt lat="45.73149689333125" lon="11.306294557070547"><ele>677.8</ele><time>2026-04-04T12:17:27.999Z</time></trkpt><trkpt lat="45.731492896084085" lon="11.30616557466825"><ele>677.0</ele><time>2026-04-04T12:17:29.999Z</time></trkpt><trkpt lat="45.73152133673279" lon="11.306047578834168"><ele>679.5</ele><time>2026-04-04T12:17:38.999Z</time></trkpt><trkpt lat="45.731487725792356" lon="11.305951518098714"><ele>682.0</ele><time>2026-04-04T12:17:45.999Z</time></trkpt><trkpt lat="45.73149768119894" lon="11.305821915082124"><ele>684.5</ele><time>2026-04-04T12:17:48.999Z</time></trkpt><trkpt lat="45.73146129275378" lon="11.305743547024466"><ele>687.0</ele><time>2026-04-04T12:17:50.999Z</time></trkpt><trkpt lat="45.73152359680192" lon="11.305658405152673"><ele>689.5</ele><time>2026-04-04T12:17:54.999Z</time></trkpt><trkpt lat="45.73157371939227" lon="11.30559202587551"><ele>692.0</ele><time>2026-04-04T12:17:57.999Z</time></trkpt><trkpt lat="45.73152348208892" lon="11.30551814311812"><ele>695.3333333333333</ele><time>2026-04-04T12:18:00.999Z</time></trkpt><trkpt lat="45.731437897185465" lon="11.305430234679463"><ele>698.6666666666666</ele><time>2026-04-04T12:18:02.999Z</time></trkpt><trkpt lat="45.73140130342288" lon="11.305352108692421"><ele>702.0</ele><time>2026-04-04T12:18:03.999Z</time></trkpt><trkpt lat="45.73135311341602" lon="11.305236185847646"><ele>705.3333333333334</ele><time>2026-04-04T12:18:05.999Z</time></trkpt><trkpt lat="45.7313042982968" lon="11.305115036150498"><ele>708.6666666666667</ele><time>2026-04-04T12:18:07.999Z</time></trkpt><trkpt lat="45.731235819299584" lon="11.305061419446474"><ele>712.0</ele><time>2026-04-04T12:18:20Z</time></trkpt><trkpt lat="45.73117678775846" lon="11.305028798269978"><ele>712.0</ele><time>2026-04-04T12:18:31Z</time></trkpt><trkpt lat="45.731174707952704" lon="11.304908957291072"><ele>712.0</ele><time>2026-04-04T12:18:35Z</time></trkpt><trkpt lat="45.73120750620127" lon="11.304775621733555"><ele>712.0</ele><time>2026-04-04T12:18:37Z</time></trkpt><trkpt lat="45.73123380145941" lon="11.304686090203417"><ele>712.0</ele><time>2026-04-04T12:18:39Z</time></trkpt><trkpt lat="45.73118757163948" lon="11.304616617765058"><ele>712.0</ele><time>2026-04-04T12:18:42Z</time></trkpt><trkpt lat="45.73105249107653" lon="11.304676324230659"><ele>716.8333333333334</ele><time>2026-04-04T12:19:19Z</time></trkpt><trkpt lat="45.73102855809304" lon="11.30457828484926"><ele>721.6666666666667</ele><time>2026-04-04T12:19:35.999Z</time></trkpt><trkpt lat="45.730994045406234" lon="11.304498309444636"><ele>726.5</ele><time>2026-04-04T12:19:40.999Z</time></trkpt><trkpt lat="45.730919969936004" lon="11.304488322623403"><ele>731.3333333333334</ele><time>2026-04-04T12:19:44.999Z</time></trkpt><trkpt lat="45.73084113074116" lon="11.304402318642975"><ele>736.1666666666666</ele><time>2026-04-04T12:19:46.999Z</time></trkpt><trkpt lat="45.73078971497247" lon="11.304333905734898"><ele>741.0</ele><time>2026-04-04T12:19:47.999Z</time></trkpt><trkpt lat="45.730704228828756" lon="11.304275460954628"><ele>741.0</ele><time>2026-04-04T12:19:48.999Z</time></trkpt><trkpt lat="45.73059347233678" lon="11.304224053322393"><ele>741.0</ele><time>2026-04-04T12:19:49.999Z</time></trkpt><trkpt lat="45.73045991815531" lon="11.304188627568145"><ele>741.0</ele><time>2026-04-04T12:19:50.999Z</time></trkpt><trkpt lat="45.730345045187406" lon="11.304160561540717"><ele>741.0</ele><time>2026-04-04T12:19:51.999Z</time></trkpt><trkpt lat="45.730266643969856" lon="11.304125480527462"><ele>741.3333333333334</ele><time>2026-04-04T12:19:52.999Z</time></trkpt><trkpt lat="45.730195058726586" lon="11.304067995199054"><ele>741.6666666666666</ele><time>2026-04-04T12:19:53.999Z</time></trkpt><trkpt lat="45.73012629647264" lon="11.303983336343912"><ele>742.0</ele><time>2026-04-04T12:19:54.999Z</time></trkpt><trkpt lat="45.730060919208256" lon="11.303907774079473"><ele>742.3333333333333</ele><time>2026-04-04T12:19:55.999Z</time></trkpt><trkpt lat="45.72999512018779" lon="11.303872140363056"><ele>742.6666666666666</ele><time>2026-04-04T12:19:56.999Z</time></trkpt><trkpt lat="45.72992246473876" lon="11.303864135061442"><ele>743.0</ele><time>2026-04-04T12:19:57.999Z</time></trkpt><trkpt lat="45.72983410390452" lon="11.303868611494119"><ele>746.2857142857143</ele><time>2026-04-04T12:19:58.999Z</time></trkpt><trkpt lat="45.72976600931764" lon="11.303859605890247"><ele>749.5714285714286</ele><time>2026-04-04T12:19:59.999Z</time></trkpt><trkpt lat="45.72970386487133" lon="11.303797673421396"><ele>752.8571428571429</ele><time>2026-04-04T12:20:01.999Z</time></trkpt><trkpt lat="45.729676385508796" lon="11.303706717606168"><ele>756.1428571428571</ele><time>2026-04-04T12:20:05.999Z</time></trkpt><trkpt lat="45.729611428169264" lon="11.30362714683125"><ele>759.4285714285713</ele><time>2026-04-04T12:20:31Z</time></trkpt><trkpt lat="45.729587692711256" lon="11.303542630531695"><ele>762.7142857142857</ele><time>2026-04-04T12:20:33Z</time></trkpt><trkpt lat="45.72954158494029" lon="11.303446034075783"><ele>766.0</ele><time>2026-04-04T12:20:38Z</time></trkpt><trkpt lat="45.729471892266055" lon="11.303364251561554"><ele>766.0</ele><time>2026-04-04T12:20:40Z</time></trkpt><trkpt lat="45.72944264857884" lon="11.30315992907302"><ele>766.0</ele><time>2026-04-04T12:20:42Z</time></trkpt><trkpt lat="45.72940060099589" lon="11.303026925959328"><ele>766.0</ele><time>2026-04-04T12:20:43Z</time></trkpt><trkpt lat="45.729346899313676" lon="11.302857147775006"><ele>766.0</ele><time>2026-04-04T12:20:44Z</time></trkpt><trkpt lat="45.72928838414328" lon="11.302671150727093"><ele>763.1999999999999</ele><time>2026-04-04T12:20:45Z</time></trkpt><trkpt lat="45.729234421567895" lon="11.302500538880917"><ele>760.4</ele><time>2026-04-04T12:20:46Z</time></trkpt><trkpt lat="45.729192978012904" lon="11.302377469998738"><ele>757.6</ele><time>2026-04-04T12:20:47Z</time></trkpt><trkpt lat="45.72916414925927" lon="11.302244389891362"><ele>754.8</ele><time>2026-04-04T12:20:48Z</time></trkpt><trkpt lat="45.729150329097216" lon="11.302121088953532"><ele>752.0</ele><time>2026-04-04T12:20:49Z</time></trkpt><trkpt lat="45.72910549535779" lon="11.302007569569055"><ele>752.0</ele><time>2026-04-04T12:20:50Z</time></trkpt><trkpt lat="45.729059085348894" lon="11.301911992838122"><ele>752.0</ele><time>2026-04-04T12:20:51Z</time></trkpt><trkpt lat="45.72905504469424" lon="11.301813648002272"><ele>752.0</ele><time>2026-04-04T12:20:52Z</time></trkpt><trkpt lat="45.72899504618433" lon="11.301778263716802"><ele>752.0</ele><time>2026-04-04T12:20:55Z</time></trkpt><trkpt lat="45.72894507685818" lon="11.3017204931848"><ele>752.0</ele><time>2026-04-04T12:21:01Z</time></trkpt><trkpt lat="45.72888492720295" lon="11.301686010628451"><ele>752.0</ele><time>2026-04-04T12:21:12Z</time></trkpt><trkpt lat="45.728824813163584" lon="11.301642659236492"><ele>752.0</ele><time>2026-04-04T12:21:21Z</time></trkpt><trkpt lat="45.728786729346" lon="11.301555187350885"><ele>752.0</ele><time>2026-04-04T12:21:26Z</time></trkpt><trkpt lat="45.72874582659214" lon="11.301476934684645"><ele>752.0</ele><time>2026-04-04T12:21:28Z</time></trkpt><trkpt lat="45.728673149012046" lon="11.301395516582184"><ele>752.0</ele><time>2026-04-04T12:21:30Z</time></trkpt><trkpt lat="45.72862828889205" lon="11.3013100080052"><ele>752.0</ele><time>2026-04-04T12:21:32Z</time></trkpt><trkpt lat="45.72853453690704" lon="11.301215130586613"><ele>752.0</ele><time>2026-04-04T12:21:34Z</time></trkpt><trkpt lat="45.72848940967086" lon="11.30113940357523"><ele>752.0</ele><time>2026-04-04T12:21:36Z</time></trkpt><trkpt lat="45.72842634157928" lon="11.301062376797859"><ele>744.0</ele><time>2026-04-04T12:21:39Z</time></trkpt><trkpt lat="45.728358180296794" lon="11.300950166108416"><ele>736.0</ele><time>2026-04-04T12:21:43Z</time></trkpt><trkpt lat="45.72828099980668" lon="11.300877250455738"><ele>728.0</ele><time>2026-04-04T12:21:45Z</time></trkpt><trkpt lat="45.72826926333986" lon="11.300740265143768"><ele>720.0</ele><time>2026-04-04T12:21:47Z</time></trkpt><trkpt lat="45.72827062248812" lon="11.30063799976477"><ele>712.0</ele><time>2026-04-04T12:21:49.999Z</time></trkpt><trkpt lat="45.728257989274546" lon="11.30049771751524"><ele>712.0</ele><time>2026-04-04T12:21:52.999Z</time></trkpt><trkpt lat="45.728256668175575" lon="11.300398332255519"><ele>712.0</ele><time>2026-04-04T12:21:54.999Z</time></trkpt><trkpt lat="45.728267997691376" lon="11.300268452496503"><ele>712.0</ele><time>2026-04-04T12:21:56.999Z</time></trkpt><trkpt lat="45.72828229120875" lon="11.300099212216832"><ele>712.0</ele><time>2026-04-04T12:21:58.999Z</time></trkpt><trkpt lat="45.72828458336258" lon="11.299955234972424"><ele>712.0</ele><time>2026-04-04T12:22:00.999Z</time></trkpt><trkpt lat="45.728249840734776" lon="11.2998457567853"><ele>711.6</ele><time>2026-04-04T12:22:02.999Z</time></trkpt><trkpt lat="45.7282361971996" lon="11.299717326826379"><ele>711.2</ele><time>2026-04-04T12:22:03.999Z</time></trkpt><trkpt lat="45.72822933107532" lon="11.299589138681801"><ele>710.8</ele><time>2026-04-04T12:22:04.999Z</time></trkpt><trkpt lat="45.728225645480265" lon="11.299421692866684"><ele>710.4</ele><time>2026-04-04T12:22:05.999Z</time></trkpt><trkpt lat="45.728242987364354" lon="11.29928949633436"><ele>710.0</ele><time>2026-04-04T12:22:06.999Z</time></trkpt><trkpt lat="45.728250322131196" lon="11.299193565723852"><ele>710.0</ele><time>2026-04-04T12:22:07.999Z</time></trkpt><trkpt lat="45.72827637503444" lon="11.299091138730292"><ele>710.0</ele><time>2026-04-04T12:25:16.999Z</time></trkpt><trkpt lat="45.72828012921715" lon="11.298940685077744"><ele>710.0</ele><time>2026-04-04T12:25:18.999Z</time></trkpt><trkpt lat="45.728277276596025" lon="11.298843246287245"><ele>710.0</ele><time>2026-04-04T12:25:19.999Z</time></trkpt><trkpt lat="45.728279997728855" lon="11.298731970464644"><ele>710.0</ele><time>2026-04-04T12:25:20.999Z</time></trkpt><trkpt lat="45.72828062652686" lon="11.298632683192977"><ele>710.0</ele><time>2026-04-04T12:25:21.999Z</time></trkpt><trkpt lat="45.7282754088218" lon="11.298542759398028"><ele>709.7142857142857</ele><time>2026-04-04T12:25:22.999Z</time></trkpt><trkpt lat="45.72826036091674" lon="11.29845033309731"><ele>709.4285714285714</ele><time>2026-04-04T12:25:23.999Z</time></trkpt><trkpt lat="45.728229082441274" lon="11.29835830212665"><ele>709.1428571428571</ele><time>2026-04-04T12:25:24.999Z</time></trkpt><trkpt lat="45.728193710446696" lon="11.298261918650482"><ele>708.8571428571429</ele><time>2026-04-04T12:25:25.999Z</time></trkpt><trkpt lat="45.72816622622512" lon="11.298174420689328"><ele>708.5714285714286</ele><time>2026-04-04T12:25:26.999Z</time></trkpt><trkpt lat="45.72816011941943" lon="11.298082787909618"><ele>708.2857142857143</ele><time>2026-04-04T12:25:27.999Z</time></trkpt><trkpt lat="45.728180983764275" lon="11.297993691221617"><ele>708.0</ele><time>2026-04-04T12:25:28.999Z</time></trkpt><trkpt lat="45.72821319563736" lon="11.297895448486358"><ele>707.0</ele><time>2026-04-04T12:25:29.999Z</time></trkpt><trkpt lat="45.72824788342538" lon="11.297777171854682"><ele>706.0</ele><time>2026-04-04T12:25:30.999Z</time></trkpt><trkpt lat="45.728270574847016" lon="11.297649624976172"><ele>705.0</ele><time>2026-04-04T12:25:31.999Z</time></trkpt><trkpt lat="45.72829305273929" lon="11.297524591989415"><ele>704.0</ele><time>2026-04-04T12:25:32.999Z</time></trkpt><trkpt lat="45.728326073852486" lon="11.297416632250142"><ele>703.0</ele><time>2026-04-04T12:25:33.999Z</time></trkpt><trkpt lat="45.728423952568086" lon="11.297310051764919"><ele>703.0</ele><time>2026-04-04T12:25:35.999Z</time></trkpt><trkpt lat="45.728480737458305" lon="11.297260361468844"><ele>703.0</ele><time>2026-04-04T12:25:36.999Z</time></trkpt><trkpt lat="45.728542863136944" lon="11.297034837744462"><ele>703.0</ele><time>2026-04-04T12:25:38.999Z</time></trkpt><trkpt lat="45.72857231233477" lon="11.296896870700397"><ele>703.0</ele><time>2026-04-04T12:25:39.999Z</time></trkpt><trkpt lat="45.728604510101015" lon="11.296757941095008"><ele>703.0</ele><time>2026-04-04T12:25:40.999Z</time></trkpt><trkpt lat="45.72859733449889" lon="11.29662925324533"><ele>703.0</ele><time>2026-04-04T12:25:41.999Z</time></trkpt><trkpt lat="45.72858081661107" lon="11.296499734581754"><ele>703.0</ele><time>2026-04-04T12:25:42.999Z</time></trkpt><trkpt lat="45.72855559211992" lon="11.29636317757605"><ele>703.0</ele><time>2026-04-04T12:25:43.999Z</time></trkpt><trkpt lat="45.72847472316416" lon="11.296208863308037"><ele>703.0</ele><time>2026-04-04T12:25:44.999Z</time></trkpt><trkpt lat="45.728395515536704" lon="11.296062648470917"><ele>703.0</ele><time>2026-04-04T12:25:45.999Z</time></trkpt><trkpt lat="45.72831714345718" lon="11.295919347571921"><ele>703.0</ele><time>2026-04-04T12:25:46.999Z</time></trkpt><trkpt lat="45.72823985006288" lon="11.295790552731864"><ele>703.0</ele><time>2026-04-04T12:25:47.999Z</time></trkpt><trkpt lat="45.72818136442869" lon="11.295665263252504"><ele>703.0</ele><time>2026-04-04T12:25:48.999Z</time></trkpt><trkpt lat="45.72813787702522" lon="11.295583855128669"><ele>703.0</ele><time>2026-04-04T12:25:49.999Z</time></trkpt><trkpt lat="45.72810493011176" lon="11.295499557189837"><ele>705.5</ele><time>2026-04-04T12:25:50.999Z</time></trkpt><trkpt lat="45.728078478199755" lon="11.295379863764008"><ele>708.0</ele><time>2026-04-04T12:25:51.999Z</time></trkpt><trkpt lat="45.72803801338632" lon="11.295228869735677"><ele>710.5</ele><time>2026-04-04T12:25:52.999Z</time></trkpt><trkpt lat="45.72800792013667" lon="11.295054886694066"><ele>713.0</ele><time>2026-04-04T12:25:53.999Z</time></trkpt><trkpt lat="45.72799418957989" lon="11.294876382100206"><ele>709.25</ele><time>2026-04-04T12:25:54.999Z</time></trkpt><trkpt lat="45.727986742962905" lon="11.294685312324361"><ele>705.5</ele><time>2026-04-04T12:25:55.999Z</time></trkpt><trkpt lat="45.728012932142384" lon="11.294542280140877"><ele>701.75</ele><time>2026-04-04T12:25:56.999Z</time></trkpt><trkpt lat="45.72810802888066" lon="11.294414740986939"><ele>698.0</ele><time>2026-04-04T12:25:58.999Z</time></trkpt><trkpt lat="45.72818934997001" lon="11.294321703310231"><ele>698.0</ele><time>2026-04-04T12:25:59.998Z</time></trkpt><trkpt lat="45.72828353824229" lon="11.29420188812861"><ele>698.0</ele><time>2026-04-04T12:26:00.998Z</time></trkpt><trkpt lat="45.72836403521476" lon="11.294098172388878"><ele>698.0</ele><time>2026-04-04T12:26:01.998Z</time></trkpt><trkpt lat="45.72841681131631" lon="11.294040839966858"><ele>698.0</ele><time>2026-04-04T12:26:02.998Z</time></trkpt><trkpt lat="45.72847327758267" lon="11.2939888370563"><ele>698.0</ele><time>2026-04-04T12:26:03.998Z</time></trkpt><trkpt lat="45.72841387906923" lon="11.294044184958507"><ele>698.0</ele><time>2026-04-04T12:26:08.998Z</time></trkpt><trkpt lat="45.728355483432075" lon="11.294110768196386"><ele>698.0</ele><time>2026-04-04T12:26:23.998Z</time></trkpt><trkpt lat="45.72819416519052" lon="11.294051272519168"><ele>698.0</ele><time>2026-04-04T12:26:25.998Z</time></trkpt><trkpt lat="45.72811680638337" lon="11.294071825213637"><ele>698.0</ele><time>2026-04-04T12:26:27.998Z</time></trkpt><trkpt lat="45.728058855279514" lon="11.294021582284614"><ele>698.0</ele><time>2026-04-04T12:26:30.999Z</time></trkpt><trkpt lat="45.72799674644381" lon="11.293942201308258"><ele>698.0</ele><time>2026-04-04T12:26:33.999Z</time></trkpt><trkpt lat="45.72795099944549" lon="11.293838529577213"><ele>694.0</ele><time>2026-04-04T12:26:36.999Z</time></trkpt><trkpt lat="45.72788832140095" lon="11.293731200594486"><ele>690.0</ele><time>2026-04-04T12:26:39.999Z</time></trkpt><trkpt lat="45.727841053848216" lon="11.293655399237577"><ele>686.0</ele><time>2026-04-04T12:26:46Z</time></trkpt><trkpt lat="45.72777594159585" lon="11.293591301593867"><ele>682.0</ele><time>2026-04-04T12:27:00Z</time></trkpt><trkpt lat="45.72769941907487" lon="11.29353711958043"><ele>678.0</ele><time>2026-04-04T12:27:04Z</time></trkpt><trkpt lat="45.727612552376854" lon="11.293505501536435"><ele>674.0</ele><time>2026-04-04T12:27:06Z</time></trkpt><trkpt lat="45.72753567540955" lon="11.293458454654303"><ele>670.7142857142858</ele><time>2026-04-04T12:27:09Z</time></trkpt><trkpt lat="45.727485437938185" lon="11.293400576205538"><ele>667.4285714285714</ele><time>2026-04-04T12:27:11Z</time></trkpt><trkpt lat="45.72745131178917" lon="11.293320427034992"><ele>664.1428571428571</ele><time>2026-04-04T12:27:13Z</time></trkpt><trkpt lat="45.72739292901531" lon="11.293267876550681"><ele>660.8571428571429</ele><time>2026-04-04T12:27:16Z</time></trkpt><trkpt lat="45.727328528365575" lon="11.293204227597217"><ele>657.5714285714286</ele><time>2026-04-04T12:27:23Z</time></trkpt><trkpt lat="45.727298608968546" lon="11.293116542247112"><ele>654.2857142857143</ele><time>2026-04-04T12:27:29Z</time></trkpt><trkpt lat="45.727250412059476" lon="11.292993811132115"><ele>651.0</ele><time>2026-04-04T12:27:32Z</time></trkpt><trkpt lat="45.72720534277355" lon="11.292919619331553"><ele>651.0</ele><time>2026-04-04T12:27:37Z</time></trkpt><trkpt lat="45.72714989557229" lon="11.292984734109984"><ele>651.0</ele><time>2026-04-04T12:27:41Z</time></trkpt><trkpt lat="45.727105632299676" lon="11.293086031099586"><ele>651.0</ele><time>2026-04-04T12:27:45Z</time></trkpt><trkpt lat="45.72703031238117" lon="11.29307642711499"><ele>651.0</ele><time>2026-04-04T12:27:47.999Z</time></trkpt><trkpt lat="45.72695625079362" lon="11.29311392222592"><ele>651.0</ele><time>2026-04-04T12:28:30.999Z</time></trkpt><trkpt lat="45.72688661325775" lon="11.293128014733387"><ele>651.0</ele><time>2026-04-04T12:28:33.999Z</time></trkpt><trkpt lat="45.72681384286552" lon="11.293147506149959"><ele>644.1428571428571</ele><time>2026-04-04T12:28:36.999Z</time></trkpt><trkpt lat="45.7267390702901" lon="11.293171187436716"><ele>637.2857142857142</ele><time>2026-04-04T12:28:39.999Z</time></trkpt><trkpt lat="45.72671724759377" lon="11.29306891125306"><ele>630.4285714285714</ele><time>2026-04-04T12:28:43.999Z</time></trkpt><trkpt lat="45.726688012995254" lon="11.292961806783374"><ele>623.5714285714286</ele><time>2026-04-04T12:28:45.999Z</time></trkpt><trkpt lat="45.72669632911567" lon="11.293059551887113"><ele>616.7142857142857</ele><time>2026-04-04T12:29:43.999Z</time></trkpt><trkpt lat="45.72672462023108" lon="11.293145925451526"><ele>609.8571428571429</ele><time>2026-04-04T12:30:07.999Z</time></trkpt><trkpt lat="45.72679822589439" lon="11.29315350833037"><ele>603.0</ele><time>2026-04-04T12:33:01Z</time></trkpt><trkpt lat="45.72687670505105" lon="11.293126743206658"><ele>607.1666666666666</ele><time>2026-04-04T12:33:06Z</time></trkpt><trkpt lat="45.72694112437081" lon="11.293117720210315"><ele>611.3333333333334</ele><time>2026-04-04T12:33:10Z</time></trkpt><trkpt lat="45.72704165351095" lon="11.29309230061689"><ele>615.5</ele><time>2026-04-04T12:33:13.999Z</time></trkpt><trkpt lat="45.72712411927472" lon="11.293088398500444"><ele>619.6666666666667</ele><time>2026-04-04T12:34:17.997Z</time></trkpt><trkpt lat="45.727174971929045" lon="11.293010096386771"><ele>623.8333333333334</ele><time>2026-04-04T12:34:19.997Z</time></trkpt><trkpt lat="45.72724270486748" lon="11.292997382885893"><ele>628.0</ele><time>2026-04-04T12:34:28.997Z</time></trkpt><trkpt lat="45.7272496384992" lon="11.29308813796433"><ele>631.8333333333334</ele><time>2026-04-04T12:34:33.997Z</time></trkpt><trkpt lat="45.727309397300786" lon="11.293160614483769"><ele>635.6666666666667</ele><time>2026-04-04T12:34:37.998Z</time></trkpt><trkpt lat="45.72735999557069" lon="11.293231485313433"><ele>639.5</ele><time>2026-04-04T12:34:40.998Z</time></trkpt><trkpt lat="45.72743721798964" lon="11.293306542007567"><ele>643.3333333333334</ele><time>2026-04-04T12:34:43.998Z</time></trkpt><trkpt lat="45.72751729804015" lon="11.293379531463403"><ele>647.1666666666666</ele><time>2026-04-04T12:34:45.998Z</time></trkpt><trkpt lat="45.727599941738475" lon="11.293417432488273"><ele>651.0</ele><time>2026-04-04T12:34:47.998Z</time></trkpt><trkpt lat="45.7276742090675" lon="11.293471727179883"><ele>655.5999999999999</ele><time>2026-04-04T12:34:49.998Z</time></trkpt><trkpt lat="45.72774100628339" lon="11.293526183483847"><ele>660.2</ele><time>2026-04-04T12:34:51.998Z</time></trkpt><trkpt lat="45.72779656205405" lon="11.293612304448779"><ele>664.8</ele><time>2026-04-04T12:34:53.998Z</time></trkpt><trkpt lat="45.72784138983479" lon="11.293697519028004"><ele>669.4000000000001</ele><time>2026-04-04T12:34:56.998Z</time></trkpt><trkpt lat="45.72797566370297" lon="11.293923977154147"><ele>674.0</ele><time>2026-04-04T12:34:57.998Z</time></trkpt><trkpt lat="45.72803397222794" lon="11.294034624679396"><ele>678.0</ele><time>2026-04-04T12:34:58.998Z</time></trkpt><trkpt lat="45.72808700034616" lon="11.294096168294182"><ele>682.0</ele><time>2026-04-04T12:34:59.998Z</time></trkpt><trkpt lat="45.72815664655569" lon="11.294085120443478"><ele>686.0</ele><time>2026-04-04T12:35:01.998Z</time></trkpt><trkpt lat="45.72820390793281" lon="11.294023785825345"><ele>690.0</ele><time>2026-04-04T12:36:17.999Z</time></trkpt><trkpt lat="45.72831444673544" lon="11.294029479735286"><ele>694.0</ele><time>2026-04-04T12:36:19.999Z</time></trkpt><trkpt lat="45.728394796116135" lon="11.294013533995868"><ele>698.0</ele><time>2026-04-04T12:36:20.999Z</time></trkpt><trkpt lat="45.72847544334992" lon="11.293986253345043"><ele>696.0</ele><time>2026-04-04T12:36:21.999Z</time></trkpt><trkpt lat="45.7285742302412" lon="11.29392199823768"><ele>694.0</ele><time>2026-04-04T12:36:22.999Z</time></trkpt><trkpt lat="45.72873330455551" lon="11.293883680636977"><ele>692.0</ele><time>2026-04-04T12:36:23.999Z</time></trkpt><trkpt lat="45.7288330575278" lon="11.293846587108302"><ele>690.0</ele><time>2026-04-04T12:36:24.999Z</time></trkpt><trkpt lat="45.72890309489278" lon="11.293797301436213"><ele>690.0</ele><time>2026-04-04T12:36:27.999Z</time></trkpt><trkpt lat="45.729013313840795" lon="11.293767328171558"><ele>690.0</ele><time>2026-04-04T12:36:29.999Z</time></trkpt><trkpt lat="45.72907657674876" lon="11.293746122310257"><ele>690.0</ele><time>2026-04-04T12:36:30.999Z</time></trkpt><trkpt lat="45.72920329287798" lon="11.293750459892705"><ele>690.0</ele><time>2026-04-04T12:36:32.999Z</time></trkpt><trkpt lat="45.72926662688609" lon="11.293744346300755"><ele>690.0</ele><time>2026-04-04T12:36:33.999Z</time></trkpt><trkpt lat="45.72933717636319" lon="11.293730373147207"><ele>690.0</ele><time>2026-04-04T12:36:34.999Z</time></trkpt><trkpt lat="45.72941177601027" lon="11.293703588359724"><ele>690.2</ele><time>2026-04-04T12:36:35.999Z</time></trkpt><trkpt lat="45.72950373896907" lon="11.293627261413102"><ele>690.4</ele><time>2026-04-04T12:36:36.999Z</time></trkpt><trkpt lat="45.72959751427584" lon="11.293593711432877"><ele>690.5999999999999</ele><time>2026-04-04T12:36:37.999Z</time></trkpt><trkpt lat="45.72969091538928" lon="11.293565139101247"><ele>690.8</ele><time>2026-04-04T12:36:38.999Z</time></trkpt><trkpt lat="45.72977549827234" lon="11.293570213114455"><ele>691.0</ele><time>2026-04-04T12:36:39.999Z</time></trkpt><trkpt lat="45.72985735892237" lon="11.29358334993457"><ele>691.0</ele><time>2026-04-04T12:36:40.999Z</time></trkpt><trkpt lat="45.72995571730441" lon="11.293602214937874"><ele>691.0</ele><time>2026-04-04T12:36:41.999Z</time></trkpt><trkpt lat="45.730052852801066" lon="11.293610439231784"><ele>691.0</ele><time>2026-04-04T12:36:42.999Z</time></trkpt><trkpt lat="45.73013855447393" lon="11.293634338883903"><ele>691.0</ele><time>2026-04-04T12:36:43.999Z</time></trkpt><trkpt lat="45.7302250658576" lon="11.293637881060672"><ele>691.0</ele><time>2026-04-04T12:36:44.999Z</time></trkpt><trkpt lat="45.73030098876916" lon="11.2936858631299"><ele>691.8333333333334</ele><time>2026-04-04T12:36:45.999Z</time></trkpt><trkpt lat="45.730371253202534" lon="11.293735396017082"><ele>692.6666666666667</ele><time>2026-04-04T12:36:46.999Z</time></trkpt><trkpt lat="45.730433854593436" lon="11.293777023247362"><ele>693.5</ele><time>2026-04-04T12:36:47.999Z</time></trkpt><trkpt lat="45.73050802218025" lon="11.293818235186839"><ele>694.3333333333334</ele><time>2026-04-04T12:36:48.999Z</time></trkpt><trkpt lat="45.73058114074545" lon="11.2938481476676"><ele>695.1666666666666</ele><time>2026-04-04T12:36:49.999Z</time></trkpt><trkpt lat="45.73065599834004" lon="11.29387953556285"><ele>696.0</ele><time>2026-04-04T12:36:50.999Z</time></trkpt><trkpt lat="45.730737521368" lon="11.293884675567002"><ele>696.0</ele><time>2026-04-04T12:36:51.999Z</time></trkpt><trkpt lat="45.730806368069565" lon="11.29385896510087"><ele>696.0</ele><time>2026-04-04T12:36:52.999Z</time></trkpt><trkpt lat="45.73087855006487" lon="11.29383635476506"><ele>696.0</ele><time>2026-04-04T12:36:53.999Z</time></trkpt><trkpt lat="45.73093066538514" lon="11.293736822407379"><ele>696.0</ele><time>2026-04-04T12:36:54.999Z</time></trkpt><trkpt lat="45.730978344355115" lon="11.293616913662412"><ele>696.0</ele><time>2026-04-04T12:36:55.999Z</time></trkpt><trkpt lat="45.73104214619577" lon="11.293497570623705"><ele>696.0</ele><time>2026-04-04T12:36:56.999Z</time></trkpt><trkpt lat="45.73113288655446" lon="11.293400868551002"><ele>700.5</ele><time>2026-04-04T12:36:57.999Z</time></trkpt><trkpt lat="45.731228355197715" lon="11.293285558113313"><ele>705.0</ele><time>2026-04-04T12:36:58.999Z</time></trkpt><trkpt lat="45.73133099484635" lon="11.29321784380079"><ele>709.5</ele><time>2026-04-04T12:36:59.999Z</time></trkpt><trkpt lat="45.73143642859682" lon="11.293218713619076"><ele>714.0</ele><time>2026-04-04T12:37:00.999Z</time></trkpt><trkpt lat="45.73155364045961" lon="11.293217071906165"><ele>714.0</ele><time>2026-04-04T12:37:01.999Z</time></trkpt><trkpt lat="45.73169187203495" lon="11.29321796433335"><ele>714.0</ele><time>2026-04-04T12:37:02.999Z</time></trkpt><trkpt lat="45.73185863410181" lon="11.293188901975793"><ele>714.0</ele><time>2026-04-04T12:37:03.999Z</time></trkpt><trkpt lat="45.73198314252874" lon="11.293131060704253"><ele>714.0</ele><time>2026-04-04T12:37:04.999Z</time></trkpt><trkpt lat="45.73210200564954" lon="11.293061606316325"><ele>712.2</ele><time>2026-04-04T12:37:05.999Z</time></trkpt><trkpt lat="45.7322254937369" lon="11.292957501125144"><ele>710.4000000000001</ele><time>2026-04-04T12:37:06.999Z</time></trkpt><trkpt lat="45.73231660908206" lon="11.29285489474752"><ele>708.6</ele><time>2026-04-04T12:37:07.999Z</time></trkpt><trkpt lat="45.732394448835926" lon="11.292775264611794"><ele>706.8</ele><time>2026-04-04T12:37:09Z</time></trkpt><trkpt lat="45.73246078937768" lon="11.292686800130893"><ele>705.0</ele><time>2026-04-04T12:37:10Z</time></trkpt><trkpt lat="45.732552979239266" lon="11.292574551357017"><ele>705.0</ele><time>2026-04-04T12:37:11Z</time></trkpt><trkpt lat="45.73264607826505" lon="11.2924634031901"><ele>705.0</ele><time>2026-04-04T12:37:12Z</time></trkpt><trkpt lat="45.732740596509935" lon="11.292353277487393"><ele>705.0</ele><time>2026-04-04T12:37:13Z</time></trkpt><trkpt lat="45.73282164979298" lon="11.292241366479434"><ele>705.0</ele><time>2026-04-04T12:37:14Z</time></trkpt><trkpt lat="45.73291413846519" lon="11.292151673979674"><ele>706.0</ele><time>2026-04-04T12:37:15Z</time></trkpt><trkpt lat="45.73301363633344" lon="11.292067087781023"><ele>707.0</ele><time>2026-04-04T12:37:16Z</time></trkpt><trkpt lat="45.733118381040015" lon="11.291986965363792"><ele>708.0</ele><time>2026-04-04T12:37:17Z</time></trkpt><trkpt lat="45.73322614997783" lon="11.291910125719216"><ele>709.0</ele><time>2026-04-04T12:37:18Z</time></trkpt><trkpt lat="45.73332470231056" lon="11.291816397690631"><ele>709.0</ele><time>2026-04-04T12:37:19Z</time></trkpt><trkpt lat="45.733409093474506" lon="11.2916869189989"><ele>709.0</ele><time>2026-04-04T12:37:20Z</time></trkpt><trkpt lat="45.73348342335014" lon="11.291546658757374"><ele>709.0</ele><time>2026-04-04T12:37:21Z</time></trkpt><trkpt lat="45.73354077224492" lon="11.291418847697997"><ele>709.0</ele><time>2026-04-04T12:37:22Z</time></trkpt><trkpt lat="45.73361502821843" lon="11.291323551282323"><ele>709.8000000000001</ele><time>2026-04-04T12:37:23Z</time></trkpt><trkpt lat="45.733710679839405" lon="11.291297001732387"><ele>710.6</ele><time>2026-04-04T12:37:24Z</time></trkpt><trkpt lat="45.73380659227166" lon="11.291227066472844"><ele>711.4</ele><time>2026-04-04T12:37:25Z</time></trkpt><trkpt lat="45.73391374941747" lon="11.291167004374122"><ele>712.2</ele><time>2026-04-04T12:37:26Z</time></trkpt><trkpt lat="45.734012453869084" lon="11.291082595732044"><ele>713.0</ele><time>2026-04-04T12:37:27Z</time></trkpt><trkpt lat="45.734104198661505" lon="11.290988013435708"><ele>713.0</ele><time>2026-04-04T12:37:28Z</time></trkpt><trkpt lat="45.73420278799115" lon="11.290873702631048"><ele>713.0</ele><time>2026-04-04T12:37:29Z</time></trkpt><trkpt lat="45.73431868680719" lon="11.290778763452872"><ele>713.0</ele><time>2026-04-04T12:37:30Z</time></trkpt><trkpt lat="45.734456737203395" lon="11.290723243431124"><ele>713.0</ele><time>2026-04-04T12:37:31Z</time></trkpt><trkpt lat="45.734554948920774" lon="11.29062870814266"><ele>713.4</ele><time>2026-04-04T12:37:32Z</time></trkpt><trkpt lat="45.73462780426357" lon="11.290511581144594"><ele>713.8</ele><time>2026-04-04T12:37:33Z</time></trkpt><trkpt lat="45.734673298833954" lon="11.290370622553642"><ele>714.2</ele><time>2026-04-04T12:37:34Z</time></trkpt><trkpt lat="45.73471474014007" lon="11.290218242605807"><ele>714.6</ele><time>2026-04-04T12:37:35Z</time></trkpt><trkpt lat="45.73478019040942" lon="11.290093755443909"><ele>715.0</ele><time>2026-04-04T12:37:36Z</time></trkpt><trkpt lat="45.73485206655522" lon="11.289983080265467"><ele>715.0</ele><time>2026-04-04T12:37:37Z</time></trkpt><trkpt lat="45.73492607538132" lon="11.289867058759198"><ele>715.0</ele><time>2026-04-04T12:37:38Z</time></trkpt><trkpt lat="45.735007721263464" lon="11.289741097435671"><ele>715.0</ele><time>2026-04-04T12:37:39Z</time></trkpt><trkpt lat="45.735097165631" lon="11.289621695705737"><ele>715.0</ele><time>2026-04-04T12:37:40Z</time></trkpt><trkpt lat="45.735183003332175" lon="11.289512818454329"><ele>712.25</ele><time>2026-04-04T12:37:41Z</time></trkpt><trkpt lat="45.73528096598995" lon="11.289405036552902"><ele>709.5</ele><time>2026-04-04T12:37:42Z</time></trkpt><trkpt lat="45.735354497905085" lon="11.289271086296306"><ele>706.75</ele><time>2026-04-04T12:37:43Z</time></trkpt><trkpt lat="45.735415129114195" lon="11.289115094329311"><ele>704.0</ele><time>2026-04-04T12:37:44Z</time></trkpt><trkpt lat="45.735490743095276" lon="11.289003855947177"><ele>696.25</ele><time>2026-04-04T12:37:45Z</time></trkpt><trkpt lat="45.73556263018651" lon="11.288887977575246"><ele>688.5</ele><time>2026-04-04T12:37:46Z</time></trkpt><trkpt lat="45.73566291576068" lon="11.288791752096966"><ele>680.75</ele><time>2026-04-04T12:37:47Z</time></trkpt><trkpt lat="45.73576324088988" lon="11.28873413612268"><ele>673.0</ele><time>2026-04-04T12:37:48Z</time></trkpt><trkpt lat="45.73586684848684" lon="11.288669657539744"><ele>673.0</ele><time>2026-04-04T12:37:49Z</time></trkpt><trkpt lat="45.7359807378852" lon="11.288621236886172"><ele>673.0</ele><time>2026-04-04T12:37:50Z</time></trkpt><trkpt lat="45.736085808203114" lon="11.28852830244823"><ele>673.0</ele><time>2026-04-04T12:37:51Z</time></trkpt><trkpt lat="45.7361984612717" lon="11.288432981005275"><ele>673.0</ele><time>2026-04-04T12:37:52Z</time></trkpt><trkpt lat="45.73632553114714" lon="11.288364154888393"><ele>672.25</ele><time>2026-04-04T12:37:53Z</time></trkpt><trkpt lat="45.73644573489766" lon="11.288262382721957"><ele>671.5</ele><time>2026-04-04T12:37:54Z</time></trkpt><trkpt lat="45.73655451737668" lon="11.288171367706852"><ele>670.75</ele><time>2026-04-04T12:37:55Z</time></trkpt><trkpt lat="45.73663600677582" lon="11.288070895114714"><ele>670.0</ele><time>2026-04-04T12:37:56Z</time></trkpt><trkpt lat="45.73672435959021" lon="11.287967860091161"><ele>670.0</ele><time>2026-04-04T12:37:57Z</time></trkpt><trkpt lat="45.73683552095535" lon="11.287833733443104"><ele>670.0</ele><time>2026-04-04T12:37:58Z</time></trkpt><trkpt lat="45.73693273875426" lon="11.287702467687982"><ele>670.0</ele><time>2026-04-04T12:37:59Z</time></trkpt><trkpt lat="45.737040511872806" lon="11.287550370164094"><ele>670.0</ele><time>2026-04-04T12:38:00Z</time></trkpt><trkpt lat="45.73714766431623" lon="11.287440416554222"><ele>670.0</ele><time>2026-04-04T12:38:01Z</time></trkpt><trkpt lat="45.73723927985508" lon="11.287352823127879"><ele>670.0</ele><time>2026-04-04T12:38:02Z</time></trkpt><trkpt lat="45.73733333729248" lon="11.287246917523136"><ele>670.0</ele><time>2026-04-04T12:38:03Z</time></trkpt><trkpt lat="45.73742816211316" lon="11.287128288358556"><ele>670.0</ele><time>2026-04-04T12:38:04Z</time></trkpt><trkpt lat="45.73750095473618" lon="11.286975225591034"><ele>670.0</ele><time>2026-04-04T12:38:05Z</time></trkpt><trkpt lat="45.73755179112039" lon="11.28681879322311"><ele>670.0</ele><time>2026-04-04T12:38:06Z</time></trkpt><trkpt lat="45.7376023700252" lon="11.286717758958767"><ele>670.0</ele><time>2026-04-04T12:38:07Z</time></trkpt><trkpt lat="45.73774552348751" lon="11.286644117530756"><ele>670.0</ele><time>2026-04-04T12:38:09Z</time></trkpt><trkpt lat="45.73785296562489" lon="11.28668336011774"><ele>671.0</ele><time>2026-04-04T12:38:10Z</time></trkpt><trkpt lat="45.73797498071374" lon="11.286680095119456"><ele>672.0</ele><time>2026-04-04T12:38:11Z</time></trkpt><trkpt lat="45.73812478197732" lon="11.286676510033299"><ele>673.0</ele><time>2026-04-04T12:38:11.999Z</time></trkpt><trkpt lat="45.738292475682144" lon="11.28666515948446"><ele>674.0</ele><time>2026-04-04T12:38:12.999Z</time></trkpt><trkpt lat="45.73841064161683" lon="11.28666125050763"><ele>674.0</ele><time>2026-04-04T12:38:13.999Z</time></trkpt><trkpt lat="45.738523405529826" lon="11.286662316015487"><ele>674.0</ele><time>2026-04-04T12:38:14.999Z</time></trkpt><trkpt lat="45.738598346136854" lon="11.286683767288938"><ele>674.0</ele><time>2026-04-04T12:38:15.999Z</time></trkpt><trkpt lat="45.73871924115056" lon="11.286747400816509"><ele>674.0</ele><time>2026-04-04T12:38:23.999Z</time></trkpt><trkpt lat="45.738795406932155" lon="11.286775792910797"><ele>674.0</ele><time>2026-04-04T12:38:24.999Z</time></trkpt><trkpt lat="45.738858911165835" lon="11.286807854428977"><ele>671.4000000000001</ele><time>2026-04-04T12:38:25.999Z</time></trkpt><trkpt lat="45.738942188625906" lon="11.286866958435182"><ele>668.8</ele><time>2026-04-04T12:38:26.999Z</time></trkpt><trkpt lat="45.73904610113746" lon="11.286943411076235"><ele>666.2</ele><time>2026-04-04T12:38:27.999Z</time></trkpt><trkpt lat="45.739141500489986" lon="11.287009289242993"><ele>663.5999999999999</ele><time>2026-04-04T12:38:28.999Z</time></trkpt><trkpt lat="45.73921059510151" lon="11.28704537492473"><ele>661.0</ele><time>2026-04-04T12:38:29.999Z</time></trkpt><trkpt lat="45.739285115805444" lon="11.287102408677374"><ele>684.0</ele><time>2026-04-04T12:38:30.999Z</time></trkpt><trkpt lat="45.739199961461956" lon="11.287832178212197"><ele>684.0</ele><time>2026-04-04T12:38:31.999Z</time></trkpt><trkpt lat="45.73925748227775" lon="11.287970471186272"><ele>684.0</ele><time>2026-04-04T12:38:32.999Z</time></trkpt><trkpt lat="45.73933188831735" lon="11.288045012078367"><ele>684.0</ele><time>2026-04-04T12:38:33.999Z</time></trkpt><trkpt lat="45.73939534063303" lon="11.288100172202062"><ele>684.0</ele><time>2026-04-04T12:38:34.999Z</time></trkpt><trkpt lat="45.739463084765084" lon="11.288262827366248"><ele>684.0</ele><time>2026-04-04T12:38:36.999Z</time></trkpt><trkpt lat="45.73947005374333" lon="11.28838206139089"><ele>687.2</ele><time>2026-04-04T12:38:37.999Z</time></trkpt><trkpt lat="45.739514427126174" lon="11.288486659981023"><ele>690.4000000000001</ele><time>2026-04-04T12:38:38.999Z</time></trkpt><trkpt lat="45.73956763039432" lon="11.288572475168278"><ele>693.6</ele><time>2026-04-04T12:38:39.999Z</time></trkpt><trkpt lat="45.739637939238875" lon="11.288579014332434"><ele>696.8</ele><time>2026-04-04T12:38:40.999Z</time></trkpt><trkpt lat="45.73980032862828" lon="11.288769477352828"><ele>700.0</ele><time>2026-04-04T12:38:42.999Z</time></trkpt><trkpt lat="45.739924408712476" lon="11.28890390806759"><ele>703.4</ele><time>2026-04-04T12:38:43.999Z</time></trkpt><trkpt lat="45.7400140348256" lon="11.289044648756507"><ele>706.8</ele><time>2026-04-04T12:38:44.999Z</time></trkpt><trkpt lat="45.74008139623226" lon="11.289151612454816"><ele>710.2</ele><time>2026-04-04T12:38:45.999Z</time></trkpt><trkpt lat="45.74012135149255" lon="11.289271031086498"><ele>713.6</ele><time>2026-04-04T12:38:46.999Z</time></trkpt><trkpt lat="45.740161269790406" lon="11.289381433300429"><ele>717.0</ele><time>2026-04-04T12:38:47.999Z</time></trkpt><trkpt lat="45.74022190649561" lon="11.289508303760385"><ele>717.0</ele><time>2026-04-04T12:38:48.999Z</time></trkpt><trkpt lat="45.74027857939211" lon="11.289642156402211"><ele>717.0</ele><time>2026-04-04T12:38:49.999Z</time></trkpt><trkpt lat="45.74032712204942" lon="11.289745599171564"><ele>717.0</ele><time>2026-04-04T12:38:50.999Z</time></trkpt><trkpt lat="45.740369135295886" lon="11.289828434119299"><ele>717.0</ele><time>2026-04-04T12:38:51.999Z</time></trkpt><trkpt lat="45.74041606018611" lon="11.289975378016566"><ele>717.0</ele><time>2026-04-04T12:38:53.999Z</time></trkpt><trkpt lat="45.740463319341835" lon="11.290071205702654"><ele>721.3333333333334</ele><time>2026-04-04T12:38:54.999Z</time></trkpt><trkpt lat="45.740512455586234" lon="11.29017274789634"><ele>725.6666666666666</ele><time>2026-04-04T12:38:55.999Z</time></trkpt><trkpt lat="45.74057356207945" lon="11.290268117972268"><ele>730.0</ele><time>2026-04-04T12:38:56.999Z</time></trkpt><trkpt lat="45.74063405631298" lon="11.290319657851352"><ele>734.3333333333333</ele><time>2026-04-04T12:38:57.999Z</time></trkpt><trkpt lat="45.74070039321328" lon="11.29037016427824"><ele>738.6666666666666</ele><time>2026-04-04T12:38:58.999Z</time></trkpt><trkpt lat="45.740771599764166" lon="11.290430797012867"><ele>743.0</ele><time>2026-04-04T12:38:59.999Z</time></trkpt><trkpt lat="45.740828415331954" lon="11.290485244087204"><ele>750.0</ele><time>2026-04-04T12:39:00.999Z</time></trkpt><trkpt lat="45.74091031376177" lon="11.290597142319292"><ele>757.0</ele><time>2026-04-04T12:39:02.999Z</time></trkpt><trkpt lat="45.74098177645265" lon="11.290715465652571"><ele>764.0</ele><time>2026-04-04T12:39:04.999Z</time></trkpt><trkpt lat="45.741058824838824" lon="11.290844042147334"><ele>771.0</ele><time>2026-04-04T12:39:06.999Z</time></trkpt><trkpt lat="45.7411625766609" lon="11.290902748612332"><ele>771.0</ele><time>2026-04-04T12:39:08.999Z</time></trkpt><trkpt lat="45.7412411131546" lon="11.290968370384668"><ele>771.0</ele><time>2026-04-04T12:39:09.999Z</time></trkpt><trkpt lat="45.74131762084245" lon="11.29108767366235"><ele>771.0</ele><time>2026-04-04T12:39:10.999Z</time></trkpt><trkpt lat="45.741383038732636" lon="11.29117547721495"><ele>771.0</ele><time>2026-04-04T12:39:11.999Z</time></trkpt><trkpt lat="45.74143789292832" lon="11.291230213251934"><ele>771.0</ele><time>2026-04-04T12:39:12.999Z</time></trkpt><trkpt lat="45.741503846322466" lon="11.291297503163786"><ele>771.0</ele><time>2026-04-04T12:39:16Z</time></trkpt><trkpt lat="45.74161369238388" lon="11.291310133390507"><ele>771.0</ele><time>2026-04-04T12:39:18Z</time></trkpt><trkpt lat="45.74167736238265" lon="11.291323070618251"><ele>771.0</ele><time>2026-04-04T12:39:19Z</time></trkpt><trkpt lat="45.74174129235533" lon="11.291343631692829"><ele>771.0</ele><time>2026-04-04T12:39:20Z</time></trkpt><trkpt lat="45.74178223984388" lon="11.291424508537512"><ele>771.0</ele><time>2026-04-04T12:39:24Z</time></trkpt><trkpt lat="45.74183723108087" lon="11.291470152684553"><ele>771.0</ele><time>2026-04-04T12:40:02Z</time></trkpt><trkpt lat="45.74189263268842" lon="11.291573204934616"><ele>771.0</ele><time>2026-04-04T12:40:08Z</time></trkpt><trkpt lat="45.7419426035831" lon="11.29164493911736"><ele>771.0</ele><time>2026-04-04T12:40:10Z</time></trkpt><trkpt lat="45.742005852491154" lon="11.291784070800134"><ele>774.8333333333334</ele><time>2026-04-04T12:40:12Z</time></trkpt><trkpt lat="45.74202546677917" lon="11.291873627966538"><ele>778.6666666666667</ele><time>2026-04-04T12:40:16Z</time></trkpt><trkpt lat="45.74207698795037" lon="11.291954666018396"><ele>782.5</ele><time>2026-04-04T12:40:21Z</time></trkpt><trkpt lat="45.742105201041305" lon="11.292040080150253"><ele>786.3333333333334</ele><time>2026-04-04T12:40:25Z</time></trkpt><trkpt lat="45.74214664064894" lon="11.292144968465879"><ele>790.1666666666667</ele><time>2026-04-04T12:40:29Z</time></trkpt><trkpt lat="45.74217067307151" lon="11.292234802586268"><ele>794.0</ele><time>2026-04-04T12:40:41.999Z</time></trkpt><trkpt lat="45.74221727280708" lon="11.292377324198824"><ele>798.7142857142857</ele><time>2026-04-04T12:42:30Z</time></trkpt><trkpt lat="45.742243013826105" lon="11.292486037270649"><ele>803.4285714285713</ele><time>2026-04-04T12:42:32Z</time></trkpt><trkpt lat="45.74229716835395" lon="11.292535524621654"><ele>808.1428571428571</ele><time>2026-04-04T12:48:29Z</time></trkpt><trkpt lat="45.742351051510276" lon="11.292645568922381"><ele>812.8571428571429</ele><time>2026-04-04T12:48:32Z</time></trkpt><trkpt lat="45.742393810154624" lon="11.292714213671031"><ele>817.5714285714286</ele><time>2026-04-04T12:48:36Z</time></trkpt><trkpt lat="45.74243555367347" lon="11.292798223051943"><ele>822.2857142857143</ele><time>2026-04-04T12:48:40Z</time></trkpt><trkpt lat="45.74245035431695" lon="11.292891760421412"><ele>827.0</ele><time>2026-04-04T12:48:43Z</time></trkpt><trkpt lat="45.742460621069654" lon="11.292991653179786"><ele>832.5000000000001</ele><time>2026-04-04T12:48:46Z</time></trkpt><trkpt lat="45.74246936129174" lon="11.293090053099696"><ele>838.0</ele><time>2026-04-04T12:48:47.999Z</time></trkpt><trkpt lat="45.742490530612216" lon="11.293195044925147"><ele>843.5</ele><time>2026-04-04T12:50:43Z</time></trkpt><trkpt lat="45.742536632600526" lon="11.293278750002912"><ele>849.0</ele><time>2026-04-04T12:50:45Z</time></trkpt><trkpt lat="45.74259687213114" lon="11.293438941919574"><ele>854.5000000000001</ele><time>2026-04-04T12:50:46.999Z</time></trkpt><trkpt lat="45.742620213205974" lon="11.293564684617131"><ele>860.0</ele><time>2026-04-04T12:50:48.999Z</time></trkpt><trkpt lat="45.74268014413141" lon="11.293707416549136"><ele>857.0000000000001</ele><time>2026-04-04T12:50:50.999Z</time></trkpt><trkpt lat="45.742738691114425" lon="11.29375544772963"><ele>854.0</ele><time>2026-04-04T12:50:51.999Z</time></trkpt><trkpt lat="45.74280829826867" lon="11.2938342216194"><ele>851.0</ele><time>2026-04-04T12:50:52.999Z</time></trkpt><trkpt lat="45.74287944000571" lon="11.293898098844819"><ele>848.0</ele><time>2026-04-04T12:50:53.999Z</time></trkpt><trkpt lat="45.742952519305156" lon="11.293959573294151"><ele>845.0000000000001</ele><time>2026-04-04T12:50:54.999Z</time></trkpt><trkpt lat="45.743016281775446" lon="11.294023135231994"><ele>842.0</ele><time>2026-04-04T12:50:55.999Z</time></trkpt><trkpt lat="45.74310083960609" lon="11.294127601508883"><ele>842.0000000000001</ele><time>2026-04-04T12:50:57.999Z</time></trkpt><trkpt lat="45.74314672447722" lon="11.294205123755955"><ele>842.0</ele><time>2026-04-04T12:50:59.999Z</time></trkpt><trkpt lat="45.74318360257111" lon="11.294280453267358"><ele>842.0</ele><time>2026-04-04T12:51:01.999Z</time></trkpt><trkpt lat="45.743251321617215" lon="11.294346527420018"><ele>842.0</ele><time>2026-04-04T12:51:03.999Z</time></trkpt><trkpt lat="45.74329888582271" lon="11.29440685762824"><ele>842.0</ele><time>2026-04-04T12:51:04.999Z</time></trkpt><trkpt lat="45.743371619796854" lon="11.29449529230234"><ele>842.0000000000001</ele><time>2026-04-04T12:51:06.999Z</time></trkpt><trkpt lat="45.7434285395903" lon="11.294558693722905"><ele>842.0</ele><time>2026-04-04T12:51:08.999Z</time></trkpt><trkpt lat="45.74348241985674" lon="11.294619156986263"><ele>842.0000000000001</ele><time>2026-04-04T12:51:10.999Z</time></trkpt><trkpt lat="45.743540038843136" lon="11.294700245542424"><ele>842.0</ele><time>2026-04-04T12:51:15.999Z</time></trkpt><trkpt lat="45.74358839500225" lon="11.29477714697758"><ele>842.0</ele><time>2026-04-04T12:51:18.999Z</time></trkpt><trkpt lat="45.74363449074689" lon="11.294842186511671"><ele>842.0</ele><time>2026-04-04T12:51:20.999Z</time></trkpt><trkpt lat="45.74370150224156" lon="11.294907714965623"><ele>842.0000000000001</ele><time>2026-04-04T12:51:23.999Z</time></trkpt><trkpt lat="45.743760428481394" lon="11.294966928614441"><ele>842.0</ele><time>2026-04-04T12:51:25.999Z</time></trkpt><trkpt lat="45.74381136828775" lon="11.295062145405481"><ele>835.6666666666667</ele><time>2026-04-04T12:51:27.999Z</time></trkpt><trkpt lat="45.743848320961895" lon="11.29516403241514"><ele>829.3333333333334</ele><time>2026-04-04T12:51:28.999Z</time></trkpt><trkpt lat="45.74389102702438" lon="11.29525644962398"><ele>823.0</ele><time>2026-04-04T12:51:29.999Z</time></trkpt><trkpt lat="45.743925895116" lon="11.295343261896031"><ele>816.6666666666667</ele><time>2026-04-04T12:51:30.999Z</time></trkpt><trkpt lat="45.743952453408106" lon="11.295443123008324"><ele>810.3333333333334</ele><time>2026-04-04T12:51:31.999Z</time></trkpt><trkpt lat="45.74399057667061" lon="11.29555888754301"><ele>804.0</ele><time>2026-04-04T12:51:33.999Z</time></trkpt><trkpt lat="45.74405960037904" lon="11.295636959452667"><ele>804.0</ele><time>2026-04-04T12:51:36.999Z</time></trkpt><trkpt lat="45.74409838681093" lon="11.295710619778188"><ele>804.0</ele><time>2026-04-04T12:51:39.999Z</time></trkpt><trkpt lat="45.74414399421629" lon="11.295804739858417"><ele>804.0</ele><time>2026-04-04T12:51:42.999Z</time></trkpt><trkpt lat="45.744182315159634" lon="11.295890440922618"><ele>804.0</ele><time>2026-04-04T12:51:43.999Z</time></trkpt><trkpt lat="45.74423085954628" lon="11.295958610974138"><ele>804.0</ele><time>2026-04-04T12:51:44.999Z</time></trkpt><trkpt lat="45.74425268612948" lon="11.296059606595815"><ele>804.0</ele><time>2026-04-04T12:51:48Z</time></trkpt><trkpt lat="45.744223464492926" lon="11.296154874296047"><ele>804.0</ele><time>2026-04-04T12:51:51Z</time></trkpt><trkpt lat="45.74420025425692" lon="11.29624495217875"><ele>804.0</ele><time>2026-04-04T12:52:02Z</time></trkpt><trkpt lat="45.744287704513184" lon="11.296279215187274"><ele>804.0</ele><time>2026-04-04T12:52:07Z</time></trkpt><trkpt lat="45.74434645128071" lon="11.29624511073039"><ele>804.0</ele><time>2026-04-04T12:52:11Z</time></trkpt><trkpt lat="45.744411144783165" lon="11.296177076583009"><ele>804.0</ele><time>2026-04-04T12:52:15Z</time></trkpt><trkpt lat="45.744500944744225" lon="11.296170389317371"><ele>804.0</ele><time>2026-04-04T12:52:17Z</time></trkpt><trkpt lat="45.744587101511414" lon="11.296231965928436"><ele>804.0</ele><time>2026-04-04T12:52:19Z</time></trkpt><trkpt lat="45.744667056017335" lon="11.29624947124468"><ele>796.8333333333334</ele><time>2026-04-04T12:52:21Z</time></trkpt><trkpt lat="45.74474160157522" lon="11.296201178136437"><ele>789.6666666666666</ele><time>2026-04-04T12:52:24Z</time></trkpt><trkpt lat="45.744774556823714" lon="11.296123833022405"><ele>782.5</ele><time>2026-04-04T12:52:28Z</time></trkpt><trkpt lat="45.744835942761505" lon="11.296166781580165"><ele>775.3333333333333</ele><time>2026-04-04T12:52:32Z</time></trkpt><trkpt lat="45.74487504364351" lon="11.296245851809019"><ele>768.1666666666666</ele><time>2026-04-04T12:52:34Z</time></trkpt><trkpt lat="45.744909793029386" lon="11.296360616146421"><ele>761.0</ele><time>2026-04-04T12:52:37Z</time></trkpt><trkpt lat="45.744877579438935" lon="11.296507874198618"><ele>760.9999999999999</ele><time>2026-04-04T12:52:39Z</time></trkpt><trkpt lat="45.74483048794945" lon="11.296596818217834"><ele>761.0</ele><time>2026-04-04T12:52:41Z</time></trkpt><trkpt lat="45.74487575147755" lon="11.29668637314356"><ele>761.0</ele><time>2026-04-04T12:52:46Z</time></trkpt><trkpt lat="45.74494731149809" lon="11.296672554239816"><ele>761.0</ele><time>2026-04-04T12:52:50.999Z</time></trkpt><trkpt lat="45.74501543581713" lon="11.296675028190418"><ele>761.0</ele><time>2026-04-04T12:52:52.999Z</time></trkpt><trkpt lat="45.7450789760898" lon="11.296663962555236"><ele>760.9999999999999</ele><time>2026-04-04T12:52:54.999Z</time></trkpt><trkpt lat="45.745146406855966" lon="11.296657006405546"><ele>761.0</ele><time>2026-04-04T12:52:56.999Z</time></trkpt><trkpt lat="45.7452236839577" lon="11.29666346172771"><ele>756.1666666666666</ele><time>2026-04-04T12:52:58.999Z</time></trkpt><trkpt lat="45.745275935509085" lon="11.296733726466083"><ele>751.3333333333333</ele><time>2026-04-04T12:53:00.999Z</time></trkpt><trkpt lat="45.74533270266774" lon="11.29679003975105"><ele>746.5</ele><time>2026-04-04T12:53:02.999Z</time></trkpt><trkpt lat="45.7453761243122" lon="11.296863655611514"><ele>741.6666666666666</ele><time>2026-04-04T12:53:03.999Z</time></trkpt><trkpt lat="45.745444852847264" lon="11.296986260685959"><ele>736.8333333333334</ele><time>2026-04-04T12:53:04.999Z</time></trkpt><trkpt lat="45.7455174521926" lon="11.29710711311991"><ele>732.0</ele><time>2026-04-04T12:53:05.999Z</time></trkpt><trkpt lat="45.74559086799266" lon="11.297228711294094"><ele>730.5</ele><time>2026-04-04T12:53:06.999Z</time></trkpt><trkpt lat="45.745722553892655" lon="11.297362812372075"><ele>729.0</ele><time>2026-04-04T12:53:07.999Z</time></trkpt><trkpt lat="45.745846681191274" lon="11.297505427344955"><ele>727.5</ele><time>2026-04-04T12:53:08.999Z</time></trkpt><trkpt lat="45.74594047539914" lon="11.297606109340817"><ele>726.0</ele><time>2026-04-04T12:53:09.999Z</time></trkpt><trkpt lat="45.745995343325355" lon="11.297685981727174"><ele>726.0</ele><time>2026-04-04T12:53:10.999Z</time></trkpt><trkpt lat="45.74604216836936" lon="11.297779471868004"><ele>726.0</ele><time>2026-04-04T12:53:11.999Z</time></trkpt><trkpt lat="45.746112767032315" lon="11.297739761212078"><ele>726.0</ele><time>2026-04-04T12:53:14.999Z</time></trkpt><trkpt lat="45.74611670419239" lon="11.297602957695661"><ele>726.0</ele><time>2026-04-04T12:53:16.999Z</time></trkpt><trkpt lat="45.746127022434024" lon="11.297507292404651"><ele>726.0</ele><time>2026-04-04T12:53:18.999Z</time></trkpt><trkpt lat="45.746181601276" lon="11.29735170626668"><ele>726.0</ele><time>2026-04-04T12:53:20.999Z</time></trkpt><trkpt lat="45.746213058925875" lon="11.297272727321902"><ele>726.5999999999999</ele><time>2026-04-04T12:53:21.999Z</time></trkpt><trkpt lat="45.74626758728364" lon="11.29711758543618"><ele>727.2</ele><time>2026-04-04T12:53:23.999Z</time></trkpt><trkpt lat="45.74630756423885" lon="11.29696730906616"><ele>727.8</ele><time>2026-04-04T12:53:25.999Z</time></trkpt><trkpt lat="45.7463512166132" lon="11.296836790454776"><ele>728.4000000000001</ele><time>2026-04-04T12:53:27.999Z</time></trkpt><trkpt lat="45.74638078014838" lon="11.296707520396401"><ele>729.0</ele><time>2026-04-04T12:53:29.999Z</time></trkpt><trkpt lat="45.74642670442049" lon="11.296554534797895"><ele>729.0</ele><time>2026-04-04T12:55:39.999Z</time></trkpt><trkpt lat="45.746461751554875" lon="11.296459218930062"><ele>729.0</ele><time>2026-04-04T12:55:40.999Z</time></trkpt><trkpt lat="45.74648508149486" lon="11.296343848368029"><ele>729.0</ele><time>2026-04-04T12:55:41.999Z</time></trkpt><trkpt lat="45.74657461824635" lon="11.29624493288655"><ele>729.0</ele><time>2026-04-04T12:55:42.999Z</time></trkpt><trkpt lat="45.74661090222935" lon="11.29615632264401"><ele>729.0</ele><time>2026-04-04T12:55:43.999Z</time></trkpt><trkpt lat="45.74668876549683" lon="11.296115201436777"><ele>729.0</ele><time>2026-04-04T12:55:45.999Z</time></trkpt><trkpt lat="45.74677043657646" lon="11.296091237938752"><ele>728.0</ele><time>2026-04-04T12:55:46.999Z</time></trkpt><trkpt lat="45.7468542641071" lon="11.296071798995436"><ele>727.0</ele><time>2026-04-04T12:55:47.999Z</time></trkpt><trkpt lat="45.74692363521964" lon="11.296059089437872"><ele>726.0</ele><time>2026-04-04T12:55:48.999Z</time></trkpt><trkpt lat="45.747000021826764" lon="11.296065470967072"><ele>725.0</ele><time>2026-04-04T12:55:49.999Z</time></trkpt><trkpt lat="45.74706639860535" lon="11.29609344126161"><ele>724.0</ele><time>2026-04-04T12:55:50.999Z</time></trkpt><trkpt lat="45.74713845846715" lon="11.296120029257231"><ele>723.0</ele><time>2026-04-04T12:55:51.998Z</time></trkpt><trkpt lat="45.74721681735907" lon="11.296147899727991"><ele>723.0</ele><time>2026-04-04T12:55:52.998Z</time></trkpt><trkpt lat="45.74728305112709" lon="11.2961763313955"><ele>723.0</ele><time>2026-04-04T12:55:53.998Z</time></trkpt><trkpt lat="45.74739146500094" lon="11.296229352148801"><ele>723.0</ele><time>2026-04-04T12:55:55.998Z</time></trkpt><trkpt lat="45.74747687112914" lon="11.296294871004081"><ele>723.0</ele><time>2026-04-04T12:55:56.998Z</time></trkpt><trkpt lat="45.747666290276804" lon="11.296192791874624"><ele>723.0</ele><time>2026-04-04T12:55:57.998Z</time></trkpt><trkpt lat="45.74761568693766" lon="11.295691837178664"><ele>723.0</ele><time>2026-04-04T12:55:58.998Z</time></trkpt><trkpt lat="45.747568992838914" lon="11.295530082284834"><ele>720.0</ele><time>2026-04-04T12:56:01Z</time></trkpt><trkpt lat="45.74755980288335" lon="11.29536879010981"><ele>717.0</ele><time>2026-04-04T12:56:03Z</time></trkpt><trkpt lat="45.7475945978109" lon="11.295275131657615"><ele>714.0</ele><time>2026-04-04T12:56:05Z</time></trkpt><trkpt lat="45.747634282689766" lon="11.295165148072742"><ele>711.0</ele><time>2026-04-04T12:56:07Z</time></trkpt><trkpt lat="45.747658213231034" lon="11.295037282837242"><ele>708.0</ele><time>2026-04-04T12:56:08Z</time></trkpt><trkpt lat="45.747057985364464" lon="11.294281059693645"><ele>708.0</ele><time>2026-04-04T12:56:11Z</time></trkpt><trkpt lat="45.74688549215631" lon="11.294712280275256"><ele>708.0</ele><time>2026-04-04T12:56:17Z</time></trkpt><trkpt lat="45.746937931799955" lon="11.29456015300668"><ele>704.0</ele><time>2026-04-04T12:56:19Z</time></trkpt><trkpt lat="45.746876834856224" lon="11.294480378426492"><ele>700.0</ele><time>2026-04-04T12:56:22Z</time></trkpt><trkpt lat="45.74680387323366" lon="11.29448717541829"><ele>696.0</ele><time>2026-04-04T12:56:24Z</time></trkpt><trkpt lat="45.74673427619294" lon="11.294477905664891"><ele>692.0</ele><time>2026-04-04T12:56:28Z</time></trkpt><trkpt lat="45.746710280767346" lon="11.294393062550132"><ele>688.0</ele><time>2026-04-04T12:56:31Z</time></trkpt><trkpt lat="45.74672874809987" lon="11.294293633352567"><ele>684.0</ele><time>2026-04-04T12:56:37Z</time></trkpt><trkpt lat="45.746642073752916" lon="11.294158405530336"><ele>684.0</ele><time>2026-04-04T12:56:39Z</time></trkpt><trkpt lat="45.74656766548319" lon="11.29405336790397"><ele>684.0</ele><time>2026-04-04T12:56:40Z</time></trkpt><trkpt lat="45.74652071290777" lon="11.293979663326724"><ele>684.0</ele><time>2026-04-04T12:56:41Z</time></trkpt><trkpt lat="45.74650929061225" lon="11.293883585863817"><ele>684.0</ele><time>2026-04-04T12:56:42Z</time></trkpt><trkpt lat="45.746516353970925" lon="11.293766109297197"><ele>684.0</ele><time>2026-04-04T12:56:43Z</time></trkpt><trkpt lat="45.74651029983472" lon="11.293621120143818"><ele>684.0</ele><time>2026-04-04T12:56:44Z</time></trkpt><trkpt lat="45.7464922757858" lon="11.293515645948808"><ele>683.3333333333334</ele><time>2026-04-04T12:56:45Z</time></trkpt><trkpt lat="45.74648132822893" lon="11.293396569810657"><ele>682.6666666666666</ele><time>2026-04-04T12:56:46Z</time></trkpt><trkpt lat="45.74648413545594" lon="11.293264621435924"><ele>682.0</ele><time>2026-04-04T12:56:47Z</time></trkpt><trkpt lat="45.746508377081774" lon="11.293136215912783"><ele>681.3333333333333</ele><time>2026-04-04T12:56:48Z</time></trkpt><trkpt lat="45.746527062991184" lon="11.293034028227435"><ele>680.6666666666666</ele><time>2026-04-04T12:56:49Z</time></trkpt><trkpt lat="45.74654827901279" lon="11.292906896002336"><ele>680.0</ele><time>2026-04-04T12:56:51Z</time></trkpt><trkpt lat="45.746563706474234" lon="11.292800094741954"><ele>681.0</ele><time>2026-04-04T12:57:01.999Z</time></trkpt><trkpt lat="45.74662289693637" lon="11.292722744093375"><ele>682.0</ele><time>2026-04-04T12:57:03.999Z</time></trkpt><trkpt lat="45.74668531081846" lon="11.292636506336514"><ele>683.0</ele><time>2026-04-04T12:57:05.999Z</time></trkpt><trkpt lat="45.74676004359994" lon="11.29256171221815"><ele>684.0</ele><time>2026-04-04T12:57:07.999Z</time></trkpt><trkpt lat="45.7468134672026" lon="11.292497098739185"><ele>685.0</ele><time>2026-04-04T12:57:10.999Z</time></trkpt><trkpt lat="45.74688614850247" lon="11.292427540975343"><ele>686.0</ele><time>2026-04-04T12:57:14.999Z</time></trkpt><trkpt lat="45.74693720550977" lon="11.292297321165176"><ele>684.1666666666666</ele><time>2026-04-04T12:57:16.999Z</time></trkpt><trkpt lat="45.74696829390554" lon="11.292214819062137"><ele>682.3333333333333</ele><time>2026-04-04T12:57:17.999Z</time></trkpt><trkpt lat="45.747004421617376" lon="11.292067674119028"><ele>680.5</ele><time>2026-04-04T12:57:19.999Z</time></trkpt><trkpt lat="45.74702258566267" lon="11.291975910818561"><ele>678.6666666666666</ele><time>2026-04-04T12:57:20.999Z</time></trkpt><trkpt lat="45.74702559874004" lon="11.291880854577094"><ele>676.8333333333334</ele><time>2026-04-04T12:57:22.999Z</time></trkpt><trkpt lat="45.74705555538548" lon="11.291732114356273"><ele>675.0</ele><time>2026-04-04T12:57:26.999Z</time></trkpt><trkpt lat="45.747067556502415" lon="11.291624840371835"><ele>675.0</ele><time>2026-04-04T12:57:27.999Z</time></trkpt><trkpt lat="45.74708326748435" lon="11.291478098689254"><ele>675.0</ele><time>2026-04-04T12:57:28.999Z</time></trkpt><trkpt lat="45.74709221136575" lon="11.291333091444066"><ele>675.0</ele><time>2026-04-04T12:57:29.999Z</time></trkpt><trkpt lat="45.74710256915635" lon="11.291240574377301"><ele>675.0</ele><time>2026-04-04T12:57:30.999Z</time></trkpt><trkpt lat="45.74710703341138" lon="11.291139303517443"><ele>675.0</ele><time>2026-04-04T12:57:34.999Z</time></trkpt><trkpt lat="45.747129974711875" lon="11.291039454408661"><ele>675.0</ele><time>2026-04-04T12:57:38.999Z</time></trkpt><trkpt lat="45.74713845342306" lon="11.290939488373205"><ele>673.0</ele><time>2026-04-04T12:57:41.999Z</time></trkpt><trkpt lat="45.74720162938837" lon="11.290901719754423"><ele>671.0</ele><time>2026-04-04T12:57:45.999Z</time></trkpt><trkpt lat="45.747218767997836" lon="11.290773237253239"><ele>669.0</ele><time>2026-04-04T12:57:48.999Z</time></trkpt><trkpt lat="45.747217141013536" lon="11.290676598144662"><ele>667.0</ele><time>2026-04-04T12:57:49.999Z</time></trkpt><trkpt lat="45.74724062525973" lon="11.290514651529183"><ele>665.0</ele><time>2026-04-04T12:57:51.999Z</time></trkpt><trkpt lat="45.747317639001885" lon="11.290368404438873"><ele>663.8333333333333</ele><time>2026-04-04T12:57:53.999Z</time></trkpt><trkpt lat="45.74734373377754" lon="11.290251502222963"><ele>662.6666666666666</ele><time>2026-04-04T12:57:54.999Z</time></trkpt><trkpt lat="45.74738299153449" lon="11.290176922829303"><ele>661.5</ele><time>2026-04-04T12:57:55.999Z</time></trkpt><trkpt lat="45.74740618746122" lon="11.290055462114175"><ele>660.3333333333334</ele><time>2026-04-04T12:57:57.999Z</time></trkpt><trkpt lat="45.747426282656654" lon="11.289949910249605"><ele>659.1666666666667</ele><time>2026-04-04T12:57:58.998Z</time></trkpt><trkpt lat="45.74743621739337" lon="11.28985193928131"><ele>658.0</ele><time>2026-04-04T12:57:59.998Z</time></trkpt><trkpt lat="45.747471655812454" lon="11.289756666277881"><ele>657.4285714285714</ele><time>2026-04-04T12:58:01.998Z</time></trkpt><trkpt lat="45.747434710583796" lon="11.28968087681123"><ele>656.8571428571429</ele><time>2026-04-04T12:58:04.998Z</time></trkpt><trkpt lat="45.74740557897889" lon="11.289584770699443"><ele>656.2857142857142</ele><time>2026-04-04T12:58:07Z</time></trkpt><trkpt lat="45.74739312033744" lon="11.289486827872526"><ele>655.7142857142858</ele><time>2026-04-04T12:58:08Z</time></trkpt><trkpt lat="45.747381696534575" lon="11.289381472344262"><ele>655.1428571428571</ele><time>2026-04-04T12:58:09Z</time></trkpt><trkpt lat="45.747355973351624" lon="11.28928687914185"><ele>654.5714285714286</ele><time>2026-04-04T12:58:19Z</time></trkpt><trkpt lat="45.747341636861876" lon="11.289196814241162"><ele>654.0</ele><time>2026-04-04T12:58:25Z</time></trkpt><trkpt lat="45.74735160625316" lon="11.28903166011647"><ele>652.0</ele><time>2026-04-04T12:58:28Z</time></trkpt><trkpt lat="45.7473839212803" lon="11.2889059633007"><ele>650.0</ele><time>2026-04-04T12:58:29Z</time></trkpt><trkpt lat="45.74741192660263" lon="11.28881189022933"><ele>648.0</ele><time>2026-04-04T12:58:30Z</time></trkpt><trkpt lat="45.74746025342617" lon="11.288694236474065"><ele>646.0</ele><time>2026-04-04T12:58:32Z</time></trkpt><trkpt lat="45.74751910845822" lon="11.288606628287994"><ele>644.0</ele><time>2026-04-04T12:58:34Z</time></trkpt><trkpt lat="45.747620192155296" lon="11.28855732398837"><ele>645.5</ele><time>2026-04-04T12:58:36Z</time></trkpt><trkpt lat="45.74771057669994" lon="11.28852238884593"><ele>647.0</ele><time>2026-04-04T12:58:37Z</time></trkpt><trkpt lat="45.747787008439275" lon="11.288478882340662"><ele>648.5</ele><time>2026-04-04T12:58:38Z</time></trkpt><trkpt lat="45.74785724333055" lon="11.28844402117231"><ele>650.0</ele><time>2026-04-04T12:58:41Z</time></trkpt><trkpt lat="45.74792807585484" lon="11.28845035633467"><ele>651.5</ele><time>2026-04-04T12:58:50Z</time></trkpt><trkpt lat="45.74800995378358" lon="11.288438713208805"><ele>653.0</ele><time>2026-04-04T12:58:54Z</time></trkpt><trkpt lat="45.7481479161633" lon="11.288414726368234"><ele>653.0</ele><time>2026-04-04T12:58:55.999Z</time></trkpt><trkpt lat="45.74823704445951" lon="11.288396808642469"><ele>653.0</ele><time>2026-04-04T12:58:57.999Z</time></trkpt><trkpt lat="45.74831140517866" lon="11.288411969125894"><ele>653.0</ele><time>2026-04-04T12:58:58.999Z</time></trkpt><trkpt lat="45.74837574378009" lon="11.28845117508746"><ele>653.0</ele><time>2026-04-04T12:58:59.999Z</time></trkpt><trkpt lat="45.74846219724545" lon="11.288456944992198"><ele>653.0</ele><time>2026-04-04T12:59:01.999Z</time></trkpt><trkpt lat="45.748549466699465" lon="11.288430762465742"><ele>653.0</ele><time>2026-04-04T12:59:03.999Z</time></trkpt><trkpt lat="45.74863174932187" lon="11.28845961680118"><ele>654.3333333333333</ele><time>2026-04-04T12:59:07.999Z</time></trkpt><trkpt lat="45.74869896150697" lon="11.288396854119739"><ele>655.6666666666666</ele><time>2026-04-04T12:59:09.999Z</time></trkpt><trkpt lat="45.74875163294534" lon="11.288341981909856"><ele>657.0</ele><time>2026-04-04T12:59:11.999Z</time></trkpt><trkpt lat="45.748793964820074" lon="11.288235964811092"><ele>658.3333333333334</ele><time>2026-04-04T12:59:15.999Z</time></trkpt><trkpt lat="45.7488776276928" lon="11.288137815076682"><ele>659.6666666666667</ele><time>2026-04-04T12:59:17.999Z</time></trkpt><trkpt lat="45.748928458740764" lon="11.288028496726007"><ele>661.0</ele><time>2026-04-04T12:59:21.999Z</time></trkpt><trkpt lat="45.74899456696669" lon="11.287993328020313"><ele>658.5999999999999</ele><time>2026-04-04T12:59:24.999Z</time></trkpt><trkpt lat="45.7490687236213" lon="11.2879346963321"><ele>656.2</ele><time>2026-04-04T12:59:26.999Z</time></trkpt><trkpt lat="45.74911817446676" lon="11.287878011013841"><ele>653.8</ele><time>2026-04-04T12:59:29.999Z</time></trkpt><trkpt lat="45.74916991039598" lon="11.28778049204942"><ele>651.4000000000001</ele><time>2026-04-04T12:59:40.999Z</time></trkpt><trkpt lat="45.74928341281022" lon="11.287888951274416"><ele>649.0</ele><time>2026-04-04T12:59:46.999Z</time></trkpt><trkpt lat="45.74939968829361" lon="11.288011795672048"><ele>651.2</ele><time>2026-04-04T12:59:47.999Z</time></trkpt><trkpt lat="45.74950401382415" lon="11.288200379858798"><ele>653.4000000000001</ele><time>2026-04-04T12:59:48.999Z</time></trkpt><trkpt lat="45.74953743866381" lon="11.288283800427898"><ele>655.6</ele><time>2026-04-04T12:59:49.999Z</time></trkpt><trkpt lat="45.74962463976378" lon="11.288345758433188"><ele>657.8</ele><time>2026-04-04T13:00:05.998Z</time></trkpt><trkpt lat="45.74967074236214" lon="11.288263166054525"><ele>660.0</ele><time>2026-04-04T13:00:14Z</time></trkpt><trkpt lat="45.749733550779894" lon="11.288240078150784"><ele>660.0</ele><time>2026-04-04T13:00:19Z</time></trkpt><trkpt lat="45.7497987286442" lon="11.28825604022386"><ele>660.0</ele><time>2026-04-04T13:00:23Z</time></trkpt><trkpt lat="45.749854480532484" lon="11.288318192280954"><ele>660.0</ele><time>2026-04-04T13:00:31Z</time></trkpt><trkpt lat="45.7498756907588" lon="11.288404677817942"><ele>660.0</ele><time>2026-04-04T13:00:33Z</time></trkpt><trkpt lat="45.74997283022539" lon="11.288446753201054"><ele>660.0</ele><time>2026-04-04T13:00:36Z</time></trkpt><trkpt lat="45.75003133684448" lon="11.288395316710378"><ele>660.0</ele><time>2026-04-04T13:00:37Z</time></trkpt><trkpt lat="45.75013326231217" lon="11.288324092091596"><ele>660.25</ele><time>2026-04-04T13:00:38Z</time></trkpt><trkpt lat="45.750280638047606" lon="11.288215350896921"><ele>660.5</ele><time>2026-04-04T13:00:39Z</time></trkpt><trkpt lat="45.75043555403598" lon="11.288161011688869"><ele>660.75</ele><time>2026-04-04T13:00:40Z</time></trkpt><trkpt lat="45.75052310314222" lon="11.288134219050495"><ele>661.0</ele><time>2026-04-04T13:00:41Z</time></trkpt><trkpt lat="45.75058418243277" lon="11.288104569704775"><ele>660.3333333333334</ele><time>2026-04-04T13:00:42Z</time></trkpt><trkpt lat="45.7506380530983" lon="11.288032292002613"><ele>659.6666666666667</ele><time>2026-04-04T13:00:43Z</time></trkpt><trkpt lat="45.750717525807204" lon="11.288005239279215"><ele>659.0</ele><time>2026-04-04T13:00:44Z</time></trkpt><trkpt lat="45.7507527822975" lon="11.287870466482053"><ele>658.3333333333334</ele><time>2026-04-04T13:00:46Z</time></trkpt><trkpt lat="45.75074566253118" lon="11.287776749498565"><ele>657.6666666666666</ele><time>2026-04-04T13:00:48Z</time></trkpt><trkpt lat="45.750747944435446" lon="11.287664831079953"><ele>657.0</ele><time>2026-04-04T13:00:50Z</time></trkpt><trkpt lat="45.75064026611018" lon="11.287596088575862"><ele>657.0</ele><time>2026-04-04T13:00:52Z</time></trkpt><trkpt lat="45.750535203124365" lon="11.287524227220645"><ele>657.0</ele><time>2026-04-04T13:00:54Z</time></trkpt><trkpt lat="45.750512857656496" lon="11.287418688547477"><ele>657.0</ele><time>2026-04-04T13:00:55.999Z</time></trkpt><trkpt lat="45.75051974300452" lon="11.287318218481971"><ele>657.0</ele><time>2026-04-04T13:01:05.999Z</time></trkpt><trkpt lat="45.750542093139785" lon="11.287181793498126"><ele>657.0</ele><time>2026-04-04T13:01:06.999Z</time></trkpt><trkpt lat="45.75057665271358" lon="11.287049810880973"><ele>657.0</ele><time>2026-04-04T13:01:07.999Z</time></trkpt><trkpt lat="45.750628841167824" lon="11.28690414186508"><ele>657.0</ele><time>2026-04-04T13:01:08.999Z</time></trkpt><trkpt lat="45.75067762034514" lon="11.286720846254065"><ele>657.0</ele><time>2026-04-04T13:01:09.999Z</time></trkpt><trkpt lat="45.75071601831982" lon="11.28656323867937"><ele>657.0</ele><time>2026-04-04T13:01:10.999Z</time></trkpt><trkpt lat="45.750705216545654" lon="11.286402576252945"><ele>657.0</ele><time>2026-04-04T13:01:11.999Z</time></trkpt><trkpt lat="45.75064732245275" lon="11.286261707476983"><ele>657.0</ele><time>2026-04-04T13:01:12.999Z</time></trkpt><trkpt lat="45.7505510016257" lon="11.286147706441234"><ele>657.0</ele><time>2026-04-04T13:01:13.999Z</time></trkpt><trkpt lat="45.75043102395502" lon="11.286070163218287"><ele>657.0</ele><time>2026-04-04T13:01:14.999Z</time></trkpt><trkpt lat="45.75030539567026" lon="11.286012245910111"><ele>654.6</ele><time>2026-04-04T13:01:15.999Z</time></trkpt><trkpt lat="45.75019692609917" lon="11.285962907716398"><ele>652.2</ele><time>2026-04-04T13:01:16.999Z</time></trkpt><trkpt lat="45.75010925557648" lon="11.285897391164982"><ele>649.8</ele><time>2026-04-04T13:01:17.999Z</time></trkpt><trkpt lat="45.75003978044935" lon="11.285862602639202"><ele>647.4</ele><time>2026-04-04T13:01:18.999Z</time></trkpt><trkpt lat="45.75006495247748" lon="11.285667547121482"><ele>645.0</ele><time>2026-04-04T13:02:41Z</time></trkpt><trkpt lat="45.750093314560324" lon="11.285561537028103"><ele>645.0</ele><time>2026-04-04T13:02:42Z</time></trkpt><trkpt lat="45.750088106716674" lon="11.28546107008454"><ele>645.0</ele><time>2026-04-04T13:02:43Z</time></trkpt><trkpt lat="45.750048988829754" lon="11.285363158866822"><ele>645.0</ele><time>2026-04-04T13:02:44Z</time></trkpt><trkpt lat="45.749969224308856" lon="11.285272663524987"><ele>645.0</ele><time>2026-04-04T13:02:45Z</time></trkpt><trkpt lat="45.749897268438154" lon="11.28516065335405"><ele>645.0</ele><time>2026-04-04T13:02:46Z</time></trkpt><trkpt lat="45.749865217638" lon="11.28502578756044"><ele>645.0</ele><time>2026-04-04T13:02:47Z</time></trkpt><trkpt lat="45.74986416155018" lon="11.284892368419907"><ele>645.0</ele><time>2026-04-04T13:02:48Z</time></trkpt><trkpt lat="45.749889658363166" lon="11.2847755090634"><ele>645.0</ele><time>2026-04-04T13:02:49Z</time></trkpt><trkpt lat="45.74995677795596" lon="11.284705533403635"><ele>645.0</ele><time>2026-04-04T13:02:50Z</time></trkpt><trkpt lat="45.750012780779436" lon="11.284628844772401"><ele>645.0</ele><time>2026-04-04T13:02:51Z</time></trkpt><trkpt lat="45.75005994895123" lon="11.28455812627423"><ele>645.0</ele><time>2026-04-04T13:02:52Z</time></trkpt><trkpt lat="45.750120190038636" lon="11.28446608858548"><ele>644.4</ele><time>2026-04-04T13:02:54Z</time></trkpt><trkpt lat="45.750163769485205" lon="11.284348724660344"><ele>643.8</ele><time>2026-04-04T13:03:06Z</time></trkpt><trkpt lat="45.75020247619977" lon="11.284192677929987"><ele>643.2</ele><time>2026-04-04T13:03:07.999Z</time></trkpt><trkpt lat="45.75022075814698" lon="11.284088798586287"><ele>642.6</ele><time>2026-04-04T13:03:08.999Z</time></trkpt><trkpt lat="45.750234508779485" lon="11.283995734030372"><ele>642.0</ele><time>2026-04-04T13:03:09.999Z</time></trkpt><trkpt lat="45.75024635695656" lon="11.283844091245685"><ele>642.4000000000001</ele><time>2026-04-04T13:03:11.999Z</time></trkpt><trkpt lat="45.750203344582474" lon="11.283717168380925"><ele>642.8000000000001</ele><time>2026-04-04T13:03:13.999Z</time></trkpt><trkpt lat="45.75010451508582" lon="11.28364240548824"><ele>643.2</ele><time>2026-04-04T13:03:15.999Z</time></trkpt><trkpt lat="45.75002841421416" lon="11.283577823521508"><ele>643.6</ele><time>2026-04-04T13:03:17.999Z</time></trkpt><trkpt lat="45.750123050789405" lon="11.28360942993486"><ele>644.0</ele><time>2026-04-04T13:03:38.999Z</time></trkpt><trkpt lat="45.750227730556084" lon="11.283699053125208"><ele>648.0</ele><time>2026-04-04T13:03:40.999Z</time></trkpt><trkpt lat="45.75026016932882" lon="11.28380346065955"><ele>652.0</ele><time>2026-04-04T13:03:42.999Z</time></trkpt><trkpt lat="45.75040521904215" lon="11.283837383524057"><ele>656.0</ele><time>2026-04-04T13:03:44.999Z</time></trkpt><trkpt lat="45.750448649426204" lon="11.28394633496992"><ele>660.0</ele><time>2026-04-04T13:03:46.999Z</time></trkpt><trkpt lat="45.75048036236759" lon="11.284037329750989"><ele>664.0</ele><time>2026-04-04T13:03:48.999Z</time></trkpt><trkpt lat="45.750526197757154" lon="11.284146260812342"><ele>664.0</ele><time>2026-04-04T13:03:50.999Z</time></trkpt><trkpt lat="45.750574047290414" lon="11.284247280958505"><ele>664.0</ele><time>2026-04-04T13:03:52.999Z</time></trkpt><trkpt lat="45.7506228875032" lon="11.284340264643216"><ele>664.0</ele><time>2026-04-04T13:03:54.999Z</time></trkpt><trkpt lat="45.750672924956284" lon="11.284436763719008"><ele>664.0</ele><time>2026-04-04T13:03:56.999Z</time></trkpt><trkpt lat="45.750697484822766" lon="11.284526504762074"><ele>664.0</ele><time>2026-04-04T13:03:59.999Z</time></trkpt><trkpt lat="45.75069965392556" lon="11.284624748219764"><ele>664.0</ele><time>2026-04-04T13:04:08.999Z</time></trkpt><trkpt lat="45.75072078875863" lon="11.28477501154806"><ele>663.8000000000001</ele><time>2026-04-04T13:04:10.998Z</time></trkpt><trkpt lat="45.75078062480758" lon="11.284890947101939"><ele>663.6</ele><time>2026-04-04T13:04:12.998Z</time></trkpt><trkpt lat="45.75085743581736" lon="11.284939932579523"><ele>663.4</ele><time>2026-04-04T13:04:14.998Z</time></trkpt><trkpt lat="45.75092414706892" lon="11.284978328463033"><ele>663.2</ele><time>2026-04-04T13:04:16.998Z</time></trkpt><trkpt lat="45.751015480633654" lon="11.285039225463326"><ele>663.0</ele><time>2026-04-04T13:04:18.998Z</time></trkpt><trkpt lat="45.751114342232626" lon="11.28510521430355"><ele>667.8333333333334</ele><time>2026-04-04T13:04:20.998Z</time></trkpt><trkpt lat="45.75119519478282" lon="11.285167999047717"><ele>672.6666666666666</ele><time>2026-04-04T13:04:23Z</time></trkpt><trkpt lat="45.75126960619924" lon="11.285205698751763"><ele>677.5</ele><time>2026-04-04T13:04:26Z</time></trkpt><trkpt lat="45.75131217993808" lon="11.285280475326722"><ele>682.3333333333333</ele><time>2026-04-04T13:04:28Z</time></trkpt><trkpt lat="45.75137328364331" lon="11.285367117383634"><ele>687.1666666666666</ele><time>2026-04-04T13:04:30Z</time></trkpt><trkpt lat="45.7514500196529" lon="11.285370996032349"><ele>692.0</ele><time>2026-04-04T13:04:32Z</time></trkpt><trkpt lat="45.75154773029797" lon="11.285359243568246"><ele>692.0</ele><time>2026-04-04T13:04:34Z</time></trkpt><trkpt lat="45.75163382121374" lon="11.285341865082755"><ele>692.0</ele><time>2026-04-04T13:04:36Z</time></trkpt><trkpt lat="45.75171123844115" lon="11.285388316683443"><ele>692.0</ele><time>2026-04-04T13:04:39Z</time></trkpt><trkpt lat="45.75182021073716" lon="11.285452491960664"><ele>692.0</ele><time>2026-04-04T13:04:41Z</time></trkpt><trkpt lat="45.75193571963955" lon="11.285498086495249"><ele>692.0</ele><time>2026-04-04T13:04:43Z</time></trkpt><trkpt lat="45.751991550626286" lon="11.28554060413929"><ele>691.8</ele><time>2026-04-04T13:04:44Z</time></trkpt><trkpt lat="45.7520638304254" lon="11.285618471108172"><ele>691.6</ele><time>2026-04-04T13:04:46Z</time></trkpt><trkpt lat="45.7521143790517" lon="11.285699440036597"><ele>691.4</ele><time>2026-04-04T13:04:47Z</time></trkpt><trkpt lat="45.75217178632603" lon="11.28574139482217"><ele>691.1999999999999</ele><time>2026-04-04T13:04:48Z</time></trkpt><trkpt lat="45.752302445015275" lon="11.285756002207851"><ele>691.0</ele><time>2026-04-04T13:04:50Z</time></trkpt><trkpt lat="45.75240557113234" lon="11.285857940451631"><ele>691.0</ele><time>2026-04-04T13:04:51Z</time></trkpt><trkpt lat="45.752488853212085" lon="11.28596744717473"><ele>691.0</ele><time>2026-04-04T13:04:52Z</time></trkpt><trkpt lat="45.752585870073894" lon="11.286025302543326"><ele>691.0</ele><time>2026-04-04T13:04:54Z</time></trkpt><trkpt lat="45.75267731911715" lon="11.285953345776361"><ele>691.0</ele><time>2026-04-04T13:04:56Z</time></trkpt><trkpt lat="45.75275028793697" lon="11.285878682280451"><ele>691.0</ele><time>2026-04-04T13:04:57Z</time></trkpt><trkpt lat="45.75284234169188" lon="11.285830056402544"><ele>694.9999999999999</ele><time>2026-04-04T13:04:59Z</time></trkpt><trkpt lat="45.7529031889113" lon="11.285801435887114"><ele>699.0</ele><time>2026-04-04T13:05:01Z</time></trkpt><trkpt lat="45.75296756630725" lon="11.285760692728974"><ele>703.0</ele><time>2026-04-04T13:05:02Z</time></trkpt><trkpt lat="45.753042031549676" lon="11.285727167816416"><ele>707.0</ele><time>2026-04-04T13:05:03Z</time></trkpt><trkpt lat="45.75311531480865" lon="11.285701797589805"><ele>711.0</ele><time>2026-04-04T13:05:04Z</time></trkpt><trkpt lat="45.75318320705965" lon="11.285677062329999"><ele>714.9999999999999</ele><time>2026-04-04T13:05:05Z</time></trkpt><trkpt lat="45.75326376453383" lon="11.285674156221427"><ele>719.0</ele><time>2026-04-04T13:05:07Z</time></trkpt><trkpt lat="45.75335504084421" lon="11.285651331797286"><ele>719.0</ele><time>2026-04-04T13:05:10Z</time></trkpt><trkpt lat="45.753431718272815" lon="11.28565229705941"><ele>719.0</ele><time>2026-04-04T13:05:12Z</time></trkpt><trkpt lat="45.75349418004487" lon="11.285630609856147"><ele>719.0</ele><time>2026-04-04T13:05:12.999Z</time></trkpt><trkpt lat="45.753554913402944" lon="11.285665179726687"><ele>719.0</ele><time>2026-04-04T13:05:14.999Z</time></trkpt><trkpt lat="45.75361738568768" lon="11.285786442706472"><ele>719.0</ele><time>2026-04-04T13:05:16.999Z</time></trkpt><trkpt lat="45.753670284838485" lon="11.285892624010994"><ele>719.0</ele><time>2026-04-04T13:05:18.999Z</time></trkpt><trkpt lat="45.75372439407689" lon="11.28598569591033"><ele>727.8000000000001</ele><time>2026-04-04T13:05:20.999Z</time></trkpt><trkpt lat="45.753781095491355" lon="11.286057003855284"><ele>736.6</ele><time>2026-04-04T13:05:22.999Z</time></trkpt><trkpt lat="45.75387537537285" lon="11.286124689377983"><ele>745.4</ele><time>2026-04-04T13:05:24.999Z</time></trkpt><trkpt lat="45.75396100618719" lon="11.286200073296728"><ele>754.2</ele><time>2026-04-04T13:05:26.999Z</time></trkpt><trkpt lat="45.75405905961262" lon="11.286246457602036"><ele>763.0</ele><time>2026-04-04T13:05:28.999Z</time></trkpt><trkpt lat="45.75413466237599" lon="11.286292110259597"><ele>763.0</ele><time>2026-04-04T13:05:29.999Z</time></trkpt><trkpt lat="45.75419711355493" lon="11.28631068691975"><ele>763.0</ele><time>2026-04-04T13:05:30.999Z</time></trkpt><trkpt lat="45.75427446668721" lon="11.286334900531822"><ele>763.0</ele><time>2026-04-04T13:05:31.999Z</time></trkpt><trkpt lat="45.754345502630095" lon="11.286375951334767"><ele>763.0</ele><time>2026-04-04T13:05:32.999Z</time></trkpt><trkpt lat="45.75432813521584" lon="11.286288184089614"><ele>763.0</ele><time>2026-04-04T13:05:37.999Z</time></trkpt><trkpt lat="45.75428099898065" lon="11.286211407910999"><ele>763.0</ele><time>2026-04-04T13:05:39.999Z</time></trkpt><trkpt lat="45.754354759575925" lon="11.2861889881946"><ele>763.0</ele><time>2026-04-04T13:05:45.999Z</time></trkpt><trkpt lat="45.754443206520776" lon="11.286207790490456"><ele>768.8</ele><time>2026-04-04T13:05:47.999Z</time></trkpt><trkpt lat="45.754421922407204" lon="11.286105140950356"><ele>774.5999999999999</ele><time>2026-04-04T13:05:55.999Z</time></trkpt><trkpt lat="45.75449124507769" lon="11.286086481719211"><ele>780.4000000000001</ele><time>2026-04-04T13:05:58.999Z</time></trkpt><trkpt lat="45.75457750572959" lon="11.286087659300344"><ele>786.2</ele><time>2026-04-04T13:06:01.999Z</time></trkpt><trkpt lat="45.75470513091916" lon="11.286143606735637"><ele>792.0</ele><time>2026-04-04T13:06:03.999Z</time></trkpt><trkpt lat="45.75479219250925" lon="11.28616076389231"><ele>792.0</ele><time>2026-04-04T13:06:05.999Z</time></trkpt><trkpt lat="45.75486168614989" lon="11.286234542309455"><ele>792.0</ele><time>2026-04-04T13:06:07.999Z</time></trkpt><trkpt lat="45.75491318935493" lon="11.28629072486675"><ele>792.0</ele><time>2026-04-04T13:06:08.999Z</time></trkpt><trkpt lat="45.75497840001101" lon="11.286314541114507"><ele>792.0</ele><time>2026-04-04T13:06:09.999Z</time></trkpt><trkpt lat="45.75507628493329" lon="11.28632097831524"><ele>792.0</ele><time>2026-04-04T13:06:11.999Z</time></trkpt><trkpt lat="45.75513739472744" lon="11.286346672644315"><ele>792.0</ele><time>2026-04-04T13:06:12.999Z</time></trkpt><trkpt lat="45.75518689350662" lon="11.286408865434213"><ele>792.0</ele><time>2026-04-04T13:06:14.999Z</time></trkpt><trkpt lat="45.75529999737709" lon="11.286443198746987"><ele>797.6</ele><time>2026-04-04T13:06:17.998Z</time></trkpt><trkpt lat="45.75540072423301" lon="11.286424635100254"><ele>803.2</ele><time>2026-04-04T13:06:19.998Z</time></trkpt><trkpt lat="45.755404915607805" lon="11.286302612540466"><ele>808.8</ele><time>2026-04-04T13:06:21.998Z</time></trkpt><trkpt lat="45.75537444232478" lon="11.28614090023668"><ele>814.4</ele><time>2026-04-04T13:06:23.998Z</time></trkpt><trkpt lat="45.75544189305305" lon="11.286031482585233"><ele>820.0</ele><time>2026-04-04T13:06:25.998Z</time></trkpt><trkpt lat="45.755578889220445" lon="11.286038592889179"><ele>819.9999999999999</ele><time>2026-04-04T13:06:28Z</time></trkpt><trkpt lat="45.75566656382343" lon="11.286088775064869"><ele>820.0</ele><time>2026-04-04T13:06:29Z</time></trkpt><trkpt lat="45.755738529615506" lon="11.286169750628108"><ele>820.0</ele><time>2026-04-04T13:06:30Z</time></trkpt><trkpt lat="45.75580184441855" lon="11.286257593878794"><ele>820.0</ele><time>2026-04-04T13:06:31Z</time></trkpt><trkpt lat="45.75585002270826" lon="11.286349406256749"><ele>819.9999999999999</ele><time>2026-04-04T13:06:32Z</time></trkpt><trkpt lat="45.75588644056193" lon="11.286435914974234"><ele>820.0</ele><time>2026-04-04T13:06:33Z</time></trkpt><trkpt lat="45.75591377434041" lon="11.286525863373402"><ele>817.4999999999999</ele><time>2026-04-04T13:06:34Z</time></trkpt><trkpt lat="45.75591280382229" lon="11.286660025428526"><ele>815.0</ele><time>2026-04-04T13:06:36Z</time></trkpt><trkpt lat="45.75596313435882" lon="11.286578968941429"><ele>812.5</ele><time>2026-04-04T13:06:42Z</time></trkpt><trkpt lat="45.75599651684725" lon="11.286461112618664"><ele>810.0</ele><time>2026-04-04T13:06:43Z</time></trkpt><trkpt lat="45.756037865880394" lon="11.286334483227758"><ele>807.4999999999999</ele><time>2026-04-04T13:06:44Z</time></trkpt><trkpt lat="45.7560717351903" lon="11.286222175123688"><ele>805.0</ele><time>2026-04-04T13:06:45Z</time></trkpt><trkpt lat="45.756112379318985" lon="11.286081856973583"><ele>812.8333333333333</ele><time>2026-04-04T13:06:47Z</time></trkpt><trkpt lat="45.75613898935859" lon="11.285989200937822"><ele>820.6666666666666</ele><time>2026-04-04T13:06:49Z</time></trkpt><trkpt lat="45.75617141335936" lon="11.285908416289416"><ele>828.5</ele><time>2026-04-04T13:06:52Z</time></trkpt><trkpt lat="45.756249919762425" lon="11.28595056863218"><ele>836.3333333333333</ele><time>2026-04-04T13:07:05Z</time></trkpt><trkpt lat="45.75633655696466" lon="11.2859498515496"><ele>844.1666666666666</ele><time>2026-04-04T13:07:07Z</time></trkpt><trkpt lat="45.75641328587138" lon="11.286007241971456"><ele>852.0</ele><time>2026-04-04T13:07:10Z</time></trkpt><trkpt lat="45.75645323100541" lon="11.286098325654653"><ele>852.0</ele><time>2026-04-04T13:07:12Z</time></trkpt><trkpt lat="45.756452357045426" lon="11.28620059531829"><ele>852.0</ele><time>2026-04-04T13:07:13.999Z</time></trkpt><trkpt lat="45.75645403079594" lon="11.286328389551732"><ele>852.0</ele><time>2026-04-04T13:07:15.999Z</time></trkpt><trkpt lat="45.75647542728698" lon="11.286461607312013"><ele>852.0</ele><time>2026-04-04T13:07:17.999Z</time></trkpt><trkpt lat="45.75649209137576" lon="11.286592609939477"><ele>852.0</ele><time>2026-04-04T13:07:19.999Z</time></trkpt><trkpt lat="45.75656217489231" lon="11.286663742365388"><ele>852.0</ele><time>2026-04-04T13:07:22.999Z</time></trkpt><trkpt lat="45.75662593305547" lon="11.286757713481567"><ele>852.0</ele><time>2026-04-04T13:07:23.999Z</time></trkpt><trkpt lat="45.75670376645102" lon="11.286793673194888"><ele>852.0</ele><time>2026-04-04T13:07:25.999Z</time></trkpt><trkpt lat="45.75678457082594" lon="11.286775860455364"><ele>852.0</ele><time>2026-04-04T13:07:27.999Z</time></trkpt><trkpt lat="45.756824368839276" lon="11.28667896320562"><ele>852.0</ele><time>2026-04-04T13:07:29.999Z</time></trkpt><trkpt lat="45.75684867138509" lon="11.286462670969607"><ele>852.0</ele><time>2026-04-04T13:07:31.999Z</time></trkpt><trkpt lat="45.75685406152797" lon="11.286296334048906"><ele>852.0</ele><time>2026-04-04T13:07:32.999Z</time></trkpt><trkpt lat="45.756863772186904" lon="11.285997408684608"><ele>852.0</ele><time>2026-04-04T13:07:33.999Z</time></trkpt><trkpt lat="45.756829469541216" lon="11.285758001942371"><ele>852.0</ele><time>2026-04-04T13:07:34.999Z</time></trkpt><trkpt lat="45.75681159707633" lon="11.285570550846405"><ele>856.25</ele><time>2026-04-04T13:07:35.999Z</time></trkpt><trkpt lat="45.75677108383906" lon="11.285399927770886"><ele>860.5</ele><time>2026-04-04T13:07:36.999Z</time></trkpt><trkpt lat="45.75671065158913" lon="11.285259564641063"><ele>864.75</ele><time>2026-04-04T13:07:37.999Z</time></trkpt><trkpt lat="45.75665901782079" lon="11.285094917954288"><ele>869.0</ele><time>2026-04-04T13:07:38.999Z</time></trkpt><trkpt lat="45.756609011852234" lon="11.284907537987204"><ele>873.0</ele><time>2026-04-04T13:07:39.999Z</time></trkpt><trkpt lat="45.75656566821471" lon="11.284721785655346"><ele>877.0</ele><time>2026-04-04T13:07:40.999Z</time></trkpt><trkpt lat="45.75655177985246" lon="11.284521355519058"><ele>881.0</ele><time>2026-04-04T13:07:41.999Z</time></trkpt><trkpt lat="45.756534855786" lon="11.284320096625322"><ele>885.0</ele><time>2026-04-04T13:07:42.999Z</time></trkpt><trkpt lat="45.75652238656725" lon="11.284137341552473"><ele>886.75</ele><time>2026-04-04T13:07:43.999Z</time></trkpt><trkpt lat="45.75651154557138" lon="11.283929283912643"><ele>888.5</ele><time>2026-04-04T13:07:44.999Z</time></trkpt><trkpt lat="45.75648897890109" lon="11.28372433441636"><ele>890.25</ele><time>2026-04-04T13:07:45.999Z</time></trkpt><trkpt lat="45.75647811520646" lon="11.283531832336228"><ele>892.0</ele><time>2026-04-04T13:07:46.999Z</time></trkpt><trkpt lat="45.756462102514256" lon="11.283347719516684"><ele>892.0</ele><time>2026-04-04T13:07:47.999Z</time></trkpt><trkpt lat="45.75642923576763" lon="11.283179065479958"><ele>892.0</ele><time>2026-04-04T13:07:48.999Z</time></trkpt><trkpt lat="45.75639383600489" lon="11.28303273317302"><ele>892.0</ele><time>2026-04-04T13:07:49.999Z</time></trkpt><trkpt lat="45.756358165377286" lon="11.282909199697462"><ele>892.0</ele><time>2026-04-04T13:07:50.999Z</time></trkpt><trkpt lat="45.756332044993314" lon="11.282785589273631"><ele>892.0</ele><time>2026-04-04T13:07:51.999Z</time></trkpt><trkpt lat="45.756376497515745" lon="11.282662065871351"><ele>891.75</ele><time>2026-04-04T13:07:52.999Z</time></trkpt><trkpt lat="45.756407262456406" lon="11.282491965434183"><ele>891.5</ele><time>2026-04-04T13:07:53.999Z</time></trkpt><trkpt lat="45.75642422898061" lon="11.28228538347353"><ele>891.25</ele><time>2026-04-04T13:07:54.999Z</time></trkpt><trkpt lat="45.756424906235765" lon="11.282134267876573"><ele>891.0</ele><time>2026-04-04T13:07:55.999Z</time></trkpt><trkpt lat="45.75643373876531" lon="11.282011001929892"><ele>891.0</ele><time>2026-04-04T13:07:56.999Z</time></trkpt><trkpt lat="45.75643598927363" lon="11.281920793074045"><ele>890.9999999999999</ele><time>2026-04-04T13:07:57.999Z</time></trkpt><trkpt lat="45.756445244143485" lon="11.28178122272259"><ele>890.9999999999999</ele><time>2026-04-04T13:07:59.999Z</time></trkpt><trkpt lat="45.75645204834353" lon="11.281689848457164"><ele>891.0</ele><time>2026-04-04T13:08:01.999Z</time></trkpt><trkpt lat="45.756601169308894" lon="11.281727530506979"><ele>891.0</ele><time>2026-04-04T13:08:08.999Z</time></trkpt><trkpt lat="45.75669468345809" lon="11.281795293780739"><ele>891.0</ele><time>2026-04-04T13:08:10.999Z</time></trkpt><trkpt lat="45.75678245861331" lon="11.28184482130131"><ele>891.0</ele><time>2026-04-04T13:08:12.999Z</time></trkpt><trkpt lat="45.75686377675224" lon="11.281935411278589"><ele>891.0</ele><time>2026-04-04T13:08:14.999Z</time></trkpt><trkpt lat="45.7569245579862" lon="11.281970541234687"><ele>891.0</ele><time>2026-04-04T13:08:16.999Z</time></trkpt><trkpt lat="45.75698809724346" lon="11.281957484609054"><ele>891.0</ele><time>2026-04-04T13:08:20.998Z</time></trkpt><trkpt lat="45.75706372111523" lon="11.28192923554512"><ele>891.0</ele><time>2026-04-04T13:08:22.998Z</time></trkpt><trkpt lat="45.757127983352966" lon="11.281969860217515"><ele>895.8333333333334</ele><time>2026-04-04T13:08:23.998Z</time></trkpt><trkpt lat="45.75719998025171" lon="11.282025447870135"><ele>900.6666666666667</ele><time>2026-04-04T13:08:24.998Z</time></trkpt><trkpt lat="45.75726302737639" lon="11.28207713774455"><ele>905.5</ele><time>2026-04-04T13:08:25.998Z</time></trkpt><trkpt lat="45.75733793390854" lon="11.282070203752335"><ele>910.3333333333334</ele><time>2026-04-04T13:08:28.998Z</time></trkpt><trkpt lat="45.75739071484632" lon="11.281964883205022"><ele>915.1666666666667</ele><time>2026-04-04T13:08:30.998Z</time></trkpt><trkpt lat="45.75749271133877" lon="11.281930240305815"><ele>920.0</ele><time>2026-04-04T13:08:33Z</time></trkpt><trkpt lat="45.757551584747596" lon="11.28197048304546"><ele>920.0</ele><time>2026-04-04T13:08:36Z</time></trkpt><trkpt lat="45.75762574973774" lon="11.281877634272137"><ele>920.0</ele><time>2026-04-04T13:08:38Z</time></trkpt><trkpt lat="45.757721326249786" lon="11.281798735474037"><ele>920.0</ele><time>2026-04-04T13:08:40Z</time></trkpt><trkpt lat="45.75778752662768" lon="11.281774609931457"><ele>920.0</ele><time>2026-04-04T13:08:41Z</time></trkpt><trkpt lat="45.75790408389816" lon="11.281734037050445"><ele>920.0</ele><time>2026-04-04T13:08:43Z</time></trkpt><trkpt lat="45.75797982616242" lon="11.281632225416725"><ele>925.5000000000001</ele><time>2026-04-04T13:08:45Z</time></trkpt><trkpt lat="45.75802568803892" lon="11.281548662334968"><ele>931.0</ele><time>2026-04-04T13:08:46Z</time></trkpt><trkpt lat="45.758075951653964" lon="11.281491779384705"><ele>936.5</ele><time>2026-04-04T13:08:47Z</time></trkpt><trkpt lat="45.75816404548732" lon="11.281384906789112"><ele>942.0</ele><time>2026-04-04T13:08:49Z</time></trkpt><trkpt lat="45.75821784395881" lon="11.28129931483835"><ele>947.5000000000001</ele><time>2026-04-04T13:08:51Z</time></trkpt><trkpt lat="45.75827680335941" lon="11.281244654399666"><ele>953.0</ele><time>2026-04-04T13:08:53Z</time></trkpt><trkpt lat="45.75829518359402" lon="11.281153832015885"><ele>953.0000000000001</ele><time>2026-04-04T13:08:55Z</time></trkpt><trkpt lat="45.758365415571134" lon="11.281130902636104"><ele>953.0</ele><time>2026-04-04T13:08:57Z</time></trkpt><trkpt lat="45.758431944599" lon="11.281038903355839"><ele>953.0</ele><time>2026-04-04T13:09:00Z</time></trkpt><trkpt lat="45.7584860490221" lon="11.280983221385146"><ele>953.0</ele><time>2026-04-04T13:09:01Z</time></trkpt><trkpt lat="45.75855444109559" lon="11.280952575728158"><ele>953.0000000000001</ele><time>2026-04-04T13:09:03Z</time></trkpt><trkpt lat="45.7586543558446" lon="11.280923931175298"><ele>953.0</ele><time>2026-04-04T13:09:05Z</time></trkpt><trkpt lat="45.75871351702453" lon="11.280886667871053"><ele>955.1666666666667</ele><time>2026-04-04T13:09:06Z</time></trkpt><trkpt lat="45.758794714080686" lon="11.280856557338867"><ele>957.3333333333334</ele><time>2026-04-04T13:09:10Z</time></trkpt><trkpt lat="45.75886825799894" lon="11.280801983050534"><ele>959.5</ele><time>2026-04-04T13:09:12Z</time></trkpt><trkpt lat="45.75895192979983" lon="11.280708488808349"><ele>961.6666666666667</ele><time>2026-04-04T13:09:14Z</time></trkpt><trkpt lat="45.75903342603838" lon="11.280661750374723"><ele>963.8333333333334</ele><time>2026-04-04T13:09:16Z</time></trkpt><trkpt lat="45.759100084352916" lon="11.280608282408416"><ele>966.0</ele><time>2026-04-04T13:09:18Z</time></trkpt><trkpt lat="45.75919767389677" lon="11.280551904758685"><ele>966.0</ele><time>2026-04-04T13:09:20Z</time></trkpt><trkpt lat="45.759256082916465" lon="11.280502974139246"><ele>966.0</ele><time>2026-04-04T13:09:21Z</time></trkpt><trkpt lat="45.759335371574146" lon="11.28046202754219"><ele>966.0</ele><time>2026-04-04T13:09:23.999Z</time></trkpt><trkpt lat="45.759399364204185" lon="11.28043403228651"><ele>966.0</ele><time>2026-04-04T13:09:24.999Z</time></trkpt><trkpt lat="45.75949448964784" lon="11.2804125108277"><ele>966.0</ele><time>2026-04-04T13:09:26.999Z</time></trkpt><trkpt lat="45.75957717060137" lon="11.28033865992975"><ele>966.0</ele><time>2026-04-04T13:09:28.999Z</time></trkpt><trkpt lat="45.75964987641955" lon="11.280313014894238"><ele>970.2857142857142</ele><time>2026-04-04T13:09:30.999Z</time></trkpt><trkpt lat="45.75973463940939" lon="11.280307753832455"><ele>974.5714285714286</ele><time>2026-04-04T13:09:34.999Z</time></trkpt><trkpt lat="45.75980602633503" lon="11.280244727512482"><ele>978.8571428571429</ele><time>2026-04-04T13:09:37.999Z</time></trkpt><trkpt lat="45.75986399379027" lon="11.280194249922191"><ele>983.1428571428571</ele><time>2026-04-04T13:09:39.999Z</time></trkpt><trkpt lat="45.75992222629113" lon="11.280150714414038"><ele>987.4285714285713</ele><time>2026-04-04T13:09:43.999Z</time></trkpt><trkpt lat="45.75999334898723" lon="11.280109855443387"><ele>991.7142857142857</ele><time>2026-04-04T13:09:46.999Z</time></trkpt><trkpt lat="45.76005330872676" lon="11.280079573166287"><ele>996.0</ele><time>2026-04-04T13:09:49.999Z</time></trkpt><trkpt lat="45.76011773552747" lon="11.280099964298536"><ele>996.0</ele><time>2026-04-04T13:09:52.999Z</time></trkpt><trkpt lat="45.7601718366886" lon="11.280151611728373"><ele>996.0</ele><time>2026-04-04T13:09:54.999Z</time></trkpt><trkpt lat="45.76024925455422" lon="11.280137745081399"><ele>996.0</ele><time>2026-04-04T13:09:57.999Z</time></trkpt><trkpt lat="45.76035959614031" lon="11.280191385819947"><ele>996.0</ele><time>2026-04-04T13:14:00.999Z</time></trkpt><trkpt lat="45.760425821533765" lon="11.280172448889907"><ele>996.0</ele><time>2026-04-04T13:14:04.999Z</time></trkpt><trkpt lat="45.76051180965119" lon="11.280136075440492"><ele>996.0</ele><time>2026-04-04T13:14:06.999Z</time></trkpt><trkpt lat="45.76067060045801" lon="11.280100281403042"><ele>1003.25</ele><time>2026-04-04T13:14:08.999Z</time></trkpt><trkpt lat="45.76079515085086" lon="11.280085784361432"><ele>1010.5</ele><time>2026-04-04T13:14:09.999Z</time></trkpt><trkpt lat="45.76094237013389" lon="11.28009282830864"><ele>1017.75</ele><time>2026-04-04T13:14:10.999Z</time></trkpt><trkpt lat="45.76108181041362" lon="11.28009280634924"><ele>1025.0</ele><time>2026-04-04T13:14:11.999Z</time></trkpt><trkpt lat="45.761238409985395" lon="11.280109562086098"><ele>1029.75</ele><time>2026-04-04T13:14:12.999Z</time></trkpt><trkpt lat="45.76140301020683" lon="11.280091044699773"><ele>1034.5</ele><time>2026-04-04T13:14:13.999Z</time></trkpt><trkpt lat="45.76151404225704" lon="11.280097322351027"><ele>1039.25</ele><time>2026-04-04T13:14:14.999Z</time></trkpt><trkpt lat="45.76165914707233" lon="11.280130121508936"><ele>1044.0</ele><time>2026-04-04T13:14:16.999Z</time></trkpt><trkpt lat="45.76176891298364" lon="11.280170646285324"><ele>1046.0</ele><time>2026-04-04T13:14:17.999Z</time></trkpt><trkpt lat="45.76186715931028" lon="11.280133890764931"><ele>1048.0</ele><time>2026-04-04T13:14:18.999Z</time></trkpt><trkpt lat="45.761970545527895" lon="11.280025723848212"><ele>1050.0</ele><time>2026-04-04T13:14:19.999Z</time></trkpt><trkpt lat="45.762090170683855" lon="11.27999042612206"><ele>1052.0</ele><time>2026-04-04T13:14:20.999Z</time></trkpt><trkpt lat="45.76218365565258" lon="11.279978495857206"><ele>1054.0</ele><time>2026-04-04T13:14:21.999Z</time></trkpt><trkpt lat="45.76226789151497" lon="11.279993361247751"><ele>1054.0</ele><time>2026-04-04T13:14:22.999Z</time></trkpt><trkpt lat="45.762358838446666" lon="11.27999892467161"><ele>1054.0</ele><time>2026-04-04T13:14:23.999Z</time></trkpt><trkpt lat="45.762497972905095" lon="11.279985888488866"><ele>1054.0</ele><time>2026-04-04T13:14:24.999Z</time></trkpt><trkpt lat="45.76263126919048" lon="11.279962607022593"><ele>1054.0</ele><time>2026-04-04T13:14:26.999Z</time></trkpt><trkpt lat="45.76271128490047" lon="11.279981984969627"><ele>1054.0</ele><time>2026-04-04T13:14:28.999Z</time></trkpt><trkpt lat="45.76269526505136" lon="11.280104451141062"><ele>1054.0</ele><time>2026-04-04T13:14:30.999Z</time></trkpt><trkpt lat="45.762567923619336" lon="11.280183239719614"><ele>1054.0</ele><time>2026-04-04T13:14:32.999Z</time></trkpt><trkpt lat="45.76245525736856" lon="11.280260141857942"><ele>1054.0</ele><time>2026-04-04T13:14:34.999Z</time></trkpt><trkpt lat="45.76239825205874" lon="11.280332639367762"><ele>1054.0</ele><time>2026-04-04T13:14:35.999Z</time></trkpt><trkpt lat="45.76231824911238" lon="11.280381549489535"><ele>1054.0</ele><time>2026-04-04T13:14:36.999Z</time></trkpt><trkpt lat="45.76223214479463" lon="11.280415947859138"><ele>1054.0</ele><time>2026-04-04T13:14:37.999Z</time></trkpt><trkpt lat="45.76214350502523" lon="11.280440916145881"><ele>1054.0</ele><time>2026-04-04T13:14:38.999Z</time></trkpt><trkpt lat="45.76207632798238" lon="11.280518522504744"><ele>1054.0</ele><time>2026-04-04T13:14:39.999Z</time></trkpt><trkpt lat="45.76204054385775" lon="11.280638434467297"><ele>1054.0</ele><time>2026-04-04T13:14:40.999Z</time></trkpt><trkpt lat="45.762007017291424" lon="11.280775535479341"><ele>1054.0</ele><time>2026-04-04T13:14:41.999Z</time></trkpt><trkpt lat="45.76195683486625" lon="11.280908528406764"><ele>1060.4</ele><time>2026-04-04T13:14:42.999Z</time></trkpt><trkpt lat="45.76188385309911" lon="11.280985108362342"><ele>1066.8000000000002</ele><time>2026-04-04T13:14:43.999Z</time></trkpt><trkpt lat="45.76185237010612" lon="11.281087815895548"><ele>1073.1999999999998</ele><time>2026-04-04T13:14:45.999Z</time></trkpt><trkpt lat="45.76193207652337" lon="11.281095227090297"><ele>1079.6</ele><time>2026-04-04T13:14:47.998Z</time></trkpt><trkpt lat="45.762046064902414" lon="11.2809337532462"><ele>1086.0</ele><time>2026-04-04T13:14:49.998Z</time></trkpt><trkpt lat="45.76215385286267" lon="11.280816606026125"><ele>1089.0</ele><time>2026-04-04T13:14:51Z</time></trkpt><trkpt lat="45.762237183118785" lon="11.280748095829303"><ele>1092.0</ele><time>2026-04-04T13:14:52Z</time></trkpt><trkpt lat="45.76232779160624" lon="11.280745899314297"><ele>1095.0</ele><time>2026-04-04T13:14:53Z</time></trkpt><trkpt lat="45.76242824508389" lon="11.280760092627693"><ele>1098.0</ele><time>2026-04-04T13:14:54Z</time></trkpt><trkpt lat="45.762552972544604" lon="11.280779795266255"><ele>1101.0</ele><time>2026-04-04T13:14:55Z</time></trkpt><trkpt lat="45.76266868753622" lon="11.280790769771532"><ele>1102.2</ele><time>2026-04-04T13:14:56Z</time></trkpt><trkpt lat="45.76277915342422" lon="11.280784585590379"><ele>1103.3999999999999</ele><time>2026-04-04T13:14:57Z</time></trkpt><trkpt lat="45.76286864618947" lon="11.28079364669885"><ele>1104.6</ele><time>2026-04-04T13:14:58Z</time></trkpt><trkpt lat="45.76298028150281" lon="11.280922150847744"><ele>1105.8</ele><time>2026-04-04T13:15:00Z</time></trkpt><trkpt lat="45.76304414597283" lon="11.281003660245691"><ele>1107.0</ele><time>2026-04-04T13:15:01Z</time></trkpt><trkpt lat="45.76312127271007" lon="11.281101981640573"><ele>1107.0</ele><time>2026-04-04T13:15:02Z</time></trkpt><trkpt lat="45.763218500372474" lon="11.281171490274623"><ele>1107.0</ele><time>2026-04-04T13:15:03Z</time></trkpt><trkpt lat="45.76333605490367" lon="11.281198229875077"><ele>1107.0</ele><time>2026-04-04T13:15:04Z</time></trkpt><trkpt lat="45.763435875033515" lon="11.281192420373962"><ele>1107.0</ele><time>2026-04-04T13:15:05Z</time></trkpt><trkpt lat="45.76352793322436" lon="11.28119055595364"><ele>1107.0</ele><time>2026-04-04T13:15:06Z</time></trkpt><trkpt lat="45.76359596519445" lon="11.281232241789416"><ele>1107.0</ele><time>2026-04-04T13:15:07Z</time></trkpt><trkpt lat="45.76365063101551" lon="11.281281467153486"><ele>1107.0</ele><time>2026-04-04T13:15:08Z</time></trkpt><trkpt lat="45.76371204352071" lon="11.28133578433316"><ele>1107.0</ele><time>2026-04-04T13:15:09Z</time></trkpt><trkpt lat="45.7637917208215" lon="11.281358606492347"><ele>1107.0</ele><time>2026-04-04T13:15:10Z</time></trkpt><trkpt lat="45.7638788482315" lon="11.281341229947726"><ele>1107.0</ele><time>2026-04-04T13:15:11Z</time></trkpt><trkpt lat="45.763982593309976" lon="11.28130037348868"><ele>1107.0</ele><time>2026-04-04T13:15:12Z</time></trkpt><trkpt lat="45.76410698405005" lon="11.281315790374897"><ele>1107.0</ele><time>2026-04-04T13:15:13Z</time></trkpt><trkpt lat="45.76419407578833" lon="11.28133534746191"><ele>1107.0</ele><time>2026-04-04T13:15:14Z</time></trkpt><trkpt lat="45.76426900204127" lon="11.281373607678434"><ele>1107.0</ele><time>2026-04-04T13:15:15Z</time></trkpt><trkpt lat="45.7643424586108" lon="11.281374504629465"><ele>1107.0</ele><time>2026-04-04T13:15:16Z</time></trkpt><trkpt lat="45.764414676889956" lon="11.281341188325392"><ele>1107.0</ele><time>2026-04-04T13:15:17Z</time></trkpt><trkpt lat="45.7644868872218" lon="11.281263202141073"><ele>1107.0</ele><time>2026-04-04T13:15:18Z</time></trkpt><trkpt lat="45.76457143513845" lon="11.281210755417867"><ele>1107.6666666666667</ele><time>2026-04-04T13:15:19Z</time></trkpt><trkpt lat="45.764637706159895" lon="11.28120213652234"><ele>1108.3333333333333</ele><time>2026-04-04T13:15:20Z</time></trkpt><trkpt lat="45.764715687166266" lon="11.281227052081121"><ele>1109.0</ele><time>2026-04-04T13:15:21Z</time></trkpt><trkpt lat="45.76480334167577" lon="11.281239573338302"><ele>1109.6666666666665</ele><time>2026-04-04T13:15:22Z</time></trkpt><trkpt lat="45.764880775388626" lon="11.281246357836862"><ele>1110.3333333333333</ele><time>2026-04-04T13:15:23Z</time></trkpt><trkpt lat="45.76495132884737" lon="11.281260100616915"><ele>1111.0</ele><time>2026-04-04T13:15:24Z</time></trkpt><trkpt lat="45.76502114290254" lon="11.281288033576391"><ele>1111.0</ele><time>2026-04-04T13:15:25Z</time></trkpt><trkpt lat="45.765108947325814" lon="11.28130414073039"><ele>1111.0</ele><time>2026-04-04T13:15:27Z</time></trkpt><trkpt lat="45.76502343815549" lon="11.281370398316884"><ele>1111.0</ele><time>2026-04-04T13:16:28.999Z</time></trkpt><trkpt lat="45.76507965949199" lon="11.28145175929963"><ele>1111.0</ele><time>2026-04-04T13:16:40.999Z</time></trkpt><trkpt lat="45.765188362700236" lon="11.281479294056133"><ele>1111.0</ele><time>2026-04-04T13:16:43.999Z</time></trkpt><trkpt lat="45.76524829867749" lon="11.281536007561469"><ele>1111.0</ele><time>2026-04-04T13:16:46.999Z</time></trkpt><trkpt lat="45.76529942018135" lon="11.281639771820444"><ele>1116.0</ele><time>2026-04-04T13:16:49.999Z</time></trkpt><trkpt lat="45.76535544067284" lon="11.281751653652378"><ele>1121.0</ele><time>2026-04-04T13:16:51.999Z</time></trkpt><trkpt lat="45.76539474796728" lon="11.281848677415054"><ele>1126.0</ele><time>2026-04-04T13:16:53.999Z</time></trkpt><trkpt lat="45.76539112758894" lon="11.28195812676462"><ele>1131.0</ele><time>2026-04-04T13:16:57Z</time></trkpt><trkpt lat="45.76533111857657" lon="11.282000989640508"><ele>1136.0</ele><time>2026-04-04T13:17:09Z</time></trkpt><trkpt lat="45.765333157012044" lon="11.282107108020037"><ele>1141.0</ele><time>2026-04-04T13:17:18Z</time></trkpt><trkpt lat="45.765291721278516" lon="11.282204837628337"><ele>1142.5714285714287</ele><time>2026-04-04T13:17:22Z</time></trkpt><trkpt lat="45.76524520391216" lon="11.282268687780661"><ele>1144.142857142857</ele><time>2026-04-04T13:17:25Z</time></trkpt><trkpt lat="45.76518252260152" lon="11.282224893098505"><ele>1145.7142857142858</ele><time>2026-04-04T13:17:28Z</time></trkpt><trkpt lat="45.765128305794576" lon="11.2822767263645"><ele>1147.2857142857142</ele><time>2026-04-04T13:17:32Z</time></trkpt><trkpt lat="45.76509089660019" lon="11.282371615423662"><ele>1148.857142857143</ele><time>2026-04-04T13:17:35Z</time></trkpt><trkpt lat="45.76502767343341" lon="11.282335096214918"><ele>1150.4285714285716</ele><time>2026-04-04T13:17:39Z</time></trkpt><trkpt lat="45.76495285209451" lon="11.282332417571281"><ele>1152.0</ele><time>2026-04-04T13:17:50Z</time></trkpt><trkpt lat="45.76493221303048" lon="11.282434384051358"><ele>1158.2857142857144</ele><time>2026-04-04T13:17:54.999Z</time></trkpt><trkpt lat="45.76488154937183" lon="11.282493124875128"><ele>1164.5714285714287</ele><time>2026-04-04T13:18:01.999Z</time></trkpt><trkpt lat="45.76484275093935" lon="11.282570934499054"><ele>1170.857142857143</ele><time>2026-04-04T13:18:07.999Z</time></trkpt><trkpt lat="45.76484303658671" lon="11.282661940143457"><ele>1177.1428571428573</ele><time>2026-04-04T13:18:11.999Z</time></trkpt><trkpt lat="45.764838940056364" lon="11.28275232985001"><ele>1183.4285714285716</ele><time>2026-04-04T13:18:18.999Z</time></trkpt><trkpt lat="45.7647852089237" lon="11.282817233067409"><ele>1189.7142857142858</ele><time>2026-04-04T13:18:27.999Z</time></trkpt><trkpt lat="45.764710910996435" lon="11.28281385853923"><ele>1196.0</ele><time>2026-04-04T13:18:30.999Z</time></trkpt><trkpt lat="45.76461909401604" lon="11.282790354863849"><ele>1196.0</ele><time>2026-04-04T13:18:32.999Z</time></trkpt><trkpt lat="45.764555763588696" lon="11.282834363393142"><ele>1196.0</ele><time>2026-04-04T13:18:35.999Z</time></trkpt><trkpt lat="45.764450828418575" lon="11.28286116002072"><ele>1196.0</ele><time>2026-04-04T13:25:48Z</time></trkpt><trkpt lat="45.76438282059342" lon="11.282922572094133"><ele>1196.0</ele><time>2026-04-04T13:25:51Z</time></trkpt><trkpt lat="45.76432608813551" lon="11.282971052221836"><ele>1196.0</ele><time>2026-04-04T13:25:53Z</time></trkpt><trkpt lat="45.764251142056125" lon="11.283039357611994"><ele>1196.0</ele><time>2026-04-04T13:25:58Z</time></trkpt><trkpt lat="45.76417146625826" lon="11.283068127191465"><ele>1197.3333333333335</ele><time>2026-04-04T13:26:00Z</time></trkpt><trkpt lat="45.76407588962636" lon="11.283077147537409"><ele>1198.6666666666667</ele><time>2026-04-04T13:26:02Z</time></trkpt><trkpt lat="45.76398754659624" lon="11.283118763291618"><ele>1200.0</ele><time>2026-04-04T13:26:04Z</time></trkpt><trkpt lat="45.76392585676766" lon="11.283159959759725"><ele>1201.3333333333333</ele><time>2026-04-04T13:26:06Z</time></trkpt><trkpt lat="45.76386237383903" lon="11.283165477626909"><ele>1202.6666666666665</ele><time>2026-04-04T13:26:08Z</time></trkpt><trkpt lat="45.76378256779826" lon="11.283185679704552"><ele>1204.0</ele><time>2026-04-04T13:26:11Z</time></trkpt><trkpt lat="45.76371318428881" lon="11.283209991430484"><ele>1212.4</ele><time>2026-04-04T13:26:22.999Z</time></trkpt><trkpt lat="45.76362939225783" lon="11.283220725302725"><ele>1220.8000000000002</ele><time>2026-04-04T13:26:24.999Z</time></trkpt><trkpt lat="45.763522675774375" lon="11.283214682785383"><ele>1229.1999999999998</ele><time>2026-04-04T13:26:26.999Z</time></trkpt><trkpt lat="45.763413628474034" lon="11.283266380747449"><ele>1237.6</ele><time>2026-04-04T13:26:28.999Z</time></trkpt><trkpt lat="45.763327574499456" lon="11.283323755052718"><ele>1246.0</ele><time>2026-04-04T13:26:30.999Z</time></trkpt><trkpt lat="45.76325021304543" lon="11.283359674733136"><ele>1246.2</ele><time>2026-04-04T13:26:33.999Z</time></trkpt><trkpt lat="45.763184805945315" lon="11.28341247165806"><ele>1246.3999999999999</ele><time>2026-04-04T13:26:35.999Z</time></trkpt><trkpt lat="45.76311315924095" lon="11.28348339614755"><ele>1246.6</ele><time>2026-04-04T13:26:37.999Z</time></trkpt><trkpt lat="45.76306331994063" lon="11.283565711459127"><ele>1246.8</ele><time>2026-04-04T13:26:39.999Z</time></trkpt><trkpt lat="45.763003993765615" lon="11.283697385779165"><ele>1247.0</ele><time>2026-04-04T13:26:41.999Z</time></trkpt><trkpt lat="45.76292336875357" lon="11.283797618354797"><ele>1247.0</ele><time>2026-04-04T13:26:43.999Z</time></trkpt><trkpt lat="45.762866936213115" lon="11.283881848348932"><ele>1247.0</ele><time>2026-04-04T13:26:45.999Z</time></trkpt><trkpt lat="45.762821875737366" lon="11.283985479300423"><ele>1247.0</ele><time>2026-04-04T13:26:48.999Z</time></trkpt><trkpt lat="45.76279248068387" lon="11.284067628475915"><ele>1247.0</ele><time>2026-04-04T13:26:50.999Z</time></trkpt><trkpt lat="45.76277372281761" lon="11.284174204753025"><ele>1247.0</ele><time>2026-04-04T13:26:52.999Z</time></trkpt><trkpt lat="45.76274420652863" lon="11.284290978450395"><ele>1247.0</ele><time>2026-04-04T13:26:55.999Z</time></trkpt><trkpt lat="45.762743133579164" lon="11.284405533884403"><ele>1252.5</ele><time>2026-04-04T13:26:57.999Z</time></trkpt><trkpt lat="45.76274294510561" lon="11.284530658616184"><ele>1258.0</ele><time>2026-04-04T13:26:59.999Z</time></trkpt><trkpt lat="45.762744451581" lon="11.284631080612463"><ele>1263.5</ele><time>2026-04-04T13:27:01.999Z</time></trkpt><trkpt lat="45.76275526092135" lon="11.28474421403001"><ele>1269.0</ele><time>2026-04-04T13:27:03.999Z</time></trkpt><trkpt lat="45.76277509491849" lon="11.284842328729194"><ele>1274.5</ele><time>2026-04-04T13:27:05.999Z</time></trkpt><trkpt lat="45.76280511635816" lon="11.284973101224427"><ele>1280.0</ele><time>2026-04-04T13:27:07.999Z</time></trkpt><trkpt lat="45.7628366680374" lon="11.285098977960294"><ele>1281.6666666666667</ele><time>2026-04-04T13:27:09.999Z</time></trkpt><trkpt lat="45.76285542929824" lon="11.285188142473293"><ele>1283.3333333333335</ele><time>2026-04-04T13:27:12.999Z</time></trkpt><trkpt lat="45.7629224993309" lon="11.285235215298643"><ele>1285.0</ele><time>2026-04-04T13:27:15.999Z</time></trkpt><trkpt lat="45.76300717172958" lon="11.285217420987946"><ele>1286.6666666666667</ele><time>2026-04-04T13:27:18.998Z</time></trkpt><trkpt lat="45.763082538570025" lon="11.285229142384122"><ele>1288.3333333333333</ele><time>2026-04-04T13:27:20.998Z</time></trkpt><trkpt lat="45.763150436151435" lon="11.285303488553826"><ele>1290.0</ele><time>2026-04-04T13:27:23.998Z</time></trkpt><trkpt lat="45.76322150925718" lon="11.28532110694616"><ele>1290.0</ele><time>2026-04-04T13:27:27Z</time></trkpt><trkpt lat="45.763295280955454" lon="11.28534516850374"><ele>1290.0</ele><time>2026-04-04T13:27:29Z</time></trkpt><trkpt lat="45.763384073455306" lon="11.28537418720625"><ele>1290.0</ele><time>2026-04-04T13:27:31Z</time></trkpt><trkpt lat="45.7634638803845" lon="11.285386431077075"><ele>1290.0</ele><time>2026-04-04T13:27:34Z</time></trkpt><trkpt lat="45.76352716006655" lon="11.285378565660322"><ele>1290.0</ele><time>2026-04-04T13:27:39Z</time></trkpt><trkpt lat="45.76351276507892" lon="11.285275532442363"><ele>1290.0</ele><time>2026-04-04T13:27:58Z</time></trkpt><trkpt lat="45.76355062706089" lon="11.285200919130858"><ele>1290.0</ele><time>2026-04-04T13:28:07Z</time></trkpt><trkpt lat="45.76358272004655" lon="11.285118818474864"><ele>1288.2857142857144</ele><time>2026-04-04T13:28:11Z</time></trkpt><trkpt lat="45.76362639298768" lon="11.28505022499974"><ele>1286.5714285714284</ele><time>2026-04-04T13:28:16Z</time></trkpt><trkpt lat="45.763678313612075" lon="11.284990216625161"><ele>1284.857142857143</ele><time>2026-04-04T13:28:27.999Z</time></trkpt><trkpt lat="45.76371838950384" lon="11.284920196728592"><ele>1283.1428571428573</ele><time>2026-04-04T13:28:38.999Z</time></trkpt><trkpt lat="45.76376778814725" lon="11.284845824920419"><ele>1281.4285714285716</ele><time>2026-04-04T13:28:43.999Z</time></trkpt><trkpt lat="45.76383848052708" lon="11.28483045272989"><ele>1279.7142857142858</ele><time>2026-04-04T13:28:47.999Z</time></trkpt><trkpt lat="45.76388497961516" lon="11.28474796218247"><ele>1278.0</ele><time>2026-04-04T13:28:52.999Z</time></trkpt><trkpt lat="45.76393058746261" lon="11.284677308543415"><ele>1278.0000000000002</ele><time>2026-04-04T13:29:02.999Z</time></trkpt><trkpt lat="45.76400240757877" lon="11.284680424374075"><ele>1278.0</ele><time>2026-04-04T13:29:06.999Z</time></trkpt><trkpt lat="45.7640693881579" lon="11.284737340934164"><ele>1278.0</ele><time>2026-04-04T13:29:10.999Z</time></trkpt><trkpt lat="45.76413257940155" lon="11.284755857617965"><ele>1278.0</ele><time>2026-04-04T13:29:19.999Z</time></trkpt><trkpt lat="45.76417829260888" lon="11.284692470106805"><ele>1278.0</ele><time>2026-04-04T13:29:25.998Z</time></trkpt><trkpt lat="45.76411475173961" lon="11.284750024942884"><ele>1278.0000000000002</ele><time>2026-04-04T13:29:47Z</time></trkpt><trkpt lat="45.76411872857305" lon="11.284857836246097"><ele>1278.0</ele><time>2026-04-04T13:29:51Z</time></trkpt><trkpt lat="45.76419283486976" lon="11.284912560296483"><ele>1280.4285714285716</ele><time>2026-04-04T13:29:55Z</time></trkpt><trkpt lat="45.76427123725754" lon="11.284901764904639"><ele>1282.857142857143</ele><time>2026-04-04T13:29:58Z</time></trkpt><trkpt lat="45.76433814660028" lon="11.284889973677533"><ele>1285.2857142857142</ele><time>2026-04-04T13:30:05Z</time></trkpt><trkpt lat="45.764403164179804" lon="11.284889539650136"><ele>1287.7142857142858</ele><time>2026-04-04T13:30:09Z</time></trkpt><trkpt lat="45.7644577219978" lon="11.284948001943283"><ele>1290.142857142857</ele><time>2026-04-04T13:30:12Z</time></trkpt><trkpt lat="45.764477044286075" lon="11.285037907114345"><ele>1292.5714285714287</ele><time>2026-04-04T13:30:15Z</time></trkpt><trkpt lat="45.76445614816851" lon="11.284936620608356"><ele>1295.0</ele><time>2026-04-04T13:30:21Z</time></trkpt><trkpt lat="45.764402313472424" lon="11.284837236176376"><ele>1291.6</ele><time>2026-04-04T13:30:23Z</time></trkpt><trkpt lat="45.76432749496537" lon="11.284721948657772"><ele>1288.2</ele><time>2026-04-04T13:30:24.999Z</time></trkpt><trkpt lat="45.764306151278845" lon="11.284633294755109"><ele>1284.8</ele><time>2026-04-04T13:30:26.999Z</time></trkpt><trkpt lat="45.7642624601174" lon="11.284553353606865"><ele>1281.4</ele><time>2026-04-04T13:30:29.999Z</time></trkpt><trkpt lat="45.76418847199354" lon="11.284470596007193"><ele>1278.0</ele><time>2026-04-04T13:30:31.999Z</time></trkpt><trkpt lat="45.76408850996448" lon="11.284404401961398"><ele>1278.0000000000002</ele><time>2026-04-04T13:30:34.999Z</time></trkpt><trkpt lat="45.76400580580029" lon="11.284360819562513"><ele>1278.0</ele><time>2026-04-04T13:30:36.999Z</time></trkpt><trkpt lat="45.763941536999155" lon="11.284364428524881"><ele>1278.0</ele><time>2026-04-04T13:30:38.999Z</time></trkpt><trkpt lat="45.76385592981021" lon="11.284326491184558"><ele>1278.0</ele><time>2026-04-04T13:30:41.999Z</time></trkpt><trkpt lat="45.76378721896206" lon="11.284319782748858"><ele>1278.0</ele><time>2026-04-04T13:30:43.999Z</time></trkpt><trkpt lat="45.7637267492284" lon="11.28429387596042"><ele>1278.0000000000002</ele><time>2026-04-04T13:30:45.999Z</time></trkpt><trkpt lat="45.76369729442334" lon="11.284200468198508"><ele>1278.0</ele><time>2026-04-04T13:30:53.999Z</time></trkpt><trkpt lat="45.76372262407126" lon="11.284114727459754"><ele>1278.0</ele><time>2026-04-04T13:30:56.999Z</time></trkpt><trkpt lat="45.76373038152492" lon="11.284010297205892"><ele>1278.0</ele><time>2026-04-04T13:30:59.999Z</time></trkpt><trkpt lat="45.763815190851055" lon="11.283951688225136"><ele>1278.0</ele><time>2026-04-04T13:31:02.999Z</time></trkpt><trkpt lat="45.763882938424864" lon="11.283872940621157"><ele>1278.0</ele><time>2026-04-04T13:32:22Z</time></trkpt><trkpt lat="45.76395078059454" lon="11.283722586941966"><ele>1278.0</ele><time>2026-04-04T13:32:28.999Z</time></trkpt><trkpt lat="45.763871800725745" lon="11.283855514941274"><ele>1278.0</ele><time>2026-04-04T13:32:35.999Z</time></trkpt><trkpt lat="45.763904273370656" lon="11.283950571273252"><ele>1278.0</ele><time>2026-04-04T13:33:54Z</time></trkpt><trkpt lat="45.763829023424115" lon="11.284078288296419"><ele>1278.0</ele><time>2026-04-04T13:33:56Z</time></trkpt><trkpt lat="45.763903017647365" lon="11.284058492011004"><ele>1278.0</ele><time>2026-04-04T13:35:23.999Z</time></trkpt><trkpt lat="45.763922837736615" lon="11.283918261157595"><ele>1278.0</ele><time>2026-04-04T13:35:25.999Z</time></trkpt><trkpt lat="45.76385274787931" lon="11.283877544414077"><ele>1278.0</ele><time>2026-04-04T13:35:34.999Z</time></trkpt><trkpt lat="45.76378632435403" lon="11.283960004536489"><ele>1278.0</ele><time>2026-04-04T13:35:38.998Z</time></trkpt><trkpt lat="45.763715607955895" lon="11.284052262550064"><ele>1278.0</ele><time>2026-04-04T13:35:41.998Z</time></trkpt><trkpt lat="45.76367142419981" lon="11.28415907747481"><ele>1278.0</ele><time>2026-04-04T13:35:43.998Z</time></trkpt><trkpt lat="45.76366183830086" lon="11.28425682197351"><ele>1278.0</ele><time>2026-04-04T13:35:46.998Z</time></trkpt><trkpt lat="45.76373685362041" lon="11.284243895832418"><ele>1278.0</ele><time>2026-04-04T13:35:52Z</time></trkpt><trkpt lat="45.76379397591311" lon="11.284289070732632"><ele>1278.0</ele><time>2026-04-04T13:35:56Z</time></trkpt><trkpt lat="45.76386124556032" lon="11.284300288494828"><ele>1278.0</ele><time>2026-04-04T13:35:58Z</time></trkpt><trkpt lat="45.76396041789506" lon="11.284280649416706"><ele>1278.0</ele><time>2026-04-04T13:36:00Z</time></trkpt><trkpt lat="45.764021618311546" lon="11.284309796894043"><ele>1278.0</ele><time>2026-04-04T13:36:01Z</time></trkpt><trkpt lat="45.76411960978657" lon="11.284379338996732"><ele>1278.0</ele><time>2026-04-04T13:36:03Z</time></trkpt><trkpt lat="45.76418242611271" lon="11.28445409173397"><ele>1278.0</ele><time>2026-04-04T13:36:05Z</time></trkpt><trkpt lat="45.76424352526766" lon="11.284528150688152"><ele>1278.0</ele><time>2026-04-04T13:36:07Z</time></trkpt><trkpt lat="45.76430071817653" lon="11.284627862814917"><ele>1278.0</ele><time>2026-04-04T13:36:10Z</time></trkpt><trkpt lat="45.764344983923834" lon="11.284709138330786"><ele>1278.0</ele><time>2026-04-04T13:36:11Z</time></trkpt><trkpt lat="45.76440065020686" lon="11.28476318272401"><ele>1278.0</ele><time>2026-04-04T13:36:13Z</time></trkpt><trkpt lat="45.76440593274962" lon="11.284863728500348"><ele>1278.0</ele><time>2026-04-04T13:36:17Z</time></trkpt><trkpt lat="45.76439786552244" lon="11.284994372944825"><ele>1278.0</ele><time>2026-04-04T13:36:36Z</time></trkpt><trkpt lat="45.764374868369615" lon="11.285133347218249"><ele>1278.0</ele><time>2026-04-04T13:36:37.999Z</time></trkpt><trkpt lat="45.76437086489442" lon="11.285227319106506"><ele>1282.1666666666667</ele><time>2026-04-04T13:36:39.999Z</time></trkpt><trkpt lat="45.76434554915353" lon="11.285340451407627"><ele>1286.3333333333333</ele><time>2026-04-04T13:36:41.999Z</time></trkpt><trkpt lat="45.76431399774541" lon="11.2854384079743"><ele>1290.5</ele><time>2026-04-04T13:36:43.999Z</time></trkpt><trkpt lat="45.76427314156492" lon="11.28555970642578"><ele>1294.6666666666665</ele><time>2026-04-04T13:36:46.999Z</time></trkpt><trkpt lat="45.76424393712085" lon="11.285655582487719"><ele>1298.8333333333333</ele><time>2026-04-04T13:36:48.999Z</time></trkpt><trkpt lat="45.76417942199054" lon="11.285672564920299"><ele>1303.0</ele><time>2026-04-04T13:36:50.999Z</time></trkpt><trkpt lat="45.76405598302701" lon="11.285651193918639"><ele>1305.5</ele><time>2026-04-04T13:36:52.999Z</time></trkpt><trkpt lat="45.763979505923636" lon="11.285666958188262"><ele>1308.0</ele><time>2026-04-04T13:36:54.999Z</time></trkpt><trkpt lat="45.764073750147794" lon="11.2856818315257"><ele>1310.5</ele><time>2026-04-04T13:37:02.999Z</time></trkpt><trkpt lat="45.76415059640121" lon="11.28566497350934"><ele>1313.0</ele><time>2026-04-04T13:37:03.999Z</time></trkpt><trkpt lat="45.76424071780218" lon="11.28568601934155"><ele>1315.5</ele><time>2026-04-04T13:37:04.999Z</time></trkpt><trkpt lat="45.76434010686559" lon="11.28571174654822"><ele>1318.0</ele><time>2026-04-04T13:37:05.999Z</time></trkpt><trkpt lat="45.76444248131741" lon="11.285720403612984"><ele>1319.0</ele><time>2026-04-04T13:37:06.999Z</time></trkpt><trkpt lat="45.7645306811316" lon="11.28571434411895"><ele>1320.0</ele><time>2026-04-04T13:37:07.999Z</time></trkpt><trkpt lat="45.76460352855144" lon="11.285699171200953"><ele>1321.0</ele><time>2026-04-04T13:37:08.999Z</time></trkpt><trkpt lat="45.76467858015261" lon="11.285676705482635"><ele>1322.0</ele><time>2026-04-04T13:37:09.999Z</time></trkpt><trkpt lat="45.76480758807601" lon="11.285613791427949"><ele>1323.0</ele><time>2026-04-04T13:37:11.999Z</time></trkpt><trkpt lat="45.76487822345011" lon="11.285598336555127"><ele>1324.0</ele><time>2026-04-04T13:37:12.999Z</time></trkpt><trkpt lat="45.76494824230666" lon="11.285573648621385"><ele>1319.1666666666665</ele><time>2026-04-04T13:37:13.999Z</time></trkpt><trkpt lat="45.76503200186095" lon="11.28555330763193"><ele>1314.3333333333333</ele><time>2026-04-04T13:37:14.999Z</time></trkpt><trkpt lat="45.765068074841246" lon="11.285472737478434"><ele>1309.5</ele><time>2026-04-04T13:37:17.999Z</time></trkpt><trkpt lat="45.76498012231529" lon="11.285422473189747"><ele>1304.6666666666667</ele><time>2026-04-04T13:37:20.999Z</time></trkpt><trkpt lat="45.76490534851124" lon="11.285398512090875"><ele>1299.8333333333335</ele><time>2026-04-04T13:37:21.999Z</time></trkpt><trkpt lat="45.76482511289318" lon="11.285360461593374"><ele>1295.0</ele><time>2026-04-04T13:37:22.999Z</time></trkpt><trkpt lat="45.7647388473572" lon="11.285314212978683"><ele>1295.0</ele><time>2026-04-04T13:37:23.999Z</time></trkpt><trkpt lat="45.76466557426761" lon="11.285249620252545"><ele>1295.0</ele><time>2026-04-04T13:37:24.999Z</time></trkpt><trkpt lat="45.76463082462718" lon="11.285135856099206"><ele>1295.0</ele><time>2026-04-04T13:37:25.999Z</time></trkpt><trkpt lat="45.764582536658274" lon="11.285015091039122"><ele>1295.0</ele><time>2026-04-04T13:37:26.999Z</time></trkpt><trkpt lat="45.76451090965678" lon="11.28493392526762"><ele>1295.0</ele><time>2026-04-04T13:37:27.999Z</time></trkpt><trkpt lat="45.764441565754744" lon="11.284863994433357"><ele>1295.0</ele><time>2026-04-04T13:37:28.999Z</time></trkpt><trkpt lat="45.76438060825746" lon="11.284775971109271"><ele>1291.6</ele><time>2026-04-04T13:37:29.999Z</time></trkpt><trkpt lat="45.764316415114116" lon="11.284689732565754"><ele>1288.2</ele><time>2026-04-04T13:37:30.999Z</time></trkpt><trkpt lat="45.76427002282941" lon="11.284592715130094"><ele>1284.8</ele><time>2026-04-04T13:37:32.999Z</time></trkpt><trkpt lat="45.764341211990626" lon="11.28457401128365"><ele>1281.4</ele><time>2026-04-04T13:37:34.999Z</time></trkpt><trkpt lat="45.764481259689084" lon="11.284625738608822"><ele>1278.0</ele><time>2026-04-04T13:37:36.999Z</time></trkpt><trkpt lat="45.76455308753653" lon="11.284657833710643"><ele>1280.4285714285716</ele><time>2026-04-04T13:37:37.999Z</time></trkpt><trkpt lat="45.76462091011354" lon="11.284681303604316"><ele>1282.857142857143</ele><time>2026-04-04T13:37:38.999Z</time></trkpt><trkpt lat="45.7647003825851" lon="11.284704069205768"><ele>1285.2857142857142</ele><time>2026-04-04T13:37:39.998Z</time></trkpt><trkpt lat="45.764769490049" lon="11.28471931199286"><ele>1287.7142857142858</ele><time>2026-04-04T13:37:40.998Z</time></trkpt><trkpt lat="45.764834916443824" lon="11.284737480409701"><ele>1290.142857142857</ele><time>2026-04-04T13:37:41.998Z</time></trkpt><trkpt lat="45.76491099729193" lon="11.284721475053697"><ele>1292.5714285714287</ele><time>2026-04-04T13:37:42.998Z</time></trkpt><trkpt lat="45.76497381750032" lon="11.284750539145422"><ele>1295.0</ele><time>2026-04-04T13:37:43.998Z</time></trkpt><trkpt lat="45.76505144019584" lon="11.284766727511709"><ele>1295.0</ele><time>2026-04-04T13:37:44.998Z</time></trkpt><trkpt lat="45.765138616621954" lon="11.284768975575025"><ele>1295.0</ele><time>2026-04-04T13:37:45.998Z</time></trkpt><trkpt lat="45.76522293422157" lon="11.284806497177247"><ele>1295.0</ele><time>2026-04-04T13:37:46.998Z</time></trkpt><trkpt lat="45.76530930888226" lon="11.284843240678649"><ele>1295.0</ele><time>2026-04-04T13:37:47.998Z</time></trkpt><trkpt lat="45.765395070476" lon="11.284878624606964"><ele>1295.0</ele><time>2026-04-04T13:37:48.998Z</time></trkpt><trkpt lat="45.76546693859096" lon="11.284896447188975"><ele>1295.0</ele><time>2026-04-04T13:37:49.998Z</time></trkpt><trkpt lat="45.76556083048074" lon="11.284871918320274"><ele>1294.4</ele><time>2026-04-04T13:37:50.998Z</time></trkpt><trkpt lat="45.765637137708" lon="11.284844266590568"><ele>1293.8</ele><time>2026-04-04T13:37:51.998Z</time></trkpt><trkpt lat="45.765719898567276" lon="11.284789739995498"><ele>1293.1999999999998</ele><time>2026-04-04T13:37:52.998Z</time></trkpt><trkpt lat="45.7657705567974" lon="11.284720056104117"><ele>1292.6</ele><time>2026-04-04T13:37:53.998Z</time></trkpt><trkpt lat="45.765828367150874" lon="11.284587889169604"><ele>1292.0</ele><time>2026-04-04T13:37:55.998Z</time></trkpt><trkpt lat="45.766004560970714" lon="11.284634104489047"><ele>1284.1999999999998</ele><time>2026-04-04T13:37:57Z</time></trkpt><trkpt lat="45.76608617705424" lon="11.284638988957331"><ele>1276.3999999999999</ele><time>2026-04-04T13:37:58Z</time></trkpt><trkpt lat="45.76619036461966" lon="11.284666091084183"><ele>1268.6</ele><time>2026-04-04T13:37:59Z</time></trkpt><trkpt lat="45.76630236343248" lon="11.284711000685162"><ele>1260.8</ele><time>2026-04-04T13:38:00Z</time></trkpt><trkpt lat="45.766415553947354" lon="11.284742835450457"><ele>1253.0</ele><time>2026-04-04T13:38:01Z</time></trkpt><trkpt lat="45.7665249997111" lon="11.284744899094937"><ele>1253.0</ele><time>2026-04-04T13:38:02Z</time></trkpt><trkpt lat="45.766624740124904" lon="11.284737374300557"><ele>1253.0</ele><time>2026-04-04T13:38:03Z</time></trkpt><trkpt lat="45.76671152801046" lon="11.284733152717182"><ele>1253.0</ele><time>2026-04-04T13:38:04Z</time></trkpt><trkpt lat="45.76679002501923" lon="11.284725406579208"><ele>1253.0</ele><time>2026-04-04T13:38:05Z</time></trkpt><trkpt lat="45.76687986424922" lon="11.284707810040294"><ele>1253.0</ele><time>2026-04-04T13:38:06Z</time></trkpt><trkpt lat="45.76697009444862" lon="11.284697883305132"><ele>1253.0</ele><time>2026-04-04T13:38:07Z</time></trkpt><trkpt lat="45.76706395589867" lon="11.284702907297055"><ele>1254.3333333333335</ele><time>2026-04-04T13:38:08Z</time></trkpt><trkpt lat="45.76715820974565" lon="11.284701460278434"><ele>1255.6666666666667</ele><time>2026-04-04T13:38:09Z</time></trkpt><trkpt lat="45.76725339120464" lon="11.28468296735405"><ele>1257.0</ele><time>2026-04-04T13:38:10Z</time></trkpt><trkpt lat="45.767330277156276" lon="11.284634320270474"><ele>1258.3333333333333</ele><time>2026-04-04T13:38:11Z</time></trkpt><trkpt lat="45.76738375451096" lon="11.284574048956406"><ele>1259.6666666666665</ele><time>2026-04-04T13:38:12Z</time></trkpt><trkpt lat="45.7674460421188" lon="11.284526270170979"><ele>1261.0</ele><time>2026-04-04T13:38:13Z</time></trkpt><trkpt lat="45.76752240221169" lon="11.284510298603255"><ele>1261.0</ele><time>2026-04-04T13:38:14Z</time></trkpt><trkpt lat="45.767603999019954" lon="11.284491876513389"><ele>1261.0</ele><time>2026-04-04T13:38:15Z</time></trkpt><trkpt lat="45.76769314493687" lon="11.284496366193618"><ele>1261.0</ele><time>2026-04-04T13:38:16Z</time></trkpt><trkpt lat="45.767777708501164" lon="11.284484068640694"><ele>1261.0</ele><time>2026-04-04T13:38:17Z</time></trkpt><trkpt lat="45.767854296730604" lon="11.284408594694579"><ele>1261.0</ele><time>2026-04-04T13:38:18Z</time></trkpt><trkpt lat="45.76791362604372" lon="11.284323578622404"><ele>1261.0</ele><time>2026-04-04T13:38:19Z</time></trkpt><trkpt lat="45.76797808765024" lon="11.284237386296674"><ele>1263.5714285714287</ele><time>2026-04-04T13:38:20Z</time></trkpt><trkpt lat="45.7680473953126" lon="11.284177067635323"><ele>1266.142857142857</ele><time>2026-04-04T13:38:21Z</time></trkpt><trkpt lat="45.76811740923414" lon="11.284142948866789"><ele>1268.7142857142858</ele><time>2026-04-04T13:38:22Z</time></trkpt><trkpt lat="45.76817508361187" lon="11.284090662255027"><ele>1271.2857142857142</ele><time>2026-04-04T13:38:23Z</time></trkpt><trkpt lat="45.76821627819124" lon="11.284002029310813"><ele>1273.857142857143</ele><time>2026-04-04T13:38:24Z</time></trkpt><trkpt lat="45.76823446436441" lon="11.283906283833193"><ele>1276.4285714285713</ele><time>2026-04-04T13:38:25Z</time></trkpt><trkpt lat="45.76823366586658" lon="11.283794838224484"><ele>1279.0</ele><time>2026-04-04T13:38:26Z</time></trkpt><trkpt lat="45.7682478235802" lon="11.283576937935292"><ele>1279.0</ele><time>2026-04-04T13:38:28Z</time></trkpt><trkpt lat="45.76825942988844" lon="11.283453926086265"><ele>1279.0</ele><time>2026-04-04T13:38:29Z</time></trkpt><trkpt lat="45.76826487471003" lon="11.283331594176076"><ele>1279.0</ele><time>2026-04-04T13:38:30Z</time></trkpt><trkpt lat="45.76827565059717" lon="11.283229331182872"><ele>1279.0</ele><time>2026-04-04T13:38:31Z</time></trkpt><trkpt lat="45.76830052479282" lon="11.28314169386108"><ele>1279.0</ele><time>2026-04-04T13:38:32Z</time></trkpt><trkpt lat="45.768344816479484" lon="11.283074440817597"><ele>1279.0</ele><time>2026-04-04T13:38:33Z</time></trkpt><trkpt lat="45.768401986369845" lon="11.283022419033157"><ele>1279.0</ele><time>2026-04-04T13:38:34Z</time></trkpt><trkpt lat="45.7684733299342" lon="11.282956006433174"><ele>1286.5</ele><time>2026-04-04T13:38:35Z</time></trkpt><trkpt lat="45.76855144172293" lon="11.282880134810588"><ele>1294.0</ele><time>2026-04-04T13:38:36Z</time></trkpt><trkpt lat="45.768594779549765" lon="11.282774435193732"><ele>1301.5</ele><time>2026-04-04T13:38:37Z</time></trkpt><trkpt lat="45.76860309626105" lon="11.282664523042019"><ele>1309.0</ele><time>2026-04-04T13:38:37.999Z</time></trkpt><trkpt lat="45.76859211007109" lon="11.28253899064373"><ele>1316.5</ele><time>2026-04-04T13:38:38.999Z</time></trkpt><trkpt lat="45.76856851869152" lon="11.282417895829596"><ele>1324.0</ele><time>2026-04-04T13:38:39.999Z</time></trkpt><trkpt lat="45.768548070226466" lon="11.282284978663343"><ele>1323.5</ele><time>2026-04-04T13:38:40.999Z</time></trkpt><trkpt lat="45.76854775095267" lon="11.2821667143936"><ele>1323.0</ele><time>2026-04-04T13:38:41.999Z</time></trkpt><trkpt lat="45.76853023728859" lon="11.282050523232677"><ele>1322.5</ele><time>2026-04-04T13:38:42.999Z</time></trkpt><trkpt lat="45.76850462882352" lon="11.281961943442894"><ele>1322.0</ele><time>2026-04-04T13:38:43.999Z</time></trkpt><trkpt lat="45.768436034768676" lon="11.281827283044535"><ele>1321.5</ele><time>2026-04-04T13:38:45.999Z</time></trkpt><trkpt lat="45.76843532755388" lon="11.281716281220735"><ele>1321.0</ele><time>2026-04-04T13:38:47.999Z</time></trkpt><trkpt lat="45.76843775719637" lon="11.28160084150029"><ele>1318.6666666666665</ele><time>2026-04-04T13:42:47Z</time></trkpt><trkpt lat="45.768474442127605" lon="11.281525655927185"><ele>1316.3333333333333</ele><time>2026-04-04T13:42:48Z</time></trkpt><trkpt lat="45.768525820933434" lon="11.281427741469518"><ele>1314.0</ele><time>2026-04-04T13:42:49Z</time></trkpt><trkpt lat="45.76858599202298" lon="11.281329536815953"><ele>1311.6666666666667</ele><time>2026-04-04T13:42:50Z</time></trkpt><trkpt lat="45.768639805592244" lon="11.28123216997402"><ele>1309.3333333333335</ele><time>2026-04-04T13:42:51Z</time></trkpt><trkpt lat="45.7686768318192" lon="11.281132127917179"><ele>1307.0</ele><time>2026-04-04T13:42:52Z</time></trkpt><trkpt lat="45.76868698824395" lon="11.280960639101243"><ele>1307.0</ele><time>2026-04-04T13:42:54Z</time></trkpt><trkpt lat="45.76865557985265" lon="11.280855383391415"><ele>1307.0</ele><time>2026-04-04T13:42:55Z</time></trkpt><trkpt lat="45.76859577001959" lon="11.280691307080454"><ele>1307.0</ele><time>2026-04-04T13:42:56Z</time></trkpt><trkpt lat="45.76852469047939" lon="11.280504114504756"><ele>1307.0</ele><time>2026-04-04T13:42:56.999Z</time></trkpt><trkpt lat="45.768488432565476" lon="11.280364966232789"><ele>1300.8</ele><time>2026-04-04T13:42:57.999Z</time></trkpt><trkpt lat="45.76847492797329" lon="11.28027547878319"><ele>1294.6</ele><time>2026-04-04T13:42:58.999Z</time></trkpt><trkpt lat="45.76856748534662" lon="11.280201229092253"><ele>1288.3999999999999</ele><time>2026-04-04T13:43:00.999Z</time></trkpt><trkpt lat="45.768647934609746" lon="11.280166016796606"><ele>1282.1999999999998</ele><time>2026-04-04T13:43:01.999Z</time></trkpt><trkpt lat="45.76874696964599" lon="11.28015912812633"><ele>1276.0</ele><time>2026-04-04T13:43:02.999Z</time></trkpt><trkpt lat="45.76885845114063" lon="11.280133735278099"><ele>1276.0</ele><time>2026-04-04T13:43:03.999Z</time></trkpt><trkpt lat="45.76893945275702" lon="11.280052378265841"><ele>1276.0</ele><time>2026-04-04T13:43:04.999Z</time></trkpt><trkpt lat="45.768996759652865" lon="11.279950502413818"><ele>1276.0</ele><time>2026-04-04T13:43:05.999Z</time></trkpt><trkpt lat="45.76905825001152" lon="11.279842939135149"><ele>1276.0</ele><time>2026-04-04T13:43:06.999Z</time></trkpt><trkpt lat="45.7690993389949" lon="11.279773506033617"><ele>1276.0</ele><time>2026-04-04T13:43:07.999Z</time></trkpt><trkpt lat="45.76919895526631" lon="11.2797694488298"><ele>1276.0</ele><time>2026-04-04T13:43:09.999Z</time></trkpt><trkpt lat="45.76925476504944" lon="11.27981575411519"><ele>1276.0</ele><time>2026-04-04T13:43:10.999Z</time></trkpt><trkpt lat="45.76931209631088" lon="11.279870292006072"><ele>1276.0</ele><time>2026-04-04T13:43:11.999Z</time></trkpt><trkpt lat="45.76937583326756" lon="11.279924651536135"><ele>1276.0</ele><time>2026-04-04T13:43:12.999Z</time></trkpt><trkpt lat="45.76946061493037" lon="11.279991511986903"><ele>1276.0</ele><time>2026-04-04T13:43:58.999Z</time></trkpt><trkpt lat="45.76953687758881" lon="11.280020723256333"><ele>1276.0</ele><time>2026-04-04T13:44:00.999Z</time></trkpt><trkpt lat="45.76960377713019" lon="11.280007969922401"><ele>1279.0</ele><time>2026-04-04T13:44:01.999Z</time></trkpt><trkpt lat="45.76967877919655" lon="11.28002333119863"><ele>1282.0</ele><time>2026-04-04T13:44:02.998Z</time></trkpt><trkpt lat="45.769753881031065" lon="11.280062376538634"><ele>1285.0</ele><time>2026-04-04T13:44:03.998Z</time></trkpt><trkpt lat="45.76982526216445" lon="11.280130868093162"><ele>1288.0</ele><time>2026-04-04T13:44:04.998Z</time></trkpt><trkpt lat="45.769915251915265" lon="11.280210881404432"><ele>1291.0</ele><time>2026-04-04T13:44:05.998Z</time></trkpt><trkpt lat="45.77001670750663" lon="11.28024560003018"><ele>1291.0</ele><time>2026-04-04T13:44:06.998Z</time></trkpt><trkpt lat="45.77008653836714" lon="11.28022911401917"><ele>1291.0</ele><time>2026-04-04T13:44:07.998Z</time></trkpt><trkpt lat="45.77015514236763" lon="11.280172170539586"><ele>1291.0</ele><time>2026-04-04T13:44:08.998Z</time></trkpt><trkpt lat="45.770223869000034" lon="11.28008080451909"><ele>1291.0</ele><time>2026-04-04T13:44:09.998Z</time></trkpt><trkpt lat="45.770286187681606" lon="11.279947597583305"><ele>1291.0</ele><time>2026-04-04T13:44:10.998Z</time></trkpt><trkpt lat="45.77034445068867" lon="11.27983443768138"><ele>1294.6</ele><time>2026-04-04T13:44:11.998Z</time></trkpt><trkpt lat="45.77046168848937" lon="11.2797183055095"><ele>1298.1999999999998</ele><time>2026-04-04T13:44:13.998Z</time></trkpt><trkpt lat="45.77054055843307" lon="11.27964241438703"><ele>1301.8000000000002</ele><time>2026-04-04T13:44:15Z</time></trkpt><trkpt lat="45.770607066534865" lon="11.279545536697748"><ele>1305.4</ele><time>2026-04-04T13:44:16Z</time></trkpt><trkpt lat="45.77065059373634" lon="11.279430871111405"><ele>1309.0</ele><time>2026-04-04T13:44:17Z</time></trkpt><trkpt lat="45.77063943857005" lon="11.279227449187784"><ele>1309.0</ele><time>2026-04-04T13:44:18Z</time></trkpt><trkpt lat="45.770684544837" lon="11.279085768811637"><ele>1309.0</ele><time>2026-04-04T13:44:19Z</time></trkpt><trkpt lat="45.77072913665405" lon="11.27895118249944"><ele>1309.0</ele><time>2026-04-04T13:44:20Z</time></trkpt><trkpt lat="45.77079321432816" lon="11.278853989319359"><ele>1309.0</ele><time>2026-04-04T13:44:21Z</time></trkpt><trkpt lat="45.7708736838995" lon="11.278784139734746"><ele>1309.0</ele><time>2026-04-04T13:44:22Z</time></trkpt><trkpt lat="45.77095797540533" lon="11.278712287171995"><ele>1312.2</ele><time>2026-04-04T13:44:23Z</time></trkpt><trkpt lat="45.771030776124405" lon="11.278691023726356"><ele>1315.4</ele><time>2026-04-04T13:44:24Z</time></trkpt><trkpt lat="45.77110798358574" lon="11.278715101963302"><ele>1318.6</ele><time>2026-04-04T13:44:25Z</time></trkpt><trkpt lat="45.77119402011936" lon="11.278741209914367"><ele>1321.8</ele><time>2026-04-04T13:44:26Z</time></trkpt><trkpt lat="45.77130503711237" lon="11.278757288622781"><ele>1325.0</ele><time>2026-04-04T13:44:27Z</time></trkpt><trkpt lat="45.77142611032597" lon="11.278768791430949"><ele>1325.0</ele><time>2026-04-04T13:44:28Z</time></trkpt><trkpt lat="45.77154268222763" lon="11.278755854813397"><ele>1325.0</ele><time>2026-04-04T13:44:29Z</time></trkpt><trkpt lat="45.771626029276845" lon="11.278696843020233"><ele>1325.0</ele><time>2026-04-04T13:44:30Z</time></trkpt><trkpt lat="45.77168246413062" lon="11.278601842241352"><ele>1325.0</ele><time>2026-04-04T13:44:31Z</time></trkpt><trkpt lat="45.77174598313597" lon="11.278515605455091"><ele>1325.0</ele><time>2026-04-04T13:44:32Z</time></trkpt><trkpt lat="45.771820085733275" lon="11.278416420767778"><ele>1333.4</ele><time>2026-04-04T13:44:33Z</time></trkpt><trkpt lat="45.77188077134599" lon="11.278300291182333"><ele>1341.8</ele><time>2026-04-04T13:44:34Z</time></trkpt><trkpt lat="45.771928987993846" lon="11.278205789980309"><ele>1350.1999999999998</ele><time>2026-04-04T13:44:35Z</time></trkpt><trkpt lat="45.7719434189716" lon="11.278050334688793"><ele>1358.6</ele><time>2026-04-04T13:44:37Z</time></trkpt><trkpt lat="45.771924724463744" lon="11.277956861520487"><ele>1367.0</ele><time>2026-04-04T13:44:38Z</time></trkpt><trkpt lat="45.77187038536065" lon="11.277822809188123"><ele>1367.0</ele><time>2026-04-04T13:44:40Z</time></trkpt><trkpt lat="45.7718430610778" lon="11.277694024410053"><ele>1367.0</ele><time>2026-04-04T13:44:42Z</time></trkpt><trkpt lat="45.77191457662988" lon="11.277511656567365"><ele>1367.0</ele><time>2026-04-04T13:44:44Z</time></trkpt><trkpt lat="45.771952088124955" lon="11.277388798083852"><ele>1367.0</ele><time>2026-04-04T13:44:45Z</time></trkpt><trkpt lat="45.7719751435436" lon="11.27724987249284"><ele>1367.0</ele><time>2026-04-04T13:44:46Z</time></trkpt><trkpt lat="45.77200596692218" lon="11.27710947542201"><ele>1366.5</ele><time>2026-04-04T13:44:47Z</time></trkpt><trkpt lat="45.77200583436211" lon="11.276990756421487"><ele>1366.0</ele><time>2026-04-04T13:44:48Z</time></trkpt><trkpt lat="45.772000346703145" lon="11.276873308836587"><ele>1365.5</ele><time>2026-04-04T13:44:49Z</time></trkpt><trkpt lat="45.771958421471666" lon="11.276787338646214"><ele>1365.0</ele><time>2026-04-04T13:44:50Z</time></trkpt><trkpt lat="45.77190592116352" lon="11.276723716300085"><ele>1364.5</ele><time>2026-04-04T13:44:51Z</time></trkpt><trkpt lat="45.77183498640801" lon="11.276685952510018"><ele>1364.0</ele><time>2026-04-04T13:44:52Z</time></trkpt><trkpt lat="45.77176743195538" lon="11.276666449382684"><ele>1359.4</ele><time>2026-04-04T13:44:53Z</time></trkpt><trkpt lat="45.77170285352739" lon="11.276613938941466"><ele>1354.8000000000002</ele><time>2026-04-04T13:44:54Z</time></trkpt><trkpt lat="45.77164972977036" lon="11.276505877225803"><ele>1350.1999999999998</ele><time>2026-04-04T13:44:55Z</time></trkpt><trkpt lat="45.771554612312435" lon="11.276398051054942"><ele>1345.6</ele><time>2026-04-04T13:44:56Z</time></trkpt><trkpt lat="45.771459330717384" lon="11.27629355972144"><ele>1341.0</ele><time>2026-04-04T13:44:57Z</time></trkpt><trkpt lat="45.77138682619494" lon="11.276215752928907"><ele>1341.0</ele><time>2026-04-04T13:44:58Z</time></trkpt><trkpt lat="45.77134013157164" lon="11.276153691864979"><ele>1341.0</ele><time>2026-04-04T13:44:59Z</time></trkpt><trkpt lat="45.771300745498074" lon="11.27593910233594"><ele>1341.0</ele><time>2026-04-04T13:45:01Z</time></trkpt><trkpt lat="45.77123878654136" lon="11.27580611684701"><ele>1341.0</ele><time>2026-04-04T13:45:02Z</time></trkpt><trkpt lat="45.77118929273106" lon="11.275712774802475"><ele>1341.0</ele><time>2026-04-04T13:45:02.999Z</time></trkpt><trkpt lat="45.77119682731492" lon="11.2755935427364"><ele>1336.25</ele><time>2026-04-04T13:45:04.999Z</time></trkpt><trkpt lat="45.771300057856514" lon="11.275496513518908"><ele>1331.5</ele><time>2026-04-04T13:45:06.999Z</time></trkpt><trkpt lat="45.77138090505046" lon="11.275402791886162"><ele>1326.75</ele><time>2026-04-04T13:45:07.999Z</time></trkpt><trkpt lat="45.77146191188109" lon="11.275287135834786"><ele>1322.0</ele><time>2026-04-04T13:45:08.999Z</time></trkpt><trkpt lat="45.771529358556975" lon="11.275164796688367"><ele>1322.0</ele><time>2026-04-04T13:45:09.999Z</time></trkpt><trkpt lat="45.77161267731992" lon="11.275097221562184"><ele>1322.0</ele><time>2026-04-04T13:45:10.999Z</time></trkpt><trkpt lat="45.77171349701275" lon="11.275023662970407"><ele>1322.0</ele><time>2026-04-04T13:45:11.999Z</time></trkpt><trkpt lat="45.7717764647986" lon="11.274937864418582"><ele>1322.0</ele><time>2026-04-04T13:45:12.999Z</time></trkpt><trkpt lat="45.771823819323856" lon="11.274824830641917"><ele>1322.0</ele><time>2026-04-04T13:45:13.999Z</time></trkpt><trkpt lat="45.77185175598255" lon="11.274716836457042"><ele>1317.8</ele><time>2026-04-04T13:45:14.999Z</time></trkpt><trkpt lat="45.77196501563896" lon="11.274642585692659"><ele>1313.6</ele><time>2026-04-04T13:45:16.999Z</time></trkpt><trkpt lat="45.77204141450415" lon="11.27465040642858"><ele>1309.3999999999999</ele><time>2026-04-04T13:45:17.999Z</time></trkpt><trkpt lat="45.77213656097419" lon="11.274657470050771"><ele>1305.1999999999998</ele><time>2026-04-04T13:45:18.999Z</time></trkpt><trkpt lat="45.772224602914974" lon="11.274655289677764"><ele>1301.0</ele><time>2026-04-04T13:45:19.999Z</time></trkpt><trkpt lat="45.772316994725074" lon="11.274648795630224"><ele>1301.0</ele><time>2026-04-04T13:45:20.999Z</time></trkpt><trkpt lat="45.77238005053531" lon="11.27463506456986"><ele>1301.0</ele><time>2026-04-04T13:45:21.999Z</time></trkpt><trkpt lat="45.772445836648785" lon="11.274601973184744"><ele>1301.0</ele><time>2026-04-04T13:45:23.999Z</time></trkpt><trkpt lat="45.77249632985315" lon="11.274517313316194"><ele>1301.0</ele><time>2026-04-04T13:45:25.999Z</time></trkpt><trkpt lat="45.77253964979896" lon="11.274437691420621"><ele>1301.0</ele><time>2026-04-04T13:45:39.999Z</time></trkpt><trkpt lat="45.772566318841186" lon="11.274340636980321"><ele>1301.0</ele><time>2026-04-04T13:45:42.999Z</time></trkpt><trkpt lat="45.77261071195302" lon="11.274236583900969"><ele>1301.0</ele><time>2026-04-04T13:45:44.999Z</time></trkpt><trkpt lat="45.77265797414996" lon="11.274131464849463"><ele>1301.0</ele><time>2026-04-04T13:45:47.999Z</time></trkpt><trkpt lat="45.772685908131514" lon="11.274048983277204"><ele>1301.0</ele><time>2026-04-04T13:45:49.999Z</time></trkpt><trkpt lat="45.7726211595044" lon="11.273995229914389"><ele>1301.0</ele><time>2026-04-04T13:46:26Z</time></trkpt><trkpt lat="45.77253234125054" lon="11.274034685472863"><ele>1301.0</ele><time>2026-04-04T13:46:28Z</time></trkpt><trkpt lat="45.77246147203034" lon="11.274073468559902"><ele>1301.0</ele><time>2026-04-04T13:46:30Z</time></trkpt><trkpt lat="45.7724038964227" lon="11.274117220531549"><ele>1301.0</ele><time>2026-04-04T13:46:34Z</time></trkpt><trkpt lat="45.77241233469955" lon="11.27400771452004"><ele>1295.5</ele><time>2026-04-04T13:46:42Z</time></trkpt><trkpt lat="45.77246553690489" lon="11.27392629514543"><ele>1290.0</ele><time>2026-04-04T13:46:44Z</time></trkpt><trkpt lat="45.77251898124257" lon="11.273839187354573"><ele>1284.5</ele><time>2026-04-04T13:46:46Z</time></trkpt><trkpt lat="45.772556184733986" lon="11.273729227770652"><ele>1279.0</ele><time>2026-04-04T13:46:48Z</time></trkpt><trkpt lat="45.77260711602988" lon="11.273617960741348"><ele>1273.5</ele><time>2026-04-04T13:46:50Z</time></trkpt><trkpt lat="45.77267244492507" lon="11.273491098536562"><ele>1268.0</ele><time>2026-04-04T13:46:52Z</time></trkpt><trkpt lat="45.77274737354714" lon="11.273339448662167"><ele>1268.0</ele><time>2026-04-04T13:46:54Z</time></trkpt><trkpt lat="45.772773108559626" lon="11.273197131451097"><ele>1268.0</ele><time>2026-04-04T13:46:56Z</time></trkpt><trkpt lat="45.772722752490886" lon="11.273108116436298"><ele>1268.0</ele><time>2026-04-04T13:46:58Z</time></trkpt><trkpt lat="45.77266701780835" lon="11.27301587201991"><ele>1268.0</ele><time>2026-04-04T13:47:00Z</time></trkpt><trkpt lat="45.772651909642164" lon="11.272911174502212"><ele>1268.0</ele><time>2026-04-04T13:47:02Z</time></trkpt><trkpt lat="45.77264375031656" lon="11.272818201340217"><ele>1268.0</ele><time>2026-04-04T13:47:04Z</time></trkpt><trkpt lat="45.77257951110876" lon="11.272851251022715"><ele>1264.3333333333335</ele><time>2026-04-04T13:47:21.999Z</time></trkpt><trkpt lat="45.77252651682646" lon="11.272900248512705"><ele>1260.6666666666667</ele><time>2026-04-04T13:47:34.999Z</time></trkpt><trkpt lat="45.772518491255966" lon="11.272766286031185"><ele>1257.0</ele><time>2026-04-04T13:47:41.999Z</time></trkpt><trkpt lat="45.772502974195966" lon="11.272669171077528"><ele>1253.3333333333333</ele><time>2026-04-04T13:47:43.999Z</time></trkpt><trkpt lat="45.77248707832256" lon="11.272561849916109"><ele>1249.6666666666665</ele><time>2026-04-04T13:47:45.999Z</time></trkpt><trkpt lat="45.77245143169527" lon="11.272676504363575"><ele>1246.0</ele><time>2026-04-04T13:47:49.999Z</time></trkpt><trkpt lat="45.77240990201456" lon="11.272758584908"><ele>1246.0</ele><time>2026-04-04T13:47:55.999Z</time></trkpt><trkpt lat="45.77237710027449" lon="11.272864536505999"><ele>1246.0</ele><time>2026-04-04T13:48:02.999Z</time></trkpt><trkpt lat="45.77234882117891" lon="11.272753661161769"><ele>1246.0</ele><time>2026-04-04T13:48:08.999Z</time></trkpt><trkpt lat="45.772332155263314" lon="11.272640512485754"><ele>1246.0</ele><time>2026-04-04T13:48:11.998Z</time></trkpt><trkpt lat="45.77228813120792" lon="11.27257250230019"><ele>1246.0</ele><time>2026-04-04T13:48:14.998Z</time></trkpt><trkpt lat="45.772224558232026" lon="11.272520867065712"><ele>1246.0</ele><time>2026-04-04T13:48:18.998Z</time></trkpt><trkpt lat="45.77222668635746" lon="11.272647302165652"><ele>1246.0</ele><time>2026-04-04T13:48:24.998Z</time></trkpt><trkpt lat="45.77221167083866" lon="11.272740175830744"><ele>1246.0</ele><time>2026-04-04T13:48:28Z</time></trkpt><trkpt lat="45.77217550860144" lon="11.272849785530102"><ele>1246.0</ele><time>2026-04-04T13:48:30Z</time></trkpt><trkpt lat="45.77210858864626" lon="11.272943885885311"><ele>1246.0</ele><time>2026-04-04T13:48:32Z</time></trkpt><trkpt lat="45.77203646652649" lon="11.273030044066997"><ele>1246.0</ele><time>2026-04-04T13:48:34Z</time></trkpt><trkpt lat="45.77194609517409" lon="11.273076891120029"><ele>1246.0</ele><time>2026-04-04T13:48:36Z</time></trkpt><trkpt lat="45.77186638077559" lon="11.273066940121156"><ele>1243.6666666666665</ele><time>2026-04-04T13:48:38Z</time></trkpt><trkpt lat="45.77178110237821" lon="11.273098249336472"><ele>1241.3333333333333</ele><time>2026-04-04T13:48:40Z</time></trkpt><trkpt lat="45.7716873516967" lon="11.273121876277042"><ele>1239.0</ele><time>2026-04-04T13:48:42Z</time></trkpt><trkpt lat="45.77162290137293" lon="11.273181034657101"><ele>1236.6666666666667</ele><time>2026-04-04T13:48:44Z</time></trkpt><trkpt lat="45.77154408364081" lon="11.27320527135252"><ele>1234.3333333333335</ele><time>2026-04-04T13:48:46Z</time></trkpt><trkpt lat="45.7714649950289" lon="11.273255524814038"><ele>1232.0</ele><time>2026-04-04T13:48:48Z</time></trkpt><trkpt lat="45.771396422673725" lon="11.273245320084369"><ele>1232.0</ele><time>2026-04-04T13:48:50Z</time></trkpt><trkpt lat="45.77131828961923" lon="11.273303221341802"><ele>1232.0</ele><time>2026-04-04T13:48:53Z</time></trkpt><trkpt lat="45.7712501411047" lon="11.273416874449278"><ele>1232.0</ele><time>2026-04-04T13:48:55Z</time></trkpt><trkpt lat="45.771178077994335" lon="11.273488430376664"><ele>1232.0</ele><time>2026-04-04T13:48:57Z</time></trkpt><trkpt lat="45.77111570998716" lon="11.273505005198919"><ele>1232.0</ele><time>2026-04-04T13:48:59Z</time></trkpt><trkpt lat="45.771034339085666" lon="11.273530257591297"><ele>1232.0</ele><time>2026-04-04T13:49:01Z</time></trkpt><trkpt lat="45.77093845132368" lon="11.27358159451253"><ele>1222.3333333333335</ele><time>2026-04-04T13:49:03Z</time></trkpt><trkpt lat="45.770858275124084" lon="11.2736374864271"><ele>1212.6666666666667</ele><time>2026-04-04T13:49:05Z</time></trkpt><trkpt lat="45.77078372587729" lon="11.273699101485937"><ele>1203.0</ele><time>2026-04-04T13:49:07Z</time></trkpt><trkpt lat="45.77070871726853" lon="11.27374332838612"><ele>1193.3333333333333</ele><time>2026-04-04T13:49:09Z</time></trkpt><trkpt lat="45.770680634988416" lon="11.273661503608206"><ele>1183.6666666666665</ele><time>2026-04-04T13:49:16.999Z</time></trkpt><trkpt lat="45.77074691398268" lon="11.273575596089904"><ele>1174.0</ele><time>2026-04-04T13:49:18.999Z</time></trkpt><trkpt lat="45.7707718701696" lon="11.27348266099849"><ele>1174.0</ele><time>2026-04-04T13:49:20.999Z</time></trkpt><trkpt lat="45.7708129549944" lon="11.273394100812581"><ele>1174.0</ele><time>2026-04-04T13:49:22.999Z</time></trkpt><trkpt lat="45.770861110837906" lon="11.27331821208492"><ele>1174.0</ele><time>2026-04-04T13:49:24.999Z</time></trkpt><trkpt lat="45.77090827779547" lon="11.273233929976787"><ele>1174.0</ele><time>2026-04-04T13:49:26.999Z</time></trkpt><trkpt lat="45.77096285705539" lon="11.273176768203523"><ele>1174.0</ele><time>2026-04-04T13:49:28.999Z</time></trkpt><trkpt lat="45.77106061357113" lon="11.273155119390195"><ele>1174.0</ele><time>2026-04-04T13:49:31.999Z</time></trkpt><trkpt lat="45.77107465739886" lon="11.273058402756375"><ele>1178.0</ele><time>2026-04-04T13:49:33.999Z</time></trkpt><trkpt lat="45.771101810250094" lon="11.27294941158064"><ele>1182.0</ele><time>2026-04-04T13:49:35.999Z</time></trkpt><trkpt lat="45.77112577828544" lon="11.272855864641931"><ele>1186.0</ele><time>2026-04-04T13:49:37.999Z</time></trkpt><trkpt lat="45.7711984161958" lon="11.27283586560311"><ele>1190.0</ele><time>2026-04-04T13:49:39.999Z</time></trkpt><trkpt lat="45.77124301353684" lon="11.272771029147"><ele>1194.0</ele><time>2026-04-04T13:49:41.999Z</time></trkpt><trkpt lat="45.7712306316118" lon="11.272679366927882"><ele>1198.0</ele><time>2026-04-04T13:49:45.999Z</time></trkpt><trkpt lat="45.77117092986793" lon="11.272576644097414"><ele>1202.0</ele><time>2026-04-04T13:49:47.999Z</time></trkpt><trkpt lat="45.771098352055354" lon="11.272497571253968"><ele>1202.0</ele><time>2026-04-04T13:49:55.999Z</time></trkpt><trkpt lat="45.7710559947533" lon="11.272428352794371"><ele>1202.0</ele><time>2026-04-04T13:49:57.999Z</time></trkpt><trkpt lat="45.770997057511536" lon="11.272380391123667"><ele>1202.0</ele><time>2026-04-04T13:49:59.999Z</time></trkpt><trkpt lat="45.77103047251771" lon="11.272297014514807"><ele>1202.0</ele><time>2026-04-04T13:50:00.999Z</time></trkpt><trkpt lat="45.7709251089611" lon="11.272292158922207"><ele>1202.0</ele><time>2026-04-04T13:50:02.999Z</time></trkpt><trkpt lat="45.77086173728508" lon="11.272285933995295"><ele>1202.0</ele><time>2026-04-04T13:50:03.999Z</time></trkpt><trkpt lat="45.770805364908696" lon="11.272226676574693"><ele>1202.0</ele><time>2026-04-04T13:50:05.999Z</time></trkpt><trkpt lat="45.77075738947597" lon="11.272166463502332"><ele>1193.6666666666667</ele><time>2026-04-04T13:50:09.999Z</time></trkpt><trkpt lat="45.77083273822516" lon="11.27227185794541"><ele>1185.3333333333335</ele><time>2026-04-04T13:50:18.998Z</time></trkpt><trkpt lat="45.770909714946285" lon="11.272366680483547"><ele>1177.0</ele><time>2026-04-04T13:50:20.998Z</time></trkpt><trkpt lat="45.77094918246191" lon="11.272448012056449"><ele>1168.6666666666667</ele><time>2026-04-04T13:50:22.998Z</time></trkpt><trkpt lat="45.77093464571852" lon="11.272547475022755"><ele>1160.3333333333333</ele><time>2026-04-04T13:50:24.998Z</time></trkpt><trkpt lat="45.7708744653801" lon="11.272637979031487"><ele>1152.0</ele><time>2026-04-04T13:50:28.998Z</time></trkpt><trkpt lat="45.770806976008856" lon="11.272652340579873"><ele>1152.0000000000002</ele><time>2026-04-04T13:50:33Z</time></trkpt><trkpt lat="45.770745260730806" lon="11.272701466882395"><ele>1152.0</ele><time>2026-04-04T13:50:35Z</time></trkpt><trkpt lat="45.77066477959928" lon="11.272689960524922"><ele>1152.0</ele><time>2026-04-04T13:50:37Z</time></trkpt><trkpt lat="45.77059026306566" lon="11.272743697742408"><ele>1152.0</ele><time>2026-04-04T13:50:39Z</time></trkpt><trkpt lat="45.77052750366242" lon="11.272732006397518"><ele>1152.0</ele><time>2026-04-04T13:50:42Z</time></trkpt><trkpt lat="45.770452002979354" lon="11.272756795279012"><ele>1152.0000000000002</ele><time>2026-04-04T13:50:45Z</time></trkpt><trkpt lat="45.77039151814362" lon="11.272804341839755"><ele>1152.0</ele><time>2026-04-04T13:50:48Z</time></trkpt><trkpt lat="45.770327760106326" lon="11.272900055729108"><ele>1152.0</ele><time>2026-04-04T13:50:50Z</time></trkpt><trkpt lat="45.77026200332745" lon="11.2729582489714"><ele>1152.0</ele><time>2026-04-04T13:50:52Z</time></trkpt><trkpt lat="45.77018449990725" lon="11.273019559147077"><ele>1152.0</ele><time>2026-04-04T13:50:59Z</time></trkpt><trkpt lat="45.77012081633875" lon="11.27305598307991"><ele>1152.0</ele><time>2026-04-04T13:51:01Z</time></trkpt><trkpt lat="45.77007073771519" lon="11.273129358697572"><ele>1152.0</ele><time>2026-04-04T13:51:20Z</time></trkpt><trkpt lat="45.77008382877983" lon="11.27299356041304"><ele>1152.0</ele><time>2026-04-04T13:51:32.999Z</time></trkpt><trkpt lat="45.77010214770484" lon="11.27288216885744"><ele>1152.0</ele><time>2026-04-04T13:51:35.999Z</time></trkpt><trkpt lat="45.77015852475705" lon="11.27280390595733"><ele>1152.0</ele><time>2026-04-04T13:51:37.999Z</time></trkpt><trkpt lat="45.77021783784806" lon="11.272710241524052"><ele>1152.0</ele><time>2026-04-04T13:51:39.999Z</time></trkpt><trkpt lat="45.770233865202904" lon="11.272608213292138"><ele>1152.0</ele><time>2026-04-04T13:51:41.999Z</time></trkpt><trkpt lat="45.77031518691387" lon="11.272581681963008"><ele>1152.0</ele><time>2026-04-04T13:51:43.999Z</time></trkpt><trkpt lat="45.770356855843374" lon="11.272501172124107"><ele>1152.0</ele><time>2026-04-04T13:51:45.999Z</time></trkpt><trkpt lat="45.770343332261334" lon="11.272374562570214"><ele>1152.0000000000002</ele><time>2026-04-04T13:51:47.999Z</time></trkpt><trkpt lat="45.77029885646319" lon="11.272297370970458"><ele>1152.0</ele><time>2026-04-04T13:51:49.999Z</time></trkpt><trkpt lat="45.770236147009804" lon="11.2723467743593"><ele>1152.0</ele><time>2026-04-04T13:52:02.999Z</time></trkpt><trkpt lat="45.77021460260692" lon="11.272433255856683"><ele>1152.0</ele><time>2026-04-04T13:52:04.999Z</time></trkpt><trkpt lat="45.770177046659555" lon="11.272308433688007"><ele>1152.0</ele><time>2026-04-04T13:52:08.999Z</time></trkpt><trkpt lat="45.77015202918282" lon="11.272222575321337"><ele>1152.0000000000002</ele><time>2026-04-04T13:52:09.999Z</time></trkpt><trkpt lat="45.770098648357624" lon="11.272133749032623"><ele>1152.0</ele><time>2026-04-04T13:52:10.999Z</time></trkpt><trkpt lat="45.77004493767123" lon="11.272065862880869"><ele>1136.5</ele><time>2026-04-04T13:52:11.999Z</time></trkpt><trkpt lat="45.7700040337676" lon="11.271975493459108"><ele>1121.0</ele><time>2026-04-04T13:52:12.999Z</time></trkpt><trkpt lat="45.769995456169106" lon="11.271834434018626"><ele>1105.5</ele><time>2026-04-04T13:52:14.999Z</time></trkpt><trkpt lat="45.77002528648988" lon="11.271751468725688"><ele>1090.0</ele><time>2026-04-04T13:52:15.999Z</time></trkpt><trkpt lat="45.77005494273919" lon="11.271650233418503"><ele>1074.5</ele><time>2026-04-04T13:52:16.999Z</time></trkpt><trkpt lat="45.77008363160257" lon="11.271554420143936"><ele>1059.0</ele><time>2026-04-04T13:52:17.999Z</time></trkpt><trkpt lat="45.77011522671477" lon="11.271463593884645"><ele>1056.6666666666667</ele><time>2026-04-04T13:52:18.999Z</time></trkpt><trkpt lat="45.770168256898145" lon="11.271378244565646"><ele>1054.3333333333333</ele><time>2026-04-04T13:52:19.999Z</time></trkpt><trkpt lat="45.770209902570286" lon="11.271299104903312"><ele>1052.0</ele><time>2026-04-04T13:52:20.999Z</time></trkpt><trkpt lat="45.77024666280366" lon="11.271187970069246"><ele>1049.6666666666665</ele><time>2026-04-04T13:52:21.999Z</time></trkpt><trkpt lat="45.77027136935892" lon="11.271069781922838"><ele>1047.3333333333333</ele><time>2026-04-04T13:52:22.999Z</time></trkpt><trkpt lat="45.77031370633357" lon="11.270941766176067"><ele>1045.0</ele><time>2026-04-04T13:52:23.998Z</time></trkpt><trkpt lat="45.77036921681602" lon="11.270776349275547"><ele>1049.6</ele><time>2026-04-04T13:52:24.998Z</time></trkpt><trkpt lat="45.77035369209086" lon="11.270643079760848"><ele>1054.2</ele><time>2026-04-04T13:52:25.998Z</time></trkpt><trkpt lat="45.77035825465426" lon="11.270494206084386"><ele>1058.8</ele><time>2026-04-04T13:52:26.998Z</time></trkpt><trkpt lat="45.770363039528924" lon="11.270380708146234"><ele>1063.4</ele><time>2026-04-04T13:52:27.998Z</time></trkpt><trkpt lat="45.77038684097197" lon="11.270249701307886"><ele>1068.0</ele><time>2026-04-04T13:52:28.998Z</time></trkpt><trkpt lat="45.77039771527719" lon="11.270130811986816"><ele>1068.0</ele><time>2026-04-04T13:52:29.998Z</time></trkpt><trkpt lat="45.770398736781125" lon="11.27002831583995"><ele>1068.0</ele><time>2026-04-04T13:52:30.998Z</time></trkpt><trkpt lat="45.7703850368784" lon="11.269864145504192"><ele>1068.0</ele><time>2026-04-04T13:52:32.998Z</time></trkpt><trkpt lat="45.77034877844704" lon="11.269739826945571"><ele>1068.0</ele><time>2026-04-04T13:52:34.998Z</time></trkpt><trkpt lat="45.77028176544246" lon="11.26969082844948"><ele>1068.0</ele><time>2026-04-04T13:52:36.998Z</time></trkpt><trkpt lat="45.770209655353824" lon="11.269677938257745"><ele>1068.0</ele><time>2026-04-04T13:52:40Z</time></trkpt><trkpt lat="45.7701398713619" lon="11.2696810838459"><ele>1064.5</ele><time>2026-04-04T13:52:43Z</time></trkpt><trkpt lat="45.770131394073104" lon="11.269792714705716"><ele>1061.0</ele><time>2026-04-04T13:52:52Z</time></trkpt><trkpt lat="45.77014858830918" lon="11.26988514810067"><ele>1057.5</ele><time>2026-04-04T13:52:54Z</time></trkpt><trkpt lat="45.77014751563067" lon="11.270003851359759"><ele>1054.0</ele><time>2026-04-04T13:52:57Z</time></trkpt><trkpt lat="45.77005227698044" lon="11.270083538066999"><ele>1050.5</ele><time>2026-04-04T13:52:59Z</time></trkpt><trkpt lat="45.76998869567749" lon="11.270139612235445"><ele>1047.0</ele><time>2026-04-04T13:53:01Z</time></trkpt><trkpt lat="45.76991539307404" lon="11.270145768430767"><ele>1047.0</ele><time>2026-04-04T13:53:03Z</time></trkpt><trkpt lat="45.76985211374689" lon="11.270204644985109"><ele>1047.0</ele><time>2026-04-04T13:53:06Z</time></trkpt><trkpt lat="45.769883312302724" lon="11.270303090187245"><ele>1047.0</ele><time>2026-04-04T13:53:09Z</time></trkpt><trkpt lat="45.769802620255575" lon="11.270336860758013"><ele>1047.0</ele><time>2026-04-04T13:53:11Z</time></trkpt><trkpt lat="45.76977811103021" lon="11.270463035455192"><ele>1047.0</ele><time>2026-04-04T13:53:15Z</time></trkpt><trkpt lat="45.76972214219123" lon="11.270390032991642"><ele>1047.0</ele><time>2026-04-04T13:53:19Z</time></trkpt><trkpt lat="45.76965255023684" lon="11.270446507790094"><ele>1047.0000000000002</ele><time>2026-04-04T13:53:23Z</time></trkpt><trkpt lat="45.769652879006316" lon="11.27053858845966"><ele>1047.0</ele><time>2026-04-04T13:53:25.999Z</time></trkpt><trkpt lat="45.76958299602384" lon="11.270586405257992"><ele>1047.0</ele><time>2026-04-04T13:53:27.999Z</time></trkpt><trkpt lat="45.76954915902041" lon="11.270686086624188"><ele>1047.0</ele><time>2026-04-04T13:53:29.999Z</time></trkpt><trkpt lat="45.769499492580465" lon="11.270762578252667"><ele>1047.0</ele><time>2026-04-04T13:53:33.999Z</time></trkpt><trkpt lat="45.76947168602974" lon="11.270850316207069"><ele>1047.0000000000002</ele><time>2026-04-04T13:53:36.999Z</time></trkpt><trkpt lat="45.769462248058794" lon="11.270945953607672"><ele>1047.0</ele><time>2026-04-04T13:53:39.999Z</time></trkpt><trkpt lat="45.76938508501983" lon="11.271002001825117"><ele>1041.0000000000002</ele><time>2026-04-04T13:53:42.999Z</time></trkpt><trkpt lat="45.76934546994888" lon="11.271074229686214"><ele>1035.0</ele><time>2026-04-04T13:53:44.999Z</time></trkpt><trkpt lat="45.76933615753977" lon="11.271190196789817"><ele>1029.0</ele><time>2026-04-04T13:53:47.999Z</time></trkpt><trkpt lat="45.76925999497552" lon="11.271196155987123"><ele>1023.0000000000001</ele><time>2026-04-04T13:53:49.999Z</time></trkpt><trkpt lat="45.76923467027759" lon="11.27129271242457"><ele>1017.0</ele><time>2026-04-04T13:53:52.999Z</time></trkpt><trkpt lat="45.76919472914439" lon="11.271373785104522"><ele>1011.0000000000001</ele><time>2026-04-04T13:53:55.999Z</time></trkpt><trkpt lat="45.76917642081196" lon="11.27146358609093"><ele>1005.0000000000001</ele><time>2026-04-04T13:53:58.999Z</time></trkpt><trkpt lat="45.76914987952261" lon="11.271365755283043"><ele>1005.0</ele><time>2026-04-04T13:54:02.999Z</time></trkpt><trkpt lat="45.769147145405" lon="11.271241561516343"><ele>1005.0</ele><time>2026-04-04T13:54:38.998Z</time></trkpt><trkpt lat="45.769118311585906" lon="11.271328399909768"><ele>1005.0</ele><time>2026-04-04T13:54:45Z</time></trkpt><trkpt lat="45.76912568819356" lon="11.271467967188324"><ele>1005.0</ele><time>2026-04-04T13:55:32.999Z</time></trkpt><trkpt lat="45.76908559605755" lon="11.271607937359475"><ele>1005.0</ele><time>2026-04-04T13:55:34.999Z</time></trkpt><trkpt lat="45.7690463840362" lon="11.271705119079867"><ele>1005.0</ele><time>2026-04-04T13:55:35.999Z</time></trkpt><trkpt lat="45.76897911987197" lon="11.27184989331045"><ele>1004.2</ele><time>2026-04-04T13:55:36.999Z</time></trkpt><trkpt lat="45.76892233852413" lon="11.272000200885124"><ele>1003.4</ele><time>2026-04-04T13:55:37.999Z</time></trkpt><trkpt lat="45.768865982392825" lon="11.272141281451148"><ele>1002.5999999999999</ele><time>2026-04-04T13:55:38.999Z</time></trkpt><trkpt lat="45.768829401049025" lon="11.27227434944906"><ele>1001.8</ele><time>2026-04-04T13:55:39.999Z</time></trkpt><trkpt lat="45.7688060543319" lon="11.27236477868829"><ele>1001.0</ele><time>2026-04-04T13:55:40.999Z</time></trkpt><trkpt lat="45.76871704617838" lon="11.27237419133335"><ele>1001.0000000000001</ele><time>2026-04-04T13:55:44.999Z</time></trkpt><trkpt lat="45.76870078729693" lon="11.2722687046178"><ele>1001.0</ele><time>2026-04-04T13:55:46.999Z</time></trkpt><trkpt lat="45.76876499906311" lon="11.272126011864657"><ele>1001.0</ele><time>2026-04-04T13:55:48.999Z</time></trkpt><trkpt lat="45.76878790084754" lon="11.272029368646932"><ele>1001.0</ele><time>2026-04-04T13:55:49.999Z</time></trkpt><trkpt lat="45.76880883972185" lon="11.27192339846313"><ele>1001.0000000000001</ele><time>2026-04-04T13:55:50.999Z</time></trkpt><trkpt lat="45.768817585123095" lon="11.27181206115753"><ele>1001.0</ele><time>2026-04-04T13:55:51.999Z</time></trkpt><trkpt lat="45.76882938757949" lon="11.271683424158828"><ele>1001.0000000000001</ele><time>2026-04-04T13:55:52.999Z</time></trkpt><trkpt lat="45.768845856923804" lon="11.271570476756844"><ele>1001.0</ele><time>2026-04-04T13:55:53.999Z</time></trkpt><trkpt lat="45.76885880880339" lon="11.271471526032805"><ele>1001.0</ele><time>2026-04-04T13:55:54.999Z</time></trkpt><trkpt lat="45.76885962249463" lon="11.271373744302883"><ele>1001.0</ele><time>2026-04-04T13:55:55.999Z</time></trkpt><trkpt lat="45.76886266016359" lon="11.271276854055225"><ele>1001.0000000000001</ele><time>2026-04-04T13:55:56.999Z</time></trkpt><trkpt lat="45.76886215336575" lon="11.271183327102333"><ele>1001.0</ele><time>2026-04-04T13:55:57.999Z</time></trkpt><trkpt lat="45.768817508272576" lon="11.271010060254442"><ele>1001.0</ele><time>2026-04-04T13:55:59.999Z</time></trkpt><trkpt lat="45.768746939469864" lon="11.270929255707433"><ele>1000.9999999999999</ele><time>2026-04-04T13:56:01.999Z</time></trkpt><trkpt lat="45.76869704107645" lon="11.270994205137622"><ele>1000.9999999999999</ele><time>2026-04-04T13:56:03.999Z</time></trkpt><trkpt lat="45.768742653128804" lon="11.27114088333167"><ele>1001.0</ele><time>2026-04-04T13:56:05.999Z</time></trkpt><trkpt lat="45.76877418709229" lon="11.271277940272718"><ele>1001.0</ele><time>2026-04-04T13:56:07.999Z</time></trkpt><trkpt lat="45.768722269766485" lon="11.271448517692392"><ele>1001.0000000000001</ele><time>2026-04-04T13:56:09.999Z</time></trkpt><trkpt lat="45.76868007831765" lon="11.27154464795089"><ele>1001.0</ele><time>2026-04-04T13:56:10.999Z</time></trkpt><trkpt lat="45.76865025928946" lon="11.271642997310101"><ele>1001.0</ele><time>2026-04-04T13:56:11.999Z</time></trkpt><trkpt lat="45.76861618245955" lon="11.271737647951085"><ele>1001.0</ele><time>2026-04-04T13:56:12.999Z</time></trkpt><trkpt lat="45.76857560657625" lon="11.271834227856312"><ele>1001.0000000000001</ele><time>2026-04-04T13:56:13.999Z</time></trkpt><trkpt lat="45.768547628256286" lon="11.271936124775317"><ele>1001.0</ele><time>2026-04-04T13:56:14.999Z</time></trkpt><trkpt lat="45.76851688577974" lon="11.27202025567231"><ele>993.3333333333334</ele><time>2026-04-04T13:56:15.999Z</time></trkpt><trkpt lat="45.768484300964225" lon="11.272121104701633"><ele>985.6666666666667</ele><time>2026-04-04T13:56:16.999Z</time></trkpt><trkpt lat="45.76845671762083" lon="11.272215746938299"><ele>978.0</ele><time>2026-04-04T13:56:17.999Z</time></trkpt><trkpt lat="45.76843305155874" lon="11.272308457993892"><ele>970.3333333333333</ele><time>2026-04-04T13:56:18.999Z</time></trkpt><trkpt lat="45.76841167960203" lon="11.272410368013078"><ele>962.6666666666666</ele><time>2026-04-04T13:56:19.999Z</time></trkpt><trkpt lat="45.768367268319956" lon="11.272518665026178"><ele>955.0</ele><time>2026-04-04T13:56:21.999Z</time></trkpt><trkpt lat="45.76830448303385" lon="11.272470783997276"><ele>955.0</ele><time>2026-04-04T13:56:24.999Z</time></trkpt><trkpt lat="45.768297861256784" lon="11.272344238549536"><ele>955.0</ele><time>2026-04-04T13:56:26.999Z</time></trkpt><trkpt lat="45.76834982127745" lon="11.272216909018228"><ele>955.0</ele><time>2026-04-04T13:56:28.999Z</time></trkpt><trkpt lat="45.76838615820418" lon="11.272059273529408"><ele>955.0</ele><time>2026-04-04T13:56:30.998Z</time></trkpt><trkpt lat="45.76839960112783" lon="11.271915082528324"><ele>955.0</ele><time>2026-04-04T13:56:32.998Z</time></trkpt><trkpt lat="45.76840825885928" lon="11.271779114610583"><ele>954.3333333333333</ele><time>2026-04-04T13:56:34.998Z</time></trkpt><trkpt lat="45.76841865405151" lon="11.271652688984606"><ele>953.6666666666666</ele><time>2026-04-04T13:56:36.998Z</time></trkpt><trkpt lat="45.768435456213275" lon="11.27151089727946"><ele>953.0</ele><time>2026-04-04T13:56:38.998Z</time></trkpt><trkpt lat="45.76844124249329" lon="11.271384094814488"><ele>952.3333333333333</ele><time>2026-04-04T13:56:40.998Z</time></trkpt><trkpt lat="45.76838768701757" lon="11.27133513752511"><ele>951.6666666666666</ele><time>2026-04-04T13:56:42.998Z</time></trkpt><trkpt lat="45.76833937762409" lon="11.271453513419829"><ele>951.0</ele><time>2026-04-04T13:56:45.998Z</time></trkpt><trkpt lat="45.768305357885716" lon="11.271576578725709"><ele>949.5999999999999</ele><time>2026-04-04T13:56:46.998Z</time></trkpt><trkpt lat="45.76828302587215" lon="11.271682616844355"><ele>948.1999999999999</ele><time>2026-04-04T13:56:47.998Z</time></trkpt><trkpt lat="45.768239948518826" lon="11.27183394058324"><ele>946.8000000000001</ele><time>2026-04-04T13:56:50Z</time></trkpt><trkpt lat="45.76816430546375" lon="11.27198604721316"><ele>945.4000000000001</ele><time>2026-04-04T13:56:52Z</time></trkpt><trkpt lat="45.76812453771913" lon="11.27207605430307"><ele>944.0</ele><time>2026-04-04T13:56:53Z</time></trkpt><trkpt lat="45.768090842249165" lon="11.272242072571457"><ele>946.2</ele><time>2026-04-04T13:56:55Z</time></trkpt><trkpt lat="45.7680674125627" lon="11.2724147509013"><ele>948.4000000000001</ele><time>2026-04-04T13:56:57Z</time></trkpt><trkpt lat="45.768022211654944" lon="11.272576783932935"><ele>950.6</ele><time>2026-04-04T13:56:59Z</time></trkpt><trkpt lat="45.76796262829845" lon="11.272728157789"><ele>952.8</ele><time>2026-04-04T13:57:01Z</time></trkpt><trkpt lat="45.767933720929875" lon="11.27281259991062"><ele>955.0</ele><time>2026-04-04T13:57:02Z</time></trkpt><trkpt lat="45.767855489896796" lon="11.272927654084869"><ele>955.0</ele><time>2026-04-04T13:57:04Z</time></trkpt><trkpt lat="45.7677633479995" lon="11.273014791820168"><ele>955.0</ele><time>2026-04-04T13:57:06Z</time></trkpt><trkpt lat="45.767659889850144" lon="11.27304814986206"><ele>955.0</ele><time>2026-04-04T13:57:08Z</time></trkpt><trkpt lat="45.7676049069042" lon="11.272998587539092"><ele>955.0</ele><time>2026-04-04T13:57:10Z</time></trkpt><trkpt lat="45.767647108109706" lon="11.27289547551637"><ele>955.0</ele><time>2026-04-04T13:57:13Z</time></trkpt><trkpt lat="45.767756373296564" lon="11.272840562582529"><ele>954.9999999999999</ele><time>2026-04-04T13:57:15Z</time></trkpt><trkpt lat="45.76782227465586" lon="11.272741139396707"><ele>955.0</ele><time>2026-04-04T13:57:17Z</time></trkpt><trkpt lat="45.76783616612112" lon="11.27257379155241"><ele>955.0</ele><time>2026-04-04T13:57:19Z</time></trkpt><trkpt lat="45.7678164121885" lon="11.272488071748908"><ele>955.0</ele><time>2026-04-04T13:57:20Z</time></trkpt><trkpt lat="45.76778172734714" lon="11.272408147202151"><ele>954.9999999999999</ele><time>2026-04-04T13:57:21Z</time></trkpt><trkpt lat="45.76774741166328" lon="11.272330129355081"><ele>955.0</ele><time>2026-04-04T13:57:22Z</time></trkpt><trkpt lat="45.767726058388426" lon="11.272171095816221"><ele>952.8</ele><time>2026-04-04T13:57:24Z</time></trkpt><trkpt lat="45.76771626909164" lon="11.272000210291091"><ele>950.6</ele><time>2026-04-04T13:57:26Z</time></trkpt><trkpt lat="45.76775309181962" lon="11.27185487987616"><ele>948.4000000000001</ele><time>2026-04-04T13:57:28Z</time></trkpt><trkpt lat="45.76781245806856" lon="11.27169392279301"><ele>946.2</ele><time>2026-04-04T13:57:30Z</time></trkpt><trkpt lat="45.76785214200243" lon="11.271621789009648"><ele>944.0</ele><time>2026-04-04T13:57:32Z</time></trkpt><trkpt lat="45.767791418067425" lon="11.271728471718996"><ele>944.0</ele><time>2026-04-04T13:57:35Z</time></trkpt><trkpt lat="45.7679002703213" lon="11.271604260551737"><ele>944.0</ele><time>2026-04-04T13:58:14.999Z</time></trkpt><trkpt lat="45.767990237145135" lon="11.27149159061442"><ele>944.0</ele><time>2026-04-04T13:58:15.999Z</time></trkpt><trkpt lat="45.76812657722541" lon="11.271423421726391"><ele>944.0</ele><time>2026-04-04T13:58:16.999Z</time></trkpt><trkpt lat="45.76819464543062" lon="11.271297288469915"><ele>945.75</ele><time>2026-04-04T13:58:17.999Z</time></trkpt><trkpt lat="45.768195613124945" lon="11.2711236290806"><ele>947.5</ele><time>2026-04-04T13:58:18.999Z</time></trkpt><trkpt lat="45.768186261857764" lon="11.270947476590425"><ele>949.25</ele><time>2026-04-04T13:58:19.999Z</time></trkpt><trkpt lat="45.76811077356648" lon="11.270728298041744"><ele>951.0</ele><time>2026-04-04T13:58:20.999Z</time></trkpt><trkpt lat="45.76807673767072" lon="11.27045766157504"><ele>956.0</ele><time>2026-04-04T13:58:21.999Z</time></trkpt><trkpt lat="45.76798942195395" lon="11.270228766805861"><ele>961.0</ele><time>2026-04-04T13:58:22.999Z</time></trkpt><trkpt lat="45.76790880004807" lon="11.270072615133397"><ele>966.0</ele><time>2026-04-04T13:58:23.999Z</time></trkpt><trkpt lat="45.76789993794301" lon="11.269929318507264"><ele>971.0</ele><time>2026-04-04T13:58:24.999Z</time></trkpt><trkpt lat="45.76790105419071" lon="11.269791372079347"><ele>975.0</ele><time>2026-04-04T13:58:25.999Z</time></trkpt><trkpt lat="45.76790264221449" lon="11.269605529973978"><ele>979.0</ele><time>2026-04-04T13:58:26.999Z</time></trkpt><trkpt lat="45.76790550182121" lon="11.269426406081742"><ele>983.0</ele><time>2026-04-04T13:58:27.999Z</time></trkpt><trkpt lat="45.767914943136915" lon="11.269249100930944"><ele>987.0</ele><time>2026-04-04T13:58:28.999Z</time></trkpt><trkpt lat="45.767916642208434" lon="11.269075728414327"><ele>987.0</ele><time>2026-04-04T13:58:29.999Z</time></trkpt><trkpt lat="45.76789720041505" lon="11.268927401239594"><ele>987.0</ele><time>2026-04-04T13:58:30.999Z</time></trkpt><trkpt lat="45.767850739175294" lon="11.268775042172862"><ele>987.0</ele><time>2026-04-04T13:58:31.999Z</time></trkpt><trkpt lat="45.76782351156581" lon="11.268635200567294"><ele>987.0</ele><time>2026-04-04T13:58:32.999Z</time></trkpt><trkpt lat="45.767830552071246" lon="11.268493038803383"><ele>987.0</ele><time>2026-04-04T13:58:33.999Z</time></trkpt><trkpt lat="45.767884201684794" lon="11.268353983206302"><ele>987.0</ele><time>2026-04-04T13:58:34.999Z</time></trkpt><trkpt lat="45.76789552371487" lon="11.268185850759625"><ele>987.0</ele><time>2026-04-04T13:58:35.999Z</time></trkpt><trkpt lat="45.767908378983826" lon="11.26801343155076"><ele>987.0</ele><time>2026-04-04T13:58:36.999Z</time></trkpt><trkpt lat="45.76793386656215" lon="11.267847810848702"><ele>987.0</ele><time>2026-04-04T13:58:37.999Z</time></trkpt><trkpt lat="45.76797545876103" lon="11.267711652673981"><ele>987.0</ele><time>2026-04-04T13:58:38.998Z</time></trkpt><trkpt lat="45.76801188709711" lon="11.267578262223312"><ele>987.0</ele><time>2026-04-04T13:58:39.998Z</time></trkpt><trkpt lat="45.76803641918731" lon="11.267450394844964"><ele>987.0</ele><time>2026-04-04T13:58:40.998Z</time></trkpt><trkpt lat="45.76801173123441" lon="11.26731447175917"><ele>987.0</ele><time>2026-04-04T13:58:41.998Z</time></trkpt><trkpt lat="45.7679922179831" lon="11.267197007843635"><ele>987.0</ele><time>2026-04-04T13:58:42.998Z</time></trkpt><trkpt lat="45.76789523972664" lon="11.267051162470846"><ele>987.2</ele><time>2026-04-04T13:58:43.998Z</time></trkpt><trkpt lat="45.767867003677964" lon="11.266906361817083"><ele>987.4000000000001</ele><time>2026-04-04T13:58:44.998Z</time></trkpt><trkpt lat="45.7678362263393" lon="11.266778142817419"><ele>987.5999999999999</ele><time>2026-04-04T13:58:45.998Z</time></trkpt><trkpt lat="45.767837267448904" lon="11.266650724973951"><ele>987.8</ele><time>2026-04-04T13:58:46.998Z</time></trkpt><trkpt lat="45.767844686832845" lon="11.26650020748883"><ele>988.0</ele><time>2026-04-04T13:58:47.998Z</time></trkpt><trkpt lat="45.767856487875115" lon="11.266350392371793"><ele>985.0</ele><time>2026-04-04T13:58:48.998Z</time></trkpt><trkpt lat="45.767881326591024" lon="11.266206480537617"><ele>982.0</ele><time>2026-04-04T13:58:49.998Z</time></trkpt><trkpt lat="45.76793059182444" lon="11.266102409226889"><ele>979.0</ele><time>2026-04-04T13:58:50.998Z</time></trkpt><trkpt lat="45.768009454995436" lon="11.266020310179716"><ele>976.0</ele><time>2026-04-04T13:58:51.998Z</time></trkpt><trkpt lat="45.76808798336964" lon="11.265918291371845"><ele>973.0</ele><time>2026-04-04T13:58:52.998Z</time></trkpt><trkpt lat="45.768168435978076" lon="11.265808962261023"><ele>973.0</ele><time>2026-04-04T13:58:53.998Z</time></trkpt><trkpt lat="45.7682514543226" lon="11.265697553993913"><ele>973.0</ele><time>2026-04-04T13:58:54.998Z</time></trkpt><trkpt lat="45.76834106602218" lon="11.26558503353119"><ele>973.0</ele><time>2026-04-04T13:58:56Z</time></trkpt><trkpt lat="45.768434068435916" lon="11.265475640857689"><ele>973.0</ele><time>2026-04-04T13:58:57Z</time></trkpt><trkpt lat="45.7685351739381" lon="11.265357592740145"><ele>981.75</ele><time>2026-04-04T13:58:58Z</time></trkpt><trkpt lat="45.76863285067447" lon="11.26522615349049"><ele>990.5</ele><time>2026-04-04T13:58:59Z</time></trkpt><trkpt lat="45.76873184157129" lon="11.265097226238693"><ele>999.25</ele><time>2026-04-04T13:59:00Z</time></trkpt><trkpt lat="45.76884160722979" lon="11.264976587732399"><ele>1008.0</ele><time>2026-04-04T13:59:01Z</time></trkpt><trkpt lat="45.768944470618315" lon="11.26484315097385"><ele>1002.25</ele><time>2026-04-04T13:59:02Z</time></trkpt><trkpt lat="45.76903026522053" lon="11.264685149054126"><ele>996.5</ele><time>2026-04-04T13:59:03Z</time></trkpt><trkpt lat="45.769099667522056" lon="11.264513095708434"><ele>990.75</ele><time>2026-04-04T13:59:04Z</time></trkpt><trkpt lat="45.769154657679366" lon="11.264341912765458"><ele>985.0</ele><time>2026-04-04T13:59:05Z</time></trkpt><trkpt lat="45.76922492727856" lon="11.264171318368847"><ele>985.0</ele><time>2026-04-04T13:59:06Z</time></trkpt><trkpt lat="45.76925869444791" lon="11.263965687843694"><ele>985.0</ele><time>2026-04-04T13:59:07Z</time></trkpt><trkpt lat="45.76926726307751" lon="11.26376398071132"><ele>985.0</ele><time>2026-04-04T13:59:08Z</time></trkpt><trkpt lat="45.76929981488101" lon="11.263561538660111"><ele>985.0</ele><time>2026-04-04T13:59:09Z</time></trkpt><trkpt lat="45.76930998776577" lon="11.263360989331968"><ele>980.6666666666666</ele><time>2026-04-04T13:59:10Z</time></trkpt><trkpt lat="45.769334983538215" lon="11.263145626030447"><ele>976.3333333333333</ele><time>2026-04-04T13:59:11Z</time></trkpt><trkpt lat="45.769361950481255" lon="11.26293016976369"><ele>972.0</ele><time>2026-04-04T13:59:12Z</time></trkpt><trkpt lat="45.769388879349926" lon="11.262705074099204"><ele>992.6666666666667</ele><time>2026-04-04T13:59:13Z</time></trkpt><trkpt lat="45.769373947126525" lon="11.26246600551318"><ele>1013.3333333333334</ele><time>2026-04-04T13:59:14Z</time></trkpt><trkpt lat="45.76937792255796" lon="11.262238492630255"><ele>1034.0</ele><time>2026-04-04T13:59:15Z</time></trkpt><trkpt lat="45.76937363817293" lon="11.26201165245189"><ele>1036.0</ele><time>2026-04-04T13:59:16Z</time></trkpt><trkpt lat="45.76938455555094" lon="11.261781880427305"><ele>1038.0</ele><time>2026-04-04T13:59:17Z</time></trkpt><trkpt lat="45.76937921909184" lon="11.26154349307697"><ele>1040.0</ele><time>2026-04-04T13:59:18Z</time></trkpt><trkpt lat="45.769363124315674" lon="11.26130358292736"><ele>1025.3333333333335</ele><time>2026-04-04T13:59:19Z</time></trkpt><trkpt lat="45.76934008222976" lon="11.261056041446372"><ele>1010.6666666666667</ele><time>2026-04-04T13:59:20Z</time></trkpt><trkpt lat="45.769324601328854" lon="11.260822751874954"><ele>996.0</ele><time>2026-04-04T13:59:21Z</time></trkpt><trkpt lat="45.76931444207078" lon="11.260582140081452"><ele>996.0</ele><time>2026-04-04T13:59:22Z</time></trkpt><trkpt lat="45.769329224322185" lon="11.260353425800368"><ele>996.0</ele><time>2026-04-04T13:59:23Z</time></trkpt><trkpt lat="45.76933193483035" lon="11.260104847627915"><ele>996.0</ele><time>2026-04-04T13:59:24Z</time></trkpt><trkpt lat="45.76930680149957" lon="11.259881909212982"><ele>1000.6666666666667</ele><time>2026-04-04T13:59:25Z</time></trkpt><trkpt lat="45.76927675442347" lon="11.259646660264652"><ele>1005.3333333333334</ele><time>2026-04-04T13:59:26Z</time></trkpt><trkpt lat="45.7692460477472" lon="11.259418568883312"><ele>1010.0</ele><time>2026-04-04T13:59:27Z</time></trkpt><trkpt lat="45.76918898832249" lon="11.25921066656517"><ele>1010.0</ele><time>2026-04-04T13:59:28Z</time></trkpt><trkpt lat="45.76910809765924" lon="11.259063699339285"><ele>1010.0</ele><time>2026-04-04T13:59:29Z</time></trkpt><trkpt lat="45.76906883437158" lon="11.258886114199017"><ele>1010.0</ele><time>2026-04-04T13:59:30Z</time></trkpt><trkpt lat="45.76905034219916" lon="11.258698674432683"><ele>1010.0</ele><time>2026-04-04T13:59:31Z</time></trkpt><trkpt lat="45.769039703079216" lon="11.258512823706878"><ele>1013.0</ele><time>2026-04-04T13:59:32Z</time></trkpt><trkpt lat="45.769037768363496" lon="11.258312168229654"><ele>1016.0</ele><time>2026-04-04T13:59:33Z</time></trkpt><trkpt lat="45.76906840368065" lon="11.258101610759201"><ele>1019.0</ele><time>2026-04-04T13:59:34Z</time></trkpt><trkpt lat="45.76907049426109" lon="11.257883344529464"><ele>1022.0</ele><time>2026-04-04T13:59:35Z</time></trkpt><trkpt lat="45.769057385514174" lon="11.257674301895346"><ele>1025.2</ele><time>2026-04-04T13:59:36Z</time></trkpt><trkpt lat="45.769026301277094" lon="11.257471730796768"><ele>1028.4</ele><time>2026-04-04T13:59:37Z</time></trkpt><trkpt lat="45.768966975811985" lon="11.257324297613705"><ele>1031.6</ele><time>2026-04-04T13:59:38Z</time></trkpt><trkpt lat="45.76894392928575" lon="11.257234930061262"><ele>1034.8</ele><time>2026-04-04T13:59:38.999Z</time></trkpt><trkpt lat="45.768891885307504" lon="11.257183763593028"><ele>1038.0</ele><time>2026-04-04T13:59:42.999Z</time></trkpt><trkpt lat="45.76884627042492" lon="11.257099255283777"><ele>1036.0</ele><time>2026-04-04T14:00:03.999Z</time></trkpt><trkpt lat="45.768791649899406" lon="11.257043699336473"><ele>1034.0</ele><time>2026-04-04T14:00:05.999Z</time></trkpt><trkpt lat="45.76871047028233" lon="11.256983532970725"><ele>1032.0</ele><time>2026-04-04T14:00:07.999Z</time></trkpt><trkpt lat="45.76862643354185" lon="11.256911325540237"><ele>1030.0</ele><time>2026-04-04T14:00:09.999Z</time></trkpt><trkpt lat="45.768541227728434" lon="11.256888057256061"><ele>1028.0</ele><time>2026-04-04T14:00:11.999Z</time></trkpt><trkpt lat="45.76846682840003" lon="11.256872219407956"><ele>1026.0</ele><time>2026-04-04T14:00:14.999Z</time></trkpt><trkpt lat="45.76837639166567" lon="11.256840258574748"><ele>1026.0</ele><time>2026-04-04T14:00:16.999Z</time></trkpt><trkpt lat="45.76826939443425" lon="11.256763170007673"><ele>1026.0</ele><time>2026-04-04T14:00:18.999Z</time></trkpt><trkpt lat="45.76821338716295" lon="11.256715481636654"><ele>1026.0</ele><time>2026-04-04T14:00:19.999Z</time></trkpt><trkpt lat="45.76814667745394" lon="11.256675815910622"><ele>1026.0</ele><time>2026-04-04T14:00:20.999Z</time></trkpt><trkpt lat="45.76808362246498" lon="11.256596594393699"><ele>1026.0</ele><time>2026-04-04T14:00:21.999Z</time></trkpt><trkpt lat="45.76801674733796" lon="11.256541119299774"><ele>1026.0</ele><time>2026-04-04T14:00:22.999Z</time></trkpt><trkpt lat="45.767931221671056" lon="11.256468328705129"><ele>1028.3999999999999</ele><time>2026-04-04T14:00:24.999Z</time></trkpt><trkpt lat="45.767865343030934" lon="11.256406312179921"><ele>1030.8</ele><time>2026-04-04T14:00:26.999Z</time></trkpt><trkpt lat="45.767786878201946" lon="11.256328940074185"><ele>1033.1999999999998</ele><time>2026-04-04T14:00:28.999Z</time></trkpt><trkpt lat="45.76768406738603" lon="11.256219121149543"><ele>1035.6</ele><time>2026-04-04T14:00:30.999Z</time></trkpt><trkpt lat="45.767629107154214" lon="11.25613421657988"><ele>1038.0</ele><time>2026-04-04T14:00:31.999Z</time></trkpt><trkpt lat="45.76756135042325" lon="11.25605447287529"><ele>1038.0</ele><time>2026-04-04T14:00:32.999Z</time></trkpt><trkpt lat="45.767491817202604" lon="11.255980399472174"><ele>1038.0</ele><time>2026-04-04T14:00:33.999Z</time></trkpt><trkpt lat="45.76742235328787" lon="11.255925567512397"><ele>1038.0</ele><time>2026-04-04T14:00:34.999Z</time></trkpt><trkpt lat="45.767346833080275" lon="11.255885712658243"><ele>1038.0</ele><time>2026-04-04T14:00:35.999Z</time></trkpt><trkpt lat="45.76728222810035" lon="11.255851406769828"><ele>1038.0</ele><time>2026-04-04T14:00:36.999Z</time></trkpt><trkpt lat="45.76722153898471" lon="11.255819180233868"><ele>1038.0</ele><time>2026-04-04T14:00:37.999Z</time></trkpt><trkpt lat="45.76715513640883" lon="11.255786701326533"><ele>1038.0</ele><time>2026-04-04T14:00:38.999Z</time></trkpt><trkpt lat="45.76708894012061" lon="11.255755812578606"><ele>1038.0</ele><time>2026-04-04T14:00:39.999Z</time></trkpt><trkpt lat="45.76702392722351" lon="11.255728587663034"><ele>1038.0</ele><time>2026-04-04T14:00:40.999Z</time></trkpt><trkpt lat="45.76695331789025" lon="11.255702126122001"><ele>1038.0</ele><time>2026-04-04T14:00:41.998Z</time></trkpt><trkpt lat="45.766877779512676" lon="11.25567873258282"><ele>1038.0</ele><time>2026-04-04T14:00:42.998Z</time></trkpt><trkpt lat="45.766802751099725" lon="11.25566487063955"><ele>1038.0</ele><time>2026-04-04T14:00:43.998Z</time></trkpt><trkpt lat="45.766730495067925" lon="11.255663220569595"><ele>1038.0</ele><time>2026-04-04T14:00:44.998Z</time></trkpt><trkpt lat="45.76665843466256" lon="11.255676300116315"><ele>1036.142857142857</ele><time>2026-04-04T14:00:45.998Z</time></trkpt><trkpt lat="45.76659194843921" lon="11.2557093979376"><ele>1034.2857142857142</ele><time>2026-04-04T14:00:46.998Z</time></trkpt><trkpt lat="45.76651868797373" lon="11.25569214137931"><ele>1032.4285714285713</ele><time>2026-04-04T14:00:47.998Z</time></trkpt><trkpt lat="45.76645860129303" lon="11.255633168819493"><ele>1030.5714285714284</ele><time>2026-04-04T14:00:48.998Z</time></trkpt><trkpt lat="45.76643323748568" lon="11.255547903107203"><ele>1028.7142857142858</ele><time>2026-04-04T14:00:49.998Z</time></trkpt><trkpt lat="45.766435357754226" lon="11.255455155267931"><ele>1026.8571428571427</ele><time>2026-04-04T14:00:50.998Z</time></trkpt><trkpt lat="45.766464606121104" lon="11.25535093052685"><ele>1025.0</ele><time>2026-04-04T14:00:51.998Z</time></trkpt><trkpt lat="45.76650154819223" lon="11.255231067034547"><ele>1031.5</ele><time>2026-04-04T14:00:52.998Z</time></trkpt><trkpt lat="45.766492218891386" lon="11.255100435695235"><ele>1038.0</ele><time>2026-04-04T14:00:53.998Z</time></trkpt><trkpt lat="45.76643260905615" lon="11.255006618650608"><ele>1044.5</ele><time>2026-04-04T14:00:54.998Z</time></trkpt><trkpt lat="45.766355850609656" lon="11.254941867124364"><ele>1051.0</ele><time>2026-04-04T14:00:55.998Z</time></trkpt><trkpt lat="45.766280694216505" lon="11.254885595661857"><ele>1057.5</ele><time>2026-04-04T14:00:56.998Z</time></trkpt><trkpt lat="45.766230376972516" lon="11.25482786816937"><ele>1064.0</ele><time>2026-04-04T14:00:57.998Z</time></trkpt><trkpt lat="45.76618245321399" lon="11.254759169543332"><ele>1067.0</ele><time>2026-04-04T14:00:58.998Z</time></trkpt><trkpt lat="45.766120707493336" lon="11.254684112597927"><ele>1070.0</ele><time>2026-04-04T14:00:59.998Z</time></trkpt><trkpt lat="45.76607279560889" lon="11.254608516855031"><ele>1073.0</ele><time>2026-04-04T14:01:00.998Z</time></trkpt><trkpt lat="45.76602578089831" lon="11.254538103971464"><ele>1076.0</ele><time>2026-04-04T14:01:02Z</time></trkpt><trkpt lat="45.765962481740836" lon="11.254404402839286"><ele>1079.0</ele><time>2026-04-04T14:01:04Z</time></trkpt><trkpt lat="45.766019498916904" lon="11.254229940517263"><ele>1079.0</ele><time>2026-04-04T14:01:07Z</time></trkpt><trkpt lat="45.76606525325655" lon="11.254090101437392"><ele>1079.0</ele><time>2026-04-04T14:01:09Z</time></trkpt><trkpt lat="45.76611856289089" lon="11.253953948040769"><ele>1079.0</ele><time>2026-04-04T14:01:11Z</time></trkpt><trkpt lat="45.76612265514617" lon="11.253844944830712"><ele>1079.0</ele><time>2026-04-04T14:01:13Z</time></trkpt><trkpt lat="45.76616528443182" lon="11.253677376897913"><ele>1079.0</ele><time>2026-04-04T14:01:15Z</time></trkpt><trkpt lat="45.766206922000094" lon="11.253573516887036"><ele>1079.0</ele><time>2026-04-04T14:01:16Z</time></trkpt><trkpt lat="45.76624768099462" lon="11.253468693250106"><ele>1079.0</ele><time>2026-04-04T14:01:17Z</time></trkpt><trkpt lat="45.766278772158465" lon="11.253317764477513"><ele>1079.0</ele><time>2026-04-04T14:01:18Z</time></trkpt><trkpt lat="45.766297775385674" lon="11.253181043455365"><ele>1079.0</ele><time>2026-04-04T14:01:19Z</time></trkpt><trkpt lat="45.766314585916774" lon="11.253039158267487"><ele>1079.0</ele><time>2026-04-04T14:01:21Z</time></trkpt><trkpt lat="45.765621896687364" lon="11.252902759107702"><ele>1070.6000000000001</ele><time>2026-04-04T14:01:24Z</time></trkpt><trkpt lat="45.765593269451784" lon="11.253033474023987"><ele>1062.2</ele><time>2026-04-04T14:01:26Z</time></trkpt><trkpt lat="45.765563277318364" lon="11.25314856142568"><ele>1053.8000000000002</ele><time>2026-04-04T14:01:27Z</time></trkpt><trkpt lat="45.76544874711992" lon="11.253248853972888"><ele>1045.4</ele><time>2026-04-04T14:01:29Z</time></trkpt><trkpt lat="45.765376381156706" lon="11.25331163222245"><ele>1037.0</ele><time>2026-04-04T14:01:30Z</time></trkpt><trkpt lat="45.76531756186778" lon="11.253359879793997"><ele>1036.0</ele><time>2026-04-04T14:01:31Z</time></trkpt><trkpt lat="45.76523190953572" lon="11.25343786336636"><ele>1035.0</ele><time>2026-04-04T14:01:33Z</time></trkpt><trkpt lat="45.76519784944094" lon="11.253544876638987"><ele>1034.0</ele><time>2026-04-04T14:01:34Z</time></trkpt><trkpt lat="45.76516867050779" lon="11.25367261044829"><ele>1033.0</ele><time>2026-04-04T14:01:35Z</time></trkpt><trkpt lat="45.76514597464626" lon="11.25377978819068"><ele>1032.0</ele><time>2026-04-04T14:01:36Z</time></trkpt><trkpt lat="45.76512040108029" lon="11.25387623295076"><ele>1031.0</ele><time>2026-04-04T14:01:37Z</time></trkpt><trkpt lat="45.765093530723426" lon="11.253960893184797"><ele>1023.0000000000001</ele><time>2026-04-04T14:01:38Z</time></trkpt><trkpt lat="45.76507022278807" lon="11.254045079724218"><ele>1015.0</ele><time>2026-04-04T14:01:39Z</time></trkpt><trkpt lat="45.76504775952812" lon="11.254192903342057"><ele>1007.0</ele><time>2026-04-04T14:01:41Z</time></trkpt><trkpt lat="45.76502200998282" lon="11.2542884018342"><ele>999.0</ele><time>2026-04-04T14:01:43Z</time></trkpt><trkpt lat="45.764984675249906" lon="11.254408055427264"><ele>991.0000000000001</ele><time>2026-04-04T14:02:50.998Z</time></trkpt><trkpt lat="45.76493764315306" lon="11.254307247248086"><ele>983.0</ele><time>2026-04-04T14:02:58.998Z</time></trkpt><trkpt lat="45.76487807188532" lon="11.254222351047645"><ele>983.0000000000001</ele><time>2026-04-04T14:03:01.998Z</time></trkpt><trkpt lat="45.76486524396809" lon="11.254123801561024"><ele>983.0</ele><time>2026-04-04T14:03:03.998Z</time></trkpt><trkpt lat="45.76480947687862" lon="11.2539736883784"><ele>983.0</ele><time>2026-04-04T14:03:05.998Z</time></trkpt><trkpt lat="45.76478261333546" lon="11.253884805850968"><ele>983.0</ele><time>2026-04-04T14:03:06.998Z</time></trkpt><trkpt lat="45.76474645879198" lon="11.253754002468213"><ele>983.0000000000001</ele><time>2026-04-04T14:03:09Z</time></trkpt><trkpt lat="45.764747315029425" lon="11.25363169531827"><ele>983.0</ele><time>2026-04-04T14:03:11Z</time></trkpt><trkpt lat="45.7647927455719" lon="11.253558995337672"><ele>982.8333333333334</ele><time>2026-04-04T14:03:19Z</time></trkpt><trkpt lat="45.764825627062784" lon="11.25347743194891"><ele>982.6666666666667</ele><time>2026-04-04T14:03:29Z</time></trkpt><trkpt lat="45.764879185408404" lon="11.253396157576747"><ele>982.5</ele><time>2026-04-04T14:03:31Z</time></trkpt><trkpt lat="45.76491828426109" lon="11.253312108935276"><ele>982.3333333333333</ele><time>2026-04-04T14:03:33Z</time></trkpt><trkpt lat="45.7648454917663" lon="11.253225191330397"><ele>982.1666666666666</ele><time>2026-04-04T14:03:37Z</time></trkpt><trkpt lat="45.76479147234543" lon="11.253149525774639"><ele>982.0</ele><time>2026-04-04T14:03:39Z</time></trkpt><trkpt lat="45.76476939526814" lon="11.253035305480612"><ele>984.2857142857142</ele><time>2026-04-04T14:03:41Z</time></trkpt><trkpt lat="45.76475038150741" lon="11.252925194955042"><ele>986.5714285714284</ele><time>2026-04-04T14:03:45Z</time></trkpt><trkpt lat="45.7647335913774" lon="11.252835670161103"><ele>988.8571428571429</ele><time>2026-04-04T14:03:47Z</time></trkpt><trkpt lat="45.764725304612334" lon="11.25271010228786"><ele>991.1428571428571</ele><time>2026-04-04T14:03:48.999Z</time></trkpt><trkpt lat="45.76472264032122" lon="11.252594407470214"><ele>993.4285714285714</ele><time>2026-04-04T14:03:51.999Z</time></trkpt><trkpt lat="45.764675230682535" lon="11.252529886856504"><ele>995.7142857142858</ele><time>2026-04-04T14:04:05.999Z</time></trkpt><trkpt lat="45.764609095330705" lon="11.252539791233628"><ele>998.0000000000001</ele><time>2026-04-04T14:04:07.999Z</time></trkpt><trkpt lat="45.76453888507102" lon="11.252574548535232"><ele>998.0000000000001</ele><time>2026-04-04T14:04:09.999Z</time></trkpt><trkpt lat="45.764475895163535" lon="11.252614987081376"><ele>998.0</ele><time>2026-04-04T14:04:11.999Z</time></trkpt><trkpt lat="45.76440460507961" lon="11.252672335905029"><ele>998.0</ele><time>2026-04-04T14:04:13.999Z</time></trkpt><trkpt lat="45.764323482707745" lon="11.252700108365481"><ele>998.0</ele><time>2026-04-04T14:04:15.999Z</time></trkpt><trkpt lat="45.76425476304692" lon="11.25275914825153"><ele>998.0000000000001</ele><time>2026-04-04T14:04:18.999Z</time></trkpt><trkpt lat="45.764184362046535" lon="11.252812662171422"><ele>998.0</ele><time>2026-04-04T14:04:20.999Z</time></trkpt><trkpt lat="45.76411569103138" lon="11.25283553498339"><ele>991.8333333333334</ele><time>2026-04-04T14:04:22.999Z</time></trkpt><trkpt lat="45.76402178297231" lon="11.252806151223682"><ele>985.6666666666667</ele><time>2026-04-04T14:04:23.999Z</time></trkpt><trkpt lat="45.763931253357576" lon="11.252800432243266"><ele>979.5</ele><time>2026-04-04T14:04:25.999Z</time></trkpt><trkpt lat="45.76384581624379" lon="11.252755714950347"><ele>973.3333333333333</ele><time>2026-04-04T14:04:27.999Z</time></trkpt><trkpt lat="45.76378133869593" lon="11.252748260685445"><ele>967.1666666666666</ele><time>2026-04-04T14:04:29.999Z</time></trkpt><trkpt lat="45.76370978262468" lon="11.252720959684035"><ele>961.0</ele><time>2026-04-04T14:04:31.999Z</time></trkpt><trkpt lat="45.763651258460285" lon="11.252770699653455"><ele>960.9999999999999</ele><time>2026-04-04T14:04:33.999Z</time></trkpt><trkpt lat="45.76356075632551" lon="11.252820120575462"><ele>961.0</ele><time>2026-04-04T14:04:35.999Z</time></trkpt><trkpt lat="45.76349117396266" lon="11.252769145756837"><ele>961.0</ele><time>2026-04-04T14:04:37.999Z</time></trkpt><trkpt lat="45.76340417757135" lon="11.252779763320916"><ele>961.0</ele><time>2026-04-04T14:04:39.999Z</time></trkpt><trkpt lat="45.76331286043312" lon="11.252799332884521"><ele>960.9999999999999</ele><time>2026-04-04T14:04:41.999Z</time></trkpt><trkpt lat="45.7632316931177" lon="11.252777875076458"><ele>961.0</ele><time>2026-04-04T14:04:43.999Z</time></trkpt><trkpt lat="45.76314081610364" lon="11.252756640228947"><ele>956.7142857142857</ele><time>2026-04-04T14:04:46.999Z</time></trkpt><trkpt lat="45.76307528769956" lon="11.252777110817869"><ele>952.4285714285713</ele><time>2026-04-04T14:04:48.999Z</time></trkpt><trkpt lat="45.76301209865666" lon="11.252754390046187"><ele>948.1428571428571</ele><time>2026-04-04T14:04:51.998Z</time></trkpt><trkpt lat="45.76294670066664" lon="11.25275223227324"><ele>943.8571428571429</ele><time>2026-04-04T14:04:52.998Z</time></trkpt><trkpt lat="45.76287811738501" lon="11.252739359609128"><ele>939.5714285714286</ele><time>2026-04-04T14:04:53.998Z</time></trkpt><trkpt lat="45.762814554282265" lon="11.252740638255501"><ele>935.2857142857142</ele><time>2026-04-04T14:04:54.998Z</time></trkpt><trkpt lat="45.762729712727136" lon="11.252746689678352"><ele>931.0</ele><time>2026-04-04T14:04:56.998Z</time></trkpt><trkpt lat="45.76264823051642" lon="11.252736174996143"><ele>925.6666666666666</ele><time>2026-04-04T14:04:58.998Z</time></trkpt><trkpt lat="45.762582947441636" lon="11.252750476578923"><ele>920.3333333333333</ele><time>2026-04-04T14:05:00.998Z</time></trkpt><trkpt lat="45.76250401194347" lon="11.25277052660438"><ele>915.0</ele><time>2026-04-04T14:05:03.998Z</time></trkpt><trkpt lat="45.7624156881164" lon="11.252785665203975"><ele>909.6666666666667</ele><time>2026-04-04T14:05:06.998Z</time></trkpt><trkpt lat="45.76235340586981" lon="11.252814417297593"><ele>904.3333333333334</ele><time>2026-04-04T14:05:08.998Z</time></trkpt><trkpt lat="45.76227824681056" lon="11.252814787184077"><ele>899.0</ele><time>2026-04-04T14:05:11.998Z</time></trkpt><trkpt lat="45.76217217815255" lon="11.252867643496424"><ele>898.9999999999999</ele><time>2026-04-04T14:05:15Z</time></trkpt><trkpt lat="45.76210260963067" lon="11.252898348610751"><ele>899.0</ele><time>2026-04-04T14:05:17Z</time></trkpt><trkpt lat="45.7620292717877" lon="11.25290261558445"><ele>898.9999999999999</ele><time>2026-04-04T14:05:19Z</time></trkpt><trkpt lat="45.76195724901633" lon="11.2528933071857"><ele>898.9999999999999</ele><time>2026-04-04T14:05:21Z</time></trkpt><trkpt lat="45.761904517342025" lon="11.252817270059534"><ele>899.0</ele><time>2026-04-04T14:05:23Z</time></trkpt><trkpt lat="45.76185913866083" lon="11.252739473991085"><ele>898.9999999999999</ele><time>2026-04-04T14:05:25Z</time></trkpt><trkpt lat="45.76177952679202" lon="11.252735081412812"><ele>898.9999999999999</ele><time>2026-04-04T14:05:28Z</time></trkpt><trkpt lat="45.76169226445493" lon="11.25268159248902"><ele>894.4285714285713</ele><time>2026-04-04T14:06:21.999Z</time></trkpt><trkpt lat="45.761628301867354" lon="11.25271897559737"><ele>889.8571428571429</ele><time>2026-04-04T14:06:31.999Z</time></trkpt><trkpt lat="45.76154786150416" lon="11.252731387958399"><ele>885.2857142857142</ele><time>2026-04-04T14:06:33.999Z</time></trkpt><trkpt lat="45.76148669763876" lon="11.252769622425859"><ele>880.7142857142857</ele><time>2026-04-04T14:06:35.999Z</time></trkpt><trkpt lat="45.761423147340786" lon="11.25279902153689"><ele>876.1428571428571</ele><time>2026-04-04T14:06:37.999Z</time></trkpt><trkpt lat="45.761354542389675" lon="11.252863284731987"><ele>871.5714285714286</ele><time>2026-04-04T14:06:41.999Z</time></trkpt><trkpt lat="45.761276725661524" lon="11.252898556865613"><ele>867.0</ele><time>2026-04-04T14:06:44.999Z</time></trkpt><trkpt lat="45.7612183763765" lon="11.252968254034387"><ele>867.0</ele><time>2026-04-04T14:06:47.999Z</time></trkpt><trkpt lat="45.76113575264739" lon="11.252996841604734"><ele>867.0</ele><time>2026-04-04T14:06:49.999Z</time></trkpt><trkpt lat="45.761033735090976" lon="11.253020758528548"><ele>867.0</ele><time>2026-04-04T14:06:52.999Z</time></trkpt><trkpt lat="45.76094111002606" lon="11.253075299067369"><ele>867.0</ele><time>2026-04-04T14:06:54.999Z</time></trkpt><trkpt lat="45.76089128412843" lon="11.253139330815026"><ele>867.0</ele><time>2026-04-04T14:06:56.999Z</time></trkpt><trkpt lat="45.76082703788" lon="11.253214518778485"><ele>867.0</ele><time>2026-04-04T14:06:58.999Z</time></trkpt><trkpt lat="45.76076573212628" lon="11.253298852688228"><ele>863.3333333333334</ele><time>2026-04-04T14:07:00.998Z</time></trkpt><trkpt lat="45.76071271415385" lon="11.253347605178375"><ele>859.6666666666667</ele><time>2026-04-04T14:07:01.998Z</time></trkpt><trkpt lat="45.76064901300207" lon="11.253436073167899"><ele>856.0</ele><time>2026-04-04T14:07:03.998Z</time></trkpt><trkpt lat="45.760572820088925" lon="11.253519433739983"><ele>852.3333333333334</ele><time>2026-04-04T14:07:05.998Z</time></trkpt><trkpt lat="45.76050932047045" lon="11.253614218634064"><ele>848.6666666666667</ele><time>2026-04-04T14:07:07.998Z</time></trkpt><trkpt lat="45.7604481291352" lon="11.253726491149072"><ele>845.0</ele><time>2026-04-04T14:07:09.998Z</time></trkpt><trkpt lat="45.76034944250251" lon="11.253837257324646"><ele>845.0</ele><time>2026-04-04T14:07:11.998Z</time></trkpt><trkpt lat="45.76025891702068" lon="11.253942561534966"><ele>845.0</ele><time>2026-04-04T14:07:13.998Z</time></trkpt><trkpt lat="45.7602271437724" lon="11.25405401117046"><ele>845.0</ele><time>2026-04-04T14:07:15.998Z</time></trkpt><trkpt lat="45.76014079931075" lon="11.25414955453461"><ele>845.0</ele><time>2026-04-04T14:07:19Z</time></trkpt><trkpt lat="45.76006018055437" lon="11.254249005216275"><ele>845.0</ele><time>2026-04-04T14:07:21Z</time></trkpt><trkpt lat="45.7599828637197" lon="11.254334282846692"><ele>839.3333333333334</ele><time>2026-04-04T14:07:23Z</time></trkpt><trkpt lat="45.75989131885052" lon="11.25438116763536"><ele>833.6666666666667</ele><time>2026-04-04T14:07:25Z</time></trkpt><trkpt lat="45.75978264921183" lon="11.254429244297679"><ele>828.0</ele><time>2026-04-04T14:07:27Z</time></trkpt><trkpt lat="45.75971406121762" lon="11.254471903087031"><ele>822.3333333333333</ele><time>2026-04-04T14:07:28Z</time></trkpt><trkpt lat="45.759655312093955" lon="11.254539982470149"><ele>816.6666666666666</ele><time>2026-04-04T14:07:29Z</time></trkpt><trkpt lat="45.7595898951583" lon="11.25460676925554"><ele>811.0</ele><time>2026-04-04T14:07:30Z</time></trkpt><trkpt lat="45.75951137398378" lon="11.2546668311277"><ele>810.9999999999999</ele><time>2026-04-04T14:07:31Z</time></trkpt><trkpt lat="45.759437620465775" lon="11.254734875493224"><ele>811.0</ele><time>2026-04-04T14:07:32Z</time></trkpt><trkpt lat="45.75936503386385" lon="11.2548100355189"><ele>811.0</ele><time>2026-04-04T14:07:33Z</time></trkpt><trkpt lat="45.75931321017267" lon="11.254877458280422"><ele>811.0</ele><time>2026-04-04T14:07:34Z</time></trkpt><trkpt lat="45.75925590409131" lon="11.254937400064962"><ele>810.9999999999999</ele><time>2026-04-04T14:07:35Z</time></trkpt><trkpt lat="45.75914796669079" lon="11.255010955714573"><ele>811.0</ele><time>2026-04-04T14:07:37Z</time></trkpt><trkpt lat="45.759055187976166" lon="11.25505258429815"><ele>806.3333333333333</ele><time>2026-04-04T14:07:39Z</time></trkpt><trkpt lat="45.759002477521925" lon="11.25512153189076"><ele>801.6666666666666</ele><time>2026-04-04T14:07:41Z</time></trkpt><trkpt lat="45.75893496398833" lon="11.255183587665881"><ele>797.0</ele><time>2026-04-04T14:07:43Z</time></trkpt><trkpt lat="45.75887292141889" lon="11.255234019286421"><ele>792.3333333333333</ele><time>2026-04-04T14:07:45Z</time></trkpt><trkpt lat="45.75878681608238" lon="11.255280026571704"><ele>787.6666666666666</ele><time>2026-04-04T14:07:48Z</time></trkpt><trkpt lat="45.75868422774807" lon="11.255329030326658"><ele>783.0</ele><time>2026-04-04T14:07:50Z</time></trkpt><trkpt lat="45.75861105037084" lon="11.25540292518652"><ele>783.0</ele><time>2026-04-04T14:07:52Z</time></trkpt><trkpt lat="45.75856046030558" lon="11.255465354627129"><ele>783.0</ele><time>2026-04-04T14:07:53Z</time></trkpt><trkpt lat="45.758469321346475" lon="11.25552688916928"><ele>783.0</ele><time>2026-04-04T14:07:55Z</time></trkpt><trkpt lat="45.75840138160903" lon="11.255575888819122"><ele>783.0</ele><time>2026-04-04T14:07:57Z</time></trkpt><trkpt lat="45.75834158094546" lon="11.255617049136088"><ele>783.0</ele><time>2026-04-04T14:07:58Z</time></trkpt><trkpt lat="45.75826917887678" lon="11.25566240327504"><ele>783.0</ele><time>2026-04-04T14:07:59Z</time></trkpt><trkpt lat="45.758198424610825" lon="11.255692563750763"><ele>779.2</ele><time>2026-04-04T14:08:00Z</time></trkpt><trkpt lat="45.758083771473444" lon="11.255776795847458"><ele>775.4</ele><time>2026-04-04T14:08:02Z</time></trkpt><trkpt lat="45.758011974035455" lon="11.255836885064053"><ele>771.6</ele><time>2026-04-04T14:08:02.999Z</time></trkpt><trkpt lat="45.75794936176129" lon="11.25586523377548"><ele>767.8000000000001</ele><time>2026-04-04T14:08:03.999Z</time></trkpt><trkpt lat="45.757827540021815" lon="11.255946452775108"><ele>764.0</ele><time>2026-04-04T14:08:05.999Z</time></trkpt><trkpt lat="45.757760806146614" lon="11.255983784599072"><ele>762.1428571428572</ele><time>2026-04-04T14:08:06.999Z</time></trkpt><trkpt lat="45.75769721457318" lon="11.256022647593673"><ele>760.2857142857142</ele><time>2026-04-04T14:08:07.999Z</time></trkpt><trkpt lat="45.757640557817396" lon="11.256085661721622"><ele>758.4285714285714</ele><time>2026-04-04T14:08:08.999Z</time></trkpt><trkpt lat="45.757578797573764" lon="11.2561577477756"><ele>756.5714285714287</ele><time>2026-04-04T14:08:09.999Z</time></trkpt><trkpt lat="45.75752377074312" lon="11.256227753060312"><ele>754.7142857142858</ele><time>2026-04-04T14:08:10.999Z</time></trkpt><trkpt lat="45.757481629381495" lon="11.256310688530677"><ele>752.8571428571429</ele><time>2026-04-04T14:08:11.999Z</time></trkpt><trkpt lat="45.75743236467807" lon="11.256383150413743"><ele>751.0</ele><time>2026-04-04T14:08:12.999Z</time></trkpt><trkpt lat="45.757366336649184" lon="11.256428316317201"><ele>751.0</ele><time>2026-04-04T14:08:13.999Z</time></trkpt><trkpt lat="45.75730236372185" lon="11.256521438562642"><ele>751.0</ele><time>2026-04-04T14:08:15.999Z</time></trkpt><trkpt lat="45.75723500064812" lon="11.256480225701942"><ele>751.0</ele><time>2026-04-04T14:08:53.999Z</time></trkpt><trkpt lat="45.75721437542516" lon="11.256373967360533"><ele>751.0</ele><time>2026-04-04T14:08:54.999Z</time></trkpt><trkpt lat="45.75719010346918" lon="11.256266631316944"><ele>751.0</ele><time>2026-04-04T14:08:56.999Z</time></trkpt><trkpt lat="45.75712736936683" lon="11.256290421873764"><ele>751.0</ele><time>2026-04-04T14:08:57.999Z</time></trkpt><trkpt lat="45.75706062824836" lon="11.256283233341872"><ele>751.0</ele><time>2026-04-04T14:08:59.999Z</time></trkpt><trkpt lat="45.75702272683827" lon="11.256126982090205"><ele>751.0</ele><time>2026-04-04T14:09:01.999Z</time></trkpt><trkpt lat="45.757029002654065" lon="11.25603683814556"><ele>751.0</ele><time>2026-04-04T14:09:02.999Z</time></trkpt><trkpt lat="45.75706591554422" lon="11.255892521835397"><ele>751.0</ele><time>2026-04-04T14:09:03.999Z</time></trkpt><trkpt lat="45.75710667617698" lon="11.255765999540506"><ele>751.0</ele><time>2026-04-04T14:09:04.999Z</time></trkpt><trkpt lat="45.75715188089642" lon="11.255656852696493"><ele>748.3333333333334</ele><time>2026-04-04T14:09:05.999Z</time></trkpt><trkpt lat="45.75720621466916" lon="11.255561455951586"><ele>745.6666666666667</ele><time>2026-04-04T14:09:06.998Z</time></trkpt><trkpt lat="45.757262817328815" lon="11.255454183944822"><ele>743.0</ele><time>2026-04-04T14:09:07.999Z</time></trkpt><trkpt lat="45.75731006240533" lon="11.255370673299744"><ele>740.3333333333334</ele><time>2026-04-04T14:09:08.998Z</time></trkpt><trkpt lat="45.7573588011163" lon="11.255271651830434"><ele>737.6666666666666</ele><time>2026-04-04T14:09:09.998Z</time></trkpt><trkpt lat="45.757406203298196" lon="11.255179662307034"><ele>735.0</ele><time>2026-04-04T14:09:10.998Z</time></trkpt><trkpt lat="45.75743884622107" lon="11.255066001665003"><ele>735.0</ele><time>2026-04-04T14:09:11.998Z</time></trkpt><trkpt lat="45.75744939589668" lon="11.254948226615511"><ele>735.0</ele><time>2026-04-04T14:09:12.998Z</time></trkpt><trkpt lat="45.75747996337312" lon="11.254746842762039"><ele>735.0</ele><time>2026-04-04T14:09:14.998Z</time></trkpt><trkpt lat="45.75751724942993" lon="11.25464950112754"><ele>735.0</ele><time>2026-04-04T14:09:15.998Z</time></trkpt><trkpt lat="45.75757458916195" lon="11.254538298633719"><ele>735.0</ele><time>2026-04-04T14:09:16.998Z</time></trkpt><trkpt lat="45.75765489006347" lon="11.254472424002497"><ele>736.4</ele><time>2026-04-04T14:09:17.998Z</time></trkpt><trkpt lat="45.75774044165375" lon="11.254430337385871"><ele>737.8</ele><time>2026-04-04T14:09:18.998Z</time></trkpt><trkpt lat="45.75781561135103" lon="11.254384031837953"><ele>739.2</ele><time>2026-04-04T14:09:19.998Z</time></trkpt><trkpt lat="45.75790526818888" lon="11.254356638056478"><ele>740.6</ele><time>2026-04-04T14:09:20.998Z</time></trkpt><trkpt lat="45.757938527164455" lon="11.254176159507802"><ele>742.0</ele><time>2026-04-04T14:09:21.998Z</time></trkpt><trkpt lat="45.75800341344054" lon="11.254046235269318"><ele>738.4000000000001</ele><time>2026-04-04T14:09:22.998Z</time></trkpt><trkpt lat="45.758071630268034" lon="11.253940475880851"><ele>734.8000000000001</ele><time>2026-04-04T14:09:23.998Z</time></trkpt><trkpt lat="45.75809635154038" lon="11.253816457133865"><ele>731.2</ele><time>2026-04-04T14:09:25Z</time></trkpt><trkpt lat="45.75824343629929" lon="11.253800277248233"><ele>727.6</ele><time>2026-04-04T14:09:26Z</time></trkpt><trkpt lat="45.75832868363554" lon="11.253722086259735"><ele>724.0</ele><time>2026-04-04T14:09:27Z</time></trkpt><trkpt lat="45.75842975985119" lon="11.253627650384765"><ele>724.0</ele><time>2026-04-04T14:09:28Z</time></trkpt><trkpt lat="45.758509035968174" lon="11.25351575555542"><ele>724.0</ele><time>2026-04-04T14:09:29Z</time></trkpt><trkpt lat="45.75856984365352" lon="11.253381643406666"><ele>724.0</ele><time>2026-04-04T14:09:30Z</time></trkpt><trkpt lat="45.758588982437416" lon="11.253237635021287"><ele>724.0</ele><time>2026-04-04T14:09:31Z</time></trkpt><trkpt lat="45.758613628056125" lon="11.253063118579815"><ele>724.0</ele><time>2026-04-04T14:09:32Z</time></trkpt><trkpt lat="45.75866179313613" lon="11.252914853925311"><ele>732.0</ele><time>2026-04-04T14:09:33Z</time></trkpt><trkpt lat="45.758735730495175" lon="11.252773925340358"><ele>740.0</ele><time>2026-04-04T14:09:34Z</time></trkpt><trkpt lat="45.758817982338506" lon="11.25264077279734"><ele>748.0</ele><time>2026-04-04T14:09:35Z</time></trkpt><trkpt lat="45.7588799400563" lon="11.252518554714143"><ele>756.0</ele><time>2026-04-04T14:09:36Z</time></trkpt><trkpt lat="45.75893081937513" lon="11.252373208871838"><ele>753.5</ele><time>2026-04-04T14:09:37Z</time></trkpt><trkpt lat="45.75896983572055" lon="11.252206309592493"><ele>751.0</ele><time>2026-04-04T14:09:38Z</time></trkpt><trkpt lat="45.75899591949697" lon="11.252033088143913"><ele>748.5</ele><time>2026-04-04T14:09:39Z</time></trkpt><trkpt lat="45.75900497210864" lon="11.25186022238746"><ele>746.0</ele><time>2026-04-04T14:09:40Z</time></trkpt><trkpt lat="45.75900620292448" lon="11.251720951261278"><ele>746.0</ele><time>2026-04-04T14:09:41Z</time></trkpt><trkpt lat="45.75908084448115" lon="11.251607284704951"><ele>746.0</ele><time>2026-04-04T14:09:43Z</time></trkpt><trkpt lat="45.759143007962265" lon="11.251564533476126"><ele>746.0</ele><time>2026-04-04T14:09:44Z</time></trkpt><trkpt lat="45.75921147872819" lon="11.251482010743143"><ele>746.0</ele><time>2026-04-04T14:09:45Z</time></trkpt><trkpt lat="45.759212068578414" lon="11.251321340357933"><ele>746.0</ele><time>2026-04-04T14:09:47Z</time></trkpt><trkpt lat="45.75919556587457" lon="11.25121837671823"><ele>749.25</ele><time>2026-04-04T14:09:48Z</time></trkpt><trkpt lat="45.75921796641115" lon="11.251080137360686"><ele>752.5</ele><time>2026-04-04T14:09:50Z</time></trkpt><trkpt lat="45.75932399841959" lon="11.250987934681298"><ele>755.75</ele><time>2026-04-04T14:09:52Z</time></trkpt><trkpt lat="45.759424772187714" lon="11.250931721008335"><ele>759.0</ele><time>2026-04-04T14:09:53Z</time></trkpt><trkpt lat="45.75953896293889" lon="11.25085803384417"><ele>759.0</ele><time>2026-04-04T14:09:54Z</time></trkpt><trkpt lat="45.75963908442299" lon="11.250737212616524"><ele>759.0</ele><time>2026-04-04T14:09:55Z</time></trkpt><trkpt lat="45.75971300186142" lon="11.250594384097301"><ele>759.0</ele><time>2026-04-04T14:09:56Z</time></trkpt><trkpt lat="45.75977961929924" lon="11.250496302979256"><ele>759.0</ele><time>2026-04-04T14:09:57Z</time></trkpt><trkpt lat="45.75984752508513" lon="11.250458854733132"><ele>759.0</ele><time>2026-04-04T14:09:58Z</time></trkpt><trkpt lat="45.75990873980502" lon="11.250481899963674"><ele>758.2</ele><time>2026-04-04T14:09:59Z</time></trkpt><trkpt lat="45.75995855842719" lon="11.250608798322677"><ele>757.4000000000001</ele><time>2026-04-04T14:10:01Z</time></trkpt><trkpt lat="45.76006200222623" lon="11.250599990555838"><ele>756.6</ele><time>2026-04-04T14:10:03Z</time></trkpt><trkpt lat="45.76009620522756" lon="11.250514944183003"><ele>755.8</ele><time>2026-04-04T14:10:04Z</time></trkpt><trkpt lat="45.76016720461971" lon="11.250438686049247"><ele>755.0</ele><time>2026-04-04T14:10:05Z</time></trkpt><trkpt lat="45.76025098987993" lon="11.250392179402837"><ele>755.0</ele><time>2026-04-04T14:10:05.999Z</time></trkpt><trkpt lat="45.76032411665599" lon="11.250411215548954"><ele>755.0</ele><time>2026-04-04T14:10:06.999Z</time></trkpt><trkpt lat="45.76042089843154" lon="11.250407189034673"><ele>755.0</ele><time>2026-04-04T14:10:07.999Z</time></trkpt><trkpt lat="45.76050950647403" lon="11.250367063079846"><ele>755.0</ele><time>2026-04-04T14:10:08.999Z</time></trkpt><trkpt lat="45.760595478682944" lon="11.250291490045022"><ele>755.0</ele><time>2026-04-04T14:10:09.999Z</time></trkpt><trkpt lat="45.76064396104263" lon="11.250186727411318"><ele>755.0</ele><time>2026-04-04T14:10:10.999Z</time></trkpt><trkpt lat="45.76071975802414" lon="11.250084134578572"><ele>755.0</ele><time>2026-04-04T14:10:11.999Z</time></trkpt><trkpt lat="45.76079935093251" lon="11.249965965893916"><ele>755.0</ele><time>2026-04-04T14:10:12.999Z</time></trkpt><trkpt lat="45.760884329542165" lon="11.249875755751624"><ele>755.0</ele><time>2026-04-04T14:10:13.999Z</time></trkpt><trkpt lat="45.760976489023896" lon="11.249765196254732"><ele>755.0</ele><time>2026-04-04T14:10:14.999Z</time></trkpt><trkpt lat="45.76102229065474" lon="11.249664492409133"><ele>762.1666666666666</ele><time>2026-04-04T14:10:15.999Z</time></trkpt><trkpt lat="45.76108251424661" lon="11.2496023364525"><ele>769.3333333333333</ele><time>2026-04-04T14:10:16.999Z</time></trkpt><trkpt lat="45.76114660070451" lon="11.249543466901653"><ele>776.5</ele><time>2026-04-04T14:10:17.999Z</time></trkpt><trkpt lat="45.76119485536236" lon="11.24946744424658"><ele>783.6666666666666</ele><time>2026-04-04T14:10:18.999Z</time></trkpt><trkpt lat="45.76115196916564" lon="11.249310480370795"><ele>790.8333333333334</ele><time>2026-04-04T14:10:20.999Z</time></trkpt><trkpt lat="45.76111221618644" lon="11.249190364266186"><ele>798.0</ele><time>2026-04-04T14:10:21.999Z</time></trkpt><trkpt lat="45.761080861714845" lon="11.249089515361867"><ele>790.5999999999999</ele><time>2026-04-04T14:10:22.999Z</time></trkpt><trkpt lat="45.76102980394181" lon="11.2489124146215"><ele>783.1999999999999</ele><time>2026-04-04T14:10:23.999Z</time></trkpt><trkpt lat="45.761024887274466" lon="11.248770184386807"><ele>775.8</ele><time>2026-04-04T14:10:24.999Z</time></trkpt><trkpt lat="45.76102779835383" lon="11.248645956586504"><ele>768.4</ele><time>2026-04-04T14:10:25.999Z</time></trkpt><trkpt lat="45.761025012485774" lon="11.248545952418121"><ele>761.0</ele><time>2026-04-04T14:10:26.999Z</time></trkpt><trkpt lat="45.760923926643414" lon="11.248497029515633"><ele>761.0</ele><time>2026-04-04T14:10:28.999Z</time></trkpt><trkpt lat="45.760861575045446" lon="11.248558768880809"><ele>761.0</ele><time>2026-04-04T14:10:29.999Z</time></trkpt><trkpt lat="45.76070902521527" lon="11.248686852240201"><ele>761.0</ele><time>2026-04-04T14:10:31.999Z</time></trkpt><trkpt lat="45.76056798209258" lon="11.248687272356218"><ele>761.0</ele><time>2026-04-04T14:10:33.999Z</time></trkpt><trkpt lat="45.76048998868238" lon="11.248639580302877"><ele>761.0</ele><time>2026-04-04T14:10:34.999Z</time></trkpt><trkpt lat="45.760417202362746" lon="11.248562344520364"><ele>761.0</ele><time>2026-04-04T14:10:35.999Z</time></trkpt><trkpt lat="45.760330655888964" lon="11.248444359544509"><ele>761.0</ele><time>2026-04-04T14:10:36.999Z</time></trkpt><trkpt lat="45.760260992269345" lon="11.248352126851863"><ele>761.0</ele><time>2026-04-04T14:10:37.999Z</time></trkpt><trkpt lat="45.76019649891896" lon="11.248291666529273"><ele>761.0</ele><time>2026-04-04T14:10:38.999Z</time></trkpt><trkpt lat="45.76011851149992" lon="11.248289934970321"><ele>753.8</ele><time>2026-04-04T14:10:40.999Z</time></trkpt><trkpt lat="45.76013769272449" lon="11.24812777380677"><ele>746.5999999999999</ele><time>2026-04-04T14:10:43.999Z</time></trkpt><trkpt lat="45.76014724708579" lon="11.248025612868249"><ele>739.4</ele><time>2026-04-04T14:10:44.999Z</time></trkpt><trkpt lat="45.76018088134162" lon="11.247837654560486"><ele>732.2</ele><time>2026-04-04T14:10:45.999Z</time></trkpt><trkpt lat="45.76014570864065" lon="11.247690506918273"><ele>725.0</ele><time>2026-04-04T14:10:46.999Z</time></trkpt><trkpt lat="45.76013792422376" lon="11.247558409671758"><ele>725.0</ele><time>2026-04-04T14:10:47.999Z</time></trkpt><trkpt lat="45.76016413477704" lon="11.247387346843402"><ele>725.0</ele><time>2026-04-04T14:10:48.999Z</time></trkpt><trkpt lat="45.76013423856972" lon="11.247247823019041"><ele>725.0</ele><time>2026-04-04T14:10:49.999Z</time></trkpt><trkpt lat="45.76011545938425" lon="11.2471104744534"><ele>725.0</ele><time>2026-04-04T14:10:50.999Z</time></trkpt><trkpt lat="45.76016545593258" lon="11.24697588582936"><ele>725.0</ele><time>2026-04-04T14:10:52.999Z</time></trkpt><trkpt lat="45.76023148004696" lon="11.246915717102508"><ele>728.4</ele><time>2026-04-04T14:10:53.999Z</time></trkpt><trkpt lat="45.76022250863414" lon="11.24673881705002"><ele>731.8</ele><time>2026-04-04T14:10:55.999Z</time></trkpt><trkpt lat="45.76014289168597" lon="11.246647565201059"><ele>735.2</ele><time>2026-04-04T14:10:56.999Z</time></trkpt><trkpt lat="45.760060333882784" lon="11.246568120638427"><ele>738.6</ele><time>2026-04-04T14:10:57.999Z</time></trkpt><trkpt lat="45.759977015957965" lon="11.246524816642184"><ele>742.0</ele><time>2026-04-04T14:10:58.999Z</time></trkpt><trkpt lat="45.75989142449102" lon="11.24652292047071"><ele>742.0</ele><time>2026-04-04T14:10:59.999Z</time></trkpt><trkpt lat="45.759812436874434" lon="11.2465500262913"><ele>742.0</ele><time>2026-04-04T14:11:00.999Z</time></trkpt><trkpt lat="45.759698766970075" lon="11.246580225214858"><ele>742.0</ele><time>2026-04-04T14:11:01.999Z</time></trkpt><trkpt lat="45.75958848996932" lon="11.246625760680027"><ele>742.0</ele><time>2026-04-04T14:11:02.999Z</time></trkpt><trkpt lat="45.759476655122086" lon="11.246649232255757"><ele>742.0</ele><time>2026-04-04T14:11:03.999Z</time></trkpt><trkpt lat="45.759330721952765" lon="11.246721648264854"><ele>739.4000000000001</ele><time>2026-04-04T14:11:04.999Z</time></trkpt><trkpt lat="45.75922596709809" lon="11.246795418809095"><ele>736.8000000000001</ele><time>2026-04-04T14:11:05.999Z</time></trkpt><trkpt lat="45.759146437776366" lon="11.246821879057409"><ele>734.2</ele><time>2026-04-04T14:11:06.999Z</time></trkpt><trkpt lat="45.759011734103574" lon="11.246792600281779"><ele>731.6</ele><time>2026-04-04T14:11:08.998Z</time></trkpt><trkpt lat="45.758947992303405" lon="11.246671612960245"><ele>729.0</ele><time>2026-04-04T14:11:09.998Z</time></trkpt><trkpt lat="45.75888850100687" lon="11.24661395103417"><ele>729.0</ele><time>2026-04-04T14:11:10.998Z</time></trkpt><trkpt lat="45.75877104880129" lon="11.246625991664294"><ele>729.0</ele><time>2026-04-04T14:11:11.998Z</time></trkpt><trkpt lat="45.758653867442824" lon="11.246623071645772"><ele>729.0</ele><time>2026-04-04T14:11:12.998Z</time></trkpt><trkpt lat="45.75856051556784" lon="11.246604597916349"><ele>729.0</ele><time>2026-04-04T14:11:13.998Z</time></trkpt><trkpt lat="45.75850150981529" lon="11.24654635740835"><ele>729.0</ele><time>2026-04-04T14:11:14.998Z</time></trkpt><trkpt lat="45.75843215110218" lon="11.24644230087217"><ele>728.0</ele><time>2026-04-04T14:11:15.998Z</time></trkpt><trkpt lat="45.75835760638193" lon="11.246287788687923"><ele>727.0</ele><time>2026-04-04T14:11:16.998Z</time></trkpt><trkpt lat="45.75828105819824" lon="11.246202043821805"><ele>726.0</ele><time>2026-04-04T14:11:17.998Z</time></trkpt><trkpt lat="45.75822516460452" lon="11.246060460548145"><ele>725.0</ele><time>2026-04-04T14:11:18.998Z</time></trkpt><trkpt lat="45.75818973944654" lon="11.245952574046257"><ele>724.0</ele><time>2026-04-04T14:11:19.998Z</time></trkpt><trkpt lat="45.75818400502272" lon="11.24585260652601"><ele>724.0</ele><time>2026-04-04T14:11:20.998Z</time></trkpt><trkpt lat="45.75816415249156" lon="11.245760108701072"><ele>724.0</ele><time>2026-04-04T14:11:21.998Z</time></trkpt><trkpt lat="45.75823141201415" lon="11.245620853989433"><ele>724.0</ele><time>2026-04-04T14:11:22.998Z</time></trkpt><trkpt lat="45.75829511124402" lon="11.24548256527267"><ele>724.0</ele><time>2026-04-04T14:11:23.998Z</time></trkpt><trkpt lat="45.75836864993186" lon="11.24533842572612"><ele>724.0</ele><time>2026-04-04T14:11:24.998Z</time></trkpt><trkpt lat="45.75844865545467" lon="11.245189591855237"><ele>725.25</ele><time>2026-04-04T14:11:25.998Z</time></trkpt><trkpt lat="45.75854313383718" lon="11.245031208673806"><ele>726.5</ele><time>2026-04-04T14:11:26.998Z</time></trkpt><trkpt lat="45.758633221187495" lon="11.24488264685002"><ele>727.75</ele><time>2026-04-04T14:11:27.998Z</time></trkpt><trkpt lat="45.75870206773384" lon="11.244757923147366"><ele>729.0</ele><time>2026-04-04T14:11:28.998Z</time></trkpt><trkpt lat="45.758756927791325" lon="11.244688059958856"><ele>723.0</ele><time>2026-04-04T14:11:29.998Z</time></trkpt><trkpt lat="45.75883804023544" lon="11.244640987554881"><ele>717.0</ele><time>2026-04-04T14:11:31Z</time></trkpt><trkpt lat="45.75893726811647" lon="11.244621817095773"><ele>711.0</ele><time>2026-04-04T14:11:32Z</time></trkpt><trkpt lat="45.759035702677515" lon="11.244645569479573"><ele>705.0</ele><time>2026-04-04T14:11:33Z</time></trkpt><trkpt lat="45.759148630542455" lon="11.244648671417416"><ele>699.0</ele><time>2026-04-04T14:11:34Z</time></trkpt><trkpt lat="45.75930530441318" lon="11.244635576730497"><ele>705.5</ele><time>2026-04-04T14:11:35Z</time></trkpt><trkpt lat="45.75941128905627" lon="11.244646135751903"><ele>712.0</ele><time>2026-04-04T14:11:36Z</time></trkpt><trkpt lat="45.75949993265967" lon="11.244664402160053"><ele>718.5</ele><time>2026-04-04T14:11:37Z</time></trkpt><trkpt lat="45.75963867149061" lon="11.244525409400206"><ele>725.0</ele><time>2026-04-04T14:11:39Z</time></trkpt><trkpt lat="45.759731559659166" lon="11.244455813313909"><ele>725.0</ele><time>2026-04-04T14:11:40Z</time></trkpt><trkpt lat="45.75983148992199" lon="11.244390768527229"><ele>725.0</ele><time>2026-04-04T14:11:42Z</time></trkpt><trkpt lat="45.759909413224904" lon="11.24443147049656"><ele>725.0</ele><time>2026-04-04T14:11:43Z</time></trkpt><trkpt lat="45.75999721530228" lon="11.244411797225686"><ele>725.0</ele><time>2026-04-04T14:11:44Z</time></trkpt><trkpt lat="45.760070624227225" lon="11.244313526907687"><ele>725.0</ele><time>2026-04-04T14:11:46Z</time></trkpt><trkpt lat="45.76006864297965" lon="11.244218307254293"><ele>725.0</ele><time>2026-04-04T14:11:47Z</time></trkpt><trkpt lat="45.76008340455913" lon="11.244100500920968"><ele>725.0</ele><time>2026-04-04T14:11:48Z</time></trkpt><trkpt lat="45.76017524749213" lon="11.24402718474521"><ele>725.0</ele><time>2026-04-04T14:11:50Z</time></trkpt><trkpt lat="45.76026447135857" lon="11.24400821377551"><ele>725.0</ele><time>2026-04-04T14:11:51Z</time></trkpt><trkpt lat="45.760365398434736" lon="11.24400915346476"><ele>725.0</ele><time>2026-04-04T14:11:52Z</time></trkpt><trkpt lat="45.76052850166903" lon="11.24402735685843"><ele>726.8</ele><time>2026-04-04T14:11:53Z</time></trkpt><trkpt lat="45.760650733284045" lon="11.24403411808354"><ele>728.6</ele><time>2026-04-04T14:11:54Z</time></trkpt><trkpt lat="45.76073508924143" lon="11.244071015661294"><ele>730.4000000000001</ele><time>2026-04-04T14:11:55Z</time></trkpt><trkpt lat="45.760822853606165" lon="11.24413532000132"><ele>732.2</ele><time>2026-04-04T14:11:56Z</time></trkpt><trkpt lat="45.76093855618934" lon="11.244184606544664"><ele>734.0</ele><time>2026-04-04T14:11:57Z</time></trkpt><trkpt lat="45.761061711158646" lon="11.24418092377394"><ele>735.0</ele><time>2026-04-04T14:11:58Z</time></trkpt><trkpt lat="45.761173100712554" lon="11.244177219249764"><ele>736.0</ele><time>2026-04-04T14:11:59Z</time></trkpt><trkpt lat="45.761259434887116" lon="11.244165345342441"><ele>737.0</ele><time>2026-04-04T14:12:00Z</time></trkpt><trkpt lat="45.76133235198496" lon="11.244086240808885"><ele>738.0</ele><time>2026-04-04T14:12:01Z</time></trkpt><trkpt lat="45.76141633895659" lon="11.244002082652122"><ele>739.0</ele><time>2026-04-04T14:12:02Z</time></trkpt><trkpt lat="45.7615374442568" lon="11.243940321121464"><ele>739.0</ele><time>2026-04-04T14:12:03Z</time></trkpt><trkpt lat="45.76165322897054" lon="11.243859770661302"><ele>739.0</ele><time>2026-04-04T14:12:04Z</time></trkpt><trkpt lat="45.76175534764849" lon="11.243850515692529"><ele>739.0</ele><time>2026-04-04T14:12:06Z</time></trkpt><trkpt lat="45.76178237046023" lon="11.243934614291142"><ele>739.0</ele><time>2026-04-04T14:12:07Z</time></trkpt><trkpt lat="45.76182587983877" lon="11.244061337661444"><ele>739.0</ele><time>2026-04-04T14:12:08Z</time></trkpt><trkpt lat="45.761874547130574" lon="11.244243983221866"><ele>735.8000000000001</ele><time>2026-04-04T14:12:09Z</time></trkpt><trkpt lat="45.76192841873083" lon="11.244441108730111"><ele>732.6</ele><time>2026-04-04T14:12:10Z</time></trkpt><trkpt lat="45.76199488023818" lon="11.244564395487968"><ele>729.4</ele><time>2026-04-04T14:12:11Z</time></trkpt><trkpt lat="45.76207253334449" lon="11.24461596592661"><ele>726.2</ele><time>2026-04-04T14:12:12Z</time></trkpt><trkpt lat="45.76214338831196" lon="11.244605823953918"><ele>723.0</ele><time>2026-04-04T14:12:12.999Z</time></trkpt><trkpt lat="45.76224137243652" lon="11.244577706151254"><ele>723.0</ele><time>2026-04-04T14:12:13.999Z</time></trkpt><trkpt lat="45.762318353552374" lon="11.244587475180177"><ele>723.0</ele><time>2026-04-04T14:12:14.999Z</time></trkpt><trkpt lat="45.762378612459266" lon="11.244628464164178"><ele>723.0</ele><time>2026-04-04T14:12:15.999Z</time></trkpt><trkpt lat="45.76245735930734" lon="11.244845294928037"><ele>723.0</ele><time>2026-04-04T14:12:17.999Z</time></trkpt><trkpt lat="45.76254482505742" lon="11.245020986903862"><ele>728.25</ele><time>2026-04-04T14:12:18.999Z</time></trkpt><trkpt lat="45.76260889076471" lon="11.245194641008812"><ele>733.5</ele><time>2026-04-04T14:12:19.999Z</time></trkpt><trkpt lat="45.762663903596625" lon="11.245277771884698"><ele>738.75</ele><time>2026-04-04T14:12:21.999Z</time></trkpt><trkpt lat="45.762793714759525" lon="11.245172450519144"><ele>744.0</ele><time>2026-04-04T14:12:23.999Z</time></trkpt><trkpt lat="45.76294155883374" lon="11.2451973745047"><ele>744.0</ele><time>2026-04-04T14:12:25.999Z</time></trkpt><trkpt lat="45.76302329043875" lon="11.24517052278856"><ele>744.0</ele><time>2026-04-04T14:12:26.999Z</time></trkpt><trkpt lat="45.763085468621966" lon="11.245083103000846"><ele>744.0</ele><time>2026-04-04T14:12:27.999Z</time></trkpt><trkpt lat="45.763173259333065" lon="11.24497740414547"><ele>744.0</ele><time>2026-04-04T14:12:28.999Z</time></trkpt><trkpt lat="45.76328486317346" lon="11.244962612694557"><ele>744.0</ele><time>2026-04-04T14:12:30.999Z</time></trkpt><trkpt lat="45.7633867935664" lon="11.24499499889313"><ele>744.0</ele><time>2026-04-04T14:12:31.999Z</time></trkpt><trkpt lat="45.76350294919758" lon="11.24509109992713"><ele>744.0</ele><time>2026-04-04T14:12:32.999Z</time></trkpt><trkpt lat="45.7635758077654" lon="11.245123709332407"><ele>744.0</ele><time>2026-04-04T14:12:33.999Z</time></trkpt><trkpt lat="45.76363851870655" lon="11.24505088379543"><ele>744.0</ele><time>2026-04-04T14:12:35.999Z</time></trkpt><trkpt lat="45.763677815465215" lon="11.244854224181289"><ele>744.0</ele><time>2026-04-04T14:12:37.999Z</time></trkpt><trkpt lat="45.76372611060145" lon="11.244703268179112"><ele>745.8000000000001</ele><time>2026-04-04T14:12:38.999Z</time></trkpt><trkpt lat="45.76378728582528" lon="11.244625597920466"><ele>747.6</ele><time>2026-04-04T14:12:39.999Z</time></trkpt><trkpt lat="45.76388273860005" lon="11.24454215818021"><ele>749.4</ele><time>2026-04-04T14:12:40.999Z</time></trkpt><trkpt lat="45.76400378058353" lon="11.244466000759111"><ele>751.2</ele><time>2026-04-04T14:12:41.999Z</time></trkpt><trkpt lat="45.76405634700518" lon="11.244386427682178"><ele>753.0</ele><time>2026-04-04T14:12:42.999Z</time></trkpt><trkpt lat="45.76408082444739" lon="11.244295982965566"><ele>753.0</ele><time>2026-04-04T14:12:43.999Z</time></trkpt><trkpt lat="45.76406198203859" lon="11.244208274564093"><ele>753.0</ele><time>2026-04-04T14:12:44.999Z</time></trkpt><trkpt lat="45.76409372892613" lon="11.24408549850374"><ele>753.0</ele><time>2026-04-04T14:12:46.999Z</time></trkpt><trkpt lat="45.76415986940368" lon="11.244042348314567"><ele>753.0</ele><time>2026-04-04T14:12:47.999Z</time></trkpt><trkpt lat="45.76422099553109" lon="11.24400192852803"><ele>753.0</ele><time>2026-04-04T14:12:48.999Z</time></trkpt><trkpt lat="45.7642512138464" lon="11.243916117373283"><ele>753.0</ele><time>2026-04-04T14:12:49.999Z</time></trkpt><trkpt lat="45.764250521104806" lon="11.24378686891458"><ele>752.2</ele><time>2026-04-04T14:12:50.999Z</time></trkpt><trkpt lat="45.7642179473247" lon="11.243631968068803"><ele>751.4</ele><time>2026-04-04T14:12:51.999Z</time></trkpt><trkpt lat="45.76415230721894" lon="11.24347442162103"><ele>750.6</ele><time>2026-04-04T14:12:52.999Z</time></trkpt><trkpt lat="45.76410150535181" lon="11.243360358471168"><ele>749.8000000000001</ele><time>2026-04-04T14:12:53.999Z</time></trkpt><trkpt lat="45.764102141690685" lon="11.243262733235227"><ele>749.0</ele><time>2026-04-04T14:12:54.999Z</time></trkpt><trkpt lat="45.76414588483249" lon="11.243116802867602"><ele>745.3333333333333</ele><time>2026-04-04T14:12:55.999Z</time></trkpt><trkpt lat="45.76421152312329" lon="11.24294436888329"><ele>741.6666666666666</ele><time>2026-04-04T14:12:56.999Z</time></trkpt><trkpt lat="45.76429064852238" lon="11.242745745913679"><ele>738.0</ele><time>2026-04-04T14:12:57.999Z</time></trkpt><trkpt lat="45.76435785665164" lon="11.24250960113418"><ele>747.75</ele><time>2026-04-04T14:12:58.999Z</time></trkpt><trkpt lat="45.76443776968289" lon="11.242302456687613"><ele>757.5</ele><time>2026-04-04T14:12:59.999Z</time></trkpt><trkpt lat="45.7645168651825" lon="11.24213523379621"><ele>767.25</ele><time>2026-04-04T14:13:00.999Z</time></trkpt><trkpt lat="45.764551779499165" lon="11.242000367747272"><ele>777.0</ele><time>2026-04-04T14:13:01.999Z</time></trkpt><trkpt lat="45.76448856244225" lon="11.241849201280463"><ele>777.0</ele><time>2026-04-04T14:13:03.999Z</time></trkpt><trkpt lat="45.764414546208386" lon="11.241798446258883"><ele>777.0</ele><time>2026-04-04T14:13:04.999Z</time></trkpt><trkpt lat="45.764362181025106" lon="11.241747094305786"><ele>777.0</ele><time>2026-04-04T14:13:05.999Z</time></trkpt><trkpt lat="45.76442939886283" lon="11.241581213026137"><ele>777.0</ele><time>2026-04-04T14:13:07.999Z</time></trkpt><trkpt lat="45.764472311272584" lon="11.24144101489525"><ele>777.0</ele><time>2026-04-04T14:13:08.999Z</time></trkpt><trkpt lat="45.76453344411025" lon="11.241301748878683"><ele>777.5</ele><time>2026-04-04T14:13:09.999Z</time></trkpt><trkpt lat="45.76456371815101" lon="11.241192627080833"><ele>778.0</ele><time>2026-04-04T14:13:10.999Z</time></trkpt><trkpt lat="45.76455539769116" lon="11.241096587028386"><ele>778.5</ele><time>2026-04-04T14:13:11.999Z</time></trkpt><trkpt lat="45.764501786165944" lon="11.240978004891787"><ele>779.0</ele><time>2026-04-04T14:13:12.999Z</time></trkpt><trkpt lat="45.76446816283803" lon="11.240854000007573"><ele>779.5</ele><time>2026-04-04T14:13:13.999Z</time></trkpt><trkpt lat="45.76446075627655" lon="11.240720276249405"><ele>780.0</ele><time>2026-04-04T14:13:14.999Z</time></trkpt><trkpt lat="45.76453959907692" lon="11.240739821092378"><ele>780.0</ele><time>2026-04-04T14:13:17.998Z</time></trkpt><trkpt lat="45.764631682039116" lon="11.24091720256413"><ele>780.0</ele><time>2026-04-04T14:13:19.998Z</time></trkpt><trkpt lat="45.76468783515275" lon="11.241066773742261"><ele>780.0</ele><time>2026-04-04T14:13:20.998Z</time></trkpt><trkpt lat="45.764732130366454" lon="11.241201964864812"><ele>780.0</ele><time>2026-04-04T14:13:21.998Z</time></trkpt><trkpt lat="45.76479332431353" lon="11.241258116566055"><ele>780.0</ele><time>2026-04-04T14:13:24.998Z</time></trkpt><trkpt lat="45.76484158413864" lon="11.241081888161329"><ele>780.0</ele><time>2026-04-04T14:13:26.998Z</time></trkpt><trkpt lat="45.76487457310507" lon="11.240971470724805"><ele>780.0</ele><time>2026-04-04T14:13:27.998Z</time></trkpt><trkpt lat="45.76494410158626" lon="11.240850401550807"><ele>780.0</ele><time>2026-04-04T14:13:28.998Z</time></trkpt><trkpt lat="45.76499502672597" lon="11.240717511943322"><ele>780.0</ele><time>2026-04-04T14:13:29.998Z</time></trkpt><trkpt lat="45.76497317972881" lon="11.240591665307202"><ele>780.1666666666666</ele><time>2026-04-04T14:13:30.998Z</time></trkpt><trkpt lat="45.76492565268596" lon="11.240503407449314"><ele>780.3333333333333</ele><time>2026-04-04T14:13:31.998Z</time></trkpt><trkpt lat="45.764873540209834" lon="11.240431017488348"><ele>780.5</ele><time>2026-04-04T14:13:32.998Z</time></trkpt><trkpt lat="45.764783436123246" lon="11.240380379844245"><ele>780.6666666666666</ele><time>2026-04-04T14:13:33.998Z</time></trkpt><trkpt lat="45.764728003846244" lon="11.240326283877682"><ele>780.8333333333333</ele><time>2026-04-04T14:13:34.998Z</time></trkpt><trkpt lat="45.764691877916725" lon="11.240245333477592"><ele>781.0</ele><time>2026-04-04T14:13:36Z</time></trkpt><trkpt lat="45.764665723359705" lon="11.240146146519928"><ele>780.9999999999999</ele><time>2026-04-04T14:13:37Z</time></trkpt><trkpt lat="45.76466161938913" lon="11.240020639055924"><ele>781.0</ele><time>2026-04-04T14:13:38Z</time></trkpt><trkpt lat="45.764650559648885" lon="11.239885323988812"><ele>781.0</ele><time>2026-04-04T14:13:39Z</time></trkpt><trkpt lat="45.76464584913817" lon="11.23977291116771"><ele>781.0</ele><time>2026-04-04T14:13:40Z</time></trkpt><trkpt lat="45.76468209073141" lon="11.239678252812043"><ele>780.9999999999999</ele><time>2026-04-04T14:13:41Z</time></trkpt><trkpt lat="45.764739137588855" lon="11.239555427952995"><ele>781.0</ele><time>2026-04-04T14:13:42Z</time></trkpt><trkpt lat="45.764790583460346" lon="11.239426186639829"><ele>777.5999999999999</ele><time>2026-04-04T14:13:43Z</time></trkpt><trkpt lat="45.76485827071483" lon="11.239332209691717"><ele>774.2</ele><time>2026-04-04T14:13:44Z</time></trkpt><trkpt lat="45.76493030922193" lon="11.239259295051408"><ele>770.8</ele><time>2026-04-04T14:13:45Z</time></trkpt><trkpt lat="45.765012852396026" lon="11.239205078102867"><ele>767.4000000000001</ele><time>2026-04-04T14:13:46Z</time></trkpt><trkpt lat="45.765095116820525" lon="11.23915934305571"><ele>764.0</ele><time>2026-04-04T14:13:47Z</time></trkpt><trkpt lat="45.76517958180496" lon="11.23906643178394"><ele>764.75</ele><time>2026-04-04T14:13:48Z</time></trkpt><trkpt lat="45.76524573910355" lon="11.238924614327866"><ele>765.5</ele><time>2026-04-04T14:13:49Z</time></trkpt><trkpt lat="45.76531855177943" lon="11.238790549393995"><ele>766.25</ele><time>2026-04-04T14:13:50Z</time></trkpt><trkpt lat="45.76540952652677" lon="11.238657238549058"><ele>767.0</ele><time>2026-04-04T14:13:51Z</time></trkpt><trkpt lat="45.765514267888115" lon="11.238554428915753"><ele>767.0</ele><time>2026-04-04T14:13:52Z</time></trkpt><trkpt lat="45.76562120807003" lon="11.23842901103331"><ele>767.0</ele><time>2026-04-04T14:13:53Z</time></trkpt><trkpt lat="45.765717092850025" lon="11.238326529030616"><ele>767.0</ele><time>2026-04-04T14:13:54Z</time></trkpt><trkpt lat="45.765816231394396" lon="11.238251271671459"><ele>767.0</ele><time>2026-04-04T14:13:55Z</time></trkpt><trkpt lat="45.76590046725928" lon="11.238176716341666"><ele>768.2</ele><time>2026-04-04T14:13:56Z</time></trkpt><trkpt lat="45.765948875071444" lon="11.23808290817316"><ele>769.4000000000001</ele><time>2026-04-04T14:13:57Z</time></trkpt><trkpt lat="45.76595618929787" lon="11.237970863744799"><ele>770.5999999999999</ele><time>2026-04-04T14:13:58Z</time></trkpt><trkpt lat="45.76593917510498" lon="11.23785538203056"><ele>771.8</ele><time>2026-04-04T14:13:59Z</time></trkpt><trkpt lat="45.765889405311654" lon="11.23773118617277"><ele>773.0</ele><time>2026-04-04T14:14:00Z</time></trkpt><trkpt lat="45.76581716262876" lon="11.237591196897002"><ele>773.0</ele><time>2026-04-04T14:14:01Z</time></trkpt><trkpt lat="45.765703966259764" lon="11.23744535363408"><ele>773.0</ele><time>2026-04-04T14:14:02Z</time></trkpt><trkpt lat="45.76558030883083" lon="11.237327923747559"><ele>773.0</ele><time>2026-04-04T14:14:03Z</time></trkpt><trkpt lat="45.765479485868724" lon="11.237216993485665"><ele>773.0</ele><time>2026-04-04T14:14:04Z</time></trkpt><trkpt lat="45.76538711583147" lon="11.237097663351049"><ele>773.8</ele><time>2026-04-04T14:14:05Z</time></trkpt><trkpt lat="45.76531311243035" lon="11.236984184232377"><ele>774.5999999999999</ele><time>2026-04-04T14:14:06Z</time></trkpt><trkpt lat="45.765277579512976" lon="11.23687945072721"><ele>775.4000000000001</ele><time>2026-04-04T14:14:07Z</time></trkpt><trkpt lat="45.765236563527246" lon="11.236723141366888"><ele>776.2</ele><time>2026-04-04T14:14:08Z</time></trkpt><trkpt lat="45.76518962917879" lon="11.236592127114292"><ele>777.0</ele><time>2026-04-04T14:14:09Z</time></trkpt><trkpt lat="45.76517962391594" lon="11.23648389819603"><ele>775.0</ele><time>2026-04-04T14:14:10Z</time></trkpt><trkpt lat="45.76521225094161" lon="11.236382359397973"><ele>773.0</ele><time>2026-04-04T14:14:11Z</time></trkpt><trkpt lat="45.765268961205955" lon="11.236264904830712"><ele>771.0</ele><time>2026-04-04T14:14:12Z</time></trkpt><trkpt lat="45.76531260056147" lon="11.23613242538337"><ele>769.0</ele><time>2026-04-04T14:14:13Z</time></trkpt><trkpt lat="45.76531632750388" lon="11.235982305060316"><ele>767.0</ele><time>2026-04-04T14:14:14Z</time></trkpt><trkpt lat="45.765286973724805" lon="11.235842931044779"><ele>767.0</ele><time>2026-04-04T14:14:15Z</time></trkpt><trkpt lat="45.76523958006157" lon="11.235717070814765"><ele>767.0</ele><time>2026-04-04T14:14:16Z</time></trkpt><trkpt lat="45.76521950749159" lon="11.235603385826256"><ele>767.0</ele><time>2026-04-04T14:14:17Z</time></trkpt><trkpt lat="45.7652317555438" lon="11.235445969350264"><ele>767.0</ele><time>2026-04-04T14:14:17.999Z</time></trkpt><trkpt lat="45.76525626732181" lon="11.235280973811724"><ele>767.0</ele><time>2026-04-04T14:14:18.999Z</time></trkpt><trkpt lat="45.765284268972785" lon="11.235125101043005"><ele>763.75</ele><time>2026-04-04T14:14:19.999Z</time></trkpt><trkpt lat="45.76531706963587" lon="11.234952993906361"><ele>760.5</ele><time>2026-04-04T14:14:20.999Z</time></trkpt><trkpt lat="45.76535888238751" lon="11.23478154109687"><ele>757.25</ele><time>2026-04-04T14:14:21.999Z</time></trkpt><trkpt lat="45.76541580209567" lon="11.234620671903501"><ele>754.0</ele><time>2026-04-04T14:14:22.999Z</time></trkpt><trkpt lat="45.76548769708146" lon="11.234473640494443"><ele>747.5</ele><time>2026-04-04T14:14:23.999Z</time></trkpt><trkpt lat="45.765561872645364" lon="11.234330139647009"><ele>741.0</ele><time>2026-04-04T14:14:24.999Z</time></trkpt><trkpt lat="45.76566049171813" lon="11.234211702023961"><ele>734.5</ele><time>2026-04-04T14:14:25.999Z</time></trkpt><trkpt lat="45.76575848262205" lon="11.234104646545084"><ele>728.0</ele><time>2026-04-04T14:14:26.999Z</time></trkpt><trkpt lat="45.7658516340468" lon="11.234029243390484"><ele>728.0</ele><time>2026-04-04T14:14:27.999Z</time></trkpt><trkpt lat="45.765969974123244" lon="11.233974237315559"><ele>728.0</ele><time>2026-04-04T14:14:28.999Z</time></trkpt><trkpt lat="45.76611774082422" lon="11.233898311775118"><ele>728.0</ele><time>2026-04-04T14:14:29.999Z</time></trkpt><trkpt lat="45.76627867183308" lon="11.233818124912382"><ele>726.5</ele><time>2026-04-04T14:14:30.999Z</time></trkpt><trkpt lat="45.7664085290872" lon="11.233745711443088"><ele>725.0</ele><time>2026-04-04T14:14:31.999Z</time></trkpt><trkpt lat="45.76649368079313" lon="11.23371049823837"><ele>723.5</ele><time>2026-04-04T14:14:32.999Z</time></trkpt><trkpt lat="45.76660751032645" lon="11.233708217334952"><ele>722.0</ele><time>2026-04-04T14:14:33.999Z</time></trkpt><trkpt lat="45.76671667635626" lon="11.233726261315818"><ele>722.0</ele><time>2026-04-04T14:14:34.999Z</time></trkpt><trkpt lat="45.76679436950672" lon="11.23372351477446"><ele>722.0</ele><time>2026-04-04T14:14:35.999Z</time></trkpt><trkpt lat="45.766832631464865" lon="11.233588860625781"><ele>722.0</ele><time>2026-04-04T14:14:37.999Z</time></trkpt><trkpt lat="45.76681592891425" lon="11.23347384059709"><ele>722.0</ele><time>2026-04-04T14:14:38.999Z</time></trkpt><trkpt lat="45.7668042519035" lon="11.233340123249556"><ele>722.0</ele><time>2026-04-04T14:14:39.999Z</time></trkpt><trkpt lat="45.76687489839854" lon="11.233246129089476"><ele>728.5</ele><time>2026-04-04T14:14:41.999Z</time></trkpt><trkpt lat="45.76696670796432" lon="11.233303036869179"><ele>735.0</ele><time>2026-04-04T14:14:43.999Z</time></trkpt><trkpt lat="45.76702621210738" lon="11.233503953949086"><ele>741.5</ele><time>2026-04-04T14:14:45.999Z</time></trkpt><trkpt lat="45.76707235919672" lon="11.233644889299084"><ele>748.0</ele><time>2026-04-04T14:14:46.999Z</time></trkpt><trkpt lat="45.76712742511446" lon="11.233749854916525"><ele>748.0</ele><time>2026-04-04T14:14:47.999Z</time></trkpt><trkpt lat="45.76718663693367" lon="11.233807106152103"><ele>748.0</ele><time>2026-04-04T14:14:48.999Z</time></trkpt><trkpt lat="45.767250766802356" lon="11.233849696250925"><ele>748.0</ele><time>2026-04-04T14:14:49.999Z</time></trkpt><trkpt lat="45.76733089184675" lon="11.233858591633911"><ele>748.0</ele><time>2026-04-04T14:14:50.999Z</time></trkpt><trkpt lat="45.767397852227" lon="11.233846389046546"><ele>748.0</ele><time>2026-04-04T14:14:51.999Z</time></trkpt><trkpt lat="45.76743436732108" lon="11.233737571909122"><ele>748.0</ele><time>2026-04-04T14:14:53.999Z</time></trkpt><trkpt lat="45.76740217775079" lon="11.233641769312937"><ele>748.0</ele><time>2026-04-04T14:14:54.999Z</time></trkpt><trkpt lat="45.76736239689034" lon="11.233523272454043"><ele>748.0</ele><time>2026-04-04T14:14:55.999Z</time></trkpt><trkpt lat="45.767311217271015" lon="11.23336529937459"><ele>748.0</ele><time>2026-04-04T14:14:56.999Z</time></trkpt><trkpt lat="45.76725744035273" lon="11.233184120146012"><ele>748.0</ele><time>2026-04-04T14:14:57.999Z</time></trkpt><trkpt lat="45.76722713702421" lon="11.23304325593732"><ele>748.0</ele><time>2026-04-04T14:14:58.999Z</time></trkpt><trkpt lat="45.76727234401481" lon="11.232922069126063"><ele>750.8</ele><time>2026-04-04T14:15:00.999Z</time></trkpt><trkpt lat="45.76737494758479" lon="11.23288701727726"><ele>753.5999999999999</ele><time>2026-04-04T14:15:02.999Z</time></trkpt><trkpt lat="45.76747722628089" lon="11.233007704081933"><ele>756.4000000000001</ele><time>2026-04-04T14:15:04.999Z</time></trkpt><trkpt lat="45.76754559808308" lon="11.23290348498185"><ele>759.2</ele><time>2026-04-04T14:15:09.999Z</time></trkpt><trkpt lat="45.76757212075209" lon="11.232779128118853"><ele>762.0</ele><time>2026-04-04T14:15:10.999Z</time></trkpt><trkpt lat="45.76761505199886" lon="11.232692644770175"><ele>762.0</ele><time>2026-04-04T14:15:11.999Z</time></trkpt><trkpt lat="45.76766508764615" lon="11.23259628278107"><ele>762.0</ele><time>2026-04-04T14:15:13.999Z</time></trkpt><trkpt lat="45.767726848114066" lon="11.232475689691732"><ele>762.0</ele><time>2026-04-04T14:15:16.999Z</time></trkpt><trkpt lat="45.767681961547986" lon="11.232316361666978"><ele>762.0</ele><time>2026-04-04T14:15:18.999Z</time></trkpt><trkpt lat="45.76762407958618" lon="11.23224566000073"><ele>762.0</ele><time>2026-04-04T14:15:19.999Z</time></trkpt><trkpt lat="45.76754511681483" lon="11.232158951285612"><ele>763.8333333333334</ele><time>2026-04-04T14:15:20.999Z</time></trkpt><trkpt lat="45.767467453004244" lon="11.23209305177623"><ele>765.6666666666667</ele><time>2026-04-04T14:15:21.999Z</time></trkpt><trkpt lat="45.76738077915109" lon="11.232010070704336"><ele>767.5</ele><time>2026-04-04T14:15:22.998Z</time></trkpt><trkpt lat="45.76730464267794" lon="11.231938995340311"><ele>769.3333333333334</ele><time>2026-04-04T14:15:23.998Z</time></trkpt><trkpt lat="45.76723448102096" lon="11.231850621495623"><ele>771.1666666666667</ele><time>2026-04-04T14:15:24.998Z</time></trkpt><trkpt lat="45.76719271665164" lon="11.231774957480415"><ele>773.0</ele><time>2026-04-04T14:15:25.998Z</time></trkpt><trkpt lat="45.76725478008446" lon="11.231700132411424"><ele>773.0</ele><time>2026-04-04T14:15:27.998Z</time></trkpt><trkpt lat="45.767396238604185" lon="11.231630602734334"><ele>773.0</ele><time>2026-04-04T14:15:29.998Z</time></trkpt><trkpt lat="45.76748570442037" lon="11.231578217013286"><ele>773.0</ele><time>2026-04-04T14:15:30.998Z</time></trkpt><trkpt lat="45.7675696936217" lon="11.231513646641728"><ele>773.0</ele><time>2026-04-04T14:15:31.998Z</time></trkpt><trkpt lat="45.76764078978239" lon="11.231494177894161"><ele>773.0</ele><time>2026-04-04T14:15:32.998Z</time></trkpt><trkpt lat="45.76770880471142" lon="11.23143694914936"><ele>775.2</ele><time>2026-04-04T14:15:33.998Z</time></trkpt><trkpt lat="45.767763449460624" lon="11.23135149157931"><ele>777.4</ele><time>2026-04-04T14:15:34.998Z</time></trkpt><trkpt lat="45.76783510258471" lon="11.231194676654487"><ele>779.6</ele><time>2026-04-04T14:15:35.998Z</time></trkpt><trkpt lat="45.76789345043181" lon="11.231055161074506"><ele>781.8000000000001</ele><time>2026-04-04T14:15:36.998Z</time></trkpt><trkpt lat="45.767966555434384" lon="11.23095570782865"><ele>784.0</ele><time>2026-04-04T14:15:37.998Z</time></trkpt><trkpt lat="45.76804133925963" lon="11.230869436917311"><ele>784.0</ele><time>2026-04-04T14:15:38.998Z</time></trkpt><trkpt lat="45.768137533100415" lon="11.23077451273488"><ele>784.0</ele><time>2026-04-04T14:15:39.998Z</time></trkpt><trkpt lat="45.76821103095947" lon="11.23068615755457"><ele>784.0</ele><time>2026-04-04T14:15:40.998Z</time></trkpt><trkpt lat="45.7682475538478" lon="11.230587613101374"><ele>784.0</ele><time>2026-04-04T14:15:42Z</time></trkpt><trkpt lat="45.76828212201899" lon="11.230490191319356"><ele>784.0</ele><time>2026-04-04T14:15:43Z</time></trkpt><trkpt lat="45.7683399375374" lon="11.230372846138009"><ele>784.9999999999999</ele><time>2026-04-04T14:15:44Z</time></trkpt><trkpt lat="45.768416630763625" lon="11.230256600849366"><ele>786.0</ele><time>2026-04-04T14:15:45Z</time></trkpt><trkpt lat="45.768461059469544" lon="11.230143099234375"><ele>787.0</ele><time>2026-04-04T14:15:46Z</time></trkpt><trkpt lat="45.76849758391526" lon="11.230034096336523"><ele>788.0</ele><time>2026-04-04T14:15:47Z</time></trkpt><trkpt lat="45.768532628249375" lon="11.229943978064494"><ele>788.9999999999999</ele><time>2026-04-04T14:15:48Z</time></trkpt><trkpt lat="45.768532950140575" lon="11.229814214026447"><ele>790.0</ele><time>2026-04-04T14:15:49Z</time></trkpt><trkpt lat="45.768539214939814" lon="11.229679455054958"><ele>787.0</ele><time>2026-04-04T14:15:50Z</time></trkpt><trkpt lat="45.76855447179274" lon="11.229569335378246"><ele>784.0</ele><time>2026-04-04T14:15:51Z</time></trkpt><trkpt lat="45.76861612104801" lon="11.229516980484904"><ele>781.0</ele><time>2026-04-04T14:15:52Z</time></trkpt><trkpt lat="45.76871281533002" lon="11.229450186736846"><ele>778.0</ele><time>2026-04-04T14:15:53Z</time></trkpt><trkpt lat="45.76880171642004" lon="11.229371033957511"><ele>775.0</ele><time>2026-04-04T14:15:54Z</time></trkpt><trkpt lat="45.76890632360609" lon="11.229298065608669"><ele>775.0</ele><time>2026-04-04T14:15:55Z</time></trkpt><trkpt lat="45.76900044834793" lon="11.229232231243952"><ele>775.0</ele><time>2026-04-04T14:15:56Z</time></trkpt><trkpt lat="45.76908112750703" lon="11.229115365273628"><ele>775.0</ele><time>2026-04-04T14:15:57Z</time></trkpt><trkpt lat="45.76914386158272" lon="11.229011848798677"><ele>775.0</ele><time>2026-04-04T14:15:58Z</time></trkpt><trkpt lat="45.76921006336214" lon="11.228960294482304"><ele>775.0</ele><time>2026-04-04T14:15:59Z</time></trkpt><trkpt lat="45.769274341703884" lon="11.228901435722923"><ele>779.0</ele><time>2026-04-04T14:16:01Z</time></trkpt><trkpt lat="45.7692405428809" lon="11.228758408440767"><ele>783.0</ele><time>2026-04-04T14:16:03Z</time></trkpt><trkpt lat="45.76912379205143" lon="11.228668892443904"><ele>787.0</ele><time>2026-04-04T14:16:05Z</time></trkpt><trkpt lat="45.76902847916912" lon="11.228576951628696"><ele>791.0</ele><time>2026-04-04T14:16:06Z</time></trkpt><trkpt lat="45.76892010329727" lon="11.228467244929428"><ele>791.0</ele><time>2026-04-04T14:16:07Z</time></trkpt><trkpt lat="45.768809186632765" lon="11.228338883405511"><ele>791.0</ele><time>2026-04-04T14:16:08Z</time></trkpt><trkpt lat="45.7687326130548" lon="11.22825738492478"><ele>791.0</ele><time>2026-04-04T14:16:09Z</time></trkpt><trkpt lat="45.76868545446697" lon="11.228102201480313"><ele>791.0</ele><time>2026-04-04T14:16:11Z</time></trkpt><trkpt lat="45.76868828623739" lon="11.22796656837529"><ele>795.75</ele><time>2026-04-04T14:16:12Z</time></trkpt><trkpt lat="45.76871255153147" lon="11.227804500280886"><ele>800.5</ele><time>2026-04-04T14:16:13Z</time></trkpt><trkpt lat="45.76874437959482" lon="11.22762005166061"><ele>805.25</ele><time>2026-04-04T14:16:14Z</time></trkpt><trkpt lat="45.76877750100285" lon="11.227407775024648"><ele>810.0</ele><time>2026-04-04T14:16:15Z</time></trkpt><trkpt lat="45.768805501010554" lon="11.227185310101444"><ele>811.25</ele><time>2026-04-04T14:16:16Z</time></trkpt><trkpt lat="45.76881579899348" lon="11.227001633675835"><ele>812.5</ele><time>2026-04-04T14:16:17Z</time></trkpt><trkpt lat="45.768867508750766" lon="11.22681808132777"><ele>813.75</ele><time>2026-04-04T14:16:18Z</time></trkpt><trkpt lat="45.76893468689493" lon="11.226640463571814"><ele>815.0</ele><time>2026-04-04T14:16:19Z</time></trkpt><trkpt lat="45.76899124113651" lon="11.226489651670729"><ele>814.4</ele><time>2026-04-04T14:16:20Z</time></trkpt><trkpt lat="45.769042951426435" lon="11.226343080340516"><ele>813.8</ele><time>2026-04-04T14:16:21Z</time></trkpt><trkpt lat="45.76910715661037" lon="11.226192451917571"><ele>813.2</ele><time>2026-04-04T14:16:22Z</time></trkpt><trkpt lat="45.769155614798215" lon="11.22607580737736"><ele>812.6</ele><time>2026-04-04T14:16:23Z</time></trkpt><trkpt lat="45.76921956333973" lon="11.225986412501179"><ele>812.0</ele><time>2026-04-04T14:16:24Z</time></trkpt><trkpt lat="45.76927850141771" lon="11.22590777795207"><ele>812.0</ele><time>2026-04-04T14:16:25Z</time></trkpt><trkpt lat="45.76922975854869" lon="11.22574864232153"><ele>812.0</ele><time>2026-04-04T14:16:27Z</time></trkpt><trkpt lat="45.769159009953306" lon="11.225620041045115"><ele>812.0</ele><time>2026-04-04T14:16:28.999Z</time></trkpt><trkpt lat="45.7691154664309" lon="11.225533724686096"><ele>812.0</ele><time>2026-04-04T14:16:29.999Z</time></trkpt><trkpt lat="45.76900037079205" lon="11.225468517009679"><ele>812.0</ele><time>2026-04-04T14:16:31.999Z</time></trkpt><trkpt lat="45.76894008759278" lon="11.22550016338186"><ele>812.0</ele><time>2026-04-04T14:16:34.999Z</time></trkpt><trkpt lat="45.7688772179939" lon="11.22563240289502"><ele>812.0</ele><time>2026-04-04T14:16:36.999Z</time></trkpt><trkpt lat="45.76880882484696" lon="11.225723761277182"><ele>812.0</ele><time>2026-04-04T14:16:37.999Z</time></trkpt><trkpt lat="45.76873049043916" lon="11.22576835719405"><ele>812.0</ele><time>2026-04-04T14:16:38.999Z</time></trkpt><trkpt lat="45.76862305222197" lon="11.225835918503469"><ele>812.0</ele><time>2026-04-04T14:16:40.999Z</time></trkpt><trkpt lat="45.768527230582926" lon="11.225869211925303"><ele>810.1666666666667</ele><time>2026-04-04T14:16:41.999Z</time></trkpt><trkpt lat="45.76844326282019" lon="11.225893297016167"><ele>808.3333333333334</ele><time>2026-04-04T14:16:42.999Z</time></trkpt><trkpt lat="45.76838738068226" lon="11.225948324644522"><ele>806.5</ele><time>2026-04-04T14:16:43.999Z</time></trkpt><trkpt lat="45.768312841223896" lon="11.22603952468264"><ele>804.6666666666667</ele><time>2026-04-04T14:16:45.999Z</time></trkpt><trkpt lat="45.76824834220759" lon="11.226107633073193"><ele>802.8333333333334</ele><time>2026-04-04T14:16:46.999Z</time></trkpt><trkpt lat="45.76821363503698" lon="11.226188418464682"><ele>801.0</ele><time>2026-04-04T14:16:47.999Z</time></trkpt><trkpt lat="45.768175073535446" lon="11.226291620718111"><ele>801.0</ele><time>2026-04-04T14:16:49.999Z</time></trkpt><trkpt lat="45.7680994689833" lon="11.226323018381098"><ele>801.0</ele><time>2026-04-04T14:16:50.999Z</time></trkpt><trkpt lat="45.76802663919848" lon="11.22636412387819"><ele>801.0</ele><time>2026-04-04T14:16:51.999Z</time></trkpt><trkpt lat="45.76800360009169" lon="11.226451603110267"><ele>801.0</ele><time>2026-04-04T14:16:52.999Z</time></trkpt><trkpt lat="45.76797435841124" lon="11.22657007303655"><ele>801.0</ele><time>2026-04-04T14:16:53.999Z</time></trkpt><trkpt lat="45.767938427134666" lon="11.22666141290738"><ele>801.0</ele><time>2026-04-04T14:16:54.999Z</time></trkpt><trkpt lat="45.7678793572" lon="11.226714355142116"><ele>802.0</ele><time>2026-04-04T14:16:55.999Z</time></trkpt><trkpt lat="45.767778472144165" lon="11.22681409316979"><ele>803.0</ele><time>2026-04-04T14:16:57.999Z</time></trkpt><trkpt lat="45.767716727258986" lon="11.22686708184232"><ele>804.0</ele><time>2026-04-04T14:16:58.999Z</time></trkpt><trkpt lat="45.76765688994388" lon="11.22691266799045"><ele>805.0</ele><time>2026-04-04T14:16:59.999Z</time></trkpt><trkpt lat="45.76761466603567" lon="11.227091427558785"><ele>806.0</ele><time>2026-04-04T14:17:01.999Z</time></trkpt><trkpt lat="45.76755284048633" lon="11.227207186083588"><ele>806.0</ele><time>2026-04-04T14:17:02.999Z</time></trkpt><trkpt lat="45.76748432116512" lon="11.227247376037633"><ele>806.0</ele><time>2026-04-04T14:17:03.999Z</time></trkpt><trkpt lat="45.76736504193418" lon="11.227180733911542"><ele>806.0</ele><time>2026-04-04T14:17:05.999Z</time></trkpt><trkpt lat="45.76727981676346" lon="11.227132072838568"><ele>806.0</ele><time>2026-04-04T14:17:06.999Z</time></trkpt><trkpt lat="45.76715573376286" lon="11.22706481843185"><ele>806.0</ele><time>2026-04-04T14:17:07.999Z</time></trkpt><trkpt lat="45.76700917993639" lon="11.227049510834426"><ele>806.0</ele><time>2026-04-04T14:17:08.999Z</time></trkpt><trkpt lat="45.766863397048304" lon="11.227017472461279"><ele>806.0</ele><time>2026-04-04T14:17:09.999Z</time></trkpt><trkpt lat="45.76674053572092" lon="11.226957761416006"><ele>806.0</ele><time>2026-04-04T14:17:10.999Z</time></trkpt><trkpt lat="45.76667272856906" lon="11.226870255082547"><ele>806.0</ele><time>2026-04-04T14:17:11.999Z</time></trkpt><trkpt lat="45.7665203671624" lon="11.226822666058366"><ele>804.1999999999999</ele><time>2026-04-04T14:17:12.999Z</time></trkpt><trkpt lat="45.76636606725096" lon="11.226781053521842"><ele>802.4</ele><time>2026-04-04T14:17:13.999Z</time></trkpt><trkpt lat="45.766238057532114" lon="11.226725616223366"><ele>800.6</ele><time>2026-04-04T14:17:14.999Z</time></trkpt><trkpt lat="45.76617083728234" lon="11.22672992841359"><ele>798.8</ele><time>2026-04-04T14:17:16.999Z</time></trkpt><trkpt lat="45.76609930291972" lon="11.226710956555143"><ele>797.0</ele><time>2026-04-04T14:17:17.999Z</time></trkpt><trkpt lat="45.766027937512604" lon="11.226697227031812"><ele>793.4000000000001</ele><time>2026-04-04T14:17:18.999Z</time></trkpt><trkpt lat="45.7659217902588" lon="11.226696110424662"><ele>789.8000000000001</ele><time>2026-04-04T14:17:19.999Z</time></trkpt><trkpt lat="45.7658109237053" lon="11.22662459458037"><ele>786.2</ele><time>2026-04-04T14:17:20.999Z</time></trkpt><trkpt lat="45.76573171178499" lon="11.2265659297661"><ele>782.6</ele><time>2026-04-04T14:17:21.999Z</time></trkpt><trkpt lat="45.76564925954937" lon="11.226499387635606"><ele>779.0</ele><time>2026-04-04T14:17:22.999Z</time></trkpt><trkpt lat="45.76556726644528" lon="11.226475066568701"><ele>779.0</ele><time>2026-04-04T14:17:23.999Z</time></trkpt><trkpt lat="45.76548335448748" lon="11.226575247176784"><ele>779.0</ele><time>2026-04-04T14:17:25.999Z</time></trkpt><trkpt lat="45.76538567493779" lon="11.226534359845477"><ele>779.0</ele><time>2026-04-04T14:17:27.999Z</time></trkpt><trkpt lat="45.765342659236936" lon="11.226369472542418"><ele>779.0</ele><time>2026-04-04T14:17:29.999Z</time></trkpt><trkpt lat="45.76530589589615" lon="11.226242637031257"><ele>779.0</ele><time>2026-04-04T14:17:30.999Z</time></trkpt><trkpt lat="45.765238745556175" lon="11.226187687579648"><ele>781.8000000000001</ele><time>2026-04-04T14:17:31.998Z</time></trkpt><trkpt lat="45.76515846057492" lon="11.226177599602323"><ele>784.6</ele><time>2026-04-04T14:17:32.998Z</time></trkpt><trkpt lat="45.76505748647166" lon="11.226209759058316"><ele>787.4</ele><time>2026-04-04T14:17:33.998Z</time></trkpt><trkpt lat="45.764978747564896" lon="11.226241100967977"><ele>790.2</ele><time>2026-04-04T14:17:34.998Z</time></trkpt><trkpt lat="45.76488875350028" lon="11.226279957909476"><ele>793.0</ele><time>2026-04-04T14:17:35.998Z</time></trkpt><trkpt lat="45.76482309416038" lon="11.226393720804142"><ele>793.0</ele><time>2026-04-04T14:17:36.998Z</time></trkpt><trkpt lat="45.764745168223456" lon="11.226451511338942"><ele>793.0</ele><time>2026-04-04T14:17:37.998Z</time></trkpt><trkpt lat="45.764649860923136" lon="11.226475248853173"><ele>793.0</ele><time>2026-04-04T14:17:38.998Z</time></trkpt><trkpt lat="45.76452485893982" lon="11.226448250304436"><ele>793.0</ele><time>2026-04-04T14:17:39.998Z</time></trkpt><trkpt lat="45.764346034269096" lon="11.226409207286045"><ele>785.4</ele><time>2026-04-04T14:17:40.998Z</time></trkpt><trkpt lat="45.764216883890185" lon="11.226412140980525"><ele>777.8</ele><time>2026-04-04T14:17:41.998Z</time></trkpt><trkpt lat="45.76411530969038" lon="11.22646270703264"><ele>770.2</ele><time>2026-04-04T14:17:42.998Z</time></trkpt><trkpt lat="45.76403756601092" lon="11.226486781345193"><ele>762.6</ele><time>2026-04-04T14:17:43.998Z</time></trkpt><trkpt lat="45.763943775591734" lon="11.226405644362773"><ele>755.0</ele><time>2026-04-04T14:17:45.998Z</time></trkpt><trkpt lat="45.763833085002155" lon="11.226402919816282"><ele>752.8</ele><time>2026-04-04T14:17:48Z</time></trkpt><trkpt lat="45.76376334851275" lon="11.226490307821003"><ele>750.6</ele><time>2026-04-04T14:17:49Z</time></trkpt><trkpt lat="45.76368823981168" lon="11.226573672044102"><ele>748.4000000000001</ele><time>2026-04-04T14:17:50Z</time></trkpt><trkpt lat="45.763614995229915" lon="11.226605006112765"><ele>746.2</ele><time>2026-04-04T14:17:51Z</time></trkpt><trkpt lat="45.763525860831926" lon="11.226601900440473"><ele>744.0</ele><time>2026-04-04T14:17:52Z</time></trkpt><trkpt lat="45.763426947640035" lon="11.2266139223815"><ele>741.2</ele><time>2026-04-04T14:17:53Z</time></trkpt><trkpt lat="45.763329801684506" lon="11.22666337089798"><ele>738.4000000000001</ele><time>2026-04-04T14:17:54Z</time></trkpt><trkpt lat="45.76323940671307" lon="11.22670404209573"><ele>735.6</ele><time>2026-04-04T14:17:55Z</time></trkpt><trkpt lat="45.76313294231022" lon="11.226759821236303"><ele>732.8</ele><time>2026-04-04T14:17:56Z</time></trkpt><trkpt lat="45.7630593827971" lon="11.22681179176714"><ele>730.0</ele><time>2026-04-04T14:17:57Z</time></trkpt><trkpt lat="45.76305593185213" lon="11.226677554230067"><ele>730.0</ele><time>2026-04-04T14:18:02Z</time></trkpt><trkpt lat="45.76313265313695" lon="11.226513827548338"><ele>730.0</ele><time>2026-04-04T14:18:03Z</time></trkpt><trkpt lat="45.76322532792102" lon="11.226383981899046"><ele>730.0</ele><time>2026-04-04T14:18:04Z</time></trkpt><trkpt lat="45.76330237275436" lon="11.226266575941741"><ele>730.0</ele><time>2026-04-04T14:18:05Z</time></trkpt><trkpt lat="45.763364953729564" lon="11.226175202278439"><ele>728.0</ele><time>2026-04-04T14:18:06Z</time></trkpt><trkpt lat="45.76341228771378" lon="11.226075192240593"><ele>726.0</ele><time>2026-04-04T14:18:07Z</time></trkpt><trkpt lat="45.76347060339525" lon="11.225928066162217"><ele>724.0</ele><time>2026-04-04T14:18:09Z</time></trkpt><trkpt lat="45.76351588254695" lon="11.225826495742652"><ele>722.0</ele><time>2026-04-04T14:18:10Z</time></trkpt><trkpt lat="45.763546203637105" lon="11.225742108971978"><ele>720.0</ele><time>2026-04-04T14:18:11Z</time></trkpt><trkpt lat="45.76352813220458" lon="11.225621956566009"><ele>718.0</ele><time>2026-04-04T14:18:12Z</time></trkpt><trkpt lat="45.76349744178946" lon="11.225530668624529"><ele>717.0</ele><time>2026-04-04T14:18:13Z</time></trkpt><trkpt lat="45.763395392784695" lon="11.225401113542175"><ele>716.0</ele><time>2026-04-04T14:18:15Z</time></trkpt><trkpt lat="45.7633613333261" lon="11.225303132037151"><ele>715.0</ele><time>2026-04-04T14:18:16Z</time></trkpt><trkpt lat="45.76335679351481" lon="11.225195118552598"><ele>714.0</ele><time>2026-04-04T14:18:17Z</time></trkpt><trkpt lat="45.76337392326057" lon="11.225069685988354"><ele>713.0</ele><time>2026-04-04T14:18:18Z</time></trkpt><trkpt lat="45.76339541916619" lon="11.224943290097595"><ele>713.0</ele><time>2026-04-04T14:18:19Z</time></trkpt><trkpt lat="45.763398050949235" lon="11.224851213901339"><ele>713.0</ele><time>2026-04-04T14:18:20Z</time></trkpt><trkpt lat="45.76339591605195" lon="11.224732899672924"><ele>713.0</ele><time>2026-04-04T14:18:22Z</time></trkpt><trkpt lat="45.76340070576301" lon="11.224627994310257"><ele>713.0</ele><time>2026-04-04T14:18:25Z</time></trkpt><trkpt lat="45.76333726456199" lon="11.224601916973358"><ele>713.0</ele><time>2026-04-04T14:18:27Z</time></trkpt><trkpt lat="45.76327015008435" lon="11.224587891900184"><ele>713.0</ele><time>2026-04-04T14:18:29Z</time></trkpt><trkpt lat="45.76322489415424" lon="11.224509423746769"><ele>713.0</ele><time>2026-04-04T14:18:31Z</time></trkpt><trkpt lat="45.76324910474517" lon="11.224393296212934"><ele>711.8</ele><time>2026-04-04T14:18:32.999Z</time></trkpt><trkpt lat="45.76330801259967" lon="11.22427473006854"><ele>710.5999999999999</ele><time>2026-04-04T14:18:34.999Z</time></trkpt><trkpt lat="45.76337710329779" lon="11.224144790547324"><ele>709.4000000000001</ele><time>2026-04-04T14:18:36.999Z</time></trkpt><trkpt lat="45.76343392335258" lon="11.224057825966456"><ele>708.2</ele><time>2026-04-04T14:18:38.999Z</time></trkpt><trkpt lat="45.7635109710561" lon="11.22409731264969"><ele>707.0</ele><time>2026-04-04T14:18:40.999Z</time></trkpt><trkpt lat="45.763585516087375" lon="11.224106803139106"><ele>710.8333333333333</ele><time>2026-04-04T14:18:41.999Z</time></trkpt><trkpt lat="45.763652245351174" lon="11.224066108774833"><ele>714.6666666666666</ele><time>2026-04-04T14:18:42.999Z</time></trkpt><trkpt lat="45.76371255762168" lon="11.223983767549166"><ele>718.5</ele><time>2026-04-04T14:18:43.999Z</time></trkpt><trkpt lat="45.76374910330058" lon="11.223894826476224"><ele>722.3333333333334</ele><time>2026-04-04T14:18:44.999Z</time></trkpt><trkpt lat="45.763704631978165" lon="11.2237540928497"><ele>726.1666666666667</ele><time>2026-04-04T14:18:46.999Z</time></trkpt><trkpt lat="45.76364545232517" lon="11.223684849786782"><ele>730.0</ele><time>2026-04-04T14:18:47.999Z</time></trkpt><trkpt lat="45.76362103312139" lon="11.223595480006214"><ele>730.6</ele><time>2026-04-04T14:18:48.999Z</time></trkpt><trkpt lat="45.763639555580724" lon="11.223501013758083"><ele>731.2</ele><time>2026-04-04T14:18:49.999Z</time></trkpt><trkpt lat="45.76365208169613" lon="11.223409057816491"><ele>731.8</ele><time>2026-04-04T14:18:50.999Z</time></trkpt><trkpt lat="45.76369588322517" lon="11.2231956939788"><ele>732.4</ele><time>2026-04-04T14:18:51.999Z</time></trkpt><trkpt lat="45.76369862694257" lon="11.223068098276656"><ele>733.0</ele><time>2026-04-04T14:18:52.999Z</time></trkpt><trkpt lat="45.76365861727053" lon="11.222957846031576"><ele>731.2</ele><time>2026-04-04T14:18:53.999Z</time></trkpt><trkpt lat="45.76359403839348" lon="11.222890529114075"><ele>729.4</ele><time>2026-04-04T14:18:54.999Z</time></trkpt><trkpt lat="45.76350610076707" lon="11.222823355756397"><ele>727.6</ele><time>2026-04-04T14:18:55.999Z</time></trkpt><trkpt lat="45.76342004644329" lon="11.222788520947951"><ele>725.8000000000001</ele><time>2026-04-04T14:18:56.999Z</time></trkpt><trkpt lat="45.76333074167718" lon="11.222755711433992"><ele>724.0</ele><time>2026-04-04T14:18:57.999Z</time></trkpt><trkpt lat="45.76324051070318" lon="11.222750492526888"><ele>724.0</ele><time>2026-04-04T14:18:58.999Z</time></trkpt><trkpt lat="45.763166102859316" lon="11.222722095706283"><ele>724.0</ele><time>2026-04-04T14:18:59.999Z</time></trkpt><trkpt lat="45.76307164742314" lon="11.222683202624834"><ele>724.0</ele><time>2026-04-04T14:19:01.999Z</time></trkpt><trkpt lat="45.76301895916034" lon="11.222575545237804"><ele>724.0</ele><time>2026-04-04T14:19:03.999Z</time></trkpt><trkpt lat="45.76298833464233" lon="11.2223774609034"><ele>724.0</ele><time>2026-04-04T14:19:05.999Z</time></trkpt><trkpt lat="45.762951049079035" lon="11.22227924357484"><ele>725.1666666666667</ele><time>2026-04-04T14:19:06.999Z</time></trkpt><trkpt lat="45.762902231214724" lon="11.222186973305874"><ele>726.3333333333334</ele><time>2026-04-04T14:19:07.999Z</time></trkpt><trkpt lat="45.762834865713536" lon="11.222100158849416"><ele>727.5</ele><time>2026-04-04T14:19:08.999Z</time></trkpt><trkpt lat="45.76276554456486" lon="11.222001998105913"><ele>728.6666666666666</ele><time>2026-04-04T14:19:09.999Z</time></trkpt><trkpt lat="45.76269980452041" lon="11.221924438163809"><ele>729.8333333333333</ele><time>2026-04-04T14:19:10.999Z</time></trkpt><trkpt lat="45.76261905914737" lon="11.221876588296203"><ele>731.0</ele><time>2026-04-04T14:19:11.999Z</time></trkpt><trkpt lat="45.76251743520673" lon="11.221851639922471"><ele>731.0</ele><time>2026-04-04T14:19:12.999Z</time></trkpt><trkpt lat="45.762390603794806" lon="11.221814660100623"><ele>731.0</ele><time>2026-04-04T14:19:13.999Z</time></trkpt><trkpt lat="45.762251063101246" lon="11.221754952740852"><ele>731.0</ele><time>2026-04-04T14:19:14.999Z</time></trkpt><trkpt lat="45.76210360206365" lon="11.221695114561292"><ele>731.0</ele><time>2026-04-04T14:19:15.999Z</time></trkpt><trkpt lat="45.76196807210442" lon="11.221687766125862"><ele>730.75</ele><time>2026-04-04T14:19:16.999Z</time></trkpt><trkpt lat="45.76182789423101" lon="11.221693847144842"><ele>730.5</ele><time>2026-04-04T14:19:17.999Z</time></trkpt><trkpt lat="45.76170147731975" lon="11.221715873150364"><ele>730.25</ele><time>2026-04-04T14:19:18.999Z</time></trkpt><trkpt lat="45.76160133738484" lon="11.221754172419862"><ele>730.0</ele><time>2026-04-04T14:19:19.999Z</time></trkpt><trkpt lat="45.76151215899678" lon="11.221769341726961"><ele>730.0</ele><time>2026-04-04T14:19:20.999Z</time></trkpt><trkpt lat="45.761418001991125" lon="11.22174855630652"><ele>730.0</ele><time>2026-04-04T14:19:21.999Z</time></trkpt><trkpt lat="45.76129503945887" lon="11.221698895243817"><ele>730.0</ele><time>2026-04-04T14:19:22.999Z</time></trkpt><trkpt lat="45.76113783705771" lon="11.221609958105276"><ele>730.0</ele><time>2026-04-04T14:19:23.999Z</time></trkpt><trkpt lat="45.761016588201464" lon="11.221523053309467"><ele>729.0</ele><time>2026-04-04T14:19:24.999Z</time></trkpt><trkpt lat="45.76095569096851" lon="11.22148430419905"><ele>728.0</ele><time>2026-04-04T14:19:25.999Z</time></trkpt><trkpt lat="45.76097052396266" lon="11.221349643080194"><ele>727.0</ele><time>2026-04-04T14:19:27.999Z</time></trkpt><trkpt lat="45.760995461655114" lon="11.221244964937448"><ele>726.0</ele><time>2026-04-04T14:19:28.999Z</time></trkpt><trkpt lat="45.761046443277074" lon="11.221063144127763"><ele>725.0</ele><time>2026-04-04T14:19:29.999Z</time></trkpt><trkpt lat="45.76108966047593" lon="11.220836570163295"><ele>726.0</ele><time>2026-04-04T14:19:30.999Z</time></trkpt><trkpt lat="45.76109633798035" lon="11.220667563105227"><ele>727.0</ele><time>2026-04-04T14:19:31.999Z</time></trkpt><trkpt lat="45.76102933223182" lon="11.220521971617217"><ele>728.0</ele><time>2026-04-04T14:19:32.999Z</time></trkpt><trkpt lat="45.760968485385995" lon="11.220442332361287"><ele>729.0</ele><time>2026-04-04T14:19:33.999Z</time></trkpt><trkpt lat="45.76090751909611" lon="11.220330405993845"><ele>730.0</ele><time>2026-04-04T14:19:34.999Z</time></trkpt><trkpt lat="45.760891340838164" lon="11.220199515734691"><ele>730.0</ele><time>2026-04-04T14:19:35.999Z</time></trkpt><trkpt lat="45.76087892087002" lon="11.220090878336109"><ele>730.0</ele><time>2026-04-04T14:19:36.998Z</time></trkpt><trkpt lat="45.76087711302549" lon="11.219951165080092"><ele>730.0</ele><time>2026-04-04T14:19:37.998Z</time></trkpt><trkpt lat="45.76088733984283" lon="11.219805059413037"><ele>730.0</ele><time>2026-04-04T14:19:38.998Z</time></trkpt><trkpt lat="45.760902113598476" lon="11.219672004609466"><ele>730.0</ele><time>2026-04-04T14:19:39.998Z</time></trkpt><trkpt lat="45.760934213118" lon="11.219559405764064"><ele>729.0</ele><time>2026-04-04T14:19:40.998Z</time></trkpt><trkpt lat="45.76098123506881" lon="11.219455072528113"><ele>728.0</ele><time>2026-04-04T14:19:41.998Z</time></trkpt><trkpt lat="45.761103925245834" lon="11.219373157010951"><ele>727.0</ele><time>2026-04-04T14:19:42.998Z</time></trkpt><trkpt lat="45.761167514513104" lon="11.219309004456246"><ele>726.0</ele><time>2026-04-04T14:19:43.998Z</time></trkpt><trkpt lat="45.76116194716667" lon="11.21916469508224"><ele>725.0</ele><time>2026-04-04T14:19:45.998Z</time></trkpt><trkpt lat="45.761133704820594" lon="11.218983858301259"><ele>730.6</ele><time>2026-04-04T14:19:46.998Z</time></trkpt><trkpt lat="45.761147227409914" lon="11.21881222075461"><ele>736.2</ele><time>2026-04-04T14:19:47.998Z</time></trkpt><trkpt lat="45.761182962289325" lon="11.218723838065761"><ele>741.8</ele><time>2026-04-04T14:19:48.998Z</time></trkpt><trkpt lat="45.76124745007906" lon="11.218638003029147"><ele>747.4</ele><time>2026-04-04T14:19:49.998Z</time></trkpt><trkpt lat="45.76133449046774" lon="11.218496578907683"><ele>753.0</ele><time>2026-04-04T14:19:50.998Z</time></trkpt><trkpt lat="45.76139823284093" lon="11.218354651757156"><ele>753.0</ele><time>2026-04-04T14:19:51.998Z</time></trkpt><trkpt lat="45.76140405014089" lon="11.218215700208496"><ele>753.0</ele><time>2026-04-04T14:19:52.998Z</time></trkpt><trkpt lat="45.76138527045132" lon="11.218079204711268"><ele>753.0</ele><time>2026-04-04T14:19:54Z</time></trkpt><trkpt lat="45.76134790422683" lon="11.217908214797088"><ele>753.0</ele><time>2026-04-04T14:19:55Z</time></trkpt><trkpt lat="45.76132904469664" lon="11.21765718222006"><ele>752.75</ele><time>2026-04-04T14:19:56Z</time></trkpt><trkpt lat="45.76131554919576" lon="11.217480466889201"><ele>752.5</ele><time>2026-04-04T14:19:57Z</time></trkpt><trkpt lat="45.76135945101077" lon="11.217332178086238"><ele>752.25</ele><time>2026-04-04T14:19:59Z</time></trkpt><trkpt lat="45.76146039699271" lon="11.217224888554426"><ele>752.0</ele><time>2026-04-04T14:20:00Z</time></trkpt><trkpt lat="45.76151584588641" lon="11.217082409928269"><ele>750.75</ele><time>2026-04-04T14:20:01Z</time></trkpt><trkpt lat="45.7615566403297" lon="11.216941226854653"><ele>749.5</ele><time>2026-04-04T14:20:02Z</time></trkpt><trkpt lat="45.761567102726524" lon="11.216791373880826"><ele>748.25</ele><time>2026-04-04T14:20:03Z</time></trkpt><trkpt lat="45.7615596836867" lon="11.216597165831498"><ele>747.0</ele><time>2026-04-04T14:20:04Z</time></trkpt><trkpt lat="45.761537568803924" lon="11.21641872771804"><ele>744.4000000000001</ele><time>2026-04-04T14:20:05Z</time></trkpt><trkpt lat="45.76153005872747" lon="11.216320350763535"><ele>741.8000000000001</ele><time>2026-04-04T14:20:06Z</time></trkpt><trkpt lat="45.76160369765492" lon="11.216146138397654"><ele>739.2</ele><time>2026-04-04T14:20:08Z</time></trkpt><trkpt lat="45.76167834847881" lon="11.216007765469493"><ele>736.6</ele><time>2026-04-04T14:20:09Z</time></trkpt><trkpt lat="45.76174851071619" lon="11.215877512204617"><ele>734.0</ele><time>2026-04-04T14:20:10Z</time></trkpt><trkpt lat="45.761810183264515" lon="11.215769376850314"><ele>738.4000000000001</ele><time>2026-04-04T14:20:11Z</time></trkpt><trkpt lat="45.76189557483689" lon="11.21572067808116"><ele>742.8</ele><time>2026-04-04T14:20:13Z</time></trkpt><trkpt lat="45.76197030101552" lon="11.21571895062873"><ele>747.2</ele><time>2026-04-04T14:20:14Z</time></trkpt><trkpt lat="45.7620707738162" lon="11.215708982267971"><ele>751.5999999999999</ele><time>2026-04-04T14:20:15Z</time></trkpt><trkpt lat="45.762163735638886" lon="11.21568983074622"><ele>756.0</ele><time>2026-04-04T14:20:16Z</time></trkpt><trkpt lat="45.76225724488878" lon="11.215644028129221"><ele>756.0</ele><time>2026-04-04T14:20:17Z</time></trkpt><trkpt lat="45.762341665838015" lon="11.21555859690903"><ele>756.0</ele><time>2026-04-04T14:20:18Z</time></trkpt><trkpt lat="45.76241300672835" lon="11.21543645502837"><ele>756.0</ele><time>2026-04-04T14:20:19Z</time></trkpt><trkpt lat="45.76248016083331" lon="11.215289840904395"><ele>756.0</ele><time>2026-04-04T14:20:20Z</time></trkpt><trkpt lat="45.762518641156866" lon="11.215151196106811"><ele>756.0</ele><time>2026-04-04T14:20:21Z</time></trkpt><trkpt lat="45.76253615847142" lon="11.215036206515359"><ele>756.0</ele><time>2026-04-04T14:20:22Z</time></trkpt><trkpt lat="45.76256058625456" lon="11.214943376124525"><ele>756.0</ele><time>2026-04-04T14:20:23Z</time></trkpt><trkpt lat="45.76259551019186" lon="11.21486249957061"><ele>756.0</ele><time>2026-04-04T14:20:24Z</time></trkpt><trkpt lat="45.76266172489734" lon="11.214744578407506"><ele>756.0</ele><time>2026-04-04T14:20:25Z</time></trkpt><trkpt lat="45.76272595737939" lon="11.214612544010402"><ele>756.0</ele><time>2026-04-04T14:20:26Z</time></trkpt><trkpt lat="45.762786351936626" lon="11.2144854966594"><ele>757.8</ele><time>2026-04-04T14:20:27Z</time></trkpt><trkpt lat="45.7628361859745" lon="11.214343595026756"><ele>759.5999999999999</ele><time>2026-04-04T14:20:28Z</time></trkpt><trkpt lat="45.76289284369379" lon="11.214212881121135"><ele>761.4</ele><time>2026-04-04T14:20:29Z</time></trkpt><trkpt lat="45.76293504090465" lon="11.214081206510237"><ele>763.2</ele><time>2026-04-04T14:20:30Z</time></trkpt><trkpt lat="45.762977710467844" lon="11.213944186325246"><ele>765.0</ele><time>2026-04-04T14:20:31Z</time></trkpt><trkpt lat="45.76296654772904" lon="11.213788811518489"><ele>765.0</ele><time>2026-04-04T14:20:32Z</time></trkpt><trkpt lat="45.76297402429217" lon="11.213643996265061"><ele>765.0</ele><time>2026-04-04T14:20:33Z</time></trkpt><trkpt lat="45.762954650810954" lon="11.213513016632886"><ele>765.0</ele><time>2026-04-04T14:20:34Z</time></trkpt><trkpt lat="45.7629777407496" lon="11.213362671162523"><ele>765.0</ele><time>2026-04-04T14:20:35Z</time></trkpt><trkpt lat="45.76299114379285" lon="11.213232089956366"><ele>765.0</ele><time>2026-04-04T14:20:36Z</time></trkpt><trkpt lat="45.763006351260984" lon="11.213121886430251"><ele>763.5</ele><time>2026-04-04T14:20:37Z</time></trkpt><trkpt lat="45.76306492638677" lon="11.212967141713161"><ele>762.0</ele><time>2026-04-04T14:20:39Z</time></trkpt><trkpt lat="45.763121584255344" lon="11.21292370581556"><ele>760.5</ele><time>2026-04-04T14:20:41Z</time></trkpt><trkpt lat="45.76317832835178" lon="11.212842704010328"><ele>759.0</ele><time>2026-04-04T14:21:14.999Z</time></trkpt><trkpt lat="45.763197886241684" lon="11.212747473901725"><ele>757.5</ele><time>2026-04-04T14:21:43.999Z</time></trkpt><trkpt lat="45.76323331457185" lon="11.21259551895349"><ele>756.0</ele><time>2026-04-04T14:21:45.998Z</time></trkpt><trkpt lat="45.763262663058775" lon="11.212492794849775"><ele>756.0</ele><time>2026-04-04T14:21:46.998Z</time></trkpt><trkpt lat="45.76332306479643" lon="11.212339423948803"><ele>756.0</ele><time>2026-04-04T14:21:48.998Z</time></trkpt><trkpt lat="45.76339118383653" lon="11.212291528619762"><ele>756.0</ele><time>2026-04-04T14:21:49.998Z</time></trkpt><trkpt lat="45.763459098814494" lon="11.212200469562822"><ele>756.0</ele><time>2026-04-04T14:21:50.998Z</time></trkpt><trkpt lat="45.76355773212216" lon="11.212110579492974"><ele>756.0</ele><time>2026-04-04T14:21:51.998Z</time></trkpt><trkpt lat="45.76369413911726" lon="11.212044530384153"><ele>761.75</ele><time>2026-04-04T14:21:52.998Z</time></trkpt><trkpt lat="45.76381056902721" lon="11.211922251287803"><ele>767.5</ele><time>2026-04-04T14:21:53.998Z</time></trkpt><trkpt lat="45.76388207980509" lon="11.211781660563197"><ele>773.25</ele><time>2026-04-04T14:21:54.998Z</time></trkpt><trkpt lat="45.7639824785247" lon="11.21164253560217"><ele>779.0</ele><time>2026-04-04T14:21:55.998Z</time></trkpt><trkpt lat="45.764090298371336" lon="11.211579287696106"><ele>775.3333333333334</ele><time>2026-04-04T14:21:56.998Z</time></trkpt><trkpt lat="45.764192006236165" lon="11.21147534661537"><ele>771.6666666666667</ele><time>2026-04-04T14:21:57.998Z</time></trkpt><trkpt lat="45.76430468549234" lon="11.211319194742341"><ele>768.0</ele><time>2026-04-04T14:21:58.998Z</time></trkpt><trkpt lat="45.76442619704066" lon="11.211146158122276"><ele>779.5</ele><time>2026-04-04T14:22:00Z</time></trkpt><trkpt lat="45.76454122786644" lon="11.210960789565629"><ele>791.0</ele><time>2026-04-04T14:22:01Z</time></trkpt><trkpt lat="45.76460986029742" lon="11.210819876768277"><ele>802.5</ele><time>2026-04-04T14:22:02Z</time></trkpt><trkpt lat="45.76465264573609" lon="11.210686399744123"><ele>814.0</ele><time>2026-04-04T14:22:03Z</time></trkpt><trkpt lat="45.76465182609529" lon="11.210516796697688"><ele>814.0</ele><time>2026-04-04T14:22:04Z</time></trkpt><trkpt lat="45.764655478902675" lon="11.210319580245413"><ele>814.0</ele><time>2026-04-04T14:22:05Z</time></trkpt><trkpt lat="45.76466038616346" lon="11.210070570340276"><ele>814.0</ele><time>2026-04-04T14:22:06Z</time></trkpt><trkpt lat="45.764671025043015" lon="11.209811494063574"><ele>812.75</ele><time>2026-04-04T14:22:07Z</time></trkpt><trkpt lat="45.764665650750295" lon="11.20959454258118"><ele>811.5</ele><time>2026-04-04T14:22:08Z</time></trkpt><trkpt lat="45.764677638783304" lon="11.209437639292716"><ele>810.25</ele><time>2026-04-04T14:22:09Z</time></trkpt><trkpt lat="45.764713157194336" lon="11.209274890143472"><ele>809.0</ele><time>2026-04-04T14:22:10Z</time></trkpt><trkpt lat="45.764748679925916" lon="11.209124965978226"><ele>809.0</ele><time>2026-04-04T14:22:11Z</time></trkpt><trkpt lat="45.76476475794023" lon="11.209028073134979"><ele>809.0</ele><time>2026-04-04T14:22:12Z</time></trkpt><trkpt lat="45.76465459477307" lon="11.208900873775272"><ele>809.0</ele><time>2026-04-04T14:22:14Z</time></trkpt><trkpt lat="45.764535073386895" lon="11.208890691249644"><ele>809.0</ele><time>2026-04-04T14:22:15Z</time></trkpt><trkpt lat="45.76446972060273" lon="11.208822504988534"><ele>809.0</ele><time>2026-04-04T14:22:16Z</time></trkpt><trkpt lat="45.764465386108675" lon="11.208718727137928"><ele>811.2</ele><time>2026-04-04T14:22:18Z</time></trkpt><trkpt lat="45.764465528605484" lon="11.208622464158768"><ele>813.4000000000001</ele><time>2026-04-04T14:22:19Z</time></trkpt><trkpt lat="45.76454371909964" lon="11.208491620492051"><ele>815.6</ele><time>2026-04-04T14:22:20Z</time></trkpt><trkpt lat="45.76458683217402" lon="11.208360849491081"><ele>817.8</ele><time>2026-04-04T14:22:21Z</time></trkpt><trkpt lat="45.764600786172856" lon="11.208169926866026"><ele>820.0</ele><time>2026-04-04T14:22:22Z</time></trkpt><trkpt lat="45.76454501288135" lon="11.208042920982848"><ele>821.8</ele><time>2026-04-04T14:22:23Z</time></trkpt><trkpt lat="45.76453437670621" lon="11.207940791721906"><ele>823.6</ele><time>2026-04-04T14:22:24Z</time></trkpt><trkpt lat="45.764623063308136" lon="11.207861044566357"><ele>825.4000000000001</ele><time>2026-04-04T14:22:26Z</time></trkpt><trkpt lat="45.76469372228401" lon="11.207821621922388"><ele>827.2</ele><time>2026-04-04T14:22:27Z</time></trkpt><trkpt lat="45.76476307792616" lon="11.207750673780318"><ele>829.0</ele><time>2026-04-04T14:22:28Z</time></trkpt><trkpt lat="45.76483774908596" lon="11.207594335935086"><ele>828.9999999999999</ele><time>2026-04-04T14:22:30Z</time></trkpt><trkpt lat="45.76486224354903" lon="11.207483729411189"><ele>829.0</ele><time>2026-04-04T14:22:32Z</time></trkpt><trkpt lat="45.76489380899308" lon="11.207374410607619"><ele>829.0</ele><time>2026-04-04T14:22:37Z</time></trkpt><trkpt lat="45.764932901631425" lon="11.207273762757833"><ele>829.0</ele><time>2026-04-04T14:22:40Z</time></trkpt><trkpt lat="45.76490474825046" lon="11.207188580739501"><ele>828.9999999999999</ele><time>2026-04-04T14:23:00.999Z</time></trkpt><trkpt lat="45.76483834340521" lon="11.20712299635693"><ele>829.0</ele><time>2026-04-04T14:24:11Z</time></trkpt><trkpt lat="45.76481531584229" lon="11.207024541888872"><ele>833.1666666666666</ele><time>2026-04-04T14:24:15Z</time></trkpt><trkpt lat="45.76477153365635" lon="11.206892789127052"><ele>837.3333333333333</ele><time>2026-04-04T14:24:17Z</time></trkpt><trkpt lat="45.764739445271694" lon="11.20680611168745"><ele>841.5</ele><time>2026-04-04T14:24:18Z</time></trkpt><trkpt lat="45.764704735292405" lon="11.206728898354259"><ele>845.6666666666667</ele><time>2026-04-04T14:24:19Z</time></trkpt><trkpt lat="45.76462102394345" lon="11.206675137912384"><ele>849.8333333333334</ele><time>2026-04-04T14:24:21Z</time></trkpt><trkpt lat="45.764550848558564" lon="11.206658301291128"><ele>854.0</ele><time>2026-04-04T14:24:22Z</time></trkpt><trkpt lat="45.764440464471946" lon="11.206616542355832"><ele>854.0000000000001</ele><time>2026-04-04T14:24:24Z</time></trkpt><trkpt lat="45.76436965222817" lon="11.206554275060974"><ele>854.0</ele><time>2026-04-04T14:24:25Z</time></trkpt><trkpt lat="45.76429973211714" lon="11.206469898937446"><ele>854.0</ele><time>2026-04-04T14:24:26Z</time></trkpt><trkpt lat="45.76423705951413" lon="11.20639139442396"><ele>854.0</ele><time>2026-04-04T14:24:27Z</time></trkpt><trkpt lat="45.76417145453908" lon="11.206319724930937"><ele>854.0000000000001</ele><time>2026-04-04T14:24:28Z</time></trkpt><trkpt lat="45.76411973736271" lon="11.206266634013454"><ele>854.0</ele><time>2026-04-04T14:24:29Z</time></trkpt><trkpt lat="45.76415744699501" lon="11.20635284190555"><ele>854.0000000000001</ele><time>2026-04-04T14:24:39Z</time></trkpt><trkpt lat="45.76421011904474" lon="11.206412460765225"><ele>854.0</ele><time>2026-04-04T14:24:41Z</time></trkpt><trkpt lat="45.76432411578632" lon="11.206480802337119"><ele>854.0</ele><time>2026-04-04T14:24:43Z</time></trkpt><trkpt lat="45.76437837767341" lon="11.206533170370614"><ele>854.0</ele><time>2026-04-04T14:24:44Z</time></trkpt><trkpt lat="45.76442396921946" lon="11.206599617682597"><ele>854.0000000000001</ele><time>2026-04-04T14:24:45Z</time></trkpt><trkpt lat="45.76451759289324" lon="11.206658227301668"><ele>854.0</ele><time>2026-04-04T14:24:47Z</time></trkpt><trkpt lat="45.76460545130464" lon="11.206668377990402"><ele>854.0000000000001</ele><time>2026-04-04T14:24:49Z</time></trkpt><trkpt lat="45.76465432163575" lon="11.206780706649095"><ele>854.0</ele><time>2026-04-04T14:24:52Z</time></trkpt><trkpt lat="45.764712113149976" lon="11.206919570902032"><ele>854.0</ele><time>2026-04-04T14:24:53.999Z</time></trkpt><trkpt lat="45.764732635348075" lon="11.207007749594379"><ele>854.0</ele><time>2026-04-04T14:24:54.999Z</time></trkpt><trkpt lat="45.76473372673705" lon="11.20710953296514"><ele>854.0000000000001</ele><time>2026-04-04T14:24:55.999Z</time></trkpt><trkpt lat="45.76472895898912" lon="11.207209392548307"><ele>854.0</ele><time>2026-04-04T14:24:56.999Z</time></trkpt><trkpt lat="45.76476989276989" lon="11.207309679525135"><ele>849.0</ele><time>2026-04-04T14:24:58.999Z</time></trkpt><trkpt lat="45.764784822061046" lon="11.207448281211503"><ele>844.0000000000001</ele><time>2026-04-04T14:25:00.999Z</time></trkpt><trkpt lat="45.76474742189272" lon="11.207527923330181"><ele>839.0</ele><time>2026-04-04T14:25:02.999Z</time></trkpt><trkpt lat="45.76472475836309" lon="11.207680061530068"><ele>834.0</ele><time>2026-04-04T14:25:04.999Z</time></trkpt><trkpt lat="45.764648057036084" lon="11.20773070561835"><ele>829.0</ele><time>2026-04-04T14:25:06.999Z</time></trkpt><trkpt lat="45.76454864142037" lon="11.207830727345959"><ele>828.9999999999999</ele><time>2026-04-04T14:25:08.999Z</time></trkpt><trkpt lat="45.764497145034085" lon="11.20789144049426"><ele>829.0</ele><time>2026-04-04T14:25:09.999Z</time></trkpt><trkpt lat="45.764472128416195" lon="11.207985659868072"><ele>829.0</ele><time>2026-04-04T14:25:11.999Z</time></trkpt><trkpt lat="45.76451902820682" lon="11.208084912033405"><ele>829.0</ele><time>2026-04-04T14:25:14.999Z</time></trkpt><trkpt lat="45.764552352042465" lon="11.208191273352167"><ele>828.9999999999999</ele><time>2026-04-04T14:25:16.999Z</time></trkpt><trkpt lat="45.764559326213046" lon="11.208315467909255"><ele>829.0</ele><time>2026-04-04T14:25:17.999Z</time></trkpt><trkpt lat="45.76451386493064" lon="11.208470591304811"><ele>827.2</ele><time>2026-04-04T14:25:19.999Z</time></trkpt><trkpt lat="45.76445276766406" lon="11.208605419086387"><ele>825.4000000000001</ele><time>2026-04-04T14:25:21.999Z</time></trkpt><trkpt lat="45.76442141564488" lon="11.20871989093206"><ele>823.6</ele><time>2026-04-04T14:25:23.999Z</time></trkpt><trkpt lat="45.76439436056831" lon="11.208809125068964"><ele>821.8</ele><time>2026-04-04T14:25:24.999Z</time></trkpt><trkpt lat="45.76441767932625" lon="11.208927163216279"><ele>820.0</ele><time>2026-04-04T14:25:26.999Z</time></trkpt><trkpt lat="45.76413926073909" lon="11.209403375687705"><ele>810.2</ele><time>2026-04-04T14:25:34.999Z</time></trkpt><trkpt lat="45.76408423564657" lon="11.209471284690533"><ele>800.4</ele><time>2026-04-04T14:25:36.999Z</time></trkpt><trkpt lat="45.76400161875254" lon="11.209497915050898"><ele>790.5999999999999</ele><time>2026-04-04T14:25:38.999Z</time></trkpt><trkpt lat="45.763884672014775" lon="11.209500883906049"><ele>780.8</ele><time>2026-04-04T14:25:40.999Z</time></trkpt><trkpt lat="45.763761006464044" lon="11.209482921055768"><ele>771.0</ele><time>2026-04-04T14:25:42.999Z</time></trkpt><trkpt lat="45.76365317152879" lon="11.209445930679497"><ele>771.0</ele><time>2026-04-04T14:25:44.999Z</time></trkpt><trkpt lat="45.76353175834004" lon="11.209418245213724"><ele>771.0</ele><time>2026-04-04T14:25:46.999Z</time></trkpt><trkpt lat="45.76342138035263" lon="11.209453836995424"><ele>771.0</ele><time>2026-04-04T14:25:48.999Z</time></trkpt><trkpt lat="45.763309060743346" lon="11.209488629942527"><ele>771.0</ele><time>2026-04-04T14:25:50.999Z</time></trkpt><trkpt lat="45.76320582459346" lon="11.209499149742745"><ele>766.1666666666666</ele><time>2026-04-04T14:25:52.999Z</time></trkpt><trkpt lat="45.76313099409967" lon="11.20955787827655"><ele>761.3333333333334</ele><time>2026-04-04T14:25:54.998Z</time></trkpt><trkpt lat="45.76307154377209" lon="11.20961422062992"><ele>756.5</ele><time>2026-04-04T14:25:55.998Z</time></trkpt><trkpt lat="45.763011715593215" lon="11.20965522874902"><ele>751.6666666666667</ele><time>2026-04-04T14:25:56.998Z</time></trkpt><trkpt lat="45.76292945742485" lon="11.209646131242453"><ele>746.8333333333334</ele><time>2026-04-04T14:25:58.998Z</time></trkpt><trkpt lat="45.76283647890927" lon="11.209638921657604"><ele>742.0</ele><time>2026-04-04T14:26:00.998Z</time></trkpt><trkpt lat="45.76276910399765" lon="11.209594707661164"><ele>736.0</ele><time>2026-04-04T14:26:02.998Z</time></trkpt><trkpt lat="45.76268360163743" lon="11.209513111383421"><ele>730.0</ele><time>2026-04-04T14:26:05.998Z</time></trkpt><trkpt lat="45.76260524899754" lon="11.209478708028145"><ele>724.0</ele><time>2026-04-04T14:26:07.998Z</time></trkpt><trkpt lat="45.76249922285543" lon="11.20939270786607"><ele>718.0</ele><time>2026-04-04T14:26:09.998Z</time></trkpt><trkpt lat="45.762412781987784" lon="11.209310064954167"><ele>712.0</ele><time>2026-04-04T14:26:12Z</time></trkpt><trkpt lat="45.76234053661538" lon="11.209192573589855"><ele>711.9999999999999</ele><time>2026-04-04T14:26:14Z</time></trkpt><trkpt lat="45.76229926178289" lon="11.2091078195178"><ele>712.0</ele><time>2026-04-04T14:26:16Z</time></trkpt><trkpt lat="45.7622236373397" lon="11.209047659438117"><ele>712.0</ele><time>2026-04-04T14:26:29Z</time></trkpt><trkpt lat="45.762161941205285" lon="11.209078439650014"><ele>712.0</ele><time>2026-04-04T14:26:31Z</time></trkpt><trkpt lat="45.7621035757012" lon="11.209113951988888"><ele>712.0</ele><time>2026-04-04T14:26:33Z</time></trkpt><trkpt lat="45.76202756769666" lon="11.20907716822785"><ele>711.9999999999999</ele><time>2026-04-04T14:26:35Z</time></trkpt><trkpt lat="45.76197931065236" lon="11.209017311050193"><ele>712.0</ele><time>2026-04-04T14:26:36Z</time></trkpt><trkpt lat="45.761924137195464" lon="11.208958868409324"><ele>712.0</ele><time>2026-04-04T14:26:39Z</time></trkpt><trkpt lat="45.76187919902814" lon="11.209071413552811"><ele>712.0</ele><time>2026-04-04T14:26:42Z</time></trkpt><trkpt lat="45.761815426404084" lon="11.209131947664195"><ele>712.0</ele><time>2026-04-04T14:26:45Z</time></trkpt><trkpt lat="45.761745168944664" lon="11.20912134380457"><ele>712.0</ele><time>2026-04-04T14:26:46Z</time></trkpt><trkpt lat="45.76168824593064" lon="11.209077690454002"><ele>712.0</ele><time>2026-04-04T14:26:50Z</time></trkpt><trkpt lat="45.76169168150896" lon="11.208963182018058"><ele>712.0</ele><time>2026-04-04T14:26:51.999Z</time></trkpt><trkpt lat="45.76170809668499" lon="11.208851863703773"><ele>707.5</ele><time>2026-04-04T14:26:53.999Z</time></trkpt><trkpt lat="45.76170218973008" lon="11.208746377491133"><ele>703.0</ele><time>2026-04-04T14:26:55.999Z</time></trkpt><trkpt lat="45.76170903135635" lon="11.208577095519114"><ele>698.5</ele><time>2026-04-04T14:26:57.999Z</time></trkpt><trkpt lat="45.76170527030489" lon="11.208470499945223"><ele>694.0</ele><time>2026-04-04T14:26:58.999Z</time></trkpt><trkpt lat="45.76167163820271" lon="11.20836284431178"><ele>689.5</ele><time>2026-04-04T14:26:59.999Z</time></trkpt><trkpt lat="45.761618661647745" lon="11.208265379747967"><ele>685.0</ele><time>2026-04-04T14:27:00.999Z</time></trkpt><trkpt lat="45.7615660488953" lon="11.20817769572433"><ele>686.1666666666667</ele><time>2026-04-04T14:27:01.999Z</time></trkpt><trkpt lat="45.761532192581434" lon="11.208083595812699"><ele>687.3333333333334</ele><time>2026-04-04T14:27:02.999Z</time></trkpt><trkpt lat="45.761506506106166" lon="11.207980303021406"><ele>688.5</ele><time>2026-04-04T14:27:03.999Z</time></trkpt><trkpt lat="45.7614801176481" lon="11.207869964933487"><ele>689.6666666666666</ele><time>2026-04-04T14:27:04.999Z</time></trkpt><trkpt lat="45.761461021537905" lon="11.207751749428805"><ele>690.8333333333333</ele><time>2026-04-04T14:27:05.999Z</time></trkpt><trkpt lat="45.76147281797561" lon="11.207612914414872"><ele>692.0</ele><time>2026-04-04T14:27:06.999Z</time></trkpt><trkpt lat="45.76148290185766" lon="11.207478008473643"><ele>692.0</ele><time>2026-04-04T14:27:07.999Z</time></trkpt><trkpt lat="45.76151791947643" lon="11.207343868045532"><ele>692.0</ele><time>2026-04-04T14:27:08.999Z</time></trkpt><trkpt lat="45.761552574881556" lon="11.207209361031751"><ele>692.0</ele><time>2026-04-04T14:27:09.999Z</time></trkpt><trkpt lat="45.76157039241965" lon="11.207078876883665"><ele>692.0</ele><time>2026-04-04T14:27:10.999Z</time></trkpt><trkpt lat="45.76152549099397" lon="11.206986093526247"><ele>692.0</ele><time>2026-04-04T14:27:11.999Z</time></trkpt><trkpt lat="45.76142193371085" lon="11.206902528274487"><ele>691.4000000000001</ele><time>2026-04-04T14:27:13.999Z</time></trkpt><trkpt lat="45.76133707303671" lon="11.206863007861294"><ele>690.8000000000001</ele><time>2026-04-04T14:27:14.999Z</time></trkpt><trkpt lat="45.76124149575062" lon="11.20691889064837"><ele>690.2</ele><time>2026-04-04T14:27:15.999Z</time></trkpt><trkpt lat="45.76113471454666" lon="11.206999731966004"><ele>689.6</ele><time>2026-04-04T14:27:16.999Z</time></trkpt><trkpt lat="45.76102306771882" lon="11.207088408282257"><ele>689.0</ele><time>2026-04-04T14:27:17.999Z</time></trkpt><trkpt lat="45.76091047860012" lon="11.207128641975814"><ele>689.0</ele><time>2026-04-04T14:27:18.999Z</time></trkpt><trkpt lat="45.760795676886424" lon="11.207071121894113"><ele>689.0</ele><time>2026-04-04T14:27:19.999Z</time></trkpt><trkpt lat="45.760661307615976" lon="11.207022403669916"><ele>689.0</ele><time>2026-04-04T14:27:20.999Z</time></trkpt><trkpt lat="45.760511956382075" lon="11.206978277264154"><ele>689.0</ele><time>2026-04-04T14:27:21.999Z</time></trkpt><trkpt lat="45.760341596782304" lon="11.206966950162569"><ele>689.75</ele><time>2026-04-04T14:27:22.999Z</time></trkpt><trkpt lat="45.76018793789691" lon="11.206931605465162"><ele>690.5</ele><time>2026-04-04T14:27:23.999Z</time></trkpt><trkpt lat="45.76004653236622" lon="11.206915528587071"><ele>691.25</ele><time>2026-04-04T14:27:24.999Z</time></trkpt><trkpt lat="45.75994200084589" lon="11.206898447963276"><ele>692.0</ele><time>2026-04-04T14:27:25.999Z</time></trkpt><trkpt lat="45.759851686846964" lon="11.206967690577585"><ele>692.0</ele><time>2026-04-04T14:27:26.999Z</time></trkpt><trkpt lat="45.75978907521324" lon="11.207110363600023"><ele>692.0</ele><time>2026-04-04T14:27:27.999Z</time></trkpt><trkpt lat="45.759723291163034" lon="11.20727205546265"><ele>692.0</ele><time>2026-04-04T14:27:28.999Z</time></trkpt><trkpt lat="45.75968033259216" lon="11.207496365409465"><ele>692.0</ele><time>2026-04-04T14:27:29.999Z</time></trkpt><trkpt lat="45.75963292698543" lon="11.207688077859986"><ele>693.5</ele><time>2026-04-04T14:27:30.999Z</time></trkpt><trkpt lat="45.75957897960434" lon="11.207775088300643"><ele>695.0</ele><time>2026-04-04T14:27:31.999Z</time></trkpt><trkpt lat="45.759482326660994" lon="11.207853063395357"><ele>696.5</ele><time>2026-04-04T14:27:32.999Z</time></trkpt><trkpt lat="45.75935140433142" lon="11.208015612814684"><ele>698.0</ele><time>2026-04-04T14:27:33.999Z</time></trkpt><trkpt lat="45.75923567121868" lon="11.20818354699421"><ele>698.0</ele><time>2026-04-04T14:27:34.999Z</time></trkpt><trkpt lat="45.75914488098517" lon="11.208289708041466"><ele>698.0</ele><time>2026-04-04T14:27:35.999Z</time></trkpt><trkpt lat="45.75918799482062" lon="11.208150861763746"><ele>698.0</ele><time>2026-04-04T14:27:46.999Z</time></trkpt><trkpt lat="45.75920116846874" lon="11.208046492774557"><ele>698.0</ele><time>2026-04-04T14:27:48.999Z</time></trkpt><trkpt lat="45.75916065143156" lon="11.20792418255169"><ele>698.0</ele><time>2026-04-04T14:27:51.998Z</time></trkpt><trkpt lat="45.75920640006998" lon="11.207843564256624"><ele>698.0</ele><time>2026-04-04T14:27:52.998Z</time></trkpt><trkpt lat="45.75918632203722" lon="11.207657836831661"><ele>698.0</ele><time>2026-04-04T14:27:54.998Z</time></trkpt><trkpt lat="45.75913599908982" lon="11.207555315556071"><ele>698.0</ele><time>2026-04-04T14:27:55.998Z</time></trkpt><trkpt lat="45.75906716715618" lon="11.20749355519268"><ele>698.0</ele><time>2026-04-04T14:27:57.998Z</time></trkpt><trkpt lat="45.75902370001941" lon="11.207362660199225"><ele>698.0</ele><time>2026-04-04T14:27:58.998Z</time></trkpt><trkpt lat="45.75898318917762" lon="11.207251427770636"><ele>700.8</ele><time>2026-04-04T14:27:59.998Z</time></trkpt><trkpt lat="45.75894309223415" lon="11.207070307415677"><ele>703.5999999999999</ele><time>2026-04-04T14:28:01.998Z</time></trkpt><trkpt lat="45.75892359156518" lon="11.206981219446437"><ele>706.4000000000001</ele><time>2026-04-04T14:28:02.998Z</time></trkpt><trkpt lat="45.75889128484296" lon="11.206824068555767"><ele>709.2</ele><time>2026-04-04T14:28:04.998Z</time></trkpt><trkpt lat="45.75882280472968" lon="11.206781972090809"><ele>712.0</ele><time>2026-04-04T14:28:06.998Z</time></trkpt><trkpt lat="45.758716730502144" lon="11.20688823487985"><ele>712.0</ele><time>2026-04-04T14:28:08.998Z</time></trkpt><trkpt lat="45.75865021086055" lon="11.206922372781634"><ele>712.0</ele><time>2026-04-04T14:28:09.998Z</time></trkpt><trkpt lat="45.75857583907527" lon="11.2069574885582"><ele>712.0</ele><time>2026-04-04T14:28:10.998Z</time></trkpt><trkpt lat="45.75850982826935" lon="11.206993050498463"><ele>712.0</ele><time>2026-04-04T14:28:11.998Z</time></trkpt><trkpt lat="45.758406388226184" lon="11.20701781785955"><ele>712.0</ele><time>2026-04-04T14:28:13.998Z</time></trkpt><trkpt lat="45.758339575638054" lon="11.206959593219569"><ele>712.0</ele><time>2026-04-04T14:28:15.998Z</time></trkpt><trkpt lat="45.75827954435353" lon="11.206899745448263"><ele>715.8</ele><time>2026-04-04T14:28:19Z</time></trkpt><trkpt lat="45.75820826180395" lon="11.206906647439652"><ele>719.6</ele><time>2026-04-04T14:28:21Z</time></trkpt><trkpt lat="45.7581135170572" lon="11.2069779369932"><ele>723.4</ele><time>2026-04-04T14:28:24Z</time></trkpt><trkpt lat="45.758078688498465" lon="11.207113783530856"><ele>727.1999999999999</ele><time>2026-04-04T14:28:26Z</time></trkpt><trkpt lat="45.75801474752796" lon="11.207201227298523"><ele>731.0</ele><time>2026-04-04T14:28:28Z</time></trkpt><trkpt lat="45.75788159002191" lon="11.207201456977197"><ele>731.0</ele><time>2026-04-04T14:28:30Z</time></trkpt><trkpt lat="45.757812205548056" lon="11.207204312563135"><ele>731.0</ele><time>2026-04-04T14:28:31Z</time></trkpt><trkpt lat="45.75772055857992" lon="11.207222709331546"><ele>731.0</ele><time>2026-04-04T14:28:33Z</time></trkpt><trkpt lat="45.757658249142985" lon="11.207250767664387"><ele>731.0</ele><time>2026-04-04T14:28:34Z</time></trkpt><trkpt lat="45.757563262079316" lon="11.207322236382613"><ele>731.0</ele><time>2026-04-04T14:28:36Z</time></trkpt><trkpt lat="45.75746085061509" lon="11.207403417606772"><ele>736.4</ele><time>2026-04-04T14:28:38Z</time></trkpt><trkpt lat="45.757377947584665" lon="11.207431130564288"><ele>741.8</ele><time>2026-04-04T14:28:39Z</time></trkpt><trkpt lat="45.7572581298161" lon="11.207395443561419"><ele>747.1999999999999</ele><time>2026-04-04T14:28:40Z</time></trkpt><trkpt lat="45.75718517822847" lon="11.207379362619292"><ele>752.5999999999999</ele><time>2026-04-04T14:28:41Z</time></trkpt><trkpt lat="45.75710662142931" lon="11.207338142088943"><ele>758.0</ele><time>2026-04-04T14:28:42Z</time></trkpt><trkpt lat="45.75700327034108" lon="11.207253659311995"><ele>758.0</ele><time>2026-04-04T14:28:43Z</time></trkpt><trkpt lat="45.75692842329677" lon="11.207193992800836"><ele>758.0</ele><time>2026-04-04T14:28:44Z</time></trkpt><trkpt lat="45.75690627719294" lon="11.207329064781582"><ele>758.0</ele><time>2026-04-04T14:28:48Z</time></trkpt><trkpt lat="45.756926116105404" lon="11.207440289448515"><ele>758.0</ele><time>2026-04-04T14:28:49Z</time></trkpt><trkpt lat="45.7569470380459" lon="11.207576042505108"><ele>758.0</ele><time>2026-04-04T14:28:50Z</time></trkpt><trkpt lat="45.75698473661687" lon="11.207710943397313"><ele>758.2</ele><time>2026-04-04T14:28:51Z</time></trkpt><trkpt lat="45.757023716628204" lon="11.207820205967181"><ele>758.4</ele><time>2026-04-04T14:28:52Z</time></trkpt><trkpt lat="45.75706962734611" lon="11.207936571240294"><ele>758.6</ele><time>2026-04-04T14:28:53Z</time></trkpt><trkpt lat="45.7570703734268" lon="11.208041485868234"><ele>758.8000000000001</ele><time>2026-04-04T14:28:54Z</time></trkpt><trkpt lat="45.757082656483504" lon="11.20820134131368"><ele>759.0</ele><time>2026-04-04T14:28:55Z</time></trkpt><trkpt lat="45.757102837520286" lon="11.208405845214841"><ele>760.4000000000001</ele><time>2026-04-04T14:28:56Z</time></trkpt><trkpt lat="45.75712452268379" lon="11.208609772831096"><ele>761.8</ele><time>2026-04-04T14:28:57Z</time></trkpt><trkpt lat="45.7571424831564" lon="11.208763570289495"><ele>763.2</ele><time>2026-04-04T14:28:58Z</time></trkpt><trkpt lat="45.7571721039714" lon="11.20887740477725"><ele>764.5999999999999</ele><time>2026-04-04T14:28:58.999Z</time></trkpt><trkpt lat="45.757166893298546" lon="11.208988143505644"><ele>766.0</ele><time>2026-04-04T14:28:59.999Z</time></trkpt><trkpt lat="45.757150438069104" lon="11.209123454966692"><ele>766.1999999999999</ele><time>2026-04-04T14:29:01.999Z</time></trkpt><trkpt lat="45.75707161739249" lon="11.20920562991975"><ele>766.4</ele><time>2026-04-04T14:29:03.999Z</time></trkpt><trkpt lat="45.75694929645326" lon="11.209286787501876"><ele>766.6</ele><time>2026-04-04T14:29:05.999Z</time></trkpt><trkpt lat="45.75688728072346" lon="11.209313501509577"><ele>766.8</ele><time>2026-04-04T14:29:06.999Z</time></trkpt><trkpt lat="45.75680788351866" lon="11.20933061349116"><ele>767.0</ele><time>2026-04-04T14:29:07.999Z</time></trkpt><trkpt lat="45.75668095599683" lon="11.209299229826266"><ele>770.0</ele><time>2026-04-04T14:29:09.999Z</time></trkpt><trkpt lat="45.75657906730342" lon="11.209227477017954"><ele>773.0</ele><time>2026-04-04T14:29:11.999Z</time></trkpt><trkpt lat="45.75652131066133" lon="11.209175132745195"><ele>776.0</ele><time>2026-04-04T14:29:12.999Z</time></trkpt><trkpt lat="45.75644104171734" lon="11.209122192874911"><ele>779.0</ele><time>2026-04-04T14:29:14.999Z</time></trkpt><trkpt lat="45.756502331418915" lon="11.209143983848744"><ele>782.0000000000001</ele><time>2026-04-04T14:29:26.999Z</time></trkpt><trkpt lat="45.75649309135138" lon="11.20927148552948"><ele>785.0</ele><time>2026-04-04T14:29:28.999Z</time></trkpt><trkpt lat="45.75642841088875" lon="11.209241548078172"><ele>785.0</ele><time>2026-04-04T14:37:31.999Z</time></trkpt><trkpt lat="45.756385189689276" lon="11.209143595603692"><ele>785.0</ele><time>2026-04-04T14:37:34.999Z</time></trkpt><trkpt lat="45.75631090076138" lon="11.209068041514112"><ele>785.0</ele><time>2026-04-04T14:37:36.999Z</time></trkpt><trkpt lat="45.75621084936867" lon="11.20903270061236"><ele>785.0</ele><time>2026-04-04T14:37:38.999Z</time></trkpt><trkpt lat="45.756114883491854" lon="11.208993715296872"><ele>785.0</ele><time>2026-04-04T14:37:40.999Z</time></trkpt><trkpt lat="45.75597929068337" lon="11.208980577580888"><ele>787.8</ele><time>2026-04-04T14:37:42.999Z</time></trkpt><trkpt lat="45.755891026323184" lon="11.208980589009796"><ele>790.6</ele><time>2026-04-04T14:37:43.999Z</time></trkpt><trkpt lat="45.755788525726636" lon="11.208968906917592"><ele>793.4000000000001</ele><time>2026-04-04T14:37:44.999Z</time></trkpt><trkpt lat="45.75568589126261" lon="11.208935185414399"><ele>796.2</ele><time>2026-04-04T14:37:45.999Z</time></trkpt><trkpt lat="45.75559184615013" lon="11.208902754822095"><ele>799.0</ele><time>2026-04-04T14:37:46.999Z</time></trkpt><trkpt lat="45.75552362311027" lon="11.208857255572006"><ele>798.9999999999999</ele><time>2026-04-04T14:37:47.999Z</time></trkpt><trkpt lat="45.75548066747288" lon="11.208781175827115"><ele>799.0</ele><time>2026-04-04T14:37:48.999Z</time></trkpt><trkpt lat="45.755447451719" lon="11.208660734125113"><ele>799.0</ele><time>2026-04-04T14:37:49.999Z</time></trkpt><trkpt lat="45.75541872856913" lon="11.208519531826916"><ele>799.0</ele><time>2026-04-04T14:37:50.999Z</time></trkpt><trkpt lat="45.75537517635602" lon="11.208386157222044"><ele>798.9999999999999</ele><time>2026-04-04T14:37:51.999Z</time></trkpt><trkpt lat="45.75533577522226" lon="11.208283600808999"><ele>799.0</ele><time>2026-04-04T14:37:52.999Z</time></trkpt><trkpt lat="45.75530806908783" lon="11.208189310194161"><ele>802.2</ele><time>2026-04-04T14:37:53.999Z</time></trkpt><trkpt lat="45.75532111711054" lon="11.208071966075183"><ele>805.4000000000001</ele><time>2026-04-04T14:37:54.999Z</time></trkpt><trkpt lat="45.755333328252675" lon="11.207941967293598"><ele>808.6</ele><time>2026-04-04T14:37:55.999Z</time></trkpt><trkpt lat="45.75533941492082" lon="11.207806894414707"><ele>811.8</ele><time>2026-04-04T14:37:56.999Z</time></trkpt><trkpt lat="45.75530751841874" lon="11.207658699022083"><ele>815.0</ele><time>2026-04-04T14:37:57.999Z</time></trkpt><trkpt lat="45.75527409254049" lon="11.207506953225872"><ele>815.0</ele><time>2026-04-04T14:37:58.999Z</time></trkpt><trkpt lat="45.75522272182092" lon="11.207366656159364"><ele>815.0</ele><time>2026-04-04T14:37:59.999Z</time></trkpt><trkpt lat="45.75517074411891" lon="11.207247491941997"><ele>815.0</ele><time>2026-04-04T14:38:00.999Z</time></trkpt><trkpt lat="45.75510790436883" lon="11.207141977520067"><ele>815.0</ele><time>2026-04-04T14:38:01.999Z</time></trkpt><trkpt lat="45.75506754406238" lon="11.207040687551517"><ele>815.0</ele><time>2026-04-04T14:38:02.999Z</time></trkpt><trkpt lat="45.755055535644416" lon="11.206912956125706"><ele>816.6666666666667</ele><time>2026-04-04T14:38:03.999Z</time></trkpt><trkpt lat="45.7550294329266" lon="11.206788872112561"><ele>818.3333333333334</ele><time>2026-04-04T14:38:04.999Z</time></trkpt><trkpt lat="45.755006939141445" lon="11.206702100456274"><ele>820.0</ele><time>2026-04-04T14:38:05.999Z</time></trkpt><trkpt lat="45.754941023412066" lon="11.206628182697264"><ele>821.6666666666667</ele><time>2026-04-04T14:38:06.999Z</time></trkpt><trkpt lat="45.75485772724279" lon="11.20659354683842"><ele>823.3333333333334</ele><time>2026-04-04T14:38:07.999Z</time></trkpt><trkpt lat="45.75475507591377" lon="11.206579159293208"><ele>825.0</ele><time>2026-04-04T14:38:08.999Z</time></trkpt><trkpt lat="45.75467639275326" lon="11.206520298670615"><ele>831.6</ele><time>2026-04-04T14:38:09.999Z</time></trkpt><trkpt lat="45.75458670711447" lon="11.206417241406829"><ele>838.2</ele><time>2026-04-04T14:38:10.999Z</time></trkpt><trkpt lat="45.754487455137024" lon="11.206309781175745"><ele>844.8</ele><time>2026-04-04T14:38:11.999Z</time></trkpt><trkpt lat="45.75442357223883" lon="11.206210556900535"><ele>851.4</ele><time>2026-04-04T14:38:12.999Z</time></trkpt><trkpt lat="45.75439681192437" lon="11.206112939365621"><ele>858.0</ele><time>2026-04-04T14:38:13.999Z</time></trkpt><trkpt lat="45.754387356715284" lon="11.206013246943614"><ele>858.0</ele><time>2026-04-04T14:38:14.999Z</time></trkpt><trkpt lat="45.75437290093328" lon="11.205853924280161"><ele>858.0</ele><time>2026-04-04T14:38:15.999Z</time></trkpt><trkpt lat="45.75433754564846" lon="11.20568993684858"><ele>858.0</ele><time>2026-04-04T14:38:16.999Z</time></trkpt><trkpt lat="45.75428829470208" lon="11.205572265414139"><ele>858.0</ele><time>2026-04-04T14:38:17.999Z</time></trkpt><trkpt lat="45.75423320185348" lon="11.205486256312609"><ele>858.0</ele><time>2026-04-04T14:38:19.999Z</time></trkpt><trkpt lat="45.75414259575783" lon="11.205606372614044"><ele>855.5999999999999</ele><time>2026-04-04T14:38:21.999Z</time></trkpt><trkpt lat="45.75410368145652" lon="11.205748246069492"><ele>853.1999999999999</ele><time>2026-04-04T14:38:22.999Z</time></trkpt><trkpt lat="45.75404771501524" lon="11.20586536849275"><ele>850.8</ele><time>2026-04-04T14:38:23.999Z</time></trkpt><trkpt lat="45.75396622852089" lon="11.205939149482457"><ele>848.4</ele><time>2026-04-04T14:38:24.999Z</time></trkpt><trkpt lat="45.75386391038921" lon="11.206015173475562"><ele>846.0</ele><time>2026-04-04T14:38:25.999Z</time></trkpt><trkpt lat="45.753753712439455" lon="11.206153195850293"><ele>846.0</ele><time>2026-04-04T14:38:26.999Z</time></trkpt><trkpt lat="45.753672271397214" lon="11.206321778306199"><ele>846.0</ele><time>2026-04-04T14:38:27.999Z</time></trkpt><trkpt lat="45.753628755573615" lon="11.206418870145505"><ele>846.0</ele><time>2026-04-04T14:38:28.998Z</time></trkpt><trkpt lat="45.75360511630333" lon="11.206515472256308"><ele>846.0</ele><time>2026-04-04T14:38:29.998Z</time></trkpt><trkpt lat="45.753589558449896" lon="11.206640636166561"><ele>846.0</ele><time>2026-04-04T14:38:31.998Z</time></trkpt><trkpt lat="45.753492297939154" lon="11.206769081597656"><ele>848.1666666666666</ele><time>2026-04-04T14:38:33.998Z</time></trkpt><trkpt lat="45.753427312367336" lon="11.206834174049302"><ele>850.3333333333333</ele><time>2026-04-04T14:38:34.998Z</time></trkpt><trkpt lat="45.753378690312736" lon="11.206893930090478"><ele>852.5</ele><time>2026-04-04T14:38:35.998Z</time></trkpt><trkpt lat="45.75335374892372" lon="11.206977765008514"><ele>854.6666666666666</ele><time>2026-04-04T14:38:36.998Z</time></trkpt><trkpt lat="45.75331521639645" lon="11.207078037681269"><ele>856.8333333333333</ele><time>2026-04-04T14:38:37.998Z</time></trkpt><trkpt lat="45.75326637921407" lon="11.20719671049405"><ele>859.0</ele><time>2026-04-04T14:38:38.998Z</time></trkpt><trkpt lat="45.75321370499243" lon="11.2072718552642"><ele>852.25</ele><time>2026-04-04T14:38:39.998Z</time></trkpt><trkpt lat="45.753110162131335" lon="11.207358016486788"><ele>845.5</ele><time>2026-04-04T14:38:40.998Z</time></trkpt><trkpt lat="45.75300991196122" lon="11.207462756044547"><ele>838.75</ele><time>2026-04-04T14:38:41.998Z</time></trkpt><trkpt lat="45.752915700233935" lon="11.207561976530007"><ele>832.0</ele><time>2026-04-04T14:38:42.998Z</time></trkpt><trkpt lat="45.75284270236453" lon="11.207671671682665"><ele>831.9999999999999</ele><time>2026-04-04T14:38:43.998Z</time></trkpt><trkpt lat="45.752790591955" lon="11.20780412172596"><ele>832.0</ele><time>2026-04-04T14:38:44.998Z</time></trkpt><trkpt lat="45.75277706452783" lon="11.207931170636236"><ele>832.0</ele><time>2026-04-04T14:38:45.998Z</time></trkpt><trkpt lat="45.752788349494104" lon="11.208047035665286"><ele>832.0</ele><time>2026-04-04T14:38:47Z</time></trkpt><trkpt lat="45.752821433236534" lon="11.208158673764878"><ele>831.9999999999999</ele><time>2026-04-04T14:38:48Z</time></trkpt><trkpt lat="45.75283818805141" lon="11.208257681114764"><ele>832.0</ele><time>2026-04-04T14:38:49Z</time></trkpt><trkpt lat="45.75279629976327" lon="11.208468096385683"><ele>833.2</ele><time>2026-04-04T14:38:51Z</time></trkpt><trkpt lat="45.75273546838259" lon="11.208594579209679"><ele>834.4000000000001</ele><time>2026-04-04T14:38:52Z</time></trkpt><trkpt lat="45.75266982847219" lon="11.208714927630949"><ele>835.5999999999999</ele><time>2026-04-04T14:38:53Z</time></trkpt><trkpt lat="45.752613403375456" lon="11.20879982757587"><ele>836.8</ele><time>2026-04-04T14:38:55Z</time></trkpt><trkpt lat="45.75250867047677" lon="11.208726159018287"><ele>838.0</ele><time>2026-04-04T14:38:57Z</time></trkpt><trkpt lat="45.7524175057523" lon="11.208635226819847"><ele>838.0</ele><time>2026-04-04T14:38:58Z</time></trkpt><trkpt lat="45.752299818563756" lon="11.20853840033644"><ele>838.0</ele><time>2026-04-04T14:38:59Z</time></trkpt><trkpt lat="45.75219013584201" lon="11.208517662307306"><ele>838.0</ele><time>2026-04-04T14:39:00Z</time></trkpt><trkpt lat="45.75208697917053" lon="11.208516263747905"><ele>838.0</ele><time>2026-04-04T14:39:01Z</time></trkpt><trkpt lat="45.752009066120124" lon="11.208486158857815"><ele>838.0</ele><time>2026-04-04T14:39:02Z</time></trkpt><trkpt lat="45.751902563809665" lon="11.20846532813882"><ele>836.2</ele><time>2026-04-04T14:39:03Z</time></trkpt><trkpt lat="45.75179103316933" lon="11.208404957346657"><ele>834.4</ele><time>2026-04-04T14:39:04Z</time></trkpt><trkpt lat="45.75170515315312" lon="11.208371298482593"><ele>832.6</ele><time>2026-04-04T14:39:05Z</time></trkpt><trkpt lat="45.75162321607449" lon="11.208286639318242"><ele>830.8000000000001</ele><time>2026-04-04T14:39:07Z</time></trkpt><trkpt lat="45.75157999168083" lon="11.20816777896536"><ele>829.0</ele><time>2026-04-04T14:39:09Z</time></trkpt><trkpt lat="45.7515396941574" lon="11.208009356382059"><ele>829.0</ele><time>2026-04-04T14:39:11Z</time></trkpt><trkpt lat="45.75150053815605" lon="11.207889689121524"><ele>829.0</ele><time>2026-04-04T14:39:13Z</time></trkpt><trkpt lat="45.751487190850085" lon="11.207790355679027"><ele>829.0</ele><time>2026-04-04T14:39:15Z</time></trkpt><trkpt lat="45.7514668600524" lon="11.207672269793692"><ele>829.0</ele><time>2026-04-04T14:39:17Z</time></trkpt><trkpt lat="45.75144488949942" lon="11.207534897280848"><ele>829.0</ele><time>2026-04-04T14:39:19Z</time></trkpt><trkpt lat="45.75142247870436" lon="11.207386917588753"><ele>831.8000000000001</ele><time>2026-04-04T14:39:21Z</time></trkpt><trkpt lat="45.751401989743144" lon="11.207249891967583"><ele>834.6</ele><time>2026-04-04T14:39:23Z</time></trkpt><trkpt lat="45.751343591657815" lon="11.207134946687551"><ele>837.4</ele><time>2026-04-04T14:39:24Z</time></trkpt><trkpt lat="45.75129567401443" lon="11.206998257019825"><ele>840.2</ele><time>2026-04-04T14:39:25Z</time></trkpt><trkpt lat="45.75125490268882" lon="11.206839684597762"><ele>843.0</ele><time>2026-04-04T14:39:26Z</time></trkpt><trkpt lat="45.75120635668688" lon="11.20670764812249"><ele>843.0</ele><time>2026-04-04T14:39:27Z</time></trkpt><trkpt lat="45.75116299611789" lon="11.206595515978538"><ele>843.0</ele><time>2026-04-04T14:39:28Z</time></trkpt><trkpt lat="45.75112394528571" lon="11.206500292723055"><ele>843.0</ele><time>2026-04-04T14:39:29Z</time></trkpt><trkpt lat="45.75107736725444" lon="11.20640012680839"><ele>843.0</ele><time>2026-04-04T14:39:30Z</time></trkpt><trkpt lat="45.75102657809018" lon="11.20630533914688"><ele>843.0</ele><time>2026-04-04T14:39:31Z</time></trkpt><trkpt lat="45.750960135282455" lon="11.206190106161138"><ele>843.0</ele><time>2026-04-04T14:39:32Z</time></trkpt><trkpt lat="45.75088759239024" lon="11.206076318637946"><ele>841.75</ele><time>2026-04-04T14:39:32.999Z</time></trkpt><trkpt lat="45.750808934527385" lon="11.205956062271847"><ele>840.5</ele><time>2026-04-04T14:39:33.999Z</time></trkpt><trkpt lat="45.75072320847783" lon="11.205830693575495"><ele>839.25</ele><time>2026-04-04T14:39:34.999Z</time></trkpt><trkpt lat="45.75062786847529" lon="11.20570364465462"><ele>838.0</ele><time>2026-04-04T14:39:35.999Z</time></trkpt><trkpt lat="45.75051524681995" lon="11.205583026515649"><ele>838.0</ele><time>2026-04-04T14:39:36.999Z</time></trkpt><trkpt lat="45.75038902812364" lon="11.205497418790994"><ele>838.0</ele><time>2026-04-04T14:39:37.999Z</time></trkpt><trkpt lat="45.75028741547545" lon="11.2054592565428"><ele>838.0</ele><time>2026-04-04T14:39:38.999Z</time></trkpt><trkpt lat="45.75020606713786" lon="11.20542478406554"><ele>838.0</ele><time>2026-04-04T14:39:40.999Z</time></trkpt><trkpt lat="45.75017092167508" lon="11.20550336897954"><ele>838.0</ele><time>2026-04-04T14:39:43.999Z</time></trkpt><trkpt lat="45.75021933474565" lon="11.20570407914513"><ele>832.0</ele><time>2026-04-04T14:39:45.999Z</time></trkpt><trkpt lat="45.75027805956236" lon="11.20590991689863"><ele>826.0</ele><time>2026-04-04T14:39:46.999Z</time></trkpt><trkpt lat="45.750314558117275" lon="11.206101613738811"><ele>820.0</ele><time>2026-04-04T14:39:47.999Z</time></trkpt><trkpt lat="45.75031705731711" lon="11.20623911040353"><ele>814.0</ele><time>2026-04-04T14:39:48.999Z</time></trkpt><trkpt lat="45.75029855288159" lon="11.20633734334341"><ele>806.4000000000001</ele><time>2026-04-04T14:39:49.999Z</time></trkpt><trkpt lat="45.75018905219841" lon="11.206416370319934"><ele>798.8</ele><time>2026-04-04T14:39:51.999Z</time></trkpt><trkpt lat="45.750122380076164" lon="11.206436688297474"><ele>791.2</ele><time>2026-04-04T14:39:52.999Z</time></trkpt><trkpt lat="45.7500479143377" lon="11.206354280685328"><ele>783.5999999999999</ele><time>2026-04-04T14:39:53.999Z</time></trkpt><trkpt lat="45.74997642484253" lon="11.206175913696335"><ele>776.0</ele><time>2026-04-04T14:39:54.999Z</time></trkpt><trkpt lat="45.749840094960376" lon="11.206016762277603"><ele>776.0</ele><time>2026-04-04T14:39:55.999Z</time></trkpt><trkpt lat="45.74970357693039" lon="11.205850180215004"><ele>776.0</ele><time>2026-04-04T14:39:56.999Z</time></trkpt><trkpt lat="45.74960749628559" lon="11.20574666242356"><ele>776.0</ele><time>2026-04-04T14:39:57.999Z</time></trkpt><trkpt lat="45.7495419064373" lon="11.20569123237248"><ele>776.0</ele><time>2026-04-04T14:39:58.999Z</time></trkpt><trkpt lat="45.749476192603545" lon="11.205662445726336"><ele>776.0</ele><time>2026-04-04T14:39:59.999Z</time></trkpt><trkpt lat="45.749371349871545" lon="11.205735258996096"><ele>770.8333333333334</ele><time>2026-04-04T14:40:01.999Z</time></trkpt><trkpt lat="45.74934200351893" lon="11.205827170229123"><ele>765.6666666666667</ele><time>2026-04-04T14:40:02.999Z</time></trkpt><trkpt lat="45.74932768405763" lon="11.20596747216878"><ele>760.5</ele><time>2026-04-04T14:40:03.999Z</time></trkpt><trkpt lat="45.74931870877849" lon="11.206090538954726"><ele>755.3333333333334</ele><time>2026-04-04T14:40:04.999Z</time></trkpt><trkpt lat="45.74931073935276" lon="11.206206260618504"><ele>750.1666666666667</ele><time>2026-04-04T14:40:05.999Z</time></trkpt><trkpt lat="45.7493010697838" lon="11.206326493162525"><ele>745.0</ele><time>2026-04-04T14:40:06.999Z</time></trkpt><trkpt lat="45.749287957000575" lon="11.206439569590174"><ele>743.7142857142857</ele><time>2026-04-04T14:40:07.999Z</time></trkpt><trkpt lat="45.74927579515138" lon="11.206544445780047"><ele>742.4285714285713</ele><time>2026-04-04T14:40:08.999Z</time></trkpt><trkpt lat="45.74926673988456" lon="11.206635997539813"><ele>741.1428571428571</ele><time>2026-04-04T14:40:09.999Z</time></trkpt><trkpt lat="45.7492748798401" lon="11.206725502692795"><ele>739.8571428571429</ele><time>2026-04-04T14:40:10.999Z</time></trkpt><trkpt lat="45.749261860036825" lon="11.206813815746175"><ele>738.5714285714286</ele><time>2026-04-04T14:40:11.999Z</time></trkpt><trkpt lat="45.7492572856626" lon="11.206905517007026"><ele>737.2857142857143</ele><time>2026-04-04T14:40:12.999Z</time></trkpt><trkpt lat="45.74922580590771" lon="11.207059605523288"><ele>736.0</ele><time>2026-04-04T14:40:14.999Z</time></trkpt><trkpt lat="45.74915267383214" lon="11.20716749258398"><ele>736.0</ele><time>2026-04-04T14:40:16.999Z</time></trkpt><trkpt lat="45.74906559766888" lon="11.207306104186486"><ele>736.0</ele><time>2026-04-04T14:40:18.999Z</time></trkpt><trkpt lat="45.7490137178982" lon="11.207391574688863"><ele>736.0</ele><time>2026-04-04T14:40:19.999Z</time></trkpt><trkpt lat="45.748964263675504" lon="11.207473049166856"><ele>736.0</ele><time>2026-04-04T14:40:20.999Z</time></trkpt><trkpt lat="45.7489191902486" lon="11.207547043132427"><ele>736.0</ele><time>2026-04-04T14:40:21.999Z</time></trkpt><trkpt lat="45.74884770463307" lon="11.207675481760482"><ele>735.5999999999999</ele><time>2026-04-04T14:40:23.999Z</time></trkpt><trkpt lat="45.7487839716351" lon="11.207827718934425"><ele>735.2</ele><time>2026-04-04T14:40:25.999Z</time></trkpt><trkpt lat="45.74872474408219" lon="11.207877151015552"><ele>734.8</ele><time>2026-04-04T14:40:27.999Z</time></trkpt><trkpt lat="45.74871486930318" lon="11.207693138344226"><ele>734.4000000000001</ele><time>2026-04-04T14:40:29.999Z</time></trkpt><trkpt lat="45.74867858234037" lon="11.20754809418416"><ele>734.0</ele><time>2026-04-04T14:40:31.999Z</time></trkpt><trkpt lat="45.748684574977815" lon="11.20741548303055"><ele>734.3333333333333</ele><time>2026-04-04T14:40:33.999Z</time></trkpt><trkpt lat="45.748679598173204" lon="11.207283151092287"><ele>734.6666666666666</ele><time>2026-04-04T14:40:35.998Z</time></trkpt><trkpt lat="45.7486790882493" lon="11.20713116218427"><ele>735.0</ele><time>2026-04-04T14:40:38.998Z</time></trkpt><trkpt lat="45.74862077940032" lon="11.207035513001916"><ele>735.3333333333334</ele><time>2026-04-04T14:40:39.998Z</time></trkpt><trkpt lat="45.74857021232055" lon="11.20696505177003"><ele>735.6666666666667</ele><time>2026-04-04T14:40:40.998Z</time></trkpt><trkpt lat="45.748552294526895" lon="11.206876415048901"><ele>736.0</ele><time>2026-04-04T14:40:41.998Z</time></trkpt><trkpt lat="45.748526490759104" lon="11.206791590048615"><ele>737.8</ele><time>2026-04-04T14:40:42.998Z</time></trkpt><trkpt lat="45.74850216415652" lon="11.206691662132789"><ele>739.5999999999999</ele><time>2026-04-04T14:40:43.998Z</time></trkpt><trkpt lat="45.74849812653606" lon="11.206598152314752"><ele>741.4</ele><time>2026-04-04T14:40:44.998Z</time></trkpt><trkpt lat="45.74846618032736" lon="11.206459554112417"><ele>743.2</ele><time>2026-04-04T14:40:46.998Z</time></trkpt><trkpt lat="45.74844552570885" lon="11.206367632855782"><ele>745.0</ele><time>2026-04-04T14:40:48.998Z</time></trkpt><trkpt lat="45.7485908271214" lon="11.206211656377228"><ele>745.0</ele><time>2026-04-04T14:40:50.998Z</time></trkpt><trkpt lat="45.748654651997086" lon="11.206089379841982"><ele>745.0</ele><time>2026-04-04T14:40:53Z</time></trkpt><trkpt lat="45.74862319508094" lon="11.205942667655147"><ele>745.0</ele><time>2026-04-04T14:40:55Z</time></trkpt><trkpt lat="45.74856396842597" lon="11.205876958626291"><ele>745.0</ele><time>2026-04-04T14:40:56Z</time></trkpt><trkpt lat="45.74849761185259" lon="11.205834552888184"><ele>745.0</ele><time>2026-04-04T14:40:57Z</time></trkpt><trkpt lat="45.7484322431169" lon="11.20579102422427"><ele>745.0</ele><time>2026-04-04T14:40:58Z</time></trkpt><trkpt lat="45.748389508827735" lon="11.205722306391522"><ele>743.8333333333334</ele><time>2026-04-04T14:40:59Z</time></trkpt><trkpt lat="45.748357702513694" lon="11.20564276454626"><ele>742.6666666666667</ele><time>2026-04-04T14:41:00Z</time></trkpt><trkpt lat="45.7483352518716" lon="11.205552468829223"><ele>741.5</ele><time>2026-04-04T14:41:01Z</time></trkpt><trkpt lat="45.748305279393904" lon="11.20544817529738"><ele>740.3333333333334</ele><time>2026-04-04T14:41:02Z</time></trkpt><trkpt lat="45.748256382257196" lon="11.205363807903685"><ele>739.1666666666666</ele><time>2026-04-04T14:41:03Z</time></trkpt><trkpt lat="45.74818889212452" lon="11.205304178417737"><ele>738.0</ele><time>2026-04-04T14:41:04Z</time></trkpt><trkpt lat="45.74808689258309" lon="11.205255884401769"><ele>738.0</ele><time>2026-04-04T14:41:05Z</time></trkpt><trkpt lat="45.747974723939514" lon="11.205223173708251"><ele>738.0</ele><time>2026-04-04T14:41:06Z</time></trkpt><trkpt lat="45.74786823303616" lon="11.20520634750748"><ele>738.0</ele><time>2026-04-04T14:41:07Z</time></trkpt><trkpt lat="45.74778618002602" lon="11.205219739212888"><ele>738.0</ele><time>2026-04-04T14:41:08Z</time></trkpt><trkpt lat="45.74770967753101" lon="11.2052745828297"><ele>738.0</ele><time>2026-04-04T14:41:09Z</time></trkpt><trkpt lat="45.747666327225595" lon="11.20536396754361"><ele>738.75</ele><time>2026-04-04T14:41:10Z</time></trkpt><trkpt lat="45.74758397168139" lon="11.205500733"><ele>739.5</ele><time>2026-04-04T14:41:11Z</time></trkpt><trkpt lat="45.7474840504342" lon="11.20561447476191"><ele>740.25</ele><time>2026-04-04T14:41:12Z</time></trkpt><trkpt lat="45.747406196347875" lon="11.205720419590374"><ele>741.0</ele><time>2026-04-04T14:41:13Z</time></trkpt><trkpt lat="45.74731862214757" lon="11.205822971540096"><ele>734.75</ele><time>2026-04-04T14:41:14Z</time></trkpt><trkpt lat="45.747226782737236" lon="11.205933985990738"><ele>728.5</ele><time>2026-04-04T14:41:15Z</time></trkpt><trkpt lat="45.74716359466947" lon="11.206063597755044"><ele>722.25</ele><time>2026-04-04T14:41:16Z</time></trkpt><trkpt lat="45.74707210499102" lon="11.206161140920742"><ele>716.0</ele><time>2026-04-04T14:41:17Z</time></trkpt><trkpt lat="45.746975467697546" lon="11.206279316689487"><ele>716.0</ele><time>2026-04-04T14:41:18Z</time></trkpt><trkpt lat="45.746895727419044" lon="11.206382129941193"><ele>716.0</ele><time>2026-04-04T14:41:19Z</time></trkpt><trkpt lat="45.74683685249033" lon="11.206483386469912"><ele>716.0</ele><time>2026-04-04T14:41:20Z</time></trkpt><trkpt lat="45.74677332879007" lon="11.20662343620838"><ele>716.0</ele><time>2026-04-04T14:41:21Z</time></trkpt><trkpt lat="45.74669208043742" lon="11.206705789783213"><ele>716.0</ele><time>2026-04-04T14:41:22Z</time></trkpt><trkpt lat="45.746611031499995" lon="11.206803649025543"><ele>717.0</ele><time>2026-04-04T14:41:23Z</time></trkpt><trkpt lat="45.746541050381545" lon="11.20692121284483"><ele>718.0</ele><time>2026-04-04T14:41:24Z</time></trkpt><trkpt lat="45.7464823878841" lon="11.20704864128815"><ele>719.0</ele><time>2026-04-04T14:41:25Z</time></trkpt><trkpt lat="45.74643549413675" lon="11.207184594519381"><ele>720.0</ele><time>2026-04-04T14:41:26Z</time></trkpt><trkpt lat="45.7463948251348" lon="11.207291531124971"><ele>721.0</ele><time>2026-04-04T14:41:27Z</time></trkpt><trkpt lat="45.74634494614748" lon="11.207365216522376"><ele>713.75</ele><time>2026-04-04T14:41:28Z</time></trkpt><trkpt lat="45.74623759820776" lon="11.20744574113954"><ele>706.5</ele><time>2026-04-04T14:41:29Z</time></trkpt><trkpt lat="45.74613095168482" lon="11.20752938364961"><ele>699.25</ele><time>2026-04-04T14:41:30Z</time></trkpt><trkpt lat="45.74602305993442" lon="11.207632673478807"><ele>692.0</ele><time>2026-04-04T14:41:31Z</time></trkpt><trkpt lat="45.745946311661584" lon="11.207716935870913"><ele>692.0</ele><time>2026-04-04T14:41:32Z</time></trkpt><trkpt lat="45.745858154212854" lon="11.207782419839274"><ele>692.0</ele><time>2026-04-04T14:41:34Z</time></trkpt><trkpt lat="45.74577595509919" lon="11.207750437956879"><ele>692.0</ele><time>2026-04-04T14:41:35Z</time></trkpt><trkpt lat="45.74565550200815" lon="11.207718487278203"><ele>692.0</ele><time>2026-04-04T14:41:35.999Z</time></trkpt><trkpt lat="45.745550868461294" lon="11.207732022293557"><ele>692.0</ele><time>2026-04-04T14:41:36.999Z</time></trkpt><trkpt lat="45.74549469393567" lon="11.207793059457078"><ele>692.0</ele><time>2026-04-04T14:41:37.999Z</time></trkpt><trkpt lat="45.74540661856863" lon="11.207826013984524"><ele>692.0</ele><time>2026-04-04T14:41:39.999Z</time></trkpt><trkpt lat="45.74535670848945" lon="11.207688530569037"><ele>692.0</ele><time>2026-04-04T14:41:41.999Z</time></trkpt><trkpt lat="45.74525404947831" lon="11.207582843366303"><ele>692.0</ele><time>2026-04-04T14:41:42.999Z</time></trkpt><trkpt lat="45.745198378111134" lon="11.207429279661602"><ele>692.0</ele><time>2026-04-04T14:41:43.999Z</time></trkpt><trkpt lat="45.745166567373275" lon="11.207288894904792"><ele>691.0</ele><time>2026-04-04T14:41:44.999Z</time></trkpt><trkpt lat="45.74513746927135" lon="11.207148313046211"><ele>690.0</ele><time>2026-04-04T14:41:45.999Z</time></trkpt><trkpt lat="45.745094832736775" lon="11.20706836038758"><ele>689.0</ele><time>2026-04-04T14:41:46.999Z</time></trkpt><trkpt lat="45.74503424862848" lon="11.207033106040932"><ele>688.0</ele><time>2026-04-04T14:41:47.999Z</time></trkpt><trkpt lat="45.744952381472906" lon="11.206989343912188"><ele>687.0</ele><time>2026-04-04T14:41:48.999Z</time></trkpt><trkpt lat="45.7448678017193" lon="11.206928982642278"><ele>686.0</ele><time>2026-04-04T14:41:49.999Z</time></trkpt><trkpt lat="45.7447972511676" lon="11.206849446821881"><ele>686.0</ele><time>2026-04-04T14:41:50.999Z</time></trkpt><trkpt lat="45.744731887902034" lon="11.206742192423665"><ele>686.0</ele><time>2026-04-04T14:41:51.999Z</time></trkpt><trkpt lat="45.7446701105009" lon="11.20665106884681"><ele>686.0</ele><time>2026-04-04T14:41:52.999Z</time></trkpt><trkpt lat="45.74460176938584" lon="11.20661370386192"><ele>686.0</ele><time>2026-04-04T14:41:53.999Z</time></trkpt><trkpt lat="45.74453243840076" lon="11.206597036456659"><ele>686.0</ele><time>2026-04-04T14:41:54.999Z</time></trkpt><trkpt lat="45.74445590766418" lon="11.206567813869986"><ele>686.0</ele><time>2026-04-04T14:41:55.999Z</time></trkpt><trkpt lat="45.744404840766066" lon="11.206501304600513"><ele>680.1999999999999</ele><time>2026-04-04T14:41:56.999Z</time></trkpt><trkpt lat="45.744346205880795" lon="11.20639040339471"><ele>674.4</ele><time>2026-04-04T14:41:57.999Z</time></trkpt><trkpt lat="45.74428614106743" lon="11.206283859600441"><ele>668.6</ele><time>2026-04-04T14:41:58.999Z</time></trkpt><trkpt lat="45.74421101909634" lon="11.206188718099845"><ele>662.8</ele><time>2026-04-04T14:41:59.999Z</time></trkpt><trkpt lat="45.74413168323321" lon="11.206079826899293"><ele>657.0</ele><time>2026-04-04T14:42:00.999Z</time></trkpt><trkpt lat="45.7440693040899" lon="11.20597596431119"><ele>657.0</ele><time>2026-04-04T14:42:01.999Z</time></trkpt><trkpt lat="45.74403304341902" lon="11.205867486533323"><ele>657.0</ele><time>2026-04-04T14:42:02.999Z</time></trkpt><trkpt lat="45.74399600315828" lon="11.205785063038133"><ele>657.0</ele><time>2026-04-04T14:42:03.999Z</time></trkpt><trkpt lat="45.74392945076256" lon="11.205712355212462"><ele>657.0</ele><time>2026-04-04T14:42:05.999Z</time></trkpt><trkpt lat="45.74386471711665" lon="11.20579765782527"><ele>657.0</ele><time>2026-04-04T14:42:07.999Z</time></trkpt><trkpt lat="45.7437988218299" lon="11.20588816809771"><ele>657.0</ele><time>2026-04-04T14:42:08.999Z</time></trkpt><trkpt lat="45.74374408777056" lon="11.205992801114785"><ele>657.0</ele><time>2026-04-04T14:42:09.999Z</time></trkpt><trkpt lat="45.74366163013448" lon="11.20605752890364"><ele>657.0</ele><time>2026-04-04T14:42:10.999Z</time></trkpt><trkpt lat="45.74361949861992" lon="11.206142166291814"><ele>657.0</ele><time>2026-04-04T14:42:11.999Z</time></trkpt><trkpt lat="45.743584362724135" lon="11.206253277930523"><ele>657.0</ele><time>2026-04-04T14:42:12.999Z</time></trkpt><trkpt lat="45.74353188626428" lon="11.206312378544338"><ele>657.0</ele><time>2026-04-04T14:42:13.999Z</time></trkpt><trkpt lat="45.74343934567457" lon="11.20637381421279"><ele>657.0</ele><time>2026-04-04T14:42:14.999Z</time></trkpt><trkpt lat="45.74337088447545" lon="11.20647482137549"><ele>654.2</ele><time>2026-04-04T14:42:15.999Z</time></trkpt><trkpt lat="45.743324248831605" lon="11.206538252496046"><ele>651.4000000000001</ele><time>2026-04-04T14:42:16.999Z</time></trkpt><trkpt lat="45.743209056299605" lon="11.206610714706729"><ele>648.5999999999999</ele><time>2026-04-04T14:42:18.999Z</time></trkpt><trkpt lat="45.743194839721646" lon="11.206756307704794"><ele>645.8</ele><time>2026-04-04T14:42:20.999Z</time></trkpt><trkpt lat="45.743206140897435" lon="11.206892524043239"><ele>643.0</ele><time>2026-04-04T14:42:21.999Z</time></trkpt><trkpt lat="45.743241254825186" lon="11.207091986703233"><ele>643.0</ele><time>2026-04-04T14:42:22.999Z</time></trkpt><trkpt lat="45.74324787463172" lon="11.207314427799558"><ele>643.0</ele><time>2026-04-04T14:42:23.999Z</time></trkpt><trkpt lat="45.7432891155956" lon="11.207473332697454"><ele>643.0</ele><time>2026-04-04T14:42:24.999Z</time></trkpt><trkpt lat="45.743377164704356" lon="11.207563162045258"><ele>643.0</ele><time>2026-04-04T14:42:25.999Z</time></trkpt><trkpt lat="45.74341626367047" lon="11.207707432520191"><ele>643.0</ele><time>2026-04-04T14:42:27.999Z</time></trkpt><trkpt lat="45.743439624023914" lon="11.207906625200168"><ele>643.0</ele><time>2026-04-04T14:42:28.999Z</time></trkpt><trkpt lat="45.743482503537166" lon="11.20806375353462"><ele>643.0</ele><time>2026-04-04T14:42:30.999Z</time></trkpt><trkpt lat="45.74350556981678" lon="11.208225488099005"><ele>643.0</ele><time>2026-04-04T14:42:31.999Z</time></trkpt><trkpt lat="45.743478849543926" lon="11.20842612535465"><ele>643.0</ele><time>2026-04-04T14:42:32.999Z</time></trkpt><trkpt lat="45.743414769242705" lon="11.208581510795078"><ele>643.0</ele><time>2026-04-04T14:42:33.999Z</time></trkpt><trkpt lat="45.743357150778365" lon="11.208748862605054"><ele>643.0</ele><time>2026-04-04T14:42:34.999Z</time></trkpt><trkpt lat="45.743291565841844" lon="11.208952753751054"><ele>643.0</ele><time>2026-04-04T14:42:35.999Z</time></trkpt><trkpt lat="45.74324912764174" lon="11.20906774992037"><ele>641.3333333333334</ele><time>2026-04-04T14:42:36.999Z</time></trkpt><trkpt lat="45.74318333081229" lon="11.209139359992898"><ele>639.6666666666667</ele><time>2026-04-04T14:42:37.999Z</time></trkpt><trkpt lat="45.743111426656306" lon="11.209166897407346"><ele>638.0</ele><time>2026-04-04T14:42:38.999Z</time></trkpt><trkpt lat="45.74304301588485" lon="11.20923501212611"><ele>636.3333333333334</ele><time>2026-04-04T14:42:39.999Z</time></trkpt><trkpt lat="45.743014167583574" lon="11.209339838792806"><ele>634.6666666666666</ele><time>2026-04-04T14:42:40.998Z</time></trkpt><trkpt lat="45.7430253973797" lon="11.209511239538582"><ele>633.0</ele><time>2026-04-04T14:42:42.998Z</time></trkpt><trkpt lat="45.74298763597061" lon="11.20960598510518"><ele>633.0</ele><time>2026-04-04T14:42:43.998Z</time></trkpt><trkpt lat="45.74290802334932" lon="11.209691462188097"><ele>633.0</ele><time>2026-04-04T14:42:44.998Z</time></trkpt><trkpt lat="45.74284359368612" lon="11.209838593513183"><ele>633.0</ele><time>2026-04-04T14:42:45.998Z</time></trkpt><trkpt lat="45.74279689263117" lon="11.210002697211776"><ele>633.0</ele><time>2026-04-04T14:42:46.998Z</time></trkpt><trkpt lat="45.742791814900315" lon="11.21014879489603"><ele>633.0</ele><time>2026-04-04T14:42:47.998Z</time></trkpt><trkpt lat="45.74278709139092" lon="11.210271613305348"><ele>630.0</ele><time>2026-04-04T14:42:48.998Z</time></trkpt><trkpt lat="45.742785444399345" lon="11.210429621262056"><ele>627.0</ele><time>2026-04-04T14:42:49.998Z</time></trkpt><trkpt lat="45.74274797299738" lon="11.210560757096818"><ele>624.0</ele><time>2026-04-04T14:42:50.998Z</time></trkpt><trkpt lat="45.742740655910914" lon="11.210714081030465"><ele>621.0</ele><time>2026-04-04T14:42:51.998Z</time></trkpt><trkpt lat="45.74274373009037" lon="11.210905197897768"><ele>620.0</ele><time>2026-04-04T14:42:52.998Z</time></trkpt><trkpt lat="45.74275760289248" lon="11.211047772503935"><ele>619.0</ele><time>2026-04-04T14:42:53.998Z</time></trkpt><trkpt lat="45.74277589473428" lon="11.211169261899016"><ele>618.0</ele><time>2026-04-04T14:42:54.998Z</time></trkpt><trkpt lat="45.74279540016291" lon="11.211286585714886"><ele>617.0</ele><time>2026-04-04T14:42:55.998Z</time></trkpt><trkpt lat="45.74283448712661" lon="11.211407048840378"><ele>616.0</ele><time>2026-04-04T14:42:58Z</time></trkpt><trkpt lat="45.742782077917035" lon="11.211486474462724"><ele>615.0</ele><time>2026-04-04T14:43:00Z</time></trkpt><trkpt lat="45.74269852671852" lon="11.211506406995833"><ele>622.4</ele><time>2026-04-04T14:43:02Z</time></trkpt><trkpt lat="45.74260107171088" lon="11.211450784655257"><ele>629.8</ele><time>2026-04-04T14:43:04Z</time></trkpt><trkpt lat="45.742515526060245" lon="11.211392094014226"><ele>637.2</ele><time>2026-04-04T14:43:05Z</time></trkpt><trkpt lat="45.74240742414595" lon="11.211333064016015"><ele>644.6</ele><time>2026-04-04T14:43:06Z</time></trkpt><trkpt lat="45.74230393808221" lon="11.211283046609122"><ele>652.0</ele><time>2026-04-04T14:43:07Z</time></trkpt><trkpt lat="45.742213479342325" lon="11.211234332832976"><ele>652.0</ele><time>2026-04-04T14:43:08Z</time></trkpt><trkpt lat="45.74213154686361" lon="11.211182309203723"><ele>652.0</ele><time>2026-04-04T14:43:09Z</time></trkpt><trkpt lat="45.742035395987884" lon="11.211131941183073"><ele>652.0</ele><time>2026-04-04T14:43:10Z</time></trkpt><trkpt lat="45.74195131623296" lon="11.211030920963815"><ele>652.0</ele><time>2026-04-04T14:43:11Z</time></trkpt><trkpt lat="45.74187913836963" lon="11.210892142292918"><ele>652.0</ele><time>2026-04-04T14:43:12Z</time></trkpt><trkpt lat="45.74183196212053" lon="11.210745082760537"><ele>652.0</ele><time>2026-04-04T14:43:13Z</time></trkpt><trkpt lat="45.74177969072497" lon="11.210658043739215"><ele>652.0</ele><time>2026-04-04T14:43:14Z</time></trkpt><trkpt lat="45.74170940056868" lon="11.21064602554276"><ele>652.0</ele><time>2026-04-04T14:43:15Z</time></trkpt><trkpt lat="45.7416091510528" lon="11.210686919780118"><ele>652.0</ele><time>2026-04-04T14:43:16Z</time></trkpt><trkpt lat="45.74148265189595" lon="11.210756016717617"><ele>652.0</ele><time>2026-04-04T14:43:17Z</time></trkpt><trkpt lat="45.741360096234416" lon="11.210787611145829"><ele>652.0</ele><time>2026-04-04T14:43:18Z</time></trkpt><trkpt lat="45.74129200162727" lon="11.210788506938616"><ele>652.0</ele><time>2026-04-04T14:43:19Z</time></trkpt><trkpt lat="45.741226117829065" lon="11.210734847022003"><ele>652.0</ele><time>2026-04-04T14:43:21Z</time></trkpt><trkpt lat="45.74128171300728" lon="11.21057009819737"><ele>652.0</ele><time>2026-04-04T14:43:22Z</time></trkpt><trkpt lat="45.74131510881162" lon="11.210384429621394"><ele>652.0</ele><time>2026-04-04T14:43:23Z</time></trkpt><trkpt lat="45.741363226927014" lon="11.210165494064036"><ele>653.75</ele><time>2026-04-04T14:43:24Z</time></trkpt><trkpt lat="45.741384801073785" lon="11.210050690722722"><ele>655.5</ele><time>2026-04-04T14:43:25Z</time></trkpt><trkpt lat="45.741380100827165" lon="11.209931793872503"><ele>657.25</ele><time>2026-04-04T14:43:30Z</time></trkpt><trkpt lat="45.741402285411475" lon="11.209824897202964"><ele>659.0</ele><time>2026-04-04T14:43:32Z</time></trkpt><trkpt lat="45.74119134793991" lon="11.209631266873883"><ele>657.0</ele><time>2026-04-04T14:43:34Z</time></trkpt><trkpt lat="45.74113047197028" lon="11.209462161666547"><ele>655.0</ele><time>2026-04-04T14:43:36Z</time></trkpt><trkpt lat="45.74110006060936" lon="11.209363576863968"><ele>653.0</ele><time>2026-04-04T14:43:37Z</time></trkpt><trkpt lat="45.74106893829584" lon="11.209273220907107"><ele>651.0</ele><time>2026-04-04T14:43:38Z</time></trkpt><trkpt lat="45.74100801242734" lon="11.209159345046835"><ele>649.0</ele><time>2026-04-04T14:43:39Z</time></trkpt><trkpt lat="45.74098374255471" lon="11.209058277245399"><ele>652.0</ele><time>2026-04-04T14:43:40Z</time></trkpt><trkpt lat="45.740951924342" lon="11.208949614210129"><ele>655.0</ele><time>2026-04-04T14:43:41Z</time></trkpt><trkpt lat="45.74084685103832" lon="11.208818100110108"><ele>658.0</ele><time>2026-04-04T14:43:42.999Z</time></trkpt><trkpt lat="45.74077739537893" lon="11.208727935264669"><ele>661.0</ele><time>2026-04-04T14:43:43.999Z</time></trkpt><trkpt lat="45.74070393444971" lon="11.20869735869272"><ele>664.0</ele><time>2026-04-04T14:43:44.999Z</time></trkpt><trkpt lat="45.74062883576356" lon="11.208692030996412"><ele>664.0</ele><time>2026-04-04T14:43:45.999Z</time></trkpt><trkpt lat="45.740546062405905" lon="11.208703178776267"><ele>664.0</ele><time>2026-04-04T14:43:47.999Z</time></trkpt><trkpt lat="45.7404754591907" lon="11.208584684626404"><ele>664.0</ele><time>2026-04-04T14:43:49.999Z</time></trkpt><trkpt lat="45.74042042213577" lon="11.208523917672343"><ele>664.0</ele><time>2026-04-04T14:44:01.999Z</time></trkpt><trkpt lat="45.74037908756025" lon="11.208404237100561"><ele>664.0</ele><time>2026-04-04T14:44:07.999Z</time></trkpt><trkpt lat="45.74037694110517" lon="11.20831305303031"><ele>664.0</ele><time>2026-04-04T14:44:12.999Z</time></trkpt><trkpt lat="45.74038729737706" lon="11.20818861785476"><ele>664.1428571428571</ele><time>2026-04-04T14:44:46.998Z</time></trkpt><trkpt lat="45.74037224519757" lon="11.208084602690821"><ele>664.2857142857143</ele><time>2026-04-04T14:44:51.998Z</time></trkpt><trkpt lat="45.740322114845" lon="11.208007953072626"><ele>664.4285714285714</ele><time>2026-04-04T14:45:01.998Z</time></trkpt><trkpt lat="45.740263478368085" lon="11.207970211739903"><ele>664.5714285714286</ele><time>2026-04-04T14:45:08Z</time></trkpt><trkpt lat="45.740214773037465" lon="11.207860107361087"><ele>664.7142857142858</ele><time>2026-04-04T14:45:11Z</time></trkpt><trkpt lat="45.740183646938554" lon="11.207779269977788"><ele>664.8571428571429</ele><time>2026-04-04T14:45:14Z</time></trkpt><trkpt lat="45.740139639464886" lon="11.207683347008912"><ele>665.0</ele><time>2026-04-04T14:45:16Z</time></trkpt><trkpt lat="45.740062591685245" lon="11.207585374294439"><ele>665.0</ele><time>2026-04-04T14:45:33Z</time></trkpt><trkpt lat="45.740086391127875" lon="11.20749781076208"><ele>665.0</ele><time>2026-04-04T14:45:41Z</time></trkpt><trkpt lat="45.740048585004715" lon="11.207389132685156"><ele>665.0</ele><time>2026-04-04T14:45:45Z</time></trkpt><trkpt lat="45.74004436015479" lon="11.207292299371728"><ele>665.0</ele><time>2026-04-04T14:45:47.999Z</time></trkpt><trkpt lat="45.74006539341704" lon="11.20710875347655"><ele>665.0</ele><time>2026-04-04T14:45:49.999Z</time></trkpt><trkpt lat="45.740046168678454" lon="11.20701110423309"><ele>665.0</ele><time>2026-04-04T14:45:51.999Z</time></trkpt><trkpt lat="45.739995942484136" lon="11.206947449340632"><ele>669.0</ele><time>2026-04-04T14:45:56.999Z</time></trkpt><trkpt lat="45.739924583976176" lon="11.206950576001569"><ele>673.0</ele><time>2026-04-04T14:45:58.999Z</time></trkpt><trkpt lat="45.73982622039503" lon="11.2068641817857"><ele>677.0</ele><time>2026-04-04T14:46:00.999Z</time></trkpt><trkpt lat="45.73978298511539" lon="11.206749009836042"><ele>681.0</ele><time>2026-04-04T14:46:02.999Z</time></trkpt><trkpt lat="45.73972564455748" lon="11.206666803849899"><ele>685.0</ele><time>2026-04-04T14:46:04.999Z</time></trkpt><trkpt lat="45.739644443871335" lon="11.206510573140571"><ele>689.8</ele><time>2026-04-04T14:46:06.999Z</time></trkpt><trkpt lat="45.739559963040215" lon="11.20637032533613"><ele>694.6</ele><time>2026-04-04T14:46:07.999Z</time></trkpt><trkpt lat="45.73951283142749" lon="11.2062944457962"><ele>699.4000000000001</ele><time>2026-04-04T14:46:08.999Z</time></trkpt><trkpt lat="45.73939988494361" lon="11.2061521588871"><ele>704.2</ele><time>2026-04-04T14:46:10.999Z</time></trkpt><trkpt lat="45.73948049871395" lon="11.206087174403972"><ele>709.0</ele><time>2026-04-04T14:46:13.999Z</time></trkpt><trkpt lat="45.73955815768571" lon="11.206136716901025"><ele>709.0</ele><time>2026-04-04T14:46:14.999Z</time></trkpt><trkpt lat="45.7396325317586" lon="11.206184630890235"><ele>709.0</ele><time>2026-04-04T14:46:15.999Z</time></trkpt><trkpt lat="45.7396379572178" lon="11.20604553981766"><ele>709.0</ele><time>2026-04-04T14:46:18.999Z</time></trkpt><trkpt lat="45.73957594806054" lon="11.20591171220263"><ele>709.0</ele><time>2026-04-04T14:46:19.999Z</time></trkpt><trkpt lat="45.73950619009382" lon="11.205743368319979"><ele>709.0</ele><time>2026-04-04T14:46:20.999Z</time></trkpt><trkpt lat="45.73943998253685" lon="11.205566037699432"><ele>708.25</ele><time>2026-04-04T14:46:21.999Z</time></trkpt><trkpt lat="45.73940494229357" lon="11.205407464849047"><ele>707.5</ele><time>2026-04-04T14:46:22.999Z</time></trkpt><trkpt lat="45.73937430121333" lon="11.205235908228849"><ele>706.75</ele><time>2026-04-04T14:46:23.999Z</time></trkpt><trkpt lat="45.739329391285615" lon="11.205042872573909"><ele>706.0</ele><time>2026-04-04T14:46:24.999Z</time></trkpt><trkpt lat="45.73927753517495" lon="11.204926397181334"><ele>710.1999999999999</ele><time>2026-04-04T14:46:25.999Z</time></trkpt><trkpt lat="45.739210838495985" lon="11.204826440459557"><ele>714.4</ele><time>2026-04-04T14:46:26.999Z</time></trkpt><trkpt lat="45.739121013731825" lon="11.204726316617887"><ele>718.6</ele><time>2026-04-04T14:46:27.999Z</time></trkpt><trkpt lat="45.73903063498461" lon="11.204647581337055"><ele>722.8</ele><time>2026-04-04T14:46:28.999Z</time></trkpt><trkpt lat="45.73897411002121" lon="11.204577543104362"><ele>727.0</ele><time>2026-04-04T14:46:29.999Z</time></trkpt><trkpt lat="45.738902221236366" lon="11.204475558614307"><ele>727.0</ele><time>2026-04-04T14:46:30.999Z</time></trkpt><trkpt lat="45.738806974807446" lon="11.204356461662265"><ele>727.0</ele><time>2026-04-04T14:46:31.999Z</time></trkpt><trkpt lat="45.738755746168366" lon="11.204292448967875"><ele>727.0</ele><time>2026-04-04T14:46:32.999Z</time></trkpt><trkpt lat="45.73864071845378" lon="11.20426801081989"><ele>727.0</ele><time>2026-04-04T14:46:34.999Z</time></trkpt><trkpt lat="45.73857381513511" lon="11.204212950774847"><ele>727.0</ele><time>2026-04-04T14:46:35.999Z</time></trkpt><trkpt lat="45.7385105964316" lon="11.20411877619987"><ele>726.5</ele><time>2026-04-04T14:46:36.999Z</time></trkpt><trkpt lat="45.738471657531605" lon="11.20402881287369"><ele>726.0</ele><time>2026-04-04T14:46:37.999Z</time></trkpt><trkpt lat="45.73845445658217" lon="11.20392389845346"><ele>725.5</ele><time>2026-04-04T14:46:38.999Z</time></trkpt><trkpt lat="45.73843946057572" lon="11.203798755519756"><ele>725.0</ele><time>2026-04-04T14:46:39.999Z</time></trkpt><trkpt lat="45.738403081027265" lon="11.203694326819068"><ele>724.5</ele><time>2026-04-04T14:46:40.999Z</time></trkpt><trkpt lat="45.738400713302134" lon="11.203535704547276"><ele>724.0</ele><time>2026-04-04T14:46:42.999Z</time></trkpt><trkpt lat="45.73845348126733" lon="11.203474988410727"><ele>724.0</ele><time>2026-04-04T14:46:43.999Z</time></trkpt><trkpt lat="45.738513797631754" lon="11.203365841042002"><ele>724.0</ele><time>2026-04-04T14:46:44.999Z</time></trkpt><trkpt lat="45.738516469884296" lon="11.20323818931362"><ele>724.0</ele><time>2026-04-04T14:46:46.998Z</time></trkpt><trkpt lat="45.73846195231838" lon="11.203184121382087"><ele>724.0</ele><time>2026-04-04T14:46:47.998Z</time></trkpt><trkpt lat="45.73840184675877" lon="11.203101945675947"><ele>724.0</ele><time>2026-04-04T14:46:48.998Z</time></trkpt><trkpt lat="45.7383665827905" lon="11.203003489805086"><ele>724.0</ele><time>2026-04-04T14:46:49.998Z</time></trkpt><trkpt lat="45.73837058280016" lon="11.202880659127812"><ele>728.4000000000001</ele><time>2026-04-04T14:46:50.998Z</time></trkpt><trkpt lat="45.73839535907793" lon="11.2027776385798"><ele>732.8</ele><time>2026-04-04T14:46:51.998Z</time></trkpt><trkpt lat="45.73844379684313" lon="11.202695460420019"><ele>737.2</ele><time>2026-04-04T14:46:52.998Z</time></trkpt><trkpt lat="45.73851225711198" lon="11.202553941601881"><ele>741.5999999999999</ele><time>2026-04-04T14:46:53.998Z</time></trkpt><trkpt lat="45.7385938167406" lon="11.202400010793447"><ele>746.0</ele><time>2026-04-04T14:46:54.998Z</time></trkpt><trkpt lat="45.738647895899135" lon="11.202256981796271"><ele>749.8333333333333</ele><time>2026-04-04T14:46:55.998Z</time></trkpt><trkpt lat="45.73871078331505" lon="11.20212706876826"><ele>753.6666666666666</ele><time>2026-04-04T14:46:56.998Z</time></trkpt><trkpt lat="45.73873524671064" lon="11.202029344977397"><ele>757.5</ele><time>2026-04-04T14:46:58.998Z</time></trkpt><trkpt lat="45.73867910653062" lon="11.201939344789833"><ele>761.3333333333333</ele><time>2026-04-04T14:47:00.998Z</time></trkpt><trkpt lat="45.738680229041094" lon="11.201830288171568"><ele>765.1666666666666</ele><time>2026-04-04T14:47:23Z</time></trkpt><trkpt lat="45.73868570300911" lon="11.201691495346012"><ele>769.0</ele><time>2026-04-04T14:47:26Z</time></trkpt><trkpt lat="45.738704833415945" lon="11.20158719250632"><ele>770.8333333333333</ele><time>2026-04-04T14:47:49.999Z</time></trkpt><trkpt lat="45.738702626391934" lon="11.201490730231823"><ele>772.6666666666666</ele><time>2026-04-04T14:48:07.999Z</time></trkpt><trkpt lat="45.73869077585883" lon="11.201356610615226"><ele>774.5</ele><time>2026-04-04T14:48:22.999Z</time></trkpt><trkpt lat="45.73871130966797" lon="11.201270007975353"><ele>776.3333333333333</ele><time>2026-04-04T14:48:25.999Z</time></trkpt><trkpt lat="45.738754200695425" lon="11.201175456299184"><ele>778.1666666666666</ele><time>2026-04-04T14:48:27.999Z</time></trkpt><trkpt lat="45.73876916516008" lon="11.201073515171444"><ele>780.0</ele><time>2026-04-04T14:48:30.999Z</time></trkpt><trkpt lat="45.73880801656346" lon="11.200974402447217"><ele>780.0</ele><time>2026-04-04T14:51:42Z</time></trkpt><trkpt lat="45.738794590642875" lon="11.200870254333077"><ele>780.0</ele><time>2026-04-04T14:52:08.999Z</time></trkpt><trkpt lat="45.73873141730403" lon="11.200821458002507"><ele>780.0</ele><time>2026-04-04T14:52:41.999Z</time></trkpt><trkpt lat="45.73878369085102" lon="11.20087949115897"><ele>780.0</ele><time>2026-04-04T14:55:08.998Z</time></trkpt><trkpt lat="45.738762696400826" lon="11.20099462962097"><ele>780.0</ele><time>2026-04-04T14:55:27.998Z</time></trkpt><trkpt lat="45.738744686634966" lon="11.201108087452834"><ele>780.0</ele><time>2026-04-04T14:55:52Z</time></trkpt><trkpt lat="45.7387244079172" lon="11.201204620729639"><ele>780.0</ele><time>2026-04-04T14:56:58.999Z</time></trkpt><trkpt lat="45.73868794736609" lon="11.201291245800215"><ele>780.0</ele><time>2026-04-04T14:57:01.999Z</time></trkpt><trkpt lat="45.738679687252755" lon="11.201432394335882"><ele>780.0</ele><time>2026-04-04T14:57:37Z</time></trkpt><trkpt lat="45.7386700819004" lon="11.201559978414897"><ele>780.0</ele><time>2026-04-04T14:57:40Z</time></trkpt><trkpt lat="45.73864890211288" lon="11.201688082450387"><ele>780.0</ele><time>2026-04-04T14:57:43Z</time></trkpt><trkpt lat="45.73865099110213" lon="11.201797530768978"><ele>780.0</ele><time>2026-04-04T14:57:45Z</time></trkpt><trkpt lat="45.73856727662082" lon="11.20183429525157"><ele>780.0</ele><time>2026-04-04T14:58:22.999Z</time></trkpt><trkpt lat="45.7384685709291" lon="11.201869738872151"><ele>776.8</ele><time>2026-04-04T14:58:25.999Z</time></trkpt><trkpt lat="45.73835694138002" lon="11.201957486350233"><ele>773.6</ele><time>2026-04-04T14:58:27.999Z</time></trkpt><trkpt lat="45.73826380694106" lon="11.202061493441125"><ele>770.4000000000001</ele><time>2026-04-04T14:58:29.999Z</time></trkpt><trkpt lat="45.73822514258672" lon="11.20213914277367"><ele>767.2</ele><time>2026-04-04T14:58:30.999Z</time></trkpt><trkpt lat="45.73819318871947" lon="11.20224589853399"><ele>764.0</ele><time>2026-04-04T14:58:31.999Z</time></trkpt><trkpt lat="45.73814871156634" lon="11.202344832548931"><ele>761.0</ele><time>2026-04-04T14:58:32.999Z</time></trkpt><trkpt lat="45.738084548659955" lon="11.202459249698249"><ele>758.0</ele><time>2026-04-04T14:58:33.999Z</time></trkpt><trkpt lat="45.73801203785614" lon="11.20256631393122"><ele>755.0</ele><time>2026-04-04T14:58:34.999Z</time></trkpt><trkpt lat="45.73796509178603" lon="11.202663646319243"><ele>752.0</ele><time>2026-04-04T14:58:35.999Z</time></trkpt><trkpt lat="45.73793066108331" lon="11.202747724385654"><ele>749.0</ele><time>2026-04-04T14:58:36.999Z</time></trkpt><trkpt lat="45.73788085528932" lon="11.202841741058407"><ele>746.0</ele><time>2026-04-04T14:58:37.999Z</time></trkpt><trkpt lat="45.73783225732481" lon="11.202968114976084"><ele>746.0</ele><time>2026-04-04T14:58:39.999Z</time></trkpt><trkpt lat="45.7377202879718" lon="11.202979938915696"><ele>746.0</ele><time>2026-04-04T14:58:41.999Z</time></trkpt><trkpt lat="45.737651325911706" lon="11.20293400769825"><ele>746.0</ele><time>2026-04-04T14:58:42.999Z</time></trkpt><trkpt lat="45.73757088936919" lon="11.202852052493581"><ele>746.0</ele><time>2026-04-04T14:58:43.999Z</time></trkpt><trkpt lat="45.73746951791836" lon="11.202771526939648"><ele>746.0</ele><time>2026-04-04T14:58:44.999Z</time></trkpt><trkpt lat="45.737381836137565" lon="11.202728804324622"><ele>748.5</ele><time>2026-04-04T14:58:45.999Z</time></trkpt><trkpt lat="45.73729952226828" lon="11.202695300556492"><ele>751.0</ele><time>2026-04-04T14:58:46.999Z</time></trkpt><trkpt lat="45.73722569176788" lon="11.202672825782162"><ele>753.5</ele><time>2026-04-04T14:58:47.999Z</time></trkpt><trkpt lat="45.73713853244205" lon="11.202705579272475"><ele>756.0</ele><time>2026-04-04T14:58:49.999Z</time></trkpt><trkpt lat="45.73707374983881" lon="11.202789893962416"><ele>758.5</ele><time>2026-04-04T14:58:51.999Z</time></trkpt><trkpt lat="45.73709818044532" lon="11.202921364935138"><ele>761.0</ele><time>2026-04-04T14:58:53.999Z</time></trkpt><trkpt lat="45.73714709498176" lon="11.203017251480382"><ele>761.0</ele><time>2026-04-04T14:58:54.999Z</time></trkpt><trkpt lat="45.737184438389" lon="11.203137672675801"><ele>761.0</ele><time>2026-04-04T14:58:55.999Z</time></trkpt><trkpt lat="45.73720660697929" lon="11.20329287461043"><ele>761.0</ele><time>2026-04-04T14:58:56.999Z</time></trkpt><trkpt lat="45.73726080104924" lon="11.20340821652981"><ele>761.0</ele><time>2026-04-04T14:58:57.999Z</time></trkpt><trkpt lat="45.73729390123563" lon="11.203512017935527"><ele>761.0</ele><time>2026-04-04T14:58:58.999Z</time></trkpt><trkpt lat="45.73732224776363" lon="11.203636783941468"><ele>754.25</ele><time>2026-04-04T14:58:59.999Z</time></trkpt><trkpt lat="45.73734144056647" lon="11.203774832365644"><ele>747.5</ele><time>2026-04-04T14:59:00.999Z</time></trkpt><trkpt lat="45.73735021293818" lon="11.203963027529447"><ele>740.75</ele><time>2026-04-04T14:59:01.999Z</time></trkpt><trkpt lat="45.73736542117648" lon="11.20413014489676"><ele>734.0</ele><time>2026-04-04T14:59:02.999Z</time></trkpt><trkpt lat="45.737374641230716" lon="11.204412999184909"><ele>734.0</ele><time>2026-04-04T14:59:03.999Z</time></trkpt><trkpt lat="45.737374394758234" lon="11.204528470104654"><ele>734.0</ele><time>2026-04-04T14:59:04.999Z</time></trkpt><trkpt lat="45.737375963333434" lon="11.204650701273264"><ele>734.0</ele><time>2026-04-04T14:59:05.999Z</time></trkpt><trkpt lat="45.73735882324251" lon="11.204787936981065"><ele>734.0</ele><time>2026-04-04T14:59:06.999Z</time></trkpt><trkpt lat="45.73732466024714" lon="11.204898915070938"><ele>734.0</ele><time>2026-04-04T14:59:07.999Z</time></trkpt><trkpt lat="45.737297763144085" lon="11.205019249506508"><ele>734.0</ele><time>2026-04-04T14:59:08.999Z</time></trkpt><trkpt lat="45.73731351992959" lon="11.205117559253901"><ele>736.3333333333333</ele><time>2026-04-04T14:59:09.999Z</time></trkpt><trkpt lat="45.737322436397086" lon="11.20522514483495"><ele>738.6666666666666</ele><time>2026-04-04T14:59:10.999Z</time></trkpt><trkpt lat="45.73733108796832" lon="11.20535036540799"><ele>741.0</ele><time>2026-04-04T14:59:11.999Z</time></trkpt><trkpt lat="45.73738122597017" lon="11.205457183266644"><ele>743.3333333333334</ele><time>2026-04-04T14:59:12.998Z</time></trkpt><trkpt lat="45.73741859854252" lon="11.205545511148717"><ele>745.6666666666667</ele><time>2026-04-04T14:59:13.998Z</time></trkpt><trkpt lat="45.73743599727348" lon="11.205687159924162"><ele>748.0</ele><time>2026-04-04T14:59:14.998Z</time></trkpt><trkpt lat="45.737416766331634" lon="11.205820726251982"><ele>751.2</ele><time>2026-04-04T14:59:15.998Z</time></trkpt><trkpt lat="45.7373723299478" lon="11.205932954250768"><ele>754.4</ele><time>2026-04-04T14:59:16.998Z</time></trkpt><trkpt lat="45.73730283115326" lon="11.206029962318942"><ele>757.6</ele><time>2026-04-04T14:59:17.998Z</time></trkpt><trkpt lat="45.73720691700469" lon="11.206070532309807"><ele>760.8000000000001</ele><time>2026-04-04T14:59:18.998Z</time></trkpt><trkpt lat="45.737102184039095" lon="11.206110513482576"><ele>764.0</ele><time>2026-04-04T14:59:19.998Z</time></trkpt><trkpt lat="45.737016524927455" lon="11.206204781021446"><ele>764.0</ele><time>2026-04-04T14:59:20.998Z</time></trkpt><trkpt lat="45.736945309653194" lon="11.206317993051458"><ele>764.0</ele><time>2026-04-04T14:59:21.998Z</time></trkpt><trkpt lat="45.73692277953144" lon="11.206428171050622"><ele>764.0</ele><time>2026-04-04T14:59:22.998Z</time></trkpt><trkpt lat="45.73695925141254" lon="11.206529066788146"><ele>764.0</ele><time>2026-04-04T14:59:23.998Z</time></trkpt><trkpt lat="45.737035033246684" lon="11.206628304410174"><ele>764.0</ele><time>2026-04-04T14:59:24.998Z</time></trkpt><trkpt lat="45.737125811528564" lon="11.206718774626742"><ele>764.8000000000001</ele><time>2026-04-04T14:59:25.998Z</time></trkpt><trkpt lat="45.73712617837921" lon="11.206826859752605"><ele>765.6</ele><time>2026-04-04T14:59:27.998Z</time></trkpt><trkpt lat="45.736973381183375" lon="11.206865584877711"><ele>766.4</ele><time>2026-04-04T14:59:29.998Z</time></trkpt><trkpt lat="45.736870204011055" lon="11.206890795219076"><ele>767.2</ele><time>2026-04-04T14:59:30.998Z</time></trkpt><trkpt lat="45.73679730916116" lon="11.206975665295532"><ele>768.0</ele><time>2026-04-04T14:59:31.998Z</time></trkpt><trkpt lat="45.73675091163103" lon="11.20710456281512"><ele>770.5999999999999</ele><time>2026-04-04T14:59:32.998Z</time></trkpt><trkpt lat="45.73671213723888" lon="11.2072553950947"><ele>773.1999999999999</ele><time>2026-04-04T14:59:33.998Z</time></trkpt><trkpt lat="45.73669014703197" lon="11.207412697888413"><ele>775.8</ele><time>2026-04-04T14:59:34.998Z</time></trkpt><trkpt lat="45.736670212938755" lon="11.207528146703163"><ele>778.4</ele><time>2026-04-04T14:59:35.998Z</time></trkpt><trkpt lat="45.73667077928668" lon="11.207625516807713"><ele>781.0</ele><time>2026-04-04T14:59:36.998Z</time></trkpt><trkpt lat="45.736714767500914" lon="11.207720321846038"><ele>781.0</ele><time>2026-04-04T14:59:37.998Z</time></trkpt><trkpt lat="45.736737847475645" lon="11.207813158738851"><ele>781.0</ele><time>2026-04-04T14:59:38.998Z</time></trkpt><trkpt lat="45.7366775562363" lon="11.207913367497229"><ele>781.0</ele><time>2026-04-04T14:59:39.998Z</time></trkpt><trkpt lat="45.73659152473839" lon="11.208031624892737"><ele>781.0</ele><time>2026-04-04T14:59:40.998Z</time></trkpt><trkpt lat="45.73649557362888" lon="11.208221093150378"><ele>781.0</ele><time>2026-04-04T14:59:41.998Z</time></trkpt><trkpt lat="45.73642500610124" lon="11.20846165361306"><ele>778.4</ele><time>2026-04-04T14:59:43Z</time></trkpt><trkpt lat="45.736416345454316" lon="11.20860805663634"><ele>775.8</ele><time>2026-04-04T14:59:44Z</time></trkpt><trkpt lat="45.73633860378872" lon="11.208714306450398"><ele>773.1999999999999</ele><time>2026-04-04T14:59:46Z</time></trkpt><trkpt lat="45.736242452469845" lon="11.208769125413234"><ele>770.5999999999999</ele><time>2026-04-04T14:59:47Z</time></trkpt><trkpt lat="45.73611263235751" lon="11.20882234393808"><ele>768.0</ele><time>2026-04-04T14:59:48Z</time></trkpt><trkpt lat="45.73595720935811" lon="11.208866914320769"><ele>770.0</ele><time>2026-04-04T14:59:49Z</time></trkpt><trkpt lat="45.73576565561916" lon="11.208924887906544"><ele>772.0</ele><time>2026-04-04T14:59:50Z</time></trkpt><trkpt lat="45.73567395627549" lon="11.208981821779378"><ele>774.0</ele><time>2026-04-04T14:59:51Z</time></trkpt><trkpt lat="45.73561399054203" lon="11.209080207645973"><ele>776.0</ele><time>2026-04-04T14:59:52Z</time></trkpt><trkpt lat="45.7355578451623" lon="11.209228473358529"><ele>776.0</ele><time>2026-04-04T14:59:53Z</time></trkpt><trkpt lat="45.735542744771514" lon="11.20939673839021"><ele>776.0</ele><time>2026-04-04T14:59:54Z</time></trkpt><trkpt lat="45.735505568385314" lon="11.209512615701732"><ele>776.0</ele><time>2026-04-04T14:59:55Z</time></trkpt><trkpt lat="45.73543658626995" lon="11.20964372008842"><ele>776.0</ele><time>2026-04-04T14:59:56Z</time></trkpt><trkpt lat="45.735359195359365" lon="11.209741277779603"><ele>776.0</ele><time>2026-04-04T14:59:57Z</time></trkpt><trkpt lat="45.7352929859511" lon="11.209837861896009"><ele>778.1666666666667</ele><time>2026-04-04T14:59:58Z</time></trkpt><trkpt lat="45.73522041352716" lon="11.209925660888318"><ele>780.3333333333334</ele><time>2026-04-04T14:59:59Z</time></trkpt><trkpt lat="45.73514477330252" lon="11.209989986320677"><ele>782.5</ele><time>2026-04-04T15:00:00Z</time></trkpt><trkpt lat="45.735073053586405" lon="11.21005574100072"><ele>784.6666666666667</ele><time>2026-04-04T15:00:01Z</time></trkpt><trkpt lat="45.73501819275751" lon="11.21014207376801"><ele>786.8333333333334</ele><time>2026-04-04T15:00:02Z</time></trkpt><trkpt lat="45.73499723789896" lon="11.210227255221538"><ele>789.0</ele><time>2026-04-04T15:00:03Z</time></trkpt><trkpt lat="45.73495905404138" lon="11.210311175631404"><ele>789.0</ele><time>2026-04-04T15:00:04Z</time></trkpt><trkpt lat="45.73490871759299" lon="11.210405945992395"><ele>789.0</ele><time>2026-04-04T15:00:05Z</time></trkpt><trkpt lat="45.73486949101966" lon="11.210497939324114"><ele>789.0</ele><time>2026-04-04T15:00:06Z</time></trkpt><trkpt lat="45.73485112278931" lon="11.210601747288974"><ele>789.0</ele><time>2026-04-04T15:00:07Z</time></trkpt><trkpt lat="45.73483757789589" lon="11.210760597184235"><ele>789.0</ele><time>2026-04-04T15:00:09Z</time></trkpt><trkpt lat="45.73489631430802" lon="11.210910442299143"><ele>789.0</ele><time>2026-04-04T15:00:11Z</time></trkpt><trkpt lat="45.735088279573574" lon="11.210908470619756"><ele>789.0</ele><time>2026-04-04T15:00:12.999Z</time></trkpt><trkpt lat="45.73517351691491" lon="11.210981339998007"><ele>789.0</ele><time>2026-04-04T15:00:14.999Z</time></trkpt><trkpt lat="45.735194357288506" lon="11.211166274843695"><ele>789.0</ele><time>2026-04-04T15:00:16.999Z</time></trkpt><trkpt lat="45.73522715752004" lon="11.21125057459414"><ele>785.5</ele><time>2026-04-04T15:00:17.999Z</time></trkpt><trkpt lat="45.73529963032177" lon="11.211275990317315"><ele>782.0</ele><time>2026-04-04T15:00:18.999Z</time></trkpt><trkpt lat="45.73536390984052" lon="11.211287648083616"><ele>778.5</ele><time>2026-04-04T15:00:19.999Z</time></trkpt><trkpt lat="45.73546894973174" lon="11.211401583320125"><ele>775.0</ele><time>2026-04-04T15:00:21.999Z</time></trkpt><trkpt lat="45.73551175575057" lon="11.211519795675702"><ele>771.5</ele><time>2026-04-04T15:00:22.999Z</time></trkpt><trkpt lat="45.73554313161237" lon="11.211624545370308"><ele>768.0</ele><time>2026-04-04T15:00:23.999Z</time></trkpt><trkpt lat="45.73555609943787" lon="11.211740575113442"><ele>768.0</ele><time>2026-04-04T15:00:24.999Z</time></trkpt><trkpt lat="45.73555955832796" lon="11.211866047221035"><ele>768.0</ele><time>2026-04-04T15:00:25.999Z</time></trkpt><trkpt lat="45.735530990365184" lon="11.212017074582272"><ele>768.0</ele><time>2026-04-04T15:00:26.999Z</time></trkpt><trkpt lat="45.73550574702651" lon="11.212193185398183"><ele>768.0</ele><time>2026-04-04T15:00:27.999Z</time></trkpt><trkpt lat="45.735498653856546" lon="11.21234867211536"><ele>768.0</ele><time>2026-04-04T15:00:28.999Z</time></trkpt><trkpt lat="45.73550480020266" lon="11.212513014218715"><ele>769.0</ele><time>2026-04-04T15:00:29.999Z</time></trkpt><trkpt lat="45.735507514039575" lon="11.212721366003892"><ele>770.0</ele><time>2026-04-04T15:00:30.999Z</time></trkpt><trkpt lat="45.735501662254265" lon="11.212907555532293"><ele>771.0</ele><time>2026-04-04T15:00:31.999Z</time></trkpt><trkpt lat="45.73549597251143" lon="11.213049840248337"><ele>772.0</ele><time>2026-04-04T15:00:32.999Z</time></trkpt><trkpt lat="45.73548734701468" lon="11.213166817887378"><ele>772.9999999999999</ele><time>2026-04-04T15:00:33.999Z</time></trkpt><trkpt lat="45.73548547649928" lon="11.213281776154954"><ele>774.0</ele><time>2026-04-04T15:00:34.999Z</time></trkpt><trkpt lat="45.7354899740763" lon="11.213373162949502"><ele>775.0</ele><time>2026-04-04T15:00:35.999Z</time></trkpt><trkpt lat="45.735499996539836" lon="11.21346229177826"><ele>776.0</ele><time>2026-04-04T15:00:36.999Z</time></trkpt><trkpt lat="45.73552522736409" lon="11.213606424495104"><ele>776.9999999999999</ele><time>2026-04-04T15:00:37.999Z</time></trkpt><trkpt lat="45.73552061040236" lon="11.21379159909666"><ele>778.0</ele><time>2026-04-04T15:00:38.999Z</time></trkpt><trkpt lat="45.73546270043138" lon="11.213955012875113"><ele>778.0</ele><time>2026-04-04T15:00:39.999Z</time></trkpt><trkpt lat="45.73538897157792" lon="11.214129947377717"><ele>778.0</ele><time>2026-04-04T15:00:40.999Z</time></trkpt><trkpt lat="45.73534035215554" lon="11.214257837103565"><ele>778.0</ele><time>2026-04-04T15:00:41.999Z</time></trkpt><trkpt lat="45.735293750172275" lon="11.214364331970112"><ele>778.0</ele><time>2026-04-04T15:00:42.999Z</time></trkpt><trkpt lat="45.735218962449125" lon="11.214498969711848"><ele>778.0</ele><time>2026-04-04T15:00:43.999Z</time></trkpt><trkpt lat="45.7351460689573" lon="11.214642984841209"><ele>778.0</ele><time>2026-04-04T15:00:44.999Z</time></trkpt><trkpt lat="45.735086722523235" lon="11.214773614986889"><ele>778.0</ele><time>2026-04-04T15:00:45.999Z</time></trkpt><trkpt lat="45.73509014106176" lon="11.214887912648322"><ele>778.0</ele><time>2026-04-04T15:00:47.999Z</time></trkpt><trkpt lat="45.7351232269816" lon="11.215099962803817"><ele>779.5999999999999</ele><time>2026-04-04T15:00:49.999Z</time></trkpt><trkpt lat="45.735161402886796" lon="11.215215793004718"><ele>781.1999999999999</ele><time>2026-04-04T15:00:50.999Z</time></trkpt><trkpt lat="45.735199825719114" lon="11.215346562467051"><ele>782.8</ele><time>2026-04-04T15:00:51.999Z</time></trkpt><trkpt lat="45.73523034156735" lon="11.215495485453431"><ele>784.4</ele><time>2026-04-04T15:00:52.999Z</time></trkpt><trkpt lat="45.735239776567255" lon="11.21564956517303"><ele>786.0</ele><time>2026-04-04T15:00:53.999Z</time></trkpt><trkpt lat="45.7352598244188" lon="11.215772117325734"><ele>783.5999999999999</ele><time>2026-04-04T15:00:54.999Z</time></trkpt><trkpt lat="45.73528838727615" lon="11.215884870835941"><ele>781.2</ele><time>2026-04-04T15:00:55.999Z</time></trkpt><trkpt lat="45.735306672555815" lon="11.215989049119306"><ele>778.8</ele><time>2026-04-04T15:00:56.999Z</time></trkpt><trkpt lat="45.73527963502478" lon="11.216107585933809"><ele>776.4000000000001</ele><time>2026-04-04T15:00:57.999Z</time></trkpt><trkpt lat="45.73522461939768" lon="11.216223410160504"><ele>774.0</ele><time>2026-04-04T15:00:58.999Z</time></trkpt><trkpt lat="45.735163276132454" lon="11.216356236799264"><ele>774.0</ele><time>2026-04-04T15:00:59.999Z</time></trkpt><trkpt lat="45.73509969749005" lon="11.216483346792606"><ele>774.0</ele><time>2026-04-04T15:01:00.999Z</time></trkpt><trkpt lat="45.735041881446904" lon="11.216651242579063"><ele>774.0</ele><time>2026-04-04T15:01:01.999Z</time></trkpt><trkpt lat="45.7349994315677" lon="11.216819414352926"><ele>774.0</ele><time>2026-04-04T15:01:02.999Z</time></trkpt><trkpt lat="45.73497114644493" lon="11.216951840399126"><ele>774.6</ele><time>2026-04-04T15:01:03.999Z</time></trkpt><trkpt lat="45.7349271393595" lon="11.21705332832543"><ele>775.2</ele><time>2026-04-04T15:01:04.999Z</time></trkpt><trkpt lat="45.734851555728426" lon="11.217217962661856"><ele>775.8000000000001</ele><time>2026-04-04T15:01:06.999Z</time></trkpt><trkpt lat="45.73480909806594" lon="11.21729842907012"><ele>776.4000000000001</ele><time>2026-04-04T15:01:07.999Z</time></trkpt><trkpt lat="45.73475243932893" lon="11.217445579356768"><ele>777.0</ele><time>2026-04-04T15:01:09.999Z</time></trkpt><trkpt lat="45.734668580136216" lon="11.217532664070085"><ele>779.0</ele><time>2026-04-04T15:01:11.999Z</time></trkpt><trkpt lat="45.73459121736131" lon="11.217601740326591"><ele>781.0</ele><time>2026-04-04T15:01:12.999Z</time></trkpt><trkpt lat="45.73450867119017" lon="11.217752475496289"><ele>783.0</ele><time>2026-04-04T15:01:13.999Z</time></trkpt><trkpt lat="45.734419571994714" lon="11.217922966383124"><ele>785.0</ele><time>2026-04-04T15:01:14.999Z</time></trkpt><trkpt lat="45.734337841798784" lon="11.218050869068229"><ele>780.4</ele><time>2026-04-04T15:01:15.999Z</time></trkpt><trkpt lat="45.734274523234454" lon="11.218159517505308"><ele>775.8</ele><time>2026-04-04T15:01:16.999Z</time></trkpt><trkpt lat="45.734214225868726" lon="11.218280553049096"><ele>771.2</ele><time>2026-04-04T15:01:17.999Z</time></trkpt><trkpt lat="45.734137125852854" lon="11.218387675700711"><ele>766.6</ele><time>2026-04-04T15:01:18.998Z</time></trkpt><trkpt lat="45.73405295214657" lon="11.218482972054376"><ele>762.0</ele><time>2026-04-04T15:01:19.998Z</time></trkpt><trkpt lat="45.73396003129652" lon="11.218575418216453"><ele>762.0</ele><time>2026-04-04T15:01:20.998Z</time></trkpt><trkpt lat="45.7338976372336" lon="11.218669501097718"><ele>762.0</ele><time>2026-04-04T15:01:21.998Z</time></trkpt><trkpt lat="45.7338609640725" lon="11.218770320952498"><ele>762.0</ele><time>2026-04-04T15:01:22.998Z</time></trkpt><trkpt lat="45.73386985232676" lon="11.218913045617134"><ele>762.0</ele><time>2026-04-04T15:01:23.998Z</time></trkpt><trkpt lat="45.733836540053545" lon="11.219102342041063"><ele>762.0</ele><time>2026-04-04T15:01:24.998Z</time></trkpt><trkpt lat="45.733804332473206" lon="11.219271546523533"><ele>763.0</ele><time>2026-04-04T15:01:25.998Z</time></trkpt><trkpt lat="45.73377597749143" lon="11.21943610476097"><ele>764.0</ele><time>2026-04-04T15:01:26.998Z</time></trkpt><trkpt lat="45.73376199901237" lon="11.219599816049673"><ele>765.0</ele><time>2026-04-04T15:01:27.998Z</time></trkpt><trkpt lat="45.733774073558926" lon="11.219771444802415"><ele>766.0</ele><time>2026-04-04T15:01:28.998Z</time></trkpt><trkpt lat="45.73376942687346" lon="11.219938726196327"><ele>766.3333333333334</ele><time>2026-04-04T15:01:29.998Z</time></trkpt><trkpt lat="45.733755120720176" lon="11.220135423833284"><ele>766.6666666666666</ele><time>2026-04-04T15:01:30.998Z</time></trkpt><trkpt lat="45.73376983610919" lon="11.220363516910101"><ele>767.0</ele><time>2026-04-04T15:01:31.998Z</time></trkpt><trkpt lat="45.73375729295278" lon="11.220584710833561"><ele>765.0</ele><time>2026-04-04T15:01:32.998Z</time></trkpt><trkpt lat="45.73375560231806" lon="11.220776294216217"><ele>763.0</ele><time>2026-04-04T15:01:33.998Z</time></trkpt><trkpt lat="45.73373963603821" lon="11.220950894674676"><ele>761.0</ele><time>2026-04-04T15:01:34.998Z</time></trkpt><trkpt lat="45.73369828568492" lon="11.221112564078405"><ele>759.0</ele><time>2026-04-04T15:01:35.998Z</time></trkpt><trkpt lat="45.73366702726097" lon="11.221273879663274"><ele>759.0</ele><time>2026-04-04T15:01:36.998Z</time></trkpt><trkpt lat="45.73363896492262" lon="11.221410732039194"><ele>759.0</ele><time>2026-04-04T15:01:37.998Z</time></trkpt><trkpt lat="45.733620693793505" lon="11.221560913529817"><ele>759.0</ele><time>2026-04-04T15:01:38.998Z</time></trkpt><trkpt lat="45.733605736349915" lon="11.221693251877003"><ele>759.0</ele><time>2026-04-04T15:01:39.998Z</time></trkpt><trkpt lat="45.73361052795514" lon="11.221786877490363"><ele>759.0</ele><time>2026-04-04T15:01:40.998Z</time></trkpt><trkpt lat="45.73373578225975" lon="11.221777054623995"><ele>753.5</ele><time>2026-04-04T15:01:42.998Z</time></trkpt><trkpt lat="45.73390601727022" lon="11.221777766994375"><ele>748.0</ele><time>2026-04-04T15:01:44.998Z</time></trkpt><trkpt lat="45.73403777965397" lon="11.221884201050473"><ele>742.5</ele><time>2026-04-04T15:01:45.998Z</time></trkpt><trkpt lat="45.73414375080465" lon="11.22198366879046"><ele>737.0</ele><time>2026-04-04T15:01:46.998Z</time></trkpt><trkpt lat="45.7342130176432" lon="11.22205986972438"><ele>737.0</ele><time>2026-04-04T15:01:47.998Z</time></trkpt><trkpt lat="45.73427260889226" lon="11.222150917053202"><ele>737.0</ele><time>2026-04-04T15:01:49Z</time></trkpt><trkpt lat="45.734328267853655" lon="11.222223912249119"><ele>737.0</ele><time>2026-04-04T15:01:51Z</time></trkpt><trkpt lat="45.73434332189823" lon="11.222395987076188"><ele>737.0</ele><time>2026-04-04T15:01:54Z</time></trkpt><trkpt lat="45.734156821653485" lon="11.222372814691063"><ele>737.0</ele><time>2026-04-04T15:02:00Z</time></trkpt><trkpt lat="45.73415908890045" lon="11.222267601451321"><ele>737.0</ele><time>2026-04-04T15:02:02Z</time></trkpt><trkpt lat="45.73422191829492" lon="11.222224791906196"><ele>737.0</ele><time>2026-04-04T15:02:07Z</time></trkpt><trkpt lat="45.73435027915442" lon="11.222190781902466"><ele>737.0</ele><time>2026-04-04T15:02:09Z</time></trkpt><trkpt lat="45.73445824957038" lon="11.222174127097237"><ele>737.0</ele><time>2026-04-04T15:02:10Z</time></trkpt><trkpt lat="45.73458242761807" lon="11.222111626497107"><ele>734.6</ele><time>2026-04-04T15:02:12Z</time></trkpt><trkpt lat="45.7346612093213" lon="11.222103078049336"><ele>732.2</ele><time>2026-04-04T15:02:13Z</time></trkpt><trkpt lat="45.7347600922195" lon="11.222131355482604"><ele>729.8</ele><time>2026-04-04T15:02:14Z</time></trkpt><trkpt lat="45.734861800928314" lon="11.222198989273446"><ele>727.4</ele><time>2026-04-04T15:02:15Z</time></trkpt><trkpt lat="45.73495765055545" lon="11.222281837332838"><ele>725.0</ele><time>2026-04-04T15:02:16Z</time></trkpt><trkpt lat="45.73506095765608" lon="11.22236785530742"><ele>725.0</ele><time>2026-04-04T15:02:17Z</time></trkpt><trkpt lat="45.7351540337319" lon="11.222446576466501"><ele>725.0</ele><time>2026-04-04T15:02:18Z</time></trkpt><trkpt lat="45.73526345798325" lon="11.222514560228559"><ele>725.0</ele><time>2026-04-04T15:02:19Z</time></trkpt><trkpt lat="45.7353715969772" lon="11.222584664714207"><ele>725.0</ele><time>2026-04-04T15:02:20Z</time></trkpt><trkpt lat="45.73548434515941" lon="11.22264232482154"><ele>726.0</ele><time>2026-04-04T15:02:21Z</time></trkpt><trkpt lat="45.735601582146835" lon="11.222690029893137"><ele>727.0</ele><time>2026-04-04T15:02:22Z</time></trkpt><trkpt lat="45.73572471784185" lon="11.222725193975828"><ele>728.0</ele><time>2026-04-04T15:02:23Z</time></trkpt><trkpt lat="45.73585416067387" lon="11.222749464350091"><ele>729.0</ele><time>2026-04-04T15:02:24Z</time></trkpt><trkpt lat="45.73598672614395" lon="11.22277684779386"><ele>728.75</ele><time>2026-04-04T15:02:24.999Z</time></trkpt><trkpt lat="45.73611023848124" lon="11.222824011973914"><ele>728.5</ele><time>2026-04-04T15:02:25.999Z</time></trkpt><trkpt lat="45.73622479261671" lon="11.222904974356053"><ele>728.25</ele><time>2026-04-04T15:02:26.999Z</time></trkpt><trkpt lat="45.73632034513737" lon="11.222990357886435"><ele>728.0</ele><time>2026-04-04T15:02:27.999Z</time></trkpt><trkpt lat="45.73642037904161" lon="11.22304375168302"><ele>728.0</ele><time>2026-04-04T15:02:28.999Z</time></trkpt><trkpt lat="45.73652231086836" lon="11.223087305228956"><ele>728.0</ele><time>2026-04-04T15:02:29.999Z</time></trkpt><trkpt lat="45.73659830064925" lon="11.223111716614078"><ele>728.0</ele><time>2026-04-04T15:02:30.999Z</time></trkpt><trkpt lat="45.73669429915974" lon="11.223044090358789"><ele>728.0</ele><time>2026-04-04T15:02:32.999Z</time></trkpt><trkpt lat="45.73674039539655" lon="11.222956098446922"><ele>728.0</ele><time>2026-04-04T15:02:33.999Z</time></trkpt><trkpt lat="45.736809208932236" lon="11.22287786093619"><ele>722.4</ele><time>2026-04-04T15:02:34.999Z</time></trkpt><trkpt lat="45.73691927780093" lon="11.222856630848634"><ele>716.8</ele><time>2026-04-04T15:02:35.999Z</time></trkpt><trkpt lat="45.73701897568987" lon="11.222891586594274"><ele>711.2</ele><time>2026-04-04T15:02:36.999Z</time></trkpt><trkpt lat="45.73712037113994" lon="11.222967418776793"><ele>705.6</ele><time>2026-04-04T15:02:37.999Z</time></trkpt><trkpt lat="45.73722251247813" lon="11.223054693343201"><ele>700.0</ele><time>2026-04-04T15:02:38.999Z</time></trkpt><trkpt lat="45.73730928675661" lon="11.223124780255867"><ele>698.25</ele><time>2026-04-04T15:02:39.999Z</time></trkpt><trkpt lat="45.73738008262921" lon="11.223205500741022"><ele>696.5</ele><time>2026-04-04T15:02:40.999Z</time></trkpt><trkpt lat="45.73752793162055" lon="11.223272785197032"><ele>694.75</ele><time>2026-04-04T15:02:42.999Z</time></trkpt><trkpt lat="45.73764319269729" lon="11.223299334015993"><ele>693.0</ele><time>2026-04-04T15:02:43.999Z</time></trkpt><trkpt lat="45.737744756767206" lon="11.22334557452307"><ele>691.2</ele><time>2026-04-04T15:02:44.999Z</time></trkpt><trkpt lat="45.73784743355015" lon="11.2233570934438"><ele>689.4</ele><time>2026-04-04T15:02:45.999Z</time></trkpt><trkpt lat="45.7379528319959" lon="11.22334145763215"><ele>687.6</ele><time>2026-04-04T15:02:46.999Z</time></trkpt><trkpt lat="45.738027380648745" lon="11.223302052478097"><ele>685.8000000000001</ele><time>2026-04-04T15:02:47.999Z</time></trkpt><trkpt lat="45.73809098666206" lon="11.223214603117592"><ele>684.0</ele><time>2026-04-04T15:02:49.999Z</time></trkpt><trkpt lat="45.738170850610246" lon="11.223263951291504"><ele>683.9999999999999</ele><time>2026-04-04T15:03:00.999Z</time></trkpt><trkpt lat="45.738233956620526" lon="11.223285681543574"><ele>684.0</ele><time>2026-04-04T15:03:01.999Z</time></trkpt><trkpt lat="45.738300371795845" lon="11.223262408412543"><ele>684.0</ele><time>2026-04-04T15:03:06.999Z</time></trkpt><trkpt lat="45.73834667672418" lon="11.223197156872786"><ele>684.0</ele><time>2026-04-04T15:03:10.999Z</time></trkpt><trkpt lat="45.738379609659724" lon="11.22310719244189"><ele>684.0</ele><time>2026-04-04T15:03:12.999Z</time></trkpt><trkpt lat="45.738413797266155" lon="11.22302524327962"><ele>683.9999999999999</ele><time>2026-04-04T15:03:14.999Z</time></trkpt><trkpt lat="45.73847082022591" lon="11.222982990618556"><ele>684.0</ele><time>2026-04-04T15:03:15.999Z</time></trkpt><trkpt lat="45.73853715743391" lon="11.222984649823626"><ele>679.1666666666666</ele><time>2026-04-04T15:03:16.999Z</time></trkpt><trkpt lat="45.73860902062836" lon="11.22300678318594"><ele>674.3333333333334</ele><time>2026-04-04T15:03:17.999Z</time></trkpt><trkpt lat="45.738664418766064" lon="11.223064815109215"><ele>669.5</ele><time>2026-04-04T15:03:18.999Z</time></trkpt><trkpt lat="45.73871227711935" lon="11.223124032937028"><ele>664.6666666666667</ele><time>2026-04-04T15:03:19.999Z</time></trkpt><trkpt lat="45.73881561174257" lon="11.22319494554804"><ele>659.8333333333334</ele><time>2026-04-04T15:03:21.999Z</time></trkpt><trkpt lat="45.738880019356024" lon="11.223275470977292"><ele>655.0</ele><time>2026-04-04T15:03:22.999Z</time></trkpt><trkpt lat="45.73892682574467" lon="11.22341196464341"><ele>655.0</ele><time>2026-04-04T15:03:23.999Z</time></trkpt><trkpt lat="45.73895169814001" lon="11.22351933468321"><ele>655.0</ele><time>2026-04-04T15:03:24.999Z</time></trkpt><trkpt lat="45.73896689466099" lon="11.223659911771522"><ele>655.0</ele><time>2026-04-04T15:03:25.999Z</time></trkpt><trkpt lat="45.73898465538753" lon="11.223811950918945"><ele>655.0</ele><time>2026-04-04T15:03:26.999Z</time></trkpt><trkpt lat="45.7390245123112" lon="11.223905039089258"><ele>655.0</ele><time>2026-04-04T15:03:27.998Z</time></trkpt><trkpt lat="45.739090112252846" lon="11.223993917561332"><ele>652.8</ele><time>2026-04-04T15:03:28.998Z</time></trkpt><trkpt lat="45.73916031819708" lon="11.224089393090347"><ele>650.6</ele><time>2026-04-04T15:03:29.998Z</time></trkpt><trkpt lat="45.739231552492036" lon="11.224160032720599"><ele>648.4000000000001</ele><time>2026-04-04T15:03:30.998Z</time></trkpt><trkpt lat="45.73931118977798" lon="11.224207408313909"><ele>646.2</ele><time>2026-04-04T15:03:31.998Z</time></trkpt><trkpt lat="45.73940516891575" lon="11.224241237083648"><ele>644.0</ele><time>2026-04-04T15:03:32.998Z</time></trkpt><trkpt lat="45.73950776123508" lon="11.224280043730731"><ele>644.0</ele><time>2026-04-04T15:03:33.998Z</time></trkpt><trkpt lat="45.73959717258836" lon="11.224333680966444"><ele>644.0</ele><time>2026-04-04T15:03:34.998Z</time></trkpt><trkpt lat="45.73967792633687" lon="11.224379417811946"><ele>644.0</ele><time>2026-04-04T15:03:35.998Z</time></trkpt><trkpt lat="45.73977032102904" lon="11.224402695616325"><ele>644.0</ele><time>2026-04-04T15:03:36.998Z</time></trkpt><trkpt lat="45.73985689302303" lon="11.224442538795039"><ele>644.0</ele><time>2026-04-04T15:03:37.998Z</time></trkpt><trkpt lat="45.73993342535473" lon="11.22446374214884"><ele>644.0</ele><time>2026-04-04T15:03:38.998Z</time></trkpt><trkpt lat="45.74000586583157" lon="11.224470002351266"><ele>644.0</ele><time>2026-04-04T15:03:39.998Z</time></trkpt><trkpt lat="45.74009906912833" lon="11.224498008444"><ele>644.0</ele><time>2026-04-04T15:03:40.998Z</time></trkpt><trkpt lat="45.74017385156337" lon="11.22455291572635"><ele>644.0</ele><time>2026-04-04T15:03:41.998Z</time></trkpt><trkpt lat="45.7402297291541" lon="11.224615226863419"><ele>644.0</ele><time>2026-04-04T15:03:42.998Z</time></trkpt><trkpt lat="45.74029370449912" lon="11.224651676121407"><ele>644.0</ele><time>2026-04-04T15:03:43.998Z</time></trkpt><trkpt lat="45.740359284499306" lon="11.22467798079477"><ele>644.0</ele><time>2026-04-04T15:03:44.998Z</time></trkpt><trkpt lat="45.74042034168013" lon="11.22474377361081"><ele>642.1666666666666</ele><time>2026-04-04T15:03:45.998Z</time></trkpt><trkpt lat="45.740468085693" lon="11.224832446309659"><ele>640.3333333333333</ele><time>2026-04-04T15:03:46.998Z</time></trkpt><trkpt lat="45.74050825794991" lon="11.224934832200335"><ele>638.5</ele><time>2026-04-04T15:03:49.998Z</time></trkpt><trkpt lat="45.7405987525267" lon="11.224998498305796"><ele>636.6666666666666</ele><time>2026-04-04T15:03:51.998Z</time></trkpt><trkpt lat="45.74068721519354" lon="11.225007998374771"><ele>634.8333333333334</ele><time>2026-04-04T15:03:52.998Z</time></trkpt><trkpt lat="45.7407759722321" lon="11.225053624345973"><ele>633.0</ele><time>2026-04-04T15:03:54Z</time></trkpt><trkpt lat="45.74085377719884" lon="11.225109383276973"><ele>633.0</ele><time>2026-04-04T15:03:55Z</time></trkpt><trkpt lat="45.74093532682284" lon="11.225230220605178"><ele>633.0</ele><time>2026-04-04T15:03:56Z</time></trkpt><trkpt lat="45.74099943098254" lon="11.225295780544592"><ele>633.0</ele><time>2026-04-04T15:03:57Z</time></trkpt><trkpt lat="45.741072931947365" lon="11.225313707943712"><ele>633.0</ele><time>2026-04-04T15:03:58Z</time></trkpt><trkpt lat="45.741148052787565" lon="11.225313744804115"><ele>633.0</ele><time>2026-04-04T15:03:59Z</time></trkpt><trkpt lat="45.7412361321035" lon="11.225313188781696"><ele>633.0</ele><time>2026-04-04T15:04:00Z</time></trkpt><trkpt lat="45.741299926472365" lon="11.225297942691803"><ele>630.0</ele><time>2026-04-04T15:04:01Z</time></trkpt><trkpt lat="45.741366240549496" lon="11.225296057187917"><ele>627.0</ele><time>2026-04-04T15:04:11Z</time></trkpt><trkpt lat="45.74143732105882" lon="11.225247311159592"><ele>624.0</ele><time>2026-04-04T15:04:15Z</time></trkpt><trkpt lat="45.74146509819318" lon="11.225334681133127"><ele>621.0</ele><time>2026-04-04T15:04:17Z</time></trkpt><trkpt lat="45.74137609817436" lon="11.2254534654679"><ele>618.0</ele><time>2026-04-04T15:04:19Z</time></trkpt><trkpt lat="45.74129122190714" lon="11.22549465085039"><ele>615.0</ele><time>2026-04-04T15:04:20Z</time></trkpt><trkpt lat="45.74117291236554" lon="11.225547013811504"><ele>615.0</ele><time>2026-04-04T15:04:21Z</time></trkpt><trkpt lat="45.74104956801194" lon="11.225633800992009"><ele>615.0</ele><time>2026-04-04T15:04:22Z</time></trkpt><trkpt lat="45.740974205924665" lon="11.225685689116068"><ele>615.0</ele><time>2026-04-04T15:04:22.999Z</time></trkpt><trkpt lat="45.740913804442265" lon="11.225727650781435"><ele>615.0</ele><time>2026-04-04T15:04:23.999Z</time></trkpt><trkpt lat="45.7408712283256" lon="11.225887306904937"><ele>615.0</ele><time>2026-04-04T15:04:24.999Z</time></trkpt><trkpt lat="45.74082836797671" lon="11.226007508380901"><ele>620.0</ele><time>2026-04-04T15:04:25.999Z</time></trkpt><trkpt lat="45.740732450137735" lon="11.226025319084064"><ele>625.0</ele><time>2026-04-04T15:04:27.999Z</time></trkpt><trkpt lat="45.740664938598876" lon="11.226023104729352"><ele>630.0</ele><time>2026-04-04T15:04:28.999Z</time></trkpt><trkpt lat="45.74057107939575" lon="11.226037221659077"><ele>635.0</ele><time>2026-04-04T15:04:29.999Z</time></trkpt><trkpt lat="45.74045939020264" lon="11.226104931959801"><ele>640.0</ele><time>2026-04-04T15:04:30.999Z</time></trkpt><trkpt lat="45.74032187623084" lon="11.226143430983843"><ele>643.4</ele><time>2026-04-04T15:04:31.999Z</time></trkpt><trkpt lat="45.74021480311117" lon="11.22618637998364"><ele>646.8</ele><time>2026-04-04T15:04:32.999Z</time></trkpt><trkpt lat="45.740095495647886" lon="11.226239239201252"><ele>650.2</ele><time>2026-04-04T15:04:33.999Z</time></trkpt><trkpt lat="45.74002041449637" lon="11.226299283148249"><ele>653.6</ele><time>2026-04-04T15:04:34.999Z</time></trkpt><trkpt lat="45.73996008585915" lon="11.226406997467082"><ele>657.0</ele><time>2026-04-04T15:04:35.999Z</time></trkpt><trkpt lat="45.739885312423105" lon="11.226556665072218"><ele>657.0</ele><time>2026-04-04T15:04:36.999Z</time></trkpt><trkpt lat="45.73981402698065" lon="11.226652603826452"><ele>657.0</ele><time>2026-04-04T15:04:37.999Z</time></trkpt><trkpt lat="45.73973448330792" lon="11.226696890909626"><ele>657.0</ele><time>2026-04-04T15:04:38.999Z</time></trkpt><trkpt lat="45.73964486715598" lon="11.226711836847352"><ele>657.0</ele><time>2026-04-04T15:04:39.999Z</time></trkpt><trkpt lat="45.73959880115572" lon="11.226779503427407"><ele>657.0</ele><time>2026-04-04T15:04:40.999Z</time></trkpt><trkpt lat="45.7396065048142" lon="11.226916697201627"><ele>657.0</ele><time>2026-04-04T15:04:41.999Z</time></trkpt><trkpt lat="45.73959923526425" lon="11.227063913497622"><ele>657.0</ele><time>2026-04-04T15:04:42.999Z</time></trkpt><trkpt lat="45.73953900381858" lon="11.227234740965633"><ele>657.0</ele><time>2026-04-04T15:04:43.999Z</time></trkpt><trkpt lat="45.739501824131985" lon="11.227421435959428"><ele>657.0</ele><time>2026-04-04T15:04:44.999Z</time></trkpt><trkpt lat="45.73950198277534" lon="11.22755569202171"><ele>657.0</ele><time>2026-04-04T15:04:45.999Z</time></trkpt><trkpt lat="45.739445890631174" lon="11.227710878997284"><ele>659.5</ele><time>2026-04-04T15:04:47.999Z</time></trkpt><trkpt lat="45.7393267334467" lon="11.227812251346768"><ele>662.0</ele><time>2026-04-04T15:04:48.999Z</time></trkpt><trkpt lat="45.73917832120267" lon="11.227942849637637"><ele>664.5</ele><time>2026-04-04T15:04:49.999Z</time></trkpt><trkpt lat="45.739084288361504" lon="11.228070325384527"><ele>667.0</ele><time>2026-04-04T15:04:50.999Z</time></trkpt><trkpt lat="45.73902311811214" lon="11.22821890049668"><ele>667.0</ele><time>2026-04-04T15:04:51.999Z</time></trkpt><trkpt lat="45.73897749600667" lon="11.228401914512423"><ele>667.0</ele><time>2026-04-04T15:04:52.999Z</time></trkpt><trkpt lat="45.73896049626985" lon="11.228629808567549"><ele>667.0</ele><time>2026-04-04T15:04:53.999Z</time></trkpt><trkpt lat="45.73893237501621" lon="11.228799076109942"><ele>667.0</ele><time>2026-04-04T15:04:54.999Z</time></trkpt><trkpt lat="45.73893531737506" lon="11.22893112879605"><ele>665.4000000000001</ele><time>2026-04-04T15:04:55.999Z</time></trkpt><trkpt lat="45.73897177299376" lon="11.22908903537255"><ele>663.8000000000001</ele><time>2026-04-04T15:04:56.999Z</time></trkpt><trkpt lat="45.73897186945065" lon="11.229237143865113"><ele>662.2</ele><time>2026-04-04T15:04:57.999Z</time></trkpt><trkpt lat="45.7389693539994" lon="11.229369294766933"><ele>660.6</ele><time>2026-04-04T15:04:58.999Z</time></trkpt><trkpt lat="45.73895953692488" lon="11.229510105146822"><ele>659.0</ele><time>2026-04-04T15:04:59.999Z</time></trkpt><trkpt lat="45.73896254458807" lon="11.229649217680503"><ele>659.0</ele><time>2026-04-04T15:05:00.999Z</time></trkpt><trkpt lat="45.73893867345626" lon="11.229751884298224"><ele>659.0</ele><time>2026-04-04T15:05:01.999Z</time></trkpt><trkpt lat="45.73888129969571" lon="11.229843736700197"><ele>659.0</ele><time>2026-04-04T15:05:02.999Z</time></trkpt><trkpt lat="45.73880456733305" lon="11.229939365459364"><ele>659.0</ele><time>2026-04-04T15:05:03.999Z</time></trkpt><trkpt lat="45.73869579612315" lon="11.230189671583378"><ele>658.6</ele><time>2026-04-04T15:05:04.999Z</time></trkpt><trkpt lat="45.73863839977703" lon="11.2303722177669"><ele>658.2</ele><time>2026-04-04T15:05:05.999Z</time></trkpt><trkpt lat="45.738610613087005" lon="11.230520271262986"><ele>657.8000000000001</ele><time>2026-04-04T15:05:06.999Z</time></trkpt><trkpt lat="45.73858580418847" lon="11.23061675733174"><ele>657.4000000000001</ele><time>2026-04-04T15:05:07.999Z</time></trkpt><trkpt lat="45.73867759522544" lon="11.230578321790404"><ele>657.0</ele><time>2026-04-04T15:05:11.999Z</time></trkpt><trkpt lat="45.73874809556229" lon="11.230476824075604"><ele>657.0</ele><time>2026-04-04T15:05:12.999Z</time></trkpt><trkpt lat="45.73883236580601" lon="11.230347582720924"><ele>657.0</ele><time>2026-04-04T15:05:13.999Z</time></trkpt><trkpt lat="45.738896716954685" lon="11.230240601940304"><ele>657.0</ele><time>2026-04-04T15:05:14.999Z</time></trkpt><trkpt lat="45.738954680648625" lon="11.230170284754012"><ele>657.0</ele><time>2026-04-04T15:05:15.999Z</time></trkpt><trkpt lat="45.73901669560952" lon="11.230144985586541"><ele>657.0</ele><time>2026-04-04T15:05:16.999Z</time></trkpt><trkpt lat="45.73912075515173" lon="11.230329719137096"><ele>657.0</ele><time>2026-04-04T15:05:18.999Z</time></trkpt><trkpt lat="45.73918979542597" lon="11.230428748983206"><ele>657.0</ele><time>2026-04-04T15:05:19.999Z</time></trkpt><trkpt lat="45.73924681698648" lon="11.230502178801276"><ele>657.0</ele><time>2026-04-04T15:05:20.999Z</time></trkpt><trkpt lat="45.739312022803794" lon="11.230534465399119"><ele>657.0</ele><time>2026-04-04T15:05:21.999Z</time></trkpt><trkpt lat="45.73938669219686" lon="11.230524005073056"><ele>657.0</ele><time>2026-04-04T15:05:22.999Z</time></trkpt><trkpt lat="45.739469158214206" lon="11.23047855942949"><ele>657.0</ele><time>2026-04-04T15:05:23.999Z</time></trkpt><trkpt lat="45.73952911566281" lon="11.230436176538854"><ele>652.5</ele><time>2026-04-04T15:05:24.999Z</time></trkpt><trkpt lat="45.73958644032868" lon="11.230301324632622"><ele>648.0</ele><time>2026-04-04T15:05:26.999Z</time></trkpt><trkpt lat="45.73961608159205" lon="11.230197035850205"><ele>643.5</ele><time>2026-04-04T15:05:27.999Z</time></trkpt><trkpt lat="45.73961336880064" lon="11.230081206128858"><ele>639.0</ele><time>2026-04-04T15:05:28.999Z</time></trkpt><trkpt lat="45.73961065486207" lon="11.229950692589208"><ele>634.5</ele><time>2026-04-04T15:05:29.999Z</time></trkpt><trkpt lat="45.739597742263285" lon="11.22983073733042"><ele>630.0</ele><time>2026-04-04T15:05:30.999Z</time></trkpt><trkpt lat="45.73957136870214" lon="11.229721908832811"><ele>629.1666666666666</ele><time>2026-04-04T15:05:31.999Z</time></trkpt><trkpt lat="45.73953868277074" lon="11.229610177472363"><ele>628.3333333333334</ele><time>2026-04-04T15:05:32.998Z</time></trkpt><trkpt lat="45.73952072963644" lon="11.22949094536465"><ele>627.5</ele><time>2026-04-04T15:05:33.998Z</time></trkpt><trkpt lat="45.7395117948429" lon="11.229359894845354"><ele>626.6666666666667</ele><time>2026-04-04T15:05:34.998Z</time></trkpt><trkpt lat="45.73954293291355" lon="11.229259625315374"><ele>625.8333333333334</ele><time>2026-04-04T15:05:35.998Z</time></trkpt><trkpt lat="45.73959329549298" lon="11.22915547733941"><ele>625.0</ele><time>2026-04-04T15:05:36.998Z</time></trkpt><trkpt lat="45.739662395311846" lon="11.22901702398293"><ele>625.6</ele><time>2026-04-04T15:05:37.998Z</time></trkpt><trkpt lat="45.73974933564395" lon="11.228902530851071"><ele>626.2</ele><time>2026-04-04T15:05:38.998Z</time></trkpt><trkpt lat="45.73980915865937" lon="11.228821731684251"><ele>626.8</ele><time>2026-04-04T15:05:39.998Z</time></trkpt><trkpt lat="45.73986215295858" lon="11.228733473448667"><ele>627.4</ele><time>2026-04-04T15:05:40.998Z</time></trkpt><trkpt lat="45.7399030349695" lon="11.22865258435534"><ele>628.0</ele><time>2026-04-04T15:05:41.998Z</time></trkpt><trkpt lat="45.73995967870699" lon="11.22850706307604"><ele>628.0</ele><time>2026-04-04T15:05:43.998Z</time></trkpt><trkpt lat="45.739988629636706" lon="11.22842428010604"><ele>628.0</ele><time>2026-04-04T15:05:44.998Z</time></trkpt><trkpt lat="45.740010817334856" lon="11.228304569513508"><ele>628.0</ele><time>2026-04-04T15:05:45.998Z</time></trkpt><trkpt lat="45.74003834228987" lon="11.22817872558077"><ele>628.0</ele><time>2026-04-04T15:05:46.998Z</time></trkpt><trkpt lat="45.74006920392067" lon="11.22808598948039"><ele>628.0</ele><time>2026-04-04T15:05:47.998Z</time></trkpt><trkpt lat="45.74010178261226" lon="11.227953103060825"><ele>628.0</ele><time>2026-04-04T15:05:49.998Z</time></trkpt><trkpt lat="45.740174944392784" lon="11.228013616029765"><ele>628.0</ele><time>2026-04-04T15:05:51.998Z</time></trkpt><trkpt lat="45.74021214675756" lon="11.22819471339462"><ele>628.0</ele><time>2026-04-04T15:05:53.998Z</time></trkpt><trkpt lat="45.74022483001059" lon="11.22830321860785"><ele>628.0</ele><time>2026-04-04T15:05:54.998Z</time></trkpt><trkpt lat="45.74025146431244" lon="11.228405816911852"><ele>628.0</ele><time>2026-04-04T15:05:55.998Z</time></trkpt><trkpt lat="45.74031716452672" lon="11.228546949642624"><ele>628.0</ele><time>2026-04-04T15:05:57.998Z</time></trkpt><trkpt lat="45.74033264011776" lon="11.228646406923954"><ele>622.8333333333334</ele><time>2026-04-04T15:05:58.998Z</time></trkpt><trkpt lat="45.74036459764678" lon="11.228760543658726"><ele>617.6666666666667</ele><time>2026-04-04T15:06:00Z</time></trkpt><trkpt lat="45.740394099748514" lon="11.22887443264611"><ele>612.5</ele><time>2026-04-04T15:06:01Z</time></trkpt><trkpt lat="45.74042377377313" lon="11.22895803376843"><ele>607.3333333333334</ele><time>2026-04-04T15:06:02Z</time></trkpt><trkpt lat="45.740459738433564" lon="11.229037317166895"><ele>602.1666666666666</ele><time>2026-04-04T15:06:03Z</time></trkpt><trkpt lat="45.740476865540735" lon="11.22913754655866"><ele>597.0</ele><time>2026-04-04T15:06:04Z</time></trkpt><trkpt lat="45.74048303889668" lon="11.229257832983034"><ele>596.1666666666666</ele><time>2026-04-04T15:06:05Z</time></trkpt><trkpt lat="45.740500654115024" lon="11.229388879037817"><ele>595.3333333333334</ele><time>2026-04-04T15:06:06Z</time></trkpt><trkpt lat="45.74052603677914" lon="11.22949745711151"><ele>594.5</ele><time>2026-04-04T15:06:07Z</time></trkpt><trkpt lat="45.740531914106555" lon="11.229590322729251"><ele>593.6666666666667</ele><time>2026-04-04T15:06:08Z</time></trkpt><trkpt lat="45.74054012132338" lon="11.229711688590873"><ele>592.8333333333334</ele><time>2026-04-04T15:06:09Z</time></trkpt><trkpt lat="45.74054083581357" lon="11.229847030699345"><ele>592.0</ele><time>2026-04-04T15:06:10Z</time></trkpt><trkpt lat="45.74052382889961" lon="11.22996596450779"><ele>591.6666666666667</ele><time>2026-04-04T15:06:11Z</time></trkpt><trkpt lat="45.74052059144852" lon="11.230074142457436"><ele>591.3333333333334</ele><time>2026-04-04T15:06:12Z</time></trkpt><trkpt lat="45.74053658414471" lon="11.23016388640166"><ele>591.0</ele><time>2026-04-04T15:06:13Z</time></trkpt><trkpt lat="45.74058592676236" lon="11.230254959188304"><ele>590.6666666666666</ele><time>2026-04-04T15:06:14Z</time></trkpt><trkpt lat="45.74063556514045" lon="11.230343914934034"><ele>590.3333333333333</ele><time>2026-04-04T15:06:15Z</time></trkpt><trkpt lat="45.74062832007312" lon="11.230452259216523"><ele>590.0</ele><time>2026-04-04T15:06:16Z</time></trkpt><trkpt lat="45.74063687884875" lon="11.230599559065368"><ele>590.3333333333333</ele><time>2026-04-04T15:06:17Z</time></trkpt><trkpt lat="45.74068526611221" lon="11.230730712711567"><ele>590.6666666666666</ele><time>2026-04-04T15:06:18Z</time></trkpt><trkpt lat="45.74073254283832" lon="11.23081258067638"><ele>591.0</ele><time>2026-04-04T15:06:19Z</time></trkpt><trkpt lat="45.74073164597755" lon="11.230906215954938"><ele>591.3333333333334</ele><time>2026-04-04T15:06:20Z</time></trkpt><trkpt lat="45.74072299035286" lon="11.231041842755682"><ele>591.6666666666667</ele><time>2026-04-04T15:06:21Z</time></trkpt><trkpt lat="45.74074440725978" lon="11.231191917489777"><ele>592.0</ele><time>2026-04-04T15:06:22Z</time></trkpt><trkpt lat="45.74075892163578" lon="11.231331202741286"><ele>591.8333333333334</ele><time>2026-04-04T15:06:23Z</time></trkpt><trkpt lat="45.740712722124165" lon="11.23148755660536"><ele>591.6666666666667</ele><time>2026-04-04T15:06:25Z</time></trkpt><trkpt lat="45.74066156745476" lon="11.231569326223886"><ele>591.5</ele><time>2026-04-04T15:06:26Z</time></trkpt><trkpt lat="45.740583582844856" lon="11.23163919527752"><ele>591.3333333333334</ele><time>2026-04-04T15:06:27Z</time></trkpt><trkpt lat="45.740504299431294" lon="11.231677663524396"><ele>591.1666666666666</ele><time>2026-04-04T15:06:28Z</time></trkpt><trkpt lat="45.74043275942133" lon="11.23167380546648"><ele>591.0</ele><time>2026-04-04T15:06:29Z</time></trkpt><trkpt lat="45.7403265686544" lon="11.231691952681805"><ele>591.0</ele><time>2026-04-04T15:06:31Z</time></trkpt><trkpt lat="45.74027166760109" lon="11.231773329996324"><ele>591.0</ele><time>2026-04-04T15:06:32Z</time></trkpt><trkpt lat="45.74029068900242" lon="11.231897684273203"><ele>591.0</ele><time>2026-04-04T15:06:34Z</time></trkpt><trkpt lat="45.740368249275065" lon="11.232114386657512"><ele>591.0</ele><time>2026-04-04T15:06:36Z</time></trkpt><trkpt lat="45.74042125284158" lon="11.232290778778575"><ele>589.6</ele><time>2026-04-04T15:06:36.999Z</time></trkpt><trkpt lat="45.74048294545285" lon="11.232486481654243"><ele>588.2</ele><time>2026-04-04T15:06:37.999Z</time></trkpt><trkpt lat="45.74052562372411" lon="11.232602942084569"><ele>586.8</ele><time>2026-04-04T15:06:38.999Z</time></trkpt><trkpt lat="45.74051647077026" lon="11.232697415371291"><ele>585.4</ele><time>2026-04-04T15:06:39.999Z</time></trkpt><trkpt lat="45.74050869231018" lon="11.232819765239926"><ele>584.0</ele><time>2026-04-04T15:06:40.999Z</time></trkpt><trkpt lat="45.740483935631275" lon="11.232923363465218"><ele>584.0</ele><time>2026-04-04T15:06:41.999Z</time></trkpt><trkpt lat="45.740419499710384" lon="11.233046443213142"><ele>584.0</ele><time>2026-04-04T15:06:42.999Z</time></trkpt><trkpt lat="45.74035436874372" lon="11.233188705735289"><ele>584.0</ele><time>2026-04-04T15:06:43.999Z</time></trkpt><trkpt lat="45.74028731196498" lon="11.233250133743299"><ele>584.0</ele><time>2026-04-04T15:06:44.999Z</time></trkpt><trkpt lat="45.740209442636775" lon="11.23328951101713"><ele>584.0</ele><time>2026-04-04T15:06:45.999Z</time></trkpt><trkpt lat="45.740125716626665" lon="11.233408288122455"><ele>584.0</ele><time>2026-04-04T15:06:46.999Z</time></trkpt><trkpt lat="45.740161403193255" lon="11.233495521333218"><ele>584.0</ele><time>2026-04-04T15:06:48.999Z</time></trkpt><trkpt lat="45.74023480485993" lon="11.23355086276697"><ele>584.0</ele><time>2026-04-04T15:06:49.999Z</time></trkpt><trkpt lat="45.740335054959594" lon="11.233616148856209"><ele>584.0</ele><time>2026-04-04T15:06:50.999Z</time></trkpt><trkpt lat="45.7404101740192" lon="11.23364493030274"><ele>584.0</ele><time>2026-04-04T15:06:51.999Z</time></trkpt><trkpt lat="45.74049698396588" lon="11.233632875416806"><ele>584.0</ele><time>2026-04-04T15:06:52.999Z</time></trkpt><trkpt lat="45.74059378618218" lon="11.233654998898631"><ele>584.0</ele><time>2026-04-04T15:06:53.999Z</time></trkpt><trkpt lat="45.740695374458525" lon="11.233729231141925"><ele>584.0</ele><time>2026-04-04T15:06:54.999Z</time></trkpt><trkpt lat="45.74080937272472" lon="11.233894177085405"><ele>584.0</ele><time>2026-04-04T15:06:55.999Z</time></trkpt><trkpt lat="45.74092960764489" lon="11.23401088159202"><ele>584.0</ele><time>2026-04-04T15:06:56.999Z</time></trkpt><trkpt lat="45.74103935218573" lon="11.234200970912136"><ele>580.6666666666666</ele><time>2026-04-04T15:06:57.999Z</time></trkpt><trkpt lat="45.741107710531836" lon="11.234320673383671"><ele>577.3333333333333</ele><time>2026-04-04T15:06:58.999Z</time></trkpt><trkpt lat="45.74117617930809" lon="11.234408075545801"><ele>574.0</ele><time>2026-04-04T15:06:59.999Z</time></trkpt><trkpt lat="45.74121540233042" lon="11.234501351642544"><ele>570.6666666666666</ele><time>2026-04-04T15:07:00.999Z</time></trkpt><trkpt lat="45.7412190975748" lon="11.23462286676456"><ele>567.3333333333334</ele><time>2026-04-04T15:07:01.999Z</time></trkpt><trkpt lat="45.74118474651349" lon="11.234700575339435"><ele>564.0</ele><time>2026-04-04T15:07:02.999Z</time></trkpt><trkpt lat="45.74112212715102" lon="11.234762828560898"><ele>572.6</ele><time>2026-04-04T15:07:03.999Z</time></trkpt><trkpt lat="45.74104087591692" lon="11.234828494188342"><ele>581.2</ele><time>2026-04-04T15:07:04.999Z</time></trkpt><trkpt lat="45.74098529012645" lon="11.234890321096604"><ele>589.8000000000001</ele><time>2026-04-04T15:07:05.999Z</time></trkpt><trkpt lat="45.74098018459341" lon="11.234988753677579"><ele>598.4</ele><time>2026-04-04T15:07:06.999Z</time></trkpt><trkpt lat="45.74099337443369" lon="11.235128973422624"><ele>607.0</ele><time>2026-04-04T15:07:07.999Z</time></trkpt><trkpt lat="45.741037076234576" lon="11.235311994981434"><ele>607.0</ele><time>2026-04-04T15:07:08.999Z</time></trkpt><trkpt lat="45.7410281134738" lon="11.235480347491107"><ele>607.0</ele><time>2026-04-04T15:07:09.999Z</time></trkpt><trkpt lat="45.74104169572103" lon="11.235596494161108"><ele>607.0</ele><time>2026-04-04T15:07:10.999Z</time></trkpt><trkpt lat="45.74112212043851" lon="11.235693502008461"><ele>607.0</ele><time>2026-04-04T15:07:11.999Z</time></trkpt><trkpt lat="45.74118544514214" lon="11.23577728797638"><ele>607.0</ele><time>2026-04-04T15:07:12.999Z</time></trkpt><trkpt lat="45.74121631940051" lon="11.235880308382256"><ele>596.4</ele><time>2026-04-04T15:07:13.999Z</time></trkpt><trkpt lat="45.74120713421128" lon="11.236021230386813"><ele>585.8000000000001</ele><time>2026-04-04T15:07:14.999Z</time></trkpt><trkpt lat="45.74117515488398" lon="11.236212325742153"><ele>575.2</ele><time>2026-04-04T15:07:15.999Z</time></trkpt><trkpt lat="45.74114686699821" lon="11.236311133210123"><ele>564.6</ele><time>2026-04-04T15:07:16.999Z</time></trkpt><trkpt lat="45.74110901874965" lon="11.23639560636309"><ele>554.0</ele><time>2026-04-04T15:07:17.999Z</time></trkpt><trkpt lat="45.74105322596986" lon="11.236458633546361"><ele>560.2</ele><time>2026-04-04T15:07:18.999Z</time></trkpt><trkpt lat="45.740968608103245" lon="11.236518871382703"><ele>566.4</ele><time>2026-04-04T15:07:19.999Z</time></trkpt><trkpt lat="45.740868068056805" lon="11.236584359791719"><ele>572.6</ele><time>2026-04-04T15:07:20.999Z</time></trkpt><trkpt lat="45.74081015811719" lon="11.236649787297976"><ele>578.8</ele><time>2026-04-04T15:07:21.999Z</time></trkpt><trkpt lat="45.74077669215696" lon="11.236740173067703"><ele>585.0</ele><time>2026-04-04T15:07:22.999Z</time></trkpt><trkpt lat="45.74074006127887" lon="11.236909734929979"><ele>585.0</ele><time>2026-04-04T15:07:23.999Z</time></trkpt><trkpt lat="45.74067654783864" lon="11.23712940037828"><ele>585.0</ele><time>2026-04-04T15:07:24.999Z</time></trkpt><trkpt lat="45.74059765817544" lon="11.237338787600471"><ele>585.0</ele><time>2026-04-04T15:07:25.999Z</time></trkpt><trkpt lat="45.74051768713525" lon="11.237487396470646"><ele>579.8</ele><time>2026-04-04T15:07:26.999Z</time></trkpt><trkpt lat="45.74043243049637" lon="11.237638725588987"><ele>574.6</ele><time>2026-04-04T15:07:27.999Z</time></trkpt><trkpt lat="45.74038414896714" lon="11.237723648167261"><ele>569.4</ele><time>2026-04-04T15:07:28.999Z</time></trkpt><trkpt lat="45.74037716853518" lon="11.237859728134953"><ele>564.2</ele><time>2026-04-04T15:07:30.999Z</time></trkpt><trkpt lat="45.74047969943797" lon="11.237997624398043"><ele>559.0</ele><time>2026-04-04T15:07:32.999Z</time></trkpt><trkpt lat="45.74050925433027" lon="11.238108450130994"><ele>556.25</ele><time>2026-04-04T15:07:33.999Z</time></trkpt><trkpt lat="45.740514523256195" lon="11.238256001182076"><ele>553.5</ele><time>2026-04-04T15:07:34.999Z</time></trkpt><trkpt lat="45.74051489891691" lon="11.238447198417656"><ele>550.75</ele><time>2026-04-04T15:07:35.999Z</time></trkpt><trkpt lat="45.74053611506667" lon="11.238716879441553"><ele>548.0</ele><time>2026-04-04T15:07:36.999Z</time></trkpt><trkpt lat="45.740553431427834" lon="11.238997570951062"><ele>547.8</ele><time>2026-04-04T15:07:37.999Z</time></trkpt><trkpt lat="45.7405469388025" lon="11.23920268205821"><ele>547.5999999999999</ele><time>2026-04-04T15:07:38.998Z</time></trkpt><trkpt lat="45.74053868742557" lon="11.239318566489455"><ele>547.4000000000001</ele><time>2026-04-04T15:07:39.998Z</time></trkpt><trkpt lat="45.740508681212766" lon="11.239433006653611"><ele>547.2</ele><time>2026-04-04T15:07:40.998Z</time></trkpt><trkpt lat="45.74049743101477" lon="11.239594113847076"><ele>547.0</ele><time>2026-04-04T15:07:41.998Z</time></trkpt><trkpt lat="45.74048616197222" lon="11.239805794278771"><ele>547.0</ele><time>2026-04-04T15:07:42.998Z</time></trkpt><trkpt lat="45.74051429097127" lon="11.240041750823789"><ele>547.0</ele><time>2026-04-04T15:07:43.998Z</time></trkpt><trkpt lat="45.74056397964338" lon="11.240220578862283"><ele>547.0</ele><time>2026-04-04T15:07:44.998Z</time></trkpt><trkpt lat="45.740594452405375" lon="11.24039227333742"><ele>547.0</ele><time>2026-04-04T15:07:45.998Z</time></trkpt><trkpt lat="45.74060485099477" lon="11.240556367985288"><ele>547.0</ele><time>2026-04-04T15:07:46.998Z</time></trkpt><trkpt lat="45.740623435381075" lon="11.240675879035708"><ele>547.0</ele><time>2026-04-04T15:07:47.998Z</time></trkpt><trkpt lat="45.74064107163632" lon="11.240800152111959"><ele>547.0</ele><time>2026-04-04T15:07:48.998Z</time></trkpt><trkpt lat="45.74064975752594" lon="11.240923350024234"><ele>547.0</ele><time>2026-04-04T15:07:49.998Z</time></trkpt><trkpt lat="45.7406588082904" lon="11.241061847967028"><ele>547.0</ele><time>2026-04-04T15:07:50.998Z</time></trkpt><trkpt lat="45.74066287328887" lon="11.241171041842843"><ele>547.0</ele><time>2026-04-04T15:07:51.998Z</time></trkpt><trkpt lat="45.740680699798894" lon="11.241276307979527"><ele>547.0</ele><time>2026-04-04T15:07:55.998Z</time></trkpt><trkpt lat="45.740693145207224" lon="11.241445883542605"><ele>547.0</ele><time>2026-04-04T15:07:57.998Z</time></trkpt><trkpt lat="45.740702209140146" lon="11.241559365253735"><ele>547.0</ele><time>2026-04-04T15:07:58.998Z</time></trkpt><trkpt lat="45.74071066489885" lon="11.24166523253243"><ele>547.0</ele><time>2026-04-04T15:07:59.998Z</time></trkpt><trkpt lat="45.74071807232383" lon="11.241757974489795"><ele>547.0</ele><time>2026-04-04T15:08:00.998Z</time></trkpt><trkpt lat="45.740728642384475" lon="11.241890313084633"><ele>547.0</ele><time>2026-04-04T15:08:02.998Z</time></trkpt><trkpt lat="45.74095621669055" lon="11.241886067021735"><ele>547.1666666666667</ele><time>2026-04-04T15:08:03.998Z</time></trkpt><trkpt lat="45.74090830859932" lon="11.241959584470475"><ele>547.3333333333334</ele><time>2026-04-04T15:08:07Z</time></trkpt><trkpt lat="45.74086670274567" lon="11.242027954250437"><ele>547.5</ele><time>2026-04-04T15:08:10Z</time></trkpt><trkpt lat="45.740858867397364" lon="11.24216128308794"><ele>547.6666666666666</ele><time>2026-04-04T15:08:12Z</time></trkpt><trkpt lat="45.74092439072387" lon="11.242340061439528"><ele>547.8333333333333</ele><time>2026-04-04T15:08:14Z</time></trkpt><trkpt lat="45.740985969692694" lon="11.242372210293123"><ele>548.0</ele><time>2026-04-04T15:08:15Z</time></trkpt><trkpt lat="45.741077231000425" lon="11.24248052853497"><ele>540.4</ele><time>2026-04-04T15:08:17Z</time></trkpt><trkpt lat="45.74110943245776" lon="11.242574159315772"><ele>532.8</ele><time>2026-04-04T15:08:18Z</time></trkpt><trkpt lat="45.741153381790184" lon="11.242645409320488"><ele>525.2</ele><time>2026-04-04T15:08:19Z</time></trkpt><trkpt lat="45.74123752340212" lon="11.242815247446398"><ele>517.6</ele><time>2026-04-04T15:08:21Z</time></trkpt><trkpt lat="45.74127216283717" lon="11.24290774492466"><ele>510.0</ele><time>2026-04-04T15:08:22Z</time></trkpt><trkpt lat="45.741277287340985" lon="11.24308795663679"><ele>512.8</ele><time>2026-04-04T15:08:24Z</time></trkpt><trkpt lat="45.74132565344057" lon="11.243232560728108"><ele>515.6</ele><time>2026-04-04T15:08:26Z</time></trkpt><trkpt lat="45.7414227247938" lon="11.243309575161815"><ele>518.4</ele><time>2026-04-04T15:08:28Z</time></trkpt><trkpt lat="45.74148900904498" lon="11.243307243704452"><ele>521.2</ele><time>2026-04-04T15:08:29Z</time></trkpt><trkpt lat="45.741574331081374" lon="11.243308222621224"><ele>524.0</ele><time>2026-04-04T15:08:30Z</time></trkpt><trkpt lat="45.74165658250159" lon="11.243327243435184"><ele>524.0</ele><time>2026-04-04T15:08:31Z</time></trkpt><trkpt lat="45.74171334310616" lon="11.243454652685227"><ele>524.0</ele><time>2026-04-04T15:08:33Z</time></trkpt><trkpt lat="45.74171978631589" lon="11.243558775151161"><ele>524.0</ele><time>2026-04-04T15:08:34Z</time></trkpt><trkpt lat="45.74170987023648" lon="11.243680401726857"><ele>524.0</ele><time>2026-04-04T15:08:35Z</time></trkpt><trkpt lat="45.7416960430011" lon="11.2438204023786"><ele>524.0</ele><time>2026-04-04T15:08:36Z</time></trkpt><trkpt lat="45.7416931235055" lon="11.243931601013859"><ele>524.0</ele><time>2026-04-04T15:08:37Z</time></trkpt><trkpt lat="45.741699432084324" lon="11.244038522734622"><ele>524.5</ele><time>2026-04-04T15:08:38Z</time></trkpt><trkpt lat="45.74170858125241" lon="11.244148941553844"><ele>525.0</ele><time>2026-04-04T15:08:39Z</time></trkpt><trkpt lat="45.741736836641145" lon="11.244237739568103"><ele>525.5</ele><time>2026-04-04T15:08:40Z</time></trkpt><trkpt lat="45.74179100313259" lon="11.24435383716842"><ele>526.0</ele><time>2026-04-04T15:08:40.999Z</time></trkpt><trkpt lat="45.74184648154867" lon="11.244477330112273"><ele>526.5</ele><time>2026-04-04T15:08:41.999Z</time></trkpt><trkpt lat="45.7418957949222" lon="11.244594390589999"><ele>527.0</ele><time>2026-04-04T15:08:42.999Z</time></trkpt><trkpt lat="45.741965480031816" lon="11.244689337112854"><ele>519.0</ele><time>2026-04-04T15:08:43.999Z</time></trkpt><trkpt lat="45.742013296929755" lon="11.244777345660635"><ele>511.00000000000006</ele><time>2026-04-04T15:08:44.999Z</time></trkpt><trkpt lat="45.74204110986672" lon="11.24492015826322"><ele>503.00000000000006</ele><time>2026-04-04T15:08:45.999Z</time></trkpt><trkpt lat="45.74205048704176" lon="11.245077658898753"><ele>495.0</ele><time>2026-04-04T15:08:46.999Z</time></trkpt><trkpt lat="45.74205319934767" lon="11.24521252965961"><ele>487.0</ele><time>2026-04-04T15:08:47.999Z</time></trkpt><trkpt lat="45.74207104648167" lon="11.245319894767139"><ele>487.0</ele><time>2026-04-04T15:08:48.999Z</time></trkpt><trkpt lat="45.74210007701055" lon="11.245429806839201"><ele>487.00000000000006</ele><time>2026-04-04T15:08:49.999Z</time></trkpt><trkpt lat="45.742134985347114" lon="11.245541523894424"><ele>487.00000000000006</ele><time>2026-04-04T15:08:50.999Z</time></trkpt><trkpt lat="45.742170499131404" lon="11.245687395048073"><ele>487.0</ele><time>2026-04-04T15:08:52.999Z</time></trkpt><trkpt lat="45.742245432598175" lon="11.245622942622177"><ele>487.0</ele><time>2026-04-04T15:08:55.999Z</time></trkpt><trkpt lat="45.74225065923778" lon="11.245391509760173"><ele>487.00000000000006</ele><time>2026-04-04T15:08:57.999Z</time></trkpt><trkpt lat="45.742291145044845" lon="11.245276497504467"><ele>487.0</ele><time>2026-04-04T15:08:59.999Z</time></trkpt><trkpt lat="45.742355026934725" lon="11.245308240495678"><ele>487.0</ele><time>2026-04-04T15:09:01.999Z</time></trkpt><trkpt lat="45.74238884118625" lon="11.245503643981236"><ele>487.0</ele><time>2026-04-04T15:09:03.999Z</time></trkpt><trkpt lat="45.74243753620298" lon="11.245580231926454"><ele>487.00000000000006</ele><time>2026-04-04T15:09:04.999Z</time></trkpt><trkpt lat="45.742489335329076" lon="11.245656765741474"><ele>487.0</ele><time>2026-04-04T15:09:05.999Z</time></trkpt><trkpt lat="45.742540306889886" lon="11.245748076040888"><ele>487.40000000000003</ele><time>2026-04-04T15:09:06.999Z</time></trkpt><trkpt lat="45.742599031706014" lon="11.245908507397358"><ele>487.80000000000007</ele><time>2026-04-04T15:09:07.999Z</time></trkpt><trkpt lat="45.742642691493835" lon="11.246086641963217"><ele>488.2</ele><time>2026-04-04T15:09:08.999Z</time></trkpt><trkpt lat="45.74263369230605" lon="11.246200472646594"><ele>488.6</ele><time>2026-04-04T15:09:09.999Z</time></trkpt><trkpt lat="45.74263820011603" lon="11.246355718528834"><ele>489.0</ele><time>2026-04-04T15:09:11.999Z</time></trkpt><trkpt lat="45.74256852197642" lon="11.246498573027486"><ele>487.25</ele><time>2026-04-04T15:09:12.999Z</time></trkpt><trkpt lat="45.742482512406326" lon="11.246645307253528"><ele>485.5</ele><time>2026-04-04T15:09:13.999Z</time></trkpt><trkpt lat="45.74240489060074" lon="11.246802550652555"><ele>483.75</ele><time>2026-04-04T15:09:14.999Z</time></trkpt><trkpt lat="45.74229707048909" lon="11.24695156179823"><ele>482.0</ele><time>2026-04-04T15:09:15.999Z</time></trkpt><trkpt lat="45.74220004802236" lon="11.247058152793404"><ele>482.0</ele><time>2026-04-04T15:09:16.999Z</time></trkpt><trkpt lat="45.742113955350504" lon="11.247217670485853"><ele>482.00000000000006</ele><time>2026-04-04T15:09:17.999Z</time></trkpt><trkpt lat="45.74205434357749" lon="11.247326694687711"><ele>482.00000000000006</ele><time>2026-04-04T15:09:18.999Z</time></trkpt><trkpt lat="45.7420234698131" lon="11.247442845252584"><ele>482.0</ele><time>2026-04-04T15:09:19.999Z</time></trkpt><trkpt lat="45.741972723048015" lon="11.247520548066793"><ele>482.0</ele><time>2026-04-04T15:09:20.999Z</time></trkpt><trkpt lat="45.74189259450634" lon="11.247659217123587"><ele>479.99999999999994</ele><time>2026-04-04T15:09:22.999Z</time></trkpt><trkpt lat="45.74184730481328" lon="11.247726100435498"><ele>478.0</ele><time>2026-04-04T15:09:23.999Z</time></trkpt><trkpt lat="45.74177932336179" lon="11.247801384947536"><ele>476.0</ele><time>2026-04-04T15:09:25.999Z</time></trkpt><trkpt lat="45.741790764816784" lon="11.247970342433309"><ele>474.0</ele><time>2026-04-04T15:09:27.999Z</time></trkpt><trkpt lat="45.74179234432312" lon="11.248077804306654"><ele>471.99999999999994</ele><time>2026-04-04T15:09:28.999Z</time></trkpt><trkpt lat="45.7417596317313" lon="11.248174327605604"><ele>470.0</ele><time>2026-04-04T15:09:29.999Z</time></trkpt><trkpt lat="45.741734234754794" lon="11.248272025918016"><ele>468.0</ele><time>2026-04-04T15:09:30.999Z</time></trkpt><trkpt lat="45.74170436325996" lon="11.24836266485239"><ele>465.99999999999994</ele><time>2026-04-04T15:09:31.999Z</time></trkpt><trkpt lat="45.7416709732237" lon="11.248454067312302"><ele>464.0</ele><time>2026-04-04T15:09:32.999Z</time></trkpt><trkpt lat="45.74163945701508" lon="11.248532304736784"><ele>462.0</ele><time>2026-04-04T15:09:33.999Z</time></trkpt><trkpt lat="45.74160679724795" lon="11.248612225225799"><ele>459.99999999999994</ele><time>2026-04-04T15:09:34.999Z</time></trkpt><trkpt lat="45.74157303682177" lon="11.248690806638951"><ele>458.0</ele><time>2026-04-04T15:09:35.999Z</time></trkpt><trkpt lat="45.74153344533522" lon="11.248768685093804"><ele>456.0</ele><time>2026-04-04T15:09:36.999Z</time></trkpt><trkpt lat="45.74149068353353" lon="11.248847576783035"><ele>456.0</ele><time>2026-04-04T15:09:37.999Z</time></trkpt><trkpt lat="45.74144513872053" lon="11.248929175023765"><ele>455.99999999999994</ele><time>2026-04-04T15:09:38.999Z</time></trkpt><trkpt lat="45.741402277027454" lon="11.249005966199729"><ele>456.0</ele><time>2026-04-04T15:09:39.999Z</time></trkpt><trkpt lat="45.741358722144746" lon="11.249088256440833"><ele>456.0</ele><time>2026-04-04T15:09:40.999Z</time></trkpt><trkpt lat="45.741324681994044" lon="11.249183474642779"><ele>455.99999999999994</ele><time>2026-04-04T15:09:41.998Z</time></trkpt><trkpt lat="45.741288819651984" lon="11.24928079538817"><ele>456.0</ele><time>2026-04-04T15:09:42.998Z</time></trkpt><trkpt lat="45.74128119314388" lon="11.24938837621021"><ele>456.0</ele><time>2026-04-04T15:09:43.998Z</time></trkpt><trkpt lat="45.74130527226042" lon="11.249501972856695"><ele>455.1666666666667</ele><time>2026-04-04T15:09:44.998Z</time></trkpt><trkpt lat="45.741352881172965" lon="11.249617853795364"><ele>454.33333333333337</ele><time>2026-04-04T15:09:45.998Z</time></trkpt><trkpt lat="45.74139935603331" lon="11.249719802113367"><ele>453.5</ele><time>2026-04-04T15:09:46.998Z</time></trkpt><trkpt lat="45.74143994547695" lon="11.249818410878014"><ele>452.6666666666667</ele><time>2026-04-04T15:09:47.998Z</time></trkpt><trkpt lat="45.74148887829856" lon="11.249896165404397"><ele>451.83333333333337</ele><time>2026-04-04T15:09:48.998Z</time></trkpt><trkpt lat="45.74155486227986" lon="11.249920887912738"><ele>451.0</ele><time>2026-04-04T15:09:49.998Z</time></trkpt><trkpt lat="45.74162476640267" lon="11.249877583303439"><ele>451.00000000000006</ele><time>2026-04-04T15:09:50.998Z</time></trkpt><trkpt lat="45.74167561892036" lon="11.249793837163715"><ele>451.0</ele><time>2026-04-04T15:09:51.998Z</time></trkpt><trkpt lat="45.741709859160686" lon="11.249705509445475"><ele>451.0</ele><time>2026-04-04T15:09:52.998Z</time></trkpt><trkpt lat="45.74176013912963" lon="11.249644910464614"><ele>451.0</ele><time>2026-04-04T15:09:53.998Z</time></trkpt><trkpt lat="45.74183294323323" lon="11.249661295974379"><ele>451.00000000000006</ele><time>2026-04-04T15:09:54.998Z</time></trkpt><trkpt lat="45.741882861205745" lon="11.249763569352414"><ele>451.0</ele><time>2026-04-04T15:09:55.998Z</time></trkpt><trkpt lat="45.74186128487138" lon="11.249904394724043"><ele>448.75</ele><time>2026-04-04T15:09:56.998Z</time></trkpt><trkpt lat="45.74179250549669" lon="11.250034241564691"><ele>446.5</ele><time>2026-04-04T15:09:57.998Z</time></trkpt><trkpt lat="45.74174086479714" lon="11.250222792882342"><ele>444.25</ele><time>2026-04-04T15:09:58.998Z</time></trkpt><trkpt lat="45.74164656115181" lon="11.250386565115333"><ele>442.0</ele><time>2026-04-04T15:09:59.998Z</time></trkpt><trkpt lat="45.741518391003076" lon="11.250466621240504"><ele>442.0</ele><time>2026-04-04T15:10:00.998Z</time></trkpt><trkpt lat="45.74139978923732" lon="11.250561314015089"><ele>442.00000000000006</ele><time>2026-04-04T15:10:01.998Z</time></trkpt><trkpt lat="45.74132117310862" lon="11.250639645013166"><ele>442.00000000000006</ele><time>2026-04-04T15:10:02.998Z</time></trkpt><trkpt lat="45.741251290541236" lon="11.250719400155605"><ele>442.0</ele><time>2026-04-04T15:10:04.998Z</time></trkpt><trkpt lat="45.74128914990835" lon="11.250643805712615"><ele>442.0</ele><time>2026-04-04T15:10:09.998Z</time></trkpt><trkpt lat="45.74126991531293" lon="11.25036643032326"><ele>442.0</ele><time>2026-04-04T15:10:12Z</time></trkpt><trkpt lat="45.741252164457364" lon="11.250219214788379"><ele>442.00000000000006</ele><time>2026-04-04T15:10:14Z</time></trkpt><trkpt lat="45.74121907932572" lon="11.250109843465015"><ele>442.00000000000006</ele><time>2026-04-04T15:10:15Z</time></trkpt><trkpt lat="45.741118416400504" lon="11.250007461754924"><ele>442.0</ele><time>2026-04-04T15:10:17Z</time></trkpt><trkpt lat="45.741053302493334" lon="11.24987858132757"><ele>442.0</ele><time>2026-04-04T15:10:19Z</time></trkpt><trkpt lat="45.740963913056795" lon="11.249765377572572"><ele>439.0</ele><time>2026-04-04T15:10:21Z</time></trkpt><trkpt lat="45.74089331436596" lon="11.249721124728392"><ele>436.00000000000006</ele><time>2026-04-04T15:10:22Z</time></trkpt><trkpt lat="45.74085878217623" lon="11.249562648272898"><ele>433.00000000000006</ele><time>2026-04-04T15:10:24Z</time></trkpt><trkpt lat="45.74084371228957" lon="11.24945094223113"><ele>430.0</ele><time>2026-04-04T15:10:26Z</time></trkpt><trkpt lat="45.74072211107392" lon="11.249369408568482"><ele>427.0</ele><time>2026-04-04T15:10:28Z</time></trkpt><trkpt lat="45.740657541857374" lon="11.249251402461844"><ele>427.00000000000006</ele><time>2026-04-04T15:10:30Z</time></trkpt><trkpt lat="45.74064149197929" lon="11.24916039416838"><ele>427.0</ele><time>2026-04-04T15:10:31Z</time></trkpt><trkpt lat="45.74058945057132" lon="11.24909666340921"><ele>427.0</ele><time>2026-04-04T15:10:32Z</time></trkpt><trkpt lat="45.74050453838753" lon="11.249032999553833"><ele>427.0</ele><time>2026-04-04T15:10:33Z</time></trkpt><trkpt lat="45.740472533198954" lon="11.248935167856098"><ele>427.00000000000006</ele><time>2026-04-04T15:10:35Z</time></trkpt><trkpt lat="45.74050047559113" lon="11.248805832997341"><ele>427.0</ele><time>2026-04-04T15:10:37Z</time></trkpt><trkpt lat="45.7405092664409" lon="11.248657283282018"><ele>426.25</ele><time>2026-04-04T15:10:38Z</time></trkpt><trkpt lat="45.740497897911865" lon="11.248501162688822"><ele>425.5</ele><time>2026-04-04T15:10:39Z</time></trkpt><trkpt lat="45.740457942803175" lon="11.24837102388533"><ele>424.75</ele><time>2026-04-04T15:10:40Z</time></trkpt><trkpt lat="45.74040878201372" lon="11.248214279844637"><ele>424.0</ele><time>2026-04-04T15:10:41Z</time></trkpt><trkpt lat="45.74036733719974" lon="11.248030458614668"><ele>426.5</ele><time>2026-04-04T15:10:42Z</time></trkpt><trkpt lat="45.7403535075861" lon="11.247840344993493"><ele>429.0</ele><time>2026-04-04T15:10:43Z</time></trkpt><trkpt lat="45.74034137181477" lon="11.247655657941909"><ele>431.5</ele><time>2026-04-04T15:10:44Z</time></trkpt><trkpt lat="45.74030655752602" lon="11.247483259406643"><ele>434.0</ele><time>2026-04-04T15:10:44.999Z</time></trkpt><trkpt lat="45.74024017229314" lon="11.247331142767662"><ele>423.0</ele><time>2026-04-04T15:10:45.999Z</time></trkpt><trkpt lat="45.74014283619144" lon="11.247161353971835"><ele>412.0</ele><time>2026-04-04T15:10:46.999Z</time></trkpt><trkpt lat="45.7400097081399" lon="11.246940292853093"><ele>401.0</ele><time>2026-04-04T15:10:47.999Z</time></trkpt><trkpt lat="45.73988866289115" lon="11.246722737185516"><ele>400.99999999999994</ele><time>2026-04-04T15:10:48.999Z</time></trkpt><trkpt lat="45.73982268450722" lon="11.24658150251242"><ele>401.0</ele><time>2026-04-04T15:10:49.999Z</time></trkpt><trkpt lat="45.739788944017" lon="11.246503344916377"><ele>401.0</ele><time>2026-04-04T15:10:50.999Z</time></trkpt><trkpt lat="45.73974007535137" lon="11.246399098349718"><ele>401.0</ele><time>2026-04-04T15:11:33.999Z</time></trkpt><trkpt lat="45.73968977330659" lon="11.246321998163653"><ele>400.99999999999994</ele><time>2026-04-04T15:11:34.999Z</time></trkpt><trkpt lat="45.739610812161565" lon="11.246225268837067"><ele>401.0</ele><time>2026-04-04T15:11:35.999Z</time></trkpt><trkpt lat="45.73950386359088" lon="11.246102893997744"><ele>403.3333333333333</ele><time>2026-04-04T15:11:36.999Z</time></trkpt><trkpt lat="45.739378950308" lon="11.24593513851051"><ele>405.66666666666663</ele><time>2026-04-04T15:11:37.999Z</time></trkpt><trkpt lat="45.73924702879378" lon="11.24574137568945"><ele>408.0</ele><time>2026-04-04T15:11:38.999Z</time></trkpt><trkpt lat="45.73910100599952" lon="11.245503253382758"><ele>408.0</ele><time>2026-04-04T15:11:39.999Z</time></trkpt><trkpt lat="45.738943226666734" lon="11.245259213971085"><ele>408.0</ele><time>2026-04-04T15:11:40.999Z</time></trkpt><trkpt lat="45.73878491690458" lon="11.244979795150934"><ele>408.0</ele><time>2026-04-04T15:11:41.999Z</time></trkpt><trkpt lat="45.7386315770759" lon="11.24473350515171"><ele>408.0</ele><time>2026-04-04T15:11:42.999Z</time></trkpt><trkpt lat="45.73849330681656" lon="11.24452193239616"><ele>408.0</ele><time>2026-04-04T15:11:43.999Z</time></trkpt><trkpt lat="45.738366425163825" lon="11.244335778602485"><ele>408.0</ele><time>2026-04-04T15:11:44.998Z</time></trkpt><trkpt lat="45.73824822890147" lon="11.244162550470653"><ele>408.0</ele><time>2026-04-04T15:11:45.998Z</time></trkpt><trkpt lat="45.738130628281084" lon="11.244002022866665"><ele>408.0</ele><time>2026-04-04T15:11:46.998Z</time></trkpt><trkpt lat="45.73799882299489" lon="11.24385956190969"><ele>405.66666666666663</ele><time>2026-04-04T15:11:47.998Z</time></trkpt><trkpt lat="45.73785830487605" lon="11.243734684152766"><ele>403.3333333333333</ele><time>2026-04-04T15:11:48.998Z</time></trkpt><trkpt lat="45.73772031096385" lon="11.243615973725037"><ele>401.0</ele><time>2026-04-04T15:11:49.998Z</time></trkpt><trkpt lat="45.73759894741126" lon="11.243494219457085"><ele>401.0</ele><time>2026-04-04T15:11:50.998Z</time></trkpt><trkpt lat="45.73747273248762" lon="11.243363657521718"><ele>401.0</ele><time>2026-04-04T15:11:51.998Z</time></trkpt><trkpt lat="45.73734404486334" lon="11.24323942956078"><ele>401.0</ele><time>2026-04-04T15:11:52.998Z</time></trkpt><trkpt lat="45.73721156416975" lon="11.243115619600633"><ele>400.5</ele><time>2026-04-04T15:11:53.998Z</time></trkpt><trkpt lat="45.737081092674245" lon="11.242992661269271"><ele>400.0</ele><time>2026-04-04T15:11:54.998Z</time></trkpt><trkpt lat="45.7369589235004" lon="11.24286897592229"><ele>399.5</ele><time>2026-04-04T15:11:55.998Z</time></trkpt><trkpt lat="45.73684404703609" lon="11.242750071184329"><ele>399.0</ele><time>2026-04-04T15:11:56.998Z</time></trkpt><trkpt lat="45.73673307400855" lon="11.242621218451006"><ele>399.0</ele><time>2026-04-04T15:11:57.998Z</time></trkpt><trkpt lat="45.736622255533966" lon="11.242489816080525"><ele>399.0</ele><time>2026-04-04T15:11:58.998Z</time></trkpt><trkpt lat="45.7365217644728" lon="11.242343614087522"><ele>399.0</ele><time>2026-04-04T15:11:59.998Z</time></trkpt><trkpt lat="45.7364190500133" lon="11.242207423880163"><ele>399.0</ele><time>2026-04-04T15:12:00.998Z</time></trkpt><trkpt lat="45.73631893256202" lon="11.242067345984042"><ele>399.0</ele><time>2026-04-04T15:12:01.998Z</time></trkpt><trkpt lat="45.736231017067645" lon="11.24192035025339"><ele>399.0</ele><time>2026-04-04T15:12:02.998Z</time></trkpt><trkpt lat="45.73614834005591" lon="11.241777306128384"><ele>399.0</ele><time>2026-04-04T15:12:03.998Z</time></trkpt><trkpt lat="45.73607050101028" lon="11.241646584916163"><ele>399.0</ele><time>2026-04-04T15:12:04.998Z</time></trkpt><trkpt lat="45.73601057628956" lon="11.241527209273388"><ele>401.6</ele><time>2026-04-04T15:12:05.998Z</time></trkpt><trkpt lat="45.73602563966843" lon="11.241376592157973"><ele>404.2</ele><time>2026-04-04T15:12:06.998Z</time></trkpt><trkpt lat="45.73602130641925" lon="11.241201869770512"><ele>406.8</ele><time>2026-04-04T15:12:07.998Z</time></trkpt><trkpt lat="45.73600130156709" lon="11.241064848594577"><ele>409.40000000000003</ele><time>2026-04-04T15:12:08.998Z</time></trkpt><trkpt lat="45.7359924072768" lon="11.240965739451989"><ele>412.0</ele><time>2026-04-04T15:12:09.998Z</time></trkpt><trkpt lat="45.735928825243015" lon="11.240862277758822"><ele>412.00000000000006</ele><time>2026-04-04T15:12:11.998Z</time></trkpt><trkpt lat="45.73587369560095" lon="11.240804124078492"><ele>412.0</ele><time>2026-04-04T15:12:12.998Z</time></trkpt><trkpt lat="45.73580136771286" lon="11.240747030130974"><ele>412.0</ele><time>2026-04-04T15:12:13.998Z</time></trkpt><trkpt lat="45.735715767086745" lon="11.240685806575826"><ele>412.0</ele><time>2026-04-04T15:12:14.998Z</time></trkpt><trkpt lat="45.73564787341067" lon="11.240635977821565"><ele>412.00000000000006</ele><time>2026-04-04T15:12:15.998Z</time></trkpt><trkpt lat="45.73558433295181" lon="11.240574870933482"><ele>412.0</ele><time>2026-04-04T15:12:17Z</time></trkpt><trkpt lat="45.735524660745384" lon="11.240484742187194"><ele>411.40000000000003</ele><time>2026-04-04T15:12:18Z</time></trkpt><trkpt lat="45.73546456662059" lon="11.240392784278484"><ele>410.8</ele><time>2026-04-04T15:12:19Z</time></trkpt><trkpt lat="45.735398042224965" lon="11.240297038321021"><ele>410.2</ele><time>2026-04-04T15:12:20Z</time></trkpt><trkpt lat="45.73531591729405" lon="11.240185741822932"><ele>409.6</ele><time>2026-04-04T15:12:21Z</time></trkpt><trkpt lat="45.73524278236737" lon="11.240096984307439"><ele>409.0</ele><time>2026-04-04T15:12:22Z</time></trkpt><trkpt lat="45.735170920568194" lon="11.240010526039026"><ele>409.0</ele><time>2026-04-04T15:12:23Z</time></trkpt><trkpt lat="45.735094767990326" lon="11.23992958727004"><ele>409.0</ele><time>2026-04-04T15:12:24Z</time></trkpt><trkpt lat="45.734978681967576" lon="11.239840712465108"><ele>409.0</ele><time>2026-04-04T15:12:26Z</time></trkpt><trkpt lat="45.73466924689109" lon="11.240377945804303"><ele>409.0</ele><time>2026-04-04T15:12:28Z</time></trkpt><trkpt lat="45.7346306164955" lon="11.24046881164092"><ele>409.0</ele><time>2026-04-04T15:12:30Z</time></trkpt><trkpt lat="45.73460663792584" lon="11.240553520470304"><ele>409.0</ele><time>2026-04-04T15:12:31Z</time></trkpt><trkpt lat="45.73459753792652" lon="11.240727005530438"><ele>409.0</ele><time>2026-04-04T15:12:33Z</time></trkpt><trkpt lat="45.73463147554591" lon="11.24091991733227"><ele>409.0</ele><time>2026-04-04T15:12:35Z</time></trkpt><trkpt lat="45.73465160020115" lon="11.241032261153933"><ele>406.50000000000006</ele><time>2026-04-04T15:12:36Z</time></trkpt><trkpt lat="45.73467859024845" lon="11.241121045388741"><ele>404.0</ele><time>2026-04-04T15:12:37Z</time></trkpt><trkpt lat="45.734728639053955" lon="11.241226582522255"><ele>401.5</ele><time>2026-04-04T15:12:42Z</time></trkpt><trkpt lat="45.73477886526626" lon="11.24133085220542"><ele>399.0</ele><time>2026-04-04T15:12:44Z</time></trkpt><trkpt lat="45.734832165180094" lon="11.241428217356821"><ele>396.50000000000006</ele><time>2026-04-04T15:12:46.999Z</time></trkpt><trkpt lat="45.734870123840764" lon="11.24151716400302"><ele>394.0</ele><time>2026-04-04T15:12:51.999Z</time></trkpt><trkpt lat="45.7348953575576" lon="11.24160042291644"><ele>394.00000000000006</ele><time>2026-04-04T15:13:06.999Z</time></trkpt><trkpt lat="45.73485169481896" lon="11.241531417414848"><ele>394.0</ele><time>2026-04-04T15:13:14.999Z</time></trkpt><trkpt lat="45.73479289763913" lon="11.241400202849642"><ele>394.0</ele><time>2026-04-04T15:13:18.999Z</time></trkpt><trkpt lat="45.734754020267516" lon="11.24128653236676"><ele>394.0</ele><time>2026-04-04T15:13:20.999Z</time></trkpt><trkpt lat="45.734719848050794" lon="11.241197737383361"><ele>394.00000000000006</ele><time>2026-04-04T15:13:22.999Z</time></trkpt><trkpt lat="45.73468323006028" lon="11.2411217002168"><ele>394.0</ele><time>2026-04-04T15:13:26.999Z</time></trkpt><trkpt lat="45.73460376672142" lon="11.241109410088841"><ele>394.00000000000006</ele><time>2026-04-04T15:13:36.999Z</time></trkpt><trkpt lat="45.734538636108645" lon="11.241074454933566"><ele>394.0</ele><time>2026-04-04T15:13:39.999Z</time></trkpt><trkpt lat="45.73448858795229" lon="11.241174904958848"><ele>394.0</ele><time>2026-04-04T15:13:55.998Z</time></trkpt><trkpt lat="45.734480625839744" lon="11.241310957492244"><ele>394.0</ele><time>2026-04-04T15:13:57.998Z</time></trkpt><trkpt lat="45.734533059605894" lon="11.241388787476948"><ele>394.00000000000006</ele><time>2026-04-04T15:14:00.998Z</time></trkpt><trkpt lat="45.73450099867096" lon="11.241471725612183"><ele>394.0</ele><time>2026-04-04T15:14:08.998Z</time></trkpt><trkpt lat="45.73444970231299" lon="11.24152916742429"><ele>397.50000000000006</ele><time>2026-04-04T15:14:34Z</time></trkpt><trkpt lat="45.73435575348834" lon="11.24151558954069"><ele>401.0</ele><time>2026-04-04T15:16:04.998Z</time></trkpt><trkpt lat="45.73428727186401" lon="11.241484934168193"><ele>404.5</ele><time>2026-04-04T15:16:06.998Z</time></trkpt><trkpt lat="45.73421560257832" lon="11.241508634587051"><ele>408.0</ele><time>2026-04-04T15:16:15.998Z</time></trkpt><trkpt lat="45.73416401895434" lon="11.24156343101978"><ele>411.50000000000006</ele><time>2026-04-04T15:16:26.998Z</time></trkpt><trkpt lat="45.73411313550242" lon="11.24161982918901"><ele>415.0</ele><time>2026-04-04T15:16:38Z</time></trkpt><trkpt lat="45.73404112076368" lon="11.241560347749378"><ele>415.00000000000006</ele><time>2026-04-04T15:16:44Z</time></trkpt><trkpt lat="45.73396863437025" lon="11.241613992059772"><ele>415.0</ele><time>2026-04-04T15:16:47Z</time></trkpt><trkpt lat="45.73392916903353" lon="11.241728510562567"><ele>415.0</ele><time>2026-04-04T15:16:50Z</time></trkpt><trkpt lat="45.73387979800643" lon="11.241818331520035"><ele>415.0</ele><time>2026-04-04T15:16:52Z</time></trkpt><trkpt lat="45.733858584900084" lon="11.2419339249389"><ele>415.00000000000006</ele><time>2026-04-04T15:16:55Z</time></trkpt><trkpt lat="45.73383625672148" lon="11.242023872640003"><ele>415.0</ele><time>2026-04-04T15:16:57Z</time></trkpt><trkpt lat="45.73381130024484" lon="11.242143902951174"><ele>415.0</ele><time>2026-04-04T15:16:59Z</time></trkpt><trkpt lat="45.73378900423925" lon="11.242233760670171"><ele>415.0</ele><time>2026-04-04T15:17:00Z</time></trkpt><trkpt lat="45.733732693289966" lon="11.242376026929254"><ele>415.0</ele><time>2026-04-04T15:17:01.999Z</time></trkpt><trkpt lat="45.733702237456384" lon="11.24251126494749"><ele>415.0</ele><time>2026-04-04T15:17:03.999Z</time></trkpt><trkpt lat="45.73368413190921" lon="11.242687322106677"><ele>415.0</ele><time>2026-04-04T15:17:05.999Z</time></trkpt><trkpt lat="45.73362436943009" lon="11.242822290028768"><ele>418.57142857142856</ele><time>2026-04-04T15:17:07.999Z</time></trkpt><trkpt lat="45.73364104505315" lon="11.24291050703642"><ele>422.14285714285717</ele><time>2026-04-04T15:17:08.999Z</time></trkpt><trkpt lat="45.73364855271122" lon="11.243017654223515"><ele>425.71428571428567</ele><time>2026-04-04T15:17:11.999Z</time></trkpt><trkpt lat="45.733639645828056" lon="11.243132671692816"><ele>429.2857142857143</ele><time>2026-04-04T15:17:14.999Z</time></trkpt><trkpt lat="45.73371318595187" lon="11.243125735505803"><ele>432.85714285714283</ele><time>2026-04-04T15:17:20.999Z</time></trkpt><trkpt lat="45.733785558417516" lon="11.243113477380083"><ele>436.4285714285714</ele><time>2026-04-04T15:17:22.999Z</time></trkpt><trkpt lat="45.733856429252235" lon="11.243093991169825"><ele>440.0</ele><time>2026-04-04T15:17:24.999Z</time></trkpt><trkpt lat="45.73393303989528" lon="11.243108247997233"><ele>443.99999999999994</ele><time>2026-04-04T15:17:26.999Z</time></trkpt><trkpt lat="45.734032825076696" lon="11.243141166148295"><ele>448.0</ele><time>2026-04-04T15:17:28.999Z</time></trkpt><trkpt lat="45.73411232093767" lon="11.243138744155317"><ele>452.0</ele><time>2026-04-04T15:17:30.999Z</time></trkpt><trkpt lat="45.73416055961512" lon="11.243205415816844"><ele>456.0</ele><time>2026-04-04T15:17:41.999Z</time></trkpt><trkpt lat="45.73421392133456" lon="11.24327485676871"><ele>459.99999999999994</ele><time>2026-04-04T15:18:20.998Z</time></trkpt><trkpt lat="45.734296877283114" lon="11.24334916760016"><ele>464.0</ele><time>2026-04-04T15:18:22.998Z</time></trkpt><trkpt lat="45.734349581904915" lon="11.243421387854616"><ele>460.5</ele><time>2026-04-04T15:18:23.998Z</time></trkpt><trkpt lat="45.73441318317084" lon="11.243540857868618"><ele>457.0</ele><time>2026-04-04T15:18:25.998Z</time></trkpt><trkpt lat="45.73442105552296" lon="11.243717974196892"><ele>453.5</ele><time>2026-04-04T15:18:27.998Z</time></trkpt><trkpt lat="45.73441601588086" lon="11.243881671545148"><ele>450.0</ele><time>2026-04-04T15:18:28.998Z</time></trkpt><trkpt lat="45.73440710675219" lon="11.244044961362189"><ele>450.0</ele><time>2026-04-04T15:18:29.998Z</time></trkpt><trkpt lat="45.73440118003965" lon="11.244198860420207"><ele>450.0</ele><time>2026-04-04T15:18:30.998Z</time></trkpt><trkpt lat="45.73439149222887" lon="11.244399357590323"><ele>450.0</ele><time>2026-04-04T15:18:31.998Z</time></trkpt><trkpt lat="45.73439263793414" lon="11.244589775560677"><ele>450.0</ele><time>2026-04-04T15:18:33Z</time></trkpt><trkpt lat="45.73438448793718" lon="11.244713895615277"><ele>453.5</ele><time>2026-04-04T15:18:34Z</time></trkpt><trkpt lat="45.73435523937406" lon="11.244814801792533"><ele>457.0</ele><time>2026-04-04T15:18:35Z</time></trkpt><trkpt lat="45.73430454158551" lon="11.244928497758504"><ele>460.5</ele><time>2026-04-04T15:18:36Z</time></trkpt><trkpt lat="45.73426469975925" lon="11.24503162400528"><ele>464.0</ele><time>2026-04-04T15:18:37Z</time></trkpt><trkpt lat="45.7342587474473" lon="11.245153714725676"><ele>467.5</ele><time>2026-04-04T15:18:39Z</time></trkpt><trkpt lat="45.73432613748016" lon="11.245228769748813"><ele>471.0</ele><time>2026-04-04T15:18:41Z</time></trkpt><trkpt lat="45.73440244961428" lon="11.24523704060327"><ele>471.0</ele><time>2026-04-04T15:18:42Z</time></trkpt><trkpt lat="45.734483432890606" lon="11.24521257432024"><ele>471.0</ele><time>2026-04-04T15:18:43Z</time></trkpt><trkpt lat="45.73457657374859" lon="11.245197421213192"><ele>471.0</ele><time>2026-04-04T15:18:44Z</time></trkpt><trkpt lat="45.73466668161007" lon="11.245203758462369"><ele>471.0</ele><time>2026-04-04T15:18:45Z</time></trkpt><trkpt lat="45.73475375996004" lon="11.245208703187732"><ele>471.0</ele><time>2026-04-04T15:18:46Z</time></trkpt><trkpt lat="45.734855573537104" lon="11.24522875102495"><ele>471.0</ele><time>2026-04-04T15:18:47Z</time></trkpt><trkpt lat="45.734930298497396" lon="11.245242848496378"><ele>471.0</ele><time>2026-04-04T15:18:48Z</time></trkpt><trkpt lat="45.73500764020929" lon="11.245214050064178"><ele>471.0</ele><time>2026-04-04T15:18:49Z</time></trkpt><trkpt lat="45.73507608210241" lon="11.24511810369343"><ele>471.0</ele><time>2026-04-04T15:18:50Z</time></trkpt><trkpt lat="45.73517666163173" lon="11.245037255381577"><ele>471.0</ele><time>2026-04-04T15:18:51Z</time></trkpt><trkpt lat="45.735258996970806" lon="11.245008789988571"><ele>466.75</ele><time>2026-04-04T15:18:52Z</time></trkpt><trkpt lat="45.73537428911633" lon="11.245102034601235"><ele>462.5</ele><time>2026-04-04T15:18:54Z</time></trkpt><trkpt lat="45.73543447822614" lon="11.245260346869713"><ele>458.25</ele><time>2026-04-04T15:18:55Z</time></trkpt><trkpt lat="45.7354958820543" lon="11.24546403834224"><ele>454.0</ele><time>2026-04-04T15:18:56Z</time></trkpt><trkpt lat="45.73556468527276" lon="11.245591824955937"><ele>454.0</ele><time>2026-04-04T15:18:57Z</time></trkpt><trkpt lat="45.7356611854885" lon="11.245597857342439"><ele>454.0</ele><time>2026-04-04T15:18:58Z</time></trkpt><trkpt lat="45.73574969467585" lon="11.245672724670445"><ele>454.0</ele><time>2026-04-04T15:18:59Z</time></trkpt><trkpt lat="45.735811073831215" lon="11.245814827948475"><ele>454.0</ele><time>2026-04-04T15:19:00Z</time></trkpt><trkpt lat="45.735856532519854" lon="11.245974144798577"><ele>454.0</ele><time>2026-04-04T15:19:01Z</time></trkpt><trkpt lat="45.73592039784466" lon="11.246158073690113"><ele>454.79999999999995</ele><time>2026-04-04T15:19:02Z</time></trkpt><trkpt lat="45.73595615575034" lon="11.246298643146083"><ele>455.59999999999997</ele><time>2026-04-04T15:19:03Z</time></trkpt><trkpt lat="45.73599973314383" lon="11.246418620024297"><ele>456.4</ele><time>2026-04-04T15:19:04Z</time></trkpt><trkpt lat="45.73607575579602" lon="11.246494216429099"><ele>457.2</ele><time>2026-04-04T15:19:04.999Z</time></trkpt><trkpt lat="45.73618347560542" lon="11.246567083049072"><ele>458.0</ele><time>2026-04-04T15:19:05.999Z</time></trkpt><trkpt lat="45.7363108854764" lon="11.24667712298587"><ele>458.0</ele><time>2026-04-04T15:19:06.999Z</time></trkpt><trkpt lat="45.736442183255946" lon="11.246811221251273"><ele>458.0</ele><time>2026-04-04T15:19:07.999Z</time></trkpt><trkpt lat="45.7365753233997" lon="11.246949291436925"><ele>458.0</ele><time>2026-04-04T15:19:08.999Z</time></trkpt><trkpt lat="45.73669790583539" lon="11.247088844443637"><ele>458.0</ele><time>2026-04-04T15:19:09.999Z</time></trkpt><trkpt lat="45.736784477175675" lon="11.24717429390539"><ele>457.99999999999994</ele><time>2026-04-04T15:19:10.999Z</time></trkpt><trkpt lat="45.736868321461266" lon="11.247210660240123"><ele>457.99999999999994</ele><time>2026-04-04T15:19:11.999Z</time></trkpt><trkpt lat="45.736964370430094" lon="11.247163841237958"><ele>458.0</ele><time>2026-04-04T15:19:12.999Z</time></trkpt><trkpt lat="45.73708429820266" lon="11.247102502852869"><ele>458.0</ele><time>2026-04-04T15:19:13.999Z</time></trkpt><trkpt lat="45.737195062626235" lon="11.247025326982785"><ele>458.5</ele><time>2026-04-04T15:19:14.999Z</time></trkpt><trkpt lat="45.737261430425505" lon="11.24699503486372"><ele>459.0</ele><time>2026-04-04T15:19:15.999Z</time></trkpt><trkpt lat="45.73728921251925" lon="11.247100520069841"><ele>459.5</ele><time>2026-04-04T15:19:17.999Z</time></trkpt><trkpt lat="45.7373463780586" lon="11.247270931300797"><ele>460.0</ele><time>2026-04-04T15:19:18.999Z</time></trkpt><trkpt lat="45.737436363977864" lon="11.247482354547206"><ele>460.0</ele><time>2026-04-04T15:19:19.999Z</time></trkpt><trkpt lat="45.73755871508602" lon="11.247659111648304"><ele>460.0</ele><time>2026-04-04T15:19:20.999Z</time></trkpt><trkpt lat="45.73767127029854" lon="11.247860135443739"><ele>460.0</ele><time>2026-04-04T15:19:21.999Z</time></trkpt><trkpt lat="45.737790918187926" lon="11.248072703559597"><ele>453.0</ele><time>2026-04-04T15:19:22.999Z</time></trkpt><trkpt lat="45.73788027871165" lon="11.248261902302374"><ele>446.0</ele><time>2026-04-04T15:19:23.999Z</time></trkpt><trkpt lat="45.737983858795765" lon="11.24844999497319"><ele>439.0</ele><time>2026-04-04T15:19:24.999Z</time></trkpt><trkpt lat="45.73806131652743" lon="11.248615730159297"><ele>439.0</ele><time>2026-04-04T15:19:25.999Z</time></trkpt><trkpt lat="45.73811053984854" lon="11.248759335040939"><ele>439.0</ele><time>2026-04-04T15:19:26.999Z</time></trkpt><trkpt lat="45.73812201471686" lon="11.24888326317038"><ele>439.0</ele><time>2026-04-04T15:19:27.999Z</time></trkpt><trkpt lat="45.738124885054425" lon="11.249048542742646"><ele>439.0</ele><time>2026-04-04T15:19:28.999Z</time></trkpt><trkpt lat="45.7381481968491" lon="11.249299801155985"><ele>440.0</ele><time>2026-04-04T15:19:29.999Z</time></trkpt><trkpt lat="45.73817250697854" lon="11.249593294769971"><ele>441.0</ele><time>2026-04-04T15:19:30.999Z</time></trkpt><trkpt lat="45.73819200099728" lon="11.24976211138408"><ele>442.0</ele><time>2026-04-04T15:19:31.999Z</time></trkpt><trkpt lat="45.73817467331161" lon="11.249929953801404"><ele>443.0</ele><time>2026-04-04T15:19:33.999Z</time></trkpt><trkpt lat="45.73811972519159" lon="11.250100379085467"><ele>443.0</ele><time>2026-04-04T15:19:34.999Z</time></trkpt><trkpt lat="45.73806761877957" lon="11.250311422377093"><ele>443.0</ele><time>2026-04-04T15:19:35.999Z</time></trkpt><trkpt lat="45.73802656876194" lon="11.250524179950178"><ele>443.0</ele><time>2026-04-04T15:19:36.999Z</time></trkpt><trkpt lat="45.73795620795552" lon="11.250713655084747"><ele>439.66666666666663</ele><time>2026-04-04T15:19:37.999Z</time></trkpt><trkpt lat="45.73787573429705" lon="11.250934111506556"><ele>436.33333333333337</ele><time>2026-04-04T15:19:38.999Z</time></trkpt><trkpt lat="45.7377945698877" lon="11.251137034457049"><ele>433.0</ele><time>2026-04-04T15:19:39.999Z</time></trkpt><trkpt lat="45.73773448485176" lon="11.251311708701833"><ele>436.0</ele><time>2026-04-04T15:19:40.999Z</time></trkpt><trkpt lat="45.737682356929945" lon="11.251441820974227"><ele>438.99999999999994</ele><time>2026-04-04T15:19:41.999Z</time></trkpt><trkpt lat="45.7376267884934" lon="11.251509027537054"><ele>441.99999999999994</ele><time>2026-04-04T15:19:42.999Z</time></trkpt><trkpt lat="45.737543791850115" lon="11.251582175576093"><ele>445.0</ele><time>2026-04-04T15:19:43.999Z</time></trkpt><trkpt lat="45.73741997298994" lon="11.251647142998989"><ele>448.0</ele><time>2026-04-04T15:19:44.999Z</time></trkpt><trkpt lat="45.737292183172606" lon="11.251680947283047"><ele>448.0</ele><time>2026-04-04T15:19:45.999Z</time></trkpt><trkpt lat="45.737181848026225" lon="11.251679105010972"><ele>447.99999999999994</ele><time>2026-04-04T15:19:46.999Z</time></trkpt><trkpt lat="45.737116514845624" lon="11.251697467829356"><ele>447.99999999999994</ele><time>2026-04-04T15:19:47.999Z</time></trkpt><trkpt lat="45.73712851543567" lon="11.251916505082278"><ele>448.0</ele><time>2026-04-04T15:19:49.999Z</time></trkpt><trkpt lat="45.73713188337063" lon="11.252087183040073"><ele>448.0</ele><time>2026-04-04T15:19:50.999Z</time></trkpt><trkpt lat="45.737114702828926" lon="11.252197823689336"><ele>448.00000000000006</ele><time>2026-04-04T15:19:51.999Z</time></trkpt><trkpt lat="45.73705104670183" lon="11.252258505208188"><ele>448.0</ele><time>2026-04-04T15:19:52.999Z</time></trkpt><trkpt lat="45.73695616100997" lon="11.252337252671017"><ele>448.0</ele><time>2026-04-04T15:19:53.999Z</time></trkpt><trkpt lat="45.73696966446498" lon="11.252453867663535"><ele>448.0</ele><time>2026-04-04T15:19:54.999Z</time></trkpt><trkpt lat="45.73699181765503" lon="11.252572485302496"><ele>448.00000000000006</ele><time>2026-04-04T15:19:55.999Z</time></trkpt><trkpt lat="45.736974152248315" lon="11.25270427717522"><ele>448.0</ele><time>2026-04-04T15:19:56.999Z</time></trkpt><trkpt lat="45.73693033108087" lon="11.252769900891773"><ele>452.25</ele><time>2026-04-04T15:19:57.999Z</time></trkpt><trkpt lat="45.73684504295546" lon="11.252878497729132"><ele>456.5</ele><time>2026-04-04T15:19:58.999Z</time></trkpt><trkpt lat="45.736742272755194" lon="11.252967292447153"><ele>460.75</ele><time>2026-04-04T15:19:59.999Z</time></trkpt><trkpt lat="45.73660388571951" lon="11.253058672343233"><ele>465.0</ele><time>2026-04-04T15:20:00.999Z</time></trkpt><trkpt lat="45.73649134815959" lon="11.25309318088404"><ele>464.4</ele><time>2026-04-04T15:20:01.999Z</time></trkpt><trkpt lat="45.73652399940279" lon="11.25325756973743"><ele>463.8</ele><time>2026-04-04T15:20:04.999Z</time></trkpt><trkpt lat="45.7366013268304" lon="11.253287203468066"><ele>463.20000000000005</ele><time>2026-04-04T15:20:05.999Z</time></trkpt><trkpt lat="45.73670089517912" lon="11.25326823440503"><ele>462.6</ele><time>2026-04-04T15:20:06.999Z</time></trkpt><trkpt lat="45.73681895726305" lon="11.253261814790232"><ele>462.0</ele><time>2026-04-04T15:20:07.998Z</time></trkpt><trkpt lat="45.736961974854516" lon="11.253282085359382"><ele>454.20000000000005</ele><time>2026-04-04T15:20:08.998Z</time></trkpt><trkpt lat="45.737058132545535" lon="11.253319184073444"><ele>446.40000000000003</ele><time>2026-04-04T15:20:09.998Z</time></trkpt><trkpt lat="45.737081502369485" lon="11.253483397387747"><ele>438.6</ele><time>2026-04-04T15:20:11.998Z</time></trkpt><trkpt lat="45.73705339185111" lon="11.253589506305362"><ele>430.79999999999995</ele><time>2026-04-04T15:20:12.998Z</time></trkpt><trkpt lat="45.737005332109376" lon="11.253747876314945"><ele>423.0</ele><time>2026-04-04T15:20:13.998Z</time></trkpt><trkpt lat="45.736912647742955" lon="11.25397311287492"><ele>432.25</ele><time>2026-04-04T15:20:14.998Z</time></trkpt><trkpt lat="45.73683848220582" lon="11.2541708396841"><ele>441.5</ele><time>2026-04-04T15:20:15.998Z</time></trkpt><trkpt lat="45.73680777560472" lon="11.254334197501063"><ele>450.75</ele><time>2026-04-04T15:20:16.998Z</time></trkpt><trkpt lat="45.73681019504683" lon="11.254535097170773"><ele>460.0</ele><time>2026-04-04T15:20:17.998Z</time></trkpt><trkpt lat="45.73679436101739" lon="11.25479701866458"><ele>460.0</ele><time>2026-04-04T15:20:18.998Z</time></trkpt><trkpt lat="45.73675873733944" lon="11.25500699469232"><ele>460.0</ele><time>2026-04-04T15:20:19.998Z</time></trkpt><trkpt lat="45.73671708889114" lon="11.255161755078225"><ele>460.0</ele><time>2026-04-04T15:20:20.998Z</time></trkpt><trkpt lat="45.73665097331078" lon="11.255330456904792"><ele>460.0</ele><time>2026-04-04T15:20:21.998Z</time></trkpt><trkpt lat="45.73658557361579" lon="11.255528044276863"><ele>459.25</ele><time>2026-04-04T15:20:22.998Z</time></trkpt><trkpt lat="45.736555937869056" lon="11.255679429187847"><ele>458.5</ele><time>2026-04-04T15:20:23.998Z</time></trkpt><trkpt lat="45.736571060251535" lon="11.255841611625604"><ele>457.75</ele><time>2026-04-04T15:20:24.998Z</time></trkpt><trkpt lat="45.73661396859535" lon="11.256038925606248"><ele>457.0</ele><time>2026-04-04T15:20:25.998Z</time></trkpt><trkpt lat="45.736658907725115" lon="11.256225804533674"><ele>457.00000000000006</ele><time>2026-04-04T15:20:26.998Z</time></trkpt><trkpt lat="45.73667595515473" lon="11.256377955076385"><ele>457.0</ele><time>2026-04-04T15:20:27.998Z</time></trkpt><trkpt lat="45.73667326939275" lon="11.256486814298153"><ele>457.0</ele><time>2026-04-04T15:20:28.998Z</time></trkpt><trkpt lat="45.736682182151" lon="11.256612274927578"><ele>457.0</ele><time>2026-04-04T15:20:31.998Z</time></trkpt><trkpt lat="45.73667188707321" lon="11.256705351305518"><ele>457.00000000000006</ele><time>2026-04-04T15:20:33.998Z</time></trkpt><trkpt lat="45.73672109944331" lon="11.256837263363845"><ele>457.0</ele><time>2026-04-04T15:20:37.998Z</time></trkpt><trkpt lat="45.73670649103495" lon="11.256931895382023"><ele>457.0</ele><time>2026-04-04T15:20:40Z</time></trkpt><trkpt lat="45.73664537736764" lon="11.25696650955713"><ele>457.00000000000006</ele><time>2026-04-04T15:20:42Z</time></trkpt><trkpt lat="45.73658673949894" lon="11.257084765957229"><ele>457.00000000000006</ele><time>2026-04-04T15:20:44Z</time></trkpt><trkpt lat="45.73657703069365" lon="11.257223091851264"><ele>457.0</ele><time>2026-04-04T15:20:45Z</time></trkpt><trkpt lat="45.73656960362053" lon="11.25736317260724"><ele>457.0</ele><time>2026-04-04T15:20:46Z</time></trkpt><trkpt lat="45.73656272507827" lon="11.257505846864396"><ele>456.83333333333337</ele><time>2026-04-04T15:20:47Z</time></trkpt><trkpt lat="45.736564680491696" lon="11.257649461187869"><ele>456.6666666666667</ele><time>2026-04-04T15:20:48Z</time></trkpt><trkpt lat="45.73657271134887" lon="11.25777349073761"><ele>456.5</ele><time>2026-04-04T15:20:49Z</time></trkpt><trkpt lat="45.73656008074739" lon="11.257878721751988"><ele>456.33333333333337</ele><time>2026-04-04T15:20:50Z</time></trkpt><trkpt lat="45.73652824201199" lon="11.257971558062625"><ele>456.1666666666667</ele><time>2026-04-04T15:20:51Z</time></trkpt><trkpt lat="45.73648105239109" lon="11.258067676687764"><ele>456.0</ele><time>2026-04-04T15:20:52Z</time></trkpt><trkpt lat="45.73642435716985" lon="11.258155989521931"><ele>455.3333333333333</ele><time>2026-04-04T15:20:53Z</time></trkpt><trkpt lat="45.73636590953084" lon="11.258205279704416"><ele>454.66666666666663</ele><time>2026-04-04T15:20:54Z</time></trkpt><trkpt lat="45.73629904560016" lon="11.258210231188714"><ele>454.0</ele><time>2026-04-04T15:20:55Z</time></trkpt><trkpt lat="45.7362191819909" lon="11.258177047916883"><ele>453.3333333333333</ele><time>2026-04-04T15:20:56Z</time></trkpt><trkpt lat="45.73613151116741" lon="11.258128607773637"><ele>452.66666666666663</ele><time>2026-04-04T15:20:57Z</time></trkpt><trkpt lat="45.73603189729702" lon="11.258084319782498"><ele>452.0</ele><time>2026-04-04T15:20:58Z</time></trkpt><trkpt lat="45.73595196108853" lon="11.258028922895736"><ele>455.25</ele><time>2026-04-04T15:20:59Z</time></trkpt><trkpt lat="45.73591555739027" lon="11.257936251972504"><ele>458.5</ele><time>2026-04-04T15:21:00Z</time></trkpt><trkpt lat="45.73590592808903" lon="11.257785042256286"><ele>461.75</ele><time>2026-04-04T15:21:01Z</time></trkpt><trkpt lat="45.73589557620004" lon="11.25758878401504"><ele>465.0</ele><time>2026-04-04T15:21:02Z</time></trkpt><trkpt lat="45.73586785895521" lon="11.257368237929823"><ele>468.0</ele><time>2026-04-04T15:21:03Z</time></trkpt><trkpt lat="45.73583466842254" lon="11.257150289215204"><ele>471.0</ele><time>2026-04-04T15:21:04Z</time></trkpt><trkpt lat="45.73581066787427" lon="11.256938037028139"><ele>474.0</ele><time>2026-04-04T15:21:05Z</time></trkpt><trkpt lat="45.735791345066644" lon="11.256718278075347"><ele>474.0</ele><time>2026-04-04T15:21:06Z</time></trkpt><trkpt lat="45.73579046787017" lon="11.256472517399537"><ele>474.0</ele><time>2026-04-04T15:21:07Z</time></trkpt><trkpt lat="45.735807492810785" lon="11.256233860715124"><ele>474.0</ele><time>2026-04-04T15:21:08Z</time></trkpt><trkpt lat="45.73580946490789" lon="11.255996750507293"><ele>477.0</ele><time>2026-04-04T15:21:08.999Z</time></trkpt><trkpt lat="45.73581058727587" lon="11.255786112551045"><ele>480.0</ele><time>2026-04-04T15:21:09.999Z</time></trkpt><trkpt lat="45.73585626169124" lon="11.255595070797082"><ele>483.0</ele><time>2026-04-04T15:21:10.999Z</time></trkpt><trkpt lat="45.73594112904778" lon="11.255434892098304"><ele>486.0</ele><time>2026-04-04T15:21:11.999Z</time></trkpt><trkpt lat="45.73601722662855" lon="11.255343508216319"><ele>488.5</ele><time>2026-04-04T15:21:12.999Z</time></trkpt><trkpt lat="45.73606204824374" lon="11.255257106816803"><ele>491.0</ele><time>2026-04-04T15:21:13.999Z</time></trkpt><trkpt lat="45.73598179718322" lon="11.255236013752489"><ele>493.5</ele><time>2026-04-04T15:21:14.999Z</time></trkpt><trkpt lat="45.73590697298432" lon="11.255264497386015"><ele>496.0</ele><time>2026-04-04T15:21:15.999Z</time></trkpt><trkpt lat="45.73585553400732" lon="11.255316501907567"><ele>498.5</ele><time>2026-04-04T15:21:16.999Z</time></trkpt><trkpt lat="45.735767159465" lon="11.25543935021557"><ele>501.0</ele><time>2026-04-04T15:21:17.999Z</time></trkpt><trkpt lat="45.735626080738676" lon="11.255582787101956"><ele>501.0</ele><time>2026-04-04T15:21:18.999Z</time></trkpt><trkpt lat="45.73553046993738" lon="11.255686991740085"><ele>501.0</ele><time>2026-04-04T15:21:19.999Z</time></trkpt><trkpt lat="45.735448542624894" lon="11.255755848369134"><ele>501.0</ele><time>2026-04-04T15:21:20.999Z</time></trkpt><trkpt lat="45.73536068600144" lon="11.255727479760923"><ele>501.0</ele><time>2026-04-04T15:21:22.999Z</time></trkpt><trkpt lat="45.73529625347005" lon="11.255688877374217"><ele>501.0</ele><time>2026-04-04T15:21:24.999Z</time></trkpt><trkpt lat="45.73541440004542" lon="11.255573269470263"><ele>501.0</ele><time>2026-04-04T15:21:28.999Z</time></trkpt><trkpt lat="45.73550309835794" lon="11.25550105949251"><ele>501.0</ele><time>2026-04-04T15:21:29.999Z</time></trkpt><trkpt lat="45.73556532664471" lon="11.255400115136268"><ele>501.0</ele><time>2026-04-04T15:21:30.999Z</time></trkpt><trkpt lat="45.73561148173935" lon="11.25527805745227"><ele>501.0</ele><time>2026-04-04T15:21:31.999Z</time></trkpt><trkpt lat="45.73564915193983" lon="11.255130023273164"><ele>501.0</ele><time>2026-04-04T15:21:32.999Z</time></trkpt><trkpt lat="45.73566865570082" lon="11.25497469286478"><ele>501.0</ele><time>2026-04-04T15:21:33.999Z</time></trkpt><trkpt lat="45.735701459617665" lon="11.254875033130757"><ele>501.0</ele><time>2026-04-04T15:21:34.999Z</time></trkpt><trkpt lat="45.735698814169616" lon="11.254773558630967"><ele>501.0</ele><time>2026-04-04T15:21:35.999Z</time></trkpt><trkpt lat="45.73563584242024" lon="11.254558101380386"><ele>501.0</ele><time>2026-04-04T15:21:37.999Z</time></trkpt><trkpt lat="45.735584054354675" lon="11.254378386160571"><ele>501.0</ele><time>2026-04-04T15:21:38.999Z</time></trkpt><trkpt lat="45.73554339329698" lon="11.254249694179983"><ele>501.3333333333333</ele><time>2026-04-04T15:21:39.999Z</time></trkpt><trkpt lat="45.73548482975419" lon="11.25421585114101"><ele>501.66666666666663</ele><time>2026-04-04T15:21:42.999Z</time></trkpt><trkpt lat="45.735436614838015" lon="11.254311780945248"><ele>502.0</ele><time>2026-04-04T15:21:58.999Z</time></trkpt><trkpt lat="45.735404279982525" lon="11.25442123451377"><ele>502.3333333333333</ele><time>2026-04-04T15:21:59.999Z</time></trkpt><trkpt lat="45.735381485356314" lon="11.254519100144908"><ele>502.66666666666663</ele><time>2026-04-04T15:22:00.999Z</time></trkpt><trkpt lat="45.735316373862496" lon="11.2545872818264"><ele>503.0</ele><time>2026-04-04T15:22:01.999Z</time></trkpt><trkpt lat="45.73525272347658" lon="11.254692158148675"><ele>505.75</ele><time>2026-04-04T15:22:02.999Z</time></trkpt><trkpt lat="45.7351840721054" lon="11.254770664902466"><ele>508.5</ele><time>2026-04-04T15:22:03.999Z</time></trkpt><trkpt lat="45.73512204866465" lon="11.254805178907542"><ele>511.25</ele><time>2026-04-04T15:22:04.999Z</time></trkpt><trkpt lat="45.73500494461502" lon="11.254680913152729"><ele>514.0</ele><time>2026-04-04T15:22:06.999Z</time></trkpt><trkpt lat="45.73490603870336" lon="11.254517323346397"><ele>520.0</ele><time>2026-04-04T15:22:07.999Z</time></trkpt><trkpt lat="45.73478860758164" lon="11.254323382885456"><ele>526.0</ele><time>2026-04-04T15:22:08.999Z</time></trkpt><trkpt lat="45.734701444809104" lon="11.254113498339397"><ele>532.0</ele><time>2026-04-04T15:22:09.999Z</time></trkpt><trkpt lat="45.734574050639594" lon="11.253951161268212"><ele>532.6666666666667</ele><time>2026-04-04T15:22:10.999Z</time></trkpt><trkpt lat="45.73443524692602" lon="11.25386503585655"><ele>533.3333333333334</ele><time>2026-04-04T15:22:11.998Z</time></trkpt><trkpt lat="45.734270902417066" lon="11.253730412783364"><ele>534.0</ele><time>2026-04-04T15:22:12.998Z</time></trkpt><trkpt lat="45.73408831699746" lon="11.253607842957173"><ele>539.0</ele><time>2026-04-04T15:22:13.998Z</time></trkpt><trkpt lat="45.733901784009106" lon="11.253439041021668"><ele>544.0</ele><time>2026-04-04T15:22:14.998Z</time></trkpt><trkpt lat="45.73370617244423" lon="11.253326319884723"><ele>549.0</ele><time>2026-04-04T15:22:15.998Z</time></trkpt><trkpt lat="45.73349544394235" lon="11.253245226753526"><ele>550.0</ele><time>2026-04-04T15:22:16.998Z</time></trkpt><trkpt lat="45.733319533916166" lon="11.253195238482508"><ele>551.0</ele><time>2026-04-04T15:22:17.998Z</time></trkpt><trkpt lat="45.73320066405932" lon="11.253179004655959"><ele>552.0</ele><time>2026-04-04T15:22:18.998Z</time></trkpt><trkpt lat="45.73310227399897" lon="11.253111783903734"><ele>553.0</ele><time>2026-04-04T15:22:19.998Z</time></trkpt><trkpt lat="45.73298188347291" lon="11.252985559311448"><ele>557.3333333333334</ele><time>2026-04-04T15:22:20.998Z</time></trkpt><trkpt lat="45.732821734268555" lon="11.252827531347876"><ele>561.6666666666666</ele><time>2026-04-04T15:22:21.998Z</time></trkpt><trkpt lat="45.73262246438904" lon="11.252716778873207"><ele>566.0</ele><time>2026-04-04T15:22:22.998Z</time></trkpt><trkpt lat="45.73247124926078" lon="11.252533881871274"><ele>566.0</ele><time>2026-04-04T15:22:23.998Z</time></trkpt><trkpt lat="45.732306561823734" lon="11.252356475317418"><ele>566.0</ele><time>2026-04-04T15:22:24.998Z</time></trkpt><trkpt lat="45.73213899260931" lon="11.252307511087835"><ele>566.0</ele><time>2026-04-04T15:22:25.998Z</time></trkpt><trkpt lat="45.73201949249774" lon="11.25227219001733"><ele>568.3333333333333</ele><time>2026-04-04T15:22:26.998Z</time></trkpt><trkpt lat="45.7319542617972" lon="11.2522209865253"><ele>570.6666666666666</ele><time>2026-04-04T15:22:28.998Z</time></trkpt><trkpt lat="45.731984890459536" lon="11.252140356705866"><ele>573.0</ele><time>2026-04-04T15:22:32.998Z</time></trkpt><trkpt lat="45.731964683648734" lon="11.252245054902788"><ele>575.3333333333334</ele><time>2026-04-04T15:22:38.998Z</time></trkpt><trkpt lat="45.731885070566165" lon="11.252105854426492"><ele>577.6666666666667</ele><time>2026-04-04T15:22:41.998Z</time></trkpt><trkpt lat="45.731793358584106" lon="11.252111743913163"><ele>580.0</ele><time>2026-04-04T15:22:42.998Z</time></trkpt><trkpt lat="45.73172485016255" lon="11.25206550007276"><ele>580.0</ele><time>2026-04-04T15:22:43.998Z</time></trkpt><trkpt lat="45.731774389656586" lon="11.251935716950932"><ele>580.0</ele><time>2026-04-04T15:22:45Z</time></trkpt><trkpt lat="45.73152642499026" lon="11.252124235914192"><ele>580.0</ele><time>2026-04-04T15:22:46Z</time></trkpt><trkpt lat="45.73144271650297" lon="11.252079593131333"><ele>580.0</ele><time>2026-04-04T15:22:47Z</time></trkpt><trkpt lat="45.731377786434734" lon="11.252053259112762"><ele>580.0</ele><time>2026-04-04T15:22:48Z</time></trkpt><trkpt lat="45.731285124979365" lon="11.25196570867884"><ele>580.0</ele><time>2026-04-04T15:22:50Z</time></trkpt><trkpt lat="45.73123722400964" lon="11.251905946283696"><ele>580.0</ele><time>2026-04-04T15:22:51Z</time></trkpt><trkpt lat="45.73116722458851" lon="11.251828603610074"><ele>580.0</ele><time>2026-04-04T15:22:52Z</time></trkpt><trkpt lat="45.73107715323786" lon="11.25178215512797"><ele>580.0</ele><time>2026-04-04T15:22:53Z</time></trkpt><trkpt lat="45.73096837990077" lon="11.251739249354483"><ele>580.25</ele><time>2026-04-04T15:22:54Z</time></trkpt><trkpt lat="45.730838664649085" lon="11.251713288968187"><ele>580.5</ele><time>2026-04-04T15:22:55Z</time></trkpt><trkpt lat="45.73071907338023" lon="11.251695623325721"><ele>580.75</ele><time>2026-04-04T15:22:56Z</time></trkpt><trkpt lat="45.730610307905195" lon="11.25167812851574"><ele>581.0</ele><time>2026-04-04T15:22:57Z</time></trkpt><trkpt lat="45.730497150321355" lon="11.251658736617294"><ele>581.0</ele><time>2026-04-04T15:22:58Z</time></trkpt><trkpt lat="45.73039855293168" lon="11.251620380614343"><ele>581.0</ele><time>2026-04-04T15:22:59Z</time></trkpt><trkpt lat="45.73031874058165" lon="11.25156383750528"><ele>581.0</ele><time>2026-04-04T15:23:00Z</time></trkpt><trkpt lat="45.73026246935513" lon="11.251510793188476"><ele>581.0</ele><time>2026-04-04T15:23:01Z</time></trkpt><trkpt lat="45.73009260179805" lon="11.251412661733793"><ele>581.0</ele><time>2026-04-04T15:23:03Z</time></trkpt><trkpt lat="45.72999975809121" lon="11.251333940807594"><ele>590.25</ele><time>2026-04-04T15:23:04Z</time></trkpt><trkpt lat="45.72990268836083" lon="11.25128098144758"><ele>599.5</ele><time>2026-04-04T15:23:05Z</time></trkpt><trkpt lat="45.72980595139089" lon="11.251266570845884"><ele>608.75</ele><time>2026-04-04T15:23:06Z</time></trkpt><trkpt lat="45.72971344540481" lon="11.251021079963719"><ele>618.0</ele><time>2026-04-04T15:23:07Z</time></trkpt><trkpt lat="45.72961658011118" lon="11.251022483817334"><ele>618.0</ele><time>2026-04-04T15:23:08Z</time></trkpt><trkpt lat="45.729527009843764" lon="11.25102402107223"><ele>618.0</ele><time>2026-04-04T15:23:09Z</time></trkpt><trkpt lat="45.72944356292795" lon="11.25102721918854"><ele>618.0</ele><time>2026-04-04T15:23:10Z</time></trkpt><trkpt lat="45.729368898609415" lon="11.251030080703654"><ele>618.0</ele><time>2026-04-04T15:23:11Z</time></trkpt><trkpt lat="45.72930470817691" lon="11.251032540811313"><ele>618.0</ele><time>2026-04-04T15:23:12Z</time></trkpt><trkpt lat="45.729231165755124" lon="11.25103453492717"><ele>618.0</ele><time>2026-04-04T15:23:13Z</time></trkpt><trkpt lat="45.729154419791314" lon="11.251030316884915"><ele>618.75</ele><time>2026-04-04T15:23:14Z</time></trkpt><trkpt lat="45.72905553191925" lon="11.251003995849755"><ele>619.5</ele><time>2026-04-04T15:23:14.999Z</time></trkpt><trkpt lat="45.72892659288469" lon="11.250947885899992"><ele>620.25</ele><time>2026-04-04T15:23:15.999Z</time></trkpt><trkpt lat="45.728805710197356" lon="11.250890294770464"><ele>621.0</ele><time>2026-04-04T15:23:16.999Z</time></trkpt><trkpt lat="45.72870852770073" lon="11.25084661801434"><ele>621.0</ele><time>2026-04-04T15:23:17.999Z</time></trkpt><trkpt lat="45.728611965342665" lon="11.250801349270747"><ele>621.0</ele><time>2026-04-04T15:23:18.999Z</time></trkpt><trkpt lat="45.72853774756809" lon="11.250759731646374"><ele>621.0</ele><time>2026-04-04T15:23:19.999Z</time></trkpt><trkpt lat="45.72842859895315" lon="11.250683175342687"><ele>621.0</ele><time>2026-04-04T15:23:21.999Z</time></trkpt><trkpt lat="45.728356707035175" lon="11.250627627464777"><ele>621.0</ele><time>2026-04-04T15:23:22.999Z</time></trkpt><trkpt lat="45.72827311315604" lon="11.250558861649857"><ele>624.0</ele><time>2026-04-04T15:23:23.999Z</time></trkpt><trkpt lat="45.72819091173445" lon="11.250481130013725"><ele>627.0</ele><time>2026-04-04T15:23:24.999Z</time></trkpt><trkpt lat="45.728107744625355" lon="11.250406423255292"><ele>630.0</ele><time>2026-04-04T15:23:25.999Z</time></trkpt><trkpt lat="45.72802413511418" lon="11.250333469396356"><ele>633.0</ele><time>2026-04-04T15:23:26.999Z</time></trkpt><trkpt lat="45.72795160879518" lon="11.250269640977146"><ele>636.0</ele><time>2026-04-04T15:23:27.999Z</time></trkpt><trkpt lat="45.72789267530192" lon="11.250216670801755"><ele>639.0</ele><time>2026-04-04T15:23:28.999Z</time></trkpt><trkpt lat="45.727836016643394" lon="11.250166966042896"><ele>639.0</ele><time>2026-04-04T15:23:29.999Z</time></trkpt><trkpt lat="45.727752890478605" lon="11.250066546393276"><ele>639.0</ele><time>2026-04-04T15:23:30.999Z</time></trkpt><trkpt lat="45.72766925016018" lon="11.249901758802705"><ele>639.0</ele><time>2026-04-04T15:23:31.999Z</time></trkpt><trkpt lat="45.727569913078845" lon="11.249701244672021"><ele>639.0</ele><time>2026-04-04T15:23:32.999Z</time></trkpt><trkpt lat="45.72747830960399" lon="11.249520375823916"><ele>638.0</ele><time>2026-04-04T15:23:33.999Z</time></trkpt><trkpt lat="45.72741241032302" lon="11.249383968393149"><ele>637.0</ele><time>2026-04-04T15:23:34.999Z</time></trkpt><trkpt lat="45.727316531101344" lon="11.249271346157096"><ele>636.0</ele><time>2026-04-04T15:23:35.999Z</time></trkpt><trkpt lat="45.727217122823255" lon="11.24918464409517"><ele>635.0</ele><time>2026-04-04T15:23:36.999Z</time></trkpt><trkpt lat="45.727130004382" lon="11.24909362606152"><ele>635.0</ele><time>2026-04-04T15:23:37.999Z</time></trkpt><trkpt lat="45.727026787782265" lon="11.249054456195394"><ele>635.0</ele><time>2026-04-04T15:23:38.999Z</time></trkpt><trkpt lat="45.726931648691426" lon="11.248977083510203"><ele>635.0</ele><time>2026-04-04T15:23:39.999Z</time></trkpt><trkpt lat="45.72684088443651" lon="11.248846511382395"><ele>635.0</ele><time>2026-04-04T15:23:40.999Z</time></trkpt><trkpt lat="45.72675098125235" lon="11.248738520686612"><ele>637.5</ele><time>2026-04-04T15:23:41.999Z</time></trkpt><trkpt lat="45.726641827554545" lon="11.248665090646076"><ele>640.0</ele><time>2026-04-04T15:23:42.999Z</time></trkpt><trkpt lat="45.726521952831845" lon="11.248619172165604"><ele>642.5</ele><time>2026-04-04T15:23:43.999Z</time></trkpt><trkpt lat="45.726392217404374" lon="11.248575164542332"><ele>645.0</ele><time>2026-04-04T15:23:44.999Z</time></trkpt><trkpt lat="45.72628160230366" lon="11.248543079158624"><ele>645.0</ele><time>2026-04-04T15:23:45.999Z</time></trkpt><trkpt lat="45.726177142567096" lon="11.24852436979981"><ele>645.0</ele><time>2026-04-04T15:23:46.999Z</time></trkpt><trkpt lat="45.72609073660858" lon="11.2485321811979"><ele>645.0</ele><time>2026-04-04T15:23:47.999Z</time></trkpt><trkpt lat="45.7259848708762" lon="11.248619060733073"><ele>645.0</ele><time>2026-04-04T15:23:49.999Z</time></trkpt><trkpt lat="45.725985906441075" lon="11.248777418760875"><ele>645.0</ele><time>2026-04-04T15:23:50.999Z</time></trkpt><trkpt lat="45.725986018679414" lon="11.248934124062282"><ele>642.75</ele><time>2026-04-04T15:23:51.999Z</time></trkpt><trkpt lat="45.72596798108712" lon="11.249128905160735"><ele>640.5</ele><time>2026-04-04T15:23:52.999Z</time></trkpt><trkpt lat="45.72590536638969" lon="11.24925598244395"><ele>638.25</ele><time>2026-04-04T15:23:53.999Z</time></trkpt><trkpt lat="45.72586417765127" lon="11.24939920683358"><ele>636.0</ele><time>2026-04-04T15:23:54.999Z</time></trkpt><trkpt lat="45.72583922611838" lon="11.249553622603589"><ele>636.0</ele><time>2026-04-04T15:23:55.999Z</time></trkpt><trkpt lat="45.72587264573198" lon="11.24970327609968"><ele>636.0</ele><time>2026-04-04T15:23:56.999Z</time></trkpt><trkpt lat="45.72586455687269" lon="11.249825826726072"><ele>636.0</ele><time>2026-04-04T15:23:57.999Z</time></trkpt><trkpt lat="45.725838033035075" lon="11.249927539235411"><ele>636.0</ele><time>2026-04-04T15:23:59.999Z</time></trkpt><trkpt lat="45.72573298544389" lon="11.24991045002796"><ele>636.0</ele><time>2026-04-04T15:24:02.999Z</time></trkpt><trkpt lat="45.72585237483637" lon="11.249908931221421"><ele>632.25</ele><time>2026-04-04T15:24:06.999Z</time></trkpt><trkpt lat="45.725926359389945" lon="11.249890203056914"><ele>628.5</ele><time>2026-04-04T15:24:07.999Z</time></trkpt><trkpt lat="45.72587737589847" lon="11.25007580441863"><ele>624.75</ele><time>2026-04-04T15:24:08.999Z</time></trkpt><trkpt lat="45.72596511271882" lon="11.25013941698974"><ele>621.0</ele><time>2026-04-04T15:24:11.999Z</time></trkpt><trkpt lat="45.72581277941994" lon="11.250111452919283"><ele>621.0</ele><time>2026-04-04T15:24:13.999Z</time></trkpt><trkpt lat="45.72570850602131" lon="11.25008804618677"><ele>621.0</ele><time>2026-04-04T15:24:14.999Z</time></trkpt><trkpt lat="45.725634098281304" lon="11.25010231041606"><ele>621.0</ele><time>2026-04-04T15:24:15.999Z</time></trkpt><trkpt lat="45.7255667200601" lon="11.25011866296667"><ele>621.0</ele><time>2026-04-04T15:24:16.999Z</time></trkpt><trkpt lat="45.72545804417254" lon="11.25011534576784"><ele>621.0</ele><time>2026-04-04T15:24:18.998Z</time></trkpt><trkpt lat="45.72538534487682" lon="11.250069885840432"><ele>621.0</ele><time>2026-04-04T15:24:21.998Z</time></trkpt><trkpt lat="45.72530815549845" lon="11.250049542080683"><ele>621.0</ele><time>2026-04-04T15:24:39.998Z</time></trkpt><trkpt lat="45.72528029186835" lon="11.250143367900943"><ele>621.0</ele><time>2026-04-04T15:24:49.998Z</time></trkpt><trkpt lat="45.72530767653155" lon="11.250234703190163"><ele>621.0</ele><time>2026-04-04T15:24:55Z</time></trkpt><trkpt lat="45.72533722870182" lon="11.250369779024295"><ele>621.0</ele><time>2026-04-04T15:24:58Z</time></trkpt><trkpt lat="45.725389347739466" lon="11.250507458172821"><ele>621.0</ele><time>2026-04-04T15:25:00Z</time></trkpt><trkpt lat="45.725489685963346" lon="11.250746036610497"><ele>618.0</ele><time>2026-04-04T15:25:02Z</time></trkpt><trkpt lat="45.725528290206746" lon="11.250858516711512"><ele>615.0</ele><time>2026-04-04T15:25:03Z</time></trkpt><trkpt lat="45.72556624562084" lon="11.25095965061238"><ele>612.0</ele><time>2026-04-04T15:25:04Z</time></trkpt><trkpt lat="45.725594614783105" lon="11.251062305561545"><ele>609.0</ele><time>2026-04-04T15:25:05Z</time></trkpt><trkpt lat="45.72558904139026" lon="11.251164101360407"><ele>606.0</ele><time>2026-04-04T15:25:06Z</time></trkpt><trkpt lat="45.72561978257371" lon="11.251262630762495"><ele>603.0</ele><time>2026-04-04T15:25:07Z</time></trkpt><trkpt lat="45.72564457316739" lon="11.251376430212913"><ele>600.4</ele><time>2026-04-04T15:25:08Z</time></trkpt><trkpt lat="45.72565610686422" lon="11.251466740527373"><ele>597.8</ele><time>2026-04-04T15:25:09Z</time></trkpt><trkpt lat="45.725674768892176" lon="11.251553567604008"><ele>595.2</ele><time>2026-04-04T15:25:16Z</time></trkpt><trkpt lat="45.7257501282561" lon="11.251643487397146"><ele>592.6</ele><time>2026-04-04T15:25:18Z</time></trkpt><trkpt lat="45.72587413861192" lon="11.251722055514408"><ele>590.0</ele><time>2026-04-04T15:25:20Z</time></trkpt><trkpt lat="45.725960432459964" lon="11.251763859306788"><ele>590.0</ele><time>2026-04-04T15:25:20.999Z</time></trkpt><trkpt lat="45.72603443971252" lon="11.251795083100445"><ele>590.0</ele><time>2026-04-04T15:25:21.999Z</time></trkpt><trkpt lat="45.72610134364149" lon="11.251857355057956"><ele>590.0</ele><time>2026-04-04T15:25:22.999Z</time></trkpt><trkpt lat="45.726140038253455" lon="11.251952866677705"><ele>590.0</ele><time>2026-04-04T15:25:23.999Z</time></trkpt><trkpt lat="45.726179039429454" lon="11.252069932458644"><ele>590.0</ele><time>2026-04-04T15:25:24.999Z</time></trkpt><trkpt lat="45.72621411026233" lon="11.252187177363217"><ele>590.0</ele><time>2026-04-04T15:25:25.999Z</time></trkpt><trkpt lat="45.72624152441787" lon="11.252304541810082"><ele>587.0</ele><time>2026-04-04T15:25:26.999Z</time></trkpt><trkpt lat="45.726260102637625" lon="11.25241581409187"><ele>584.0</ele><time>2026-04-04T15:25:27.999Z</time></trkpt><trkpt lat="45.72631982433224" lon="11.252480261590131"><ele>581.0</ele><time>2026-04-04T15:25:29.999Z</time></trkpt><trkpt lat="45.72639087277956" lon="11.252469267968625"><ele>578.0</ele><time>2026-04-04T15:25:30.999Z</time></trkpt><trkpt lat="45.72645107381524" lon="11.252497496471475"><ele>575.0</ele><time>2026-04-04T15:25:31.999Z</time></trkpt><trkpt lat="45.726520310208585" lon="11.252580898570711"><ele>572.0</ele><time>2026-04-04T15:25:32.999Z</time></trkpt><trkpt lat="45.72658204513292" lon="11.252667642934906"><ele>572.0</ele><time>2026-04-04T15:25:33.999Z</time></trkpt><trkpt lat="45.72666124154325" lon="11.2527165105642"><ele>572.0</ele><time>2026-04-04T15:25:34.999Z</time></trkpt><trkpt lat="45.72675111751539" lon="11.252727493398943"><ele>572.0</ele><time>2026-04-04T15:25:35.999Z</time></trkpt><trkpt lat="45.72682884830652" lon="11.25277866694871"><ele>572.0</ele><time>2026-04-04T15:25:36.999Z</time></trkpt><trkpt lat="45.726910007680885" lon="11.252874339808612"><ele>572.0</ele><time>2026-04-04T15:25:37.999Z</time></trkpt><trkpt lat="45.72699088031581" lon="11.252962586241285"><ele>569.4</ele><time>2026-04-04T15:25:38.999Z</time></trkpt><trkpt lat="45.72704584764733" lon="11.253072504911925"><ele>566.8000000000001</ele><time>2026-04-04T15:25:39.999Z</time></trkpt><trkpt lat="45.727100178909716" lon="11.253227982666811"><ele>564.2</ele><time>2026-04-04T15:25:40.999Z</time></trkpt><trkpt lat="45.72717964877579" lon="11.25336082366869"><ele>561.6</ele><time>2026-04-04T15:25:41.999Z</time></trkpt><trkpt lat="45.72725771494752" lon="11.253467828978188"><ele>559.0</ele><time>2026-04-04T15:25:42.999Z</time></trkpt><trkpt lat="45.727329993235855" lon="11.253582480280528"><ele>557.8</ele><time>2026-04-04T15:25:43.999Z</time></trkpt><trkpt lat="45.72739377630993" lon="11.253711407380354"><ele>556.5999999999999</ele><time>2026-04-04T15:25:44.999Z</time></trkpt><trkpt lat="45.72744731983219" lon="11.253853348073859"><ele>555.4</ele><time>2026-04-04T15:25:45.999Z</time></trkpt><trkpt lat="45.72749959159788" lon="11.253980958997666"><ele>554.1999999999999</ele><time>2026-04-04T15:25:46.999Z</time></trkpt><trkpt lat="45.727561432748956" lon="11.254039942416018"><ele>553.0</ele><time>2026-04-04T15:25:47.999Z</time></trkpt><trkpt lat="45.72752311788929" lon="11.254253347425163"><ele>553.0</ele><time>2026-04-04T15:25:48.999Z</time></trkpt><trkpt lat="45.727589890897555" lon="11.25431638236718"><ele>553.0</ele><time>2026-04-04T15:25:52.999Z</time></trkpt><trkpt lat="45.72767935992751" lon="11.254467168780288"><ele>553.0</ele><time>2026-04-04T15:25:54.999Z</time></trkpt><trkpt lat="45.727800366443454" lon="11.254648724949545"><ele>553.0</ele><time>2026-04-04T15:25:55.999Z</time></trkpt><trkpt lat="45.72786590093921" lon="11.254781193412173"><ele>552.1999999999999</ele><time>2026-04-04T15:25:56.999Z</time></trkpt><trkpt lat="45.72777510770694" lon="11.254618357259572"><ele>551.4</ele><time>2026-04-04T15:25:57.999Z</time></trkpt><trkpt lat="45.72785282022286" lon="11.254753911760949"><ele>550.5999999999999</ele><time>2026-04-04T15:25:59.999Z</time></trkpt><trkpt lat="45.727916442106675" lon="11.25487535109188"><ele>549.8</ele><time>2026-04-04T15:26:01.999Z</time></trkpt><trkpt lat="45.72795306898672" lon="11.254950066739545"><ele>549.0</ele><time>2026-04-04T15:26:02.999Z</time></trkpt><trkpt lat="45.72811469523049" lon="11.255223808108905"><ele>549.0</ele><time>2026-04-04T15:26:03.999Z</time></trkpt><trkpt lat="45.728322270372146" lon="11.255334674567687"><ele>549.0</ele><time>2026-04-04T15:26:04.999Z</time></trkpt><trkpt lat="45.72838819760415" lon="11.255359243171034"><ele>549.0</ele><time>2026-04-04T15:26:05.999Z</time></trkpt><trkpt lat="45.72846183420862" lon="11.255364139909537"><ele>549.0</ele><time>2026-04-04T15:26:06.999Z</time></trkpt><trkpt lat="45.72873649763699" lon="11.2543641553447"><ele>544.0</ele><time>2026-04-04T15:26:08.999Z</time></trkpt><trkpt lat="45.72884310755699" lon="11.254387136304642"><ele>539.0</ele><time>2026-04-04T15:26:10.999Z</time></trkpt><trkpt lat="45.72891852504119" lon="11.254441590380127"><ele>534.0</ele><time>2026-04-04T15:26:11.999Z</time></trkpt><trkpt lat="45.72899456318665" lon="11.254493883226004"><ele>529.0</ele><time>2026-04-04T15:26:12.999Z</time></trkpt><trkpt lat="45.7290675832761" lon="11.25454686762526"><ele>524.0</ele><time>2026-04-04T15:26:13.999Z</time></trkpt><trkpt lat="45.72911287598453" lon="11.25465314189981"><ele>519.0</ele><time>2026-04-04T15:26:14.999Z</time></trkpt><trkpt lat="45.72914200911861" lon="11.254734648644476"><ele>519.0</ele><time>2026-04-04T15:26:15.999Z</time></trkpt><trkpt lat="45.72929968318094" lon="11.254680639156652"><ele>519.0</ele><time>2026-04-04T15:26:17.999Z</time></trkpt><trkpt lat="45.729380391277274" lon="11.254694435793692"><ele>519.0</ele><time>2026-04-04T15:26:18.999Z</time></trkpt><trkpt lat="45.72950767682621" lon="11.254826196724894"><ele>519.0</ele><time>2026-04-04T15:26:20.999Z</time></trkpt><trkpt lat="45.72956275223686" lon="11.254905465384159"><ele>516.8333333333334</ele><time>2026-04-04T15:26:21.999Z</time></trkpt><trkpt lat="45.729622122810646" lon="11.254939750717629"><ele>514.6666666666666</ele><time>2026-04-04T15:26:22.999Z</time></trkpt><trkpt lat="45.72967595367796" lon="11.254993207669513"><ele>512.5</ele><time>2026-04-04T15:26:23.999Z</time></trkpt><trkpt lat="45.72972805173855" lon="11.255079186434008"><ele>510.3333333333333</ele><time>2026-04-04T15:26:24.998Z</time></trkpt><trkpt lat="45.72977381174216" lon="11.255185268070933"><ele>508.16666666666663</ele><time>2026-04-04T15:26:25.998Z</time></trkpt><trkpt lat="45.729822953196056" lon="11.255297130156977"><ele>506.0</ele><time>2026-04-04T15:26:26.998Z</time></trkpt><trkpt lat="45.729863804078725" lon="11.2553813907288"><ele>505.99999999999994</ele><time>2026-04-04T15:26:27.998Z</time></trkpt><trkpt lat="45.729935498294694" lon="11.255396590505597"><ele>506.0</ele><time>2026-04-04T15:26:28.998Z</time></trkpt><trkpt lat="45.730024737504394" lon="11.255393557864778"><ele>506.0</ele><time>2026-04-04T15:26:29.998Z</time></trkpt><trkpt lat="45.73011080391097" lon="11.255384184271685"><ele>506.0</ele><time>2026-04-04T15:26:30.998Z</time></trkpt><trkpt lat="45.730172143461225" lon="11.25533606590808"><ele>505.99999999999994</ele><time>2026-04-04T15:26:31.998Z</time></trkpt><trkpt lat="45.730215597066234" lon="11.255244548689376"><ele>506.0</ele><time>2026-04-04T15:26:32.998Z</time></trkpt><trkpt lat="45.730341071052806" lon="11.25520542133541"><ele>504.0</ele><time>2026-04-04T15:26:34.998Z</time></trkpt><trkpt lat="45.730404227938706" lon="11.255185791370693"><ele>502.0</ele><time>2026-04-04T15:26:35.998Z</time></trkpt><trkpt lat="45.73051443743085" lon="11.255278361293286"><ele>500.0</ele><time>2026-04-04T15:26:36.998Z</time></trkpt><trkpt lat="45.730617472555046" lon="11.255453465201004"><ele>498.0</ele><time>2026-04-04T15:26:38.998Z</time></trkpt><trkpt lat="45.73070101438409" lon="11.255625844371762"><ele>498.0</ele><time>2026-04-04T15:26:39.998Z</time></trkpt><trkpt lat="45.73077823065592" lon="11.255753989591076"><ele>497.99999999999994</ele><time>2026-04-04T15:26:40.998Z</time></trkpt><trkpt lat="45.73082882542864" lon="11.255865901023446"><ele>497.99999999999994</ele><time>2026-04-04T15:26:41.998Z</time></trkpt><trkpt lat="45.73087517673947" lon="11.256019349686609"><ele>498.0</ele><time>2026-04-04T15:26:42.998Z</time></trkpt><trkpt lat="45.73092263145441" lon="11.25616582117807"><ele>498.0</ele><time>2026-04-04T15:26:43.998Z</time></trkpt><trkpt lat="45.73094987398136" lon="11.256263666746644"><ele>498.0</ele><time>2026-04-04T15:26:44.998Z</time></trkpt><trkpt lat="45.730966048933986" lon="11.256374950236538"><ele>498.0</ele><time>2026-04-04T15:26:45.998Z</time></trkpt><trkpt lat="45.73097855014724" lon="11.256473198109761"><ele>498.0</ele><time>2026-04-04T15:26:46.998Z</time></trkpt><trkpt lat="45.73102244688498" lon="11.256565893021671"><ele>498.0</ele><time>2026-04-04T15:26:47.998Z</time></trkpt><trkpt lat="45.73106899695352" lon="11.256663235576333"><ele>498.0</ele><time>2026-04-04T15:26:48.998Z</time></trkpt><trkpt lat="45.73115617768843" lon="11.256694088802625"><ele>498.0</ele><time>2026-04-04T15:26:50.998Z</time></trkpt><trkpt lat="45.731367820957026" lon="11.256653835306635"><ele>493.59999999999997</ele><time>2026-04-04T15:26:52.998Z</time></trkpt><trkpt lat="45.73148731695721" lon="11.256677626805395"><ele>489.19999999999993</ele><time>2026-04-04T15:26:53.998Z</time></trkpt><trkpt lat="45.731579079320646" lon="11.256701884386914"><ele>484.8</ele><time>2026-04-04T15:26:54.998Z</time></trkpt><trkpt lat="45.7316575938425" lon="11.256739601278156"><ele>480.4</ele><time>2026-04-04T15:26:55.998Z</time></trkpt><trkpt lat="45.73171535457764" lon="11.256808181285805"><ele>476.0</ele><time>2026-04-04T15:26:57Z</time></trkpt><trkpt lat="45.73178021565385" lon="11.256886571180374"><ele>475.99999999999994</ele><time>2026-04-04T15:26:58Z</time></trkpt><trkpt lat="45.731836500540894" lon="11.256966344020723"><ele>476.0</ele><time>2026-04-04T15:26:59Z</time></trkpt><trkpt lat="45.73189173591662" lon="11.25703959743344"><ele>476.0</ele><time>2026-04-04T15:27:00Z</time></trkpt><trkpt lat="45.73194426814471" lon="11.257141546162078"><ele>476.0</ele><time>2026-04-04T15:27:01Z</time></trkpt><trkpt lat="45.73199838568553" lon="11.257239913427064"><ele>475.99999999999994</ele><time>2026-04-04T15:27:02Z</time></trkpt><trkpt lat="45.73205320356955" lon="11.257311476966075"><ele>476.0</ele><time>2026-04-04T15:27:03Z</time></trkpt><trkpt lat="45.73211201836129" lon="11.25740621820159"><ele>473.4</ele><time>2026-04-04T15:27:04Z</time></trkpt><trkpt lat="45.732207820421294" lon="11.257472431421363"><ele>470.8</ele><time>2026-04-04T15:27:05Z</time></trkpt><trkpt lat="45.73230233443136" lon="11.257497526848441"><ele>468.19999999999993</ele><time>2026-04-04T15:27:06Z</time></trkpt><trkpt lat="45.73240579071815" lon="11.257559701893786"><ele>465.59999999999997</ele><time>2026-04-04T15:27:07Z</time></trkpt><trkpt lat="45.73251929724512" lon="11.25765079369814"><ele>463.0</ele><time>2026-04-04T15:27:08Z</time></trkpt><trkpt lat="45.73263340112624" lon="11.257723831781101"><ele>459.0</ele><time>2026-04-04T15:27:09Z</time></trkpt><trkpt lat="45.732737806373066" lon="11.257802543942246"><ele>454.99999999999994</ele><time>2026-04-04T15:27:10Z</time></trkpt><trkpt lat="45.73284047839591" lon="11.257893834680553"><ele>450.99999999999994</ele><time>2026-04-04T15:27:11Z</time></trkpt><trkpt lat="45.73291097871081" lon="11.258001180835173"><ele>447.0</ele><time>2026-04-04T15:27:12Z</time></trkpt><trkpt lat="45.732917306969476" lon="11.258147765995789"><ele>443.0</ele><time>2026-04-04T15:27:14Z</time></trkpt><trkpt lat="45.7328988308569" lon="11.258287026090096"><ele>442.99999999999994</ele><time>2026-04-04T15:27:15Z</time></trkpt><trkpt lat="45.732917739212134" lon="11.258416986904999"><ele>443.0</ele><time>2026-04-04T15:27:16Z</time></trkpt><trkpt lat="45.73296967783394" lon="11.258484805769257"><ele>443.0</ele><time>2026-04-04T15:27:17Z</time></trkpt><trkpt lat="45.73304385636071" lon="11.258477147273222"><ele>443.0</ele><time>2026-04-04T15:27:18Z</time></trkpt><trkpt lat="45.73311540756426" lon="11.258420408048124"><ele>442.99999999999994</ele><time>2026-04-04T15:27:19Z</time></trkpt><trkpt lat="45.73323501192175" lon="11.258389591821192"><ele>443.0</ele><time>2026-04-04T15:27:20Z</time></trkpt><trkpt lat="45.733336471849114" lon="11.258366984689268"><ele>443.0</ele><time>2026-04-04T15:27:21Z</time></trkpt><trkpt lat="45.733427577651" lon="11.258359799850446"><ele>442.99999999999994</ele><time>2026-04-04T15:27:22Z</time></trkpt><trkpt lat="45.73349936433129" lon="11.258349777727668"><ele>442.99999999999994</ele><time>2026-04-04T15:27:23Z</time></trkpt><trkpt lat="45.733544376276306" lon="11.258498798128102"><ele>443.0</ele><time>2026-04-04T15:27:25Z</time></trkpt><trkpt lat="45.73357239098006" lon="11.258663280565047"><ele>443.0</ele><time>2026-04-04T15:27:26Z</time></trkpt><trkpt lat="45.73365298143731" lon="11.258835219677362"><ele>439.75</ele><time>2026-04-04T15:27:27Z</time></trkpt><trkpt lat="45.733725326326656" lon="11.258995815968614"><ele>436.5</ele><time>2026-04-04T15:27:28Z</time></trkpt><trkpt lat="45.73391964672155" lon="11.259050149770951"><ele>433.25</ele><time>2026-04-04T15:27:29Z</time></trkpt><trkpt lat="45.73396184471393" lon="11.2591488757473"><ele>430.0</ele><time>2026-04-04T15:27:30Z</time></trkpt><trkpt lat="45.734029026838975" lon="11.259261188281027"><ele>430.0</ele><time>2026-04-04T15:27:31.999Z</time></trkpt><trkpt lat="45.733915273957614" lon="11.25946958894681"><ele>430.0</ele><time>2026-04-04T15:27:33.999Z</time></trkpt><trkpt lat="45.733888851522366" lon="11.259387575495882"><ele>430.0</ele><time>2026-04-04T15:27:55.999Z</time></trkpt><trkpt lat="45.73388836790826" lon="11.259500638937478"><ele>430.0</ele><time>2026-04-04T15:27:58.999Z</time></trkpt><trkpt lat="45.73390843784308" lon="11.259592056607529"><ele>430.0</ele><time>2026-04-04T15:27:59.999Z</time></trkpt><trkpt lat="45.73395133198243" lon="11.259838604816714"><ele>432.33333333333337</ele><time>2026-04-04T15:28:00.999Z</time></trkpt><trkpt lat="45.73396760996117" lon="11.260088198176648"><ele>434.66666666666663</ele><time>2026-04-04T15:28:01.999Z</time></trkpt><trkpt lat="45.733973811932195" lon="11.260371654727951"><ele>437.0</ele><time>2026-04-04T15:28:02.999Z</time></trkpt><trkpt lat="45.73396086449755" lon="11.260676543804317"><ele>438.66666666666663</ele><time>2026-04-04T15:28:03.999Z</time></trkpt><trkpt lat="45.733939527884125" lon="11.260994230575513"><ele>440.33333333333337</ele><time>2026-04-04T15:28:04.999Z</time></trkpt><trkpt lat="45.733865313725296" lon="11.26126135323023"><ele>442.0</ele><time>2026-04-04T15:28:05.999Z</time></trkpt><trkpt lat="45.7338009963254" lon="11.261569691941206"><ele>444.33333333333337</ele><time>2026-04-04T15:28:06.999Z</time></trkpt><trkpt lat="45.733782138148875" lon="11.261832870383326"><ele>446.66666666666663</ele><time>2026-04-04T15:28:07.999Z</time></trkpt><trkpt lat="45.73378799254092" lon="11.262014717135624"><ele>449.0</ele><time>2026-04-04T15:28:08.999Z</time></trkpt><trkpt lat="45.73386938681879" lon="11.262178762347823"><ele>450.3333333333333</ele><time>2026-04-04T15:28:09.999Z</time></trkpt><trkpt lat="45.733962624640476" lon="11.262363905520735"><ele>451.66666666666663</ele><time>2026-04-04T15:28:10.999Z</time></trkpt><trkpt lat="45.73410381927771" lon="11.262601680426402"><ele>453.0</ele><time>2026-04-04T15:28:11.999Z</time></trkpt><trkpt lat="45.73415913710229" lon="11.262763754449168"><ele>453.0</ele><time>2026-04-04T15:28:12.999Z</time></trkpt><trkpt lat="45.73415873895651" lon="11.262940057211912"><ele>453.0</ele><time>2026-04-04T15:28:13.999Z</time></trkpt><trkpt lat="45.734104357119605" lon="11.263056193983626"><ele>453.0</ele><time>2026-04-04T15:28:14.999Z</time></trkpt><trkpt lat="45.73403954704933" lon="11.263151224693903"><ele>453.0</ele><time>2026-04-04T15:28:15.999Z</time></trkpt><trkpt lat="45.73393934192079" lon="11.263327106222482"><ele>452.5</ele><time>2026-04-04T15:28:16.999Z</time></trkpt><trkpt lat="45.73378817785818" lon="11.263538188029523"><ele>452.0</ele><time>2026-04-04T15:28:17.999Z</time></trkpt><trkpt lat="45.733659629039956" lon="11.2636038370995"><ele>451.5</ele><time>2026-04-04T15:28:18.999Z</time></trkpt><trkpt lat="45.73356591055418" lon="11.26359566176162"><ele>451.0</ele><time>2026-04-04T15:28:19.999Z</time></trkpt><trkpt lat="45.733429193910396" lon="11.263598134332186"><ele>459.33333333333337</ele><time>2026-04-04T15:28:20.999Z</time></trkpt><trkpt lat="45.733273078790134" lon="11.263522909198045"><ele>467.66666666666663</ele><time>2026-04-04T15:28:21.999Z</time></trkpt><trkpt lat="45.73304813604826" lon="11.263475073513067"><ele>476.0</ele><time>2026-04-04T15:28:22.999Z</time></trkpt><trkpt lat="45.73288406497813" lon="11.263497534357155"><ele>476.0</ele><time>2026-04-04T15:28:23.999Z</time></trkpt><trkpt lat="45.73275745895591" lon="11.263465132174705"><ele>476.0</ele><time>2026-04-04T15:28:24.999Z</time></trkpt><trkpt lat="45.7326363396693" lon="11.263365463970555"><ele>476.0</ele><time>2026-04-04T15:28:25.999Z</time></trkpt><trkpt lat="45.732488045997506" lon="11.263327747008242"><ele>476.0</ele><time>2026-04-04T15:28:26.999Z</time></trkpt><trkpt lat="45.732362552978735" lon="11.263409503020538"><ele>480.0</ele><time>2026-04-04T15:28:27.999Z</time></trkpt><trkpt lat="45.73223695623317" lon="11.263467730395583"><ele>484.0</ele><time>2026-04-04T15:28:28.999Z</time></trkpt><trkpt lat="45.732113530082856" lon="11.263520163821726"><ele>488.0</ele><time>2026-04-04T15:28:29.999Z</time></trkpt><trkpt lat="45.73200001805917" lon="11.263576365155883"><ele>492.0</ele><time>2026-04-04T15:28:30.999Z</time></trkpt><trkpt lat="45.73196638426085" lon="11.263715936059189"><ele>492.0</ele><time>2026-04-04T15:28:32.999Z</time></trkpt><trkpt lat="45.73201869380623" lon="11.263866732280249"><ele>492.0</ele><time>2026-04-04T15:28:33.999Z</time></trkpt><trkpt lat="45.73210149817084" lon="11.264004642017035"><ele>492.0</ele><time>2026-04-04T15:28:34.998Z</time></trkpt><trkpt lat="45.732221737946105" lon="11.2641810494147"><ele>492.0</ele><time>2026-04-04T15:28:35.998Z</time></trkpt><trkpt lat="45.732389750675594" lon="11.264463200801991"><ele>489.20000000000005</ele><time>2026-04-04T15:28:36.998Z</time></trkpt><trkpt lat="45.73246793612339" lon="11.264609637545659"><ele>486.40000000000003</ele><time>2026-04-04T15:28:37.998Z</time></trkpt><trkpt lat="45.73251800072914" lon="11.264753544550352"><ele>483.59999999999997</ele><time>2026-04-04T15:28:38.998Z</time></trkpt><trkpt lat="45.732540829346654" lon="11.264904642066837"><ele>480.79999999999995</ele><time>2026-04-04T15:28:39.998Z</time></trkpt><trkpt lat="45.732526213187406" lon="11.26503196816718"><ele>478.0</ele><time>2026-04-04T15:28:40.998Z</time></trkpt><trkpt lat="45.73242261521383" lon="11.26512473214883"><ele>478.0</ele><time>2026-04-04T15:28:41.998Z</time></trkpt><trkpt lat="45.73237212824483" lon="11.265225663169963"><ele>477.99999999999994</ele><time>2026-04-04T15:28:42.998Z</time></trkpt><trkpt lat="45.73229718887203" lon="11.265246777440924"><ele>477.99999999999994</ele><time>2026-04-04T15:28:43.998Z</time></trkpt><trkpt lat="45.732184066325864" lon="11.265268234580203"><ele>478.0</ele><time>2026-04-04T15:28:44.998Z</time></trkpt><trkpt lat="45.73209205163406" lon="11.265284823125258"><ele>478.0</ele><time>2026-04-04T15:28:45.998Z</time></trkpt><trkpt lat="45.73202065156338" lon="11.26540989274523"><ele>478.0</ele><time>2026-04-04T15:28:47.998Z</time></trkpt><trkpt lat="45.73195512313218" lon="11.265458653708544"><ele>477.99999999999994</ele><time>2026-04-04T15:28:49.998Z</time></trkpt><trkpt lat="45.731848447028526" lon="11.265554037652825"><ele>477.99999999999994</ele><time>2026-04-04T15:28:51.998Z</time></trkpt><trkpt lat="45.731762061021676" lon="11.265646722547109"><ele>478.0</ele><time>2026-04-04T15:28:52.998Z</time></trkpt><trkpt lat="45.731642142677735" lon="11.26570700005206"><ele>478.0</ele><time>2026-04-04T15:28:53.998Z</time></trkpt><trkpt lat="45.73154262886894" lon="11.26574365870148"><ele>477.2</ele><time>2026-04-04T15:28:54.998Z</time></trkpt><trkpt lat="45.73144040368622" lon="11.26578716270696"><ele>476.4</ele><time>2026-04-04T15:28:55.998Z</time></trkpt><trkpt lat="45.7313341333147" lon="11.265834739586941"><ele>475.59999999999997</ele><time>2026-04-04T15:28:56.998Z</time></trkpt><trkpt lat="45.731233474329905" lon="11.265903448639808"><ele>474.79999999999995</ele><time>2026-04-04T15:28:57.998Z</time></trkpt><trkpt lat="45.73114609460186" lon="11.265963168499935"><ele>474.0</ele><time>2026-04-04T15:28:58.998Z</time></trkpt><trkpt lat="45.73106389024417" lon="11.266028612777355"><ele>472.4</ele><time>2026-04-04T15:28:59.998Z</time></trkpt><trkpt lat="45.73102998404477" lon="11.266190057279385"><ele>470.79999999999995</ele><time>2026-04-04T15:29:00.998Z</time></trkpt><trkpt lat="45.730964468090505" lon="11.266292913737772"><ele>469.20000000000005</ele><time>2026-04-04T15:29:01.998Z</time></trkpt><trkpt lat="45.73089889698576" lon="11.266383780942483"><ele>467.6</ele><time>2026-04-04T15:29:03Z</time></trkpt><trkpt lat="45.73083387239568" lon="11.266470962279852"><ele>466.0</ele><time>2026-04-04T15:29:04Z</time></trkpt><trkpt lat="45.730747877680095" lon="11.266516422913067"><ele>466.00000000000006</ele><time>2026-04-04T15:29:05Z</time></trkpt><trkpt lat="45.73068008723319" lon="11.266571374029748"><ele>466.0</ele><time>2026-04-04T15:29:06Z</time></trkpt><trkpt lat="45.730603632764435" lon="11.266624609031165"><ele>466.0</ele><time>2026-04-04T15:29:07Z</time></trkpt><trkpt lat="45.73053004295854" lon="11.266682976888635"><ele>466.0</ele><time>2026-04-04T15:29:08Z</time></trkpt><trkpt lat="45.730444695850615" lon="11.266730052337616"><ele>466.00000000000006</ele><time>2026-04-04T15:29:09Z</time></trkpt><trkpt lat="45.730370492668385" lon="11.26674558642753"><ele>466.0</ele><time>2026-04-04T15:29:10Z</time></trkpt><trkpt lat="45.73024899345186" lon="11.266777433640536"><ele>466.0</ele><time>2026-04-04T15:29:12Z</time></trkpt><trkpt lat="45.730193559369475" lon="11.266926553542364"><ele>466.0</ele><time>2026-04-04T15:29:13Z</time></trkpt><trkpt lat="45.73012754335166" lon="11.266845081151377"><ele>466.0</ele><time>2026-04-04T15:29:14Z</time></trkpt><trkpt lat="45.73020787917394" lon="11.267036014935485"><ele>466.0</ele><time>2026-04-04T15:29:19Z</time></trkpt><trkpt lat="45.730516205092066" lon="11.266800349082368"><ele>446.0</ele><time>2026-04-04T15:29:24Z</time></trkpt><trkpt lat="45.73082567050084" lon="11.267645270408488"><ele>446.0</ele><time>2026-04-04T15:29:31Z</time></trkpt><trkpt lat="45.73084029699943" lon="11.267753849904091"><ele>446.0</ele><time>2026-04-04T15:29:33Z</time></trkpt><trkpt lat="45.73073448885822" lon="11.267830340781538"><ele>446.0</ele><time>2026-04-04T15:29:35Z</time></trkpt><trkpt lat="45.730652098790216" lon="11.267871142259821"><ele>446.0</ele><time>2026-04-04T15:29:36Z</time></trkpt><trkpt lat="45.73055649680779" lon="11.267936263340044"><ele>446.0</ele><time>2026-04-04T15:29:36.999Z</time></trkpt><trkpt lat="45.73047525170327" lon="11.268008656569771"><ele>445.99999999999994</ele><time>2026-04-04T15:29:37.999Z</time></trkpt><trkpt lat="45.730421918067336" lon="11.268064035263595"><ele>446.0</ele><time>2026-04-04T15:29:38.999Z</time></trkpt><trkpt lat="45.73039184726666" lon="11.268222667107278"><ele>446.0</ele><time>2026-04-04T15:29:40.999Z</time></trkpt><trkpt lat="45.730397256397104" lon="11.268343839513705"><ele>446.0</ele><time>2026-04-04T15:29:41.999Z</time></trkpt><trkpt lat="45.730419200399155" lon="11.268461531221854"><ele>445.99999999999994</ele><time>2026-04-04T15:29:42.999Z</time></trkpt><trkpt lat="45.73044967174855" lon="11.268577220307748"><ele>446.0</ele><time>2026-04-04T15:29:43.999Z</time></trkpt><trkpt lat="45.73045789389406" lon="11.268691965522978"><ele>444.0</ele><time>2026-04-04T15:29:46.999Z</time></trkpt><trkpt lat="45.73045708805514" lon="11.268795815650474"><ele>442.0</ele><time>2026-04-04T15:29:48.999Z</time></trkpt><trkpt lat="45.730467829247935" lon="11.268913062375672"><ele>440.0</ele><time>2026-04-04T15:29:50.999Z</time></trkpt><trkpt lat="45.73047497626505" lon="11.26900702030928"><ele>438.0</ele><time>2026-04-04T15:29:53.999Z</time></trkpt><trkpt lat="45.73046235759775" lon="11.269100987654017"><ele>436.0</ele><time>2026-04-04T15:29:55.999Z</time></trkpt><trkpt lat="45.730487315622476" lon="11.26921440120869"><ele>434.0</ele><time>2026-04-04T15:29:58.999Z</time></trkpt><trkpt lat="45.73048334193474" lon="11.269314877381252"><ele>432.0</ele><time>2026-04-04T15:30:00.999Z</time></trkpt><trkpt lat="45.73049389033208" lon="11.269444079145982"><ele>429.5</ele><time>2026-04-04T15:30:03.999Z</time></trkpt><trkpt lat="45.7303927399832" lon="11.269437437915837"><ele>427.0</ele><time>2026-04-04T15:30:07.999Z</time></trkpt><trkpt lat="45.73039264250422" lon="11.269544529094503"><ele>424.5</ele><time>2026-04-04T15:30:10.999Z</time></trkpt><trkpt lat="45.73046363455685" lon="11.269648755626166"><ele>422.0</ele><time>2026-04-04T15:30:12.999Z</time></trkpt><trkpt lat="45.73050446581317" lon="11.269761543188968"><ele>419.5</ele><time>2026-04-04T15:30:15.999Z</time></trkpt><trkpt lat="45.73056274254019" lon="11.269835421083624"><ele>417.0</ele><time>2026-04-04T15:30:17.999Z</time></trkpt><trkpt lat="45.73061638985479" lon="11.269891419124102"><ele>413.5</ele><time>2026-04-04T15:30:19.999Z</time></trkpt><trkpt lat="45.73064210435774" lon="11.270014869208788"><ele>410.0</ele><time>2026-04-04T15:30:21.999Z</time></trkpt><trkpt lat="45.73062496217843" lon="11.270121853671329"><ele>406.5</ele><time>2026-04-04T15:30:23.999Z</time></trkpt><trkpt lat="45.73061656398351" lon="11.270277264189902"><ele>403.0</ele><time>2026-04-04T15:30:26.999Z</time></trkpt><trkpt lat="45.73060831279143" lon="11.27038297712025"><ele>399.5</ele><time>2026-04-04T15:30:28.999Z</time></trkpt><trkpt lat="45.730603859118965" lon="11.270490478449236"><ele>396.0</ele><time>2026-04-04T15:30:32.999Z</time></trkpt><trkpt lat="45.730573250195576" lon="11.270619601940016"><ele>392.0</ele><time>2026-04-04T15:30:36.999Z</time></trkpt><trkpt lat="45.73053437042478" lon="11.270717726107588"><ele>388.0</ele><time>2026-04-04T15:30:39.999Z</time></trkpt><trkpt lat="45.73051233021654" lon="11.270808548606816"><ele>384.0</ele><time>2026-04-04T15:30:45.998Z</time></trkpt><trkpt lat="45.730567437854326" lon="11.270893189930153"><ele>380.0</ele><time>2026-04-04T15:30:48.998Z</time></trkpt><trkpt lat="45.73062713815974" lon="11.2709437016157"><ele>376.0</ele><time>2026-04-04T15:30:50.998Z</time></trkpt><trkpt lat="45.7306319273702" lon="11.271045945818337"><ele>372.0</ele><time>2026-04-04T15:30:53.998Z</time></trkpt><trkpt lat="45.73062858607996" lon="11.271136793824018"><ele>368.0</ele><time>2026-04-04T15:30:55.998Z</time></trkpt><trkpt lat="45.730578812301" lon="11.271208195841673"><ele>368.0</ele><time>2026-04-04T15:30:57.998Z</time></trkpt><trkpt lat="45.73055247997264" lon="11.271298959146801"><ele>368.0</ele><time>2026-04-04T15:31:00.998Z</time></trkpt><trkpt lat="45.730616335549335" lon="11.27137758719645"><ele>368.0</ele><time>2026-04-04T15:31:03.998Z</time></trkpt><trkpt lat="45.73068346065352" lon="11.271371927024555"><ele>368.0</ele><time>2026-04-04T15:31:05.998Z</time></trkpt><trkpt lat="45.73079452423612" lon="11.27134340226219"><ele>368.0</ele><time>2026-04-04T15:31:07.998Z</time></trkpt><trkpt lat="45.730868703359164" lon="11.271248525165134"><ele>368.0</ele><time>2026-04-04T15:31:11Z</time></trkpt><trkpt lat="45.73094852538119" lon="11.27122730373608"><ele>368.0</ele><time>2026-04-04T15:31:14Z</time></trkpt><trkpt lat="45.73101429963273" lon="11.271151439119226"><ele>368.0</ele><time>2026-04-04T15:31:17Z</time></trkpt><trkpt lat="45.73109793239936" lon="11.27107519104675"><ele>368.0</ele><time>2026-04-04T15:31:20Z</time></trkpt><trkpt lat="45.7311860353786" lon="11.271023222985203"><ele>368.0</ele><time>2026-04-04T15:31:22Z</time></trkpt><trkpt lat="45.731276081312274" lon="11.270982846514244"><ele>368.0</ele><time>2026-04-04T15:31:24Z</time></trkpt><trkpt lat="45.73137077440627" lon="11.270928173458833"><ele>362.0</ele><time>2026-04-04T15:31:26Z</time></trkpt><trkpt lat="45.731443372487085" lon="11.270941369482761"><ele>356.0</ele><time>2026-04-04T15:31:28Z</time></trkpt><trkpt lat="45.73143557703287" lon="11.271039966710141"><ele>350.0</ele><time>2026-04-04T15:31:30Z</time></trkpt><trkpt lat="45.73136579960513" lon="11.271108391028806"><ele>344.0</ele><time>2026-04-04T15:31:32Z</time></trkpt><trkpt lat="45.73126862121201" lon="11.271223951204636"><ele>338.0</ele><time>2026-04-04T15:31:34Z</time></trkpt><trkpt lat="45.731212482027466" lon="11.271355222689195"><ele>338.2</ele><time>2026-04-04T15:31:36Z</time></trkpt><trkpt lat="45.73116163511956" lon="11.271473103099398"><ele>338.4</ele><time>2026-04-04T15:31:38Z</time></trkpt><trkpt lat="45.731051917267685" lon="11.271549252436587"><ele>338.59999999999997</ele><time>2026-04-04T15:31:40Z</time></trkpt><trkpt lat="45.73094424032339" lon="11.271651130550035"><ele>338.79999999999995</ele><time>2026-04-04T15:31:41.999Z</time></trkpt><trkpt lat="45.73089588027386" lon="11.271729960283064"><ele>339.0</ele><time>2026-04-04T15:31:42.999Z</time></trkpt><trkpt lat="45.73086901795651" lon="11.271844489096233"><ele>339.0</ele><time>2026-04-04T15:31:44.999Z</time></trkpt><trkpt lat="45.73085021284192" lon="11.271947071945554"><ele>339.0</ele><time>2026-04-04T15:31:46.999Z</time></trkpt><trkpt lat="45.730950056894976" lon="11.271978800989947"><ele>339.0</ele><time>2026-04-04T15:31:50.999Z</time></trkpt><trkpt lat="45.73101559833444" lon="11.271934953067488"><ele>339.0</ele><time>2026-04-04T15:31:51.999Z</time></trkpt><trkpt lat="45.73105499082352" lon="11.272006992409107"><ele>339.0</ele><time>2026-04-04T15:31:54.999Z</time></trkpt><trkpt lat="45.7309791900979" lon="11.272068659061336"><ele>339.0</ele><time>2026-04-04T15:31:56.999Z</time></trkpt><trkpt lat="45.730877459646635" lon="11.272089509728875"><ele>339.0</ele><time>2026-04-04T15:31:57.999Z</time></trkpt><trkpt lat="45.73078294646288" lon="11.272158910057403"><ele>339.0</ele><time>2026-04-04T15:31:58.999Z</time></trkpt><trkpt lat="45.730696520818235" lon="11.272301009862666"><ele>339.0</ele><time>2026-04-04T15:31:59.999Z</time></trkpt><trkpt lat="45.73060086387253" lon="11.272510999904238"><ele>339.0</ele><time>2026-04-04T15:32:00.999Z</time></trkpt><trkpt lat="45.730516985374386" lon="11.272691734061189"><ele>337.4</ele><time>2026-04-04T15:32:01.999Z</time></trkpt><trkpt lat="45.730465456857765" lon="11.272772302539511"><ele>335.79999999999995</ele><time>2026-04-04T15:32:02.999Z</time></trkpt><trkpt lat="45.73038996500192" lon="11.272763247590515"><ele>334.20000000000005</ele><time>2026-04-04T15:32:03.999Z</time></trkpt><trkpt lat="45.73031411671505" lon="11.27268063055953"><ele>332.6</ele><time>2026-04-04T15:32:04.999Z</time></trkpt><trkpt lat="45.73019776436276" lon="11.272575930478697"><ele>331.0</ele><time>2026-04-04T15:32:05.999Z</time></trkpt><trkpt lat="45.73009116821165" lon="11.27243975729618"><ele>331.0</ele><time>2026-04-04T15:32:06.999Z</time></trkpt><trkpt lat="45.730032187030524" lon="11.272284224182235"><ele>331.0</ele><time>2026-04-04T15:32:07.999Z</time></trkpt><trkpt lat="45.730031607660315" lon="11.272131713597421"><ele>331.0</ele><time>2026-04-04T15:32:08.999Z</time></trkpt><trkpt lat="45.730062149567615" lon="11.271986814938582"><ele>331.0</ele><time>2026-04-04T15:32:09.999Z</time></trkpt><trkpt lat="45.73008981787759" lon="11.271791009027227"><ele>333.25</ele><time>2026-04-04T15:32:10.999Z</time></trkpt><trkpt lat="45.730068465430996" lon="11.27163550571881"><ele>335.5</ele><time>2026-04-04T15:32:11.999Z</time></trkpt><trkpt lat="45.72998858383713" lon="11.271486243921473"><ele>337.75</ele><time>2026-04-04T15:32:12.999Z</time></trkpt><trkpt lat="45.729878322058084" lon="11.271382135589246"><ele>340.0</ele><time>2026-04-04T15:32:13.999Z</time></trkpt><trkpt lat="45.7297317897575" lon="11.271313350684247"><ele>345.75</ele><time>2026-04-04T15:32:14.999Z</time></trkpt><trkpt lat="45.729590748454854" lon="11.27123134222248"><ele>351.5</ele><time>2026-04-04T15:32:15.999Z</time></trkpt><trkpt lat="45.7294926700342" lon="11.271106208005447"><ele>357.25</ele><time>2026-04-04T15:32:16.999Z</time></trkpt><trkpt lat="45.72945851188285" lon="11.270937580010338"><ele>363.0</ele><time>2026-04-04T15:32:17.999Z</time></trkpt><trkpt lat="45.72941740270399" lon="11.270748001444547"><ele>359.6666666666667</ele><time>2026-04-04T15:32:18.999Z</time></trkpt><trkpt lat="45.7293593474974" lon="11.270497257206191"><ele>356.33333333333337</ele><time>2026-04-04T15:32:19.999Z</time></trkpt><trkpt lat="45.7293155340955" lon="11.270214850554451"><ele>353.0</ele><time>2026-04-04T15:32:20.999Z</time></trkpt><trkpt lat="45.72926295676962" lon="11.270038551806511"><ele>353.0</ele><time>2026-04-04T15:32:21.999Z</time></trkpt><trkpt lat="45.729211968673965" lon="11.269965440490163"><ele>353.0</ele><time>2026-04-04T15:32:22.999Z</time></trkpt><trkpt lat="45.72909825590284" lon="11.26993323665582"><ele>353.0</ele><time>2026-04-04T15:32:23.999Z</time></trkpt><trkpt lat="45.72898152552474" lon="11.269835274618371"><ele>353.0</ele><time>2026-04-04T15:32:24.999Z</time></trkpt><trkpt lat="45.72887720482349" lon="11.26967824831673"><ele>352.6666666666667</ele><time>2026-04-04T15:32:25.999Z</time></trkpt><trkpt lat="45.728742366123896" lon="11.26946758521564"><ele>352.3333333333333</ele><time>2026-04-04T15:32:26.999Z</time></trkpt><trkpt lat="45.728582771813464" lon="11.269242063317618"><ele>352.0</ele><time>2026-04-04T15:32:27.999Z</time></trkpt><trkpt lat="45.728387778024185" lon="11.269007765609665"><ele>358.66666666666663</ele><time>2026-04-04T15:32:28.999Z</time></trkpt><trkpt lat="45.72818900006501" lon="11.268809868600188"><ele>365.3333333333333</ele><time>2026-04-04T15:32:29.999Z</time></trkpt><trkpt lat="45.728035579470635" lon="11.268677775735554"><ele>372.0</ele><time>2026-04-04T15:32:30.999Z</time></trkpt><trkpt lat="45.72795600010359" lon="11.268512216761248"><ele>372.0</ele><time>2026-04-04T15:32:31.999Z</time></trkpt><trkpt lat="45.72786031910151" lon="11.26830119247676"><ele>372.0</ele><time>2026-04-04T15:32:32.999Z</time></trkpt><trkpt lat="45.72773851280259" lon="11.268068231667828"><ele>372.0</ele><time>2026-04-04T15:32:33.999Z</time></trkpt><trkpt lat="45.727662052342836" lon="11.267901458024362"><ele>369.6</ele><time>2026-04-04T15:32:34.999Z</time></trkpt><trkpt lat="45.72762114921094" lon="11.267823754225512"><ele>367.20000000000005</ele><time>2026-04-04T15:32:36.999Z</time></trkpt><trkpt lat="45.727653523416556" lon="11.267901274155928"><ele>364.8</ele><time>2026-04-04T15:32:39.999Z</time></trkpt><trkpt lat="45.72756767658339" lon="11.268118950283894"><ele>362.4</ele><time>2026-04-04T15:32:40.999Z</time></trkpt><trkpt lat="45.72756495819495" lon="11.26827995416476"><ele>360.0</ele><time>2026-04-04T15:32:41.999Z</time></trkpt><trkpt lat="45.727556078981806" lon="11.26838080383697"><ele>358.0</ele><time>2026-04-04T15:32:44.998Z</time></trkpt><trkpt lat="45.72751127894859" lon="11.268507289595718"><ele>356.0</ele><time>2026-04-04T15:32:46.998Z</time></trkpt><trkpt lat="45.727423871664165" lon="11.268535210555193"><ele>354.0</ele><time>2026-04-04T15:32:48.998Z</time></trkpt><trkpt lat="45.72731726350297" lon="11.268593362939606"><ele>352.0</ele><time>2026-04-04T15:32:49.998Z</time></trkpt><trkpt lat="45.72727509802284" lon="11.268693913629358"><ele>350.0</ele><time>2026-04-04T15:32:51.998Z</time></trkpt><trkpt lat="45.72733614770222" lon="11.268752694530328"><ele>350.0</ele><time>2026-04-04T15:32:54.998Z</time></trkpt><trkpt lat="45.72745163650875" lon="11.268763541280325"><ele>350.0</ele><time>2026-04-04T15:32:56.998Z</time></trkpt><trkpt lat="45.72753582376227" lon="11.268775613869071"><ele>350.0</ele><time>2026-04-04T15:32:58.998Z</time></trkpt><trkpt lat="45.72758136600629" lon="11.268852207553406"><ele>350.0</ele><time>2026-04-04T15:33:03.998Z</time></trkpt><trkpt lat="45.727625144398694" lon="11.268931025634325"><ele>350.0</ele><time>2026-04-04T15:33:07.998Z</time></trkpt><trkpt lat="45.72757701375135" lon="11.26900937830976"><ele>350.0</ele><time>2026-04-04T15:33:27Z</time></trkpt><trkpt lat="45.727574007473294" lon="11.269127072872042"><ele>350.0</ele><time>2026-04-04T15:33:32Z</time></trkpt><trkpt lat="45.72757360531733" lon="11.269245389214138"><ele>350.0</ele><time>2026-04-04T15:33:36Z</time></trkpt><trkpt lat="45.72762385082353" lon="11.269370343751609"><ele>350.0</ele><time>2026-04-04T15:33:39Z</time></trkpt><trkpt lat="45.7276651623825" lon="11.269472649660763"><ele>350.0</ele><time>2026-04-04T15:33:41Z</time></trkpt><trkpt lat="45.72774462860587" lon="11.26959799328853"><ele>350.0</ele><time>2026-04-04T15:33:43Z</time></trkpt><trkpt lat="45.72778682487656" lon="11.269668225940384"><ele>350.0</ele><time>2026-04-04T15:33:44Z</time></trkpt><trkpt lat="45.72782971412829" lon="11.269793709392742"><ele>348.6666666666667</ele><time>2026-04-04T15:33:45.999Z</time></trkpt><trkpt lat="45.7279041967737" lon="11.269957755034726"><ele>347.33333333333337</ele><time>2026-04-04T15:33:47.999Z</time></trkpt><trkpt lat="45.72795062099702" lon="11.270037399305812"><ele>346.0</ele><time>2026-04-04T15:33:49.999Z</time></trkpt><trkpt lat="45.728016932985675" lon="11.270054689699533"><ele>344.6666666666667</ele><time>2026-04-04T15:33:53.999Z</time></trkpt><trkpt lat="45.728034263500206" lon="11.27015716698354"><ele>343.3333333333333</ele><time>2026-04-04T15:34:02.999Z</time></trkpt><trkpt lat="45.72810026571847" lon="11.270234627627078"><ele>342.0</ele><time>2026-04-04T15:34:08.999Z</time></trkpt><trkpt lat="45.72816547162917" lon="11.270317817641185"><ele>342.0</ele><time>2026-04-04T15:34:15.999Z</time></trkpt><trkpt lat="45.7282128870509" lon="11.27038664839405"><ele>342.0</ele><time>2026-04-04T15:34:17.999Z</time></trkpt><trkpt lat="45.72825489739783" lon="11.270485186863265"><ele>342.0</ele><time>2026-04-04T15:34:20.999Z</time></trkpt><trkpt lat="45.72830282127624" lon="11.270574697165042"><ele>342.0</ele><time>2026-04-04T15:34:23.999Z</time></trkpt><trkpt lat="45.72832976628208" lon="11.270676834698898"><ele>342.0</ele><time>2026-04-04T15:34:25.999Z</time></trkpt><trkpt lat="45.72835766483298" lon="11.270771899165533"><ele>342.0</ele><time>2026-04-04T15:34:28.999Z</time></trkpt><trkpt lat="45.72838302900929" lon="11.270886347215589"><ele>342.0</ele><time>2026-04-04T15:34:35.999Z</time></trkpt><trkpt lat="45.72830826023964" lon="11.270852471016209"><ele>342.0</ele><time>2026-04-04T15:34:44.999Z</time></trkpt><trkpt lat="45.72825808445048" lon="11.270775706379917"><ele>342.0</ele><time>2026-04-04T15:34:48.998Z</time></trkpt><trkpt lat="45.728197108022194" lon="11.2707133008862"><ele>342.0</ele><time>2026-04-04T15:34:53.998Z</time></trkpt><trkpt lat="45.72811878445385" lon="11.27065486448537"><ele>342.0</ele><time>2026-04-04T15:34:56.998Z</time></trkpt><trkpt lat="45.72803744168063" lon="11.270596340144056"><ele>342.0</ele><time>2026-04-04T15:34:59.998Z</time></trkpt><trkpt lat="45.7279680520729" lon="11.270559466546532"><ele>342.0</ele><time>2026-04-04T15:35:01.998Z</time></trkpt><trkpt lat="45.727896829765335" lon="11.27057476956721"><ele>342.0</ele><time>2026-04-04T15:35:04.998Z</time></trkpt><trkpt lat="45.727833750668374" lon="11.270575276103724"><ele>342.0</ele><time>2026-04-04T15:35:05.998Z</time></trkpt><trkpt lat="45.727747704230204" lon="11.270493427095216"><ele>342.0</ele><time>2026-04-04T15:35:07.998Z</time></trkpt><trkpt lat="45.72768286903539" lon="11.270386663096579"><ele>342.0</ele><time>2026-04-04T15:35:09.998Z</time></trkpt><trkpt lat="45.72760349135396" lon="11.270288054506125"><ele>342.0</ele><time>2026-04-04T15:35:11.998Z</time></trkpt><trkpt lat="45.727543429796064" lon="11.270211727328402"><ele>346.5</ele><time>2026-04-04T15:35:12.998Z</time></trkpt><trkpt lat="45.72747915304353" lon="11.270108124557932"><ele>351.0</ele><time>2026-04-04T15:35:13.998Z</time></trkpt><trkpt lat="45.72744062850386" lon="11.27002600112405"><ele>355.5</ele><time>2026-04-04T15:35:14.998Z</time></trkpt><trkpt lat="45.727393351307846" lon="11.269936709509603"><ele>360.0</ele><time>2026-04-04T15:35:16.998Z</time></trkpt><trkpt lat="45.72732731889729" lon="11.269925783803854"><ele>364.5</ele><time>2026-04-04T15:35:19.998Z</time></trkpt><trkpt lat="45.72724944619256" lon="11.26986736732106"><ele>369.0</ele><time>2026-04-04T15:35:22Z</time></trkpt><trkpt lat="45.72717931585794" lon="11.269849016818267"><ele>369.0</ele><time>2026-04-04T15:35:26Z</time></trkpt><trkpt lat="45.727109044103294" lon="11.26978403610385"><ele>369.0</ele><time>2026-04-04T15:35:29Z</time></trkpt><trkpt lat="45.727021038728374" lon="11.269808677177181"><ele>369.0</ele><time>2026-04-04T15:35:33Z</time></trkpt><trkpt lat="45.72695936031288" lon="11.269782557011217"><ele>369.0</ele><time>2026-04-04T15:35:48Z</time></trkpt><trkpt lat="45.726880387528176" lon="11.269762509038227"><ele>369.0</ele><time>2026-04-04T15:35:50Z</time></trkpt><trkpt lat="45.72675350055041" lon="11.269724303366198"><ele>369.0</ele><time>2026-04-04T15:35:52Z</time></trkpt><trkpt lat="45.72663729399356" lon="11.269734643486755"><ele>372.0</ele><time>2026-04-04T15:35:54Z</time></trkpt><trkpt lat="45.72657120949886" lon="11.269714044531453"><ele>375.0</ele><time>2026-04-04T15:35:54.999Z</time></trkpt><trkpt lat="45.726493868081924" lon="11.269742654159513"><ele>378.0</ele><time>2026-04-04T15:35:57.999Z</time></trkpt><trkpt lat="45.726413805822915" lon="11.269874404762621"><ele>381.0</ele><time>2026-04-04T15:36:00.999Z</time></trkpt><trkpt lat="45.72636786043976" lon="11.269940719799695"><ele>384.0</ele><time>2026-04-04T15:36:01.999Z</time></trkpt><trkpt lat="45.726308152730766" lon="11.269999637161371"><ele>387.0</ele><time>2026-04-04T15:36:02.999Z</time></trkpt><trkpt lat="45.726237732121355" lon="11.270055122995975"><ele>388.8333333333333</ele><time>2026-04-04T15:36:03.999Z</time></trkpt><trkpt lat="45.726147475518964" lon="11.270099473360313"><ele>390.66666666666663</ele><time>2026-04-04T15:36:05.999Z</time></trkpt><trkpt lat="45.7260851487207" lon="11.270114497228796"><ele>392.5</ele><time>2026-04-04T15:36:06.999Z</time></trkpt><trkpt lat="45.72600477468989" lon="11.270140573711716"><ele>394.3333333333333</ele><time>2026-04-04T15:36:08.999Z</time></trkpt><trkpt lat="45.72594484515102" lon="11.270065049818053"><ele>396.16666666666663</ele><time>2026-04-04T15:36:12.999Z</time></trkpt><trkpt lat="45.7259143658663" lon="11.269979198633315"><ele>398.0</ele><time>2026-04-04T15:36:13.999Z</time></trkpt><trkpt lat="45.72587110573083" lon="11.269853439815304"><ele>406.0</ele><time>2026-04-04T15:36:14.999Z</time></trkpt><trkpt lat="45.72584789769411" lon="11.269699902875425"><ele>414.0</ele><time>2026-04-04T15:36:15.999Z</time></trkpt><trkpt lat="45.72579199086544" lon="11.26980791722003"><ele>422.0</ele><time>2026-04-04T15:36:20.999Z</time></trkpt><trkpt lat="45.725739916896316" lon="11.26991174026594"><ele>430.0</ele><time>2026-04-04T15:36:21.999Z</time></trkpt><trkpt lat="45.7256390743724" lon="11.270094235000741"><ele>430.0</ele><time>2026-04-04T15:36:23.999Z</time></trkpt><trkpt lat="45.725598682063875" lon="11.270270659434129"><ele>430.0</ele><time>2026-04-04T15:36:24.999Z</time></trkpt><trkpt lat="45.725586829957344" lon="11.270425920582136"><ele>430.0</ele><time>2026-04-04T15:36:25.999Z</time></trkpt><trkpt lat="45.72558476882956" lon="11.270541525250124"><ele>430.0</ele><time>2026-04-04T15:36:26.999Z</time></trkpt><trkpt lat="45.72557064914551" lon="11.27063133790598"><ele>430.0</ele><time>2026-04-04T15:36:27.999Z</time></trkpt><trkpt lat="45.72555044640951" lon="11.270738515521067"><ele>429.83333333333337</ele><time>2026-04-04T15:36:28.999Z</time></trkpt><trkpt lat="45.72553729090443" lon="11.270840680291794"><ele>429.6666666666667</ele><time>2026-04-04T15:36:29.999Z</time></trkpt><trkpt lat="45.725510310073176" lon="11.270923131607766"><ele>429.5</ele><time>2026-04-04T15:36:30.999Z</time></trkpt><trkpt lat="45.725401765629655" lon="11.271038839837033"><ele>429.33333333333337</ele><time>2026-04-04T15:36:32.999Z</time></trkpt><trkpt lat="45.72534012445239" lon="11.271058242830762"><ele>429.1666666666667</ele><time>2026-04-04T15:36:33.999Z</time></trkpt><trkpt lat="45.725230879976415" lon="11.271018846668662"><ele>429.0</ele><time>2026-04-04T15:36:35.999Z</time></trkpt><trkpt lat="45.72518475735464" lon="11.270901827204169"><ele>431.4</ele><time>2026-04-04T15:36:37.999Z</time></trkpt><trkpt lat="45.72517188510321" lon="11.270799104830541"><ele>433.79999999999995</ele><time>2026-04-04T15:36:38.999Z</time></trkpt><trkpt lat="45.72514698537911" lon="11.270638671046049"><ele>436.20000000000005</ele><time>2026-04-04T15:36:39.999Z</time></trkpt><trkpt lat="45.72509109643989" lon="11.270462597017602"><ele>438.6</ele><time>2026-04-04T15:36:41.999Z</time></trkpt><trkpt lat="45.72504949451507" lon="11.27038749137811"><ele>441.0</ele><time>2026-04-04T15:36:42.999Z</time></trkpt><trkpt lat="45.725007063667114" lon="11.270319282577061"><ele>443.6</ele><time>2026-04-04T15:36:43.999Z</time></trkpt><trkpt lat="45.72496016964926" lon="11.270238083582065"><ele>446.20000000000005</ele><time>2026-04-04T15:36:44.999Z</time></trkpt><trkpt lat="45.72490022917326" lon="11.27014081968002"><ele>448.79999999999995</ele><time>2026-04-04T15:36:45.999Z</time></trkpt><trkpt lat="45.72482145816382" lon="11.270025667253341"><ele>451.4</ele><time>2026-04-04T15:36:46.999Z</time></trkpt><trkpt lat="45.72474453491541" lon="11.269906203983723"><ele>454.0</ele><time>2026-04-04T15:36:47.999Z</time></trkpt><trkpt lat="45.72468732937606" lon="11.269770909253205"><ele>455.0</ele><time>2026-04-04T15:36:48.999Z</time></trkpt><trkpt lat="45.72464110871822" lon="11.269623006971912"><ele>456.0</ele><time>2026-04-04T15:36:49.999Z</time></trkpt><trkpt lat="45.724604258930405" lon="11.269473095543606"><ele>457.0</ele><time>2026-04-04T15:36:50.999Z</time></trkpt><trkpt lat="45.72456538988843" lon="11.269328786578484"><ele>458.0</ele><time>2026-04-04T15:36:51.999Z</time></trkpt><trkpt lat="45.72452611238399" lon="11.269199597801205"><ele>459.0</ele><time>2026-04-04T15:36:52.999Z</time></trkpt><trkpt lat="45.72448937601022" lon="11.269074418557553"><ele>459.0</ele><time>2026-04-04T15:36:53.999Z</time></trkpt><trkpt lat="45.72446002800146" lon="11.26895218149173"><ele>459.0</ele><time>2026-04-04T15:36:54.999Z</time></trkpt><trkpt lat="45.724439897853436" lon="11.268821828371223"><ele>459.0</ele><time>2026-04-04T15:36:55.999Z</time></trkpt><trkpt lat="45.7244290046374" lon="11.26868638771666"><ele>459.0</ele><time>2026-04-04T15:36:56.999Z</time></trkpt><trkpt lat="45.72441365928343" lon="11.268546626765959"><ele>459.0</ele><time>2026-04-04T15:36:57.999Z</time></trkpt><trkpt lat="45.724386874161425" lon="11.268410874270804"><ele>458.79999999999995</ele><time>2026-04-04T15:36:58.998Z</time></trkpt><trkpt lat="45.724368092196414" lon="11.268263901410808"><ele>458.59999999999997</ele><time>2026-04-04T15:36:59.998Z</time></trkpt><trkpt lat="45.724343407302705" lon="11.2681229829783"><ele>458.4</ele><time>2026-04-04T15:37:00.998Z</time></trkpt><trkpt lat="45.72430751123035" lon="11.2679826258417"><ele>458.2</ele><time>2026-04-04T15:37:01.998Z</time></trkpt><trkpt lat="45.72426461064294" lon="11.267850392082279"><ele>458.0</ele><time>2026-04-04T15:37:02.998Z</time></trkpt><trkpt lat="45.72421367377136" lon="11.267724690279053"><ele>458.0</ele><time>2026-04-04T15:37:03.998Z</time></trkpt><trkpt lat="45.72416509120137" lon="11.267601698583034"><ele>457.99999999999994</ele><time>2026-04-04T15:37:04.998Z</time></trkpt><trkpt lat="45.72411729576715" lon="11.26747983065231"><ele>457.99999999999994</ele><time>2026-04-04T15:37:05.998Z</time></trkpt><trkpt lat="45.72406977972069" lon="11.267358357269787"><ele>458.0</ele><time>2026-04-04T15:37:06.998Z</time></trkpt><trkpt lat="45.72401965945335" lon="11.267234077041023"><ele>458.0</ele><time>2026-04-04T15:37:07.998Z</time></trkpt><trkpt lat="45.723962308799344" lon="11.267135678460194"><ele>456.49999999999994</ele><time>2026-04-04T15:37:08.998Z</time></trkpt><trkpt lat="45.723895279966044" lon="11.267056804225495"><ele>455.0</ele><time>2026-04-04T15:37:09.998Z</time></trkpt><trkpt lat="45.72382235209498" lon="11.266990499505251"><ele>453.5</ele><time>2026-04-04T15:37:10.998Z</time></trkpt><trkpt lat="45.72375376088768" lon="11.266936247751602"><ele>452.0</ele><time>2026-04-04T15:37:11.998Z</time></trkpt><trkpt lat="45.72368887985922" lon="11.266890227559625"><ele>450.49999999999994</ele><time>2026-04-04T15:37:12.998Z</time></trkpt><trkpt lat="45.72362232305306" lon="11.266847674261022"><ele>449.0</ele><time>2026-04-04T15:37:13.998Z</time></trkpt><trkpt lat="45.72355325639164" lon="11.26680686684784"><ele>448.99999999999994</ele><time>2026-04-04T15:37:14.998Z</time></trkpt><trkpt lat="45.7234893099786" lon="11.266766962464592"><ele>449.0</ele><time>2026-04-04T15:37:15.998Z</time></trkpt><trkpt lat="45.723437834969296" lon="11.266695259301871"><ele>449.0</ele><time>2026-04-04T15:37:16.998Z</time></trkpt><trkpt lat="45.723374283496874" lon="11.266643893975777"><ele>449.0</ele><time>2026-04-04T15:37:17.998Z</time></trkpt><trkpt lat="45.72333910348182" lon="11.26654079339853"><ele>448.99999999999994</ele><time>2026-04-04T15:37:18.998Z</time></trkpt><trkpt lat="45.72328199209816" lon="11.266453579990491"><ele>449.0</ele><time>2026-04-04T15:37:19.998Z</time></trkpt><trkpt lat="45.72324166493146" lon="11.266343267966173"><ele>448.0</ele><time>2026-04-04T15:37:20.998Z</time></trkpt><trkpt lat="45.72319373550817" lon="11.26622703397238"><ele>447.0</ele><time>2026-04-04T15:37:21.998Z</time></trkpt><trkpt lat="45.72314682021565" lon="11.266092463510637"><ele>446.0</ele><time>2026-04-04T15:37:22.998Z</time></trkpt><trkpt lat="45.72308184311878" lon="11.265950285222196"><ele>445.0</ele><time>2026-04-04T15:37:23.998Z</time></trkpt><trkpt lat="45.72300362753484" lon="11.265829611371268"><ele>444.0</ele><time>2026-04-04T15:37:24.998Z</time></trkpt><trkpt lat="45.72294682116264" lon="11.265693391702232"><ele>442.4</ele><time>2026-04-04T15:37:26Z</time></trkpt><trkpt lat="45.722882936148466" lon="11.265563600489866"><ele>440.79999999999995</ele><time>2026-04-04T15:37:27Z</time></trkpt><trkpt lat="45.72282953118349" lon="11.265454720696352"><ele>439.20000000000005</ele><time>2026-04-04T15:37:28Z</time></trkpt><trkpt lat="45.72277698678363" lon="11.265312912553275"><ele>437.6</ele><time>2026-04-04T15:37:29Z</time></trkpt><trkpt lat="45.7227548568469" lon="11.265186536390768"><ele>436.0</ele><time>2026-04-04T15:37:30Z</time></trkpt><trkpt lat="45.72270969892039" lon="11.265065916255827"><ele>440.20000000000005</ele><time>2026-04-04T15:37:31Z</time></trkpt><trkpt lat="45.72262916811658" lon="11.264976439333491"><ele>444.40000000000003</ele><time>2026-04-04T15:37:32Z</time></trkpt><trkpt lat="45.72253966528409" lon="11.26489600601544"><ele>448.6</ele><time>2026-04-04T15:37:33Z</time></trkpt><trkpt lat="45.72245875023271" lon="11.26480270141518"><ele>452.8</ele><time>2026-04-04T15:37:34Z</time></trkpt><trkpt lat="45.72238851586991" lon="11.264690349228461"><ele>457.0</ele><time>2026-04-04T15:37:35Z</time></trkpt><trkpt lat="45.72233786545434" lon="11.264571418044637"><ele>457.6666666666667</ele><time>2026-04-04T15:37:36Z</time></trkpt><trkpt lat="45.722302515973986" lon="11.264456462970667"><ele>458.33333333333337</ele><time>2026-04-04T15:37:37Z</time></trkpt><trkpt lat="45.722265305344166" lon="11.264345425610799"><ele>459.0</ele><time>2026-04-04T15:37:38Z</time></trkpt><trkpt lat="45.72222417564417" lon="11.264263569127232"><ele>459.66666666666663</ele><time>2026-04-04T15:37:39Z</time></trkpt><trkpt lat="45.722172321680084" lon="11.264210219171774"><ele>460.3333333333333</ele><time>2026-04-04T15:37:40Z</time></trkpt><trkpt lat="45.722092870083166" lon="11.264214926442639"><ele>461.0</ele><time>2026-04-04T15:37:41Z</time></trkpt><trkpt lat="45.72201086179419" lon="11.264290782195399"><ele>461.0</ele><time>2026-04-04T15:37:42Z</time></trkpt><trkpt lat="45.721918159174734" lon="11.264336755344823"><ele>461.0</ele><time>2026-04-04T15:37:43Z</time></trkpt><trkpt lat="45.72179515464407" lon="11.264362910586527"><ele>461.0</ele><time>2026-04-04T15:37:44Z</time></trkpt><trkpt lat="45.72166998596098" lon="11.264359812025111"><ele>461.0</ele><time>2026-04-04T15:37:45Z</time></trkpt><trkpt lat="45.72154513032105" lon="11.264282304305379"><ele>464.66666666666663</ele><time>2026-04-04T15:37:46Z</time></trkpt><trkpt lat="45.7213616007869" lon="11.264236204071297"><ele>468.33333333333337</ele><time>2026-04-04T15:37:47Z</time></trkpt><trkpt lat="45.72115060574702" lon="11.264214684929888"><ele>472.0</ele><time>2026-04-04T15:37:48Z</time></trkpt><trkpt lat="45.720957194188315" lon="11.264184793780284"><ele>472.0</ele><time>2026-04-04T15:37:49Z</time></trkpt><trkpt lat="45.72078818866597" lon="11.264147584699687"><ele>472.0</ele><time>2026-04-04T15:37:50Z</time></trkpt><trkpt lat="45.72066915912848" lon="11.264112922094755"><ele>472.0</ele><time>2026-04-04T15:37:51Z</time></trkpt><trkpt lat="45.720562171550085" lon="11.264099378351858"><ele>472.0</ele><time>2026-04-04T15:37:52Z</time></trkpt><trkpt lat="45.72042744608964" lon="11.26414677727963"><ele>472.0</ele><time>2026-04-04T15:37:54Z</time></trkpt><trkpt lat="45.7204424604516" lon="11.264262246846757"><ele>472.0</ele><time>2026-04-04T15:37:55Z</time></trkpt><trkpt lat="45.72050392431334" lon="11.264447811294957"><ele>472.0</ele><time>2026-04-04T15:37:56.999Z</time></trkpt><trkpt lat="45.72060743025416" lon="11.264570959277313"><ele>472.0</ele><time>2026-04-04T15:37:57.999Z</time></trkpt><trkpt lat="45.72067690195336" lon="11.264739536333517"><ele>471.25</ele><time>2026-04-04T15:37:58.999Z</time></trkpt><trkpt lat="45.72078245074525" lon="11.264975773582721"><ele>470.5</ele><time>2026-04-04T15:37:59.999Z</time></trkpt><trkpt lat="45.72085770281355" lon="11.265141871857349"><ele>469.75</ele><time>2026-04-04T15:38:00.999Z</time></trkpt><trkpt lat="45.72091557976881" lon="11.265269014267687"><ele>469.0</ele><time>2026-04-04T15:38:01.999Z</time></trkpt><trkpt lat="45.720948910158626" lon="11.265416287664815"><ele>469.0</ele><time>2026-04-04T15:38:02.999Z</time></trkpt><trkpt lat="45.72091818148041" lon="11.265562908091209"><ele>469.0</ele><time>2026-04-04T15:38:03.999Z</time></trkpt><trkpt lat="45.72091287535762" lon="11.265731805138735"><ele>469.0</ele><time>2026-04-04T15:38:04.999Z</time></trkpt><trkpt lat="45.72087804996148" lon="11.26591365331149"><ele>469.0</ele><time>2026-04-04T15:38:05.999Z</time></trkpt><trkpt lat="45.72085258009304" lon="11.266110577570085"><ele>471.5</ele><time>2026-04-04T15:38:06.999Z</time></trkpt><trkpt lat="45.720815757345264" lon="11.266310000821036"><ele>474.0</ele><time>2026-04-04T15:38:07.999Z</time></trkpt><trkpt lat="45.72079154715679" lon="11.266486672320594"><ele>476.5</ele><time>2026-04-04T15:38:08.999Z</time></trkpt><trkpt lat="45.72076257104267" lon="11.26665096003032"><ele>479.0</ele><time>2026-04-04T15:38:09.999Z</time></trkpt><trkpt lat="45.72073487125073" lon="11.266803173594564"><ele>480.2</ele><time>2026-04-04T15:38:10.999Z</time></trkpt><trkpt lat="45.72071563917237" lon="11.266954292515257"><ele>481.4</ele><time>2026-04-04T15:38:11.999Z</time></trkpt><trkpt lat="45.72071735699352" lon="11.267113511195275"><ele>482.6</ele><time>2026-04-04T15:38:12.999Z</time></trkpt><trkpt lat="45.72071925649319" lon="11.267292132742703"><ele>483.8</ele><time>2026-04-04T15:38:13.999Z</time></trkpt><trkpt lat="45.72071341199405" lon="11.267426181476006"><ele>485.0</ele><time>2026-04-04T15:38:14.999Z</time></trkpt><trkpt lat="45.72070826137938" lon="11.267537194417358"><ele>484.99999999999994</ele><time>2026-04-04T15:38:15.999Z</time></trkpt><trkpt lat="45.720727018710626" lon="11.267635758384895"><ele>485.0</ele><time>2026-04-04T15:38:16.999Z</time></trkpt><trkpt lat="45.72073579369178" lon="11.267740274068444"><ele>485.0</ele><time>2026-04-04T15:38:17.999Z</time></trkpt><trkpt lat="45.72072057594539" lon="11.267843408847535"><ele>485.0</ele><time>2026-04-04T15:38:18.999Z</time></trkpt><trkpt lat="45.720706559422055" lon="11.267957122741363"><ele>484.99999999999994</ele><time>2026-04-04T15:38:19.999Z</time></trkpt><trkpt lat="45.72067442704536" lon="11.268073650773637"><ele>485.0</ele><time>2026-04-04T15:38:20.999Z</time></trkpt><trkpt lat="45.72063846685333" lon="11.26821422985983"><ele>485.0</ele><time>2026-04-04T15:38:21.999Z</time></trkpt><trkpt lat="45.72059745238813" lon="11.268377595717904"><ele>485.0</ele><time>2026-04-04T15:38:22.999Z</time></trkpt><trkpt lat="45.72055364138161" lon="11.26857621778349"><ele>485.0</ele><time>2026-04-04T15:38:23.999Z</time></trkpt><trkpt lat="45.72053551456828" lon="11.268777165481497"><ele>485.0</ele><time>2026-04-04T15:38:24.999Z</time></trkpt><trkpt lat="45.72053852969333" lon="11.268962561957027"><ele>484.4</ele><time>2026-04-04T15:38:25.999Z</time></trkpt><trkpt lat="45.72053197514362" lon="11.269151339922075"><ele>483.8</ele><time>2026-04-04T15:38:26.999Z</time></trkpt><trkpt lat="45.72053455668051" lon="11.269304275041137"><ele>483.20000000000005</ele><time>2026-04-04T15:38:27.999Z</time></trkpt><trkpt lat="45.720515050347686" lon="11.269421346357325"><ele>482.6</ele><time>2026-04-04T15:38:28.999Z</time></trkpt><trkpt lat="45.72049364422488" lon="11.269543074748595"><ele>482.0</ele><time>2026-04-04T15:38:30.999Z</time></trkpt><trkpt lat="45.720505057045095" lon="11.269684489124293"><ele>483.6</ele><time>2026-04-04T15:38:32.999Z</time></trkpt><trkpt lat="45.72052517507588" lon="11.269822461383386"><ele>485.20000000000005</ele><time>2026-04-04T15:38:33.999Z</time></trkpt><trkpt lat="45.72055561970436" lon="11.26997923049463"><ele>486.8</ele><time>2026-04-04T15:38:34.999Z</time></trkpt><trkpt lat="45.720625371466966" lon="11.270095741200084"><ele>488.4</ele><time>2026-04-04T15:38:35.999Z</time></trkpt><trkpt lat="45.72065494458463" lon="11.270241764725219"><ele>490.0</ele><time>2026-04-04T15:38:36.999Z</time></trkpt><trkpt lat="45.72085650593044" lon="11.270338140779419"><ele>490.0</ele><time>2026-04-04T15:38:37.999Z</time></trkpt><trkpt lat="45.72074316420933" lon="11.270412934147556"><ele>490.0</ele><time>2026-04-04T15:38:38.999Z</time></trkpt><trkpt lat="45.72075965263018" lon="11.270531019196495"><ele>490.0</ele><time>2026-04-04T15:38:39.999Z</time></trkpt><trkpt lat="45.72047478335272" lon="11.270916381359982"><ele>501.0</ele><time>2026-04-04T15:38:41.999Z</time></trkpt><trkpt lat="45.72001752464381" lon="11.270697140280006"><ele>501.0</ele><time>2026-04-04T15:38:43.999Z</time></trkpt><trkpt lat="45.71992759396422" lon="11.270650426041462"><ele>501.0</ele><time>2026-04-04T15:38:44.999Z</time></trkpt><trkpt lat="45.719843008863364" lon="11.270576429618506"><ele>501.0</ele><time>2026-04-04T15:38:45.999Z</time></trkpt><trkpt lat="45.71974507468669" lon="11.270498604797298"><ele>501.0</ele><time>2026-04-04T15:38:46.999Z</time></trkpt><trkpt lat="45.719650668465846" lon="11.270460584006662"><ele>501.0</ele><time>2026-04-04T15:38:47.999Z</time></trkpt><trkpt lat="45.71956160219292" lon="11.270481604114803"><ele>500.8</ele><time>2026-04-04T15:38:48.999Z</time></trkpt><trkpt lat="45.7194744691058" lon="11.270568214931629"><ele>500.6</ele><time>2026-04-04T15:38:49.999Z</time></trkpt><trkpt lat="45.719378317425296" lon="11.270673552787397"><ele>500.4</ele><time>2026-04-04T15:38:50.999Z</time></trkpt><trkpt lat="45.71927713098621" lon="11.270774195451555"><ele>500.2</ele><time>2026-04-04T15:38:51.999Z</time></trkpt><trkpt lat="45.71919828942012" lon="11.270848684670156"><ele>500.0</ele><time>2026-04-04T15:38:52.999Z</time></trkpt><trkpt lat="45.71913968123525" lon="11.270894327131462"><ele>499.99999999999994</ele><time>2026-04-04T15:38:53.999Z</time></trkpt><trkpt lat="45.719075750373065" lon="11.270935780880613"><ele>500.0</ele><time>2026-04-04T15:38:55.999Z</time></trkpt><trkpt lat="45.71906463625305" lon="11.270816164361076"><ele>500.0</ele><time>2026-04-04T15:39:33Z</time></trkpt><trkpt lat="45.71902874829745" lon="11.270711208567143"><ele>500.0</ele><time>2026-04-04T15:39:34Z</time></trkpt><trkpt lat="45.71900000654574" lon="11.270592997704473"><ele>499.99999999999994</ele><time>2026-04-04T15:39:35Z</time></trkpt><trkpt lat="45.71897869450151" lon="11.270482912949712"><ele>500.0</ele><time>2026-04-04T15:39:36Z</time></trkpt><trkpt lat="45.718946672511805" lon="11.270363731408816"><ele>503.8333333333333</ele><time>2026-04-04T15:39:38Z</time></trkpt><trkpt lat="45.71889396527458" lon="11.270229887128693"><ele>507.66666666666663</ele><time>2026-04-04T15:39:40Z</time></trkpt><trkpt lat="45.71885704984231" lon="11.27014336066512"><ele>511.5</ele><time>2026-04-04T15:39:41Z</time></trkpt><trkpt lat="45.718816587637846" lon="11.270060774546948"><ele>515.3333333333334</ele><time>2026-04-04T15:39:42Z</time></trkpt><trkpt lat="45.71876365318663" lon="11.26996548007055"><ele>519.1666666666667</ele><time>2026-04-04T15:39:43Z</time></trkpt><trkpt lat="45.71873114372235" lon="11.269859031049439"><ele>523.0</ele><time>2026-04-04T15:39:44Z</time></trkpt><trkpt lat="45.718698852857116" lon="11.269737427501287"><ele>526.0</ele><time>2026-04-04T15:39:45Z</time></trkpt><trkpt lat="45.71865988099792" lon="11.269623368021117"><ele>529.0</ele><time>2026-04-04T15:39:46Z</time></trkpt><trkpt lat="45.71861704218013" lon="11.269527071977715"><ele>532.0</ele><time>2026-04-04T15:39:47Z</time></trkpt><trkpt lat="45.718570520193985" lon="11.269462477484272"><ele>535.0</ele><time>2026-04-04T15:39:48Z</time></trkpt><trkpt lat="45.718483059598306" lon="11.269417443955941"><ele>538.0</ele><time>2026-04-04T15:39:50Z</time></trkpt><trkpt lat="45.71835249932991" lon="11.269430519440483"><ele>538.0</ele><time>2026-04-04T15:39:52Z</time></trkpt><trkpt lat="45.71826974776769" lon="11.269423124679289"><ele>538.0</ele><time>2026-04-04T15:39:53Z</time></trkpt><trkpt lat="45.718188588226774" lon="11.269412250772184"><ele>538.0</ele><time>2026-04-04T15:39:54Z</time></trkpt><trkpt lat="45.71809501222979" lon="11.269418343415218"><ele>538.0</ele><time>2026-04-04T15:39:55Z</time></trkpt><trkpt lat="45.71800381195734" lon="11.269442119306612"><ele>538.0</ele><time>2026-04-04T15:39:56Z</time></trkpt><trkpt lat="45.71791866522295" lon="11.269477001899821"><ele>538.0</ele><time>2026-04-04T15:39:57Z</time></trkpt><trkpt lat="45.71785235522146" lon="11.269536149280395"><ele>538.0</ele><time>2026-04-04T15:39:58Z</time></trkpt><trkpt lat="45.71781233619913" lon="11.269613565266013"><ele>538.0</ele><time>2026-04-04T15:39:59Z</time></trkpt><trkpt lat="45.71778068742492" lon="11.269711587837433"><ele>538.0</ele><time>2026-04-04T15:40:00Z</time></trkpt><trkpt lat="45.71773505117104" lon="11.269778153834203"><ele>538.0</ele><time>2026-04-04T15:40:01Z</time></trkpt><trkpt lat="45.71766024247805" lon="11.26982448394658"><ele>538.0</ele><time>2026-04-04T15:40:02Z</time></trkpt><trkpt lat="45.717589139256376" lon="11.269820616567577"><ele>538.0</ele><time>2026-04-04T15:40:03Z</time></trkpt><trkpt lat="45.71751125250066" lon="11.269784844652078"><ele>538.0</ele><time>2026-04-04T15:40:04Z</time></trkpt><trkpt lat="45.71743184634441" lon="11.269723666879937"><ele>537.6</ele><time>2026-04-04T15:40:05Z</time></trkpt><trkpt lat="45.717367251533396" lon="11.269641099706678"><ele>537.1999999999999</ele><time>2026-04-04T15:40:06Z</time></trkpt><trkpt lat="45.71732360894141" lon="11.2695340554691"><ele>536.8</ele><time>2026-04-04T15:40:07Z</time></trkpt><trkpt lat="45.71728060711789" lon="11.26941215239021"><ele>536.4</ele><time>2026-04-04T15:40:08Z</time></trkpt><trkpt lat="45.71721683817454" lon="11.269331092725988"><ele>536.0</ele><time>2026-04-04T15:40:09Z</time></trkpt><trkpt lat="45.717113954265415" lon="11.269262886568823"><ele>536.0</ele><time>2026-04-04T15:40:10Z</time></trkpt><trkpt lat="45.71700148482507" lon="11.26923442426574"><ele>536.0</ele><time>2026-04-04T15:40:11Z</time></trkpt><trkpt lat="45.71686653821144" lon="11.269212564097481"><ele>536.0</ele><time>2026-04-04T15:40:12Z</time></trkpt><trkpt lat="45.716729313764965" lon="11.269173407734504"><ele>536.0</ele><time>2026-04-04T15:40:12.999Z</time></trkpt><trkpt lat="45.71660762811369" lon="11.269132846005716"><ele>537.5</ele><time>2026-04-04T15:40:13.999Z</time></trkpt><trkpt lat="45.716482699138" lon="11.269046207574565"><ele>539.0</ele><time>2026-04-04T15:40:14.999Z</time></trkpt><trkpt lat="45.71638696670837" lon="11.26893760098925"><ele>540.5</ele><time>2026-04-04T15:40:15.999Z</time></trkpt><trkpt lat="45.716294584893134" lon="11.268814090739934"><ele>542.0</ele><time>2026-04-04T15:40:16.999Z</time></trkpt><trkpt lat="45.71619736370969" lon="11.268651354709583"><ele>542.0</ele><time>2026-04-04T15:40:17.999Z</time></trkpt><trkpt lat="45.71610943001627" lon="11.268492360081648"><ele>542.0</ele><time>2026-04-04T15:40:18.999Z</time></trkpt><trkpt lat="45.71605816592987" lon="11.26837058588113"><ele>542.0</ele><time>2026-04-04T15:40:19.999Z</time></trkpt><trkpt lat="45.716043160878755" lon="11.268261828700716"><ele>542.0</ele><time>2026-04-04T15:40:20.999Z</time></trkpt><trkpt lat="45.71605932601976" lon="11.2681420620776"><ele>542.0</ele><time>2026-04-04T15:40:21.999Z</time></trkpt><trkpt lat="45.716100130773775" lon="11.268036061240673"><ele>544.1666666666666</ele><time>2026-04-04T15:40:22.999Z</time></trkpt><trkpt lat="45.71611823175125" lon="11.267942016511164"><ele>546.3333333333333</ele><time>2026-04-04T15:40:23.999Z</time></trkpt><trkpt lat="45.71602565380163" lon="11.267851180413121"><ele>548.5</ele><time>2026-04-04T15:40:25.999Z</time></trkpt><trkpt lat="45.71595154462471" lon="11.267849204167803"><ele>550.6666666666666</ele><time>2026-04-04T15:40:26.999Z</time></trkpt><trkpt lat="45.715874912074256" lon="11.26789576200138"><ele>552.8333333333334</ele><time>2026-04-04T15:40:27.999Z</time></trkpt><trkpt lat="45.71577611099045" lon="11.267859606122057"><ele>555.0</ele><time>2026-04-04T15:40:28.999Z</time></trkpt><trkpt lat="45.715626250091944" lon="11.267854928628358"><ele>555.0</ele><time>2026-04-04T15:40:29.999Z</time></trkpt><trkpt lat="45.71545657741325" lon="11.267844133575487"><ele>555.0</ele><time>2026-04-04T15:40:30.999Z</time></trkpt><trkpt lat="45.71531798484828" lon="11.267848284188487"><ele>555.0</ele><time>2026-04-04T15:40:31.999Z</time></trkpt><trkpt lat="45.715244573116934" lon="11.267909203031147"><ele>555.0</ele><time>2026-04-04T15:40:32.999Z</time></trkpt><trkpt lat="45.71514192596326" lon="11.267989335658942"><ele>557.4</ele><time>2026-04-04T15:40:33.999Z</time></trkpt><trkpt lat="45.71507060082194" lon="11.268061028583912"><ele>559.8</ele><time>2026-04-04T15:40:34.999Z</time></trkpt><trkpt lat="45.71500288038595" lon="11.268135916230843"><ele>562.2</ele><time>2026-04-04T15:40:35.999Z</time></trkpt><trkpt lat="45.71494334268914" lon="11.268278465081735"><ele>564.6</ele><time>2026-04-04T15:40:36.999Z</time></trkpt><trkpt lat="45.714867698588506" lon="11.2684281601403"><ele>567.0</ele><time>2026-04-04T15:40:37.999Z</time></trkpt><trkpt lat="45.714803871020976" lon="11.268573184724236"><ele>556.5</ele><time>2026-04-04T15:40:38.999Z</time></trkpt><trkpt lat="45.71472527482924" lon="11.268680144508746"><ele>546.0</ele><time>2026-04-04T15:40:39.999Z</time></trkpt><trkpt lat="45.7146176958646" lon="11.268815206485007"><ele>535.5</ele><time>2026-04-04T15:40:40.999Z</time></trkpt><trkpt lat="45.71452618065249" lon="11.26885881183259"><ele>525.0</ele><time>2026-04-04T15:40:41.999Z</time></trkpt><trkpt lat="45.71443362408047" lon="11.268924899006793"><ele>525.0</ele><time>2026-04-04T15:40:42.999Z</time></trkpt><trkpt lat="45.71432185805698" lon="11.269000345821176"><ele>525.0</ele><time>2026-04-04T15:40:43.999Z</time></trkpt><trkpt lat="45.71419220843845" lon="11.26905683392675"><ele>525.0</ele><time>2026-04-04T15:40:44.999Z</time></trkpt><trkpt lat="45.714082608634534" lon="11.269134954554534"><ele>525.0</ele><time>2026-04-04T15:40:45.999Z</time></trkpt><trkpt lat="45.71401420284131" lon="11.269203834408398"><ele>525.0</ele><time>2026-04-04T15:40:46.999Z</time></trkpt><trkpt lat="45.71395906997075" lon="11.269282071475345"><ele>525.0</ele><time>2026-04-04T15:40:47.999Z</time></trkpt><trkpt lat="45.71390906338706" lon="11.269363864117034"><ele>525.0</ele><time>2026-04-04T15:40:48.999Z</time></trkpt><trkpt lat="45.713952647465746" lon="11.269519939395954"><ele>525.0</ele><time>2026-04-04T15:40:50.999Z</time></trkpt><trkpt lat="45.713994931643576" lon="11.269618143532709"><ele>525.0</ele><time>2026-04-04T15:40:51.999Z</time></trkpt><trkpt lat="45.7140286786781" lon="11.269778666867534"><ele>521.25</ele><time>2026-04-04T15:40:52.999Z</time></trkpt><trkpt lat="45.71407059649423" lon="11.269981112674516"><ele>517.5</ele><time>2026-04-04T15:40:53.999Z</time></trkpt><trkpt lat="45.714126666580626" lon="11.27013163317025"><ele>513.75</ele><time>2026-04-04T15:40:54.999Z</time></trkpt><trkpt lat="45.714186535473864" lon="11.270263825267767"><ele>510.0</ele><time>2026-04-04T15:40:55.999Z</time></trkpt><trkpt lat="45.714240430430706" lon="11.2703549220774"><ele>510.0</ele><time>2026-04-04T15:40:56.999Z</time></trkpt><trkpt lat="45.71426297727573" lon="11.270448384641705"><ele>510.0</ele><time>2026-04-04T15:40:57.999Z</time></trkpt><trkpt lat="45.714251471593066" lon="11.270566425202787"><ele>510.0</ele><time>2026-04-04T15:40:58.999Z</time></trkpt><trkpt lat="45.71421154019766" lon="11.270665216874667"><ele>510.0</ele><time>2026-04-04T15:40:59.999Z</time></trkpt><trkpt lat="45.7141509476866" lon="11.27077801437402"><ele>510.0</ele><time>2026-04-04T15:41:00.999Z</time></trkpt><trkpt lat="45.71406945098798" lon="11.270852496794017"><ele>510.0</ele><time>2026-04-04T15:41:01.999Z</time></trkpt><trkpt lat="45.7139832317673" lon="11.27088811089388"><ele>506.4</ele><time>2026-04-04T15:41:02.999Z</time></trkpt><trkpt lat="45.71390419623483" lon="11.270911726746919"><ele>502.8</ele><time>2026-04-04T15:41:03.999Z</time></trkpt><trkpt lat="45.71382883982401" lon="11.270989402719835"><ele>499.20000000000005</ele><time>2026-04-04T15:41:05.999Z</time></trkpt><trkpt lat="45.71388883643482" lon="11.271192968763632"><ele>495.6</ele><time>2026-04-04T15:41:07.999Z</time></trkpt><trkpt lat="45.713913576687" lon="11.271306989207455"><ele>492.0</ele><time>2026-04-04T15:41:08.999Z</time></trkpt><trkpt lat="45.713930314863134" lon="11.271401029059549"><ele>492.0</ele><time>2026-04-04T15:41:09.999Z</time></trkpt><trkpt lat="45.71399643103356" lon="11.271494326757331"><ele>492.00000000000006</ele><time>2026-04-04T15:41:11.999Z</time></trkpt><trkpt lat="45.713885855324236" lon="11.271548756894706"><ele>492.00000000000006</ele><time>2026-04-04T15:41:21.998Z</time></trkpt><trkpt lat="45.71381746799627" lon="11.271553966731002"><ele>492.0</ele><time>2026-04-04T15:41:22.998Z</time></trkpt><trkpt lat="45.713748192000175" lon="11.271531689284782"><ele>492.0</ele><time>2026-04-04T15:41:24.998Z</time></trkpt><trkpt lat="45.71390894177452" lon="11.271317850277963"><ele>481.0</ele><time>2026-04-04T15:41:26.998Z</time></trkpt><trkpt lat="45.71350472185125" lon="11.270854859154834"><ele>481.0</ele><time>2026-04-04T15:41:38Z</time></trkpt><trkpt lat="45.71343851014909" lon="11.270729474461055"><ele>481.0</ele><time>2026-04-04T15:41:40Z</time></trkpt><trkpt lat="45.71337389958183" lon="11.270670671301147"><ele>481.0</ele><time>2026-04-04T15:41:42Z</time></trkpt><trkpt lat="45.71329356265584" lon="11.270721636025007"><ele>481.0</ele><time>2026-04-04T15:41:44Z</time></trkpt><trkpt lat="45.713212541079436" lon="11.270864330218332"><ele>481.0</ele><time>2026-04-04T15:41:46Z</time></trkpt><trkpt lat="45.713141104811115" lon="11.270999153751376"><ele>481.0</ele><time>2026-04-04T15:41:48Z</time></trkpt><trkpt lat="45.713032812465244" lon="11.271079046674782"><ele>481.0</ele><time>2026-04-04T15:41:50Z</time></trkpt><trkpt lat="45.71292763769962" lon="11.271004324164062"><ele>481.0</ele><time>2026-04-04T15:41:52Z</time></trkpt><trkpt lat="45.712894437304556" lon="11.270927444708935"><ele>481.0</ele><time>2026-04-04T15:41:53Z</time></trkpt><trkpt lat="45.71284817274701" lon="11.27082459153349"><ele>481.0</ele><time>2026-04-04T15:41:54Z</time></trkpt><trkpt lat="45.712836724858384" lon="11.270713238282948"><ele>481.00000000000006</ele><time>2026-04-04T15:41:55Z</time></trkpt><trkpt lat="45.71283271286097" lon="11.270608201537557"><ele>481.0</ele><time>2026-04-04T15:41:56Z</time></trkpt><trkpt lat="45.71282257044447" lon="11.270492572461496"><ele>481.0</ele><time>2026-04-04T15:41:57Z</time></trkpt><trkpt lat="45.71279960002918" lon="11.270372336823431"><ele>481.0</ele><time>2026-04-04T15:41:58Z</time></trkpt><trkpt lat="45.71275250999008" lon="11.2702614678039"><ele>481.00000000000006</ele><time>2026-04-04T15:41:59Z</time></trkpt><trkpt lat="45.71267332046383" lon="11.270158096510036"><ele>481.0</ele><time>2026-04-04T15:42:00Z</time></trkpt><trkpt lat="45.712593270471096" lon="11.270066261176"><ele>482.20000000000005</ele><time>2026-04-04T15:42:01Z</time></trkpt><trkpt lat="45.71253695544175" lon="11.269988340530611"><ele>483.40000000000003</ele><time>2026-04-04T15:42:02Z</time></trkpt><trkpt lat="45.71250266947179" lon="11.269885520178068"><ele>484.6</ele><time>2026-04-04T15:42:03Z</time></trkpt><trkpt lat="45.71245084541395" lon="11.269742406619944"><ele>485.8</ele><time>2026-04-04T15:42:04Z</time></trkpt><trkpt lat="45.71239839687312" lon="11.269597344425138"><ele>487.0</ele><time>2026-04-04T15:42:05Z</time></trkpt><trkpt lat="45.712349783993155" lon="11.269477591977289"><ele>487.0</ele><time>2026-04-04T15:42:06Z</time></trkpt><trkpt lat="45.712316711944396" lon="11.269364008595776"><ele>487.00000000000006</ele><time>2026-04-04T15:42:07Z</time></trkpt><trkpt lat="45.71228612864922" lon="11.269230673983309"><ele>487.00000000000006</ele><time>2026-04-04T15:42:08Z</time></trkpt><trkpt lat="45.71226797713474" lon="11.269101968375034"><ele>487.0</ele><time>2026-04-04T15:42:09Z</time></trkpt><trkpt lat="45.712313659733574" lon="11.268903501799558"><ele>487.0</ele><time>2026-04-04T15:42:11Z</time></trkpt><trkpt lat="45.71234030024079" lon="11.268764507405812"><ele>488.0</ele><time>2026-04-04T15:42:12Z</time></trkpt><trkpt lat="45.71238766156162" lon="11.268625411087244"><ele>489.00000000000006</ele><time>2026-04-04T15:42:13Z</time></trkpt><trkpt lat="45.71243566642305" lon="11.268530618594777"><ele>490.00000000000006</ele><time>2026-04-04T15:42:13.999Z</time></trkpt><trkpt lat="45.71246375371539" lon="11.268424181648758"><ele>491.0</ele><time>2026-04-04T15:42:14.999Z</time></trkpt><trkpt lat="45.71249434431517" lon="11.268307897538772"><ele>492.0</ele><time>2026-04-04T15:42:15.999Z</time></trkpt><trkpt lat="45.712536779787634" lon="11.268181106480295"><ele>492.8333333333333</ele><time>2026-04-04T15:42:16.999Z</time></trkpt><trkpt lat="45.71257668139842" lon="11.268051899077424"><ele>493.66666666666663</ele><time>2026-04-04T15:42:17.999Z</time></trkpt><trkpt lat="45.712609320557924" lon="11.26791665180915"><ele>494.5</ele><time>2026-04-04T15:42:18.999Z</time></trkpt><trkpt lat="45.71263802240746" lon="11.267815740174091"><ele>495.3333333333333</ele><time>2026-04-04T15:42:19.999Z</time></trkpt><trkpt lat="45.712684461893694" lon="11.267749392411929"><ele>496.16666666666663</ele><time>2026-04-04T15:42:20.999Z</time></trkpt><trkpt lat="45.71276434412151" lon="11.267672284640264"><ele>497.0</ele><time>2026-04-04T15:42:21.999Z</time></trkpt><trkpt lat="45.71280986187984" lon="11.267600886597672"><ele>497.0</ele><time>2026-04-04T15:42:22.999Z</time></trkpt><trkpt lat="45.71271123739714" lon="11.267524719484534"><ele>497.00000000000006</ele><time>2026-04-04T15:42:25.999Z</time></trkpt><trkpt lat="45.712637357199576" lon="11.267487814449558"><ele>497.00000000000006</ele><time>2026-04-04T15:42:26.999Z</time></trkpt><trkpt lat="45.712577614334364" lon="11.267459295968063"><ele>497.0</ele><time>2026-04-04T15:42:27.999Z</time></trkpt><trkpt lat="45.712464481822806" lon="11.267463861969675"><ele>497.0</ele><time>2026-04-04T15:42:29.999Z</time></trkpt><trkpt lat="45.71236320057344" lon="11.267382522435344"><ele>500.8</ele><time>2026-04-04T15:42:31.999Z</time></trkpt><trkpt lat="45.71230053581756" lon="11.267273871512531"><ele>504.6</ele><time>2026-04-04T15:42:33.999Z</time></trkpt><trkpt lat="45.71226221271548" lon="11.267162918493439"><ele>508.40000000000003</ele><time>2026-04-04T15:42:35.999Z</time></trkpt><trkpt lat="45.71219871409396" lon="11.2670129701313"><ele>512.2</ele><time>2026-04-04T15:42:37.999Z</time></trkpt><trkpt lat="45.71216525567696" lon="11.26685126168225"><ele>516.0</ele><time>2026-04-04T15:42:39.999Z</time></trkpt><trkpt lat="45.7121028881695" lon="11.26689220457575"><ele>516.0</ele><time>2026-04-04T15:42:42.999Z</time></trkpt><trkpt lat="45.712082546439255" lon="11.267012074563667"><ele>516.0</ele><time>2026-04-04T15:42:45.999Z</time></trkpt><trkpt lat="45.71208697918485" lon="11.267143671240973"><ele>516.0</ele><time>2026-04-04T15:42:46.999Z</time></trkpt><trkpt lat="45.71210452286729" lon="11.267309038671652"><ele>516.0</ele><time>2026-04-04T15:42:48.999Z</time></trkpt><trkpt lat="45.712112289671005" lon="11.267479452787242"><ele>516.0</ele><time>2026-04-04T15:42:49.999Z</time></trkpt><trkpt lat="45.7121049858079" lon="11.267599297230232"><ele>516.6</ele><time>2026-04-04T15:42:50.999Z</time></trkpt><trkpt lat="45.7120718199018" lon="11.267716567659733"><ele>517.2</ele><time>2026-04-04T15:42:52.999Z</time></trkpt><trkpt lat="45.71202147562568" lon="11.267827437651405"><ele>517.8</ele><time>2026-04-04T15:42:53.999Z</time></trkpt><trkpt lat="45.71196780761513" lon="11.267932816231733"><ele>518.4</ele><time>2026-04-04T15:42:54.999Z</time></trkpt><trkpt lat="45.71189917324141" lon="11.268016650087134"><ele>519.0</ele><time>2026-04-04T15:42:55.999Z</time></trkpt><trkpt lat="45.71182323578133" lon="11.268085720194113"><ele>519.0</ele><time>2026-04-04T15:42:56.999Z</time></trkpt><trkpt lat="45.71174203497189" lon="11.268107311192335"><ele>519.0</ele><time>2026-04-04T15:42:57.999Z</time></trkpt><trkpt lat="45.71165330345696" lon="11.26809741535541"><ele>519.0</ele><time>2026-04-04T15:42:58.999Z</time></trkpt><trkpt lat="45.711577737147536" lon="11.26810661406218"><ele>519.0</ele><time>2026-04-04T15:42:59.999Z</time></trkpt><trkpt lat="45.711593366272545" lon="11.268313210503353"><ele>519.0</ele><time>2026-04-04T15:43:02.999Z</time></trkpt><trkpt lat="45.71159481616348" lon="11.268447525622975"><ele>513.8</ele><time>2026-04-04T15:43:03.999Z</time></trkpt><trkpt lat="45.71148152288087" lon="11.268502480319926"><ele>508.59999999999997</ele><time>2026-04-04T15:43:05.999Z</time></trkpt><trkpt lat="45.71139294779164" lon="11.268524803118176"><ele>503.4</ele><time>2026-04-04T15:43:06.999Z</time></trkpt><trkpt lat="45.71133488440004" lon="11.2686569704514"><ele>498.2</ele><time>2026-04-04T15:43:08.999Z</time></trkpt><trkpt lat="45.71125443443478" lon="11.268708746547077"><ele>493.0</ele><time>2026-04-04T15:43:10.999Z</time></trkpt><trkpt lat="45.71118514560484" lon="11.26871987134703"><ele>493.00000000000006</ele><time>2026-04-04T15:43:11.999Z</time></trkpt><trkpt lat="45.711121808161394" lon="11.268751569569323"><ele>493.0</ele><time>2026-04-04T15:43:12.999Z</time></trkpt><trkpt lat="45.71115337944024" lon="11.268868040909556"><ele>493.0</ele><time>2026-04-04T15:43:15.998Z</time></trkpt><trkpt lat="45.7111768954909" lon="11.26896520930687"><ele>493.0</ele><time>2026-04-04T15:43:16.998Z</time></trkpt><trkpt lat="45.7112227158293" lon="11.26908295556892"><ele>493.00000000000006</ele><time>2026-04-04T15:43:17.998Z</time></trkpt><trkpt lat="45.71123735707506" lon="11.269228639607915"><ele>493.0</ele><time>2026-04-04T15:43:18.998Z</time></trkpt><trkpt lat="45.711214291764904" lon="11.269332840940463"><ele>494.00000000000006</ele><time>2026-04-04T15:43:19.998Z</time></trkpt><trkpt lat="45.71112289045089" lon="11.26937131940925"><ele>495.0</ele><time>2026-04-04T15:43:20.998Z</time></trkpt><trkpt lat="45.71105391046811" lon="11.269409251096931"><ele>496.0</ele><time>2026-04-04T15:43:21.998Z</time></trkpt><trkpt lat="45.71096781016017" lon="11.269527456667516"><ele>497.0</ele><time>2026-04-04T15:43:23.998Z</time></trkpt><trkpt lat="45.71093758717864" lon="11.269609494719385"><ele>498.00000000000006</ele><time>2026-04-04T15:43:25.998Z</time></trkpt><trkpt lat="45.7109587215517" lon="11.269705820888285"><ele>499.0</ele><time>2026-04-04T15:43:45Z</time></trkpt><trkpt lat="45.71094403751205" lon="11.269821434366676"><ele>502.79999999999995</ele><time>2026-04-04T15:43:47Z</time></trkpt><trkpt lat="45.71096679560615" lon="11.269683617792484"><ele>506.59999999999997</ele><time>2026-04-04T15:47:49.998Z</time></trkpt><trkpt lat="45.71101503976535" lon="11.269531660723963"><ele>510.4</ele><time>2026-04-04T15:47:52.998Z</time></trkpt><trkpt lat="45.71109568339549" lon="11.269453023369138"><ele>514.1999999999999</ele><time>2026-04-04T15:47:55Z</time></trkpt><trkpt lat="45.711155725593294" lon="11.269424156256962"><ele>518.0</ele><time>2026-04-04T15:47:57Z</time></trkpt><trkpt lat="45.711200798613426" lon="11.269309807928323"><ele>513.8333333333333</ele><time>2026-04-04T15:48:00Z</time></trkpt><trkpt lat="45.71118191855706" lon="11.26918647663484"><ele>509.66666666666663</ele><time>2026-04-04T15:48:02Z</time></trkpt><trkpt lat="45.711156741590955" lon="11.269053412258813"><ele>505.5</ele><time>2026-04-04T15:48:04Z</time></trkpt><trkpt lat="45.71113349332101" lon="11.268913874339944"><ele>501.33333333333337</ele><time>2026-04-04T15:48:06Z</time></trkpt><trkpt lat="45.71111133483356" lon="11.26881712879554"><ele>497.1666666666667</ele><time>2026-04-04T15:48:09Z</time></trkpt><trkpt lat="45.71118866078264" lon="11.268766425347533"><ele>493.0</ele><time>2026-04-04T15:48:12Z</time></trkpt><trkpt lat="45.71127604849875" lon="11.26875677245659"><ele>493.0</ele><time>2026-04-04T15:48:14Z</time></trkpt><trkpt lat="45.711329159441114" lon="11.268676593092414"><ele>492.99999999999994</ele><time>2026-04-04T15:48:16Z</time></trkpt><trkpt lat="45.71137736385605" lon="11.268555674834552"><ele>492.99999999999994</ele><time>2026-04-04T15:48:18Z</time></trkpt><trkpt lat="45.71146252250495" lon="11.26851954496228"><ele>493.0</ele><time>2026-04-04T15:48:20Z</time></trkpt><trkpt lat="45.71153980329615" lon="11.268423978368892"><ele>493.0</ele><time>2026-04-04T15:48:22Z</time></trkpt><trkpt lat="45.71154262078674" lon="11.268228074315056"><ele>493.6666666666667</ele><time>2026-04-04T15:48:24Z</time></trkpt><trkpt lat="45.71157608495423" lon="11.268109720791575"><ele>494.33333333333337</ele><time>2026-04-04T15:48:25.999Z</time></trkpt><trkpt lat="45.71167185341179" lon="11.268091617628258"><ele>495.0</ele><time>2026-04-04T15:48:27.999Z</time></trkpt><trkpt lat="45.711740890697016" lon="11.268087257646268"><ele>495.66666666666663</ele><time>2026-04-04T15:48:28.999Z</time></trkpt><trkpt lat="45.71180768914131" lon="11.268059986719319"><ele>496.3333333333333</ele><time>2026-04-04T15:48:29.999Z</time></trkpt><trkpt lat="45.71186621978762" lon="11.26799600683007"><ele>497.0</ele><time>2026-04-04T15:48:30.999Z</time></trkpt><trkpt lat="45.7119190072436" lon="11.267901072718796"><ele>497.0</ele><time>2026-04-04T15:48:31.999Z</time></trkpt><trkpt lat="45.71196736314302" lon="11.26781001602194"><ele>497.00000000000006</ele><time>2026-04-04T15:48:32.999Z</time></trkpt><trkpt lat="45.71200082042197" lon="11.26771673156434"><ele>497.00000000000006</ele><time>2026-04-04T15:48:33.999Z</time></trkpt><trkpt lat="45.71203609778561" lon="11.267567476844047"><ele>497.0</ele><time>2026-04-04T15:48:35.999Z</time></trkpt><trkpt lat="45.71202459971143" lon="11.26739823653793"><ele>497.0</ele><time>2026-04-04T15:48:37.999Z</time></trkpt><trkpt lat="45.712017187822205" lon="11.267291544043765"><ele>500.16666666666663</ele><time>2026-04-04T15:48:38.999Z</time></trkpt><trkpt lat="45.712034875222294" lon="11.267180913168236"><ele>503.3333333333333</ele><time>2026-04-04T15:48:39.999Z</time></trkpt><trkpt lat="45.71203658772788" lon="11.267040414632095"><ele>506.5</ele><time>2026-04-04T15:48:41.999Z</time></trkpt><trkpt lat="45.71208592501384" lon="11.266919428370745"><ele>509.66666666666663</ele><time>2026-04-04T15:48:43.999Z</time></trkpt><trkpt lat="45.71213266523619" lon="11.266854119818658"><ele>512.8333333333334</ele><time>2026-04-04T15:48:46.999Z</time></trkpt><trkpt lat="45.712216496981135" lon="11.266915581161133"><ele>516.0</ele><time>2026-04-04T15:48:50.999Z</time></trkpt><trkpt lat="45.71223411105857" lon="11.267022169651474"><ele>516.0</ele><time>2026-04-04T15:48:51.999Z</time></trkpt><trkpt lat="45.71224995155532" lon="11.26715521200474"><ele>516.0</ele><time>2026-04-04T15:48:53.999Z</time></trkpt><trkpt lat="45.712318172342165" lon="11.267284220087747"><ele>516.0</ele><time>2026-04-04T15:48:55.999Z</time></trkpt><trkpt lat="45.71238290447765" lon="11.26741427367802"><ele>516.0</ele><time>2026-04-04T15:48:57.999Z</time></trkpt><trkpt lat="45.71243571483759" lon="11.267469573760222"><ele>516.0</ele><time>2026-04-04T15:48:58.999Z</time></trkpt><trkpt lat="45.71255237218519" lon="11.267470591691245"><ele>512.2</ele><time>2026-04-04T15:49:00.999Z</time></trkpt><trkpt lat="45.712634026849464" lon="11.267492517798347"><ele>508.40000000000003</ele><time>2026-04-04T15:49:01.999Z</time></trkpt><trkpt lat="45.71273213541669" lon="11.267532647557996"><ele>504.6</ele><time>2026-04-04T15:49:03.999Z</time></trkpt><trkpt lat="45.71278693727106" lon="11.267637453980331"><ele>500.8</ele><time>2026-04-04T15:49:05.999Z</time></trkpt><trkpt lat="45.71272817551854" lon="11.26772710849959"><ele>497.0</ele><time>2026-04-04T15:49:07.999Z</time></trkpt><trkpt lat="45.712649175866275" lon="11.267792582955813"><ele>496.99999999999994</ele><time>2026-04-04T15:49:08.999Z</time></trkpt><trkpt lat="45.71258155664937" lon="11.267872972007796"><ele>497.0</ele><time>2026-04-04T15:49:09.999Z</time></trkpt><trkpt lat="45.71254259539384" lon="11.267965597573856"><ele>497.0</ele><time>2026-04-04T15:49:10.999Z</time></trkpt><trkpt lat="45.71253244988617" lon="11.268059000225982"><ele>497.0</ele><time>2026-04-04T15:49:11.999Z</time></trkpt><trkpt lat="45.71251267936496" lon="11.268180238120065"><ele>496.99999999999994</ele><time>2026-04-04T15:49:12.999Z</time></trkpt><trkpt lat="45.71246596526252" lon="11.268311851530033"><ele>497.0</ele><time>2026-04-04T15:49:13.999Z</time></trkpt><trkpt lat="45.712424544778735" lon="11.268443434271424"><ele>496.16666666666663</ele><time>2026-04-04T15:49:14.999Z</time></trkpt><trkpt lat="45.71239531514842" lon="11.268566393440036"><ele>495.3333333333333</ele><time>2026-04-04T15:49:15.999Z</time></trkpt><trkpt lat="45.71236197435648" lon="11.26868830953573"><ele>494.5</ele><time>2026-04-04T15:49:16.999Z</time></trkpt><trkpt lat="45.71232470479881" lon="11.268785299617521"><ele>493.66666666666663</ele><time>2026-04-04T15:49:17.999Z</time></trkpt><trkpt lat="45.71228200511846" lon="11.268903739891728"><ele>492.8333333333333</ele><time>2026-04-04T15:49:18.999Z</time></trkpt><trkpt lat="45.71226810714811" lon="11.26900354158869"><ele>492.0</ele><time>2026-04-04T15:49:19.999Z</time></trkpt><trkpt lat="45.712260191324" lon="11.269107117566238"><ele>491.1666666666667</ele><time>2026-04-04T15:49:20.999Z</time></trkpt><trkpt lat="45.712258282043976" lon="11.269197427193669"><ele>490.33333333333337</ele><time>2026-04-04T15:49:21.999Z</time></trkpt><trkpt lat="45.71227021978054" lon="11.269299134710076"><ele>489.5</ele><time>2026-04-04T15:49:22.999Z</time></trkpt><trkpt lat="45.712305073093745" lon="11.269419240676237"><ele>488.6666666666667</ele><time>2026-04-04T15:49:23.999Z</time></trkpt><trkpt lat="45.71234226535591" lon="11.26953611836512"><ele>487.83333333333337</ele><time>2026-04-04T15:49:24.999Z</time></trkpt><trkpt lat="45.71239740008212" lon="11.269651979801198"><ele>487.0</ele><time>2026-04-04T15:49:25.999Z</time></trkpt><trkpt lat="45.712459563467775" lon="11.26978807870087"><ele>489.20000000000005</ele><time>2026-04-04T15:49:26.998Z</time></trkpt><trkpt lat="45.71252465690496" lon="11.269946770917663"><ele>491.40000000000003</ele><time>2026-04-04T15:49:27.998Z</time></trkpt><trkpt lat="45.712581570661726" lon="11.270079374739607"><ele>493.59999999999997</ele><time>2026-04-04T15:49:28.998Z</time></trkpt><trkpt lat="45.71263279990253" lon="11.270150904588288"><ele>495.79999999999995</ele><time>2026-04-04T15:49:29.998Z</time></trkpt><trkpt lat="45.71270955946327" lon="11.27024666570804"><ele>498.0</ele><time>2026-04-04T15:49:30.998Z</time></trkpt><trkpt lat="45.71277686195798" lon="11.270363436584907"><ele>498.0</ele><time>2026-04-04T15:49:31.998Z</time></trkpt><trkpt lat="45.71282546157957" lon="11.270491009922573"><ele>498.0</ele><time>2026-04-04T15:49:32.998Z</time></trkpt><trkpt lat="45.71283641415927" lon="11.270614649336231"><ele>498.0</ele><time>2026-04-04T15:49:33.998Z</time></trkpt><trkpt lat="45.712834462255344" lon="11.270739867337763"><ele>498.0</ele><time>2026-04-04T15:49:34.998Z</time></trkpt><trkpt lat="45.712846262292764" lon="11.27084716131243"><ele>498.0</ele><time>2026-04-04T15:49:35.998Z</time></trkpt><trkpt lat="45.71288878638468" lon="11.27095936974618"><ele>498.0</ele><time>2026-04-04T15:49:37.998Z</time></trkpt><trkpt lat="45.71297510968247" lon="11.27104851311654"><ele>494.59999999999997</ele><time>2026-04-04T15:49:39.998Z</time></trkpt><trkpt lat="45.71305635226552" lon="11.271021331967049"><ele>491.19999999999993</ele><time>2026-04-04T15:49:41.998Z</time></trkpt><trkpt lat="45.71315169694741" lon="11.270921307730415"><ele>487.8</ele><time>2026-04-04T15:49:43.998Z</time></trkpt><trkpt lat="45.71322186541205" lon="11.270805811931366"><ele>484.4</ele><time>2026-04-04T15:49:45.998Z</time></trkpt><trkpt lat="45.713285888788306" lon="11.270713226650878"><ele>481.0</ele><time>2026-04-04T15:49:47.998Z</time></trkpt><trkpt lat="45.713351074001146" lon="11.270697709300203"><ele>481.0</ele><time>2026-04-04T15:50:01Z</time></trkpt><trkpt lat="45.713434765446706" lon="11.270743181908868"><ele>481.0</ele><time>2026-04-04T15:50:04Z</time></trkpt><trkpt lat="45.71348806626552" lon="11.270856959940225"><ele>481.0</ele><time>2026-04-04T15:50:06Z</time></trkpt><trkpt lat="45.71353283395722" lon="11.270965539972652"><ele>481.0</ele><time>2026-04-04T15:50:08Z</time></trkpt><trkpt lat="45.71358871469865" lon="11.271072202371991"><ele>481.0</ele><time>2026-04-04T15:50:10Z</time></trkpt><trkpt lat="45.71362498673335" lon="11.271180441800686"><ele>479.5</ele><time>2026-04-04T15:50:12Z</time></trkpt><trkpt lat="45.713661817260764" lon="11.271292104673833"><ele>478.0</ele><time>2026-04-04T15:50:15Z</time></trkpt><trkpt lat="45.71385428609015" lon="11.271293278771862"><ele>476.5</ele><time>2026-04-04T15:50:17Z</time></trkpt><trkpt lat="45.71389923091174" lon="11.271431821834188"><ele>475.0</ele><time>2026-04-04T15:51:13.999Z</time></trkpt><trkpt lat="45.71397974202033" lon="11.271518448044068"><ele>475.00000000000006</ele><time>2026-04-04T15:51:18.999Z</time></trkpt><trkpt lat="45.7140519553061" lon="11.271509443897212"><ele>475.0</ele><time>2026-04-04T15:51:19.999Z</time></trkpt><trkpt lat="45.71414777375049" lon="11.271495428233258"><ele>475.0</ele><time>2026-04-04T15:51:21.999Z</time></trkpt><trkpt lat="45.71421778430015" lon="11.271521202299207"><ele>475.0</ele><time>2026-04-04T15:51:23.999Z</time></trkpt><trkpt lat="45.714246448387634" lon="11.271610258520704"><ele>475.00000000000006</ele><time>2026-04-04T15:51:25.999Z</time></trkpt><trkpt lat="45.714147247417685" lon="11.271711154151431"><ele>475.0</ele><time>2026-04-04T15:51:26.999Z</time></trkpt><trkpt lat="45.714078651719085" lon="11.271769285986451"><ele>475.0</ele><time>2026-04-04T15:51:27.999Z</time></trkpt><trkpt lat="45.71396664022714" lon="11.271861837181259"><ele>475.0</ele><time>2026-04-04T15:51:28.999Z</time></trkpt><trkpt lat="45.71388378367582" lon="11.271926748163493"><ele>475.0</ele><time>2026-04-04T15:51:29.999Z</time></trkpt><trkpt lat="45.71382053660975" lon="11.272012799005674"><ele>475.0</ele><time>2026-04-04T15:51:30.998Z</time></trkpt><trkpt lat="45.71378407078734" lon="11.272149747216424"><ele>475.0</ele><time>2026-04-04T15:51:32.998Z</time></trkpt><trkpt lat="45.71391571844813" lon="11.272222953274003"><ele>475.0</ele><time>2026-04-04T15:51:34.998Z</time></trkpt><trkpt lat="45.714000257558595" lon="11.272189442930502"><ele>475.0</ele><time>2026-04-04T15:51:35.998Z</time></trkpt><trkpt lat="45.714094050179696" lon="11.272149070670062"><ele>475.0</ele><time>2026-04-04T15:51:36.998Z</time></trkpt><trkpt lat="45.714182564276854" lon="11.272148164691812"><ele>475.0</ele><time>2026-04-04T15:51:37.998Z</time></trkpt><trkpt lat="45.71415356383188" lon="11.27231666210259"><ele>475.0</ele><time>2026-04-04T15:51:40.998Z</time></trkpt><trkpt lat="45.713974501963385" lon="11.272349720362085"><ele>473.4</ele><time>2026-04-04T15:51:42.998Z</time></trkpt><trkpt lat="45.71385682803557" lon="11.272420142990546"><ele>471.8</ele><time>2026-04-04T15:51:43.998Z</time></trkpt><trkpt lat="45.713745066795575" lon="11.272421170813965"><ele>470.20000000000005</ele><time>2026-04-04T15:51:44.998Z</time></trkpt><trkpt lat="45.71364376131523" lon="11.272412973289125"><ele>468.6</ele><time>2026-04-04T15:51:45.998Z</time></trkpt><trkpt lat="45.713559460103816" lon="11.272340947509388"><ele>467.0</ele><time>2026-04-04T15:51:46.998Z</time></trkpt><trkpt lat="45.71346150131282" lon="11.272266703806752"><ele>467.0</ele><time>2026-04-04T15:51:47.998Z</time></trkpt><trkpt lat="45.71338336576796" lon="11.272189192881436"><ele>467.00000000000006</ele><time>2026-04-04T15:51:48.998Z</time></trkpt><trkpt lat="45.713284412496805" lon="11.272335308751417"><ele>467.00000000000006</ele><time>2026-04-04T15:51:51.998Z</time></trkpt><trkpt lat="45.71334939141314" lon="11.272429458928466"><ele>467.0</ele><time>2026-04-04T15:51:52.998Z</time></trkpt><trkpt lat="45.71343943598803" lon="11.272462258359221"><ele>467.0</ele><time>2026-04-04T15:51:53.998Z</time></trkpt><trkpt lat="45.71345410472582" lon="11.272567007464492"><ele>466.99999999999994</ele><time>2026-04-04T15:51:55.998Z</time></trkpt><trkpt lat="45.71337343094858" lon="11.272573746482909"><ele>467.0</ele><time>2026-04-04T15:51:56.998Z</time></trkpt><trkpt lat="45.71330833530722" lon="11.272553521735666"><ele>467.0</ele><time>2026-04-04T15:51:57.998Z</time></trkpt><trkpt lat="45.71325378761822" lon="11.272492155380947"><ele>467.0</ele><time>2026-04-04T15:51:58.998Z</time></trkpt><trkpt lat="45.71322103942612" lon="11.272385891453649"><ele>466.99999999999994</ele><time>2026-04-04T15:51:59.998Z</time></trkpt><trkpt lat="45.71314364572555" lon="11.272254706915708"><ele>467.0</ele><time>2026-04-04T15:52:00.998Z</time></trkpt><trkpt lat="45.71308277948572" lon="11.27208640187636"><ele>467.0</ele><time>2026-04-04T15:52:01.998Z</time></trkpt><trkpt lat="45.71301733300461" lon="11.271940456056779"><ele>467.0</ele><time>2026-04-04T15:52:02.998Z</time></trkpt><trkpt lat="45.71293078878127" lon="11.27181500115491"><ele>467.0</ele><time>2026-04-04T15:52:03.998Z</time></trkpt><trkpt lat="45.712814208153944" lon="11.271727261171275"><ele>467.0</ele><time>2026-04-04T15:52:04.998Z</time></trkpt><trkpt lat="45.71270043764453" lon="11.271665066348639"><ele>461.0</ele><time>2026-04-04T15:52:06Z</time></trkpt><trkpt lat="45.712585699585574" lon="11.27160908336402"><ele>455.0</ele><time>2026-04-04T15:52:07Z</time></trkpt><trkpt lat="45.71247897608037" lon="11.271559762593151"><ele>449.0</ele><time>2026-04-04T15:52:08Z</time></trkpt><trkpt lat="45.71236674331782" lon="11.271509297441176"><ele>443.0</ele><time>2026-04-04T15:52:09Z</time></trkpt><trkpt lat="45.7122574693267" lon="11.271462260137406"><ele>443.0</ele><time>2026-04-04T15:52:10Z</time></trkpt><trkpt lat="45.7121563434852" lon="11.271421688682663"><ele>442.99999999999994</ele><time>2026-04-04T15:52:11Z</time></trkpt><trkpt lat="45.712063672881236" lon="11.271399911046753"><ele>442.99999999999994</ele><time>2026-04-04T15:52:12Z</time></trkpt><trkpt lat="45.71197104052145" lon="11.271426662231686"><ele>443.0</ele><time>2026-04-04T15:52:14Z</time></trkpt><trkpt lat="45.71193037499917" lon="11.271540266313687"><ele>443.0</ele><time>2026-04-04T15:52:16Z</time></trkpt><trkpt lat="45.712051182707164" lon="11.271688054064933"><ele>443.0</ele><time>2026-04-04T15:52:17Z</time></trkpt><trkpt lat="45.712191643305644" lon="11.271863058932905"><ele>443.0</ele><time>2026-04-04T15:52:18Z</time></trkpt><trkpt lat="45.712293638801604" lon="11.272040907733048"><ele>443.0</ele><time>2026-04-04T15:52:19Z</time></trkpt><trkpt lat="45.712390675747706" lon="11.272211179506069"><ele>436.0</ele><time>2026-04-04T15:52:20Z</time></trkpt><trkpt lat="45.71249546067568" lon="11.272409580217296"><ele>429.0</ele><time>2026-04-04T15:52:21Z</time></trkpt><trkpt lat="45.712572942500714" lon="11.272620736131616"><ele>422.0</ele><time>2026-04-04T15:52:22Z</time></trkpt><trkpt lat="45.71266760401654" lon="11.272760771097088"><ele>422.0</ele><time>2026-04-04T15:52:23Z</time></trkpt><trkpt lat="45.71270335609806" lon="11.272907086811605"><ele>422.0</ele><time>2026-04-04T15:52:24Z</time></trkpt><trkpt lat="45.71265048002257" lon="11.272802034783687"><ele>422.0</ele><time>2026-04-04T15:52:27.999Z</time></trkpt><trkpt lat="45.71249616398167" lon="11.272681839187864"><ele>422.0</ele><time>2026-04-04T15:52:28.999Z</time></trkpt><trkpt lat="45.71236551652766" lon="11.27256215906788"><ele>422.0</ele><time>2026-04-04T15:52:29.999Z</time></trkpt><trkpt lat="45.7122007408455" lon="11.272506691993046"><ele>422.0</ele><time>2026-04-04T15:52:30.999Z</time></trkpt><trkpt lat="45.712070539219184" lon="11.272509287425008"><ele>422.0</ele><time>2026-04-04T15:52:31.999Z</time></trkpt><trkpt lat="45.71198678040157" lon="11.272490104888304"><ele>422.0</ele><time>2026-04-04T15:52:32.999Z</time></trkpt><trkpt lat="45.71190388602671" lon="11.272509255711316"><ele>422.0</ele><time>2026-04-04T15:52:33.999Z</time></trkpt><trkpt lat="45.71190627297799" lon="11.272707751623894"><ele>422.0</ele><time>2026-04-04T15:52:35.999Z</time></trkpt><trkpt lat="45.7119796436678" lon="11.272828618847774"><ele>422.0</ele><time>2026-04-04T15:52:36.999Z</time></trkpt><trkpt lat="45.71209508560342" lon="11.273083691634362"><ele>417.5</ele><time>2026-04-04T15:52:37.999Z</time></trkpt><trkpt lat="45.712154697802205" lon="11.273275386583283"><ele>413.0</ele><time>2026-04-04T15:52:38.999Z</time></trkpt><trkpt lat="45.71212717591506" lon="11.273494374255645"><ele>408.5</ele><time>2026-04-04T15:52:39.999Z</time></trkpt><trkpt lat="45.712158856999324" lon="11.27369322367442"><ele>404.0</ele><time>2026-04-04T15:52:40.999Z</time></trkpt><trkpt lat="45.7122149972167" lon="11.273880778057242"><ele>400.0</ele><time>2026-04-04T15:52:41.999Z</time></trkpt><trkpt lat="45.71228129784299" lon="11.274051215304203"><ele>396.0</ele><time>2026-04-04T15:52:42.999Z</time></trkpt><trkpt lat="45.71238918998145" lon="11.274166015054503"><ele>392.0</ele><time>2026-04-04T15:52:43.999Z</time></trkpt><trkpt lat="45.712496115206335" lon="11.274273564864814"><ele>388.0</ele><time>2026-04-04T15:52:44.999Z</time></trkpt><trkpt lat="45.71257546367665" lon="11.27441334501589"><ele>388.0</ele><time>2026-04-04T15:52:45.999Z</time></trkpt><trkpt lat="45.712599265357206" lon="11.27458713978628"><ele>388.0</ele><time>2026-04-04T15:52:46.999Z</time></trkpt><trkpt lat="45.71265203291626" lon="11.274757669557202"><ele>388.0</ele><time>2026-04-04T15:52:47.999Z</time></trkpt><trkpt lat="45.71271756837911" lon="11.274910571439294"><ele>388.0</ele><time>2026-04-04T15:52:48.999Z</time></trkpt><trkpt lat="45.71275270171832" lon="11.27509045077652"><ele>386.5</ele><time>2026-04-04T15:52:49.999Z</time></trkpt><trkpt lat="45.712790155417714" lon="11.275276314092448"><ele>385.0</ele><time>2026-04-04T15:52:50.999Z</time></trkpt><trkpt lat="45.71285400344747" lon="11.275445159219037"><ele>383.5</ele><time>2026-04-04T15:52:51.999Z</time></trkpt><trkpt lat="45.712931666845634" lon="11.275605164946128"><ele>382.0</ele><time>2026-04-04T15:52:52.999Z</time></trkpt><trkpt lat="45.7129799995189" lon="11.275802937161695"><ele>382.0</ele><time>2026-04-04T15:52:53.999Z</time></trkpt><trkpt lat="45.71300907686252" lon="11.276003526850783"><ele>382.0</ele><time>2026-04-04T15:52:54.999Z</time></trkpt><trkpt lat="45.713060766077234" lon="11.276212210921928"><ele>382.0</ele><time>2026-04-04T15:52:55.999Z</time></trkpt><trkpt lat="45.71312825532315" lon="11.276388807208004"><ele>382.0</ele><time>2026-04-04T15:52:56.999Z</time></trkpt><trkpt lat="45.713191167513976" lon="11.276579240484645"><ele>378.20000000000005</ele><time>2026-04-04T15:52:57.999Z</time></trkpt><trkpt lat="45.71326046893117" lon="11.276770872752724"><ele>374.4</ele><time>2026-04-04T15:52:58.999Z</time></trkpt><trkpt lat="45.71331206985632" lon="11.276924499641632"><ele>370.6</ele><time>2026-04-04T15:52:59.999Z</time></trkpt><trkpt lat="45.71332447422577" lon="11.277057094036078"><ele>366.79999999999995</ele><time>2026-04-04T15:53:00.999Z</time></trkpt><trkpt lat="45.713348606852676" lon="11.277159130173057"><ele>363.0</ele><time>2026-04-04T15:53:01.999Z</time></trkpt><trkpt lat="45.713293883099816" lon="11.277230024093184"><ele>363.0</ele><time>2026-04-04T15:53:02.999Z</time></trkpt><trkpt lat="45.71322679049997" lon="11.277245019957446"><ele>363.0</ele><time>2026-04-04T15:53:03.999Z</time></trkpt><trkpt lat="45.713155854975874" lon="11.277352765019135"><ele>363.0</ele><time>2026-04-04T15:53:05.999Z</time></trkpt><trkpt lat="45.71302904283262" lon="11.277302039647905"><ele>363.0</ele><time>2026-04-04T15:53:08.999Z</time></trkpt><trkpt lat="45.7130264300239" lon="11.277142634463281"><ele>363.0</ele><time>2026-04-04T15:53:10.999Z</time></trkpt><trkpt lat="45.71297492312053" lon="11.276981933987349"><ele>363.0</ele><time>2026-04-04T15:53:12.999Z</time></trkpt><trkpt lat="45.71293458371322" lon="11.276907502757547"><ele>363.0</ele><time>2026-04-04T15:53:13.999Z</time></trkpt><trkpt lat="45.71287629384438" lon="11.276847695710828"><ele>363.0</ele><time>2026-04-04T15:53:15.999Z</time></trkpt><trkpt lat="45.7128154042489" lon="11.276943395319638"><ele>363.0</ele><time>2026-04-04T15:53:16.999Z</time></trkpt><trkpt lat="45.7126950766774" lon="11.277023915939806"><ele>363.0</ele><time>2026-04-04T15:53:18.999Z</time></trkpt><trkpt lat="45.71261827135792" lon="11.277113968282142"><ele>362.0</ele><time>2026-04-04T15:53:19.999Z</time></trkpt><trkpt lat="45.71255983392324" lon="11.277234812718762"><ele>361.0</ele><time>2026-04-04T15:53:20.999Z</time></trkpt><trkpt lat="45.712504041187" lon="11.277350314906682"><ele>360.0</ele><time>2026-04-04T15:53:21.999Z</time></trkpt><trkpt lat="45.71242968715671" lon="11.277438467070626"><ele>359.0</ele><time>2026-04-04T15:53:22.999Z</time></trkpt><trkpt lat="45.712371112074955" lon="11.277540239076997"><ele>358.0</ele><time>2026-04-04T15:53:23.999Z</time></trkpt><trkpt lat="45.71231258899829" lon="11.27762773300667"><ele>358.0</ele><time>2026-04-04T15:53:24.999Z</time></trkpt><trkpt lat="45.71222185999761" lon="11.277594882712116"><ele>358.0</ele><time>2026-04-04T15:53:25.999Z</time></trkpt><trkpt lat="45.71213378383179" lon="11.277623528862987"><ele>358.0</ele><time>2026-04-04T15:53:26.999Z</time></trkpt><trkpt lat="45.71206621166763" lon="11.277562141200281"><ele>358.0</ele><time>2026-04-04T15:53:27.999Z</time></trkpt><trkpt lat="45.71197615327532" lon="11.277562141208461"><ele>358.0</ele><time>2026-04-04T15:53:28.998Z</time></trkpt><trkpt lat="45.7119115921819" lon="11.27756214121319"><ele>358.0</ele><time>2026-04-04T15:53:29.998Z</time></trkpt><trkpt lat="45.71184644057825" lon="11.277753984483677"><ele>361.0</ele><time>2026-04-04T15:53:30.998Z</time></trkpt><trkpt lat="45.71176342664033" lon="11.277625363232406"><ele>364.0</ele><time>2026-04-04T15:53:32.998Z</time></trkpt><trkpt lat="45.711707492277995" lon="11.277566284169458"><ele>367.0</ele><time>2026-04-04T15:53:33.998Z</time></trkpt><trkpt lat="45.7116428164256" lon="11.277545062815845"><ele>370.0</ele><time>2026-04-04T15:53:34.998Z</time></trkpt><trkpt lat="45.71157225407547" lon="11.277526321955177"><ele>373.0</ele><time>2026-04-04T15:53:35.998Z</time></trkpt><trkpt lat="45.71152244397451" lon="11.27746524503511"><ele>376.0</ele><time>2026-04-04T15:53:36.998Z</time></trkpt><trkpt lat="45.71143785249231" lon="11.277380760888544"><ele>376.0</ele><time>2026-04-04T15:53:38.998Z</time></trkpt><trkpt lat="45.71139235297797" lon="11.277482481166777"><ele>376.0</ele><time>2026-04-04T15:53:40.998Z</time></trkpt><trkpt lat="45.711377910107295" lon="11.277662208455524"><ele>376.0</ele><time>2026-04-04T15:53:42.998Z</time></trkpt><trkpt lat="45.71136347129348" lon="11.277838061715741"><ele>376.0</ele><time>2026-04-04T15:53:44.998Z</time></trkpt><trkpt lat="45.711374766183496" lon="11.277928091617612"><ele>376.0</ele><time>2026-04-04T15:53:45.998Z</time></trkpt><trkpt lat="45.71137462178966" lon="11.278024921405837"><ele>376.8333333333333</ele><time>2026-04-04T15:53:46.998Z</time></trkpt><trkpt lat="45.71132110405321" lon="11.278169236784064"><ele>377.66666666666663</ele><time>2026-04-04T15:53:48.998Z</time></trkpt><trkpt lat="45.71125977794157" lon="11.278227894877885"><ele>378.5</ele><time>2026-04-04T15:53:49.998Z</time></trkpt><trkpt lat="45.71120034764877" lon="11.27828045903129"><ele>379.3333333333333</ele><time>2026-04-04T15:53:50.998Z</time></trkpt><trkpt lat="45.71114337504298" lon="11.278336596073883"><ele>380.1666666666667</ele><time>2026-04-04T15:53:51.998Z</time></trkpt><trkpt lat="45.71108969698986" lon="11.278409761068335"><ele>381.0</ele><time>2026-04-04T15:53:52.998Z</time></trkpt><trkpt lat="45.71104769735824" lon="11.278487341914584"><ele>385.4</ele><time>2026-04-04T15:53:53.998Z</time></trkpt><trkpt lat="45.710938431472016" lon="11.278543920923761"><ele>389.8</ele><time>2026-04-04T15:53:55.998Z</time></trkpt><trkpt lat="45.710834093384804" lon="11.27863401193869"><ele>394.2</ele><time>2026-04-04T15:53:57.998Z</time></trkpt><trkpt lat="45.710777717043705" lon="11.278703869166186"><ele>398.59999999999997</ele><time>2026-04-04T15:53:58.998Z</time></trkpt><trkpt lat="45.71073881084788" lon="11.278776537487303"><ele>403.0</ele><time>2026-04-04T15:53:59.998Z</time></trkpt><trkpt lat="45.710704843968095" lon="11.278919929307687"><ele>403.6666666666667</ele><time>2026-04-04T15:54:01.998Z</time></trkpt><trkpt lat="45.710677110715814" lon="11.279011506795658"><ele>404.33333333333337</ele><time>2026-04-04T15:54:03.998Z</time></trkpt><trkpt lat="45.710637156365706" lon="11.279126303911129"><ele>405.0</ele><time>2026-04-04T15:54:21Z</time></trkpt><trkpt lat="45.71062121489708" lon="11.279231781886418"><ele>405.66666666666663</ele><time>2026-04-04T15:54:25Z</time></trkpt><trkpt lat="45.710662843516545" lon="11.279316949864343"><ele>406.3333333333333</ele><time>2026-04-04T15:55:50.998Z</time></trkpt><trkpt lat="45.71071736896381" lon="11.279457367527419"><ele>407.0</ele><time>2026-04-04T15:57:17.999Z</time></trkpt><trkpt lat="45.71068455814408" lon="11.279574115422289"><ele>406.99999999999994</ele><time>2026-04-04T15:57:19.999Z</time></trkpt><trkpt lat="45.71063444326586" lon="11.279644883201076"><ele>407.0</ele><time>2026-04-04T15:57:20.999Z</time></trkpt><trkpt lat="45.710573994297604" lon="11.279692294670339"><ele>407.0</ele><time>2026-04-04T15:57:21.999Z</time></trkpt><trkpt lat="45.71049665050787" lon="11.279729232729661"><ele>407.0</ele><time>2026-04-04T15:57:22.999Z</time></trkpt><trkpt lat="45.71039701067744" lon="11.279764457133671"><ele>406.99999999999994</ele><time>2026-04-04T15:57:23.999Z</time></trkpt><trkpt lat="45.71038207041374" lon="11.279883166855374"><ele>407.0</ele><time>2026-04-04T15:57:25.999Z</time></trkpt><trkpt lat="45.71039015112859" lon="11.279976470442586"><ele>406.3333333333333</ele><time>2026-04-04T15:57:26.999Z</time></trkpt><trkpt lat="45.710307850477335" lon="11.280072327155477"><ele>405.66666666666663</ele><time>2026-04-04T15:57:28.999Z</time></trkpt><trkpt lat="45.710286488483455" lon="11.280207119953117"><ele>405.0</ele><time>2026-04-04T15:57:31.999Z</time></trkpt><trkpt lat="45.710270690926" lon="11.280298768666912"><ele>404.33333333333337</ele><time>2026-04-04T15:57:57.998Z</time></trkpt><trkpt lat="45.71032848279233" lon="11.28037879808103"><ele>403.6666666666667</ele><time>2026-04-04T15:58:02.998Z</time></trkpt><trkpt lat="45.710380251862354" lon="11.280445927380892"><ele>403.0</ele><time>2026-04-04T15:58:06.998Z</time></trkpt><trkpt lat="45.7103207749652" lon="11.280582709449247"><ele>403.33333333333337</ele><time>2026-04-04T15:58:09.998Z</time></trkpt><trkpt lat="45.71026653851882" lon="11.280665063817516"><ele>403.6666666666667</ele><time>2026-04-04T15:58:10.998Z</time></trkpt><trkpt lat="45.71020946899847" lon="11.280766823178146"><ele>404.0</ele><time>2026-04-04T15:58:11.998Z</time></trkpt><trkpt lat="45.71014557491379" lon="11.28089683742011"><ele>404.33333333333337</ele><time>2026-04-04T15:58:12.998Z</time></trkpt><trkpt lat="45.71009810961185" lon="11.280988415667805"><ele>404.6666666666667</ele><time>2026-04-04T15:58:13.998Z</time></trkpt><trkpt lat="45.710132499448854" lon="11.281094753272312"><ele>405.0</ele><time>2026-04-04T15:58:15.998Z</time></trkpt><trkpt lat="45.71012760876209" lon="11.281270732309707"><ele>409.1666666666667</ele><time>2026-04-04T15:58:17.998Z</time></trkpt><trkpt lat="45.71010638856419" lon="11.281390101035283"><ele>413.33333333333337</ele><time>2026-04-04T15:58:18.998Z</time></trkpt><trkpt lat="45.71004710604075" lon="11.28153167808702"><ele>417.5</ele><time>2026-04-04T15:58:19.998Z</time></trkpt><trkpt lat="45.710008530218055" lon="11.281644972968827"><ele>421.6666666666667</ele><time>2026-04-04T15:58:20.998Z</time></trkpt><trkpt lat="45.71002104609512" lon="11.281759236968826"><ele>425.83333333333337</ele><time>2026-04-04T15:58:21.998Z</time></trkpt><trkpt lat="45.710028522590456" lon="11.281857473870563"><ele>430.0</ele><time>2026-04-04T15:58:23Z</time></trkpt><trkpt lat="45.709973094264896" lon="11.281935978854209"><ele>430.50000000000006</ele><time>2026-04-04T15:58:25Z</time></trkpt><trkpt lat="45.70988799407165" lon="11.281955082363764"><ele>431.0</ele><time>2026-04-04T15:58:26Z</time></trkpt><trkpt lat="45.70979767451604" lon="11.281974674151677"><ele>431.5</ele><time>2026-04-04T15:58:27Z</time></trkpt><trkpt lat="45.70973494529644" lon="11.282006512697441"><ele>432.0</ele><time>2026-04-04T15:58:28Z</time></trkpt><trkpt lat="45.70966677881808" lon="11.282046168711162"><ele>432.50000000000006</ele><time>2026-04-04T15:58:29Z</time></trkpt><trkpt lat="45.709653753763035" lon="11.282136353333085"><ele>433.0</ele><time>2026-04-04T15:58:31Z</time></trkpt><trkpt lat="45.70977723904642" lon="11.282243285983585"><ele>434.75</ele><time>2026-04-04T15:58:33Z</time></trkpt><trkpt lat="45.709882748374525" lon="11.2823009048951"><ele>436.5</ele><time>2026-04-04T15:58:34Z</time></trkpt><trkpt lat="45.710016791324556" lon="11.282343433842128"><ele>438.25</ele><time>2026-04-04T15:58:35Z</time></trkpt><trkpt lat="45.710126218189984" lon="11.282454933384706"><ele>440.0</ele><time>2026-04-04T15:58:36Z</time></trkpt><trkpt lat="45.71024390956561" lon="11.282490345406469"><ele>440.0</ele><time>2026-04-04T15:58:37Z</time></trkpt><trkpt lat="45.710375635020156" lon="11.282544769025586"><ele>440.0</ele><time>2026-04-04T15:58:38Z</time></trkpt><trkpt lat="45.710487024937535" lon="11.282626351479042"><ele>440.0</ele><time>2026-04-04T15:58:39Z</time></trkpt><trkpt lat="45.710595458253415" lon="11.282658294103207"><ele>440.0</ele><time>2026-04-04T15:58:40Z</time></trkpt><trkpt lat="45.71067322791586" lon="11.282724658835717"><ele>440.0</ele><time>2026-04-04T15:58:41Z</time></trkpt><trkpt lat="45.71074554317899" lon="11.282760185276715"><ele>440.0</ele><time>2026-04-04T15:58:42Z</time></trkpt><trkpt lat="45.71081662580735" lon="11.282769023662434"><ele>440.0</ele><time>2026-04-04T15:58:43Z</time></trkpt><trkpt lat="45.710918643865625" lon="11.282717447988606"><ele>440.0</ele><time>2026-04-04T15:58:44Z</time></trkpt><trkpt lat="45.711017731975325" lon="11.282657254619545"><ele>440.0</ele><time>2026-04-04T15:58:45Z</time></trkpt><trkpt lat="45.71110474564876" lon="11.282640818866708"><ele>441.2</ele><time>2026-04-04T15:58:46Z</time></trkpt><trkpt lat="45.71122099540299" lon="11.282628540162072"><ele>442.4</ele><time>2026-04-04T15:58:47Z</time></trkpt><trkpt lat="45.711327082199865" lon="11.282607755808156"><ele>443.6</ele><time>2026-04-04T15:58:48Z</time></trkpt><trkpt lat="45.711432988091524" lon="11.282563076992655"><ele>444.8</ele><time>2026-04-04T15:58:48.999Z</time></trkpt><trkpt lat="45.71151586704899" lon="11.282537514360119"><ele>446.0</ele><time>2026-04-04T15:58:49.999Z</time></trkpt><trkpt lat="45.71152006620116" lon="11.282630845657339"><ele>446.0</ele><time>2026-04-04T15:58:51.999Z</time></trkpt><trkpt lat="45.71145475541146" lon="11.282698998463546"><ele>446.0</ele><time>2026-04-04T15:58:53.999Z</time></trkpt><trkpt lat="45.711360557112634" lon="11.282837028153475"><ele>446.0</ele><time>2026-04-04T15:58:55.999Z</time></trkpt><trkpt lat="45.71131684482603" lon="11.282912974213318"><ele>446.0</ele><time>2026-04-04T15:58:56.999Z</time></trkpt><trkpt lat="45.711269144139095" lon="11.282990449534346"><ele>446.0</ele><time>2026-04-04T15:58:57.999Z</time></trkpt><trkpt lat="45.71116523149318" lon="11.283100368742941"><ele>450.3333333333333</ele><time>2026-04-04T15:58:59.999Z</time></trkpt><trkpt lat="45.711107178516116" lon="11.283167522871693"><ele>454.66666666666663</ele><time>2026-04-04T15:59:00.999Z</time></trkpt><trkpt lat="45.71105247973267" lon="11.283254938981937"><ele>459.0</ele><time>2026-04-04T15:59:01.999Z</time></trkpt><trkpt lat="45.71099623728422" lon="11.283315341794214"><ele>463.33333333333337</ele><time>2026-04-04T15:59:02.999Z</time></trkpt><trkpt lat="45.71093227924841" lon="11.283385478858289"><ele>467.6666666666667</ele><time>2026-04-04T15:59:03.999Z</time></trkpt><trkpt lat="45.71086756798388" lon="11.28343481561357"><ele>472.0</ele><time>2026-04-04T15:59:04.999Z</time></trkpt><trkpt lat="45.71080436944544" lon="11.283491112144597"><ele>472.00000000000006</ele><time>2026-04-04T15:59:05.999Z</time></trkpt><trkpt lat="45.710871721449074" lon="11.283552427433206"><ele>472.0</ele><time>2026-04-04T15:59:09.999Z</time></trkpt><trkpt lat="45.71093956679053" lon="11.283549819461486"><ele>472.0</ele><time>2026-04-04T15:59:10.999Z</time></trkpt><trkpt lat="45.711023195172594" lon="11.283567156474234"><ele>472.0</ele><time>2026-04-04T15:59:11.999Z</time></trkpt><trkpt lat="45.7111323373961" lon="11.28354308231591"><ele>472.00000000000006</ele><time>2026-04-04T15:59:13.999Z</time></trkpt><trkpt lat="45.71121463108106" lon="11.283585226524488"><ele>472.0</ele><time>2026-04-04T15:59:15.999Z</time></trkpt><trkpt lat="45.711204431302015" lon="11.283685533558996"><ele>472.0</ele><time>2026-04-04T15:59:18.999Z</time></trkpt><trkpt lat="45.71113067434458" lon="11.28372695689917"><ele>472.00000000000006</ele><time>2026-04-04T15:59:20.999Z</time></trkpt><trkpt lat="45.711056910868706" lon="11.283814287828239"><ele>472.00000000000006</ele><time>2026-04-04T15:59:22.999Z</time></trkpt><trkpt lat="45.71095657955973" lon="11.28397176027612"><ele>472.0</ele><time>2026-04-04T15:59:24.999Z</time></trkpt><trkpt lat="45.71089247731492" lon="11.28406175276392"><ele>472.0</ele><time>2026-04-04T15:59:25.999Z</time></trkpt><trkpt lat="45.71083997997477" lon="11.284165548343738"><ele>477.8</ele><time>2026-04-04T15:59:26.999Z</time></trkpt><trkpt lat="45.71077922247645" lon="11.284251025303725"><ele>483.6</ele><time>2026-04-04T15:59:28.999Z</time></trkpt><trkpt lat="45.710695278976466" lon="11.284289518193171"><ele>489.40000000000003</ele><time>2026-04-04T15:59:29.999Z</time></trkpt><trkpt lat="45.71056670839457" lon="11.284316423771282"><ele>495.20000000000005</ele><time>2026-04-04T15:59:30.999Z</time></trkpt><trkpt lat="45.710471647322166" lon="11.284320436553477"><ele>501.0</ele><time>2026-04-04T15:59:31.999Z</time></trkpt><trkpt lat="45.71042903233745" lon="11.28440506906569"><ele>501.0</ele><time>2026-04-04T15:59:32.999Z</time></trkpt><trkpt lat="45.710466681838476" lon="11.284548730821411"><ele>501.0</ele><time>2026-04-04T15:59:34.999Z</time></trkpt><trkpt lat="45.710517977536064" lon="11.28460917733836"><ele>501.0</ele><time>2026-04-04T15:59:35.999Z</time></trkpt><trkpt lat="45.71062977148386" lon="11.284679381722501"><ele>501.0</ele><time>2026-04-04T15:59:37.999Z</time></trkpt><trkpt lat="45.710669422464576" lon="11.284749561726267"><ele>501.0</ele><time>2026-04-04T15:59:38.999Z</time></trkpt><trkpt lat="45.71067171678957" lon="11.284855077842757"><ele>501.0</ele><time>2026-04-04T15:59:39.999Z</time></trkpt><trkpt lat="45.710820628966836" lon="11.28492985904936"><ele>503.20000000000005</ele><time>2026-04-04T15:59:41.999Z</time></trkpt><trkpt lat="45.71090013191494" lon="11.284954509882171"><ele>505.40000000000003</ele><time>2026-04-04T15:59:42.999Z</time></trkpt><trkpt lat="45.710969252898686" lon="11.28494879515252"><ele>507.6</ele><time>2026-04-04T15:59:43.999Z</time></trkpt><trkpt lat="45.71102487134183" lon="11.28502269960097"><ele>509.8</ele><time>2026-04-04T15:59:46.999Z</time></trkpt><trkpt lat="45.710989717844065" lon="11.285260061767566"><ele>512.0</ele><time>2026-04-04T15:59:47.999Z</time></trkpt><trkpt lat="45.7109783874181" lon="11.285391450042916"><ele>512.0</ele><time>2026-04-04T15:59:48.999Z</time></trkpt><trkpt lat="45.710979387326894" lon="11.285529987299675"><ele>512.0</ele><time>2026-04-04T15:59:49.999Z</time></trkpt><trkpt lat="45.710976244803234" lon="11.28565941920295"><ele>512.0</ele><time>2026-04-04T15:59:50.999Z</time></trkpt><trkpt lat="45.71094704493503" lon="11.28581382511634"><ele>512.0</ele><time>2026-04-04T15:59:51.998Z</time></trkpt><trkpt lat="45.710897679671724" lon="11.285972281092757"><ele>512.0</ele><time>2026-04-04T15:59:52.998Z</time></trkpt><trkpt lat="45.710847521740945" lon="11.286114242098321"><ele>513.4</ele><time>2026-04-04T15:59:53.998Z</time></trkpt><trkpt lat="45.71080950079663" lon="11.286250542966036"><ele>514.8000000000001</ele><time>2026-04-04T15:59:54.998Z</time></trkpt><trkpt lat="45.71078234854221" lon="11.286387316189655"><ele>516.2</ele><time>2026-04-04T15:59:55.998Z</time></trkpt><trkpt lat="45.71075571043252" lon="11.286497191931943"><ele>517.6</ele><time>2026-04-04T15:59:56.998Z</time></trkpt><trkpt lat="45.71082377255976" lon="11.286631272136093"><ele>519.0</ele><time>2026-04-04T15:59:58.998Z</time></trkpt><trkpt lat="45.71091983981854" lon="11.286725432507215"><ele>520.0</ele><time>2026-04-04T15:59:59.998Z</time></trkpt><trkpt lat="45.71102365106029" lon="11.286811069452604"><ele>521.0</ele><time>2026-04-04T16:00:00.998Z</time></trkpt><trkpt lat="45.71112884311942" lon="11.286885918796186"><ele>522.0</ele><time>2026-04-04T16:00:01.998Z</time></trkpt><trkpt lat="45.71120741099586" lon="11.286950441610655"><ele>523.0</ele><time>2026-04-04T16:00:02.998Z</time></trkpt><trkpt lat="45.71128633289609" lon="11.287008526242014"><ele>524.0</ele><time>2026-04-04T16:00:03.998Z</time></trkpt><trkpt lat="45.711379105432826" lon="11.287085995617801"><ele>524.0</ele><time>2026-04-04T16:00:04.998Z</time></trkpt><trkpt lat="45.711476374814154" lon="11.287190721596593"><ele>524.0</ele><time>2026-04-04T16:00:05.998Z</time></trkpt><trkpt lat="45.71156740229382" lon="11.287287725429616"><ele>524.0</ele><time>2026-04-04T16:00:06.998Z</time></trkpt><trkpt lat="45.7116574570253" lon="11.287377412147306"><ele>524.0</ele><time>2026-04-04T16:00:07.998Z</time></trkpt><trkpt lat="45.71173089066568" lon="11.287425503026354"><ele>524.0</ele><time>2026-04-04T16:00:08.998Z</time></trkpt><trkpt lat="45.711789394583015" lon="11.287525182130256"><ele>527.8</ele><time>2026-04-04T16:00:09.998Z</time></trkpt><trkpt lat="45.71185242031573" lon="11.287648913846546"><ele>531.5999999999999</ele><time>2026-04-04T16:00:10.998Z</time></trkpt><trkpt lat="45.71190808587603" lon="11.28774285905898"><ele>535.4</ele><time>2026-04-04T16:00:11.998Z</time></trkpt><trkpt lat="45.711986804676556" lon="11.287799848947104"><ele>539.1999999999999</ele><time>2026-04-04T16:00:12.998Z</time></trkpt><trkpt lat="45.712084960504654" lon="11.287809423731952"><ele>543.0</ele><time>2026-04-04T16:00:13.998Z</time></trkpt><trkpt lat="45.712187690096904" lon="11.287795678886832"><ele>543.0</ele><time>2026-04-04T16:00:14.998Z</time></trkpt><trkpt lat="45.712279354892246" lon="11.287773145009172"><ele>543.0</ele><time>2026-04-04T16:00:15.998Z</time></trkpt><trkpt lat="45.71237683139075" lon="11.287787080230606"><ele>543.0</ele><time>2026-04-04T16:00:16.998Z</time></trkpt><trkpt lat="45.71245219274345" lon="11.287839820882024"><ele>543.0</ele><time>2026-04-04T16:00:17.998Z</time></trkpt><trkpt lat="45.71254484892845" lon="11.287947308740671"><ele>543.0</ele><time>2026-04-04T16:00:18.998Z</time></trkpt><trkpt lat="45.712624300022185" lon="11.288048574522511"><ele>540.6</ele><time>2026-04-04T16:00:19.998Z</time></trkpt><trkpt lat="45.71271506692534" lon="11.288121534135714"><ele>538.1999999999999</ele><time>2026-04-04T16:00:20.998Z</time></trkpt><trkpt lat="45.71281768636156" lon="11.288206446622517"><ele>535.8</ele><time>2026-04-04T16:00:21.998Z</time></trkpt><trkpt lat="45.712883943529654" lon="11.288297666032058"><ele>533.4</ele><time>2026-04-04T16:00:22.998Z</time></trkpt><trkpt lat="45.71291535529573" lon="11.288433847337519"><ele>531.0</ele><time>2026-04-04T16:00:24.998Z</time></trkpt><trkpt lat="45.71281405064268" lon="11.28859532696028"><ele>531.0</ele><time>2026-04-04T16:00:26.998Z</time></trkpt><trkpt lat="45.71276281254175" lon="11.2887311392113"><ele>531.0</ele><time>2026-04-04T16:00:28Z</time></trkpt><trkpt lat="45.71274235446122" lon="11.288912258545807"><ele>531.0</ele><time>2026-04-04T16:00:29Z</time></trkpt><trkpt lat="45.71274520565064" lon="11.289128498081965"><ele>531.0</ele><time>2026-04-04T16:00:30Z</time></trkpt><trkpt lat="45.71275496486429" lon="11.289346261679126"><ele>528.75</ele><time>2026-04-04T16:00:31Z</time></trkpt><trkpt lat="45.712743137453685" lon="11.289536698354139"><ele>526.5</ele><time>2026-04-04T16:00:32Z</time></trkpt><trkpt lat="45.71273091098514" lon="11.289727974708745"><ele>524.25</ele><time>2026-04-04T16:00:33Z</time></trkpt><trkpt lat="45.71273076694334" lon="11.289913722998772"><ele>522.0</ele><time>2026-04-04T16:00:34Z</time></trkpt><trkpt lat="45.71272945717154" lon="11.290081978477293"><ele>532.6</ele><time>2026-04-04T16:00:35Z</time></trkpt><trkpt lat="45.712722903736086" lon="11.290239077737365"><ele>543.2</ele><time>2026-04-04T16:00:36Z</time></trkpt><trkpt lat="45.71272550088858" lon="11.290380989663738"><ele>553.8</ele><time>2026-04-04T16:00:37Z</time></trkpt><trkpt lat="45.712701270283844" lon="11.290506162658131"><ele>564.4</ele><time>2026-04-04T16:00:38Z</time></trkpt><trkpt lat="45.712656175374654" lon="11.290654045218242"><ele>575.0</ele><time>2026-04-04T16:00:39Z</time></trkpt><trkpt lat="45.71263394823743" lon="11.290809428069549"><ele>575.0</ele><time>2026-04-04T16:00:40Z</time></trkpt><trkpt lat="45.71262514047192" lon="11.290955936558863"><ele>575.0</ele><time>2026-04-04T16:00:41Z</time></trkpt><trkpt lat="45.712594037775304" lon="11.291119618933342"><ele>575.0</ele><time>2026-04-04T16:00:42Z</time></trkpt><trkpt lat="45.712587914562675" lon="11.291268072499367"><ele>575.0</ele><time>2026-04-04T16:00:43Z</time></trkpt><trkpt lat="45.7125734395434" lon="11.291373937007073"><ele>575.0</ele><time>2026-04-04T16:00:44Z</time></trkpt><trkpt lat="45.71255154333042" lon="11.291508088198333"><ele>575.0</ele><time>2026-04-04T16:00:45Z</time></trkpt><trkpt lat="45.71257404076361" lon="11.291646351500088"><ele>575.0</ele><time>2026-04-04T16:00:45.999Z</time></trkpt><trkpt lat="45.71261805003341" lon="11.291834638193464"><ele>575.0</ele><time>2026-04-04T16:00:46.999Z</time></trkpt><trkpt lat="45.712636954888524" lon="11.292038305508854"><ele>575.0</ele><time>2026-04-04T16:00:47.999Z</time></trkpt><trkpt lat="45.71264568600258" lon="11.292169702613995"><ele>573.8333333333333</ele><time>2026-04-04T16:00:48.999Z</time></trkpt><trkpt lat="45.712662475191834" lon="11.292274995224634"><ele>572.6666666666666</ele><time>2026-04-04T16:00:50.999Z</time></trkpt><trkpt lat="45.712627859677674" lon="11.292379269796545"><ele>571.5</ele><time>2026-04-04T16:00:51.999Z</time></trkpt><trkpt lat="45.712602587061376" lon="11.292497755489244"><ele>570.3333333333334</ele><time>2026-04-04T16:00:52.999Z</time></trkpt><trkpt lat="45.71260383148318" lon="11.292641912963427"><ele>569.1666666666667</ele><time>2026-04-04T16:00:53.999Z</time></trkpt><trkpt lat="45.71266077829311" lon="11.29274870010996"><ele>568.0</ele><time>2026-04-04T16:00:54.999Z</time></trkpt><trkpt lat="45.71274070846143" lon="11.292837202386254"><ele>559.8</ele><time>2026-04-04T16:00:55.999Z</time></trkpt><trkpt lat="45.71279757023769" lon="11.292942733967687"><ele>551.5999999999999</ele><time>2026-04-04T16:00:56.999Z</time></trkpt><trkpt lat="45.71281237535106" lon="11.293049989747358"><ele>543.4000000000001</ele><time>2026-04-04T16:00:57.999Z</time></trkpt><trkpt lat="45.71282379330154" lon="11.293219573811616"><ele>535.2</ele><time>2026-04-04T16:00:58.999Z</time></trkpt><trkpt lat="45.71285738535551" lon="11.29337733688984"><ele>527.0</ele><time>2026-04-04T16:00:59.999Z</time></trkpt><trkpt lat="45.71293265560586" lon="11.293548202447285"><ele>527.0</ele><time>2026-04-04T16:01:00.999Z</time></trkpt><trkpt lat="45.71300573795449" lon="11.293702008574119"><ele>527.0</ele><time>2026-04-04T16:01:01.999Z</time></trkpt><trkpt lat="45.713059797935955" lon="11.293834569928608"><ele>527.0</ele><time>2026-04-04T16:01:02.999Z</time></trkpt><trkpt lat="45.713085667549116" lon="11.293960825865073"><ele>527.0</ele><time>2026-04-04T16:01:03.999Z</time></trkpt><trkpt lat="45.713089375361996" lon="11.294075599480555"><ele>527.0</ele><time>2026-04-04T16:01:04.999Z</time></trkpt><trkpt lat="45.71306153742361" lon="11.294165555803623"><ele>527.4</ele><time>2026-04-04T16:01:05.999Z</time></trkpt><trkpt lat="45.71301099527644" lon="11.294244698886544"><ele>527.8000000000001</ele><time>2026-04-04T16:01:06.999Z</time></trkpt><trkpt lat="45.712945928975735" lon="11.294338308665214"><ele>528.2</ele><time>2026-04-04T16:01:07.999Z</time></trkpt><trkpt lat="45.712865044522374" lon="11.294486455856893"><ele>528.6</ele><time>2026-04-04T16:01:08.999Z</time></trkpt><trkpt lat="45.71278254939659" lon="11.294635785533373"><ele>529.0</ele><time>2026-04-04T16:01:09.999Z</time></trkpt><trkpt lat="45.71272120079617" lon="11.294752788080157"><ele>534.4</ele><time>2026-04-04T16:01:10.999Z</time></trkpt><trkpt lat="45.71268087040043" lon="11.29487533145125"><ele>539.8</ele><time>2026-04-04T16:01:11.999Z</time></trkpt><trkpt lat="45.712671958198264" lon="11.295006294941022"><ele>545.2</ele><time>2026-04-04T16:01:12.999Z</time></trkpt><trkpt lat="45.71267302506171" lon="11.295144834421015"><ele>550.6</ele><time>2026-04-04T16:01:13.999Z</time></trkpt><trkpt lat="45.71264616456818" lon="11.295328420147367"><ele>556.0</ele><time>2026-04-04T16:01:14.999Z</time></trkpt><trkpt lat="45.712617937442786" lon="11.295548542997283"><ele>552.25</ele><time>2026-04-04T16:01:15.999Z</time></trkpt><trkpt lat="45.71262754884786" lon="11.2957608089462"><ele>548.5</ele><time>2026-04-04T16:01:16.999Z</time></trkpt><trkpt lat="45.71263366205918" lon="11.295947218938743"><ele>544.75</ele><time>2026-04-04T16:01:17.999Z</time></trkpt><trkpt lat="45.71265261669964" lon="11.29613330173357"><ele>541.0</ele><time>2026-04-04T16:01:18.999Z</time></trkpt><trkpt lat="45.71267630477253" lon="11.296305585565221"><ele>539.0</ele><time>2026-04-04T16:01:19.999Z</time></trkpt><trkpt lat="45.71270874543718" lon="11.296463125742179"><ele>537.0</ele><time>2026-04-04T16:01:20.999Z</time></trkpt><trkpt lat="45.712745910896565" lon="11.296632495699116"><ele>535.0</ele><time>2026-04-04T16:01:21.999Z</time></trkpt><trkpt lat="45.7127788962078" lon="11.296782244218004"><ele>533.0</ele><time>2026-04-04T16:01:22.999Z</time></trkpt><trkpt lat="45.712790095690984" lon="11.296915254322188"><ele>531.0</ele><time>2026-04-04T16:01:24.999Z</time></trkpt><trkpt lat="45.71269902251851" lon="11.296955541183017"><ele>531.0</ele><time>2026-04-04T16:01:26.999Z</time></trkpt><trkpt lat="45.7126262968308" lon="11.29695479210552"><ele>531.0</ele><time>2026-04-04T16:01:27.999Z</time></trkpt><trkpt lat="45.71251263790398" lon="11.296902474311915"><ele>531.0</ele><time>2026-04-04T16:01:28.999Z</time></trkpt><trkpt lat="45.71239995781525" lon="11.296884561661127"><ele>531.0</ele><time>2026-04-04T16:01:29.999Z</time></trkpt><trkpt lat="45.71230065480735" lon="11.296913088874382"><ele>531.0</ele><time>2026-04-04T16:01:30.999Z</time></trkpt><trkpt lat="45.71224632539806" lon="11.297055090088318"><ele>531.0</ele><time>2026-04-04T16:01:31.999Z</time></trkpt><trkpt lat="45.71217977604143" lon="11.29711258636956"><ele>531.0</ele><time>2026-04-04T16:01:32.999Z</time></trkpt><trkpt lat="45.712103720119" lon="11.297198003713984"><ele>531.0</ele><time>2026-04-04T16:01:33.999Z</time></trkpt><trkpt lat="45.71199513297585" lon="11.297139583063572"><ele>531.0</ele><time>2026-04-04T16:01:34.999Z</time></trkpt><trkpt lat="45.71189548119285" lon="11.297205883527427"><ele>531.0</ele><time>2026-04-04T16:01:35.999Z</time></trkpt><trkpt lat="45.71179373037077" lon="11.297287053994289"><ele>529.25</ele><time>2026-04-04T16:01:36.999Z</time></trkpt><trkpt lat="45.71171017788997" lon="11.297366373791125"><ele>527.5</ele><time>2026-04-04T16:01:37.999Z</time></trkpt><trkpt lat="45.711624343831225" lon="11.297382556072733"><ele>525.75</ele><time>2026-04-04T16:01:38.999Z</time></trkpt><trkpt lat="45.71150564818471" lon="11.297368320887994"><ele>524.0</ele><time>2026-04-04T16:01:39.999Z</time></trkpt><trkpt lat="45.71135477120203" lon="11.297338166296873"><ele>524.0</ele><time>2026-04-04T16:01:40.999Z</time></trkpt><trkpt lat="45.71122464419574" lon="11.297353128288606"><ele>524.0</ele><time>2026-04-04T16:01:41.999Z</time></trkpt><trkpt lat="45.711113506139824" lon="11.297342914324881"><ele>524.0</ele><time>2026-04-04T16:01:42.999Z</time></trkpt><trkpt lat="45.71104057439548" lon="11.297302257269951"><ele>524.0</ele><time>2026-04-04T16:01:43.999Z</time></trkpt><trkpt lat="45.71095644606512" lon="11.297234571330113"><ele>524.0</ele><time>2026-04-04T16:01:44.999Z</time></trkpt><trkpt lat="45.7108448774639" lon="11.29714870601384"><ele>526.0</ele><time>2026-04-04T16:01:45.999Z</time></trkpt><trkpt lat="45.71074675266465" lon="11.297094457897883"><ele>528.0</ele><time>2026-04-04T16:01:46.999Z</time></trkpt><trkpt lat="45.710660242563634" lon="11.297155899306928"><ele>530.0</ele><time>2026-04-04T16:01:47.999Z</time></trkpt><trkpt lat="45.71056912200877" lon="11.29715582728491"><ele>532.0</ele><time>2026-04-04T16:01:48.999Z</time></trkpt><trkpt lat="45.710440119233866" lon="11.297092479696056"><ele>534.0</ele><time>2026-04-04T16:01:49.999Z</time></trkpt><trkpt lat="45.7102806491056" lon="11.297006473910677"><ele>533.75</ele><time>2026-04-04T16:01:50.999Z</time></trkpt><trkpt lat="45.710125702782825" lon="11.29697603035779"><ele>533.5</ele><time>2026-04-04T16:01:51.999Z</time></trkpt><trkpt lat="45.71000087293739" lon="11.296983970830112"><ele>533.25</ele><time>2026-04-04T16:01:52.999Z</time></trkpt><trkpt lat="45.709874735021195" lon="11.297042361027506"><ele>533.0</ele><time>2026-04-04T16:01:53.998Z</time></trkpt><trkpt lat="45.70974095581744" lon="11.297105805716974"><ele>533.0</ele><time>2026-04-04T16:01:54.998Z</time></trkpt><trkpt lat="45.709604255251406" lon="11.297165188128043"><ele>533.0</ele><time>2026-04-04T16:01:55.998Z</time></trkpt><trkpt lat="45.709508515940314" lon="11.297252319946368"><ele>533.0</ele><time>2026-04-04T16:01:56.998Z</time></trkpt><trkpt lat="45.70943676525948" lon="11.29732979112287"><ele>533.0</ele><time>2026-04-04T16:01:57.998Z</time></trkpt><trkpt lat="45.709370976070986" lon="11.297380949801793"><ele>533.0</ele><time>2026-04-04T16:01:58.998Z</time></trkpt><trkpt lat="45.70928393241862" lon="11.297390602942672"><ele>533.4</ele><time>2026-04-04T16:01:59.998Z</time></trkpt><trkpt lat="45.70922538301959" lon="11.297267372512586"><ele>533.8</ele><time>2026-04-04T16:02:00.998Z</time></trkpt><trkpt lat="45.70916536167655" lon="11.29715374058688"><ele>534.2</ele><time>2026-04-04T16:02:01.998Z</time></trkpt><trkpt lat="45.70907363860874" lon="11.297107326631545"><ele>534.6</ele><time>2026-04-04T16:02:02.998Z</time></trkpt><trkpt lat="45.70894560060602" lon="11.297174605847088"><ele>535.0</ele><time>2026-04-04T16:02:03.998Z</time></trkpt><trkpt lat="45.708786987082696" lon="11.297220435488402"><ele>526.75</ele><time>2026-04-04T16:02:04.998Z</time></trkpt><trkpt lat="45.70863780789055" lon="11.297260515472692"><ele>518.5</ele><time>2026-04-04T16:02:05.998Z</time></trkpt><trkpt lat="45.70849617179453" lon="11.297280447974218"><ele>510.25</ele><time>2026-04-04T16:02:06.998Z</time></trkpt><trkpt lat="45.7083451694702" lon="11.297300324134762"><ele>502.0</ele><time>2026-04-04T16:02:07.998Z</time></trkpt><trkpt lat="45.70820034080864" lon="11.2973420671097"><ele>499.0</ele><time>2026-04-04T16:02:08.998Z</time></trkpt><trkpt lat="45.70804831910207" lon="11.297408729157508"><ele>496.0</ele><time>2026-04-04T16:02:09.998Z</time></trkpt><trkpt lat="45.70790333407221" lon="11.297500077985879"><ele>493.0</ele><time>2026-04-04T16:02:10.998Z</time></trkpt><trkpt lat="45.70776110314313" lon="11.297606399698042"><ele>494.5</ele><time>2026-04-04T16:02:11.998Z</time></trkpt><trkpt lat="45.70762020625504" lon="11.297686654363504"><ele>496.0</ele><time>2026-04-04T16:02:12.998Z</time></trkpt><trkpt lat="45.70749348261752" lon="11.297760420948206"><ele>497.5</ele><time>2026-04-04T16:02:13.998Z</time></trkpt><trkpt lat="45.70737758522033" lon="11.297814799221022"><ele>499.0</ele><time>2026-04-04T16:02:14.998Z</time></trkpt><trkpt lat="45.70726331443575" lon="11.29783796234728"><ele>499.0</ele><time>2026-04-04T16:02:15.998Z</time></trkpt><trkpt lat="45.70715255579059" lon="11.297813211205575"><ele>499.0</ele><time>2026-04-04T16:02:16.998Z</time></trkpt><trkpt lat="45.70704295417715" lon="11.297755251181806"><ele>499.0</ele><time>2026-04-04T16:02:17.998Z</time></trkpt><trkpt lat="45.70692542366602" lon="11.297691109894293"><ele>499.0</ele><time>2026-04-04T16:02:18.998Z</time></trkpt><trkpt lat="45.706818016973656" lon="11.297672801017976"><ele>500.0</ele><time>2026-04-04T16:02:19.998Z</time></trkpt><trkpt lat="45.70673220606591" lon="11.297706270941255"><ele>501.0</ele><time>2026-04-04T16:02:20.998Z</time></trkpt><trkpt lat="45.70667173318603" lon="11.297798032184525"><ele>502.0</ele><time>2026-04-04T16:02:21.998Z</time></trkpt><trkpt lat="45.706635446868994" lon="11.29794732008182"><ele>503.0</ele><time>2026-04-04T16:02:23.998Z</time></trkpt><trkpt lat="45.706700081974695" lon="11.29804453532975"><ele>504.0</ele><time>2026-04-04T16:02:24.998Z</time></trkpt><trkpt lat="45.70681394412138" lon="11.298097510971132"><ele>495.75</ele><time>2026-04-04T16:02:25.998Z</time></trkpt><trkpt lat="45.70693813244757" lon="11.298171662236614"><ele>487.5</ele><time>2026-04-04T16:02:26.998Z</time></trkpt><trkpt lat="45.707039353710215" lon="11.298324073032003"><ele>479.25</ele><time>2026-04-04T16:02:27.998Z</time></trkpt><trkpt lat="45.70714389104411" lon="11.298399351859912"><ele>471.0</ele><time>2026-04-04T16:02:28.998Z</time></trkpt><trkpt lat="45.70719772676288" lon="11.298453845564067"><ele>471.0</ele><time>2026-04-04T16:02:29.998Z</time></trkpt><trkpt lat="45.70723333345658" lon="11.298601388375374"><ele>471.0</ele><time>2026-04-04T16:02:31.998Z</time></trkpt><trkpt lat="45.70716302980505" lon="11.298644134944198"><ele>471.0</ele><time>2026-04-04T16:02:32.998Z</time></trkpt><trkpt lat="45.70707394830243" lon="11.298604230518023"><ele>471.0</ele><time>2026-04-04T16:02:35Z</time></trkpt><trkpt lat="45.70700448978629" lon="11.298610987387674"><ele>471.0</ele><time>2026-04-04T16:02:36Z</time></trkpt><trkpt lat="45.70692617757549" lon="11.298610743050839"><ele>471.0</ele><time>2026-04-04T16:02:37Z</time></trkpt><trkpt lat="45.7067917789709" lon="11.298590566501051"><ele>471.5</ele><time>2026-04-04T16:02:39Z</time></trkpt><trkpt lat="45.70668180142828" lon="11.29858576475524"><ele>472.0</ele><time>2026-04-04T16:02:41Z</time></trkpt><trkpt lat="45.706603250600466" lon="11.298636849919891"><ele>472.5</ele><time>2026-04-04T16:02:44Z</time></trkpt><trkpt lat="45.70653736117925" lon="11.298660026810802"><ele>473.0</ele><time>2026-04-04T16:02:45Z</time></trkpt><trkpt lat="45.70644702770748" lon="11.29869506986922"><ele>473.5</ele><time>2026-04-04T16:02:46Z</time></trkpt><trkpt lat="45.70636093097909" lon="11.298730396036412"><ele>474.0</ele><time>2026-04-04T16:02:47Z</time></trkpt><trkpt lat="45.70627488910756" lon="11.29878022369572"><ele>474.0</ele><time>2026-04-04T16:02:48Z</time></trkpt><trkpt lat="45.70621699231848" lon="11.29882072265965"><ele>474.0</ele><time>2026-04-04T16:02:49Z</time></trkpt><trkpt lat="45.70607672291568" lon="11.298915743571774"><ele>474.0</ele><time>2026-04-04T16:02:51Z</time></trkpt><trkpt lat="45.70598142537421" lon="11.298980315322025"><ele>474.0</ele><time>2026-04-04T16:02:52Z</time></trkpt><trkpt lat="45.70587571852744" lon="11.29906277084313"><ele>474.0</ele><time>2026-04-04T16:02:53Z</time></trkpt><trkpt lat="45.705797753633895" lon="11.299146382798119"><ele>469.0</ele><time>2026-04-04T16:02:54Z</time></trkpt><trkpt lat="45.705714874527175" lon="11.299234787952068"><ele>464.0</ele><time>2026-04-04T16:02:55Z</time></trkpt><trkpt lat="45.70564614947993" lon="11.299308095338048"><ele>459.0</ele><time>2026-04-04T16:02:56Z</time></trkpt><trkpt lat="45.705409254322035" lon="11.299107523383851"><ele>459.0</ele><time>2026-04-04T16:02:57Z</time></trkpt><trkpt lat="45.705306698517745" lon="11.299158104806725"><ele>459.0</ele><time>2026-04-04T16:02:58Z</time></trkpt><trkpt lat="45.70519832504816" lon="11.299193430690062"><ele>459.0</ele><time>2026-04-04T16:02:59Z</time></trkpt><trkpt lat="45.70507707783324" lon="11.299221988936601"><ele>459.0</ele><time>2026-04-04T16:03:00Z</time></trkpt><trkpt lat="45.70496342048318" lon="11.299261459187916"><ele>462.79999999999995</ele><time>2026-04-04T16:03:01Z</time></trkpt><trkpt lat="45.704867170176094" lon="11.299310729534456"><ele>466.59999999999997</ele><time>2026-04-04T16:03:02Z</time></trkpt><trkpt lat="45.70477418374066" lon="11.299373058421985"><ele>470.4</ele><time>2026-04-04T16:03:03Z</time></trkpt><trkpt lat="45.70466693748089" lon="11.299436135312561"><ele>474.2</ele><time>2026-04-04T16:03:04Z</time></trkpt><trkpt lat="45.704552579779445" lon="11.29946996700537"><ele>478.0</ele><time>2026-04-04T16:03:04.999Z</time></trkpt><trkpt lat="45.704434995104755" lon="11.299492876651108"><ele>478.0</ele><time>2026-04-04T16:03:05.999Z</time></trkpt><trkpt lat="45.70431978922057" lon="11.299513410467"><ele>477.99999999999994</ele><time>2026-04-04T16:03:06.999Z</time></trkpt><trkpt lat="45.70421115842648" lon="11.299515240404846"><ele>477.99999999999994</ele><time>2026-04-04T16:03:07.999Z</time></trkpt><trkpt lat="45.70409811971014" lon="11.299520535346025"><ele>478.0</ele><time>2026-04-04T16:03:08.999Z</time></trkpt><trkpt lat="45.70399252703512" lon="11.299528478035295"><ele>478.0</ele><time>2026-04-04T16:03:09.999Z</time></trkpt><trkpt lat="45.70389792259651" lon="11.29953848393091"><ele>478.00000000000006</ele><time>2026-04-04T16:03:10.999Z</time></trkpt><trkpt lat="45.703799565235755" lon="11.299564987482634"><ele>478.0</ele><time>2026-04-04T16:03:11.999Z</time></trkpt><trkpt lat="45.70372666749439" lon="11.299557977082005"><ele>478.0</ele><time>2026-04-04T16:03:12.999Z</time></trkpt><trkpt lat="45.70364966126716" lon="11.299522947674744"><ele>478.0</ele><time>2026-04-04T16:03:13.999Z</time></trkpt><trkpt lat="45.70357048431996" lon="11.299474633702289"><ele>478.00000000000006</ele><time>2026-04-04T16:03:14.999Z</time></trkpt><trkpt lat="45.703474440742895" lon="11.299448325499197"><ele>478.0</ele><time>2026-04-04T16:03:15.999Z</time></trkpt><trkpt lat="45.703388813332744" lon="11.29935685651668"><ele>474.4</ele><time>2026-04-04T16:03:17.999Z</time></trkpt><trkpt lat="45.70331379085564" lon="11.299249748729244"><ele>470.79999999999995</ele><time>2026-04-04T16:03:18.999Z</time></trkpt><trkpt lat="45.70324364264763" lon="11.299139096111164"><ele>467.2</ele><time>2026-04-04T16:03:19.999Z</time></trkpt><trkpt lat="45.703181248317584" lon="11.299084479317127"><ele>463.6</ele><time>2026-04-04T16:03:20.999Z</time></trkpt><trkpt lat="45.70311937123828" lon="11.299010028912793"><ele>460.0</ele><time>2026-04-04T16:03:22.999Z</time></trkpt><trkpt lat="45.703121797490944" lon="11.299179254188836"><ele>460.0</ele><time>2026-04-04T16:03:25.999Z</time></trkpt><trkpt lat="45.70314546933798" lon="11.299343981597177"><ele>460.0</ele><time>2026-04-04T16:03:26.999Z</time></trkpt><trkpt lat="45.70315658135107" lon="11.299520881554518"><ele>460.0</ele><time>2026-04-04T16:03:27.999Z</time></trkpt><trkpt lat="45.70316042140598" lon="11.299641234114272"><ele>460.0</ele><time>2026-04-04T16:03:28.999Z</time></trkpt><trkpt lat="45.70315461670172" lon="11.299736998874987"><ele>460.0</ele><time>2026-04-04T16:03:29.999Z</time></trkpt><trkpt lat="45.703126763567425" lon="11.299821860147555"><ele>460.00000000000006</ele><time>2026-04-04T16:03:34.999Z</time></trkpt><trkpt lat="45.70309464828823" lon="11.29972570412833"><ele>460.0</ele><time>2026-04-04T16:03:57.999Z</time></trkpt><trkpt lat="45.703031451062714" lon="11.299667243488152"><ele>460.0</ele><time>2026-04-04T16:03:59.999Z</time></trkpt><trkpt lat="45.70294564598285" lon="11.299527794193187"><ele>460.0</ele><time>2026-04-04T16:04:01.999Z</time></trkpt><trkpt lat="45.702923694587206" lon="11.299384017527494"><ele>460.00000000000006</ele><time>2026-04-04T16:04:03.999Z</time></trkpt><trkpt lat="45.70287842285189" lon="11.299318872492158"><ele>460.0</ele><time>2026-04-04T16:04:04.999Z</time></trkpt><trkpt lat="45.70282249529801" lon="11.29927709415211"><ele>456.33333333333337</ele><time>2026-04-04T16:04:05.999Z</time></trkpt><trkpt lat="45.70270452188749" lon="11.299254994413003"><ele>452.6666666666667</ele><time>2026-04-04T16:04:07.999Z</time></trkpt><trkpt lat="45.70263012048528" lon="11.299229695652198"><ele>449.0</ele><time>2026-04-04T16:04:08.999Z</time></trkpt><trkpt lat="45.70258654311392" lon="11.29916381089332"><ele>445.33333333333337</ele><time>2026-04-04T16:04:09.999Z</time></trkpt><trkpt lat="45.70253125557229" lon="11.299106820884097"><ele>441.6666666666667</ele><time>2026-04-04T16:04:10.999Z</time></trkpt><trkpt lat="45.70249416386041" lon="11.299022059566877"><ele>438.0</ele><time>2026-04-04T16:04:12.999Z</time></trkpt><trkpt lat="45.702474078021964" lon="11.298914894260244"><ele>438.0</ele><time>2026-04-04T16:04:13.999Z</time></trkpt><trkpt lat="45.70243565078689" lon="11.298790467421032"><ele>437.99999999999994</ele><time>2026-04-04T16:04:14.999Z</time></trkpt><trkpt lat="45.70239981900697" lon="11.298679591626627"><ele>437.99999999999994</ele><time>2026-04-04T16:04:15.998Z</time></trkpt><trkpt lat="45.70234891451912" lon="11.29856336888309"><ele>438.0</ele><time>2026-04-04T16:04:16.998Z</time></trkpt><trkpt lat="45.702313603551104" lon="11.29848396711181"><ele>438.0</ele><time>2026-04-04T16:04:17.998Z</time></trkpt><trkpt lat="45.70220268685846" lon="11.298421303757571"><ele>438.0</ele><time>2026-04-04T16:04:19.998Z</time></trkpt><trkpt lat="45.70212833858872" lon="11.298305035463773"><ele>437.99999999999994</ele><time>2026-04-04T16:04:21.998Z</time></trkpt><trkpt lat="45.702093563101926" lon="11.29822760625261"><ele>437.99999999999994</ele><time>2026-04-04T16:04:22.998Z</time></trkpt><trkpt lat="45.7020203335884" lon="11.298087073218023"><ele>438.0</ele><time>2026-04-04T16:04:24.998Z</time></trkpt><trkpt lat="45.701980149452226" lon="11.298011410978132"><ele>438.0</ele><time>2026-04-04T16:04:25.998Z</time></trkpt><trkpt lat="45.70193542485313" lon="11.297904689677104"><ele>438.0</ele><time>2026-04-04T16:04:27.998Z</time></trkpt><trkpt lat="45.701883799163625" lon="11.297847172155555"><ele>438.0</ele><time>2026-04-04T16:04:51Z</time></trkpt><trkpt lat="45.701901058704756" lon="11.29799771016974"><ele>438.0</ele><time>2026-04-04T16:05:10Z</time></trkpt><trkpt lat="45.70191550982157" lon="11.298149983102517"><ele>438.0</ele><time>2026-04-04T16:05:11.999Z</time></trkpt><trkpt lat="45.70189810383925" lon="11.298245179341587"><ele>438.0</ele><time>2026-04-04T16:05:13.999Z</time></trkpt><trkpt lat="45.70192680955934" lon="11.29833214111534"><ele>438.0</ele><time>2026-04-04T16:05:15.999Z</time></trkpt><trkpt lat="45.701943178625946" lon="11.298462928150927"><ele>438.0</ele><time>2026-04-04T16:05:17.999Z</time></trkpt><trkpt lat="45.701937858976" lon="11.298575699479375"><ele>437.99999999999994</ele><time>2026-04-04T16:05:19.999Z</time></trkpt><trkpt lat="45.701928892528954" lon="11.298720298123268"><ele>437.99999999999994</ele><time>2026-04-04T16:05:21.999Z</time></trkpt><trkpt lat="45.7019099547447" lon="11.29888994954156"><ele>438.0</ele><time>2026-04-04T16:05:23.999Z</time></trkpt><trkpt lat="45.701921414332084" lon="11.298983673160778"><ele>438.0</ele><time>2026-04-04T16:05:25.999Z</time></trkpt><trkpt lat="45.70184090289926" lon="11.299056298004134"><ele>433.3333333333333</ele><time>2026-04-04T16:05:40.999Z</time></trkpt><trkpt lat="45.70180665191026" lon="11.299133944931123"><ele>428.66666666666663</ele><time>2026-04-04T16:05:43.999Z</time></trkpt><trkpt lat="45.70183343979971" lon="11.299222261086049"><ele>424.0</ele><time>2026-04-04T16:05:48.999Z</time></trkpt><trkpt lat="45.70185524260109" lon="11.299341414056482"><ele>419.3333333333333</ele><time>2026-04-04T16:05:52.999Z</time></trkpt><trkpt lat="45.701890557326024" lon="11.299502916638186"><ele>414.66666666666663</ele><time>2026-04-04T16:05:54.999Z</time></trkpt><trkpt lat="45.701900996814" lon="11.299593683633685"><ele>410.0</ele><time>2026-04-04T16:05:55.999Z</time></trkpt><trkpt lat="45.7018862556408" lon="11.299720529369694"><ele>407.6</ele><time>2026-04-04T16:05:56.999Z</time></trkpt><trkpt lat="45.70186636032089" lon="11.299847472942416"><ele>405.2</ele><time>2026-04-04T16:05:57.999Z</time></trkpt><trkpt lat="45.70184758397302" lon="11.300004189779399"><ele>402.79999999999995</ele><time>2026-04-04T16:05:58.999Z</time></trkpt><trkpt lat="45.701832073234655" lon="11.30016036264037"><ele>400.4</ele><time>2026-04-04T16:05:59.999Z</time></trkpt><trkpt lat="45.70180839672867" lon="11.300246318444819"><ele>398.0</ele><time>2026-04-04T16:06:00.999Z</time></trkpt><trkpt lat="45.701782181752876" lon="11.300349297914442"><ele>397.99999999999994</ele><time>2026-04-04T16:06:01.999Z</time></trkpt><trkpt lat="45.70174241880411" lon="11.300453400509422"><ele>398.0</ele><time>2026-04-04T16:06:02.999Z</time></trkpt><trkpt lat="45.701689116934006" lon="11.300563578387326"><ele>398.0</ele><time>2026-04-04T16:06:03.999Z</time></trkpt><trkpt lat="45.70161856957257" lon="11.300659384255434"><ele>398.0</ele><time>2026-04-04T16:06:04.999Z</time></trkpt><trkpt lat="45.70156923764383" lon="11.30075636041012"><ele>397.99999999999994</ele><time>2026-04-04T16:06:05.999Z</time></trkpt><trkpt lat="45.7015329880704" lon="11.300830844001029"><ele>398.0</ele><time>2026-04-04T16:06:06.999Z</time></trkpt><trkpt lat="45.70149824177906" lon="11.300923814762868"><ele>395.4</ele><time>2026-04-04T16:06:07.999Z</time></trkpt><trkpt lat="45.701470055016095" lon="11.301046292088714"><ele>392.79999999999995</ele><time>2026-04-04T16:06:08.999Z</time></trkpt><trkpt lat="45.701434405702024" lon="11.301180812356925"><ele>390.2</ele><time>2026-04-04T16:06:09.999Z</time></trkpt><trkpt lat="45.701382097392646" lon="11.301298257066168"><ele>387.6</ele><time>2026-04-04T16:06:10.999Z</time></trkpt><trkpt lat="45.70133249321163" lon="11.301412380098606"><ele>385.0</ele><time>2026-04-04T16:06:11.999Z</time></trkpt><trkpt lat="45.7012929622177" lon="11.301521851183312"><ele>382.50000000000006</ele><time>2026-04-04T16:06:12.999Z</time></trkpt><trkpt lat="45.70129995713879" lon="11.30168278266076"><ele>380.0</ele><time>2026-04-04T16:06:14.999Z</time></trkpt><trkpt lat="45.70133100715035" lon="11.301761209173906"><ele>377.5</ele><time>2026-04-04T16:06:15.998Z</time></trkpt><trkpt lat="45.70136659451149" lon="11.301866343212346"><ele>375.0</ele><time>2026-04-04T16:06:16.998Z</time></trkpt><trkpt lat="45.70137736801817" lon="11.301966956377195"><ele>372.5</ele><time>2026-04-04T16:06:17.998Z</time></trkpt><trkpt lat="45.70137778636968" lon="11.30207480753513"><ele>370.0</ele><time>2026-04-04T16:06:18.998Z</time></trkpt><trkpt lat="45.70136560097087" lon="11.302213699723819"><ele>368.5</ele><time>2026-04-04T16:06:19.998Z</time></trkpt><trkpt lat="45.7013776223229" lon="11.302382109854163"><ele>367.0</ele><time>2026-04-04T16:06:20.998Z</time></trkpt><trkpt lat="45.70139540397078" lon="11.302596449756411"><ele>365.5</ele><time>2026-04-04T16:06:21.998Z</time></trkpt><trkpt lat="45.70141852729487" lon="11.30281158743401"><ele>364.0</ele><time>2026-04-04T16:06:22.998Z</time></trkpt><trkpt lat="45.701421620328105" lon="11.30300849268053"><ele>364.0</ele><time>2026-04-04T16:06:23.998Z</time></trkpt><trkpt lat="45.70140043375939" lon="11.303193906210044"><ele>364.0</ele><time>2026-04-04T16:06:24.998Z</time></trkpt><trkpt lat="45.70137168109281" lon="11.303382054546265"><ele>364.0</ele><time>2026-04-04T16:06:25.998Z</time></trkpt><trkpt lat="45.7013442525729" lon="11.303572670720165"><ele>364.0</ele><time>2026-04-04T16:06:26.998Z</time></trkpt><trkpt lat="45.70131067685552" lon="11.30377683512274"><ele>362.25</ele><time>2026-04-04T16:06:27.998Z</time></trkpt><trkpt lat="45.70128220412519" lon="11.303965981096983"><ele>360.5</ele><time>2026-04-04T16:06:28.998Z</time></trkpt><trkpt lat="45.70125252679688" lon="11.304127763747479"><ele>358.75</ele><time>2026-04-04T16:06:29.998Z</time></trkpt><trkpt lat="45.70121884444332" lon="11.304288026846951"><ele>357.0</ele><time>2026-04-04T16:06:30.998Z</time></trkpt><trkpt lat="45.70116763502872" lon="11.304432312631079"><ele>357.0</ele><time>2026-04-04T16:06:31.998Z</time></trkpt><trkpt lat="45.70113353592805" lon="11.304575022167706"><ele>357.0</ele><time>2026-04-04T16:06:32.998Z</time></trkpt><trkpt lat="45.70112488900495" lon="11.304722430009344"><ele>357.0</ele><time>2026-04-04T16:06:33.998Z</time></trkpt><trkpt lat="45.70115451250798" lon="11.304855259419833"><ele>357.0</ele><time>2026-04-04T16:06:34.998Z</time></trkpt><trkpt lat="45.701204748232406" lon="11.305022960636494"><ele>357.0</ele><time>2026-04-04T16:06:35.998Z</time></trkpt><trkpt lat="45.70126882138377" lon="11.305222323502111"><ele>353.6666666666667</ele><time>2026-04-04T16:06:36.998Z</time></trkpt><trkpt lat="45.70133644642181" lon="11.305422502000486"><ele>350.33333333333337</ele><time>2026-04-04T16:06:37.998Z</time></trkpt><trkpt lat="45.701403646103884" lon="11.305614641132298"><ele>347.0</ele><time>2026-04-04T16:06:38.998Z</time></trkpt><trkpt lat="45.701470316338934" lon="11.305799230166738"><ele>345.25</ele><time>2026-04-04T16:06:39.998Z</time></trkpt><trkpt lat="45.70153458384161" lon="11.305980080278468"><ele>343.5</ele><time>2026-04-04T16:06:40.998Z</time></trkpt><trkpt lat="45.701598701725985" lon="11.306155731317647"><ele>341.75</ele><time>2026-04-04T16:06:41.998Z</time></trkpt><trkpt lat="45.7016562946551" lon="11.306335181299467"><ele>340.0</ele><time>2026-04-04T16:06:42.998Z</time></trkpt><trkpt lat="45.70170780142753" lon="11.306521859954486"><ele>338.0</ele><time>2026-04-04T16:06:43.998Z</time></trkpt><trkpt lat="45.70175607154718" lon="11.306717197605872"><ele>336.0</ele><time>2026-04-04T16:06:44.998Z</time></trkpt><trkpt lat="45.70180374610098" lon="11.306906799260048"><ele>334.0</ele><time>2026-04-04T16:06:46Z</time></trkpt><trkpt lat="45.701842162766944" lon="11.307069782383653"><ele>332.0</ele><time>2026-04-04T16:06:47Z</time></trkpt><trkpt lat="45.70186257317457" lon="11.307232367003536"><ele>329.0</ele><time>2026-04-04T16:06:48Z</time></trkpt><trkpt lat="45.701847961532636" lon="11.307414344115026"><ele>326.0</ele><time>2026-04-04T16:06:49Z</time></trkpt><trkpt lat="45.7017969315053" lon="11.30758715462687"><ele>323.0</ele><time>2026-04-04T16:06:50Z</time></trkpt><trkpt lat="45.701739071244" lon="11.307754604929832"><ele>320.0</ele><time>2026-04-04T16:06:51Z</time></trkpt><trkpt lat="45.70172054698916" lon="11.307934662096876"><ele>318.5</ele><time>2026-04-04T16:06:52Z</time></trkpt><trkpt lat="45.70175086946521" lon="11.30812795076086"><ele>317.0</ele><time>2026-04-04T16:06:53Z</time></trkpt><trkpt lat="45.70180739731491" lon="11.308323951869061"><ele>315.5</ele><time>2026-04-04T16:06:54Z</time></trkpt><trkpt lat="45.70186350765212" lon="11.308533325456649"><ele>314.0</ele><time>2026-04-04T16:06:55Z</time></trkpt><trkpt lat="45.70190573191253" lon="11.308741742177393"><ele>311.75</ele><time>2026-04-04T16:06:56Z</time></trkpt><trkpt lat="45.70193673551976" lon="11.308938403766655"><ele>309.5</ele><time>2026-04-04T16:06:57Z</time></trkpt><trkpt lat="45.70198437159707" lon="11.309134038678126"><ele>307.25</ele><time>2026-04-04T16:06:58Z</time></trkpt><trkpt lat="45.7020608382824" lon="11.309312082325128"><ele>305.0</ele><time>2026-04-04T16:06:59Z</time></trkpt><trkpt lat="45.70216271588129" lon="11.30947597764604"><ele>305.0</ele><time>2026-04-04T16:07:00Z</time></trkpt><trkpt lat="45.702283984312785" lon="11.309645332787916"><ele>305.0</ele><time>2026-04-04T16:07:01Z</time></trkpt><trkpt lat="45.70240711523573" lon="11.309810589171683"><ele>305.0</ele><time>2026-04-04T16:07:02Z</time></trkpt><trkpt lat="45.702516377506555" lon="11.309970626539553"><ele>303.6666666666667</ele><time>2026-04-04T16:07:03Z</time></trkpt><trkpt lat="45.702620483195254" lon="11.310148740914213"><ele>302.3333333333333</ele><time>2026-04-04T16:07:04Z</time></trkpt><trkpt lat="45.702725675680156" lon="11.3103486769565"><ele>301.0</ele><time>2026-04-04T16:07:05Z</time></trkpt><trkpt lat="45.70282283845183" lon="11.310559617619392"><ele>297.3333333333333</ele><time>2026-04-04T16:07:06Z</time></trkpt><trkpt lat="45.702922894383484" lon="11.310784500390314"><ele>293.6666666666667</ele><time>2026-04-04T16:07:07Z</time></trkpt><trkpt lat="45.703022408692796" lon="11.310996827264844"><ele>290.0</ele><time>2026-04-04T16:07:08Z</time></trkpt><trkpt lat="45.70312774250235" lon="11.31119474054208"><ele>290.0</ele><time>2026-04-04T16:07:09Z</time></trkpt><trkpt lat="45.70323117437821" lon="11.311385629392506"><ele>290.0</ele><time>2026-04-04T16:07:10Z</time></trkpt><trkpt lat="45.703331270828166" lon="11.311554302089572"><ele>290.0</ele><time>2026-04-04T16:07:11Z</time></trkpt><trkpt lat="45.70343356452457" lon="11.311698158742365"><ele>289.6666666666667</ele><time>2026-04-04T16:07:12Z</time></trkpt><trkpt lat="45.703553415887" lon="11.31181221962419"><ele>289.3333333333333</ele><time>2026-04-04T16:07:13Z</time></trkpt><trkpt lat="45.703696919096494" lon="11.31190197967157"><ele>289.0</ele><time>2026-04-04T16:07:13.999Z</time></trkpt><trkpt lat="45.7038487313948" lon="11.311957852480239"><ele>287.0</ele><time>2026-04-04T16:07:14.999Z</time></trkpt><trkpt lat="45.70400738689944" lon="11.311996362116284"><ele>285.0</ele><time>2026-04-04T16:07:15.999Z</time></trkpt><trkpt lat="45.70415797211431" lon="11.312035647560377"><ele>283.0</ele><time>2026-04-04T16:07:16.999Z</time></trkpt><trkpt lat="45.70430255237072" lon="11.312079562516072"><ele>283.25</ele><time>2026-04-04T16:07:17.999Z</time></trkpt><trkpt lat="45.70443749841366" lon="11.312120376379049"><ele>283.5</ele><time>2026-04-04T16:07:18.999Z</time></trkpt><trkpt lat="45.70457988829703" lon="11.31216823097893"><ele>283.75</ele><time>2026-04-04T16:07:19.999Z</time></trkpt><trkpt lat="45.70471770470367" lon="11.312214961041144"><ele>284.0</ele><time>2026-04-04T16:07:20.999Z</time></trkpt><trkpt lat="45.70486197473692" lon="11.312256151818753"><ele>283.0</ele><time>2026-04-04T16:07:21.999Z</time></trkpt><trkpt lat="45.70500076254945" lon="11.31228302279877"><ele>282.0</ele><time>2026-04-04T16:07:22.999Z</time></trkpt><trkpt lat="45.705145623158465" lon="11.312292928795312"><ele>281.0</ele><time>2026-04-04T16:07:23.999Z</time></trkpt><trkpt lat="45.7052896285098" lon="11.31229402176469"><ele>280.0</ele><time>2026-04-04T16:07:24.999Z</time></trkpt><trkpt lat="45.705438068967375" lon="11.312290892360396"><ele>278.8</ele><time>2026-04-04T16:07:25.999Z</time></trkpt><trkpt lat="45.7055679474927" lon="11.31228376896694"><ele>277.6</ele><time>2026-04-04T16:07:26.999Z</time></trkpt><trkpt lat="45.70567995442006" lon="11.312271012515128"><ele>276.4</ele><time>2026-04-04T16:07:27.999Z</time></trkpt><trkpt lat="45.70576578577799" lon="11.312261812400193"><ele>275.2</ele><time>2026-04-04T16:07:28.999Z</time></trkpt><trkpt lat="45.70587392435924" lon="11.312288018629907"><ele>274.0</ele><time>2026-04-04T16:07:30.999Z</time></trkpt><trkpt lat="45.70590608300905" lon="11.312439354325376"><ele>274.0</ele><time>2026-04-04T16:07:32.999Z</time></trkpt><trkpt lat="45.70592288884469" lon="11.312547242599429"><ele>274.0</ele><time>2026-04-04T16:07:33.999Z</time></trkpt><trkpt lat="45.705954212522826" lon="11.312681015600925"><ele>274.0</ele><time>2026-04-04T16:07:34.999Z</time></trkpt><trkpt lat="45.70599661574383" lon="11.312822723408855"><ele>274.0</ele><time>2026-04-04T16:07:35.999Z</time></trkpt><trkpt lat="45.706040415621594" lon="11.312934240677805"><ele>274.0</ele><time>2026-04-04T16:07:36.999Z</time></trkpt><trkpt lat="45.70608803397903" lon="11.313049381621816"><ele>272.4</ele><time>2026-04-04T16:07:37.999Z</time></trkpt><trkpt lat="45.70614616339513" lon="11.313175929172033"><ele>270.79999999999995</ele><time>2026-04-04T16:07:38.999Z</time></trkpt><trkpt lat="45.70619903075968" lon="11.313306060330786"><ele>269.20000000000005</ele><time>2026-04-04T16:07:39.999Z</time></trkpt><trkpt lat="45.70626461462166" lon="11.313467535168563"><ele>267.6</ele><time>2026-04-04T16:07:40.999Z</time></trkpt><trkpt lat="45.70632257472724" lon="11.313562251229795"><ele>266.0</ele><time>2026-04-04T16:07:41.999Z</time></trkpt><trkpt lat="45.7063884422586" lon="11.31361423080079"><ele>266.0</ele><time>2026-04-04T16:07:43.999Z</time></trkpt><trkpt lat="45.706466013178336" lon="11.313685393177632"><ele>266.0</ele><time>2026-04-04T16:07:45.999Z</time></trkpt><trkpt lat="45.70650683760887" lon="11.313797266334538"><ele>266.0</ele><time>2026-04-04T16:07:48.999Z</time></trkpt><trkpt lat="45.70653144498157" lon="11.313923566328166"><ele>266.0</ele><time>2026-04-04T16:07:50.999Z</time></trkpt><trkpt lat="45.70657756432655" lon="11.313990461269729"><ele>266.0</ele><time>2026-04-04T16:07:52.999Z</time></trkpt><trkpt lat="45.706624584836895" lon="11.314075007560648"><ele>266.0</ele><time>2026-04-04T16:07:54.999Z</time></trkpt><trkpt lat="45.706716924158" lon="11.314190016728656"><ele>264.5</ele><time>2026-04-04T16:07:56.999Z</time></trkpt><trkpt lat="45.70681444190062" lon="11.314289338053811"><ele>263.0</ele><time>2026-04-04T16:07:58.999Z</time></trkpt><trkpt lat="45.70687158511336" lon="11.314395622982161"><ele>261.5</ele><time>2026-04-04T16:07:59.999Z</time></trkpt><trkpt lat="45.70691045352877" lon="11.314470009761758"><ele>260.0</ele><time>2026-04-04T16:08:00.999Z</time></trkpt><trkpt lat="45.70694783930875" lon="11.314565785878639"><ele>258.5</ele><time>2026-04-04T16:08:02.999Z</time></trkpt><trkpt lat="45.7070288540218" lon="11.314574978445547"><ele>257.0</ele><time>2026-04-04T16:08:04.999Z</time></trkpt><trkpt lat="45.7070898209182" lon="11.31462236133388"><ele>257.0</ele><time>2026-04-04T16:08:06.999Z</time></trkpt><trkpt lat="45.7071669363454" lon="11.314733338185203"><ele>257.0</ele><time>2026-04-04T16:08:07.999Z</time></trkpt><trkpt lat="45.70720217150632" lon="11.314816978669855"><ele>257.0</ele><time>2026-04-04T16:08:08.999Z</time></trkpt><trkpt lat="45.707213381672524" lon="11.314919245325786"><ele>257.0</ele><time>2026-04-04T16:08:10.999Z</time></trkpt><trkpt lat="45.70728340078662" lon="11.315039385594194"><ele>257.0</ele><time>2026-04-04T16:08:12.999Z</time></trkpt><trkpt lat="45.70735327846992" lon="11.315171630607049"><ele>259.2</ele><time>2026-04-04T16:08:14.999Z</time></trkpt><trkpt lat="45.707393911472195" lon="11.315253492427813"><ele>261.4</ele><time>2026-04-04T16:08:15.999Z</time></trkpt><trkpt lat="45.70744581820236" lon="11.315332074373272"><ele>263.6</ele><time>2026-04-04T16:08:17.998Z</time></trkpt><trkpt lat="45.70748831287681" lon="11.31549275720548"><ele>265.8</ele><time>2026-04-04T16:08:19.998Z</time></trkpt><trkpt lat="45.70755713542623" lon="11.315611036204093"><ele>268.0</ele><time>2026-04-04T16:08:21.998Z</time></trkpt><trkpt lat="45.70766330138068" lon="11.31573184490566"><ele>267.5</ele><time>2026-04-04T16:08:23.998Z</time></trkpt><trkpt lat="45.707755514836215" lon="11.315837676018605"><ele>267.0</ele><time>2026-04-04T16:08:25.998Z</time></trkpt><trkpt lat="45.70781213416495" lon="11.315898834577467"><ele>266.5</ele><time>2026-04-04T16:08:26.998Z</time></trkpt><trkpt lat="45.70785138235016" lon="11.316015728818432"><ele>266.0</ele><time>2026-04-04T16:08:28.998Z</time></trkpt><trkpt lat="45.707869936060305" lon="11.316113349086333"><ele>265.5</ele><time>2026-04-04T16:08:29.998Z</time></trkpt><trkpt lat="45.7078905848169" lon="11.316200238205193"><ele>265.0</ele><time>2026-04-04T16:08:30.998Z</time></trkpt><trkpt lat="45.70788410220184" lon="11.316290138344348"><ele>265.0</ele><time>2026-04-04T16:08:31.998Z</time></trkpt><trkpt lat="45.70787433387503" lon="11.31639290516755"><ele>265.0</ele><time>2026-04-04T16:08:32.998Z</time></trkpt><trkpt lat="45.707871965289904" lon="11.316517836452048"><ele>265.0</ele><time>2026-04-04T16:08:33.998Z</time></trkpt><trkpt lat="45.70786322813966" lon="11.316608584448488"><ele>265.0</ele><time>2026-04-04T16:08:34.998Z</time></trkpt><trkpt lat="45.70789047210761" lon="11.316721451955814"><ele>265.0</ele><time>2026-04-04T16:08:36.998Z</time></trkpt><trkpt lat="45.70797633898732" lon="11.316746786816205"><ele>265.0</ele><time>2026-04-04T16:08:38.998Z</time></trkpt><trkpt lat="45.708070137718934" lon="11.316789035926503"><ele>267.8333333333333</ele><time>2026-04-04T16:08:40.998Z</time></trkpt><trkpt lat="45.70815791155445" lon="11.316842196105528"><ele>270.66666666666663</ele><time>2026-04-04T16:08:41.998Z</time></trkpt><trkpt lat="45.708233452035685" lon="11.316862471544372"><ele>273.5</ele><time>2026-04-04T16:08:42.998Z</time></trkpt><trkpt lat="45.70831004486383" lon="11.316832091030264"><ele>276.3333333333333</ele><time>2026-04-04T16:08:43.998Z</time></trkpt><trkpt lat="45.70838741644555" lon="11.316810262965891"><ele>279.1666666666667</ele><time>2026-04-04T16:08:44.998Z</time></trkpt><trkpt lat="45.70845357081219" lon="11.31685136347454"><ele>282.0</ele><time>2026-04-04T16:08:45.998Z</time></trkpt><trkpt lat="45.708527679094686" lon="11.31690681500577"><ele>281.8333333333333</ele><time>2026-04-04T16:08:46.998Z</time></trkpt><trkpt lat="45.708604282257035" lon="11.316961918482587"><ele>281.6666666666667</ele><time>2026-04-04T16:08:47.998Z</time></trkpt><trkpt lat="45.70871021158231" lon="11.317018413880733"><ele>281.5</ele><time>2026-04-04T16:08:48.998Z</time></trkpt><trkpt lat="45.70881481112551" lon="11.317014705434628"><ele>281.33333333333337</ele><time>2026-04-04T16:08:49.998Z</time></trkpt><trkpt lat="45.708890409867415" lon="11.317042238546277"><ele>281.1666666666667</ele><time>2026-04-04T16:08:50.998Z</time></trkpt><trkpt lat="45.7089347408465" lon="11.31710732502218"><ele>281.0</ele><time>2026-04-04T16:08:52Z</time></trkpt><trkpt lat="45.70896123638929" lon="11.317220604665941"><ele>284.6666666666667</ele><time>2026-04-04T16:08:53Z</time></trkpt><trkpt lat="45.70898940832405" lon="11.31738117239537"><ele>288.33333333333337</ele><time>2026-04-04T16:08:54Z</time></trkpt><trkpt lat="45.709010977028775" lon="11.317477853666423"><ele>292.0</ele><time>2026-04-04T16:08:55Z</time></trkpt><trkpt lat="45.70902779209877" lon="11.317565208466828"><ele>295.6666666666667</ele><time>2026-04-04T16:08:58Z</time></trkpt><trkpt lat="45.70900642893999" lon="11.317656131723144"><ele>299.3333333333333</ele><time>2026-04-04T16:09:01Z</time></trkpt><trkpt lat="45.70905638221842" lon="11.317812121430446"><ele>303.0</ele><time>2026-04-04T16:09:03Z</time></trkpt><trkpt lat="45.7090848577618" lon="11.317896665303486"><ele>303.0</ele><time>2026-04-04T16:09:04Z</time></trkpt><trkpt lat="45.709096308110766" lon="11.318002575641977"><ele>303.0</ele><time>2026-04-04T16:09:05Z</time></trkpt><trkpt lat="45.70910065092089" lon="11.31809260553365"><ele>303.0</ele><time>2026-04-04T16:09:06Z</time></trkpt><trkpt lat="45.70909422060914" lon="11.318202391640936"><ele>303.0</ele><time>2026-04-04T16:09:07Z</time></trkpt><trkpt lat="45.709080042221245" lon="11.318318258284279"><ele>303.0</ele><time>2026-04-04T16:09:08Z</time></trkpt><trkpt lat="45.70907991350602" lon="11.31841231356574"><ele>303.0</ele><time>2026-04-04T16:09:09Z</time></trkpt><trkpt lat="45.70909145619419" lon="11.31852306586671"><ele>303.0</ele><time>2026-04-04T16:09:11Z</time></trkpt><trkpt lat="45.70914473615309" lon="11.318584412063752"><ele>302.8571428571429</ele><time>2026-04-04T16:09:13Z</time></trkpt><trkpt lat="45.70917600603879" lon="11.318673746282244"><ele>302.7142857142857</ele><time>2026-04-04T16:09:14Z</time></trkpt><trkpt lat="45.709171308525" lon="11.31876612370875"><ele>302.57142857142856</ele><time>2026-04-04T16:09:15Z</time></trkpt><trkpt lat="45.709188058660565" lon="11.318862496397955"><ele>302.42857142857144</ele><time>2026-04-04T16:09:16Z</time></trkpt><trkpt lat="45.70922254951942" lon="11.31896055225265"><ele>302.2857142857143</ele><time>2026-04-04T16:09:17Z</time></trkpt><trkpt lat="45.70925654796961" lon="11.319065763917319"><ele>302.14285714285717</ele><time>2026-04-04T16:09:18Z</time></trkpt><trkpt lat="45.70929005840916" lon="11.31917329479646"><ele>302.0</ele><time>2026-04-04T16:09:19Z</time></trkpt><trkpt lat="45.709311666371434" lon="11.319287586014502"><ele>299.4</ele><time>2026-04-04T16:09:20Z</time></trkpt><trkpt lat="45.7093230905641" lon="11.319421503434514"><ele>296.79999999999995</ele><time>2026-04-04T16:09:20.999Z</time></trkpt><trkpt lat="45.70933293126889" lon="11.319567679179556"><ele>294.2</ele><time>2026-04-04T16:09:21.999Z</time></trkpt><trkpt lat="45.709335247185756" lon="11.319716628594598"><ele>291.59999999999997</ele><time>2026-04-04T16:09:22.999Z</time></trkpt><trkpt lat="45.70932729472962" lon="11.319850420010237"><ele>289.0</ele><time>2026-04-04T16:09:23.999Z</time></trkpt><trkpt lat="45.70929434066939" lon="11.31994098230539"><ele>286.5</ele><time>2026-04-04T16:09:24.999Z</time></trkpt><trkpt lat="45.70924820620547" lon="11.320025936699304"><ele>284.0</ele><time>2026-04-04T16:09:25.999Z</time></trkpt><trkpt lat="45.70920515632298" lon="11.32010816515809"><ele>281.5</ele><time>2026-04-04T16:09:27.999Z</time></trkpt><trkpt lat="45.70917236819122" lon="11.319961804167377"><ele>279.0</ele><time>2026-04-04T16:09:30.999Z</time></trkpt><trkpt lat="45.7092020824528" lon="11.319872385649717"><ele>276.5</ele><time>2026-04-04T16:09:31.999Z</time></trkpt><trkpt lat="45.70912247499661" lon="11.319868433921377"><ele>274.0</ele><time>2026-04-04T16:09:35.999Z</time></trkpt><trkpt lat="45.70905275976379" lon="11.319999381670804"><ele>274.0</ele><time>2026-04-04T16:09:37.999Z</time></trkpt><trkpt lat="45.70904599902914" lon="11.320131702922085"><ele>274.0</ele><time>2026-04-04T16:09:38.999Z</time></trkpt><trkpt lat="45.70904432669827" lon="11.320247346781887"><ele>274.0</ele><time>2026-04-04T16:09:39.999Z</time></trkpt><trkpt lat="45.70903853985557" lon="11.320361001140197"><ele>274.0</ele><time>2026-04-04T16:09:40.999Z</time></trkpt><trkpt lat="45.70902047817935" lon="11.320497486812025"><ele>274.0</ele><time>2026-04-04T16:09:42.999Z</time></trkpt><trkpt lat="45.70905193584461" lon="11.320593342062505"><ele>274.0</ele><time>2026-04-04T16:09:44.999Z</time></trkpt><trkpt lat="45.70912400012629" lon="11.320632332897432"><ele>273.59999999999997</ele><time>2026-04-04T16:09:45.999Z</time></trkpt><trkpt lat="45.70920105809277" lon="11.320642058916922"><ele>273.2</ele><time>2026-04-04T16:09:46.999Z</time></trkpt><trkpt lat="45.709291120475136" lon="11.320601792377442"><ele>272.79999999999995</ele><time>2026-04-04T16:09:47.999Z</time></trkpt><trkpt lat="45.70939548528823" lon="11.320577223486175"><ele>272.4</ele><time>2026-04-04T16:09:48.999Z</time></trkpt><trkpt lat="45.709499391212525" lon="11.320617807606308"><ele>272.0</ele><time>2026-04-04T16:09:49.999Z</time></trkpt><trkpt lat="45.70957349842114" lon="11.320677381121179"><ele>272.0</ele><time>2026-04-04T16:09:50.999Z</time></trkpt><trkpt lat="45.70964326596757" lon="11.3207565369355"><ele>272.0</ele><time>2026-04-04T16:09:51.999Z</time></trkpt><trkpt lat="45.709682341310554" lon="11.320854283294135"><ele>272.0</ele><time>2026-04-04T16:09:52.999Z</time></trkpt><trkpt lat="45.70972361569628" lon="11.320989257007227"><ele>272.0</ele><time>2026-04-04T16:09:53.999Z</time></trkpt><trkpt lat="45.7097541017555" lon="11.321113396678989"><ele>272.0</ele><time>2026-04-04T16:09:54.999Z</time></trkpt><trkpt lat="45.7097867942964" lon="11.321237629584026"><ele>272.0</ele><time>2026-04-04T16:09:55.999Z</time></trkpt><trkpt lat="45.709826707950846" lon="11.321358472699973"><ele>272.0</ele><time>2026-04-04T16:09:56.999Z</time></trkpt><trkpt lat="45.70987659403186" lon="11.321461625162272"><ele>272.0</ele><time>2026-04-04T16:09:57.999Z</time></trkpt><trkpt lat="45.70992771176248" lon="11.321551150560497"><ele>272.0</ele><time>2026-04-04T16:09:58.999Z</time></trkpt><trkpt lat="45.7099795747079" lon="11.321664458843086"><ele>272.0</ele><time>2026-04-04T16:09:59.999Z</time></trkpt><trkpt lat="45.71003602908842" lon="11.321769306307122"><ele>272.0</ele><time>2026-04-04T16:10:00.999Z</time></trkpt><trkpt lat="45.71010141668355" lon="11.321870554551142"><ele>268.6666666666667</ele><time>2026-04-04T16:10:01.999Z</time></trkpt><trkpt lat="45.71017640754829" lon="11.321951304479633"><ele>265.33333333333337</ele><time>2026-04-04T16:10:02.999Z</time></trkpt><trkpt lat="45.7102287117271" lon="11.322040564859874"><ele>262.0</ele><time>2026-04-04T16:10:03.999Z</time></trkpt><trkpt lat="45.71026210908809" lon="11.32213344098994"><ele>258.6666666666667</ele><time>2026-04-04T16:10:04.999Z</time></trkpt><trkpt lat="45.710258993108155" lon="11.32224667022485"><ele>255.33333333333334</ele><time>2026-04-04T16:10:05.999Z</time></trkpt><trkpt lat="45.710299940585195" lon="11.322338872974694"><ele>252.0</ele><time>2026-04-04T16:10:08.999Z</time></trkpt><trkpt lat="45.71046014773408" lon="11.322373808046196"><ele>248.8</ele><time>2026-04-04T16:10:10.999Z</time></trkpt><trkpt lat="45.710550237354425" lon="11.322408613491005"><ele>245.6</ele><time>2026-04-04T16:10:11.999Z</time></trkpt><trkpt lat="45.71064381692885" lon="11.32243284207834"><ele>242.40000000000003</ele><time>2026-04-04T16:10:12.999Z</time></trkpt><trkpt lat="45.71072518577915" lon="11.322456991856054"><ele>239.20000000000002</ele><time>2026-04-04T16:10:13.999Z</time></trkpt><trkpt lat="45.71081464835158" lon="11.322486689292711"><ele>236.0</ele><time>2026-04-04T16:10:14.999Z</time></trkpt><trkpt lat="45.71090214080992" lon="11.322509073842085"><ele>236.00000000000003</ele><time>2026-04-04T16:10:15.999Z</time></trkpt><trkpt lat="45.71098514345532" lon="11.322506605503648"><ele>236.0</ele><time>2026-04-04T16:10:16.999Z</time></trkpt><trkpt lat="45.71106738801259" lon="11.322496024301195"><ele>236.0</ele><time>2026-04-04T16:10:17.999Z</time></trkpt><trkpt lat="45.711135080445736" lon="11.322519287060786"><ele>236.0</ele><time>2026-04-04T16:10:18.999Z</time></trkpt><trkpt lat="45.71121373563968" lon="11.322554521996391"><ele>236.00000000000003</ele><time>2026-04-04T16:10:20.999Z</time></trkpt><trkpt lat="45.711292906091956" lon="11.322612832674483"><ele>236.0</ele><time>2026-04-04T16:10:23.999Z</time></trkpt><trkpt lat="45.71122322507392" lon="11.322568589313494"><ele>235.00000000000003</ele><time>2026-04-04T16:12:14.999Z</time></trkpt><trkpt lat="45.71116218431667" lon="11.322518695597005"><ele>234.0</ele><time>2026-04-04T16:14:13.999Z</time></trkpt><trkpt lat="45.711221354928206" lon="11.322445625110563"><ele>233.0</ele><time>2026-04-04T16:14:19.999Z</time></trkpt><trkpt lat="45.71117744618482" lon="11.32235208696041"><ele>232.0</ele><time>2026-04-04T16:14:28.999Z</time></trkpt><trkpt lat="45.711245336489775" lon="11.322425667938658"><ele>231.00000000000003</ele><time>2026-04-04T16:14:48.998Z</time></trkpt><trkpt lat="45.711226449351344" lon="11.322551923153968"><ele>230.0</ele><time>2026-04-04T16:14:49.998Z</time></trkpt><trkpt lat="45.7111501354149" lon="11.322562702902452"><ele>230.0</ele><time>2026-04-04T16:15:34.032Z</time></trkpt><trkpt lat="45.71128162396917" lon="11.322538477978423"><ele>230.0</ele><time>2026-04-04T16:17:06.407Z</time></trkpt><trkpt lat="45.71132230050665" lon="11.322932552957973"><ele>230.0</ele><time>2026-04-04T16:36:06.409Z</time></trkpt><trkpt lat="45.711314472778106" lon="11.322590951141267"><ele>230.0</ele><time>2026-04-04T16:36:26.412Z</time></trkpt><trkpt lat="45.71137436058783" lon="11.322488351122614"><ele>230.0</ele><time>2026-04-04T16:36:58.424Z</time></trkpt><trkpt lat="45.71143434888428" lon="11.322430530623608"><ele>230.0</ele><time>2026-04-04T16:37:01.011Z</time></trkpt><trkpt lat="45.711341241281616" lon="11.32249920582709"><ele>230.0</ele><time>2026-04-04T16:37:07.979Z</time></trkpt><trkpt lat="45.711273238845294" lon="11.322598979738961"><ele>230.0</ele><time>2026-04-04T16:38:06.999Z</time></trkpt><trkpt lat="45.711305263216694" lon="11.322717358756742"><ele>230.0</ele><time>2026-04-04T16:38:08.999Z</time></trkpt><trkpt lat="45.71133114921111" lon="11.322919783544396"><ele>230.0</ele><time>2026-04-04T16:38:10.999Z</time></trkpt><trkpt lat="45.711339883170695" lon="11.323110188074775"><ele>230.0</ele><time>2026-04-04T16:38:11.999Z</time></trkpt><trkpt lat="45.71132918917815" lon="11.323309274772063"><ele>230.0</ele><time>2026-04-04T16:38:12.999Z</time></trkpt><trkpt lat="45.7112687028725" lon="11.323461853927512"><ele>229.8</ele><time>2026-04-04T16:38:13.999Z</time></trkpt><trkpt lat="45.711252367743" lon="11.323582287845703"><ele>229.6</ele><time>2026-04-04T16:38:14.999Z</time></trkpt><trkpt lat="45.711257527672274" lon="11.323713551035006"><ele>229.39999999999998</ele><time>2026-04-04T16:38:15.999Z</time></trkpt><trkpt lat="45.71125686978253" lon="11.323838192625532"><ele>229.2</ele><time>2026-04-04T16:38:16.999Z</time></trkpt><trkpt lat="45.71128331418105" lon="11.32396170155422"><ele>229.0</ele><time>2026-04-04T16:38:17.999Z</time></trkpt><trkpt lat="45.711326352947424" lon="11.324083720335897"><ele>229.0</ele><time>2026-04-04T16:38:18.999Z</time></trkpt><trkpt lat="45.71136773572992" lon="11.324176125998164"><ele>228.99999999999997</ele><time>2026-04-04T16:38:19.999Z</time></trkpt><trkpt lat="45.711382209263164" lon="11.324271294008565"><ele>228.99999999999997</ele><time>2026-04-04T16:38:20.999Z</time></trkpt><trkpt lat="45.71143344278652" lon="11.324438918220073"><ele>229.0</ele><time>2026-04-04T16:38:22.999Z</time></trkpt><trkpt lat="45.711466212463904" lon="11.324621699113191"><ele>229.0</ele><time>2026-04-04T16:38:24.999Z</time></trkpt><trkpt lat="45.71151436106818" lon="11.324739234179566"><ele>228.85714285714283</ele><time>2026-04-04T16:38:25.999Z</time></trkpt><trkpt lat="45.71156460781353" lon="11.324833186974113"><ele>228.71428571428572</ele><time>2026-04-04T16:38:26.999Z</time></trkpt><trkpt lat="45.71161604976031" lon="11.324920391739642"><ele>228.57142857142856</ele><time>2026-04-04T16:38:27.999Z</time></trkpt><trkpt lat="45.71166507095983" lon="11.3249996730857"><ele>228.42857142857142</ele><time>2026-04-04T16:38:28.999Z</time></trkpt><trkpt lat="45.71170806985573" lon="11.325078316426316"><ele>228.28571428571428</ele><time>2026-04-04T16:38:29.999Z</time></trkpt><trkpt lat="45.711749639643976" lon="11.325155412679104"><ele>228.14285714285714</ele><time>2026-04-04T16:38:30.999Z</time></trkpt><trkpt lat="45.711787075820965" lon="11.32522877253557"><ele>228.0</ele><time>2026-04-04T16:38:31.999Z</time></trkpt><trkpt lat="45.711851868391165" lon="11.325368912475534"><ele>228.0</ele><time>2026-04-04T16:38:33.999Z</time></trkpt><trkpt lat="45.71190052798262" lon="11.325505424260022"><ele>228.0</ele><time>2026-04-04T16:38:35.998Z</time></trkpt><trkpt lat="45.71195774965491" lon="11.325645687847487"><ele>228.0</ele><time>2026-04-04T16:38:37.998Z</time></trkpt><trkpt lat="45.71200777648688" lon="11.325795159504953"><ele>228.0</ele><time>2026-04-04T16:38:39.998Z</time></trkpt><trkpt lat="45.71205631971945" lon="11.325924155039363"><ele>228.0</ele><time>2026-04-04T16:38:41.998Z</time></trkpt><trkpt lat="45.712100675808294" lon="11.326077338767856"><ele>227.2</ele><time>2026-04-04T16:38:43.998Z</time></trkpt><trkpt lat="45.71212503041266" lon="11.326180338833016"><ele>226.4</ele><time>2026-04-04T16:38:44.998Z</time></trkpt><trkpt lat="45.71214906254884" lon="11.326270768577919"><ele>225.59999999999997</ele><time>2026-04-04T16:38:45.998Z</time></trkpt><trkpt lat="45.71220062668201" lon="11.32642832525712"><ele>224.79999999999998</ele><time>2026-04-04T16:38:47.998Z</time></trkpt><trkpt lat="45.71224592316422" lon="11.326568984296669"><ele>224.0</ele><time>2026-04-04T16:38:49.998Z</time></trkpt><trkpt lat="45.712287372750644" lon="11.326697636788925"><ele>224.0</ele><time>2026-04-04T16:38:51.998Z</time></trkpt><trkpt lat="45.71232280213167" lon="11.326785919134528"><ele>224.0</ele><time>2026-04-04T16:38:52.998Z</time></trkpt><trkpt lat="45.71229594119731" lon="11.326941723019457"><ele>224.0</ele><time>2026-04-04T16:38:53.998Z</time></trkpt><trkpt lat="45.71229423426878" lon="11.327128004321882"><ele>224.0</ele><time>2026-04-04T16:38:54.998Z</time></trkpt><trkpt lat="45.71229830695142" lon="11.327374534332074"><ele>224.0</ele><time>2026-04-04T16:38:55.998Z</time></trkpt><trkpt lat="45.71229810179674" lon="11.327626992910274"><ele>224.0</ele><time>2026-04-04T16:38:56.998Z</time></trkpt><trkpt lat="45.71231526633155" lon="11.327879020279177"><ele>224.0</ele><time>2026-04-04T16:38:57.998Z</time></trkpt><trkpt lat="45.712341036106444" lon="11.328161359262035"><ele>223.66666666666669</ele><time>2026-04-04T16:38:58.998Z</time></trkpt><trkpt lat="45.7123892154652" lon="11.328437334277504"><ele>223.33333333333331</ele><time>2026-04-04T16:38:59.998Z</time></trkpt><trkpt lat="45.71245628024757" lon="11.328651479562751"><ele>223.0</ele><time>2026-04-04T16:39:00.998Z</time></trkpt><trkpt lat="45.71251530645938" lon="11.328823810081712"><ele>222.75</ele><time>2026-04-04T16:39:01.998Z</time></trkpt><trkpt lat="45.71253401898013" lon="11.328958959000895"><ele>222.5</ele><time>2026-04-04T16:39:02.998Z</time></trkpt><trkpt lat="45.712475710321954" lon="11.32906661513004"><ele>222.25</ele><time>2026-04-04T16:39:03.998Z</time></trkpt><trkpt lat="45.71241484128841" lon="11.329224045293412"><ele>222.0</ele><time>2026-04-04T16:39:04.998Z</time></trkpt><trkpt lat="45.71236187032404" lon="11.329425847431578"><ele>222.0</ele><time>2026-04-04T16:39:05.998Z</time></trkpt><trkpt lat="45.71228866472643" lon="11.329647215504918"><ele>222.0</ele><time>2026-04-04T16:39:06.998Z</time></trkpt><trkpt lat="45.71224030494849" lon="11.329826878634236"><ele>222.0</ele><time>2026-04-04T16:39:07.998Z</time></trkpt><trkpt lat="45.712216678609" lon="11.329952196791186"><ele>222.0</ele><time>2026-04-04T16:39:08.998Z</time></trkpt><trkpt lat="45.7121933028297" lon="11.330050663246382"><ele>221.75</ele><time>2026-04-04T16:39:09.998Z</time></trkpt><trkpt lat="45.71227066362322" lon="11.330231332149136"><ele>221.5</ele><time>2026-04-04T16:39:10.998Z</time></trkpt><trkpt lat="45.71230702635958" lon="11.330424987724248"><ele>221.25</ele><time>2026-04-04T16:39:11.998Z</time></trkpt><trkpt lat="45.71230664159585" lon="11.330646131683531"><ele>221.0</ele><time>2026-04-04T16:39:12.998Z</time></trkpt><trkpt lat="45.7122841984497" lon="11.330889148262182"><ele>220.33333333333334</ele><time>2026-04-04T16:39:13.998Z</time></trkpt><trkpt lat="45.712246435688044" lon="11.331162192071009"><ele>219.66666666666669</ele><time>2026-04-04T16:39:14.998Z</time></trkpt><trkpt lat="45.712216717700926" lon="11.331445653225863"><ele>219.0</ele><time>2026-04-04T16:39:15.998Z</time></trkpt><trkpt lat="45.71219415667464" lon="11.331733608384928"><ele>218.33333333333331</ele><time>2026-04-04T16:39:16.998Z</time></trkpt><trkpt lat="45.712166288734196" lon="11.332034924717046"><ele>217.66666666666666</ele><time>2026-04-04T16:39:17.998Z</time></trkpt><trkpt lat="45.71213387610754" lon="11.332337839945534"><ele>217.0</ele><time>2026-04-04T16:39:18.998Z</time></trkpt><trkpt lat="45.71210110768119" lon="11.332636152323575"><ele>216.33333333333331</ele><time>2026-04-04T16:39:19.999Z</time></trkpt><trkpt lat="45.71206778406585" lon="11.332930754319529"><ele>215.66666666666669</ele><time>2026-04-04T16:39:20.999Z</time></trkpt><trkpt lat="45.712032973583014" lon="11.33322681749255"><ele>215.0</ele><time>2026-04-04T16:39:21.999Z</time></trkpt><trkpt lat="45.711997820364076" lon="11.33351933020707"><ele>214.66666666666669</ele><time>2026-04-04T16:39:22.999Z</time></trkpt><trkpt lat="45.71196094283127" lon="11.3338082015318"><ele>214.33333333333331</ele><time>2026-04-04T16:39:23.999Z</time></trkpt><trkpt lat="45.71192917929889" lon="11.33409563032604"><ele>214.0</ele><time>2026-04-04T16:39:24.999Z</time></trkpt><trkpt lat="45.71190520680002" lon="11.334378612251255"><ele>214.0</ele><time>2026-04-04T16:39:25.999Z</time></trkpt><trkpt lat="45.71187923997867" lon="11.334651791142576"><ele>214.0</ele><time>2026-04-04T16:39:27Z</time></trkpt><trkpt lat="45.71183700911167" lon="11.334894374032439"><ele>214.0</ele><time>2026-04-04T16:39:27.999Z</time></trkpt><trkpt lat="45.71175493653904" lon="11.335126225899826"><ele>214.0</ele><time>2026-04-04T16:39:29Z</time></trkpt><trkpt lat="45.711645445570845" lon="11.335371128550637"><ele>214.0</ele><time>2026-04-04T16:39:30Z</time></trkpt><trkpt lat="45.711511617334445" lon="11.335618978195905"><ele>214.0</ele><time>2026-04-04T16:39:31Z</time></trkpt><trkpt lat="45.71138212923253" lon="11.335866998631944"><ele>213.0</ele><time>2026-04-04T16:39:32Z</time></trkpt><trkpt lat="45.71127095629199" lon="11.336164505677472"><ele>212.0</ele><time>2026-04-04T16:39:33Z</time></trkpt><trkpt lat="45.711176822577094" lon="11.336483170478147"><ele>211.5</ele><time>2026-04-04T16:39:34Z</time></trkpt><trkpt lat="45.711096086609764" lon="11.336859885930977"><ele>211.0</ele><time>2026-04-04T16:39:35Z</time></trkpt><trkpt lat="45.71102958888084" lon="11.337252495763783"><ele>215.0</ele><time>2026-04-04T16:39:35.999Z</time></trkpt><trkpt lat="45.710988320036364" lon="11.337639114190226"><ele>219.0</ele><time>2026-04-04T16:39:36.999Z</time></trkpt><trkpt lat="45.71095756211833" lon="11.337981149459175"><ele>219.33333333333331</ele><time>2026-04-04T16:39:37.999Z</time></trkpt><trkpt lat="45.71092535157282" lon="11.3382777428861"><ele>219.66666666666666</ele><time>2026-04-04T16:39:38.999Z</time></trkpt><trkpt lat="45.71084581092567" lon="11.338544496303026"><ele>220.0</ele><time>2026-04-04T16:39:39.999Z</time></trkpt><trkpt lat="45.710775516513245" lon="11.338833142352366"><ele>219.33333333333331</ele><time>2026-04-04T16:39:40.999Z</time></trkpt><trkpt lat="45.710694448216195" lon="11.339100930511337"><ele>218.66666666666669</ele><time>2026-04-04T16:39:41.999Z</time></trkpt><trkpt lat="45.710621250189305" lon="11.339333050127724"><ele>218.0</ele><time>2026-04-04T16:39:42.999Z</time></trkpt><trkpt lat="45.71052600356679" lon="11.339539349461557"><ele>217.0</ele><time>2026-04-04T16:39:43.999Z</time></trkpt><trkpt lat="45.71043111015208" lon="11.339774274651079"><ele>216.0</ele><time>2026-04-04T16:39:44.999Z</time></trkpt><trkpt lat="45.71031122758372" lon="11.340022347547896"><ele>215.0</ele><time>2026-04-04T16:39:45.999Z</time></trkpt><trkpt lat="45.71018992023428" lon="11.340277529753864"><ele>217.33333333333334</ele><time>2026-04-04T16:39:46.999Z</time></trkpt><trkpt lat="45.71007218739741" lon="11.340524559331373"><ele>219.66666666666669</ele><time>2026-04-04T16:39:47.999Z</time></trkpt><trkpt lat="45.70996282099952" lon="11.340750784464442"><ele>222.0</ele><time>2026-04-04T16:39:48.999Z</time></trkpt><trkpt lat="45.709854083651074" lon="11.340965780035688"><ele>222.0</ele><time>2026-04-04T16:39:49.999Z</time></trkpt><trkpt lat="45.70973943582231" lon="11.341205104696407"><ele>222.0</ele><time>2026-04-04T16:39:50.999Z</time></trkpt><trkpt lat="45.70961657382358" lon="11.341450276000705"><ele>222.0</ele><time>2026-04-04T16:39:51.999Z</time></trkpt><trkpt lat="45.70949697850549" lon="11.341691964559708"><ele>221.66666666666669</ele><time>2026-04-04T16:39:52.999Z</time></trkpt><trkpt lat="45.70937525450748" lon="11.341929079192681"><ele>221.33333333333334</ele><time>2026-04-04T16:39:53.999Z</time></trkpt><trkpt lat="45.709246510224446" lon="11.34218290831912"><ele>221.0</ele><time>2026-04-04T16:39:54.999Z</time></trkpt><trkpt lat="45.70911299622139" lon="11.342448193837718"><ele>220.0</ele><time>2026-04-04T16:39:55.999Z</time></trkpt><trkpt lat="45.70899884795628" lon="11.342681855754496"><ele>219.0</ele><time>2026-04-04T16:39:56.999Z</time></trkpt><trkpt lat="45.70889700003334" lon="11.342887786661452"><ele>218.0</ele><time>2026-04-04T16:39:57.999Z</time></trkpt><trkpt lat="45.70881284096752" lon="11.343044017767056"><ele>217.4</ele><time>2026-04-04T16:39:58.999Z</time></trkpt><trkpt lat="45.708737885232146" lon="11.343160569588777"><ele>216.8</ele><time>2026-04-04T16:39:59.999Z</time></trkpt><trkpt lat="45.70866650274269" lon="11.34325572288229"><ele>216.2</ele><time>2026-04-04T16:40:00.999Z</time></trkpt><trkpt lat="45.70862357757535" lon="11.34333131264074"><ele>215.6</ele><time>2026-04-04T16:40:01.999Z</time></trkpt><trkpt lat="45.708664579083916" lon="11.343488894166656"><ele>215.0</ele><time>2026-04-04T16:40:03.999Z</time></trkpt><trkpt lat="45.708746259745624" lon="11.343565174718327"><ele>215.0</ele><time>2026-04-04T16:40:04.999Z</time></trkpt><trkpt lat="45.70885231171639" lon="11.343663653769335"><ele>215.0</ele><time>2026-04-04T16:40:05.999Z</time></trkpt><trkpt lat="45.70897532509493" lon="11.34380695938086"><ele>215.0</ele><time>2026-04-04T16:40:06.999Z</time></trkpt><trkpt lat="45.70911159001906" lon="11.343967299452137"><ele>215.0</ele><time>2026-04-04T16:40:07.999Z</time></trkpt><trkpt lat="45.70920084084335" lon="11.344097645017552"><ele>215.0</ele><time>2026-04-04T16:40:08.999Z</time></trkpt><trkpt lat="45.709223181741145" lon="11.344239042362641"><ele>215.0</ele><time>2026-04-04T16:40:09.999Z</time></trkpt><trkpt lat="45.7092106337869" lon="11.344399312465512"><ele>215.0</ele><time>2026-04-04T16:40:10.999Z</time></trkpt><trkpt lat="45.70915921956529" lon="11.344602718911494"><ele>215.0</ele><time>2026-04-04T16:40:11.999Z</time></trkpt><trkpt lat="45.709077828652994" lon="11.344856059583227"><ele>215.0</ele><time>2026-04-04T16:40:12.999Z</time></trkpt><trkpt lat="45.70900962540224" lon="11.345163011553323"><ele>215.0</ele><time>2026-04-04T16:40:13.999Z</time></trkpt><trkpt lat="45.708969504689414" lon="11.345484858509012"><ele>215.5</ele><time>2026-04-04T16:40:14.999Z</time></trkpt><trkpt lat="45.70893622652306" lon="11.34574951458016"><ele>216.0</ele><time>2026-04-04T16:40:15.999Z</time></trkpt><trkpt lat="45.70890550706888" lon="11.345961594132694"><ele>216.5</ele><time>2026-04-04T16:40:16.999Z</time></trkpt><trkpt lat="45.70886435568095" lon="11.346104863022035"><ele>217.0</ele><time>2026-04-04T16:40:17.999Z</time></trkpt><trkpt lat="45.708790640399194" lon="11.346247424498438"><ele>217.0</ele><time>2026-04-04T16:40:18.999Z</time></trkpt><trkpt lat="45.70868583788342" lon="11.346397164500658"><ele>217.0</ele><time>2026-04-04T16:40:19.999Z</time></trkpt><trkpt lat="45.70857787648826" lon="11.346568093070932"><ele>217.0</ele><time>2026-04-04T16:40:20.999Z</time></trkpt><trkpt lat="45.70848833373425" lon="11.346728911107622"><ele>216.8</ele><time>2026-04-04T16:40:21.999Z</time></trkpt><trkpt lat="45.708408962404704" lon="11.346873435799242"><ele>216.6</ele><time>2026-04-04T16:40:22.999Z</time></trkpt><trkpt lat="45.70833319963964" lon="11.3469981149009"><ele>216.40000000000003</ele><time>2026-04-04T16:40:23.999Z</time></trkpt><trkpt lat="45.708261746189805" lon="11.347105524261485"><ele>216.20000000000002</ele><time>2026-04-04T16:40:24.999Z</time></trkpt><trkpt lat="45.70820601907885" lon="11.347183189824749"><ele>216.0</ele><time>2026-04-04T16:40:25.999Z</time></trkpt><trkpt lat="45.70816185496953" lon="11.347247928438977"><ele>215.8</ele><time>2026-04-04T16:40:26.999Z</time></trkpt><trkpt lat="45.70807479296727" lon="11.347382972839823"><ele>215.60000000000002</ele><time>2026-04-04T16:40:28.999Z</time></trkpt><trkpt lat="45.70801839664283" lon="11.347470561933319"><ele>215.4</ele><time>2026-04-04T16:40:29.999Z</time></trkpt><trkpt lat="45.707943339533955" lon="11.347557244743196"><ele>215.2</ele><time>2026-04-04T16:40:30.999Z</time></trkpt><trkpt lat="45.707867527707606" lon="11.347636154877375"><ele>215.0</ele><time>2026-04-04T16:40:31.999Z</time></trkpt><trkpt lat="45.70779991180773" lon="11.347709120209947"><ele>215.0</ele><time>2026-04-04T16:40:32.999Z</time></trkpt><trkpt lat="45.70774059274876" lon="11.347777202281794"><ele>215.0</ele><time>2026-04-04T16:40:33.999Z</time></trkpt><trkpt lat="45.707684581214565" lon="11.347844932899926"><ele>215.0</ele><time>2026-04-04T16:40:34.999Z</time></trkpt><trkpt lat="45.707631200240755" lon="11.347905888363142"><ele>215.0</ele><time>2026-04-04T16:40:35.999Z</time></trkpt><trkpt lat="45.70758357073635" lon="11.347970096489336"><ele>215.0</ele><time>2026-04-04T16:40:36.999Z</time></trkpt><trkpt lat="45.7075314879451" lon="11.3480322842778"><ele>215.0</ele><time>2026-04-04T16:40:37.999Z</time></trkpt><trkpt lat="45.70747144782708" lon="11.348106020571507"><ele>215.0</ele><time>2026-04-04T16:40:38.999Z</time></trkpt><trkpt lat="45.70740952305632" lon="11.348179780560407"><ele>214.8</ele><time>2026-04-04T16:40:39.999Z</time></trkpt><trkpt lat="45.7073360416503" lon="11.348266492220468"><ele>214.6</ele><time>2026-04-04T16:40:40.999Z</time></trkpt><trkpt lat="45.70726924099721" lon="11.348349218750089"><ele>214.39999999999998</ele><time>2026-04-04T16:40:41.999Z</time></trkpt><trkpt lat="45.707210349333735" lon="11.34842918230452"><ele>214.2</ele><time>2026-04-04T16:40:42.998Z</time></trkpt><trkpt lat="45.70715679107106" lon="11.348506167006416"><ele>214.0</ele><time>2026-04-04T16:40:43.998Z</time></trkpt><trkpt lat="45.70707435686214" lon="11.348627948325351"><ele>213.99999999999997</ele><time>2026-04-04T16:40:45.998Z</time></trkpt><trkpt lat="45.70703546674572" lon="11.348702492811107"><ele>214.0</ele><time>2026-04-04T16:40:46.998Z</time></trkpt><trkpt lat="45.70699104231807" lon="11.348781105966632"><ele>214.0</ele><time>2026-04-04T16:40:47.998Z</time></trkpt><trkpt lat="45.70694307231142" lon="11.348840736983759"><ele>214.0</ele><time>2026-04-04T16:40:48.998Z</time></trkpt><trkpt lat="45.70689696286878" lon="11.34891297006729"><ele>213.99999999999997</ele><time>2026-04-04T16:40:49.998Z</time></trkpt><trkpt lat="45.70685603320228" lon="11.348984014167371"><ele>214.0</ele><time>2026-04-04T16:40:50.998Z</time></trkpt><trkpt lat="45.706777117560875" lon="11.349126733031248"><ele>213.83333333333331</ele><time>2026-04-04T16:40:52.998Z</time></trkpt><trkpt lat="45.70673074673488" lon="11.349202982855571"><ele>213.66666666666666</ele><time>2026-04-04T16:40:53.998Z</time></trkpt><trkpt lat="45.7066874757463" lon="11.349272286839435"><ele>213.5</ele><time>2026-04-04T16:40:54.998Z</time></trkpt><trkpt lat="45.7066292301006" lon="11.34936776430856"><ele>213.33333333333331</ele><time>2026-04-04T16:40:56.998Z</time></trkpt><trkpt lat="45.706595824559095" lon="11.349451530343034"><ele>213.16666666666666</ele><time>2026-04-04T16:41:10.998Z</time></trkpt><trkpt lat="45.70664828313043" lon="11.349553025763717"><ele>213.0</ele><time>2026-04-04T16:41:12.998Z</time></trkpt><trkpt lat="45.70673024709027" lon="11.349671087663513"><ele>213.0</ele><time>2026-04-04T16:41:14.998Z</time></trkpt><trkpt lat="45.706789903276174" lon="11.349748362451358"><ele>213.0</ele><time>2026-04-04T16:41:15.998Z</time></trkpt><trkpt lat="45.70686576354872" lon="11.349840711967854"><ele>213.0</ele><time>2026-04-04T16:41:16.998Z</time></trkpt><trkpt lat="45.70694258414076" lon="11.34994326399845"><ele>213.0</ele><time>2026-04-04T16:41:17.998Z</time></trkpt><trkpt lat="45.70702949393886" lon="11.350065393176582"><ele>213.0</ele><time>2026-04-04T16:41:18.998Z</time></trkpt><trkpt lat="45.707115665376044" lon="11.350195518370573"><ele>212.8</ele><time>2026-04-04T16:41:19.998Z</time></trkpt><trkpt lat="45.70719220237042" lon="11.350315522698178"><ele>212.60000000000002</ele><time>2026-04-04T16:41:20.998Z</time></trkpt><trkpt lat="45.707255096842644" lon="11.350431274413376"><ele>212.39999999999998</ele><time>2026-04-04T16:41:21.998Z</time></trkpt><trkpt lat="45.70730846020375" lon="11.350544859281621"><ele>212.2</ele><time>2026-04-04T16:41:22.998Z</time></trkpt><trkpt lat="45.70735359116223" lon="11.350663168987191"><ele>212.0</ele><time>2026-04-04T16:41:23.998Z</time></trkpt><trkpt lat="45.70740781216704" lon="11.350785707737748"><ele>211.8</ele><time>2026-04-04T16:41:24.998Z</time></trkpt><trkpt lat="45.70745555911808" lon="11.350900867821272"><ele>211.6</ele><time>2026-04-04T16:41:26Z</time></trkpt><trkpt lat="45.707497378623835" lon="11.351015512568733"><ele>211.4</ele><time>2026-04-04T16:41:27Z</time></trkpt><trkpt lat="45.70754153966575" lon="11.35112621620438"><ele>211.20000000000002</ele><time>2026-04-04T16:41:28Z</time></trkpt><trkpt lat="45.70758375159215" lon="11.351240185060451"><ele>211.0</ele><time>2026-04-04T16:41:29Z</time></trkpt><trkpt lat="45.70762755041997" lon="11.351358716279355"><ele>210.99999999999997</ele><time>2026-04-04T16:41:30Z</time></trkpt><trkpt lat="45.7076703413506" lon="11.351492428040853"><ele>211.0</ele><time>2026-04-04T16:41:31Z</time></trkpt><trkpt lat="45.707709525087246" lon="11.351599814197797"><ele>211.0</ele><time>2026-04-04T16:41:32Z</time></trkpt><trkpt lat="45.707724739877186" lon="11.351710369530247"><ele>211.0</ele><time>2026-04-04T16:41:33Z</time></trkpt><trkpt lat="45.70773871219482" lon="11.35181570967925"><ele>210.99999999999997</ele><time>2026-04-04T16:41:34Z</time></trkpt><trkpt lat="45.70775317759069" lon="11.351930709581255"><ele>211.0</ele><time>2026-04-04T16:41:35Z</time></trkpt><trkpt lat="45.70776530003383" lon="11.352028384844868"><ele>211.0</ele><time>2026-04-04T16:41:36Z</time></trkpt><trkpt lat="45.70774478150821" lon="11.352137648082557"><ele>211.0</ele><time>2026-04-04T16:41:37Z</time></trkpt><trkpt lat="45.707714045235875" lon="11.35226013843394"><ele>211.0</ele><time>2026-04-04T16:41:38Z</time></trkpt><trkpt lat="45.7076626421316" lon="11.352378152701919"><ele>211.0</ele><time>2026-04-04T16:41:39Z</time></trkpt><trkpt lat="45.70761864263353" lon="11.352541410414812"><ele>211.0</ele><time>2026-04-04T16:41:40Z</time></trkpt><trkpt lat="45.707534979712335" lon="11.352645383176243"><ele>210.8</ele><time>2026-04-04T16:41:41Z</time></trkpt><trkpt lat="45.70746796758786" lon="11.352771200603918"><ele>210.60000000000002</ele><time>2026-04-04T16:41:42Z</time></trkpt><trkpt lat="45.707403831751996" lon="11.352908858508743"><ele>210.4</ele><time>2026-04-04T16:41:43Z</time></trkpt><trkpt lat="45.707331117776725" lon="11.353035398162802"><ele>210.2</ele><time>2026-04-04T16:41:44Z</time></trkpt><trkpt lat="45.70725805818311" lon="11.35314923213091"><ele>210.0</ele><time>2026-04-04T16:41:44.999Z</time></trkpt><trkpt lat="45.707196117642624" lon="11.353248421052948"><ele>210.0</ele><time>2026-04-04T16:41:45.999Z</time></trkpt><trkpt lat="45.70713533942571" lon="11.353340495386293"><ele>210.0</ele><time>2026-04-04T16:41:46.999Z</time></trkpt><trkpt lat="45.707088812992204" lon="11.353421486927118"><ele>210.0</ele><time>2026-04-04T16:41:47.999Z</time></trkpt><trkpt lat="45.70704496386275" lon="11.353527941368005"><ele>210.0</ele><time>2026-04-04T16:41:48.999Z</time></trkpt><trkpt lat="45.70698320964382" lon="11.353638690200055"><ele>210.0</ele><time>2026-04-04T16:41:49.999Z</time></trkpt><trkpt lat="45.706924681934396" lon="11.353751399268273"><ele>210.0</ele><time>2026-04-04T16:41:50.999Z</time></trkpt><trkpt lat="45.70687453043297" lon="11.353830374638003"><ele>209.6</ele><time>2026-04-04T16:41:51.999Z</time></trkpt><trkpt lat="45.70683025493635" lon="11.353905560608963"><ele>209.2</ele><time>2026-04-04T16:41:53.999Z</time></trkpt><trkpt lat="45.70679690426935" lon="11.354016161744408"><ele>208.8</ele><time>2026-04-04T16:41:56.999Z</time></trkpt><trkpt lat="45.70673034619592" lon="11.35415814924"><ele>208.4</ele><time>2026-04-04T16:41:58.999Z</time></trkpt><trkpt lat="45.70666518779005" lon="11.354233873421629"><ele>208.0</ele><time>2026-04-04T16:41:59.999Z</time></trkpt><trkpt lat="45.706608310154266" lon="11.354342963648993"><ele>208.0</ele><time>2026-04-04T16:42:00.999Z</time></trkpt><trkpt lat="45.70654080264293" lon="11.354472247178517"><ele>208.0</ele><time>2026-04-04T16:42:01.999Z</time></trkpt><trkpt lat="45.70646534468278" lon="11.35461371048114"><ele>208.0</ele><time>2026-04-04T16:42:02.999Z</time></trkpt><trkpt lat="45.70638670189039" lon="11.354761144484394"><ele>208.0</ele><time>2026-04-04T16:42:03.999Z</time></trkpt><trkpt lat="45.70629812540247" lon="11.354927201483015"><ele>207.33333333333331</ele><time>2026-04-04T16:42:04.999Z</time></trkpt><trkpt lat="45.70618679861834" lon="11.3551359091585"><ele>206.66666666666669</ele><time>2026-04-04T16:42:05.999Z</time></trkpt><trkpt lat="45.70606811891386" lon="11.355362926889496"><ele>206.0</ele><time>2026-04-04T16:42:06.999Z</time></trkpt><trkpt lat="45.70595745154497" lon="11.355574253801443"><ele>205.5</ele><time>2026-04-04T16:42:07.999Z</time></trkpt><trkpt lat="45.70586482300218" lon="11.355751359928789"><ele>205.0</ele><time>2026-04-04T16:42:08.999Z</time></trkpt><trkpt lat="45.70578774786246" lon="11.355898674201928"><ele>204.5</ele><time>2026-04-04T16:42:09.999Z</time></trkpt><trkpt lat="45.70572327421695" lon="11.356021258176808"><ele>204.0</ele><time>2026-04-04T16:42:10.999Z</time></trkpt><trkpt lat="45.705668921331004" lon="11.356124094110763"><ele>204.0</ele><time>2026-04-04T16:42:11.999Z</time></trkpt><trkpt lat="45.705612375114995" lon="11.356231079836164"><ele>204.0</ele><time>2026-04-04T16:42:12.999Z</time></trkpt><trkpt lat="45.70555263880451" lon="11.356344101233173"><ele>204.0</ele><time>2026-04-04T16:42:13.999Z</time></trkpt><trkpt lat="45.70548041231521" lon="11.356480470557427"><ele>204.0</ele><time>2026-04-04T16:42:14.999Z</time></trkpt><trkpt lat="45.705398845068764" lon="11.356634177941674"><ele>204.0</ele><time>2026-04-04T16:42:15.999Z</time></trkpt><trkpt lat="45.70530530721705" lon="11.356810443042747"><ele>204.0</ele><time>2026-04-04T16:42:16.999Z</time></trkpt><trkpt lat="45.705241609327636" lon="11.356945894719265"><ele>204.0</ele><time>2026-04-04T16:42:17.999Z</time></trkpt><trkpt lat="45.70519441998903" lon="11.357047928926278"><ele>204.0</ele><time>2026-04-04T16:42:18.999Z</time></trkpt><trkpt lat="45.70515470639808" lon="11.357127645957208"><ele>204.0</ele><time>2026-04-04T16:42:19.999Z</time></trkpt><trkpt lat="45.70510601381252" lon="11.35721139980082"><ele>204.0</ele><time>2026-04-04T16:42:20.999Z</time></trkpt><trkpt lat="45.7050587714002" lon="11.357313145140113"><ele>204.0</ele><time>2026-04-04T16:42:21.999Z</time></trkpt><trkpt lat="45.70498467250534" lon="11.357415667030516"><ele>203.66666666666669</ele><time>2026-04-04T16:42:22.999Z</time></trkpt><trkpt lat="45.70490576009937" lon="11.35756450860134"><ele>203.33333333333334</ele><time>2026-04-04T16:42:23.999Z</time></trkpt><trkpt lat="45.70482033607243" lon="11.357725850722677"><ele>203.0</ele><time>2026-04-04T16:42:24.999Z</time></trkpt><trkpt lat="45.70471299597105" lon="11.35792858620663"><ele>202.33333333333334</ele><time>2026-04-04T16:42:25.999Z</time></trkpt><trkpt lat="45.70460484256078" lon="11.358194207996386"><ele>201.66666666666669</ele><time>2026-04-04T16:42:26.999Z</time></trkpt><trkpt lat="45.70446260075411" lon="11.358441492177707"><ele>201.0</ele><time>2026-04-04T16:42:27.999Z</time></trkpt><trkpt lat="45.70430333408368" lon="11.358713072496313"><ele>200.66666666666669</ele><time>2026-04-04T16:42:28.999Z</time></trkpt><trkpt lat="45.70416024281984" lon="11.358978933072931"><ele>200.33333333333334</ele><time>2026-04-04T16:42:29.999Z</time></trkpt><trkpt lat="45.70403696792757" lon="11.359214117925548"><ele>200.0</ele><time>2026-04-04T16:42:30.999Z</time></trkpt><trkpt lat="45.70392074142997" lon="11.359432135149309"><ele>200.0</ele><time>2026-04-04T16:42:31.999Z</time></trkpt><trkpt lat="45.703797922649244" lon="11.359669660243313"><ele>200.0</ele><time>2026-04-04T16:42:32.999Z</time></trkpt><trkpt lat="45.70366359561761" lon="11.35992246920787"><ele>200.0</ele><time>2026-04-04T16:42:33.999Z</time></trkpt><trkpt lat="45.70352767094195" lon="11.360168648033547"><ele>199.66666666666669</ele><time>2026-04-04T16:42:34.999Z</time></trkpt><trkpt lat="45.703415430359954" lon="11.360389536477912"><ele>199.33333333333331</ele><time>2026-04-04T16:42:35.999Z</time></trkpt><trkpt lat="45.70331263794514" lon="11.360582717840483"><ele>199.0</ele><time>2026-04-04T16:42:36.999Z</time></trkpt><trkpt lat="45.703213417819214" lon="11.360762952521563"><ele>199.0</ele><time>2026-04-04T16:42:37.999Z</time></trkpt><trkpt lat="45.70311416969831" lon="11.36093499457442"><ele>199.0</ele><time>2026-04-04T16:42:38.999Z</time></trkpt><trkpt lat="45.70301426874203" lon="11.361081114798129"><ele>199.0</ele><time>2026-04-04T16:42:39.999Z</time></trkpt><trkpt lat="45.702901616734366" lon="11.36118013618745"><ele>199.0</ele><time>2026-04-04T16:42:40.999Z</time></trkpt><trkpt lat="45.70279594962998" lon="11.361287652057275"><ele>198.25</ele><time>2026-04-04T16:42:41.999Z</time></trkpt><trkpt lat="45.70267234593666" lon="11.361407387727686"><ele>197.5</ele><time>2026-04-04T16:42:42.999Z</time></trkpt><trkpt lat="45.70255363371756" lon="11.361518711982548"><ele>196.75</ele><time>2026-04-04T16:42:43.999Z</time></trkpt><trkpt lat="45.70243945638014" lon="11.361625322633818"><ele>196.0</ele><time>2026-04-04T16:42:44.999Z</time></trkpt><trkpt lat="45.70231325741898" lon="11.361743158237534"><ele>196.0</ele><time>2026-04-04T16:42:45.999Z</time></trkpt><trkpt lat="45.70216938937724" lon="11.361879598915918"><ele>196.0</ele><time>2026-04-04T16:42:46.999Z</time></trkpt><trkpt lat="45.70202663353484" lon="11.3620190256134"><ele>196.0</ele><time>2026-04-04T16:42:47.999Z</time></trkpt><trkpt lat="45.70187293001511" lon="11.362170932614058"><ele>195.66666666666666</ele><time>2026-04-04T16:42:48.999Z</time></trkpt><trkpt lat="45.701720208700685" lon="11.362318059476486"><ele>195.33333333333331</ele><time>2026-04-04T16:42:49.998Z</time></trkpt><trkpt lat="45.70156323354636" lon="11.362468944364547"><ele>195.0</ele><time>2026-04-04T16:42:50.998Z</time></trkpt><trkpt lat="45.701419383938806" lon="11.36260666460526"><ele>195.0</ele><time>2026-04-04T16:42:51.998Z</time></trkpt><trkpt lat="45.70128923676913" lon="11.362733426849005"><ele>195.0</ele><time>2026-04-04T16:42:52.998Z</time></trkpt><trkpt lat="45.70116888947932" lon="11.362855058241827"><ele>195.0</ele><time>2026-04-04T16:42:53.998Z</time></trkpt><trkpt lat="45.701040373194296" lon="11.362986300088751"><ele>194.66666666666669</ele><time>2026-04-04T16:42:54.998Z</time></trkpt><trkpt lat="45.70089700869582" lon="11.363133730884353"><ele>194.33333333333334</ele><time>2026-04-04T16:42:55.998Z</time></trkpt><trkpt lat="45.700741045032004" lon="11.363292275492567"><ele>194.0</ele><time>2026-04-04T16:42:56.998Z</time></trkpt><trkpt lat="45.70054615339132" lon="11.363432132502364"><ele>194.0</ele><time>2026-04-04T16:42:57.998Z</time></trkpt><trkpt lat="45.700362544383935" lon="11.363635347428781"><ele>194.0</ele><time>2026-04-04T16:42:58.998Z</time></trkpt><trkpt lat="45.70015419395356" lon="11.363821925217609"><ele>192.0</ele><time>2026-04-04T16:42:59.998Z</time></trkpt><trkpt lat="45.69995293020036" lon="11.36401038719243"><ele>190.0</ele><time>2026-04-04T16:43:00.998Z</time></trkpt><trkpt lat="45.699753404884696" lon="11.364197598239183"><ele>190.0</ele><time>2026-04-04T16:43:01.998Z</time></trkpt><trkpt lat="45.699553525163694" lon="11.364387112766138"><ele>190.0</ele><time>2026-04-04T16:43:02.998Z</time></trkpt><trkpt lat="45.69935281961784" lon="11.364578046340108"><ele>189.5</ele><time>2026-04-04T16:43:03.998Z</time></trkpt><trkpt lat="45.69915515111537" lon="11.364769048566266"><ele>189.0</ele><time>2026-04-04T16:43:04.998Z</time></trkpt><trkpt lat="45.69895211264802" lon="11.3649640965948"><ele>189.0</ele><time>2026-04-04T16:43:05.998Z</time></trkpt><trkpt lat="45.69875075914406" lon="11.365157678953516"><ele>189.0</ele><time>2026-04-04T16:43:06.998Z</time></trkpt><trkpt lat="45.69854445710305" lon="11.365354873849471"><ele>188.5</ele><time>2026-04-04T16:43:07.998Z</time></trkpt><trkpt lat="45.69833655754885" lon="11.365552222543176"><ele>188.0</ele><time>2026-04-04T16:43:08.998Z</time></trkpt><trkpt lat="45.69813014176243" lon="11.365748225936168"><ele>188.0</ele><time>2026-04-04T16:43:09.998Z</time></trkpt><trkpt lat="45.69792063928596" lon="11.365946622691027"><ele>188.0</ele><time>2026-04-04T16:43:10.998Z</time></trkpt><trkpt lat="45.697711150264325" lon="11.366141713594265"><ele>187.5</ele><time>2026-04-04T16:43:11.998Z</time></trkpt><trkpt lat="45.69750421484299" lon="11.36634213706058"><ele>187.0</ele><time>2026-04-04T16:43:12.998Z</time></trkpt><trkpt lat="45.697298684027395" lon="11.366542532856192"><ele>187.0</ele><time>2026-04-04T16:43:13.998Z</time></trkpt><trkpt lat="45.69709254589269" lon="11.366740998294752"><ele>187.0</ele><time>2026-04-04T16:43:14.998Z</time></trkpt><trkpt lat="45.69688677946109" lon="11.366943833761365"><ele>186.5</ele><time>2026-04-04T16:43:15.998Z</time></trkpt><trkpt lat="45.696679042111505" lon="11.36714666777475"><ele>186.0</ele><time>2026-04-04T16:43:16.998Z</time></trkpt><trkpt lat="45.69647047023312" lon="11.367350034893898"><ele>186.0</ele><time>2026-04-04T16:43:17.998Z</time></trkpt><trkpt lat="45.69626644238526" lon="11.367544906490073"><ele>186.0</ele><time>2026-04-04T16:43:18.998Z</time></trkpt><trkpt lat="45.696079603369164" lon="11.367723216778412"><ele>185.66666666666666</ele><time>2026-04-04T16:43:19.998Z</time></trkpt><trkpt lat="45.695908157191944" lon="11.367886555555252"><ele>185.33333333333331</ele><time>2026-04-04T16:43:20.998Z</time></trkpt><trkpt lat="45.69574569670389" lon="11.368043287272524"><ele>185.0</ele><time>2026-04-04T16:43:21.998Z</time></trkpt><trkpt lat="45.69558126636729" lon="11.368200680989764"><ele>184.66666666666666</ele><time>2026-04-04T16:43:22.998Z</time></trkpt><trkpt lat="45.6954083720671" lon="11.36836721395275"><ele>184.33333333333334</ele><time>2026-04-04T16:43:23.998Z</time></trkpt><trkpt lat="45.69522892819396" lon="11.368535241700263"><ele>184.0</ele><time>2026-04-04T16:43:24.998Z</time></trkpt><trkpt lat="45.69504487204502" lon="11.368715182231078"><ele>184.0</ele><time>2026-04-04T16:43:25.998Z</time></trkpt><trkpt lat="45.69485071300755" lon="11.36890050193944"><ele>184.0</ele><time>2026-04-04T16:43:26.998Z</time></trkpt><trkpt lat="45.69466717383722" lon="11.369068562581534"><ele>184.0</ele><time>2026-04-04T16:43:27.998Z</time></trkpt><trkpt lat="45.69450753331784" lon="11.369217971464144"><ele>184.0</ele><time>2026-04-04T16:43:28.998Z</time></trkpt><trkpt lat="45.69437405440808" lon="11.36934617686704"><ele>184.0</ele><time>2026-04-04T16:43:29.998Z</time></trkpt><trkpt lat="45.69425911663873" lon="11.369451797697382"><ele>183.75</ele><time>2026-04-04T16:43:30.998Z</time></trkpt><trkpt lat="45.69416329979115" lon="11.369542358596775"><ele>183.5</ele><time>2026-04-04T16:43:32Z</time></trkpt><trkpt lat="45.694061697670676" lon="11.369637399497696"><ele>183.25</ele><time>2026-04-04T16:43:33Z</time></trkpt><trkpt lat="45.69393409944727" lon="11.369757274501385"><ele>183.0</ele><time>2026-04-04T16:43:34Z</time></trkpt><trkpt lat="45.69378759719294" lon="11.369888068524237"><ele>182.75</ele><time>2026-04-04T16:43:35Z</time></trkpt><trkpt lat="45.6936370870738" lon="11.370029425866967"><ele>182.5</ele><time>2026-04-04T16:43:36Z</time></trkpt><trkpt lat="45.69352115318321" lon="11.370139787188592"><ele>182.25</ele><time>2026-04-04T16:43:37Z</time></trkpt><trkpt lat="45.69344654039045" lon="11.370208514489887"><ele>182.0</ele><time>2026-04-04T16:43:38Z</time></trkpt><trkpt lat="45.69334681784983" lon="11.37016537086026"><ele>181.75</ele><time>2026-04-04T16:43:40Z</time></trkpt><trkpt lat="45.693295255244784" lon="11.37004223932195"><ele>181.5</ele><time>2026-04-04T16:43:41Z</time></trkpt><trkpt lat="45.693219963365166" lon="11.369860716439293"><ele>181.25</ele><time>2026-04-04T16:43:42Z</time></trkpt><trkpt lat="45.693121151366775" lon="11.36963740749825"><ele>181.0</ele><time>2026-04-04T16:43:43Z</time></trkpt><trkpt lat="45.69300230237875" lon="11.36940569830078"><ele>181.0</ele><time>2026-04-04T16:43:44Z</time></trkpt><trkpt lat="45.69287746044957" lon="11.369162239482792"><ele>181.0</ele><time>2026-04-04T16:43:45Z</time></trkpt><trkpt lat="45.69276779034826" lon="11.368945955425158"><ele>181.0</ele><time>2026-04-04T16:43:46Z</time></trkpt><trkpt lat="45.692657707273824" lon="11.36872634844977"><ele>179.33333333333334</ele><time>2026-04-04T16:43:47Z</time></trkpt><trkpt lat="45.692532915157344" lon="11.368484451040988"><ele>177.66666666666666</ele><time>2026-04-04T16:43:48Z</time></trkpt><trkpt lat="45.69241347695961" lon="11.368226940669302"><ele>176.0</ele><time>2026-04-04T16:43:49Z</time></trkpt><trkpt lat="45.692257264022096" lon="11.367909521954598"><ele>175.5</ele><time>2026-04-04T16:43:50Z</time></trkpt><trkpt lat="45.692090135686094" lon="11.367572652074983"><ele>175.0</ele><time>2026-04-04T16:43:51Z</time></trkpt><trkpt lat="45.69193561189609" lon="11.367257146403576"><ele>176.0</ele><time>2026-04-04T16:43:51.999Z</time></trkpt><trkpt lat="45.691812709987154" lon="11.366989075961826"><ele>177.0</ele><time>2026-04-04T16:43:52.999Z</time></trkpt><trkpt lat="45.69171961039872" lon="11.366784183977098"><ele>178.0</ele><time>2026-04-04T16:43:53.999Z</time></trkpt><trkpt lat="45.69161600403289" lon="11.366603292948"><ele>178.0</ele><time>2026-04-04T16:43:54.999Z</time></trkpt><trkpt lat="45.691467120232616" lon="11.36643185870221"><ele>178.0</ele><time>2026-04-04T16:43:55.999Z</time></trkpt><trkpt lat="45.69127600257818" lon="11.366245847094794"><ele>178.0</ele><time>2026-04-04T16:43:56.999Z</time></trkpt><trkpt lat="45.69108302320116" lon="11.366036070015321"><ele>178.66666666666669</ele><time>2026-04-04T16:43:57.999Z</time></trkpt><trkpt lat="45.69092572912111" lon="11.365857411718324"><ele>179.33333333333334</ele><time>2026-04-04T16:43:58.999Z</time></trkpt><trkpt lat="45.69078125733639" lon="11.36575621228167"><ele>180.0</ele><time>2026-04-04T16:43:59.999Z</time></trkpt><trkpt lat="45.69061160752166" lon="11.365707814462045"><ele>180.0</ele><time>2026-04-04T16:44:00.999Z</time></trkpt><trkpt lat="45.69040408597054" lon="11.36569679147613"><ele>180.0</ele><time>2026-04-04T16:44:01.999Z</time></trkpt><trkpt lat="45.69015890376722" lon="11.36569502111755"><ele>177.0</ele><time>2026-04-04T16:44:02.999Z</time></trkpt><trkpt lat="45.68989289969958" lon="11.365674667397052"><ele>174.0</ele><time>2026-04-04T16:44:03.999Z</time></trkpt><trkpt lat="45.68960869694684" lon="11.365636114769465"><ele>174.0</ele><time>2026-04-04T16:44:04.999Z</time></trkpt><trkpt lat="45.689313810152974" lon="11.365596735786209"><ele>174.0</ele><time>2026-04-04T16:44:05.999Z</time></trkpt><trkpt lat="45.68900892036152" lon="11.365558481618885"><ele>175.0</ele><time>2026-04-04T16:44:06.999Z</time></trkpt><trkpt lat="45.6886936062329" lon="11.36552011678801"><ele>176.0</ele><time>2026-04-04T16:44:07.999Z</time></trkpt><trkpt lat="45.68836816569191" lon="11.365465024464038"><ele>176.0</ele><time>2026-04-04T16:44:08.999Z</time></trkpt><trkpt lat="45.68804051680764" lon="11.365384563856704"><ele>176.0</ele><time>2026-04-04T16:44:09.999Z</time></trkpt><trkpt lat="45.68770851507356" lon="11.36530103177071"><ele>177.0</ele><time>2026-04-04T16:44:10.999Z</time></trkpt><trkpt lat="45.687374823638095" lon="11.365214703526755"><ele>178.0</ele><time>2026-04-04T16:44:11.999Z</time></trkpt><trkpt lat="45.68706261107257" lon="11.365130918706932"><ele>179.0</ele><time>2026-04-04T16:44:12.999Z</time></trkpt><trkpt lat="45.68679086099961" lon="11.365038982739236"><ele>180.0</ele><time>2026-04-04T16:44:13.999Z</time></trkpt><trkpt lat="45.68652943037052" lon="11.36491318155523"><ele>180.0</ele><time>2026-04-04T16:44:14.999Z</time></trkpt><trkpt lat="45.68626951713569" lon="11.364757040674066"><ele>180.0</ele><time>2026-04-04T16:44:15.999Z</time></trkpt><trkpt lat="45.6860248278781" lon="11.36457258550398"><ele>180.5</ele><time>2026-04-04T16:44:16.999Z</time></trkpt><trkpt lat="45.68579741130009" lon="11.364355670813884"><ele>181.0</ele><time>2026-04-04T16:44:17.999Z</time></trkpt><trkpt lat="45.68557262867756" lon="11.364103490710582"><ele>181.5</ele><time>2026-04-04T16:44:18.999Z</time></trkpt><trkpt lat="45.68535786386591" lon="11.363847095480079"><ele>182.0</ele><time>2026-04-04T16:44:19.999Z</time></trkpt><trkpt lat="45.68516133404863" lon="11.363635398170839"><ele>182.0</ele><time>2026-04-04T16:44:20.999Z</time></trkpt><trkpt lat="45.68497976475753" lon="11.363454471401546"><ele>182.0</ele><time>2026-04-04T16:44:21.999Z</time></trkpt><trkpt lat="45.68481603070282" lon="11.363290709296944"><ele>182.0</ele><time>2026-04-04T16:44:22.999Z</time></trkpt><trkpt lat="45.68468872479384" lon="11.363148620296057"><ele>182.0</ele><time>2026-04-04T16:44:23.999Z</time></trkpt><trkpt lat="45.68459936507986" lon="11.363010250279867"><ele>182.0</ele><time>2026-04-04T16:44:24.999Z</time></trkpt><trkpt lat="45.68454259896469" lon="11.362831056069297"><ele>182.0</ele><time>2026-04-04T16:44:25.999Z</time></trkpt><trkpt lat="45.68450232795296" lon="11.362632866181983"><ele>182.0</ele><time>2026-04-04T16:44:26.999Z</time></trkpt><trkpt lat="45.68441811591523" lon="11.362453674532366"><ele>184.66666666666666</ele><time>2026-04-04T16:44:27.999Z</time></trkpt><trkpt lat="45.68429092033439" lon="11.362301334018099"><ele>187.33333333333334</ele><time>2026-04-04T16:44:28.999Z</time></trkpt><trkpt lat="45.684111340486204" lon="11.362184692418259"><ele>190.0</ele><time>2026-04-04T16:44:29.999Z</time></trkpt><trkpt lat="45.683907086143996" lon="11.36205648137039"><ele>192.5</ele><time>2026-04-04T16:44:30.999Z</time></trkpt><trkpt lat="45.68369027688539" lon="11.361880648929818"><ele>195.0</ele><time>2026-04-04T16:44:31.999Z</time></trkpt><trkpt lat="45.68348642101902" lon="11.361645094491806"><ele>199.5</ele><time>2026-04-04T16:44:32.999Z</time></trkpt><trkpt lat="45.68332460838078" lon="11.361363552139771"><ele>204.0</ele><time>2026-04-04T16:44:33.999Z</time></trkpt><trkpt lat="45.68323798397962" lon="11.361078779847894"><ele>204.0</ele><time>2026-04-04T16:44:34.999Z</time></trkpt><trkpt lat="45.68319915946127" lon="11.3607837468812"><ele>204.0</ele><time>2026-04-04T16:44:35.999Z</time></trkpt><trkpt lat="45.68322415259372" lon="11.360515238605876"><ele>204.0</ele><time>2026-04-04T16:44:36.999Z</time></trkpt><trkpt lat="45.683266378378136" lon="11.360290274861345"><ele>206.33333333333331</ele><time>2026-04-04T16:44:37.999Z</time></trkpt><trkpt lat="45.683304539242236" lon="11.360057750970855"><ele>208.66666666666666</ele><time>2026-04-04T16:44:38.999Z</time></trkpt><trkpt lat="45.68335715524053" lon="11.35975818177968"><ele>211.0</ele><time>2026-04-04T16:44:39.999Z</time></trkpt><trkpt lat="45.68336127933561" lon="11.359410381771804"><ele>214.5</ele><time>2026-04-04T16:44:40.999Z</time></trkpt><trkpt lat="45.68338135721594" lon="11.359043104458394"><ele>218.0</ele><time>2026-04-04T16:44:41.999Z</time></trkpt><trkpt lat="45.68340254530244" lon="11.358724416271938"><ele>221.33333333333334</ele><time>2026-04-04T16:44:42.999Z</time></trkpt><trkpt lat="45.68344063128916" lon="11.358484861077528"><ele>224.66666666666669</ele><time>2026-04-04T16:44:43.999Z</time></trkpt><trkpt lat="45.68344082514536" lon="11.35828399262855"><ele>228.0</ele><time>2026-04-04T16:44:44.999Z</time></trkpt><trkpt lat="45.68338975789573" lon="11.358072798793879"><ele>228.75</ele><time>2026-04-04T16:44:45.999Z</time></trkpt><trkpt lat="45.683291527585055" lon="11.357879858577615"><ele>229.5</ele><time>2026-04-04T16:44:46.999Z</time></trkpt><trkpt lat="45.68319720230217" lon="11.35770917910417"><ele>230.25</ele><time>2026-04-04T16:44:47.999Z</time></trkpt><trkpt lat="45.68315686162661" lon="11.357543192988274"><ele>231.0</ele><time>2026-04-04T16:44:48.999Z</time></trkpt><trkpt lat="45.683115228634" lon="11.35736022791326"><ele>231.66666666666669</ele><time>2026-04-04T16:44:49.999Z</time></trkpt><trkpt lat="45.68306984459687" lon="11.357109599556024"><ele>232.33333333333334</ele><time>2026-04-04T16:44:50.999Z</time></trkpt><trkpt lat="45.683006149193446" lon="11.356806634109226"><ele>233.0</ele><time>2026-04-04T16:44:51.999Z</time></trkpt><trkpt lat="45.68296886339596" lon="11.356478024786627"><ele>234.0</ele><time>2026-04-04T16:44:52.999Z</time></trkpt><trkpt lat="45.682925597434924" lon="11.356163346563154"><ele>235.0</ele><time>2026-04-04T16:44:53.999Z</time></trkpt><trkpt lat="45.68289659979872" lon="11.355905716706227"><ele>236.0</ele><time>2026-04-04T16:44:54.999Z</time></trkpt><trkpt lat="45.68287611273408" lon="11.355730775472846"><ele>236.0</ele><time>2026-04-04T16:44:55.999Z</time></trkpt><trkpt lat="45.6828395830152" lon="11.3556109813547"><ele>236.0</ele><time>2026-04-04T16:44:56.999Z</time></trkpt><trkpt lat="45.682756930686" lon="11.355528087394957"><ele>236.0</ele><time>2026-04-04T16:44:57.998Z</time></trkpt><trkpt lat="45.682629184182034" lon="11.355473780727534"><ele>236.0</ele><time>2026-04-04T16:44:58.998Z</time></trkpt><trkpt lat="45.68246659257793" lon="11.355427794587136"><ele>242.0</ele><time>2026-04-04T16:44:59.998Z</time></trkpt><trkpt lat="45.682272605533285" lon="11.35535635845834"><ele>248.0</ele><time>2026-04-04T16:45:00.998Z</time></trkpt><trkpt lat="45.68213514446454" lon="11.355204018832616"><ele>254.0</ele><time>2026-04-04T16:45:01.998Z</time></trkpt><trkpt lat="45.68200655750335" lon="11.35501756135285"><ele>250.66666666666669</ele><time>2026-04-04T16:45:02.998Z</time></trkpt><trkpt lat="45.68188642322591" lon="11.354759836355896"><ele>247.33333333333331</ele><time>2026-04-04T16:45:03.998Z</time></trkpt><trkpt lat="45.68179882008357" lon="11.354504976013644"><ele>244.0</ele><time>2026-04-04T16:45:04.998Z</time></trkpt><trkpt lat="45.68177316081663" lon="11.354303530317468"><ele>244.0</ele><time>2026-04-04T16:45:05.998Z</time></trkpt><trkpt lat="45.68180231697609" lon="11.354132237657483"><ele>244.0</ele><time>2026-04-04T16:45:06.998Z</time></trkpt><trkpt lat="45.681875251602044" lon="11.353911397919223"><ele>244.0</ele><time>2026-04-04T16:45:07.998Z</time></trkpt><trkpt lat="45.68197197869216" lon="11.353647619230319"><ele>253.5</ele><time>2026-04-04T16:45:08.998Z</time></trkpt><trkpt lat="45.68207489143735" lon="11.353347729267963"><ele>263.0</ele><time>2026-04-04T16:45:09.998Z</time></trkpt><trkpt lat="45.68218636242483" lon="11.353039125500286"><ele>263.5</ele><time>2026-04-04T16:45:10.998Z</time></trkpt><trkpt lat="45.68228545142178" lon="11.35271507329046"><ele>264.0</ele><time>2026-04-04T16:45:11.998Z</time></trkpt><trkpt lat="45.6823769652595" lon="11.352378408666977"><ele>265.5</ele><time>2026-04-04T16:45:12.998Z</time></trkpt><trkpt lat="45.68246955191118" lon="11.352021051463248"><ele>267.0</ele><time>2026-04-04T16:45:13.998Z</time></trkpt><trkpt lat="45.682555298568" lon="11.351640916694619"><ele>272.0</ele><time>2026-04-04T16:45:14.998Z</time></trkpt><trkpt lat="45.68263080928932" lon="11.351246169555067"><ele>277.0</ele><time>2026-04-04T16:45:15.998Z</time></trkpt><trkpt lat="45.68270390302378" lon="11.350843802082474"><ele>272.0</ele><time>2026-04-04T16:45:16.998Z</time></trkpt><trkpt lat="45.6827722841441" lon="11.350495423880574"><ele>267.0</ele><time>2026-04-04T16:45:17.998Z</time></trkpt><trkpt lat="45.68282544143364" lon="11.35023362747456"><ele>262.0</ele><time>2026-04-04T16:45:18.998Z</time></trkpt><trkpt lat="45.682850853407956" lon="11.350063023826959"><ele>262.0</ele><time>2026-04-04T16:45:19.998Z</time></trkpt><trkpt lat="45.68284913562897" lon="11.349927009143839"><ele>262.0</ele><time>2026-04-04T16:45:20.998Z</time></trkpt><trkpt lat="45.682804732970936" lon="11.349809430525495"><ele>262.0</ele><time>2026-04-04T16:45:21.998Z</time></trkpt><trkpt lat="45.68273296242202" lon="11.34971920886473"><ele>262.0</ele><time>2026-04-04T16:45:22.998Z</time></trkpt><trkpt lat="45.68259275807162" lon="11.349707975265362"><ele>262.0</ele><time>2026-04-04T16:45:23.998Z</time></trkpt><trkpt lat="45.68243536972359" lon="11.349701070074902"><ele>270.75</ele><time>2026-04-04T16:45:24.998Z</time></trkpt><trkpt lat="45.682327001582614" lon="11.349657757618992"><ele>279.5</ele><time>2026-04-04T16:45:25.998Z</time></trkpt><trkpt lat="45.68229752928761" lon="11.349535864126794"><ele>288.25</ele><time>2026-04-04T16:45:26.998Z</time></trkpt><trkpt lat="45.682308082142654" lon="11.349344184222993"><ele>297.0</ele><time>2026-04-04T16:45:27.998Z</time></trkpt><trkpt lat="45.68233548205669" lon="11.349127604249615"><ele>300.0</ele><time>2026-04-04T16:45:28.998Z</time></trkpt><trkpt lat="45.682376606574536" lon="11.348862953188597"><ele>303.0</ele><time>2026-04-04T16:45:29.998Z</time></trkpt><trkpt lat="45.68241267726697" lon="11.348579089585897"><ele>306.0</ele><time>2026-04-04T16:45:30.998Z</time></trkpt><trkpt lat="45.68243447753087" lon="11.348301205880642"><ele>310.0</ele><time>2026-04-04T16:45:31.998Z</time></trkpt><trkpt lat="45.682372328958266" lon="11.348006595755932"><ele>314.0</ele><time>2026-04-04T16:45:32.998Z</time></trkpt><trkpt lat="45.68229273098606" lon="11.347653946932821"><ele>314.0</ele><time>2026-04-04T16:45:33.998Z</time></trkpt><trkpt lat="45.68218934341685" lon="11.347316641408458"><ele>314.0</ele><time>2026-04-04T16:45:34.998Z</time></trkpt><trkpt lat="45.68208842158534" lon="11.346965508266234"><ele>314.0</ele><time>2026-04-04T16:45:35.998Z</time></trkpt><trkpt lat="45.68199008140171" lon="11.346621751391526"><ele>314.0</ele><time>2026-04-04T16:45:37Z</time></trkpt><trkpt lat="45.681882846732144" lon="11.346334738142382"><ele>324.5</ele><time>2026-04-04T16:45:38Z</time></trkpt><trkpt lat="45.681734100839535" lon="11.346056768596299"><ele>335.0</ele><time>2026-04-04T16:45:39Z</time></trkpt><trkpt lat="45.6815514756919" lon="11.345785278465389"><ele>336.0</ele><time>2026-04-04T16:45:40Z</time></trkpt><trkpt lat="45.68135873118013" lon="11.345494106422805"><ele>337.0</ele><time>2026-04-04T16:45:41Z</time></trkpt><trkpt lat="45.681187258339364" lon="11.34521049905966"><ele>340.66666666666663</ele><time>2026-04-04T16:45:42Z</time></trkpt><trkpt lat="45.68105205852233" lon="11.344971480672752"><ele>344.3333333333333</ele><time>2026-04-04T16:45:43Z</time></trkpt><trkpt lat="45.680941847513914" lon="11.344818068592815"><ele>348.0</ele><time>2026-04-04T16:45:44Z</time></trkpt><trkpt lat="45.68082274916262" lon="11.344744310090823"><ele>348.0</ele><time>2026-04-04T16:45:45Z</time></trkpt><trkpt lat="45.680688566133014" lon="11.344746350664812"><ele>348.0</ele><time>2026-04-04T16:45:46Z</time></trkpt><trkpt lat="45.68058248915179" lon="11.344827485955836"><ele>348.0</ele><time>2026-04-04T16:45:47Z</time></trkpt><trkpt lat="45.68051085441901" lon="11.344970359805105"><ele>348.0</ele><time>2026-04-04T16:45:48Z</time></trkpt><trkpt lat="45.68045317415607" lon="11.345166628207515"><ele>348.0</ele><time>2026-04-04T16:45:49Z</time></trkpt><trkpt lat="45.68044262578788" lon="11.345300385459346"><ele>348.0</ele><time>2026-04-04T16:45:50Z</time></trkpt><trkpt lat="45.680335961976176" lon="11.345284596858287"><ele>348.0</ele><time>2026-04-04T16:45:52Z</time></trkpt><trkpt lat="45.6803086131271" lon="11.345156935985894"><ele>348.0</ele><time>2026-04-04T16:45:53Z</time></trkpt><trkpt lat="45.68035687015974" lon="11.345015207079307"><ele>348.0</ele><time>2026-04-04T16:45:54Z</time></trkpt><trkpt lat="45.68039816769416" lon="11.34480154938531"><ele>350.6666666666667</ele><time>2026-04-04T16:45:55Z</time></trkpt><trkpt lat="45.68043128690741" lon="11.344557163653969"><ele>353.33333333333337</ele><time>2026-04-04T16:45:56Z</time></trkpt><trkpt lat="45.680378523031926" lon="11.344342254571261"><ele>356.0</ele><time>2026-04-04T16:45:57Z</time></trkpt><trkpt lat="45.68033389568266" lon="11.344115333733843"><ele>356.0</ele><time>2026-04-04T16:45:58Z</time></trkpt><trkpt lat="45.680332408746935" lon="11.343964228385905"><ele>356.0</ele><time>2026-04-04T16:45:58.999Z</time></trkpt><trkpt lat="45.68041405757593" lon="11.343835023350772"><ele>356.0</ele><time>2026-04-04T16:45:59.999Z</time></trkpt><trkpt lat="45.680537681417604" lon="11.34365948853301"><ele>356.0</ele><time>2026-04-04T16:46:00.999Z</time></trkpt><trkpt lat="45.680680116352136" lon="11.343480330893078"><ele>359.5</ele><time>2026-04-04T16:46:01.999Z</time></trkpt><trkpt lat="45.68079217315618" lon="11.343243081189032"><ele>363.0</ele><time>2026-04-04T16:46:02.999Z</time></trkpt><trkpt lat="45.680926985409" lon="11.342926445248178"><ele>364.5</ele><time>2026-04-04T16:46:03.999Z</time></trkpt><trkpt lat="45.681052683284285" lon="11.342594283977641"><ele>366.0</ele><time>2026-04-04T16:46:04.999Z</time></trkpt><trkpt lat="45.681191909675356" lon="11.34227667966403"><ele>366.0</ele><time>2026-04-04T16:46:05.999Z</time></trkpt><trkpt lat="45.681335120258545" lon="11.341958810936525"><ele>366.0</ele><time>2026-04-04T16:46:06.999Z</time></trkpt><trkpt lat="45.681485467312314" lon="11.341647081208935"><ele>373.0</ele><time>2026-04-04T16:46:07.999Z</time></trkpt><trkpt lat="45.68166287468996" lon="11.341359451103944"><ele>380.0</ele><time>2026-04-04T16:46:08.999Z</time></trkpt><trkpt lat="45.68188920152645" lon="11.341125329678531"><ele>379.5</ele><time>2026-04-04T16:46:09.999Z</time></trkpt><trkpt lat="45.682128443914856" lon="11.34088194134607"><ele>379.0</ele><time>2026-04-04T16:46:10.999Z</time></trkpt><trkpt lat="45.6823580851481" lon="11.3406840962605"><ele>385.66666666666663</ele><time>2026-04-04T16:46:11.999Z</time></trkpt><trkpt lat="45.68253115840909" lon="11.340503169878476"><ele>392.3333333333333</ele><time>2026-04-04T16:46:12.999Z</time></trkpt><trkpt lat="45.68262704497756" lon="11.340343782181787"><ele>399.0</ele><time>2026-04-04T16:46:13.999Z</time></trkpt><trkpt lat="45.68268893180446" lon="11.34021931881864"><ele>399.0</ele><time>2026-04-04T16:46:14.999Z</time></trkpt><trkpt lat="45.68282608789751" lon="11.340252375232156"><ele>389.0</ele><time>2026-04-04T16:46:17.999Z</time></trkpt><trkpt lat="45.68289067391717" lon="11.340225736310202"><ele>389.0</ele><time>2026-04-04T16:46:20.999Z</time></trkpt><trkpt lat="45.68279571590494" lon="11.340248743426093"><ele>389.0</ele><time>2026-04-04T16:50:59.999Z</time></trkpt><trkpt lat="45.68280883842828" lon="11.34015596564422"><ele>389.0</ele><time>2026-04-04T16:51:11.999Z</time></trkpt><trkpt lat="45.68283972662347" lon="11.340065799589661"><ele>389.0</ele><time>2026-04-04T16:55:05.999Z</time></trkpt></trkseg></trk></gpx>